<?xml version='1.0' encoding='UTF-8'?><gpx version="1.1" creator="JPX - https://github.com/jenetics/jpx" xmlns="http://www.topografix.com/GPX/1/1"><trk><trkseg><trkpt lat="41.1824467" lon="16.6720233"><ele>22.0</ele><time>2026-04-19T06:12:22.633Z</time></trkpt><trkpt lat="41.1823683" lon="16.672125"><ele>22.0</ele><time>2026-04-19T06:12:26.634Z</time></trkpt><trkpt lat="41.1823383" lon="16.6722233"><ele>22.0</ele><time>2026-04-19T06:12:27.634Z</time></trkpt><trkpt lat="41.1823017" lon="16.6723183"><ele>22.0</ele><time>2026-04-19T06:12:28.634Z</time></trkpt><trkpt lat="41.1822717" lon="16.6723967"><ele>22.0</ele><time>2026-04-19T06:12:29.636Z</time></trkpt><trkpt lat="41.1822433" lon="16.6725167"><ele>22.0</ele><time>2026-04-19T06:12:31.633Z</time></trkpt><trkpt lat="41.1823133" lon="16.672555"><ele>22.0</ele><time>2026-04-19T06:12:41.633Z</time></trkpt><trkpt lat="41.1824517" lon="16.6725733"><ele>22.0</ele><time>2026-04-19T06:12:43.634Z</time></trkpt><trkpt lat="41.1825383" lon="16.6725833"><ele>22.0</ele><time>2026-04-19T06:12:44.634Z</time></trkpt><trkpt lat="41.18261" lon="16.672585"><ele>22.0</ele><time>2026-04-19T06:12:45.633Z</time></trkpt><trkpt lat="41.182675" lon="16.6725883"><ele>22.0</ele><time>2026-04-19T06:12:46.634Z</time></trkpt><trkpt lat="41.1827867" lon="16.672605"><ele>22.0</ele><time>2026-04-19T06:12:48.633Z</time></trkpt><trkpt lat="41.1828817" lon="16.6726117"><ele>22.0</ele><time>2026-04-19T06:12:50.634Z</time></trkpt><trkpt lat="41.18296" lon="16.6726567"><ele>22.0</ele><time>2026-04-19T06:12:52.633Z</time></trkpt><trkpt lat="41.1829983" lon="16.672785"><ele>22.0</ele><time>2026-04-19T06:12:54.633Z</time></trkpt><trkpt lat="41.183005" lon="16.672895"><ele>22.0</ele><time>2026-04-19T06:12:55.633Z</time></trkpt><trkpt lat="41.183005" lon="16.6730383"><ele>22.400000000000002</ele><time>2026-04-19T06:12:56.634Z</time></trkpt><trkpt lat="41.1829967" lon="16.6732"><ele>22.8</ele><time>2026-04-19T06:12:57.633Z</time></trkpt><trkpt lat="41.182995" lon="16.673355"><ele>23.2</ele><time>2026-04-19T06:12:58.633Z</time></trkpt><trkpt lat="41.1829983" lon="16.6735017"><ele>23.6</ele><time>2026-04-19T06:12:59.633Z</time></trkpt><trkpt lat="41.1829983" lon="16.67362"><ele>24.0</ele><time>2026-04-19T06:13:00.633Z</time></trkpt><trkpt lat="41.1830167" lon="16.6737667"><ele>23.0</ele><time>2026-04-19T06:13:02.634Z</time></trkpt><trkpt lat="41.18304" lon="16.673865"><ele>22.0</ele><time>2026-04-19T06:13:04.633Z</time></trkpt><trkpt lat="41.1831283" lon="16.67394"><ele>21.0</ele><time>2026-04-19T06:13:06.633Z</time></trkpt><trkpt lat="41.1832" lon="16.6739717"><ele>20.0</ele><time>2026-04-19T06:13:07.634Z</time></trkpt><trkpt lat="41.1832633" lon="16.6740033"><ele>19.0</ele><time>2026-04-19T06:13:08.635Z</time></trkpt><trkpt lat="41.18332" lon="16.6740417"><ele>18.0</ele><time>2026-04-19T06:13:09.633Z</time></trkpt><trkpt lat="41.183385" lon="16.6740617"><ele>18.0</ele><time>2026-04-19T06:13:10.633Z</time></trkpt><trkpt lat="41.183475" lon="16.6740867"><ele>18.0</ele><time>2026-04-19T06:13:11.634Z</time></trkpt><trkpt lat="41.1835467" lon="16.6741417"><ele>18.0</ele><time>2026-04-19T06:13:12.634Z</time></trkpt><trkpt lat="41.1836217" lon="16.6742067"><ele>18.0</ele><time>2026-04-19T06:13:13.634Z</time></trkpt><trkpt lat="41.1836867" lon="16.67429"><ele>18.0</ele><time>2026-04-19T06:13:14.634Z</time></trkpt><trkpt lat="41.1837433" lon="16.6743717"><ele>18.0</ele><time>2026-04-19T06:13:15.634Z</time></trkpt><trkpt lat="41.1838033" lon="16.6744383"><ele>18.2</ele><time>2026-04-19T06:13:16.634Z</time></trkpt><trkpt lat="41.1838583" lon="16.6745917"><ele>18.4</ele><time>2026-04-19T06:13:18.633Z</time></trkpt><trkpt lat="41.183915" lon="16.6746683"><ele>18.599999999999998</ele><time>2026-04-19T06:13:19.634Z</time></trkpt><trkpt lat="41.1839833" lon="16.6747633"><ele>18.8</ele><time>2026-04-19T06:13:20.634Z</time></trkpt><trkpt lat="41.1840533" lon="16.6748667"><ele>19.0</ele><time>2026-04-19T06:13:21.633Z</time></trkpt><trkpt lat="41.18412" lon="16.67497"><ele>18.666666666666664</ele><time>2026-04-19T06:13:22.633Z</time></trkpt><trkpt lat="41.1841783" lon="16.6750567"><ele>18.333333333333332</ele><time>2026-04-19T06:13:23.634Z</time></trkpt><trkpt lat="41.1842217" lon="16.67512"><ele>18.0</ele><time>2026-04-19T06:13:24.633Z</time></trkpt><trkpt lat="41.1842433" lon="16.67523"><ele>17.666666666666668</ele><time>2026-04-19T06:13:26.635Z</time></trkpt><trkpt lat="41.1841967" lon="16.6753333"><ele>17.333333333333336</ele><time>2026-04-19T06:13:29.633Z</time></trkpt><trkpt lat="41.184115" lon="16.6754367"><ele>17.0</ele><time>2026-04-19T06:13:31.635Z</time></trkpt><trkpt lat="41.1840367" lon="16.6755333"><ele>17.0</ele><time>2026-04-19T06:13:33.633Z</time></trkpt><trkpt lat="41.1840067" lon="16.6756383"><ele>17.0</ele><time>2026-04-19T06:13:36.633Z</time></trkpt><trkpt lat="41.1840433" lon="16.675745"><ele>17.0</ele><time>2026-04-19T06:13:38.635Z</time></trkpt><trkpt lat="41.1841217" lon="16.67587"><ele>17.0</ele><time>2026-04-19T06:13:40.634Z</time></trkpt><trkpt lat="41.1841683" lon="16.675935"><ele>17.0</ele><time>2026-04-19T06:13:42.633Z</time></trkpt><trkpt lat="41.1842283" lon="16.6760017"><ele>17.0</ele><time>2026-04-19T06:13:44.635Z</time></trkpt><trkpt lat="41.1843133" lon="16.676115"><ele>16.4</ele><time>2026-04-19T06:13:46.634Z</time></trkpt><trkpt lat="41.1843883" lon="16.676205"><ele>15.799999999999999</ele><time>2026-04-19T06:13:48.633Z</time></trkpt><trkpt lat="41.1843967" lon="16.67631"><ele>15.2</ele><time>2026-04-19T06:13:50.634Z</time></trkpt><trkpt lat="41.184385" lon="16.6764533"><ele>14.6</ele><time>2026-04-19T06:13:52.633Z</time></trkpt><trkpt lat="41.1843467" lon="16.6765433"><ele>14.0</ele><time>2026-04-19T06:13:54.633Z</time></trkpt><trkpt lat="41.1842533" lon="16.6767217"><ele>14.000000000000002</ele><time>2026-04-19T06:19:54.634Z</time></trkpt><trkpt lat="41.1843183" lon="16.6767167"><ele>14.0</ele><time>2026-04-19T06:20:06.633Z</time></trkpt><trkpt lat="41.1843967" lon="16.676615"><ele>14.0</ele><time>2026-04-19T06:20:08.634Z</time></trkpt><trkpt lat="41.18445" lon="16.676545"><ele>14.0</ele><time>2026-04-19T06:20:09.633Z</time></trkpt><trkpt lat="41.184515" lon="16.6764683"><ele>14.000000000000002</ele><time>2026-04-19T06:20:10.633Z</time></trkpt><trkpt lat="41.1845817" lon="16.6763917"><ele>14.0</ele><time>2026-04-19T06:20:11.633Z</time></trkpt><trkpt lat="41.1846383" lon="16.676325"><ele>14.0</ele><time>2026-04-19T06:20:12.636Z</time></trkpt><trkpt lat="41.18472" lon="16.67622"><ele>13.999999999999998</ele><time>2026-04-19T06:20:14.635Z</time></trkpt><trkpt lat="41.1847733" lon="16.6761583"><ele>13.999999999999998</ele><time>2026-04-19T06:20:16.634Z</time></trkpt><trkpt lat="41.1848267" lon="16.6761067"><ele>14.0</ele><time>2026-04-19T06:20:38.634Z</time></trkpt><trkpt lat="41.18493" lon="16.6759767"><ele>14.0</ele><time>2026-04-19T06:20:40.634Z</time></trkpt><trkpt lat="41.1849967" lon="16.6759033"><ele>13.666666666666668</ele><time>2026-04-19T06:20:41.634Z</time></trkpt><trkpt lat="41.185055" lon="16.6758317"><ele>13.333333333333334</ele><time>2026-04-19T06:20:42.633Z</time></trkpt><trkpt lat="41.1851333" lon="16.675735"><ele>13.0</ele><time>2026-04-19T06:20:44.633Z</time></trkpt><trkpt lat="41.18518" lon="16.67566"><ele>12.666666666666668</ele><time>2026-04-19T06:20:47.633Z</time></trkpt><trkpt lat="41.18516" lon="16.6755383"><ele>12.333333333333334</ele><time>2026-04-19T06:20:51.633Z</time></trkpt><trkpt lat="41.1851117" lon="16.6754783"><ele>12.0</ele><time>2026-04-19T06:20:52.633Z</time></trkpt><trkpt lat="41.1850633" lon="16.67541"><ele>12.0</ele><time>2026-04-19T06:20:53.633Z</time></trkpt><trkpt lat="41.1850133" lon="16.6753383"><ele>12.0</ele><time>2026-04-19T06:20:54.634Z</time></trkpt><trkpt lat="41.184965" lon="16.6752717"><ele>12.0</ele><time>2026-04-19T06:20:55.635Z</time></trkpt><trkpt lat="41.1849183" lon="16.6751983"><ele>12.0</ele><time>2026-04-19T06:20:56.634Z</time></trkpt><trkpt lat="41.1848583" lon="16.6751117"><ele>12.0</ele><time>2026-04-19T06:20:57.635Z</time></trkpt><trkpt lat="41.184795" lon="16.6750217"><ele>12.0</ele><time>2026-04-19T06:20:58.633Z</time></trkpt><trkpt lat="41.184735" lon="16.6749433"><ele>13.0</ele><time>2026-04-19T06:20:59.633Z</time></trkpt><trkpt lat="41.1846883" lon="16.674885"><ele>14.0</ele><time>2026-04-19T06:21:00.633Z</time></trkpt><trkpt lat="41.1846333" lon="16.6748017"><ele>15.0</ele><time>2026-04-19T06:21:02.633Z</time></trkpt><trkpt lat="41.1845467" lon="16.6746767"><ele>16.0</ele><time>2026-04-19T06:21:04.633Z</time></trkpt><trkpt lat="41.1844867" lon="16.67459"><ele>17.0</ele><time>2026-04-19T06:21:05.635Z</time></trkpt><trkpt lat="41.1844183" lon="16.6744933"><ele>17.166666666666668</ele><time>2026-04-19T06:21:06.634Z</time></trkpt><trkpt lat="41.1843533" lon="16.6743967"><ele>17.333333333333336</ele><time>2026-04-19T06:21:07.633Z</time></trkpt><trkpt lat="41.184295" lon="16.674315"><ele>17.5</ele><time>2026-04-19T06:21:08.634Z</time></trkpt><trkpt lat="41.184245" lon="16.6742433"><ele>17.666666666666668</ele><time>2026-04-19T06:21:09.633Z</time></trkpt><trkpt lat="41.1842" lon="16.6741833"><ele>17.833333333333332</ele><time>2026-04-19T06:21:10.633Z</time></trkpt><trkpt lat="41.18412" lon="16.6740967"><ele>18.0</ele><time>2026-04-19T06:21:12.633Z</time></trkpt><trkpt lat="41.1840683" lon="16.6740467"><ele>18.0</ele><time>2026-04-19T06:21:14.634Z</time></trkpt><trkpt lat="41.1839933" lon="16.6739967"><ele>18.0</ele><time>2026-04-19T06:21:17.634Z</time></trkpt><trkpt lat="41.183885" lon="16.673995"><ele>18.0</ele><time>2026-04-19T06:21:19.633Z</time></trkpt><trkpt lat="41.1838133" lon="16.673995"><ele>18.0</ele><time>2026-04-19T06:21:20.634Z</time></trkpt><trkpt lat="41.18374" lon="16.674"><ele>18.0</ele><time>2026-04-19T06:21:21.633Z</time></trkpt><trkpt lat="41.1836733" lon="16.6739983"><ele>18.0</ele><time>2026-04-19T06:21:22.634Z</time></trkpt><trkpt lat="41.1835667" lon="16.674"><ele>18.0</ele><time>2026-04-19T06:21:24.633Z</time></trkpt><trkpt lat="41.1834617" lon="16.6740083"><ele>18.0</ele><time>2026-04-19T06:21:26.635Z</time></trkpt><trkpt lat="41.1833833" lon="16.6739967"><ele>18.0</ele><time>2026-04-19T06:21:28.642Z</time></trkpt><trkpt lat="41.183305" lon="16.6739833"><ele>18.0</ele><time>2026-04-19T06:21:30.633Z</time></trkpt><trkpt lat="41.1832333" lon="16.6739583"><ele>18.0</ele><time>2026-04-19T06:21:32.634Z</time></trkpt><trkpt lat="41.1831583" lon="16.67393"><ele>18.0</ele><time>2026-04-19T06:21:34.635Z</time></trkpt><trkpt lat="41.1830833" lon="16.6738983"><ele>17.8</ele><time>2026-04-19T06:21:36.634Z</time></trkpt><trkpt lat="41.182965" lon="16.6738533"><ele>17.6</ele><time>2026-04-19T06:21:38.635Z</time></trkpt><trkpt lat="41.1828867" lon="16.6738233"><ele>17.4</ele><time>2026-04-19T06:21:39.634Z</time></trkpt><trkpt lat="41.182795" lon="16.6737933"><ele>17.2</ele><time>2026-04-19T06:21:40.633Z</time></trkpt><trkpt lat="41.1826867" lon="16.6737667"><ele>17.0</ele><time>2026-04-19T06:21:41.635Z</time></trkpt><trkpt lat="41.1825617" lon="16.6737517"><ele>17.0</ele><time>2026-04-19T06:21:42.634Z</time></trkpt><trkpt lat="41.1824383" lon="16.6737433"><ele>17.0</ele><time>2026-04-19T06:21:43.634Z</time></trkpt><trkpt lat="41.1823267" lon="16.673735"><ele>17.0</ele><time>2026-04-19T06:21:44.634Z</time></trkpt><trkpt lat="41.1822317" lon="16.6737133"><ele>17.0</ele><time>2026-04-19T06:21:45.633Z</time></trkpt><trkpt lat="41.1821483" lon="16.6736817"><ele>17.0</ele><time>2026-04-19T06:21:46.635Z</time></trkpt><trkpt lat="41.1820683" lon="16.673645"><ele>17.0</ele><time>2026-04-19T06:21:47.634Z</time></trkpt><trkpt lat="41.1819933" lon="16.673625"><ele>17.0</ele><time>2026-04-19T06:21:48.633Z</time></trkpt><trkpt lat="41.1819167" lon="16.673635"><ele>17.0</ele><time>2026-04-19T06:21:49.634Z</time></trkpt><trkpt lat="41.1818317" lon="16.6736533"><ele>17.0</ele><time>2026-04-19T06:21:50.634Z</time></trkpt><trkpt lat="41.181735" lon="16.6736517"><ele>17.0</ele><time>2026-04-19T06:21:51.633Z</time></trkpt><trkpt lat="41.1816283" lon="16.6736267"><ele>17.0</ele><time>2026-04-19T06:21:52.635Z</time></trkpt><trkpt lat="41.1815067" lon="16.6736"><ele>18.0</ele><time>2026-04-19T06:21:53.633Z</time></trkpt><trkpt lat="41.1813767" lon="16.6735567"><ele>19.0</ele><time>2026-04-19T06:21:54.633Z</time></trkpt><trkpt lat="41.18124" lon="16.673515"><ele>20.0</ele><time>2026-04-19T06:21:55.634Z</time></trkpt><trkpt lat="41.181085" lon="16.6734983"><ele>21.0</ele><time>2026-04-19T06:21:56.635Z</time></trkpt><trkpt lat="41.18094" lon="16.673485"><ele>21.0</ele><time>2026-04-19T06:21:57.634Z</time></trkpt><trkpt lat="41.1808067" lon="16.6734717"><ele>21.0</ele><time>2026-04-19T06:21:58.634Z</time></trkpt><trkpt lat="41.1806667" lon="16.6734733"><ele>21.0</ele><time>2026-04-19T06:21:59.634Z</time></trkpt><trkpt lat="41.1805183" lon="16.6734883"><ele>21.0</ele><time>2026-04-19T06:22:00.634Z</time></trkpt><trkpt lat="41.1803633" lon="16.673505"><ele>20.333333333333332</ele><time>2026-04-19T06:22:01.634Z</time></trkpt><trkpt lat="41.1802083" lon="16.6735217"><ele>19.666666666666664</ele><time>2026-04-19T06:22:02.634Z</time></trkpt><trkpt lat="41.180075" lon="16.6735833"><ele>19.0</ele><time>2026-04-19T06:22:03.633Z</time></trkpt><trkpt lat="41.179905" lon="16.6735583"><ele>19.0</ele><time>2026-04-19T06:22:04.633Z</time></trkpt><trkpt lat="41.1797467" lon="16.6735267"><ele>19.0</ele><time>2026-04-19T06:22:05.635Z</time></trkpt><trkpt lat="41.1796033" lon="16.6734933"><ele>19.0</ele><time>2026-04-19T06:22:06.634Z</time></trkpt><trkpt lat="41.1794717" lon="16.673445"><ele>19.0</ele><time>2026-04-19T06:22:07.634Z</time></trkpt><trkpt lat="41.1793483" lon="16.67338"><ele>19.0</ele><time>2026-04-19T06:22:08.633Z</time></trkpt><trkpt lat="41.1792383" lon="16.6732967"><ele>19.0</ele><time>2026-04-19T06:22:09.634Z</time></trkpt><trkpt lat="41.1791417" lon="16.6732133"><ele>19.0</ele><time>2026-04-19T06:22:10.635Z</time></trkpt><trkpt lat="41.179055" lon="16.6731483"><ele>19.0</ele><time>2026-04-19T06:22:11.635Z</time></trkpt><trkpt lat="41.1789783" lon="16.67309"><ele>19.0</ele><time>2026-04-19T06:22:12.633Z</time></trkpt><trkpt lat="41.1789" lon="16.6730333"><ele>19.5</ele><time>2026-04-19T06:22:13.633Z</time></trkpt><trkpt lat="41.1788183" lon="16.6729733"><ele>20.0</ele><time>2026-04-19T06:22:14.634Z</time></trkpt><trkpt lat="41.1787433" lon="16.67292"><ele>20.5</ele><time>2026-04-19T06:22:15.633Z</time></trkpt><trkpt lat="41.178675" lon="16.6728717"><ele>21.0</ele><time>2026-04-19T06:22:16.633Z</time></trkpt><trkpt lat="41.1786117" lon="16.6728267"><ele>21.5</ele><time>2026-04-19T06:22:17.634Z</time></trkpt><trkpt lat="41.178555" lon="16.6727867"><ele>22.0</ele><time>2026-04-19T06:22:18.633Z</time></trkpt><trkpt lat="41.1784633" lon="16.6727117"><ele>22.166666666666664</ele><time>2026-04-19T06:22:20.634Z</time></trkpt><trkpt lat="41.1784133" lon="16.6725967"><ele>22.333333333333332</ele><time>2026-04-19T06:22:22.634Z</time></trkpt><trkpt lat="41.178385" lon="16.6724767"><ele>22.5</ele><time>2026-04-19T06:22:24.633Z</time></trkpt><trkpt lat="41.17833" lon="16.67239"><ele>22.666666666666668</ele><time>2026-04-19T06:22:26.634Z</time></trkpt><trkpt lat="41.1782383" lon="16.6723417"><ele>22.833333333333336</ele><time>2026-04-19T06:22:28.633Z</time></trkpt><trkpt lat="41.1781733" lon="16.672325"><ele>23.0</ele><time>2026-04-19T06:22:29.633Z</time></trkpt><trkpt lat="41.1781017" lon="16.6723333"><ele>23.2</ele><time>2026-04-19T06:22:30.633Z</time></trkpt><trkpt lat="41.17802" lon="16.672365"><ele>23.4</ele><time>2026-04-19T06:22:31.634Z</time></trkpt><trkpt lat="41.1779333" lon="16.672405"><ele>23.599999999999998</ele><time>2026-04-19T06:22:32.633Z</time></trkpt><trkpt lat="41.1778433" lon="16.67245"><ele>23.799999999999997</ele><time>2026-04-19T06:22:33.633Z</time></trkpt><trkpt lat="41.1777517" lon="16.6725"><ele>24.0</ele><time>2026-04-19T06:22:34.633Z</time></trkpt><trkpt lat="41.1776533" lon="16.6725617"><ele>24.0</ele><time>2026-04-19T06:22:35.633Z</time></trkpt><trkpt lat="41.17756" lon="16.6726283"><ele>24.0</ele><time>2026-04-19T06:22:36.634Z</time></trkpt><trkpt lat="41.1774833" lon="16.6726933"><ele>24.0</ele><time>2026-04-19T06:22:37.633Z</time></trkpt><trkpt lat="41.1774017" lon="16.6727583"><ele>24.0</ele><time>2026-04-19T06:22:38.633Z</time></trkpt><trkpt lat="41.177315" lon="16.6728283"><ele>24.0</ele><time>2026-04-19T06:22:39.633Z</time></trkpt><trkpt lat="41.177225" lon="16.6729017"><ele>23.75</ele><time>2026-04-19T06:22:40.633Z</time></trkpt><trkpt lat="41.1771283" lon="16.6729817"><ele>23.5</ele><time>2026-04-19T06:22:41.633Z</time></trkpt><trkpt lat="41.1770233" lon="16.673055"><ele>23.25</ele><time>2026-04-19T06:22:42.633Z</time></trkpt><trkpt lat="41.17691" lon="16.673125"><ele>23.0</ele><time>2026-04-19T06:22:43.634Z</time></trkpt><trkpt lat="41.176785" lon="16.6731867"><ele>23.0</ele><time>2026-04-19T06:22:44.635Z</time></trkpt><trkpt lat="41.176645" lon="16.6732433"><ele>23.0</ele><time>2026-04-19T06:22:45.633Z</time></trkpt><trkpt lat="41.176495" lon="16.6732917"><ele>23.0</ele><time>2026-04-19T06:22:46.633Z</time></trkpt><trkpt lat="41.17634" lon="16.6733267"><ele>23.5</ele><time>2026-04-19T06:22:47.634Z</time></trkpt><trkpt lat="41.1761933" lon="16.67335"><ele>24.0</ele><time>2026-04-19T06:22:48.633Z</time></trkpt><trkpt lat="41.176055" lon="16.6733667"><ele>24.5</ele><time>2026-04-19T06:22:49.634Z</time></trkpt><trkpt lat="41.1759133" lon="16.6733817"><ele>25.0</ele><time>2026-04-19T06:22:50.634Z</time></trkpt><trkpt lat="41.175765" lon="16.6733933"><ele>25.666666666666668</ele><time>2026-04-19T06:22:51.633Z</time></trkpt><trkpt lat="41.1756117" lon="16.6734017"><ele>26.333333333333336</ele><time>2026-04-19T06:22:52.634Z</time></trkpt><trkpt lat="41.1754483" lon="16.6734067"><ele>27.0</ele><time>2026-04-19T06:22:53.635Z</time></trkpt><trkpt lat="41.1752817" lon="16.6734"><ele>27.0</ele><time>2026-04-19T06:22:54.633Z</time></trkpt><trkpt lat="41.1751217" lon="16.6733817"><ele>27.0</ele><time>2026-04-19T06:22:55.634Z</time></trkpt><trkpt lat="41.17497" lon="16.67336"><ele>27.0</ele><time>2026-04-19T06:22:56.634Z</time></trkpt><trkpt lat="41.1748133" lon="16.6733383"><ele>27.666666666666664</ele><time>2026-04-19T06:22:57.633Z</time></trkpt><trkpt lat="41.1746483" lon="16.6733217"><ele>28.333333333333332</ele><time>2026-04-19T06:22:58.633Z</time></trkpt><trkpt lat="41.174475" lon="16.6733033"><ele>29.0</ele><time>2026-04-19T06:22:59.633Z</time></trkpt><trkpt lat="41.1743" lon="16.6732833"><ele>29.0</ele><time>2026-04-19T06:23:00.633Z</time></trkpt><trkpt lat="41.1741333" lon="16.6732633"><ele>29.0</ele><time>2026-04-19T06:23:01.633Z</time></trkpt><trkpt lat="41.1739767" lon="16.6732467"><ele>29.0</ele><time>2026-04-19T06:23:02.634Z</time></trkpt><trkpt lat="41.1738183" lon="16.6732283"><ele>29.333333333333332</ele><time>2026-04-19T06:23:03.633Z</time></trkpt><trkpt lat="41.1736583" lon="16.6732117"><ele>29.666666666666664</ele><time>2026-04-19T06:23:04.633Z</time></trkpt><trkpt lat="41.1734983" lon="16.6731933"><ele>30.0</ele><time>2026-04-19T06:23:05.633Z</time></trkpt><trkpt lat="41.1733417" lon="16.6731733"><ele>29.666666666666664</ele><time>2026-04-19T06:23:06.634Z</time></trkpt><trkpt lat="41.17318" lon="16.67315"><ele>29.333333333333332</ele><time>2026-04-19T06:23:07.633Z</time></trkpt><trkpt lat="41.1730183" lon="16.673125"><ele>29.0</ele><time>2026-04-19T06:23:08.634Z</time></trkpt><trkpt lat="41.17285" lon="16.6731033"><ele>29.0</ele><time>2026-04-19T06:23:09.633Z</time></trkpt><trkpt lat="41.1726783" lon="16.6730817"><ele>29.0</ele><time>2026-04-19T06:23:10.634Z</time></trkpt><trkpt lat="41.1725" lon="16.6730617"><ele>29.0</ele><time>2026-04-19T06:23:11.635Z</time></trkpt><trkpt lat="41.1723167" lon="16.673035"><ele>29.666666666666664</ele><time>2026-04-19T06:23:12.634Z</time></trkpt><trkpt lat="41.17214" lon="16.67301"><ele>30.333333333333336</ele><time>2026-04-19T06:23:13.634Z</time></trkpt><trkpt lat="41.1719683" lon="16.6729867"><ele>31.0</ele><time>2026-04-19T06:23:14.635Z</time></trkpt><trkpt lat="41.1717983" lon="16.6729633"><ele>31.0</ele><time>2026-04-19T06:23:15.634Z</time></trkpt><trkpt lat="41.171625" lon="16.6729433"><ele>31.0</ele><time>2026-04-19T06:23:16.636Z</time></trkpt><trkpt lat="41.1714483" lon="16.6729217"><ele>31.0</ele><time>2026-04-19T06:23:17.634Z</time></trkpt><trkpt lat="41.171275" lon="16.6728983"><ele>31.666666666666668</ele><time>2026-04-19T06:23:18.635Z</time></trkpt><trkpt lat="41.1711017" lon="16.6728767"><ele>32.333333333333336</ele><time>2026-04-19T06:23:19.634Z</time></trkpt><trkpt lat="41.1709267" lon="16.67286"><ele>33.0</ele><time>2026-04-19T06:23:20.635Z</time></trkpt><trkpt lat="41.1707483" lon="16.6728433"><ele>33.0</ele><time>2026-04-19T06:23:21.634Z</time></trkpt><trkpt lat="41.1705733" lon="16.6728283"><ele>33.0</ele><time>2026-04-19T06:23:22.635Z</time></trkpt><trkpt lat="41.1704017" lon="16.6728167"><ele>33.0</ele><time>2026-04-19T06:23:23.634Z</time></trkpt><trkpt lat="41.1702367" lon="16.6728067"><ele>33.0</ele><time>2026-04-19T06:23:24.634Z</time></trkpt><trkpt lat="41.1700733" lon="16.6727967"><ele>33.0</ele><time>2026-04-19T06:23:25.633Z</time></trkpt><trkpt lat="41.1699233" lon="16.6727983"><ele>33.0</ele><time>2026-04-19T06:23:26.634Z</time></trkpt><trkpt lat="41.1697967" lon="16.6728017"><ele>33.0</ele><time>2026-04-19T06:23:27.633Z</time></trkpt><trkpt lat="41.169705" lon="16.6728"><ele>33.6</ele><time>2026-04-19T06:23:28.634Z</time></trkpt><trkpt lat="41.1696317" lon="16.6727833"><ele>34.199999999999996</ele><time>2026-04-19T06:23:29.634Z</time></trkpt><trkpt lat="41.169565" lon="16.6727433"><ele>34.8</ele><time>2026-04-19T06:23:30.634Z</time></trkpt><trkpt lat="41.1695017" lon="16.67268"><ele>35.4</ele><time>2026-04-19T06:23:31.634Z</time></trkpt><trkpt lat="41.1694283" lon="16.672575"><ele>36.0</ele><time>2026-04-19T06:23:32.634Z</time></trkpt><trkpt lat="41.1693483" lon="16.6724567"><ele>36.0</ele><time>2026-04-19T06:23:33.634Z</time></trkpt><trkpt lat="41.169265" lon="16.6723433"><ele>36.0</ele><time>2026-04-19T06:23:34.633Z</time></trkpt><trkpt lat="41.1691783" lon="16.6722433"><ele>36.0</ele><time>2026-04-19T06:23:35.633Z</time></trkpt><trkpt lat="41.1690883" lon="16.6721617"><ele>36.0</ele><time>2026-04-19T06:23:36.633Z</time></trkpt><trkpt lat="41.1689733" lon="16.6720883"><ele>36.25</ele><time>2026-04-19T06:23:37.634Z</time></trkpt><trkpt lat="41.168845" lon="16.6720167"><ele>36.5</ele><time>2026-04-19T06:23:38.634Z</time></trkpt><trkpt lat="41.16871" lon="16.671955"><ele>36.75</ele><time>2026-04-19T06:23:39.633Z</time></trkpt><trkpt lat="41.1685717" lon="16.67189"><ele>37.0</ele><time>2026-04-19T06:23:40.634Z</time></trkpt><trkpt lat="41.168425" lon="16.6718183"><ele>37.0</ele><time>2026-04-19T06:23:41.634Z</time></trkpt><trkpt lat="41.1682867" lon="16.6717483"><ele>37.0</ele><time>2026-04-19T06:23:42.633Z</time></trkpt><trkpt lat="41.1681633" lon="16.67168"><ele>37.0</ele><time>2026-04-19T06:23:43.633Z</time></trkpt><trkpt lat="41.168045" lon="16.6716033"><ele>37.0</ele><time>2026-04-19T06:23:44.634Z</time></trkpt><trkpt lat="41.1679367" lon="16.671535"><ele>37.75</ele><time>2026-04-19T06:23:45.633Z</time></trkpt><trkpt lat="41.1678233" lon="16.6714767"><ele>38.5</ele><time>2026-04-19T06:23:46.635Z</time></trkpt><trkpt lat="41.1677" lon="16.6714283"><ele>39.25</ele><time>2026-04-19T06:23:47.636Z</time></trkpt><trkpt lat="41.16757" lon="16.6713883"><ele>40.0</ele><time>2026-04-19T06:23:48.635Z</time></trkpt><trkpt lat="41.1674383" lon="16.6713567"><ele>39.75</ele><time>2026-04-19T06:23:49.635Z</time></trkpt><trkpt lat="41.1673083" lon="16.67134"><ele>39.5</ele><time>2026-04-19T06:23:50.635Z</time></trkpt><trkpt lat="41.16718" lon="16.6713417"><ele>39.25</ele><time>2026-04-19T06:23:51.635Z</time></trkpt><trkpt lat="41.1670467" lon="16.6713333"><ele>39.0</ele><time>2026-04-19T06:23:52.634Z</time></trkpt><trkpt lat="41.1669133" lon="16.6713283"><ele>39.0</ele><time>2026-04-19T06:23:53.634Z</time></trkpt><trkpt lat="41.166785" lon="16.6713183"><ele>39.0</ele><time>2026-04-19T06:23:54.634Z</time></trkpt><trkpt lat="41.1666667" lon="16.671295"><ele>39.0</ele><time>2026-04-19T06:23:55.633Z</time></trkpt><trkpt lat="41.166555" lon="16.6712767"><ele>39.0</ele><time>2026-04-19T06:23:56.635Z</time></trkpt><trkpt lat="41.1664533" lon="16.6712667"><ele>39.166666666666664</ele><time>2026-04-19T06:23:57.634Z</time></trkpt><trkpt lat="41.1663583" lon="16.6712617"><ele>39.333333333333336</ele><time>2026-04-19T06:23:58.634Z</time></trkpt><trkpt lat="41.1662733" lon="16.6712533"><ele>39.5</ele><time>2026-04-19T06:23:59.633Z</time></trkpt><trkpt lat="41.16619" lon="16.67124"><ele>39.66666666666667</ele><time>2026-04-19T06:24:00.634Z</time></trkpt><trkpt lat="41.1661067" lon="16.67123"><ele>39.833333333333336</ele><time>2026-04-19T06:24:01.633Z</time></trkpt><trkpt lat="41.16603" lon="16.671215"><ele>40.0</ele><time>2026-04-19T06:24:02.634Z</time></trkpt><trkpt lat="41.165965" lon="16.67119"><ele>40.0</ele><time>2026-04-19T06:24:03.634Z</time></trkpt><trkpt lat="41.1658433" lon="16.671145"><ele>40.0</ele><time>2026-04-19T06:24:05.633Z</time></trkpt><trkpt lat="41.16576" lon="16.67113"><ele>40.0</ele><time>2026-04-19T06:24:06.633Z</time></trkpt><trkpt lat="41.1656617" lon="16.6711133"><ele>40.0</ele><time>2026-04-19T06:24:07.635Z</time></trkpt><trkpt lat="41.16555" lon="16.6710933"><ele>40.0</ele><time>2026-04-19T06:24:08.633Z</time></trkpt><trkpt lat="41.1654233" lon="16.6710833"><ele>40.5</ele><time>2026-04-19T06:24:09.633Z</time></trkpt><trkpt lat="41.165295" lon="16.6710833"><ele>41.0</ele><time>2026-04-19T06:24:10.634Z</time></trkpt><trkpt lat="41.16516" lon="16.6710833"><ele>41.5</ele><time>2026-04-19T06:24:11.633Z</time></trkpt><trkpt lat="41.1650267" lon="16.67108"><ele>42.0</ele><time>2026-04-19T06:24:12.634Z</time></trkpt><trkpt lat="41.164905" lon="16.6710783"><ele>42.0</ele><time>2026-04-19T06:24:13.634Z</time></trkpt><trkpt lat="41.1647783" lon="16.6710767"><ele>42.0</ele><time>2026-04-19T06:24:14.635Z</time></trkpt><trkpt lat="41.1646533" lon="16.6710767"><ele>42.0</ele><time>2026-04-19T06:24:15.634Z</time></trkpt><trkpt lat="41.1645367" lon="16.6710817"><ele>42.0</ele><time>2026-04-19T06:24:16.634Z</time></trkpt><trkpt lat="41.1644167" lon="16.6710967"><ele>43.0</ele><time>2026-04-19T06:24:17.633Z</time></trkpt><trkpt lat="41.1642933" lon="16.67112"><ele>44.0</ele><time>2026-04-19T06:24:18.634Z</time></trkpt><trkpt lat="41.16417" lon="16.671145"><ele>45.0</ele><time>2026-04-19T06:24:19.635Z</time></trkpt><trkpt lat="41.16406" lon="16.67117"><ele>46.0</ele><time>2026-04-19T06:24:20.635Z</time></trkpt><trkpt lat="41.16396" lon="16.6712"><ele>46.0</ele><time>2026-04-19T06:24:21.634Z</time></trkpt><trkpt lat="41.1638717" lon="16.6712417"><ele>46.0</ele><time>2026-04-19T06:24:22.634Z</time></trkpt><trkpt lat="41.1637833" lon="16.6713083"><ele>46.0</ele><time>2026-04-19T06:24:23.635Z</time></trkpt><trkpt lat="41.163695" lon="16.671395"><ele>46.0</ele><time>2026-04-19T06:24:24.633Z</time></trkpt><trkpt lat="41.1636033" lon="16.6714767"><ele>46.0</ele><time>2026-04-19T06:24:25.634Z</time></trkpt><trkpt lat="41.1635117" lon="16.671535"><ele>46.0</ele><time>2026-04-19T06:24:26.633Z</time></trkpt><trkpt lat="41.1634117" lon="16.6715833"><ele>46.0</ele><time>2026-04-19T06:24:27.633Z</time></trkpt><trkpt lat="41.163305" lon="16.6716333"><ele>46.0</ele><time>2026-04-19T06:24:28.634Z</time></trkpt><trkpt lat="41.163195" lon="16.6716867"><ele>46.0</ele><time>2026-04-19T06:24:29.633Z</time></trkpt><trkpt lat="41.1630817" lon="16.6717333"><ele>46.5</ele><time>2026-04-19T06:24:30.633Z</time></trkpt><trkpt lat="41.16296" lon="16.671775"><ele>47.0</ele><time>2026-04-19T06:24:31.633Z</time></trkpt><trkpt lat="41.1628367" lon="16.6718167"><ele>47.5</ele><time>2026-04-19T06:24:32.635Z</time></trkpt><trkpt lat="41.1627183" lon="16.671855"><ele>48.0</ele><time>2026-04-19T06:24:33.633Z</time></trkpt><trkpt lat="41.1626083" lon="16.6718833"><ele>48.0</ele><time>2026-04-19T06:24:34.634Z</time></trkpt><trkpt lat="41.1625067" lon="16.6718983"><ele>48.0</ele><time>2026-04-19T06:24:35.634Z</time></trkpt><trkpt lat="41.16241" lon="16.6719033"><ele>48.0</ele><time>2026-04-19T06:24:36.635Z</time></trkpt><trkpt lat="41.1623067" lon="16.6719017"><ele>48.0</ele><time>2026-04-19T06:24:37.633Z</time></trkpt><trkpt lat="41.16219" lon="16.6718967"><ele>48.0</ele><time>2026-04-19T06:24:38.635Z</time></trkpt><trkpt lat="41.16207" lon="16.6718883"><ele>48.4</ele><time>2026-04-19T06:24:39.635Z</time></trkpt><trkpt lat="41.161955" lon="16.6718667"><ele>48.8</ele><time>2026-04-19T06:24:40.633Z</time></trkpt><trkpt lat="41.1618383" lon="16.671835"><ele>49.2</ele><time>2026-04-19T06:24:41.634Z</time></trkpt><trkpt lat="41.1617333" lon="16.6717983"><ele>49.6</ele><time>2026-04-19T06:24:42.634Z</time></trkpt><trkpt lat="41.1616367" lon="16.67176"><ele>50.0</ele><time>2026-04-19T06:24:43.635Z</time></trkpt><trkpt lat="41.1615483" lon="16.6717283"><ele>50.333333333333336</ele><time>2026-04-19T06:24:44.633Z</time></trkpt><trkpt lat="41.1614667" lon="16.6716967"><ele>50.66666666666667</ele><time>2026-04-19T06:24:45.634Z</time></trkpt><trkpt lat="41.1613967" lon="16.671675"><ele>51.0</ele><time>2026-04-19T06:24:46.633Z</time></trkpt><trkpt lat="41.1613183" lon="16.6716717"><ele>51.33333333333333</ele><time>2026-04-19T06:24:47.634Z</time></trkpt><trkpt lat="41.1612267" lon="16.6716867"><ele>51.666666666666664</ele><time>2026-04-19T06:24:48.633Z</time></trkpt><trkpt lat="41.1611283" lon="16.67172"><ele>52.0</ele><time>2026-04-19T06:24:49.634Z</time></trkpt><trkpt lat="41.1610317" lon="16.6717517"><ele>52.0</ele><time>2026-04-19T06:24:50.635Z</time></trkpt><trkpt lat="41.1609317" lon="16.671775"><ele>52.0</ele><time>2026-04-19T06:24:51.634Z</time></trkpt><trkpt lat="41.1608267" lon="16.6717767"><ele>52.0</ele><time>2026-04-19T06:24:52.634Z</time></trkpt><trkpt lat="41.1607133" lon="16.6717717"><ele>52.0</ele><time>2026-04-19T06:24:53.635Z</time></trkpt><trkpt lat="41.1605833" lon="16.6717617"><ele>52.0</ele><time>2026-04-19T06:24:54.634Z</time></trkpt><trkpt lat="41.1604467" lon="16.671745"><ele>52.0</ele><time>2026-04-19T06:24:55.633Z</time></trkpt><trkpt lat="41.160315" lon="16.67173"><ele>52.0</ele><time>2026-04-19T06:24:56.634Z</time></trkpt><trkpt lat="41.160195" lon="16.671715"><ele>52.0</ele><time>2026-04-19T06:24:57.634Z</time></trkpt><trkpt lat="41.16008" lon="16.6717067"><ele>52.0</ele><time>2026-04-19T06:24:58.633Z</time></trkpt><trkpt lat="41.159975" lon="16.67169"><ele>52.0</ele><time>2026-04-19T06:24:59.634Z</time></trkpt><trkpt lat="41.1598767" lon="16.6716583"><ele>52.0</ele><time>2026-04-19T06:25:00.634Z</time></trkpt><trkpt lat="41.1597717" lon="16.6716083"><ele>52.0</ele><time>2026-04-19T06:25:01.633Z</time></trkpt><trkpt lat="41.1596583" lon="16.67155"><ele>52.0</ele><time>2026-04-19T06:25:02.635Z</time></trkpt><trkpt lat="41.159535" lon="16.6715"><ele>52.25</ele><time>2026-04-19T06:25:03.634Z</time></trkpt><trkpt lat="41.1594033" lon="16.6714567"><ele>52.5</ele><time>2026-04-19T06:25:04.633Z</time></trkpt><trkpt lat="41.1592717" lon="16.6714083"><ele>52.75</ele><time>2026-04-19T06:25:05.634Z</time></trkpt><trkpt lat="41.1591433" lon="16.6713517"><ele>53.0</ele><time>2026-04-19T06:25:06.633Z</time></trkpt><trkpt lat="41.15902" lon="16.67128"><ele>53.25</ele><time>2026-04-19T06:25:07.634Z</time></trkpt><trkpt lat="41.1589067" lon="16.671215"><ele>53.5</ele><time>2026-04-19T06:25:08.635Z</time></trkpt><trkpt lat="41.1587833" lon="16.6711633"><ele>53.75</ele><time>2026-04-19T06:25:09.634Z</time></trkpt><trkpt lat="41.15866" lon="16.671125"><ele>54.0</ele><time>2026-04-19T06:25:10.634Z</time></trkpt><trkpt lat="41.1585483" lon="16.6711033"><ele>54.0</ele><time>2026-04-19T06:25:11.634Z</time></trkpt><trkpt lat="41.15844" lon="16.6710917"><ele>54.00000000000001</ele><time>2026-04-19T06:25:12.633Z</time></trkpt><trkpt lat="41.1583367" lon="16.6710933"><ele>54.00000000000001</ele><time>2026-04-19T06:25:13.634Z</time></trkpt><trkpt lat="41.1582417" lon="16.6711067"><ele>54.0</ele><time>2026-04-19T06:25:14.634Z</time></trkpt><trkpt lat="41.158155" lon="16.6711117"><ele>54.0</ele><time>2026-04-19T06:25:15.634Z</time></trkpt><trkpt lat="41.1580733" lon="16.6711033"><ele>54.166666666666664</ele><time>2026-04-19T06:25:16.634Z</time></trkpt><trkpt lat="41.1579833" lon="16.6710733"><ele>54.33333333333333</ele><time>2026-04-19T06:25:17.633Z</time></trkpt><trkpt lat="41.1579067" lon="16.6710217"><ele>54.5</ele><time>2026-04-19T06:25:18.635Z</time></trkpt><trkpt lat="41.1578367" lon="16.67096"><ele>54.666666666666664</ele><time>2026-04-19T06:25:19.634Z</time></trkpt><trkpt lat="41.1577567" lon="16.6709133"><ele>54.83333333333333</ele><time>2026-04-19T06:25:20.635Z</time></trkpt><trkpt lat="41.1576667" lon="16.6708817"><ele>55.0</ele><time>2026-04-19T06:25:21.634Z</time></trkpt><trkpt lat="41.15756" lon="16.6708683"><ele>55.0</ele><time>2026-04-19T06:25:22.634Z</time></trkpt><trkpt lat="41.1574433" lon="16.6708733"><ele>55.0</ele><time>2026-04-19T06:25:23.635Z</time></trkpt><trkpt lat="41.157315" lon="16.67089"><ele>55.0</ele><time>2026-04-19T06:25:24.634Z</time></trkpt><trkpt lat="41.15718" lon="16.6709117"><ele>55.0</ele><time>2026-04-19T06:25:25.633Z</time></trkpt><trkpt lat="41.1570383" lon="16.6709317"><ele>55.25</ele><time>2026-04-19T06:25:26.634Z</time></trkpt><trkpt lat="41.1569083" lon="16.6709517"><ele>55.5</ele><time>2026-04-19T06:25:27.635Z</time></trkpt><trkpt lat="41.15679" lon="16.6709717"><ele>55.75</ele><time>2026-04-19T06:25:28.634Z</time></trkpt><trkpt lat="41.1566667" lon="16.670995"><ele>56.0</ele><time>2026-04-19T06:25:29.633Z</time></trkpt><trkpt lat="41.1565417" lon="16.6710183"><ele>56.75</ele><time>2026-04-19T06:25:30.633Z</time></trkpt><trkpt lat="41.1564167" lon="16.671035"><ele>57.5</ele><time>2026-04-19T06:25:31.633Z</time></trkpt><trkpt lat="41.15629" lon="16.671045"><ele>58.25</ele><time>2026-04-19T06:25:32.635Z</time></trkpt><trkpt lat="41.1561767" lon="16.6710567"><ele>59.0</ele><time>2026-04-19T06:25:33.633Z</time></trkpt><trkpt lat="41.1560733" lon="16.6710833"><ele>58.800000000000004</ele><time>2026-04-19T06:25:34.633Z</time></trkpt><trkpt lat="41.1559667" lon="16.6711317"><ele>58.60000000000001</ele><time>2026-04-19T06:25:35.633Z</time></trkpt><trkpt lat="41.1558633" lon="16.6711883"><ele>58.4</ele><time>2026-04-19T06:25:36.634Z</time></trkpt><trkpt lat="41.1557667" lon="16.6712367"><ele>58.2</ele><time>2026-04-19T06:25:37.633Z</time></trkpt><trkpt lat="41.1556583" lon="16.6712733"><ele>58.0</ele><time>2026-04-19T06:25:38.634Z</time></trkpt><trkpt lat="41.15554" lon="16.671295"><ele>58.4</ele><time>2026-04-19T06:25:39.634Z</time></trkpt><trkpt lat="41.1554183" lon="16.671315"><ele>58.8</ele><time>2026-04-19T06:25:40.633Z</time></trkpt><trkpt lat="41.155305" lon="16.6713317"><ele>59.2</ele><time>2026-04-19T06:25:41.633Z</time></trkpt><trkpt lat="41.155205" lon="16.6713383"><ele>59.6</ele><time>2026-04-19T06:25:42.633Z</time></trkpt><trkpt lat="41.15511" lon="16.6713333"><ele>60.0</ele><time>2026-04-19T06:25:43.633Z</time></trkpt><trkpt lat="41.1550083" lon="16.6713183"><ele>60.0</ele><time>2026-04-19T06:25:44.633Z</time></trkpt><trkpt lat="41.1549" lon="16.6712967"><ele>60.0</ele><time>2026-04-19T06:25:45.633Z</time></trkpt><trkpt lat="41.1547883" lon="16.6712733"><ele>60.0</ele><time>2026-04-19T06:25:46.633Z</time></trkpt><trkpt lat="41.1546767" lon="16.67125"><ele>60.0</ele><time>2026-04-19T06:25:47.633Z</time></trkpt><trkpt lat="41.15456" lon="16.67123"><ele>60.25</ele><time>2026-04-19T06:25:48.634Z</time></trkpt><trkpt lat="41.154445" lon="16.6712033"><ele>60.5</ele><time>2026-04-19T06:25:49.633Z</time></trkpt><trkpt lat="41.15433" lon="16.6711667"><ele>60.75</ele><time>2026-04-19T06:25:50.634Z</time></trkpt><trkpt lat="41.1542267" lon="16.6711317"><ele>61.0</ele><time>2026-04-19T06:25:51.633Z</time></trkpt><trkpt lat="41.1541183" lon="16.6711033"><ele>61.25</ele><time>2026-04-19T06:25:52.634Z</time></trkpt><trkpt lat="41.1540083" lon="16.6710683"><ele>61.5</ele><time>2026-04-19T06:25:53.633Z</time></trkpt><trkpt lat="41.153895" lon="16.671025"><ele>61.75</ele><time>2026-04-19T06:25:54.635Z</time></trkpt><trkpt lat="41.1537833" lon="16.670975"><ele>62.0</ele><time>2026-04-19T06:25:55.634Z</time></trkpt><trkpt lat="41.1536667" lon="16.670925"><ele>62.0</ele><time>2026-04-19T06:25:56.635Z</time></trkpt><trkpt lat="41.153555" lon="16.6708717"><ele>62.0</ele><time>2026-04-19T06:25:57.633Z</time></trkpt><trkpt lat="41.1534483" lon="16.6708233"><ele>62.0</ele><time>2026-04-19T06:25:58.633Z</time></trkpt><trkpt lat="41.153345" lon="16.670775"><ele>62.0</ele><time>2026-04-19T06:25:59.636Z</time></trkpt><trkpt lat="41.1532617" lon="16.6707383"><ele>62.0</ele><time>2026-04-19T06:26:00.633Z</time></trkpt><trkpt lat="41.1532" lon="16.6707083"><ele>62.0</ele><time>2026-04-19T06:26:01.633Z</time></trkpt><trkpt lat="41.15309" lon="16.6706667"><ele>62.0</ele><time>2026-04-19T06:26:03.633Z</time></trkpt><trkpt lat="41.1529733" lon="16.6706233"><ele>62.0</ele><time>2026-04-19T06:26:05.633Z</time></trkpt><trkpt lat="41.1528967" lon="16.6705933"><ele>62.0</ele><time>2026-04-19T06:26:06.633Z</time></trkpt><trkpt lat="41.1528167" lon="16.67056"><ele>62.0</ele><time>2026-04-19T06:26:07.634Z</time></trkpt><trkpt lat="41.1527383" lon="16.6705333"><ele>62.00000000000001</ele><time>2026-04-19T06:26:08.635Z</time></trkpt><trkpt lat="41.1526533" lon="16.67051"><ele>62.0</ele><time>2026-04-19T06:26:09.633Z</time></trkpt><trkpt lat="41.1525667" lon="16.6704967"><ele>62.0</ele><time>2026-04-19T06:26:10.633Z</time></trkpt><trkpt lat="41.15249" lon="16.670485"><ele>62.0</ele><time>2026-04-19T06:26:11.633Z</time></trkpt><trkpt lat="41.1524133" lon="16.670475"><ele>62.00000000000001</ele><time>2026-04-19T06:26:12.633Z</time></trkpt><trkpt lat="41.1523333" lon="16.67047"><ele>62.0</ele><time>2026-04-19T06:26:13.633Z</time></trkpt><trkpt lat="41.1522467" lon="16.6704583"><ele>63.0</ele><time>2026-04-19T06:26:14.634Z</time></trkpt><trkpt lat="41.1521517" lon="16.6704383"><ele>64.0</ele><time>2026-04-19T06:26:15.633Z</time></trkpt><trkpt lat="41.1520483" lon="16.6704083"><ele>65.0</ele><time>2026-04-19T06:26:16.633Z</time></trkpt><trkpt lat="41.1519433" lon="16.6703767"><ele>66.0</ele><time>2026-04-19T06:26:17.633Z</time></trkpt><trkpt lat="41.15183" lon="16.6703383"><ele>67.0</ele><time>2026-04-19T06:26:18.633Z</time></trkpt><trkpt lat="41.1517183" lon="16.6702967"><ele>66.6</ele><time>2026-04-19T06:26:19.634Z</time></trkpt><trkpt lat="41.1516217" lon="16.6702633"><ele>66.2</ele><time>2026-04-19T06:26:20.633Z</time></trkpt><trkpt lat="41.1515367" lon="16.6702417"><ele>65.8</ele><time>2026-04-19T06:26:21.634Z</time></trkpt><trkpt lat="41.1514533" lon="16.670235"><ele>65.4</ele><time>2026-04-19T06:26:22.633Z</time></trkpt><trkpt lat="41.15136" lon="16.6702417"><ele>65.0</ele><time>2026-04-19T06:26:23.633Z</time></trkpt><trkpt lat="41.15126" lon="16.670255"><ele>65.2</ele><time>2026-04-19T06:26:24.634Z</time></trkpt><trkpt lat="41.1511517" lon="16.670275"><ele>65.4</ele><time>2026-04-19T06:26:25.633Z</time></trkpt><trkpt lat="41.1510417" lon="16.670295"><ele>65.6</ele><time>2026-04-19T06:26:26.633Z</time></trkpt><trkpt lat="41.1509433" lon="16.67031"><ele>65.8</ele><time>2026-04-19T06:26:27.637Z</time></trkpt><trkpt lat="41.1508483" lon="16.6703233"><ele>66.0</ele><time>2026-04-19T06:26:28.634Z</time></trkpt><trkpt lat="41.1507483" lon="16.6703333"><ele>65.75</ele><time>2026-04-19T06:26:29.633Z</time></trkpt><trkpt lat="41.1506417" lon="16.6703417"><ele>65.5</ele><time>2026-04-19T06:26:30.633Z</time></trkpt><trkpt lat="41.1505267" lon="16.6703483"><ele>65.25</ele><time>2026-04-19T06:26:31.633Z</time></trkpt><trkpt lat="41.1504083" lon="16.670365"><ele>65.0</ele><time>2026-04-19T06:26:32.636Z</time></trkpt><trkpt lat="41.1502833" lon="16.6703817"><ele>65.0</ele><time>2026-04-19T06:26:33.633Z</time></trkpt><trkpt lat="41.1501683" lon="16.6703917"><ele>65.0</ele><time>2026-04-19T06:26:34.633Z</time></trkpt><trkpt lat="41.1500467" lon="16.6704017"><ele>65.0</ele><time>2026-04-19T06:26:35.633Z</time></trkpt><trkpt lat="41.1499167" lon="16.6704067"><ele>65.0</ele><time>2026-04-19T06:26:36.633Z</time></trkpt><trkpt lat="41.1497883" lon="16.6704033"><ele>65.25</ele><time>2026-04-19T06:26:37.634Z</time></trkpt><trkpt lat="41.1496583" lon="16.6703933"><ele>65.5</ele><time>2026-04-19T06:26:38.633Z</time></trkpt><trkpt lat="41.1495317" lon="16.6703917"><ele>65.75</ele><time>2026-04-19T06:26:39.633Z</time></trkpt><trkpt lat="41.149415" lon="16.6703917"><ele>66.0</ele><time>2026-04-19T06:26:40.633Z</time></trkpt><trkpt lat="41.1493067" lon="16.6703933"><ele>66.0</ele><time>2026-04-19T06:26:41.634Z</time></trkpt><trkpt lat="41.1491983" lon="16.6703883"><ele>66.0</ele><time>2026-04-19T06:26:42.633Z</time></trkpt><trkpt lat="41.1490817" lon="16.6703683"><ele>66.0</ele><time>2026-04-19T06:26:43.633Z</time></trkpt><trkpt lat="41.14896" lon="16.6703417"><ele>66.0</ele><time>2026-04-19T06:26:44.634Z</time></trkpt><trkpt lat="41.1488383" lon="16.670325"><ele>66.75</ele><time>2026-04-19T06:26:45.633Z</time></trkpt><trkpt lat="41.1487167" lon="16.6703217"><ele>67.5</ele><time>2026-04-19T06:26:46.633Z</time></trkpt><trkpt lat="41.1486067" lon="16.6703267"><ele>68.25</ele><time>2026-04-19T06:26:47.633Z</time></trkpt><trkpt lat="41.1484967" lon="16.6703483"><ele>69.0</ele><time>2026-04-19T06:26:48.633Z</time></trkpt><trkpt lat="41.1483867" lon="16.6703867"><ele>69.0</ele><time>2026-04-19T06:26:49.634Z</time></trkpt><trkpt lat="41.148275" lon="16.67044"><ele>69.0</ele><time>2026-04-19T06:26:50.633Z</time></trkpt><trkpt lat="41.148165" lon="16.6704967"><ele>69.0</ele><time>2026-04-19T06:26:51.633Z</time></trkpt><trkpt lat="41.1480633" lon="16.670535"><ele>69.0</ele><time>2026-04-19T06:26:52.637Z</time></trkpt><trkpt lat="41.147965" lon="16.6705533"><ele>69.0</ele><time>2026-04-19T06:26:53.639Z</time></trkpt><trkpt lat="41.147865" lon="16.6705567"><ele>69.4</ele><time>2026-04-19T06:26:54.633Z</time></trkpt><trkpt lat="41.147775" lon="16.6705383"><ele>69.80000000000001</ele><time>2026-04-19T06:26:55.633Z</time></trkpt><trkpt lat="41.147695" lon="16.67051"><ele>70.19999999999999</ele><time>2026-04-19T06:26:56.635Z</time></trkpt><trkpt lat="41.147605" lon="16.670465"><ele>70.6</ele><time>2026-04-19T06:26:57.633Z</time></trkpt><trkpt lat="41.1475117" lon="16.6704133"><ele>71.0</ele><time>2026-04-19T06:26:58.635Z</time></trkpt><trkpt lat="41.147415" lon="16.67036"><ele>71.33333333333334</ele><time>2026-04-19T06:26:59.634Z</time></trkpt><trkpt lat="41.1473317" lon="16.670315"><ele>71.66666666666667</ele><time>2026-04-19T06:27:00.633Z</time></trkpt><trkpt lat="41.1472533" lon="16.6702733"><ele>72.0</ele><time>2026-04-19T06:27:01.634Z</time></trkpt><trkpt lat="41.1471783" lon="16.6702433"><ele>72.33333333333333</ele><time>2026-04-19T06:27:02.634Z</time></trkpt><trkpt lat="41.1470917" lon="16.6702217"><ele>72.66666666666666</ele><time>2026-04-19T06:27:03.633Z</time></trkpt><trkpt lat="41.1470017" lon="16.6702033"><ele>73.0</ele><time>2026-04-19T06:27:04.636Z</time></trkpt><trkpt lat="41.146905" lon="16.6701917"><ele>73.0</ele><time>2026-04-19T06:27:05.635Z</time></trkpt><trkpt lat="41.1468017" lon="16.6701867"><ele>73.0</ele><time>2026-04-19T06:27:06.635Z</time></trkpt><trkpt lat="41.146705" lon="16.67019"><ele>73.0</ele><time>2026-04-19T06:27:07.635Z</time></trkpt><trkpt lat="41.1466133" lon="16.670195"><ele>73.0</ele><time>2026-04-19T06:27:08.635Z</time></trkpt><trkpt lat="41.1465317" lon="16.670205"><ele>73.0</ele><time>2026-04-19T06:27:09.634Z</time></trkpt><trkpt lat="41.1464617" lon="16.6702067"><ele>73.0</ele><time>2026-04-19T06:27:10.634Z</time></trkpt><trkpt lat="41.14635" lon="16.6701517"><ele>73.2</ele><time>2026-04-19T06:27:12.635Z</time></trkpt><trkpt lat="41.1462717" lon="16.6700417"><ele>73.4</ele><time>2026-04-19T06:27:14.634Z</time></trkpt><trkpt lat="41.14624" lon="16.669955"><ele>73.60000000000001</ele><time>2026-04-19T06:27:15.634Z</time></trkpt><trkpt lat="41.1462117" lon="16.6698567"><ele>73.8</ele><time>2026-04-19T06:27:16.633Z</time></trkpt><trkpt lat="41.146165" lon="16.669745"><ele>74.0</ele><time>2026-04-19T06:27:17.635Z</time></trkpt><trkpt lat="41.1461217" lon="16.66963"><ele>74.0</ele><time>2026-04-19T06:27:18.633Z</time></trkpt><trkpt lat="41.1460817" lon="16.669525"><ele>74.0</ele><time>2026-04-19T06:27:19.634Z</time></trkpt><trkpt lat="41.1460417" lon="16.6694283"><ele>74.0</ele><time>2026-04-19T06:27:20.634Z</time></trkpt><trkpt lat="41.146005" lon="16.6693233"><ele>74.0</ele><time>2026-04-19T06:27:21.633Z</time></trkpt><trkpt lat="41.145965" lon="16.6692167"><ele>74.0</ele><time>2026-04-19T06:27:22.633Z</time></trkpt><trkpt lat="41.1459183" lon="16.6691183"><ele>74.0</ele><time>2026-04-19T06:27:23.634Z</time></trkpt><trkpt lat="41.1458533" lon="16.6690133"><ele>74.16666666666667</ele><time>2026-04-19T06:27:24.633Z</time></trkpt><trkpt lat="41.1458017" lon="16.6689083"><ele>74.33333333333334</ele><time>2026-04-19T06:27:25.634Z</time></trkpt><trkpt lat="41.1457517" lon="16.668825"><ele>74.5</ele><time>2026-04-19T06:27:26.636Z</time></trkpt><trkpt lat="41.145695" lon="16.6687433"><ele>74.66666666666667</ele><time>2026-04-19T06:27:27.633Z</time></trkpt><trkpt lat="41.1456317" lon="16.6686633"><ele>74.83333333333333</ele><time>2026-04-19T06:27:28.634Z</time></trkpt><trkpt lat="41.1455567" lon="16.6685933"><ele>75.0</ele><time>2026-04-19T06:27:29.635Z</time></trkpt><trkpt lat="41.14548" lon="16.6685183"><ele>75.5</ele><time>2026-04-19T06:27:30.634Z</time></trkpt><trkpt lat="41.1453883" lon="16.66846"><ele>76.0</ele><time>2026-04-19T06:27:31.633Z</time></trkpt><trkpt lat="41.1452833" lon="16.6684233"><ele>76.5</ele><time>2026-04-19T06:27:32.633Z</time></trkpt><trkpt lat="41.1451633" lon="16.6684"><ele>77.0</ele><time>2026-04-19T06:27:33.634Z</time></trkpt><trkpt lat="41.1450367" lon="16.6683783"><ele>77.0</ele><time>2026-04-19T06:27:34.634Z</time></trkpt><trkpt lat="41.1449017" lon="16.6683633"><ele>77.0</ele><time>2026-04-19T06:27:35.634Z</time></trkpt><trkpt lat="41.1447683" lon="16.668355"><ele>77.0</ele><time>2026-04-19T06:27:36.635Z</time></trkpt><trkpt lat="41.1446483" lon="16.6683483"><ele>77.0</ele><time>2026-04-19T06:27:37.633Z</time></trkpt><trkpt lat="41.14453" lon="16.6683417"><ele>77.25</ele><time>2026-04-19T06:27:38.635Z</time></trkpt><trkpt lat="41.1444133" lon="16.6683333"><ele>77.5</ele><time>2026-04-19T06:27:39.634Z</time></trkpt><trkpt lat="41.1442933" lon="16.66832"><ele>77.75</ele><time>2026-04-19T06:27:40.634Z</time></trkpt><trkpt lat="41.14417" lon="16.6683083"><ele>78.0</ele><time>2026-04-19T06:27:41.634Z</time></trkpt><trkpt lat="41.1440483" lon="16.6682983"><ele>78.2</ele><time>2026-04-19T06:27:42.634Z</time></trkpt><trkpt lat="41.14394" lon="16.6682917"><ele>78.4</ele><time>2026-04-19T06:27:43.634Z</time></trkpt><trkpt lat="41.1438367" lon="16.6682933"><ele>78.60000000000001</ele><time>2026-04-19T06:27:44.634Z</time></trkpt><trkpt lat="41.1437383" lon="16.6683017"><ele>78.8</ele><time>2026-04-19T06:27:45.634Z</time></trkpt><trkpt lat="41.1436317" lon="16.668325"><ele>79.0</ele><time>2026-04-19T06:27:46.633Z</time></trkpt><trkpt lat="41.1435183" lon="16.668365"><ele>79.0</ele><time>2026-04-19T06:27:47.633Z</time></trkpt><trkpt lat="41.1434017" lon="16.66841"><ele>79.0</ele><time>2026-04-19T06:27:48.633Z</time></trkpt><trkpt lat="41.1432883" lon="16.6684583"><ele>79.0</ele><time>2026-04-19T06:27:49.634Z</time></trkpt><trkpt lat="41.1431867" lon="16.6685"><ele>79.0</ele><time>2026-04-19T06:27:50.633Z</time></trkpt><trkpt lat="41.1430867" lon="16.668535"><ele>79.4</ele><time>2026-04-19T06:27:51.633Z</time></trkpt><trkpt lat="41.14298" lon="16.6685533"><ele>79.80000000000001</ele><time>2026-04-19T06:27:52.633Z</time></trkpt><trkpt lat="41.14287" lon="16.6685617"><ele>80.19999999999999</ele><time>2026-04-19T06:27:53.635Z</time></trkpt><trkpt lat="41.1427667" lon="16.6685617"><ele>80.6</ele><time>2026-04-19T06:27:54.633Z</time></trkpt><trkpt lat="41.1426717" lon="16.6685617"><ele>81.0</ele><time>2026-04-19T06:27:55.634Z</time></trkpt><trkpt lat="41.1425767" lon="16.6685683"><ele>81.0</ele><time>2026-04-19T06:27:56.636Z</time></trkpt><trkpt lat="41.1424833" lon="16.6685733"><ele>81.0</ele><time>2026-04-19T06:27:57.633Z</time></trkpt><trkpt lat="41.1423983" lon="16.6685683"><ele>81.0</ele><time>2026-04-19T06:27:58.633Z</time></trkpt><trkpt lat="41.1423183" lon="16.668575"><ele>81.0</ele><time>2026-04-19T06:27:59.633Z</time></trkpt><trkpt lat="41.142235" lon="16.6685867"><ele>81.0</ele><time>2026-04-19T06:28:00.633Z</time></trkpt><trkpt lat="41.14215" lon="16.6686033"><ele>81.0</ele><time>2026-04-19T06:28:01.634Z</time></trkpt><trkpt lat="41.1420683" lon="16.66862"><ele>81.16666666666667</ele><time>2026-04-19T06:28:02.635Z</time></trkpt><trkpt lat="41.1419817" lon="16.6686317"><ele>81.33333333333333</ele><time>2026-04-19T06:28:03.633Z</time></trkpt><trkpt lat="41.1418917" lon="16.6686433"><ele>81.5</ele><time>2026-04-19T06:28:04.634Z</time></trkpt><trkpt lat="41.1418033" lon="16.6686517"><ele>81.66666666666666</ele><time>2026-04-19T06:28:05.635Z</time></trkpt><trkpt lat="41.1417233" lon="16.66866"><ele>81.83333333333333</ele><time>2026-04-19T06:28:06.633Z</time></trkpt><trkpt lat="41.1416483" lon="16.6686683"><ele>82.0</ele><time>2026-04-19T06:28:07.633Z</time></trkpt><trkpt lat="41.141575" lon="16.6686767"><ele>82.33333333333333</ele><time>2026-04-19T06:28:08.634Z</time></trkpt><trkpt lat="41.141505" lon="16.66869"><ele>82.66666666666666</ele><time>2026-04-19T06:28:09.633Z</time></trkpt><trkpt lat="41.1414317" lon="16.6687"><ele>83.0</ele><time>2026-04-19T06:28:10.633Z</time></trkpt><trkpt lat="41.1413533" lon="16.668705"><ele>83.33333333333333</ele><time>2026-04-19T06:28:11.634Z</time></trkpt><trkpt lat="41.14127" lon="16.6687083"><ele>83.66666666666667</ele><time>2026-04-19T06:28:12.633Z</time></trkpt><trkpt lat="41.141185" lon="16.6687117"><ele>84.0</ele><time>2026-04-19T06:28:13.633Z</time></trkpt><trkpt lat="41.1411033" lon="16.668715"><ele>84.0</ele><time>2026-04-19T06:28:14.633Z</time></trkpt><trkpt lat="41.1410317" lon="16.66872"><ele>84.0</ele><time>2026-04-19T06:28:15.634Z</time></trkpt><trkpt lat="41.1409667" lon="16.6687283"><ele>84.0</ele><time>2026-04-19T06:28:16.633Z</time></trkpt><trkpt lat="41.1408433" lon="16.668755"><ele>84.0</ele><time>2026-04-19T06:28:18.633Z</time></trkpt><trkpt lat="41.14078" lon="16.6687667"><ele>84.0</ele><time>2026-04-19T06:28:19.634Z</time></trkpt><trkpt lat="41.1406767" lon="16.6687717"><ele>84.0</ele><time>2026-04-19T06:28:21.633Z</time></trkpt><trkpt lat="41.140575" lon="16.6687683"><ele>84.5</ele><time>2026-04-19T06:28:23.634Z</time></trkpt><trkpt lat="41.14045" lon="16.6687533"><ele>85.0</ele><time>2026-04-19T06:28:25.634Z</time></trkpt><trkpt lat="41.14034" lon="16.6687383"><ele>85.5</ele><time>2026-04-19T06:28:27.633Z</time></trkpt><trkpt lat="41.1402317" lon="16.6687283"><ele>86.0</ele><time>2026-04-19T06:28:29.633Z</time></trkpt><trkpt lat="41.1401233" lon="16.6687167"><ele>86.0</ele><time>2026-04-19T06:28:31.633Z</time></trkpt><trkpt lat="41.14001" lon="16.6687183"><ele>86.0</ele><time>2026-04-19T06:28:33.633Z</time></trkpt><trkpt lat="41.139895" lon="16.6687417"><ele>86.0</ele><time>2026-04-19T06:28:35.634Z</time></trkpt><trkpt lat="41.1397783" lon="16.66879"><ele>86.0</ele><time>2026-04-19T06:28:37.633Z</time></trkpt><trkpt lat="41.1396717" lon="16.6688233"><ele>86.0</ele><time>2026-04-19T06:28:39.633Z</time></trkpt><trkpt lat="41.1395717" lon="16.6688233"><ele>86.0</ele><time>2026-04-19T06:28:41.633Z</time></trkpt><trkpt lat="41.139465" lon="16.6688017"><ele>86.0</ele><time>2026-04-19T06:28:43.634Z</time></trkpt><trkpt lat="41.1393417" lon="16.6687767"><ele>86.0</ele><time>2026-04-19T06:28:45.633Z</time></trkpt><trkpt lat="41.1392767" lon="16.668765"><ele>86.0</ele><time>2026-04-19T06:28:46.633Z</time></trkpt><trkpt lat="41.1391583" lon="16.66875"><ele>86.5</ele><time>2026-04-19T06:28:48.634Z</time></trkpt><trkpt lat="41.1390467" lon="16.668735"><ele>87.0</ele><time>2026-04-19T06:28:50.634Z</time></trkpt><trkpt lat="41.1389383" lon="16.6687217"><ele>87.5</ele><time>2026-04-19T06:28:52.634Z</time></trkpt><trkpt lat="41.1388167" lon="16.6687017"><ele>88.0</ele><time>2026-04-19T06:28:54.634Z</time></trkpt><trkpt lat="41.1387" lon="16.6686933"><ele>88.0</ele><time>2026-04-19T06:28:56.634Z</time></trkpt><trkpt lat="41.1386183" lon="16.6686933"><ele>88.0</ele><time>2026-04-19T06:28:58.634Z</time></trkpt><trkpt lat="41.1385517" lon="16.66869"><ele>88.0</ele><time>2026-04-19T06:29:00.634Z</time></trkpt><trkpt lat="41.1384767" lon="16.66868"><ele>88.0</ele><time>2026-04-19T06:29:03.633Z</time></trkpt><trkpt lat="41.1384083" lon="16.6686633"><ele>88.0</ele><time>2026-04-19T06:29:06.632Z</time></trkpt><trkpt lat="41.1383417" lon="16.66867"><ele>88.0</ele><time>2026-04-19T06:29:08.633Z</time></trkpt><trkpt lat="41.1382583" lon="16.6686517"><ele>88.0</ele><time>2026-04-19T06:29:10.634Z</time></trkpt><trkpt lat="41.1381767" lon="16.66863"><ele>88.4</ele><time>2026-04-19T06:29:12.633Z</time></trkpt><trkpt lat="41.138085" lon="16.6686183"><ele>88.80000000000001</ele><time>2026-04-19T06:29:14.633Z</time></trkpt><trkpt lat="41.1380083" lon="16.6686067"><ele>89.2</ele><time>2026-04-19T06:29:16.634Z</time></trkpt><trkpt lat="41.1379167" lon="16.6686083"><ele>89.6</ele><time>2026-04-19T06:29:18.633Z</time></trkpt><trkpt lat="41.1377883" lon="16.668595"><ele>90.0</ele><time>2026-04-19T06:29:20.634Z</time></trkpt><trkpt lat="41.13767" lon="16.6685817"><ele>90.4</ele><time>2026-04-19T06:29:22.633Z</time></trkpt><trkpt lat="41.1375983" lon="16.6685683"><ele>90.8</ele><time>2026-04-19T06:29:23.634Z</time></trkpt><trkpt lat="41.1375183" lon="16.6685533"><ele>91.19999999999999</ele><time>2026-04-19T06:29:24.633Z</time></trkpt><trkpt lat="41.1374283" lon="16.6685467"><ele>91.6</ele><time>2026-04-19T06:29:25.633Z</time></trkpt><trkpt lat="41.13732" lon="16.66855"><ele>92.0</ele><time>2026-04-19T06:29:26.633Z</time></trkpt><trkpt lat="41.1372" lon="16.66856"><ele>92.25</ele><time>2026-04-19T06:29:27.634Z</time></trkpt><trkpt lat="41.1370667" lon="16.6685833"><ele>92.5</ele><time>2026-04-19T06:29:28.633Z</time></trkpt><trkpt lat="41.1369333" lon="16.6686183"><ele>92.75</ele><time>2026-04-19T06:29:29.633Z</time></trkpt><trkpt lat="41.1368117" lon="16.6686533"><ele>93.0</ele><time>2026-04-19T06:29:30.633Z</time></trkpt><trkpt lat="41.1367017" lon="16.668685"><ele>93.0</ele><time>2026-04-19T06:29:31.633Z</time></trkpt><trkpt lat="41.1365967" lon="16.6687033"><ele>93.0</ele><time>2026-04-19T06:29:32.633Z</time></trkpt><trkpt lat="41.1364867" lon="16.6687033"><ele>93.0</ele><time>2026-04-19T06:29:33.633Z</time></trkpt><trkpt lat="41.13637" lon="16.6686883"><ele>93.0</ele><time>2026-04-19T06:29:34.633Z</time></trkpt><trkpt lat="41.136245" lon="16.6686633"><ele>93.25</ele><time>2026-04-19T06:29:35.633Z</time></trkpt><trkpt lat="41.1361117" lon="16.6686317"><ele>93.5</ele><time>2026-04-19T06:29:36.634Z</time></trkpt><trkpt lat="41.135965" lon="16.668595"><ele>93.75</ele><time>2026-04-19T06:29:37.633Z</time></trkpt><trkpt lat="41.1358083" lon="16.6685567"><ele>94.0</ele><time>2026-04-19T06:29:38.634Z</time></trkpt><trkpt lat="41.1356483" lon="16.6685167"><ele>94.66666666666666</ele><time>2026-04-19T06:29:39.634Z</time></trkpt><trkpt lat="41.135475" lon="16.6684833"><ele>95.33333333333333</ele><time>2026-04-19T06:29:40.633Z</time></trkpt><trkpt lat="41.13529" lon="16.6684617"><ele>96.0</ele><time>2026-04-19T06:29:41.633Z</time></trkpt><trkpt lat="41.135095" lon="16.6684417"><ele>96.0</ele><time>2026-04-19T06:29:42.633Z</time></trkpt><trkpt lat="41.1348967" lon="16.6684217"><ele>96.0</ele><time>2026-04-19T06:29:43.633Z</time></trkpt><trkpt lat="41.1347083" lon="16.668405"><ele>96.0</ele><time>2026-04-19T06:29:44.633Z</time></trkpt><trkpt lat="41.1345383" lon="16.66839"><ele>96.5</ele><time>2026-04-19T06:29:45.633Z</time></trkpt><trkpt lat="41.1343867" lon="16.6683733"><ele>97.0</ele><time>2026-04-19T06:29:46.633Z</time></trkpt><trkpt lat="41.1342517" lon="16.6683533"><ele>97.5</ele><time>2026-04-19T06:29:47.635Z</time></trkpt><trkpt lat="41.1341217" lon="16.6683317"><ele>98.0</ele><time>2026-04-19T06:29:48.636Z</time></trkpt><trkpt lat="41.1339883" lon="16.6683183"><ele>98.5</ele><time>2026-04-19T06:29:49.634Z</time></trkpt><trkpt lat="41.1338483" lon="16.6683217"><ele>99.0</ele><time>2026-04-19T06:29:50.635Z</time></trkpt><trkpt lat="41.1337" lon="16.66834"><ele>99.5</ele><time>2026-04-19T06:29:51.634Z</time></trkpt><trkpt lat="41.133545" lon="16.6683767"><ele>100.0</ele><time>2026-04-19T06:29:52.634Z</time></trkpt><trkpt lat="41.1333833" lon="16.66842"><ele>101.0</ele><time>2026-04-19T06:29:53.634Z</time></trkpt><trkpt lat="41.13322" lon="16.6684683"><ele>102.0</ele><time>2026-04-19T06:29:54.633Z</time></trkpt><trkpt lat="41.133065" lon="16.6685183"><ele>103.0</ele><time>2026-04-19T06:29:55.633Z</time></trkpt><trkpt lat="41.132925" lon="16.6685667"><ele>103.0</ele><time>2026-04-19T06:29:56.633Z</time></trkpt><trkpt lat="41.13279" lon="16.6686067"><ele>103.0</ele><time>2026-04-19T06:29:57.633Z</time></trkpt><trkpt lat="41.1326517" lon="16.668625"><ele>103.0</ele><time>2026-04-19T06:29:58.638Z</time></trkpt><trkpt lat="41.13251" lon="16.668625"><ele>103.0</ele><time>2026-04-19T06:29:59.633Z</time></trkpt><trkpt lat="41.1323717" lon="16.66862"><ele>103.0</ele><time>2026-04-19T06:30:00.633Z</time></trkpt><trkpt lat="41.1322517" lon="16.6686183"><ele>103.0</ele><time>2026-04-19T06:30:01.633Z</time></trkpt><trkpt lat="41.1321567" lon="16.6686183"><ele>103.0</ele><time>2026-04-19T06:30:02.635Z</time></trkpt><trkpt lat="41.1320683" lon="16.6686383"><ele>103.0</ele><time>2026-04-19T06:30:03.634Z</time></trkpt><trkpt lat="41.1319833" lon="16.66869"><ele>103.0</ele><time>2026-04-19T06:30:04.634Z</time></trkpt><trkpt lat="41.1319" lon="16.6687783"><ele>103.0</ele><time>2026-04-19T06:30:05.634Z</time></trkpt><trkpt lat="41.1318083" lon="16.6688833"><ele>103.0</ele><time>2026-04-19T06:30:06.634Z</time></trkpt><trkpt lat="41.1317133" lon="16.668995"><ele>103.0</ele><time>2026-04-19T06:30:07.634Z</time></trkpt><trkpt lat="41.1316" lon="16.669115"><ele>103.0</ele><time>2026-04-19T06:30:08.634Z</time></trkpt><trkpt lat="41.131495" lon="16.6692383"><ele>103.0</ele><time>2026-04-19T06:30:09.634Z</time></trkpt><trkpt lat="41.1314" lon="16.669375"><ele>103.0</ele><time>2026-04-19T06:30:10.634Z</time></trkpt><trkpt lat="41.1312983" lon="16.6694867"><ele>103.0</ele><time>2026-04-19T06:30:11.633Z</time></trkpt><trkpt lat="41.13118" lon="16.669575"><ele>103.0</ele><time>2026-04-19T06:30:12.633Z</time></trkpt><trkpt lat="41.1310483" lon="16.669635"><ele>103.0</ele><time>2026-04-19T06:30:13.633Z</time></trkpt><trkpt lat="41.1309" lon="16.6696883"><ele>103.0</ele><time>2026-04-19T06:30:14.634Z</time></trkpt><trkpt lat="41.1307533" lon="16.66974"><ele>103.0</ele><time>2026-04-19T06:30:15.633Z</time></trkpt><trkpt lat="41.1306083" lon="16.6697917"><ele>103.5</ele><time>2026-04-19T06:30:16.633Z</time></trkpt><trkpt lat="41.1304617" lon="16.66985"><ele>104.0</ele><time>2026-04-19T06:30:17.634Z</time></trkpt><trkpt lat="41.13032" lon="16.66991"><ele>104.5</ele><time>2026-04-19T06:30:18.633Z</time></trkpt><trkpt lat="41.1301867" lon="16.6699733"><ele>105.0</ele><time>2026-04-19T06:30:19.633Z</time></trkpt><trkpt lat="41.1300717" lon="16.6700317"><ele>105.0</ele><time>2026-04-19T06:30:20.634Z</time></trkpt><trkpt lat="41.1299633" lon="16.6700867"><ele>105.0</ele><time>2026-04-19T06:30:21.633Z</time></trkpt><trkpt lat="41.129895" lon="16.67016"><ele>105.0</ele><time>2026-04-19T06:30:22.633Z</time></trkpt><trkpt lat="41.1297867" lon="16.67023"><ele>105.0</ele><time>2026-04-19T06:30:24.633Z</time></trkpt><trkpt lat="41.1297417" lon="16.6703033"><ele>105.0</ele><time>2026-04-19T06:30:27.633Z</time></trkpt><trkpt lat="41.12963" lon="16.6703833"><ele>105.2</ele><time>2026-04-19T06:30:29.633Z</time></trkpt><trkpt lat="41.1295483" lon="16.6704267"><ele>105.4</ele><time>2026-04-19T06:30:30.633Z</time></trkpt><trkpt lat="41.12945" lon="16.670465"><ele>105.6</ele><time>2026-04-19T06:30:31.634Z</time></trkpt><trkpt lat="41.1293383" lon="16.67048"><ele>105.8</ele><time>2026-04-19T06:30:32.634Z</time></trkpt><trkpt lat="41.1292167" lon="16.6704767"><ele>106.0</ele><time>2026-04-19T06:30:33.633Z</time></trkpt><trkpt lat="41.129095" lon="16.670455"><ele>106.0</ele><time>2026-04-19T06:30:34.634Z</time></trkpt><trkpt lat="41.1289817" lon="16.6704133"><ele>106.0</ele><time>2026-04-19T06:30:35.634Z</time></trkpt><trkpt lat="41.1288833" lon="16.670365"><ele>106.0</ele><time>2026-04-19T06:30:36.634Z</time></trkpt><trkpt lat="41.1287883" lon="16.67031"><ele>106.0</ele><time>2026-04-19T06:30:37.633Z</time></trkpt><trkpt lat="41.1286933" lon="16.6702383"><ele>106.0</ele><time>2026-04-19T06:30:38.634Z</time></trkpt><trkpt lat="41.1285983" lon="16.6701533"><ele>106.25</ele><time>2026-04-19T06:30:39.633Z</time></trkpt><trkpt lat="41.1284933" lon="16.6700567"><ele>106.5</ele><time>2026-04-19T06:30:40.633Z</time></trkpt><trkpt lat="41.12837" lon="16.6699567"><ele>106.75</ele><time>2026-04-19T06:30:41.633Z</time></trkpt><trkpt lat="41.12823" lon="16.669865"><ele>107.0</ele><time>2026-04-19T06:30:42.635Z</time></trkpt><trkpt lat="41.1280817" lon="16.66977"><ele>107.33333333333333</ele><time>2026-04-19T06:30:43.633Z</time></trkpt><trkpt lat="41.127925" lon="16.66967"><ele>107.66666666666666</ele><time>2026-04-19T06:30:44.633Z</time></trkpt><trkpt lat="41.1277583" lon="16.6695633"><ele>108.0</ele><time>2026-04-19T06:30:45.633Z</time></trkpt><trkpt lat="41.127595" lon="16.66946"><ele>107.66666666666666</ele><time>2026-04-19T06:30:46.635Z</time></trkpt><trkpt lat="41.1274433" lon="16.66937"><ele>107.33333333333333</ele><time>2026-04-19T06:30:47.633Z</time></trkpt><trkpt lat="41.1273033" lon="16.6692883"><ele>107.0</ele><time>2026-04-19T06:30:48.633Z</time></trkpt><trkpt lat="41.1271783" lon="16.669205"><ele>107.6</ele><time>2026-04-19T06:30:49.633Z</time></trkpt><trkpt lat="41.1270683" lon="16.6691233"><ele>108.19999999999999</ele><time>2026-04-19T06:30:50.633Z</time></trkpt><trkpt lat="41.1269717" lon="16.6690583"><ele>108.8</ele><time>2026-04-19T06:30:51.633Z</time></trkpt><trkpt lat="41.12689" lon="16.66901"><ele>109.4</ele><time>2026-04-19T06:30:52.635Z</time></trkpt><trkpt lat="41.12682" lon="16.6689833"><ele>110.0</ele><time>2026-04-19T06:30:53.633Z</time></trkpt><trkpt lat="41.1266917" lon="16.6689967"><ele>110.0</ele><time>2026-04-19T06:30:55.633Z</time></trkpt><trkpt lat="41.1266083" lon="16.6690317"><ele>110.0</ele><time>2026-04-19T06:30:56.634Z</time></trkpt><trkpt lat="41.1265083" lon="16.6690933"><ele>110.0</ele><time>2026-04-19T06:30:57.633Z</time></trkpt><trkpt lat="41.126395" lon="16.6691683"><ele>110.0</ele><time>2026-04-19T06:30:58.634Z</time></trkpt><trkpt lat="41.126275" lon="16.669245"><ele>110.0</ele><time>2026-04-19T06:30:59.633Z</time></trkpt><trkpt lat="41.126145" lon="16.6693267"><ele>110.0</ele><time>2026-04-19T06:31:00.633Z</time></trkpt><trkpt lat="41.1260067" lon="16.66941"><ele>110.0</ele><time>2026-04-19T06:31:01.635Z</time></trkpt><trkpt lat="41.12586" lon="16.669495"><ele>110.66666666666666</ele><time>2026-04-19T06:31:02.635Z</time></trkpt><trkpt lat="41.125705" lon="16.669585"><ele>111.33333333333334</ele><time>2026-04-19T06:31:03.634Z</time></trkpt><trkpt lat="41.12554" lon="16.6696817"><ele>112.0</ele><time>2026-04-19T06:31:04.635Z</time></trkpt><trkpt lat="41.1253717" lon="16.6697783"><ele>112.0</ele><time>2026-04-19T06:31:05.635Z</time></trkpt><trkpt lat="41.12521" lon="16.669865"><ele>112.0</ele><time>2026-04-19T06:31:06.634Z</time></trkpt><trkpt lat="41.1250583" lon="16.6699467"><ele>112.0</ele><time>2026-04-19T06:31:07.634Z</time></trkpt><trkpt lat="41.1249117" lon="16.6700267"><ele>112.0</ele><time>2026-04-19T06:31:08.634Z</time></trkpt><trkpt lat="41.1247633" lon="16.67012"><ele>112.0</ele><time>2026-04-19T06:31:09.634Z</time></trkpt><trkpt lat="41.1246133" lon="16.670235"><ele>112.0</ele><time>2026-04-19T06:31:10.635Z</time></trkpt><trkpt lat="41.124455" lon="16.6703433"><ele>111.66666666666667</ele><time>2026-04-19T06:31:11.634Z</time></trkpt><trkpt lat="41.12429" lon="16.6704633"><ele>111.33333333333334</ele><time>2026-04-19T06:31:12.633Z</time></trkpt><trkpt lat="41.124135" lon="16.6705883"><ele>111.0</ele><time>2026-04-19T06:31:13.633Z</time></trkpt><trkpt lat="41.1239867" lon="16.6707033"><ele>111.0</ele><time>2026-04-19T06:31:14.633Z</time></trkpt><trkpt lat="41.1238517" lon="16.6708117"><ele>111.0</ele><time>2026-04-19T06:31:15.633Z</time></trkpt><trkpt lat="41.1237283" lon="16.6709117"><ele>111.0</ele><time>2026-04-19T06:31:16.633Z</time></trkpt><trkpt lat="41.1236117" lon="16.6710083"><ele>111.0</ele><time>2026-04-19T06:31:17.633Z</time></trkpt><trkpt lat="41.1235067" lon="16.6710883"><ele>111.0</ele><time>2026-04-19T06:31:18.633Z</time></trkpt><trkpt lat="41.1233983" lon="16.6711617"><ele>111.0</ele><time>2026-04-19T06:31:19.634Z</time></trkpt><trkpt lat="41.1232817" lon="16.6712217"><ele>111.0</ele><time>2026-04-19T06:31:20.634Z</time></trkpt><trkpt lat="41.1231533" lon="16.6712733"><ele>111.0</ele><time>2026-04-19T06:31:21.633Z</time></trkpt><trkpt lat="41.1230183" lon="16.671325"><ele>111.0</ele><time>2026-04-19T06:31:22.633Z</time></trkpt><trkpt lat="41.122885" lon="16.67138"><ele>111.0</ele><time>2026-04-19T06:31:23.633Z</time></trkpt><trkpt lat="41.1227517" lon="16.6714533"><ele>111.0</ele><time>2026-04-19T06:31:24.633Z</time></trkpt><trkpt lat="41.1226133" lon="16.6715483"><ele>111.0</ele><time>2026-04-19T06:31:25.634Z</time></trkpt><trkpt lat="41.12247" lon="16.671665"><ele>111.33333333333334</ele><time>2026-04-19T06:31:26.633Z</time></trkpt><trkpt lat="41.12232" lon="16.6717967"><ele>111.66666666666667</ele><time>2026-04-19T06:31:27.633Z</time></trkpt><trkpt lat="41.1221633" lon="16.671935"><ele>112.0</ele><time>2026-04-19T06:31:28.633Z</time></trkpt><trkpt lat="41.1220017" lon="16.67207"><ele>112.33333333333334</ele><time>2026-04-19T06:31:29.633Z</time></trkpt><trkpt lat="41.1218333" lon="16.6721967"><ele>112.66666666666666</ele><time>2026-04-19T06:31:30.633Z</time></trkpt><trkpt lat="41.1216783" lon="16.6723167"><ele>113.0</ele><time>2026-04-19T06:31:31.633Z</time></trkpt><trkpt lat="41.12154" lon="16.6724317"><ele>113.4</ele><time>2026-04-19T06:31:32.634Z</time></trkpt><trkpt lat="41.1214183" lon="16.6725383"><ele>113.80000000000001</ele><time>2026-04-19T06:31:33.633Z</time></trkpt><trkpt lat="41.121315" lon="16.6726283"><ele>114.2</ele><time>2026-04-19T06:31:34.634Z</time></trkpt><trkpt lat="41.121255" lon="16.6726867"><ele>114.6</ele><time>2026-04-19T06:31:35.634Z</time></trkpt><trkpt lat="41.1211767" lon="16.67274"><ele>115.0</ele><time>2026-04-19T06:31:37.633Z</time></trkpt><trkpt lat="41.1210667" lon="16.6727117"><ele>115.0</ele><time>2026-04-19T06:31:39.633Z</time></trkpt><trkpt lat="41.120985" lon="16.6726633"><ele>115.0</ele><time>2026-04-19T06:31:40.634Z</time></trkpt><trkpt lat="41.1208917" lon="16.6726117"><ele>115.0</ele><time>2026-04-19T06:31:41.633Z</time></trkpt><trkpt lat="41.1207667" lon="16.67256"><ele>115.0</ele><time>2026-04-19T06:31:42.634Z</time></trkpt><trkpt lat="41.1206217" lon="16.67253"><ele>114.66666666666667</ele><time>2026-04-19T06:31:43.634Z</time></trkpt><trkpt lat="41.120465" lon="16.6725367"><ele>114.33333333333334</ele><time>2026-04-19T06:31:44.633Z</time></trkpt><trkpt lat="41.120315" lon="16.672575"><ele>114.0</ele><time>2026-04-19T06:31:45.635Z</time></trkpt><trkpt lat="41.1201767" lon="16.6726567"><ele>114.0</ele><time>2026-04-19T06:31:46.635Z</time></trkpt><trkpt lat="41.1200417" lon="16.6727583"><ele>114.0</ele><time>2026-04-19T06:31:47.634Z</time></trkpt><trkpt lat="41.1199133" lon="16.6729067"><ele>114.0</ele><time>2026-04-19T06:31:48.633Z</time></trkpt><trkpt lat="41.11981" lon="16.6730683"><ele>114.25</ele><time>2026-04-19T06:31:49.633Z</time></trkpt><trkpt lat="41.1197367" lon="16.673215"><ele>114.5</ele><time>2026-04-19T06:31:50.633Z</time></trkpt><trkpt lat="41.1196733" lon="16.6733567"><ele>114.75</ele><time>2026-04-19T06:31:51.633Z</time></trkpt><trkpt lat="41.1196233" lon="16.6735083"><ele>115.0</ele><time>2026-04-19T06:31:52.634Z</time></trkpt><trkpt lat="41.1195783" lon="16.6736667"><ele>115.25</ele><time>2026-04-19T06:31:53.633Z</time></trkpt><trkpt lat="41.1195317" lon="16.6738317"><ele>115.5</ele><time>2026-04-19T06:31:54.633Z</time></trkpt><trkpt lat="41.1194767" lon="16.6739967"><ele>115.75</ele><time>2026-04-19T06:31:55.633Z</time></trkpt><trkpt lat="41.11942" lon="16.6741533"><ele>116.0</ele><time>2026-04-19T06:31:56.634Z</time></trkpt><trkpt lat="41.1193667" lon="16.6742917"><ele>116.0</ele><time>2026-04-19T06:31:57.633Z</time></trkpt><trkpt lat="41.11932" lon="16.674415"><ele>116.0</ele><time>2026-04-19T06:31:58.633Z</time></trkpt><trkpt lat="41.1192883" lon="16.6745317"><ele>116.0</ele><time>2026-04-19T06:31:59.634Z</time></trkpt><trkpt lat="41.119235" lon="16.6746667"><ele>116.0</ele><time>2026-04-19T06:32:00.634Z</time></trkpt><trkpt lat="41.119185" lon="16.6748217"><ele>116.0</ele><time>2026-04-19T06:32:01.634Z</time></trkpt><trkpt lat="41.1191283" lon="16.6749933"><ele>116.25</ele><time>2026-04-19T06:32:02.634Z</time></trkpt><trkpt lat="41.119075" lon="16.6751617"><ele>116.5</ele><time>2026-04-19T06:32:03.634Z</time></trkpt><trkpt lat="41.1190283" lon="16.6753117"><ele>116.75</ele><time>2026-04-19T06:32:04.634Z</time></trkpt><trkpt lat="41.118985" lon="16.6754483"><ele>117.0</ele><time>2026-04-19T06:32:05.634Z</time></trkpt><trkpt lat="41.118945" lon="16.6755717"><ele>116.6</ele><time>2026-04-19T06:32:06.634Z</time></trkpt><trkpt lat="41.1189083" lon="16.6756867"><ele>116.19999999999999</ele><time>2026-04-19T06:32:07.634Z</time></trkpt><trkpt lat="41.1188667" lon="16.6758067"><ele>115.8</ele><time>2026-04-19T06:32:08.636Z</time></trkpt><trkpt lat="41.11882" lon="16.6759333"><ele>115.4</ele><time>2026-04-19T06:32:09.635Z</time></trkpt><trkpt lat="41.1187717" lon="16.6760733"><ele>115.0</ele><time>2026-04-19T06:32:10.636Z</time></trkpt><trkpt lat="41.1187183" lon="16.676225"><ele>114.75</ele><time>2026-04-19T06:32:11.636Z</time></trkpt><trkpt lat="41.1186633" lon="16.6763867"><ele>114.5</ele><time>2026-04-19T06:32:12.634Z</time></trkpt><trkpt lat="41.1186083" lon="16.67655"><ele>114.25</ele><time>2026-04-19T06:32:13.634Z</time></trkpt><trkpt lat="41.1185517" lon="16.6767183"><ele>114.0</ele><time>2026-04-19T06:32:14.635Z</time></trkpt><trkpt lat="41.1184917" lon="16.676885"><ele>114.0</ele><time>2026-04-19T06:32:15.634Z</time></trkpt><trkpt lat="41.1184367" lon="16.677035"><ele>114.0</ele><time>2026-04-19T06:32:16.634Z</time></trkpt><trkpt lat="41.1183917" lon="16.6771633"><ele>114.0</ele><time>2026-04-19T06:32:17.636Z</time></trkpt><trkpt lat="41.1183583" lon="16.6772567"><ele>114.0</ele><time>2026-04-19T06:32:18.635Z</time></trkpt><trkpt lat="41.1182933" lon="16.677355"><ele>114.0</ele><time>2026-04-19T06:32:20.634Z</time></trkpt><trkpt lat="41.1181967" lon="16.6773483"><ele>113.6</ele><time>2026-04-19T06:32:22.634Z</time></trkpt><trkpt lat="41.11813" lon="16.6773117"><ele>113.2</ele><time>2026-04-19T06:32:23.634Z</time></trkpt><trkpt lat="41.1180417" lon="16.6772333"><ele>112.79999999999998</ele><time>2026-04-19T06:32:24.634Z</time></trkpt><trkpt lat="41.117945" lon="16.6771583"><ele>112.39999999999999</ele><time>2026-04-19T06:32:25.634Z</time></trkpt><trkpt lat="41.1178383" lon="16.67707"><ele>112.0</ele><time>2026-04-19T06:32:26.636Z</time></trkpt><trkpt lat="41.1177267" lon="16.6769867"><ele>112.5</ele><time>2026-04-19T06:32:27.634Z</time></trkpt><trkpt lat="41.1176083" lon="16.6769017"><ele>113.0</ele><time>2026-04-19T06:32:28.635Z</time></trkpt><trkpt lat="41.117485" lon="16.6768183"><ele>113.5</ele><time>2026-04-19T06:32:29.635Z</time></trkpt><trkpt lat="41.117355" lon="16.6767317"><ele>114.0</ele><time>2026-04-19T06:32:30.634Z</time></trkpt><trkpt lat="41.1172167" lon="16.6766483"><ele>114.75</ele><time>2026-04-19T06:32:31.635Z</time></trkpt><trkpt lat="41.1170767" lon="16.67656"><ele>115.5</ele><time>2026-04-19T06:32:32.636Z</time></trkpt><trkpt lat="41.1169433" lon="16.6764733"><ele>116.25</ele><time>2026-04-19T06:32:33.635Z</time></trkpt><trkpt lat="41.1168217" lon="16.6763933"><ele>117.0</ele><time>2026-04-19T06:32:34.634Z</time></trkpt><trkpt lat="41.1167083" lon="16.67632"><ele>117.0</ele><time>2026-04-19T06:32:35.634Z</time></trkpt><trkpt lat="41.1165967" lon="16.6762483"><ele>117.0</ele><time>2026-04-19T06:32:36.634Z</time></trkpt><trkpt lat="41.1164917" lon="16.676175"><ele>117.0</ele><time>2026-04-19T06:32:37.634Z</time></trkpt><trkpt lat="41.1163917" lon="16.6761117"><ele>117.0</ele><time>2026-04-19T06:32:38.635Z</time></trkpt><trkpt lat="41.1163017" lon="16.676055"><ele>117.0</ele><time>2026-04-19T06:32:39.634Z</time></trkpt><trkpt lat="41.1162117" lon="16.6759967"><ele>117.0</ele><time>2026-04-19T06:32:40.635Z</time></trkpt><trkpt lat="41.116125" lon="16.6759433"><ele>117.0</ele><time>2026-04-19T06:32:41.635Z</time></trkpt><trkpt lat="41.1160483" lon="16.6759"><ele>117.0</ele><time>2026-04-19T06:32:42.634Z</time></trkpt><trkpt lat="41.1159867" lon="16.6758667"><ele>117.0</ele><time>2026-04-19T06:32:43.634Z</time></trkpt><trkpt lat="41.115895" lon="16.6758367"><ele>117.0</ele><time>2026-04-19T06:32:45.634Z</time></trkpt><trkpt lat="41.115815" lon="16.6758867"><ele>117.0</ele><time>2026-04-19T06:32:47.634Z</time></trkpt><trkpt lat="41.11578" lon="16.6759783"><ele>117.0</ele><time>2026-04-19T06:32:48.634Z</time></trkpt><trkpt lat="41.11574" lon="16.676125"><ele>117.0</ele><time>2026-04-19T06:32:49.634Z</time></trkpt><trkpt lat="41.1156767" lon="16.6762983"><ele>117.0</ele><time>2026-04-19T06:32:50.634Z</time></trkpt><trkpt lat="41.115605" lon="16.6764817"><ele>117.0</ele><time>2026-04-19T06:32:51.635Z</time></trkpt><trkpt lat="41.1155233" lon="16.676675"><ele>117.0</ele><time>2026-04-19T06:32:52.635Z</time></trkpt><trkpt lat="41.11544" lon="16.6768817"><ele>117.0</ele><time>2026-04-19T06:32:53.634Z</time></trkpt><trkpt lat="41.1153517" lon="16.6770917"><ele>117.0</ele><time>2026-04-19T06:32:54.634Z</time></trkpt><trkpt lat="41.1152633" lon="16.6773117"><ele>117.0</ele><time>2026-04-19T06:32:55.635Z</time></trkpt><trkpt lat="41.1151733" lon="16.6775417"><ele>117.0</ele><time>2026-04-19T06:32:56.634Z</time></trkpt><trkpt lat="41.115085" lon="16.677765"><ele>117.0</ele><time>2026-04-19T06:32:57.634Z</time></trkpt><trkpt lat="41.1149967" lon="16.6779883"><ele>117.0</ele><time>2026-04-19T06:32:58.634Z</time></trkpt><trkpt lat="41.1149217" lon="16.6782283"><ele>117.0</ele><time>2026-04-19T06:32:59.635Z</time></trkpt><trkpt lat="41.1148617" lon="16.6784633"><ele>116.66666666666666</ele><time>2026-04-19T06:33:00.634Z</time></trkpt><trkpt lat="41.1148083" lon="16.67869"><ele>116.33333333333333</ele><time>2026-04-19T06:33:01.635Z</time></trkpt><trkpt lat="41.1147567" lon="16.678905"><ele>116.0</ele><time>2026-04-19T06:33:02.636Z</time></trkpt><trkpt lat="41.11471" lon="16.6791067"><ele>116.0</ele><time>2026-04-19T06:33:03.635Z</time></trkpt><trkpt lat="41.1146667" lon="16.6792983"><ele>116.0</ele><time>2026-04-19T06:33:04.635Z</time></trkpt><trkpt lat="41.114625" lon="16.67948"><ele>116.0</ele><time>2026-04-19T06:33:05.636Z</time></trkpt><trkpt lat="41.1145867" lon="16.6796533"><ele>116.0</ele><time>2026-04-19T06:33:06.636Z</time></trkpt><trkpt lat="41.1145533" lon="16.6798183"><ele>116.0</ele><time>2026-04-19T06:33:07.637Z</time></trkpt><trkpt lat="41.1145217" lon="16.679985"><ele>116.0</ele><time>2026-04-19T06:33:08.636Z</time></trkpt><trkpt lat="41.1144867" lon="16.68015"><ele>116.0</ele><time>2026-04-19T06:33:09.635Z</time></trkpt><trkpt lat="41.1144517" lon="16.6803067"><ele>116.0</ele><time>2026-04-19T06:33:10.635Z</time></trkpt><trkpt lat="41.11442" lon="16.6804467"><ele>116.0</ele><time>2026-04-19T06:33:11.634Z</time></trkpt><trkpt lat="41.1143867" lon="16.68057"><ele>116.0</ele><time>2026-04-19T06:33:12.635Z</time></trkpt><trkpt lat="41.1143467" lon="16.680685"><ele>116.0</ele><time>2026-04-19T06:33:13.634Z</time></trkpt><trkpt lat="41.1142933" lon="16.6807783"><ele>116.0</ele><time>2026-04-19T06:33:14.635Z</time></trkpt><trkpt lat="41.1142283" lon="16.6808633"><ele>116.0</ele><time>2026-04-19T06:33:15.634Z</time></trkpt><trkpt lat="41.1141617" lon="16.6809517"><ele>116.0</ele><time>2026-04-19T06:33:16.634Z</time></trkpt><trkpt lat="41.114095" lon="16.68105"><ele>116.0</ele><time>2026-04-19T06:33:17.634Z</time></trkpt><trkpt lat="41.114025" lon="16.681155"><ele>116.0</ele><time>2026-04-19T06:33:18.635Z</time></trkpt><trkpt lat="41.1139517" lon="16.6812683"><ele>116.0</ele><time>2026-04-19T06:33:19.634Z</time></trkpt><trkpt lat="41.1138783" lon="16.68139"><ele>116.0</ele><time>2026-04-19T06:33:20.635Z</time></trkpt><trkpt lat="41.1137983" lon="16.6815133"><ele>115.75</ele><time>2026-04-19T06:33:21.634Z</time></trkpt><trkpt lat="41.1137133" lon="16.6816283"><ele>115.5</ele><time>2026-04-19T06:33:22.635Z</time></trkpt><trkpt lat="41.1136267" lon="16.6817367"><ele>115.25</ele><time>2026-04-19T06:33:23.635Z</time></trkpt><trkpt lat="41.113545" lon="16.6818417"><ele>115.0</ele><time>2026-04-19T06:33:24.634Z</time></trkpt><trkpt lat="41.1134683" lon="16.6819433"><ele>115.4</ele><time>2026-04-19T06:33:25.634Z</time></trkpt><trkpt lat="41.113395" lon="16.6820383"><ele>115.8</ele><time>2026-04-19T06:33:26.634Z</time></trkpt><trkpt lat="41.11332" lon="16.68214"><ele>116.19999999999999</ele><time>2026-04-19T06:33:27.636Z</time></trkpt><trkpt lat="41.1132417" lon="16.682245"><ele>116.6</ele><time>2026-04-19T06:33:28.635Z</time></trkpt><trkpt lat="41.1131683" lon="16.682345"><ele>117.0</ele><time>2026-04-19T06:33:29.634Z</time></trkpt><trkpt lat="41.113085" lon="16.68245"><ele>117.16666666666667</ele><time>2026-04-19T06:33:30.634Z</time></trkpt><trkpt lat="41.113015" lon="16.6825417"><ele>117.33333333333334</ele><time>2026-04-19T06:33:31.636Z</time></trkpt><trkpt lat="41.11297" lon="16.68261"><ele>117.5</ele><time>2026-04-19T06:33:32.635Z</time></trkpt><trkpt lat="41.1129083" lon="16.682715"><ele>117.66666666666667</ele><time>2026-04-19T06:33:34.635Z</time></trkpt><trkpt lat="41.1128617" lon="16.6827967"><ele>117.83333333333334</ele><time>2026-04-19T06:33:36.634Z</time></trkpt><trkpt lat="41.1128083" lon="16.6828717"><ele>118.0</ele><time>2026-04-19T06:33:38.635Z</time></trkpt><trkpt lat="41.112755" lon="16.682945"><ele>118.0</ele><time>2026-04-19T06:33:40.634Z</time></trkpt><trkpt lat="41.1127067" lon="16.6830017"><ele>118.0</ele><time>2026-04-19T06:33:42.634Z</time></trkpt><trkpt lat="41.1126433" lon="16.6829967"><ele>118.0</ele><time>2026-04-19T06:33:45.634Z</time></trkpt><trkpt lat="41.1126033" lon="16.68288"><ele>118.0</ele><time>2026-04-19T06:33:47.636Z</time></trkpt><trkpt lat="41.1125783" lon="16.6828033"><ele>118.0</ele><time>2026-04-19T06:33:48.634Z</time></trkpt><trkpt lat="41.1125533" lon="16.682715"><ele>118.0</ele><time>2026-04-19T06:33:49.633Z</time></trkpt><trkpt lat="41.112525" lon="16.6826267"><ele>118.0</ele><time>2026-04-19T06:33:50.635Z</time></trkpt><trkpt lat="41.1124967" lon="16.68255"><ele>118.0</ele><time>2026-04-19T06:33:51.634Z</time></trkpt><trkpt lat="41.1124433" lon="16.6823983"><ele>118.00000000000001</ele><time>2026-04-19T06:33:53.634Z</time></trkpt><trkpt lat="41.1124067" lon="16.6823083"><ele>118.00000000000001</ele><time>2026-04-19T06:33:54.634Z</time></trkpt><trkpt lat="41.1123717" lon="16.6822033"><ele>118.0</ele><time>2026-04-19T06:33:55.634Z</time></trkpt><trkpt lat="41.112335" lon="16.6820917"><ele>118.0</ele><time>2026-04-19T06:33:56.635Z</time></trkpt><trkpt lat="41.1122983" lon="16.6819867"><ele>118.33333333333334</ele><time>2026-04-19T06:33:57.634Z</time></trkpt><trkpt lat="41.11226" lon="16.681895"><ele>118.66666666666667</ele><time>2026-04-19T06:33:58.634Z</time></trkpt><trkpt lat="41.1122217" lon="16.6818033"><ele>119.0</ele><time>2026-04-19T06:33:59.634Z</time></trkpt><trkpt lat="41.1121867" lon="16.681705"><ele>119.33333333333334</ele><time>2026-04-19T06:34:00.635Z</time></trkpt><trkpt lat="41.11215" lon="16.6816017"><ele>119.66666666666667</ele><time>2026-04-19T06:34:01.635Z</time></trkpt><trkpt lat="41.1121083" lon="16.6814917"><ele>120.0</ele><time>2026-04-19T06:34:02.637Z</time></trkpt><trkpt lat="41.112065" lon="16.681375"><ele>120.0</ele><time>2026-04-19T06:34:03.635Z</time></trkpt><trkpt lat="41.11202" lon="16.6812517"><ele>120.0</ele><time>2026-04-19T06:34:04.635Z</time></trkpt><trkpt lat="41.1119717" lon="16.68112"><ele>120.0</ele><time>2026-04-19T06:34:05.637Z</time></trkpt><trkpt lat="41.11192" lon="16.6809817"><ele>120.0</ele><time>2026-04-19T06:34:06.635Z</time></trkpt><trkpt lat="41.1118667" lon="16.680835"><ele>120.0</ele><time>2026-04-19T06:34:07.636Z</time></trkpt><trkpt lat="41.1118117" lon="16.680675"><ele>120.0</ele><time>2026-04-19T06:34:08.636Z</time></trkpt><trkpt lat="41.1117583" lon="16.6805083"><ele>120.0</ele><time>2026-04-19T06:34:09.635Z</time></trkpt><trkpt lat="41.1117183" lon="16.68034"><ele>120.0</ele><time>2026-04-19T06:34:10.636Z</time></trkpt><trkpt lat="41.1116833" lon="16.6801833"><ele>119.6</ele><time>2026-04-19T06:34:11.635Z</time></trkpt><trkpt lat="41.1116533" lon="16.680045"><ele>119.2</ele><time>2026-04-19T06:34:12.634Z</time></trkpt><trkpt lat="41.1116333" lon="16.6799183"><ele>118.80000000000001</ele><time>2026-04-19T06:34:13.634Z</time></trkpt><trkpt lat="41.1116217" lon="16.679815"><ele>118.4</ele><time>2026-04-19T06:34:14.635Z</time></trkpt><trkpt lat="41.11157" lon="16.6796867"><ele>118.0</ele><time>2026-04-19T06:34:16.634Z</time></trkpt><trkpt lat="41.11151" lon="16.6796533"><ele>118.66666666666667</ele><time>2026-04-19T06:34:18.634Z</time></trkpt><trkpt lat="41.1114467" lon="16.6796567"><ele>119.33333333333334</ele><time>2026-04-19T06:34:21.634Z</time></trkpt><trkpt lat="41.1113633" lon="16.6796333"><ele>120.0</ele><time>2026-04-19T06:34:23.634Z</time></trkpt><trkpt lat="41.111245" lon="16.6796233"><ele>120.66666666666666</ele><time>2026-04-19T06:34:25.634Z</time></trkpt><trkpt lat="41.1111767" lon="16.6796167"><ele>121.33333333333333</ele><time>2026-04-19T06:34:26.634Z</time></trkpt><trkpt lat="41.1111017" lon="16.6796317"><ele>122.0</ele><time>2026-04-19T06:34:27.635Z</time></trkpt><trkpt lat="41.1110283" lon="16.6796433"><ele>121.99999999999999</ele><time>2026-04-19T06:34:28.635Z</time></trkpt><trkpt lat="41.1109633" lon="16.67964"><ele>122.0</ele><time>2026-04-19T06:34:29.634Z</time></trkpt><trkpt lat="41.1108867" lon="16.6796533"><ele>122.0</ele><time>2026-04-19T06:34:30.634Z</time></trkpt><trkpt lat="41.110815" lon="16.6796383"><ele>122.0</ele><time>2026-04-19T06:34:31.634Z</time></trkpt><trkpt lat="41.11074" lon="16.6795767"><ele>121.99999999999999</ele><time>2026-04-19T06:34:32.635Z</time></trkpt><trkpt lat="41.1106683" lon="16.6795417"><ele>122.0</ele><time>2026-04-19T06:34:33.635Z</time></trkpt><trkpt lat="41.1105983" lon="16.6795033"><ele>122.0</ele><time>2026-04-19T06:34:34.636Z</time></trkpt><trkpt lat="41.1105317" lon="16.67946"><ele>121.99999999999999</ele><time>2026-04-19T06:34:35.635Z</time></trkpt><trkpt lat="41.1104567" lon="16.6794133"><ele>121.99999999999999</ele><time>2026-04-19T06:34:37.635Z</time></trkpt><trkpt lat="41.1104233" lon="16.6793017"><ele>122.0</ele><time>2026-04-19T06:34:41.635Z</time></trkpt><trkpt lat="41.110455" lon="16.6791283"><ele>122.0</ele><time>2026-04-19T06:34:43.633Z</time></trkpt><trkpt lat="41.1104717" lon="16.6790283"><ele>122.19999999999999</ele><time>2026-04-19T06:34:44.635Z</time></trkpt><trkpt lat="41.1104817" lon="16.6789033"><ele>122.39999999999999</ele><time>2026-04-19T06:34:45.635Z</time></trkpt><trkpt lat="41.11049" lon="16.6787883"><ele>122.60000000000001</ele><time>2026-04-19T06:34:46.634Z</time></trkpt><trkpt lat="41.110495" lon="16.6786683"><ele>122.80000000000001</ele><time>2026-04-19T06:34:47.634Z</time></trkpt><trkpt lat="41.1105" lon="16.67855"><ele>123.0</ele><time>2026-04-19T06:34:48.634Z</time></trkpt><trkpt lat="41.1105" lon="16.67842"><ele>123.0</ele><time>2026-04-19T06:34:49.634Z</time></trkpt><trkpt lat="41.11051" lon="16.6782817"><ele>123.00000000000001</ele><time>2026-04-19T06:34:50.635Z</time></trkpt><trkpt lat="41.110515" lon="16.678155"><ele>123.00000000000001</ele><time>2026-04-19T06:34:51.635Z</time></trkpt><trkpt lat="41.110525" lon="16.6780333"><ele>123.0</ele><time>2026-04-19T06:34:52.635Z</time></trkpt><trkpt lat="41.1105333" lon="16.6779117"><ele>123.0</ele><time>2026-04-19T06:34:53.635Z</time></trkpt><trkpt lat="41.1105433" lon="16.67779"><ele>122.83333333333333</ele><time>2026-04-19T06:34:54.636Z</time></trkpt><trkpt lat="41.1105483" lon="16.677685"><ele>122.66666666666666</ele><time>2026-04-19T06:34:55.636Z</time></trkpt><trkpt lat="41.1105533" lon="16.677575"><ele>122.5</ele><time>2026-04-19T06:34:56.634Z</time></trkpt><trkpt lat="41.1105567" lon="16.6774633"><ele>122.33333333333333</ele><time>2026-04-19T06:34:57.634Z</time></trkpt><trkpt lat="41.110565" lon="16.6773483"><ele>122.16666666666666</ele><time>2026-04-19T06:34:58.636Z</time></trkpt><trkpt lat="41.1105733" lon="16.6772467"><ele>122.0</ele><time>2026-04-19T06:34:59.635Z</time></trkpt><trkpt lat="41.1105817" lon="16.6771517"><ele>122.0</ele><time>2026-04-19T06:35:00.635Z</time></trkpt><trkpt lat="41.1105917" lon="16.6770483"><ele>121.99999999999999</ele><time>2026-04-19T06:35:01.635Z</time></trkpt><trkpt lat="41.1106" lon="16.676915"><ele>121.99999999999999</ele><time>2026-04-19T06:35:02.634Z</time></trkpt><trkpt lat="41.1106083" lon="16.676755"><ele>122.0</ele><time>2026-04-19T06:35:03.634Z</time></trkpt><trkpt lat="41.1106167" lon="16.676595"><ele>122.0</ele><time>2026-04-19T06:35:04.634Z</time></trkpt><trkpt lat="41.1106267" lon="16.6764383"><ele>122.0</ele><time>2026-04-19T06:35:05.635Z</time></trkpt><trkpt lat="41.110635" lon="16.6762933"><ele>121.99999999999999</ele><time>2026-04-19T06:35:06.635Z</time></trkpt><trkpt lat="41.110645" lon="16.6761617"><ele>121.99999999999999</ele><time>2026-04-19T06:35:07.635Z</time></trkpt><trkpt lat="41.1106533" lon="16.676025"><ele>122.0</ele><time>2026-04-19T06:35:08.635Z</time></trkpt><trkpt lat="41.1106617" lon="16.675875"><ele>122.0</ele><time>2026-04-19T06:35:09.633Z</time></trkpt><trkpt lat="41.1106733" lon="16.67572"><ele>122.0</ele><time>2026-04-19T06:35:10.636Z</time></trkpt><trkpt lat="41.1106867" lon="16.6755633"><ele>122.0</ele><time>2026-04-19T06:35:11.636Z</time></trkpt><trkpt lat="41.1107017" lon="16.6753967"><ele>122.0</ele><time>2026-04-19T06:35:12.635Z</time></trkpt><trkpt lat="41.1107117" lon="16.6752267"><ele>122.0</ele><time>2026-04-19T06:35:13.635Z</time></trkpt><trkpt lat="41.1107167" lon="16.6750733"><ele>121.75</ele><time>2026-04-19T06:35:14.634Z</time></trkpt><trkpt lat="41.11072" lon="16.6749217"><ele>121.5</ele><time>2026-04-19T06:35:15.635Z</time></trkpt><trkpt lat="41.110725" lon="16.674755"><ele>121.25</ele><time>2026-04-19T06:35:16.634Z</time></trkpt><trkpt lat="41.11073" lon="16.6745833"><ele>121.0</ele><time>2026-04-19T06:35:17.634Z</time></trkpt><trkpt lat="41.1107383" lon="16.6744133"><ele>121.5</ele><time>2026-04-19T06:35:18.636Z</time></trkpt><trkpt lat="41.11075" lon="16.67424"><ele>122.0</ele><time>2026-04-19T06:35:19.636Z</time></trkpt><trkpt lat="41.1107617" lon="16.6740617"><ele>122.5</ele><time>2026-04-19T06:35:20.637Z</time></trkpt><trkpt lat="41.1107717" lon="16.67387"><ele>123.0</ele><time>2026-04-19T06:35:21.637Z</time></trkpt><trkpt lat="41.11078" lon="16.6736617"><ele>123.66666666666666</ele><time>2026-04-19T06:35:22.636Z</time></trkpt><trkpt lat="41.1107917" lon="16.67345"><ele>124.33333333333333</ele><time>2026-04-19T06:35:23.636Z</time></trkpt><trkpt lat="41.110805" lon="16.6732517"><ele>125.0</ele><time>2026-04-19T06:35:24.636Z</time></trkpt><trkpt lat="41.1108217" lon="16.673065"><ele>125.0</ele><time>2026-04-19T06:35:25.636Z</time></trkpt><trkpt lat="41.1108333" lon="16.672895"><ele>125.0</ele><time>2026-04-19T06:35:26.636Z</time></trkpt><trkpt lat="41.1108467" lon="16.67273"><ele>125.0</ele><time>2026-04-19T06:35:27.634Z</time></trkpt><trkpt lat="41.1108583" lon="16.672565"><ele>125.0</ele><time>2026-04-19T06:35:28.634Z</time></trkpt><trkpt lat="41.11087" lon="16.6723883"><ele>125.0</ele><time>2026-04-19T06:35:29.635Z</time></trkpt><trkpt lat="41.1108817" lon="16.6722017"><ele>125.0</ele><time>2026-04-19T06:35:30.635Z</time></trkpt><trkpt lat="41.1108933" lon="16.67201"><ele>125.0</ele><time>2026-04-19T06:35:31.634Z</time></trkpt><trkpt lat="41.1109067" lon="16.671815"><ele>125.0</ele><time>2026-04-19T06:35:32.635Z</time></trkpt><trkpt lat="41.1109217" lon="16.67161"><ele>125.0</ele><time>2026-04-19T06:35:33.634Z</time></trkpt><trkpt lat="41.1109333" lon="16.6713983"><ele>125.0</ele><time>2026-04-19T06:35:34.636Z</time></trkpt><trkpt lat="41.1109483" lon="16.6711817"><ele>125.0</ele><time>2026-04-19T06:35:35.636Z</time></trkpt><trkpt lat="41.110965" lon="16.6709617"><ele>125.0</ele><time>2026-04-19T06:35:36.635Z</time></trkpt><trkpt lat="41.11098" lon="16.67074"><ele>125.0</ele><time>2026-04-19T06:35:37.636Z</time></trkpt><trkpt lat="41.1109933" lon="16.6705133"><ele>125.0</ele><time>2026-04-19T06:35:38.635Z</time></trkpt><trkpt lat="41.1110067" lon="16.670285"><ele>125.0</ele><time>2026-04-19T06:35:39.635Z</time></trkpt><trkpt lat="41.11102" lon="16.6700617"><ele>125.0</ele><time>2026-04-19T06:35:40.635Z</time></trkpt><trkpt lat="41.11103" lon="16.66985"><ele>125.0</ele><time>2026-04-19T06:35:41.634Z</time></trkpt><trkpt lat="41.11104" lon="16.6696533"><ele>125.0</ele><time>2026-04-19T06:35:42.635Z</time></trkpt><trkpt lat="41.11105" lon="16.6694717"><ele>125.0</ele><time>2026-04-19T06:35:43.634Z</time></trkpt><trkpt lat="41.11106" lon="16.6693"><ele>125.0</ele><time>2026-04-19T06:35:44.634Z</time></trkpt><trkpt lat="41.1110717" lon="16.6691367"><ele>125.0</ele><time>2026-04-19T06:35:45.634Z</time></trkpt><trkpt lat="41.1110783" lon="16.668985"><ele>125.16666666666666</ele><time>2026-04-19T06:35:46.634Z</time></trkpt><trkpt lat="41.1110833" lon="16.668845"><ele>125.33333333333333</ele><time>2026-04-19T06:35:47.635Z</time></trkpt><trkpt lat="41.1110883" lon="16.6687167"><ele>125.5</ele><time>2026-04-19T06:35:48.634Z</time></trkpt><trkpt lat="41.1110933" lon="16.6686017"><ele>125.66666666666666</ele><time>2026-04-19T06:35:49.635Z</time></trkpt><trkpt lat="41.111095" lon="16.6685"><ele>125.83333333333333</ele><time>2026-04-19T06:35:50.636Z</time></trkpt><trkpt lat="41.111085" lon="16.6684117"><ele>126.0</ele><time>2026-04-19T06:35:51.635Z</time></trkpt><trkpt lat="41.111015" lon="16.6682817"><ele>126.0</ele><time>2026-04-19T06:35:53.636Z</time></trkpt><trkpt lat="41.1109117" lon="16.668235"><ele>126.0</ele><time>2026-04-19T06:35:55.634Z</time></trkpt><trkpt lat="41.1108467" lon="16.668245"><ele>126.0</ele><time>2026-04-19T06:35:57.634Z</time></trkpt><trkpt lat="41.1107667" lon="16.6683283"><ele>126.0</ele><time>2026-04-19T06:36:08.634Z</time></trkpt><trkpt lat="41.1107183" lon="16.6684133"><ele>126.0</ele><time>2026-04-19T06:36:09.634Z</time></trkpt><trkpt lat="41.1106717" lon="16.6685183"><ele>126.0</ele><time>2026-04-19T06:36:10.634Z</time></trkpt><trkpt lat="41.1106267" lon="16.66864"><ele>126.0</ele><time>2026-04-19T06:36:11.634Z</time></trkpt><trkpt lat="41.11058" lon="16.6687667"><ele>126.0</ele><time>2026-04-19T06:36:12.634Z</time></trkpt><trkpt lat="41.11053" lon="16.668905"><ele>126.0</ele><time>2026-04-19T06:36:13.635Z</time></trkpt><trkpt lat="41.1104767" lon="16.669055"><ele>126.0</ele><time>2026-04-19T06:36:14.634Z</time></trkpt><trkpt lat="41.11042" lon="16.6692167"><ele>126.0</ele><time>2026-04-19T06:36:15.634Z</time></trkpt><trkpt lat="41.1103533" lon="16.66939"><ele>126.0</ele><time>2026-04-19T06:36:16.634Z</time></trkpt><trkpt lat="41.1102767" lon="16.66958"><ele>126.0</ele><time>2026-04-19T06:36:17.635Z</time></trkpt><trkpt lat="41.1101933" lon="16.6697867"><ele>126.0</ele><time>2026-04-19T06:36:18.634Z</time></trkpt><trkpt lat="41.1100983" lon="16.6700083"><ele>126.0</ele><time>2026-04-19T06:36:19.635Z</time></trkpt><trkpt lat="41.1099917" lon="16.6702433"><ele>126.0</ele><time>2026-04-19T06:36:20.635Z</time></trkpt><trkpt lat="41.1098733" lon="16.670485"><ele>126.5</ele><time>2026-04-19T06:36:21.634Z</time></trkpt><trkpt lat="41.1097433" lon="16.6707383"><ele>127.0</ele><time>2026-04-19T06:36:22.634Z</time></trkpt><trkpt lat="41.1096083" lon="16.6709967"><ele>126.0</ele><time>2026-04-19T06:36:23.635Z</time></trkpt><trkpt lat="41.10947" lon="16.67126"><ele>125.0</ele><time>2026-04-19T06:36:24.634Z</time></trkpt><trkpt lat="41.10932" lon="16.6715317"><ele>125.0</ele><time>2026-04-19T06:36:25.634Z</time></trkpt><trkpt lat="41.1091633" lon="16.67181"><ele>125.0</ele><time>2026-04-19T06:36:26.635Z</time></trkpt><trkpt lat="41.1089983" lon="16.672085"><ele>125.0</ele><time>2026-04-19T06:36:27.634Z</time></trkpt><trkpt lat="41.108825" lon="16.6723617"><ele>125.0</ele><time>2026-04-19T06:36:28.634Z</time></trkpt><trkpt lat="41.1086467" lon="16.67264"><ele>124.5</ele><time>2026-04-19T06:36:29.634Z</time></trkpt><trkpt lat="41.1084783" lon="16.6729067"><ele>124.0</ele><time>2026-04-19T06:36:30.634Z</time></trkpt><trkpt lat="41.1083183" lon="16.6731633"><ele>123.5</ele><time>2026-04-19T06:36:31.635Z</time></trkpt><trkpt lat="41.10817" lon="16.67341"><ele>123.0</ele><time>2026-04-19T06:36:32.636Z</time></trkpt><trkpt lat="41.1080267" lon="16.6736483"><ele>122.5</ele><time>2026-04-19T06:36:33.635Z</time></trkpt><trkpt lat="41.1078933" lon="16.67389"><ele>122.0</ele><time>2026-04-19T06:36:34.635Z</time></trkpt><trkpt lat="41.107755" lon="16.6741267"><ele>122.0</ele><time>2026-04-19T06:36:35.634Z</time></trkpt><trkpt lat="41.10761" lon="16.674365"><ele>122.0</ele><time>2026-04-19T06:36:36.634Z</time></trkpt><trkpt lat="41.10746" lon="16.6746067"><ele>121.5</ele><time>2026-04-19T06:36:37.635Z</time></trkpt><trkpt lat="41.10731" lon="16.6748467"><ele>121.0</ele><time>2026-04-19T06:36:38.634Z</time></trkpt><trkpt lat="41.10716" lon="16.6750883"><ele>120.66666666666667</ele><time>2026-04-19T06:36:39.634Z</time></trkpt><trkpt lat="41.1070183" lon="16.6753217"><ele>120.33333333333334</ele><time>2026-04-19T06:36:40.634Z</time></trkpt><trkpt lat="41.10688" lon="16.6755533"><ele>120.0</ele><time>2026-04-19T06:36:41.636Z</time></trkpt><trkpt lat="41.1067483" lon="16.6757683"><ele>120.0</ele><time>2026-04-19T06:36:42.634Z</time></trkpt><trkpt lat="41.1066217" lon="16.6759717"><ele>120.0</ele><time>2026-04-19T06:36:43.635Z</time></trkpt><trkpt lat="41.1065033" lon="16.67617"><ele>120.0</ele><time>2026-04-19T06:36:44.636Z</time></trkpt><trkpt lat="41.1063917" lon="16.67636"><ele>119.66666666666666</ele><time>2026-04-19T06:36:45.634Z</time></trkpt><trkpt lat="41.1062833" lon="16.6765417"><ele>119.33333333333333</ele><time>2026-04-19T06:36:46.635Z</time></trkpt><trkpt lat="41.10618" lon="16.676715"><ele>119.0</ele><time>2026-04-19T06:36:47.634Z</time></trkpt><trkpt lat="41.1060733" lon="16.676895"><ele>119.0</ele><time>2026-04-19T06:36:48.635Z</time></trkpt><trkpt lat="41.1059633" lon="16.6770767"><ele>119.0</ele><time>2026-04-19T06:36:49.635Z</time></trkpt><trkpt lat="41.105855" lon="16.6772583"><ele>119.0</ele><time>2026-04-19T06:36:50.637Z</time></trkpt><trkpt lat="41.1057517" lon="16.6774283"><ele>117.0</ele><time>2026-04-19T06:36:51.634Z</time></trkpt><trkpt lat="41.1056533" lon="16.677595"><ele>115.0</ele><time>2026-04-19T06:36:52.635Z</time></trkpt><trkpt lat="41.1055567" lon="16.677755"><ele>113.0</ele><time>2026-04-19T06:36:53.635Z</time></trkpt><trkpt lat="41.10547" lon="16.6778983"><ele>113.0</ele><time>2026-04-19T06:36:54.634Z</time></trkpt><trkpt lat="41.1053883" lon="16.67803"><ele>113.00000000000001</ele><time>2026-04-19T06:36:55.635Z</time></trkpt><trkpt lat="41.1053117" lon="16.6781533"><ele>113.00000000000001</ele><time>2026-04-19T06:36:56.634Z</time></trkpt><trkpt lat="41.105245" lon="16.6782617"><ele>113.0</ele><time>2026-04-19T06:36:57.634Z</time></trkpt><trkpt lat="41.1051883" lon="16.6783483"><ele>113.0</ele><time>2026-04-19T06:36:58.635Z</time></trkpt><trkpt lat="41.1051417" lon="16.67841"><ele>113.0</ele><time>2026-04-19T06:36:59.635Z</time></trkpt><trkpt lat="41.105045" lon="16.6784583"><ele>113.00000000000001</ele><time>2026-04-19T06:37:01.635Z</time></trkpt><trkpt lat="41.1049483" lon="16.678405"><ele>113.00000000000001</ele><time>2026-04-19T06:37:03.634Z</time></trkpt><trkpt lat="41.10487" lon="16.67826"><ele>113.0</ele><time>2026-04-19T06:37:05.634Z</time></trkpt><trkpt lat="41.1048383" lon="16.6781583"><ele>113.0</ele><time>2026-04-19T06:37:06.634Z</time></trkpt><trkpt lat="41.1047983" lon="16.67805"><ele>111.75</ele><time>2026-04-19T06:37:07.634Z</time></trkpt><trkpt lat="41.1047383" lon="16.6779383"><ele>110.5</ele><time>2026-04-19T06:37:08.634Z</time></trkpt><trkpt lat="41.1046567" lon="16.67783"><ele>109.25</ele><time>2026-04-19T06:37:09.634Z</time></trkpt><trkpt lat="41.1045617" lon="16.677735"><ele>108.0</ele><time>2026-04-19T06:37:10.634Z</time></trkpt><trkpt lat="41.10445" lon="16.6776633"><ele>108.0</ele><time>2026-04-19T06:37:11.634Z</time></trkpt><trkpt lat="41.1043383" lon="16.6775883"><ele>108.0</ele><time>2026-04-19T06:37:12.635Z</time></trkpt><trkpt lat="41.10423" lon="16.6775033"><ele>108.0</ele><time>2026-04-19T06:37:13.634Z</time></trkpt><trkpt lat="41.1041217" lon="16.6774"><ele>108.0</ele><time>2026-04-19T06:37:14.634Z</time></trkpt><trkpt lat="41.1040183" lon="16.6772767"><ele>109.0</ele><time>2026-04-19T06:37:15.634Z</time></trkpt><trkpt lat="41.1039283" lon="16.6771283"><ele>110.0</ele><time>2026-04-19T06:37:16.634Z</time></trkpt><trkpt lat="41.1038417" lon="16.6769633"><ele>111.0</ele><time>2026-04-19T06:37:17.635Z</time></trkpt><trkpt lat="41.1037533" lon="16.676785"><ele>111.33333333333334</ele><time>2026-04-19T06:37:18.634Z</time></trkpt><trkpt lat="41.103655" lon="16.6765933"><ele>111.66666666666667</ele><time>2026-04-19T06:37:19.634Z</time></trkpt><trkpt lat="41.1035517" lon="16.6763983"><ele>112.0</ele><time>2026-04-19T06:37:20.635Z</time></trkpt><trkpt lat="41.1034483" lon="16.6762"><ele>112.33333333333334</ele><time>2026-04-19T06:37:21.634Z</time></trkpt><trkpt lat="41.1033467" lon="16.676"><ele>112.66666666666666</ele><time>2026-04-19T06:37:22.634Z</time></trkpt><trkpt lat="41.103245" lon="16.6758"><ele>113.0</ele><time>2026-04-19T06:37:23.636Z</time></trkpt><trkpt lat="41.103145" lon="16.675595"><ele>113.0</ele><time>2026-04-19T06:37:24.635Z</time></trkpt><trkpt lat="41.1030433" lon="16.6753933"><ele>113.0</ele><time>2026-04-19T06:37:25.636Z</time></trkpt><trkpt lat="41.10294" lon="16.675195"><ele>113.0</ele><time>2026-04-19T06:37:26.634Z</time></trkpt><trkpt lat="41.1028433" lon="16.6750133"><ele>112.0</ele><time>2026-04-19T06:37:27.634Z</time></trkpt><trkpt lat="41.1027433" lon="16.67484"><ele>111.0</ele><time>2026-04-19T06:37:28.635Z</time></trkpt><trkpt lat="41.1026317" lon="16.6746733"><ele>110.0</ele><time>2026-04-19T06:37:29.634Z</time></trkpt><trkpt lat="41.1025017" lon="16.6745183"><ele>110.33333333333333</ele><time>2026-04-19T06:37:30.634Z</time></trkpt><trkpt lat="41.1023583" lon="16.67437"><ele>110.66666666666666</ele><time>2026-04-19T06:37:31.635Z</time></trkpt><trkpt lat="41.1022083" lon="16.6742167"><ele>111.0</ele><time>2026-04-19T06:37:32.634Z</time></trkpt><trkpt lat="41.1020567" lon="16.6740583"><ele>111.0</ele><time>2026-04-19T06:37:33.634Z</time></trkpt><trkpt lat="41.1019" lon="16.673895"><ele>111.0</ele><time>2026-04-19T06:37:34.634Z</time></trkpt><trkpt lat="41.1017367" lon="16.6737233"><ele>111.0</ele><time>2026-04-19T06:37:35.634Z</time></trkpt><trkpt lat="41.10157" lon="16.6735467"><ele>111.66666666666666</ele><time>2026-04-19T06:37:36.635Z</time></trkpt><trkpt lat="41.10141" lon="16.673375"><ele>112.33333333333333</ele><time>2026-04-19T06:37:37.635Z</time></trkpt><trkpt lat="41.10126" lon="16.6732183"><ele>113.0</ele><time>2026-04-19T06:37:38.634Z</time></trkpt><trkpt lat="41.1011183" lon="16.6730683"><ele>113.0</ele><time>2026-04-19T06:37:39.636Z</time></trkpt><trkpt lat="41.1009833" lon="16.6729283"><ele>113.0</ele><time>2026-04-19T06:37:40.634Z</time></trkpt><trkpt lat="41.1008467" lon="16.6727933"><ele>113.0</ele><time>2026-04-19T06:37:41.634Z</time></trkpt><trkpt lat="41.1007133" lon="16.6726617"><ele>113.0</ele><time>2026-04-19T06:37:42.634Z</time></trkpt><trkpt lat="41.1005917" lon="16.6725283"><ele>113.0</ele><time>2026-04-19T06:37:43.635Z</time></trkpt><trkpt lat="41.1004917" lon="16.67239"><ele>113.0</ele><time>2026-04-19T06:37:44.634Z</time></trkpt><trkpt lat="41.1004033" lon="16.6722333"><ele>113.0</ele><time>2026-04-19T06:37:45.635Z</time></trkpt><trkpt lat="41.100325" lon="16.6720517"><ele>113.0</ele><time>2026-04-19T06:37:46.635Z</time></trkpt><trkpt lat="41.1002517" lon="16.671855"><ele>113.0</ele><time>2026-04-19T06:37:47.635Z</time></trkpt><trkpt lat="41.1001767" lon="16.671655"><ele>113.66666666666666</ele><time>2026-04-19T06:37:48.634Z</time></trkpt><trkpt lat="41.100105" lon="16.6714583"><ele>114.33333333333334</ele><time>2026-04-19T06:37:49.634Z</time></trkpt><trkpt lat="41.1000367" lon="16.6712683"><ele>115.0</ele><time>2026-04-19T06:37:50.634Z</time></trkpt><trkpt lat="41.0999667" lon="16.6710717"><ele>117.0</ele><time>2026-04-19T06:37:51.634Z</time></trkpt><trkpt lat="41.0998983" lon="16.6708633"><ele>119.0</ele><time>2026-04-19T06:37:52.635Z</time></trkpt><trkpt lat="41.0998267" lon="16.6706433"><ele>121.0</ele><time>2026-04-19T06:37:53.634Z</time></trkpt><trkpt lat="41.09976" lon="16.6704317"><ele>121.66666666666667</ele><time>2026-04-19T06:37:54.635Z</time></trkpt><trkpt lat="41.0996867" lon="16.6702333"><ele>122.33333333333334</ele><time>2026-04-19T06:37:55.635Z</time></trkpt><trkpt lat="41.0995983" lon="16.670045"><ele>123.0</ele><time>2026-04-19T06:37:56.635Z</time></trkpt><trkpt lat="41.0994883" lon="16.66987"><ele>123.0</ele><time>2026-04-19T06:37:57.634Z</time></trkpt><trkpt lat="41.099355" lon="16.669715"><ele>123.0</ele><time>2026-04-19T06:37:58.634Z</time></trkpt><trkpt lat="41.0991967" lon="16.6695817"><ele>123.0</ele><time>2026-04-19T06:37:59.634Z</time></trkpt><trkpt lat="41.099035" lon="16.6694467"><ele>124.0</ele><time>2026-04-19T06:38:00.634Z</time></trkpt><trkpt lat="41.0988617" lon="16.6693083"><ele>125.0</ele><time>2026-04-19T06:38:01.635Z</time></trkpt><trkpt lat="41.09868" lon="16.6691667"><ele>126.0</ele><time>2026-04-19T06:38:02.635Z</time></trkpt><trkpt lat="41.0984933" lon="16.669025"><ele>126.0</ele><time>2026-04-19T06:38:03.635Z</time></trkpt><trkpt lat="41.0983" lon="16.66889"><ele>126.0</ele><time>2026-04-19T06:38:04.634Z</time></trkpt><trkpt lat="41.09811" lon="16.6687583"><ele>126.0</ele><time>2026-04-19T06:38:05.635Z</time></trkpt><trkpt lat="41.09793" lon="16.668635"><ele>126.33333333333334</ele><time>2026-04-19T06:38:06.634Z</time></trkpt><trkpt lat="41.0977533" lon="16.6685183"><ele>126.66666666666667</ele><time>2026-04-19T06:38:07.634Z</time></trkpt><trkpt lat="41.0975817" lon="16.6684"><ele>127.0</ele><time>2026-04-19T06:38:08.635Z</time></trkpt><trkpt lat="41.0974083" lon="16.6682783"><ele>127.33333333333334</ele><time>2026-04-19T06:38:09.634Z</time></trkpt><trkpt lat="41.097235" lon="16.6681583"><ele>127.66666666666666</ele><time>2026-04-19T06:38:10.634Z</time></trkpt><trkpt lat="41.0970717" lon="16.66804"><ele>128.0</ele><time>2026-04-19T06:38:11.634Z</time></trkpt><trkpt lat="41.0969233" lon="16.667925"><ele>128.0</ele><time>2026-04-19T06:38:12.634Z</time></trkpt><trkpt lat="41.0967933" lon="16.6678033"><ele>128.0</ele><time>2026-04-19T06:38:13.635Z</time></trkpt><trkpt lat="41.0966767" lon="16.6676517"><ele>128.0</ele><time>2026-04-19T06:38:14.634Z</time></trkpt><trkpt lat="41.096565" lon="16.6674733"><ele>128.0</ele><time>2026-04-19T06:38:15.634Z</time></trkpt><trkpt lat="41.0964567" lon="16.66728"><ele>128.0</ele><time>2026-04-19T06:38:16.634Z</time></trkpt><trkpt lat="41.0963417" lon="16.6670867"><ele>128.0</ele><time>2026-04-19T06:38:17.634Z</time></trkpt><trkpt lat="41.0962183" lon="16.6668867"><ele>128.0</ele><time>2026-04-19T06:38:18.634Z</time></trkpt><trkpt lat="41.096095" lon="16.666675"><ele>128.0</ele><time>2026-04-19T06:38:19.634Z</time></trkpt><trkpt lat="41.09597" lon="16.66646"><ele>128.0</ele><time>2026-04-19T06:38:20.635Z</time></trkpt><trkpt lat="41.0958433" lon="16.6662317"><ele>128.66666666666666</ele><time>2026-04-19T06:38:21.634Z</time></trkpt><trkpt lat="41.0957133" lon="16.6659983"><ele>129.33333333333334</ele><time>2026-04-19T06:38:22.635Z</time></trkpt><trkpt lat="41.09558" lon="16.665765"><ele>130.0</ele><time>2026-04-19T06:38:23.634Z</time></trkpt><trkpt lat="41.095445" lon="16.6655267"><ele>130.0</ele><time>2026-04-19T06:38:24.634Z</time></trkpt><trkpt lat="41.0953083" lon="16.665285"><ele>130.0</ele><time>2026-04-19T06:38:25.634Z</time></trkpt><trkpt lat="41.0951667" lon="16.66505"><ele>130.5</ele><time>2026-04-19T06:38:26.635Z</time></trkpt><trkpt lat="41.0950283" lon="16.6648033"><ele>131.0</ele><time>2026-04-19T06:38:27.634Z</time></trkpt><trkpt lat="41.0948867" lon="16.664545"><ele>131.66666666666666</ele><time>2026-04-19T06:38:28.636Z</time></trkpt><trkpt lat="41.0947517" lon="16.6643033"><ele>132.33333333333334</ele><time>2026-04-19T06:38:29.634Z</time></trkpt><trkpt lat="41.094625" lon="16.6640783"><ele>133.0</ele><time>2026-04-19T06:38:30.634Z</time></trkpt><trkpt lat="41.0945033" lon="16.66386"><ele>133.0</ele><time>2026-04-19T06:38:31.634Z</time></trkpt><trkpt lat="41.094385" lon="16.663645"><ele>133.0</ele><time>2026-04-19T06:38:32.636Z</time></trkpt><trkpt lat="41.0942733" lon="16.6634333"><ele>133.0</ele><time>2026-04-19T06:38:33.634Z</time></trkpt><trkpt lat="41.09416" lon="16.6632133"><ele>133.33333333333334</ele><time>2026-04-19T06:38:34.634Z</time></trkpt><trkpt lat="41.0940583" lon="16.6629767"><ele>133.66666666666666</ele><time>2026-04-19T06:38:35.634Z</time></trkpt><trkpt lat="41.0939617" lon="16.6627317"><ele>134.0</ele><time>2026-04-19T06:38:36.635Z</time></trkpt><trkpt lat="41.0938683" lon="16.6624767"><ele>134.33333333333331</ele><time>2026-04-19T06:38:37.635Z</time></trkpt><trkpt lat="41.0937733" lon="16.6622167"><ele>134.66666666666666</ele><time>2026-04-19T06:38:38.635Z</time></trkpt><trkpt lat="41.0936783" lon="16.6619533"><ele>135.0</ele><time>2026-04-19T06:38:39.634Z</time></trkpt><trkpt lat="41.0935817" lon="16.66169"><ele>135.0</ele><time>2026-04-19T06:38:40.634Z</time></trkpt><trkpt lat="41.09349" lon="16.6614383"><ele>135.0</ele><time>2026-04-19T06:38:41.634Z</time></trkpt><trkpt lat="41.0934017" lon="16.6612"><ele>135.0</ele><time>2026-04-19T06:38:42.636Z</time></trkpt><trkpt lat="41.0933217" lon="16.660985"><ele>135.5</ele><time>2026-04-19T06:38:43.634Z</time></trkpt><trkpt lat="41.0932567" lon="16.660805"><ele>136.0</ele><time>2026-04-19T06:38:44.634Z</time></trkpt><trkpt lat="41.0932067" lon="16.6606567"><ele>136.5</ele><time>2026-04-19T06:38:45.634Z</time></trkpt><trkpt lat="41.0931683" lon="16.6605383"><ele>137.0</ele><time>2026-04-19T06:38:46.634Z</time></trkpt><trkpt lat="41.093135" lon="16.6604417"><ele>137.16666666666666</ele><time>2026-04-19T06:38:47.634Z</time></trkpt><trkpt lat="41.0931083" lon="16.660365"><ele>137.33333333333331</ele><time>2026-04-19T06:38:48.634Z</time></trkpt><trkpt lat="41.0930767" lon="16.6602667"><ele>137.5</ele><time>2026-04-19T06:38:50.635Z</time></trkpt><trkpt lat="41.093085" lon="16.6604183"><ele>137.66666666666666</ele><time>2026-04-19T06:39:04.634Z</time></trkpt><trkpt lat="41.09313" lon="16.6605167"><ele>137.83333333333334</ele><time>2026-04-19T06:39:05.634Z</time></trkpt><trkpt lat="41.0931767" lon="16.66063"><ele>138.0</ele><time>2026-04-19T06:39:06.636Z</time></trkpt><trkpt lat="41.0932133" lon="16.6607283"><ele>138.0</ele><time>2026-04-19T06:39:07.634Z</time></trkpt><trkpt lat="41.0932283" lon="16.6608617"><ele>138.0</ele><time>2026-04-19T06:39:09.634Z</time></trkpt><trkpt lat="41.0931683" lon="16.6609617"><ele>138.0</ele><time>2026-04-19T06:39:11.633Z</time></trkpt><trkpt lat="41.0931167" lon="16.66101"><ele>138.0</ele><time>2026-04-19T06:39:12.633Z</time></trkpt><trkpt lat="41.0930467" lon="16.6610717"><ele>138.0</ele><time>2026-04-19T06:39:13.634Z</time></trkpt><trkpt lat="41.092965" lon="16.6611367"><ele>138.0</ele><time>2026-04-19T06:39:14.634Z</time></trkpt><trkpt lat="41.0928683" lon="16.6612133"><ele>137.75</ele><time>2026-04-19T06:39:15.634Z</time></trkpt><trkpt lat="41.09276" lon="16.661295"><ele>137.5</ele><time>2026-04-19T06:39:16.634Z</time></trkpt><trkpt lat="41.09264" lon="16.6613867"><ele>137.25</ele><time>2026-04-19T06:39:17.635Z</time></trkpt><trkpt lat="41.0925183" lon="16.6614833"><ele>137.0</ele><time>2026-04-19T06:39:18.635Z</time></trkpt><trkpt lat="41.092405" lon="16.6615683"><ele>137.0</ele><time>2026-04-19T06:39:19.634Z</time></trkpt><trkpt lat="41.0923" lon="16.66165"><ele>137.0</ele><time>2026-04-19T06:39:20.634Z</time></trkpt><trkpt lat="41.0922017" lon="16.66173"><ele>137.0</ele><time>2026-04-19T06:39:21.634Z</time></trkpt><trkpt lat="41.092115" lon="16.6618133"><ele>137.0</ele><time>2026-04-19T06:39:22.634Z</time></trkpt><trkpt lat="41.09204" lon="16.6618967"><ele>137.0</ele><time>2026-04-19T06:39:23.636Z</time></trkpt><trkpt lat="41.0919683" lon="16.6619733"><ele>136.75</ele><time>2026-04-19T06:39:24.635Z</time></trkpt><trkpt lat="41.0918917" lon="16.66207"><ele>136.5</ele><time>2026-04-19T06:39:25.636Z</time></trkpt><trkpt lat="41.0918083" lon="16.662175"><ele>136.25</ele><time>2026-04-19T06:39:26.636Z</time></trkpt><trkpt lat="41.0917117" lon="16.6622833"><ele>136.0</ele><time>2026-04-19T06:39:27.636Z</time></trkpt><trkpt lat="41.0916017" lon="16.6623967"><ele>135.75</ele><time>2026-04-19T06:39:28.636Z</time></trkpt><trkpt lat="41.0914917" lon="16.662515"><ele>135.5</ele><time>2026-04-19T06:39:29.636Z</time></trkpt><trkpt lat="41.09139" lon="16.66262"><ele>135.25</ele><time>2026-04-19T06:39:30.636Z</time></trkpt><trkpt lat="41.091295" lon="16.6627233"><ele>135.0</ele><time>2026-04-19T06:39:31.636Z</time></trkpt><trkpt lat="41.091205" lon="16.6628217"><ele>134.6</ele><time>2026-04-19T06:39:32.636Z</time></trkpt><trkpt lat="41.0911233" lon="16.6629083"><ele>134.2</ele><time>2026-04-19T06:39:33.636Z</time></trkpt><trkpt lat="41.0910433" lon="16.6629917"><ele>133.8</ele><time>2026-04-19T06:39:34.636Z</time></trkpt><trkpt lat="41.090975" lon="16.6630717"><ele>133.4</ele><time>2026-04-19T06:39:35.636Z</time></trkpt><trkpt lat="41.090915" lon="16.663145"><ele>133.0</ele><time>2026-04-19T06:39:36.636Z</time></trkpt><trkpt lat="41.0908567" lon="16.663215"><ele>133.0</ele><time>2026-04-19T06:39:37.636Z</time></trkpt><trkpt lat="41.090805" lon="16.66328"><ele>133.0</ele><time>2026-04-19T06:39:38.636Z</time></trkpt><trkpt lat="41.0907133" lon="16.6633833"><ele>133.0</ele><time>2026-04-19T06:39:40.636Z</time></trkpt><trkpt lat="41.0906567" lon="16.6634433"><ele>133.0</ele><time>2026-04-19T06:39:41.636Z</time></trkpt><trkpt lat="41.0905867" lon="16.6635083"><ele>133.0</ele><time>2026-04-19T06:39:42.636Z</time></trkpt><trkpt lat="41.090505" lon="16.6635933"><ele>133.6</ele><time>2026-04-19T06:39:43.636Z</time></trkpt><trkpt lat="41.0904233" lon="16.6636933"><ele>134.20000000000002</ele><time>2026-04-19T06:39:44.636Z</time></trkpt><trkpt lat="41.0903367" lon="16.663795"><ele>134.8</ele><time>2026-04-19T06:39:45.634Z</time></trkpt><trkpt lat="41.0902583" lon="16.66388"><ele>135.4</ele><time>2026-04-19T06:39:46.634Z</time></trkpt><trkpt lat="41.0901783" lon="16.6639683"><ele>136.0</ele><time>2026-04-19T06:39:47.636Z</time></trkpt><trkpt lat="41.0900933" lon="16.6640617"><ele>136.0</ele><time>2026-04-19T06:39:48.634Z</time></trkpt><trkpt lat="41.0900083" lon="16.6641633"><ele>136.0</ele><time>2026-04-19T06:39:49.636Z</time></trkpt><trkpt lat="41.0899317" lon="16.66426"><ele>136.0</ele><time>2026-04-19T06:39:50.637Z</time></trkpt><trkpt lat="41.08986" lon="16.6643467"><ele>136.0</ele><time>2026-04-19T06:39:51.636Z</time></trkpt><trkpt lat="41.0898017" lon="16.664415"><ele>136.0</ele><time>2026-04-19T06:39:52.636Z</time></trkpt><trkpt lat="41.08974" lon="16.66447"><ele>136.4</ele><time>2026-04-19T06:39:54.636Z</time></trkpt><trkpt lat="41.08969" lon="16.6645433"><ele>136.8</ele><time>2026-04-19T06:39:56.638Z</time></trkpt><trkpt lat="41.0895883" lon="16.6646467"><ele>137.20000000000002</ele><time>2026-04-19T06:39:58.636Z</time></trkpt><trkpt lat="41.0895167" lon="16.6647167"><ele>137.6</ele><time>2026-04-19T06:39:59.636Z</time></trkpt><trkpt lat="41.08944" lon="16.6647933"><ele>138.0</ele><time>2026-04-19T06:40:00.636Z</time></trkpt><trkpt lat="41.0893567" lon="16.66488"><ele>138.0</ele><time>2026-04-19T06:40:01.634Z</time></trkpt><trkpt lat="41.0892683" lon="16.6649733"><ele>138.0</ele><time>2026-04-19T06:40:02.635Z</time></trkpt><trkpt lat="41.0891717" lon="16.665075"><ele>138.0</ele><time>2026-04-19T06:40:03.634Z</time></trkpt><trkpt lat="41.0890667" lon="16.6651883"><ele>138.0</ele><time>2026-04-19T06:40:04.634Z</time></trkpt><trkpt lat="41.0889567" lon="16.66531"><ele>138.33333333333334</ele><time>2026-04-19T06:40:05.634Z</time></trkpt><trkpt lat="41.0888417" lon="16.6654383"><ele>138.66666666666669</ele><time>2026-04-19T06:40:06.634Z</time></trkpt><trkpt lat="41.0887267" lon="16.66557"><ele>139.0</ele><time>2026-04-19T06:40:07.635Z</time></trkpt><trkpt lat="41.0886117" lon="16.66571"><ele>139.0</ele><time>2026-04-19T06:40:08.635Z</time></trkpt><trkpt lat="41.0884967" lon="16.6658533"><ele>139.0</ele><time>2026-04-19T06:40:09.634Z</time></trkpt><trkpt lat="41.08838" lon="16.6659983"><ele>139.0</ele><time>2026-04-19T06:40:10.634Z</time></trkpt><trkpt lat="41.0882633" lon="16.6661467"><ele>139.0</ele><time>2026-04-19T06:40:11.635Z</time></trkpt><trkpt lat="41.0881467" lon="16.6662983"><ele>139.0</ele><time>2026-04-19T06:40:12.634Z</time></trkpt><trkpt lat="41.0880283" lon="16.6664583"><ele>139.0</ele><time>2026-04-19T06:40:13.634Z</time></trkpt><trkpt lat="41.0879067" lon="16.6666233"><ele>139.0</ele><time>2026-04-19T06:40:14.634Z</time></trkpt><trkpt lat="41.0877933" lon="16.6667767"><ele>139.0</ele><time>2026-04-19T06:40:15.634Z</time></trkpt><trkpt lat="41.087685" lon="16.6669167"><ele>139.0</ele><time>2026-04-19T06:40:16.634Z</time></trkpt><trkpt lat="41.0875867" lon="16.6670483"><ele>139.0</ele><time>2026-04-19T06:40:17.634Z</time></trkpt><trkpt lat="41.0874933" lon="16.6671717"><ele>139.0</ele><time>2026-04-19T06:40:18.633Z</time></trkpt><trkpt lat="41.087405" lon="16.6672867"><ele>139.0</ele><time>2026-04-19T06:40:19.636Z</time></trkpt><trkpt lat="41.087325" lon="16.6673967"><ele>139.0</ele><time>2026-04-19T06:40:20.637Z</time></trkpt><trkpt lat="41.087245" lon="16.6675167"><ele>139.0</ele><time>2026-04-19T06:40:21.636Z</time></trkpt><trkpt lat="41.0871567" lon="16.6676483"><ele>139.0</ele><time>2026-04-19T06:40:22.636Z</time></trkpt><trkpt lat="41.08706" lon="16.6677883"><ele>139.0</ele><time>2026-04-19T06:40:23.637Z</time></trkpt><trkpt lat="41.0869583" lon="16.66794"><ele>139.0</ele><time>2026-04-19T06:40:24.636Z</time></trkpt><trkpt lat="41.0868567" lon="16.6681017"><ele>139.0</ele><time>2026-04-19T06:40:25.636Z</time></trkpt><trkpt lat="41.0867617" lon="16.6682717"><ele>139.0</ele><time>2026-04-19T06:40:26.636Z</time></trkpt><trkpt lat="41.0866617" lon="16.668445"><ele>139.0</ele><time>2026-04-19T06:40:27.637Z</time></trkpt><trkpt lat="41.0865567" lon="16.6686267"><ele>139.0</ele><time>2026-04-19T06:40:28.635Z</time></trkpt><trkpt lat="41.08645" lon="16.6688083"><ele>139.0</ele><time>2026-04-19T06:40:29.635Z</time></trkpt><trkpt lat="41.0863517" lon="16.6689767"><ele>139.0</ele><time>2026-04-19T06:40:30.634Z</time></trkpt><trkpt lat="41.086255" lon="16.6691283"><ele>139.0</ele><time>2026-04-19T06:40:31.634Z</time></trkpt><trkpt lat="41.0861717" lon="16.6692733"><ele>139.0</ele><time>2026-04-19T06:40:32.635Z</time></trkpt><trkpt lat="41.0860867" lon="16.6694183"><ele>139.0</ele><time>2026-04-19T06:40:33.634Z</time></trkpt><trkpt lat="41.086" lon="16.6695633"><ele>139.0</ele><time>2026-04-19T06:40:34.635Z</time></trkpt><trkpt lat="41.0859167" lon="16.6697083"><ele>139.25</ele><time>2026-04-19T06:40:35.635Z</time></trkpt><trkpt lat="41.0858367" lon="16.6698483"><ele>139.5</ele><time>2026-04-19T06:40:36.636Z</time></trkpt><trkpt lat="41.0857633" lon="16.6699783"><ele>139.75</ele><time>2026-04-19T06:40:37.634Z</time></trkpt><trkpt lat="41.085695" lon="16.6700967"><ele>140.0</ele><time>2026-04-19T06:40:38.634Z</time></trkpt><trkpt lat="41.0856283" lon="16.6702117"><ele>140.25</ele><time>2026-04-19T06:40:39.634Z</time></trkpt><trkpt lat="41.0855583" lon="16.6703383"><ele>140.5</ele><time>2026-04-19T06:40:40.634Z</time></trkpt><trkpt lat="41.0854933" lon="16.6704633"><ele>140.75</ele><time>2026-04-19T06:40:41.634Z</time></trkpt><trkpt lat="41.0854333" lon="16.67059"><ele>141.0</ele><time>2026-04-19T06:40:42.633Z</time></trkpt><trkpt lat="41.0853717" lon="16.6707267"><ele>141.0</ele><time>2026-04-19T06:40:43.635Z</time></trkpt><trkpt lat="41.0853067" lon="16.6708667"><ele>141.0</ele><time>2026-04-19T06:40:44.634Z</time></trkpt><trkpt lat="41.0852433" lon="16.6710117"><ele>141.0</ele><time>2026-04-19T06:40:45.635Z</time></trkpt><trkpt lat="41.0851867" lon="16.6711517"><ele>141.0</ele><time>2026-04-19T06:40:46.634Z</time></trkpt><trkpt lat="41.0851317" lon="16.671295"><ele>141.0</ele><time>2026-04-19T06:40:47.635Z</time></trkpt><trkpt lat="41.0850717" lon="16.6714433"><ele>141.0</ele><time>2026-04-19T06:40:48.634Z</time></trkpt><trkpt lat="41.0850117" lon="16.6715983"><ele>141.0</ele><time>2026-04-19T06:40:49.635Z</time></trkpt><trkpt lat="41.0849467" lon="16.6717567"><ele>141.0</ele><time>2026-04-19T06:40:50.636Z</time></trkpt><trkpt lat="41.08489" lon="16.67192"><ele>140.8</ele><time>2026-04-19T06:40:51.635Z</time></trkpt><trkpt lat="41.08483" lon="16.67207"><ele>140.6</ele><time>2026-04-19T06:40:52.636Z</time></trkpt><trkpt lat="41.0847783" lon="16.6722017"><ele>140.4</ele><time>2026-04-19T06:40:53.637Z</time></trkpt><trkpt lat="41.084735" lon="16.672315"><ele>140.2</ele><time>2026-04-19T06:40:54.637Z</time></trkpt><trkpt lat="41.0847" lon="16.6724067"><ele>140.0</ele><time>2026-04-19T06:40:55.636Z</time></trkpt><trkpt lat="41.084645" lon="16.6724967"><ele>140.0</ele><time>2026-04-19T06:40:57.636Z</time></trkpt><trkpt lat="41.0845667" lon="16.6724917"><ele>140.0</ele><time>2026-04-19T06:40:59.635Z</time></trkpt><trkpt lat="41.0844533" lon="16.6724317"><ele>140.0</ele><time>2026-04-19T06:41:01.634Z</time></trkpt><trkpt lat="41.08438" lon="16.67239"><ele>140.0</ele><time>2026-04-19T06:41:02.634Z</time></trkpt><trkpt lat="41.08429" lon="16.6723317"><ele>140.0</ele><time>2026-04-19T06:41:03.634Z</time></trkpt><trkpt lat="41.0841917" lon="16.6722683"><ele>140.0</ele><time>2026-04-19T06:41:04.634Z</time></trkpt><trkpt lat="41.0841167" lon="16.6722083"><ele>140.0</ele><time>2026-04-19T06:41:05.634Z</time></trkpt><trkpt lat="41.0840517" lon="16.6721583"><ele>140.0</ele><time>2026-04-19T06:41:06.634Z</time></trkpt><trkpt lat="41.0839933" lon="16.67212"><ele>140.0</ele><time>2026-04-19T06:41:07.634Z</time></trkpt><trkpt lat="41.08392" lon="16.6720767"><ele>140.0</ele><time>2026-04-19T06:41:08.635Z</time></trkpt><trkpt lat="41.0838383" lon="16.6720217"><ele>140.0</ele><time>2026-04-19T06:41:09.634Z</time></trkpt><trkpt lat="41.0837533" lon="16.67196"><ele>140.4</ele><time>2026-04-19T06:41:10.634Z</time></trkpt><trkpt lat="41.08367" lon="16.6719033"><ele>140.8</ele><time>2026-04-19T06:41:11.634Z</time></trkpt><trkpt lat="41.08359" lon="16.67184"><ele>141.2</ele><time>2026-04-19T06:41:12.634Z</time></trkpt><trkpt lat="41.08351" lon="16.6717683"><ele>141.6</ele><time>2026-04-19T06:41:13.635Z</time></trkpt><trkpt lat="41.08343" lon="16.6716917"><ele>142.0</ele><time>2026-04-19T06:41:14.635Z</time></trkpt><trkpt lat="41.08335" lon="16.6716083"><ele>142.0</ele><time>2026-04-19T06:41:15.636Z</time></trkpt><trkpt lat="41.08328" lon="16.6715217"><ele>142.0</ele><time>2026-04-19T06:41:16.633Z</time></trkpt><trkpt lat="41.0832167" lon="16.6714417"><ele>142.0</ele><time>2026-04-19T06:41:17.634Z</time></trkpt><trkpt lat="41.0831583" lon="16.671365"><ele>142.0</ele><time>2026-04-19T06:41:18.634Z</time></trkpt><trkpt lat="41.0831083" lon="16.6713017"><ele>142.0</ele><time>2026-04-19T06:41:19.635Z</time></trkpt><trkpt lat="41.08306" lon="16.6712417"><ele>142.0</ele><time>2026-04-19T06:41:20.634Z</time></trkpt><trkpt lat="41.0829967" lon="16.6711583"><ele>141.83333333333334</ele><time>2026-04-19T06:41:22.635Z</time></trkpt><trkpt lat="41.0829283" lon="16.6711067"><ele>141.66666666666669</ele><time>2026-04-19T06:41:37.634Z</time></trkpt><trkpt lat="41.0828633" lon="16.6711683"><ele>141.5</ele><time>2026-04-19T06:41:41.634Z</time></trkpt><trkpt lat="41.082825" lon="16.67126"><ele>141.33333333333334</ele><time>2026-04-19T06:41:44.634Z</time></trkpt><trkpt lat="41.0827583" lon="16.6713717"><ele>141.16666666666666</ele><time>2026-04-19T06:41:47.634Z</time></trkpt><trkpt lat="41.0827183" lon="16.671445"><ele>141.0</ele><time>2026-04-19T06:41:49.636Z</time></trkpt><trkpt lat="41.0826733" lon="16.67155"><ele>141.0</ele><time>2026-04-19T06:41:52.636Z</time></trkpt><trkpt lat="41.0826333" lon="16.6716317"><ele>141.0</ele><time>2026-04-19T06:41:55.634Z</time></trkpt><trkpt lat="41.0826017" lon="16.671705"><ele>141.0</ele><time>2026-04-19T06:41:57.635Z</time></trkpt><trkpt lat="41.0825517" lon="16.67182"><ele>141.0</ele><time>2026-04-19T06:41:59.635Z</time></trkpt><trkpt lat="41.08251" lon="16.6718983"><ele>141.0</ele><time>2026-04-19T06:42:01.635Z</time></trkpt><trkpt lat="41.0824567" lon="16.671995"><ele>141.0</ele><time>2026-04-19T06:42:04.634Z</time></trkpt><trkpt lat="41.0824233" lon="16.6720733"><ele>141.0</ele><time>2026-04-19T06:42:07.633Z</time></trkpt><trkpt lat="41.0824583" lon="16.6719933"><ele>141.0</ele><time>2026-04-19T06:42:24.634Z</time></trkpt><trkpt lat="41.0824983" lon="16.6718967"><ele>141.0</ele><time>2026-04-19T06:42:26.635Z</time></trkpt><trkpt lat="41.0825417" lon="16.6718133"><ele>141.0</ele><time>2026-04-19T06:42:28.634Z</time></trkpt><trkpt lat="41.082585" lon="16.6717183"><ele>141.0</ele><time>2026-04-19T06:42:30.634Z</time></trkpt><trkpt lat="41.0826333" lon="16.671625"><ele>141.0</ele><time>2026-04-19T06:42:32.635Z</time></trkpt><trkpt lat="41.0826817" lon="16.6715267"><ele>141.0</ele><time>2026-04-19T06:42:34.635Z</time></trkpt><trkpt lat="41.0827467" lon="16.6714017"><ele>141.0</ele><time>2026-04-19T06:42:36.634Z</time></trkpt><trkpt lat="41.0828117" lon="16.671275"><ele>141.0</ele><time>2026-04-19T06:42:38.635Z</time></trkpt><trkpt lat="41.0828617" lon="16.67118"><ele>141.0</ele><time>2026-04-19T06:42:40.634Z</time></trkpt><trkpt lat="41.0829133" lon="16.6710967"><ele>141.0</ele><time>2026-04-19T06:42:43.634Z</time></trkpt><trkpt lat="41.0828767" lon="16.6710167"><ele>141.0</ele><time>2026-04-19T06:42:47.634Z</time></trkpt><trkpt lat="41.0828283" lon="16.6709567"><ele>141.0</ele><time>2026-04-19T06:42:50.635Z</time></trkpt><trkpt lat="41.08278" lon="16.6710283"><ele>141.0</ele><time>2026-04-19T06:42:52.635Z</time></trkpt><trkpt lat="41.08272" lon="16.67093"><ele>141.0</ele><time>2026-04-19T06:43:29.633Z</time></trkpt><trkpt lat="41.0826517" lon="16.6708383"><ele>141.0</ele><time>2026-04-19T06:43:31.634Z</time></trkpt><trkpt lat="41.0826017" lon="16.6707683"><ele>141.0</ele><time>2026-04-19T06:43:32.635Z</time></trkpt><trkpt lat="41.0825583" lon="16.6707067"><ele>141.0</ele><time>2026-04-19T06:43:33.634Z</time></trkpt><trkpt lat="41.0824733" lon="16.6705717"><ele>141.0</ele><time>2026-04-19T06:43:35.634Z</time></trkpt><trkpt lat="41.082425" lon="16.6704883"><ele>141.0</ele><time>2026-04-19T06:43:36.635Z</time></trkpt><trkpt lat="41.082385" lon="16.6704133"><ele>141.0</ele><time>2026-04-19T06:43:37.634Z</time></trkpt><trkpt lat="41.0823517" lon="16.67033"><ele>141.0</ele><time>2026-04-19T06:43:38.634Z</time></trkpt><trkpt lat="41.0823233" lon="16.6702433"><ele>141.0</ele><time>2026-04-19T06:43:39.634Z</time></trkpt><trkpt lat="41.0823" lon="16.670145"><ele>141.4</ele><time>2026-04-19T06:43:40.634Z</time></trkpt><trkpt lat="41.0822733" lon="16.6700383"><ele>141.8</ele><time>2026-04-19T06:43:41.634Z</time></trkpt><trkpt lat="41.0822417" lon="16.6699183"><ele>142.20000000000002</ele><time>2026-04-19T06:43:42.634Z</time></trkpt><trkpt lat="41.0822067" lon="16.66979"><ele>142.6</ele><time>2026-04-19T06:43:43.634Z</time></trkpt><trkpt lat="41.08217" lon="16.669655"><ele>143.0</ele><time>2026-04-19T06:43:44.634Z</time></trkpt><trkpt lat="41.0821317" lon="16.6695183"><ele>143.6</ele><time>2026-04-19T06:43:45.635Z</time></trkpt><trkpt lat="41.0820933" lon="16.6693983"><ele>144.20000000000002</ele><time>2026-04-19T06:43:46.634Z</time></trkpt><trkpt lat="41.0820483" lon="16.6692717"><ele>144.8</ele><time>2026-04-19T06:43:47.634Z</time></trkpt><trkpt lat="41.082" lon="16.6691367"><ele>145.4</ele><time>2026-04-19T06:43:48.634Z</time></trkpt><trkpt lat="41.081945" lon="16.6689983"><ele>146.0</ele><time>2026-04-19T06:43:49.634Z</time></trkpt><trkpt lat="41.0818817" lon="16.66885"><ele>146.0</ele><time>2026-04-19T06:43:50.635Z</time></trkpt><trkpt lat="41.0818183" lon="16.6686983"><ele>146.0</ele><time>2026-04-19T06:43:51.634Z</time></trkpt><trkpt lat="41.0817633" lon="16.6685717"><ele>146.0</ele><time>2026-04-19T06:43:52.635Z</time></trkpt><trkpt lat="41.0817167" lon="16.668465"><ele>146.0</ele><time>2026-04-19T06:43:53.634Z</time></trkpt><trkpt lat="41.0816667" lon="16.668365"><ele>146.0</ele><time>2026-04-19T06:43:54.633Z</time></trkpt><trkpt lat="41.0816233" lon="16.6682617"><ele>146.0</ele><time>2026-04-19T06:43:55.634Z</time></trkpt><trkpt lat="41.0815717" lon="16.6681433"><ele>146.0</ele><time>2026-04-19T06:43:56.634Z</time></trkpt><trkpt lat="41.0815083" lon="16.66802"><ele>146.0</ele><time>2026-04-19T06:43:57.635Z</time></trkpt><trkpt lat="41.0814383" lon="16.667895"><ele>146.0</ele><time>2026-04-19T06:43:58.634Z</time></trkpt><trkpt lat="41.08137" lon="16.6677783"><ele>146.0</ele><time>2026-04-19T06:43:59.634Z</time></trkpt><trkpt lat="41.0813067" lon="16.6676733"><ele>146.6</ele><time>2026-04-19T06:44:00.634Z</time></trkpt><trkpt lat="41.08125" lon="16.6675717"><ele>147.2</ele><time>2026-04-19T06:44:01.634Z</time></trkpt><trkpt lat="41.0811917" lon="16.6674783"><ele>147.8</ele><time>2026-04-19T06:44:02.634Z</time></trkpt><trkpt lat="41.0811183" lon="16.6673917"><ele>148.4</ele><time>2026-04-19T06:44:03.634Z</time></trkpt><trkpt lat="41.0810267" lon="16.6673117"><ele>149.0</ele><time>2026-04-19T06:44:04.633Z</time></trkpt><trkpt lat="41.0809233" lon="16.6672367"><ele>149.0</ele><time>2026-04-19T06:44:05.634Z</time></trkpt><trkpt lat="41.08081" lon="16.6671617"><ele>149.0</ele><time>2026-04-19T06:44:06.634Z</time></trkpt><trkpt lat="41.0806933" lon="16.6670783"><ele>149.0</ele><time>2026-04-19T06:44:07.635Z</time></trkpt><trkpt lat="41.08057" lon="16.6669833"><ele>149.0</ele><time>2026-04-19T06:44:08.636Z</time></trkpt><trkpt lat="41.0804433" lon="16.666885"><ele>149.5</ele><time>2026-04-19T06:44:09.635Z</time></trkpt><trkpt lat="41.080325" lon="16.6668033"><ele>150.0</ele><time>2026-04-19T06:44:10.635Z</time></trkpt><trkpt lat="41.0802183" lon="16.666725"><ele>150.5</ele><time>2026-04-19T06:44:11.636Z</time></trkpt><trkpt lat="41.0801217" lon="16.66665"><ele>151.0</ele><time>2026-04-19T06:44:12.634Z</time></trkpt><trkpt lat="41.080025" lon="16.6665717"><ele>151.2</ele><time>2026-04-19T06:44:13.634Z</time></trkpt><trkpt lat="41.0799333" lon="16.666485"><ele>151.39999999999998</ele><time>2026-04-19T06:44:14.634Z</time></trkpt><trkpt lat="41.079855" lon="16.6664017"><ele>151.6</ele><time>2026-04-19T06:44:15.634Z</time></trkpt><trkpt lat="41.079785" lon="16.6663267"><ele>151.79999999999998</ele><time>2026-04-19T06:44:16.634Z</time></trkpt><trkpt lat="41.0797183" lon="16.66626"><ele>152.0</ele><time>2026-04-19T06:44:17.634Z</time></trkpt><trkpt lat="41.07964" lon="16.6662083"><ele>152.0</ele><time>2026-04-19T06:44:18.634Z</time></trkpt><trkpt lat="41.0795667" lon="16.6661717"><ele>152.0</ele><time>2026-04-19T06:44:19.634Z</time></trkpt><trkpt lat="41.0795017" lon="16.6661433"><ele>152.0</ele><time>2026-04-19T06:44:20.635Z</time></trkpt><trkpt lat="41.0794267" lon="16.66611"><ele>152.0</ele><time>2026-04-19T06:44:21.634Z</time></trkpt><trkpt lat="41.0793383" lon="16.6660733"><ele>152.0</ele><time>2026-04-19T06:44:22.634Z</time></trkpt><trkpt lat="41.0792367" lon="16.6660367"><ele>152.0</ele><time>2026-04-19T06:44:23.635Z</time></trkpt><trkpt lat="41.079135" lon="16.6660017"><ele>152.0</ele><time>2026-04-19T06:44:24.634Z</time></trkpt><trkpt lat="41.0790433" lon="16.665975"><ele>152.0</ele><time>2026-04-19T06:44:25.634Z</time></trkpt><trkpt lat="41.07897" lon="16.6659533"><ele>152.0</ele><time>2026-04-19T06:44:26.635Z</time></trkpt><trkpt lat="41.0788767" lon="16.66588"><ele>152.0</ele><time>2026-04-19T06:44:28.634Z</time></trkpt><trkpt lat="41.07883" lon="16.66581"><ele>152.0</ele><time>2026-04-19T06:44:29.634Z</time></trkpt><trkpt lat="41.0787883" lon="16.665715"><ele>152.0</ele><time>2026-04-19T06:44:30.634Z</time></trkpt><trkpt lat="41.078745" lon="16.6655983"><ele>152.0</ele><time>2026-04-19T06:44:31.635Z</time></trkpt><trkpt lat="41.0786983" lon="16.6654667"><ele>152.0</ele><time>2026-04-19T06:44:32.635Z</time></trkpt><trkpt lat="41.0786533" lon="16.6653233"><ele>152.0</ele><time>2026-04-19T06:44:33.634Z</time></trkpt><trkpt lat="41.07861" lon="16.66519"><ele>152.0</ele><time>2026-04-19T06:44:34.635Z</time></trkpt><trkpt lat="41.07857" lon="16.6650633"><ele>152.0</ele><time>2026-04-19T06:44:35.634Z</time></trkpt><trkpt lat="41.0785233" lon="16.6649333"><ele>152.75</ele><time>2026-04-19T06:44:36.634Z</time></trkpt><trkpt lat="41.078465" lon="16.6647983"><ele>153.5</ele><time>2026-04-19T06:44:37.635Z</time></trkpt><trkpt lat="41.078395" lon="16.6646617"><ele>154.25</ele><time>2026-04-19T06:44:38.634Z</time></trkpt><trkpt lat="41.0783183" lon="16.6645183"><ele>155.0</ele><time>2026-04-19T06:44:39.634Z</time></trkpt><trkpt lat="41.0782367" lon="16.6643683"><ele>155.5</ele><time>2026-04-19T06:44:40.634Z</time></trkpt><trkpt lat="41.078155" lon="16.6642233"><ele>156.0</ele><time>2026-04-19T06:44:41.634Z</time></trkpt><trkpt lat="41.078065" lon="16.6640783"><ele>156.5</ele><time>2026-04-19T06:44:42.634Z</time></trkpt><trkpt lat="41.07797" lon="16.6639317"><ele>157.0</ele><time>2026-04-19T06:44:43.634Z</time></trkpt><trkpt lat="41.07788" lon="16.6637933"><ele>157.0</ele><time>2026-04-19T06:44:44.634Z</time></trkpt><trkpt lat="41.0777933" lon="16.6636633"><ele>157.0</ele><time>2026-04-19T06:44:45.634Z</time></trkpt><trkpt lat="41.0777017" lon="16.6635383"><ele>157.0</ele><time>2026-04-19T06:44:46.634Z</time></trkpt><trkpt lat="41.07761" lon="16.66341"><ele>157.0</ele><time>2026-04-19T06:44:47.634Z</time></trkpt><trkpt lat="41.0775267" lon="16.6632933"><ele>157.33333333333334</ele><time>2026-04-19T06:44:48.634Z</time></trkpt><trkpt lat="41.077455" lon="16.6631983"><ele>157.66666666666669</ele><time>2026-04-19T06:44:49.634Z</time></trkpt><trkpt lat="41.0773917" lon="16.66311"><ele>158.0</ele><time>2026-04-19T06:44:50.634Z</time></trkpt><trkpt lat="41.077335" lon="16.6630217"><ele>158.33333333333334</ele><time>2026-04-19T06:44:51.634Z</time></trkpt><trkpt lat="41.07728" lon="16.6629417"><ele>158.66666666666666</ele><time>2026-04-19T06:44:52.634Z</time></trkpt><trkpt lat="41.0772267" lon="16.6628717"><ele>159.0</ele><time>2026-04-19T06:44:53.634Z</time></trkpt><trkpt lat="41.0771717" lon="16.6628"><ele>159.2</ele><time>2026-04-19T06:44:54.634Z</time></trkpt><trkpt lat="41.0771067" lon="16.6627167"><ele>159.4</ele><time>2026-04-19T06:44:55.634Z</time></trkpt><trkpt lat="41.0770333" lon="16.6626233"><ele>159.6</ele><time>2026-04-19T06:44:56.635Z</time></trkpt><trkpt lat="41.076955" lon="16.6625267"><ele>159.8</ele><time>2026-04-19T06:44:57.634Z</time></trkpt><trkpt lat="41.0768783" lon="16.6624333"><ele>160.0</ele><time>2026-04-19T06:44:58.635Z</time></trkpt><trkpt lat="41.0767983" lon="16.6623333"><ele>160.0</ele><time>2026-04-19T06:44:59.635Z</time></trkpt><trkpt lat="41.0767167" lon="16.6622233"><ele>160.0</ele><time>2026-04-19T06:45:00.634Z</time></trkpt><trkpt lat="41.0766317" lon="16.6621167"><ele>160.0</ele><time>2026-04-19T06:45:01.635Z</time></trkpt><trkpt lat="41.0765533" lon="16.66202"><ele>160.0</ele><time>2026-04-19T06:45:02.634Z</time></trkpt><trkpt lat="41.0764867" lon="16.66193"><ele>160.0</ele><time>2026-04-19T06:45:03.634Z</time></trkpt><trkpt lat="41.076425" lon="16.6618433"><ele>160.5</ele><time>2026-04-19T06:45:04.635Z</time></trkpt><trkpt lat="41.076355" lon="16.6617567"><ele>161.0</ele><time>2026-04-19T06:45:05.635Z</time></trkpt><trkpt lat="41.0762867" lon="16.6616817"><ele>161.5</ele><time>2026-04-19T06:45:06.634Z</time></trkpt><trkpt lat="41.0762117" lon="16.6616133"><ele>162.0</ele><time>2026-04-19T06:45:07.634Z</time></trkpt><trkpt lat="41.0761367" lon="16.66156"><ele>162.5</ele><time>2026-04-19T06:45:08.634Z</time></trkpt><trkpt lat="41.0760633" lon="16.6615233"><ele>163.0</ele><time>2026-04-19T06:45:09.635Z</time></trkpt><trkpt lat="41.0759917" lon="16.6615"><ele>163.0</ele><time>2026-04-19T06:45:10.634Z</time></trkpt><trkpt lat="41.0758633" lon="16.6614933"><ele>163.0</ele><time>2026-04-19T06:45:12.634Z</time></trkpt><trkpt lat="41.0757933" lon="16.6614933"><ele>163.0</ele><time>2026-04-19T06:45:13.634Z</time></trkpt><trkpt lat="41.075685" lon="16.6614733"><ele>163.0</ele><time>2026-04-19T06:45:15.634Z</time></trkpt><trkpt lat="41.0755867" lon="16.6613683"><ele>163.0</ele><time>2026-04-19T06:45:17.635Z</time></trkpt><trkpt lat="41.0755417" lon="16.66127"><ele>163.25</ele><time>2026-04-19T06:45:18.634Z</time></trkpt><trkpt lat="41.07549" lon="16.66114"><ele>163.5</ele><time>2026-04-19T06:45:19.634Z</time></trkpt><trkpt lat="41.0754333" lon="16.661005"><ele>163.75</ele><time>2026-04-19T06:45:20.635Z</time></trkpt><trkpt lat="41.0753717" lon="16.6608617"><ele>164.0</ele><time>2026-04-19T06:45:21.634Z</time></trkpt><trkpt lat="41.0753017" lon="16.6607133"><ele>164.0</ele><time>2026-04-19T06:45:22.635Z</time></trkpt><trkpt lat="41.07522" lon="16.6605633"><ele>164.0</ele><time>2026-04-19T06:45:23.634Z</time></trkpt><trkpt lat="41.0751383" lon="16.6604133"><ele>164.0</ele><time>2026-04-19T06:45:24.635Z</time></trkpt><trkpt lat="41.075055" lon="16.6602667"><ele>164.0</ele><time>2026-04-19T06:45:25.637Z</time></trkpt><trkpt lat="41.07498" lon="16.660135"><ele>164.75</ele><time>2026-04-19T06:45:26.636Z</time></trkpt><trkpt lat="41.0749083" lon="16.6599967"><ele>165.5</ele><time>2026-04-19T06:45:27.634Z</time></trkpt><trkpt lat="41.07484" lon="16.6598483"><ele>166.25</ele><time>2026-04-19T06:45:28.634Z</time></trkpt><trkpt lat="41.0747717" lon="16.659695"><ele>167.0</ele><time>2026-04-19T06:45:29.634Z</time></trkpt><trkpt lat="41.0747033" lon="16.65954"><ele>167.25</ele><time>2026-04-19T06:45:30.633Z</time></trkpt><trkpt lat="41.074635" lon="16.6593833"><ele>167.5</ele><time>2026-04-19T06:45:31.635Z</time></trkpt><trkpt lat="41.0745683" lon="16.6592267"><ele>167.75</ele><time>2026-04-19T06:45:32.636Z</time></trkpt><trkpt lat="41.0745133" lon="16.6591033"><ele>168.0</ele><time>2026-04-19T06:45:33.635Z</time></trkpt><trkpt lat="41.0744733" lon="16.659025"><ele>168.0</ele><time>2026-04-19T06:45:35.634Z</time></trkpt><trkpt lat="41.0743917" lon="16.659025"><ele>168.0</ele><time>2026-04-19T06:45:50.633Z</time></trkpt><trkpt lat="41.074335" lon="16.659095"><ele>168.0</ele><time>2026-04-19T06:45:52.634Z</time></trkpt><trkpt lat="41.0742567" lon="16.6591933"><ele>168.0</ele><time>2026-04-19T06:45:54.634Z</time></trkpt><trkpt lat="41.0741667" lon="16.659305"><ele>168.0</ele><time>2026-04-19T06:45:56.635Z</time></trkpt><trkpt lat="41.07412" lon="16.6593617"><ele>168.4</ele><time>2026-04-19T06:45:57.634Z</time></trkpt><trkpt lat="41.0740517" lon="16.659455"><ele>168.8</ele><time>2026-04-19T06:45:59.634Z</time></trkpt><trkpt lat="41.073975" lon="16.6595517"><ele>169.2</ele><time>2026-04-19T06:46:01.634Z</time></trkpt><trkpt lat="41.0739" lon="16.6596417"><ele>169.6</ele><time>2026-04-19T06:46:03.634Z</time></trkpt><trkpt lat="41.073815" lon="16.6597383"><ele>170.0</ele><time>2026-04-19T06:46:05.634Z</time></trkpt><trkpt lat="41.0737667" lon="16.6597933"><ele>170.0</ele><time>2026-04-19T06:46:06.633Z</time></trkpt><trkpt lat="41.07372" lon="16.65986"><ele>170.0</ele><time>2026-04-19T06:46:07.635Z</time></trkpt><trkpt lat="41.0736767" lon="16.6599267"><ele>170.0</ele><time>2026-04-19T06:46:08.634Z</time></trkpt><trkpt lat="41.0736333" lon="16.6599883"><ele>170.0</ele><time>2026-04-19T06:46:09.634Z</time></trkpt><trkpt lat="41.0735533" lon="16.6601017"><ele>170.0</ele><time>2026-04-19T06:46:11.634Z</time></trkpt><trkpt lat="41.0734867" lon="16.6602017"><ele>170.0</ele><time>2026-04-19T06:46:13.634Z</time></trkpt><trkpt lat="41.073415" lon="16.6602783"><ele>170.0</ele><time>2026-04-19T06:46:15.634Z</time></trkpt><trkpt lat="41.0733117" lon="16.6603733"><ele>170.0</ele><time>2026-04-19T06:46:17.634Z</time></trkpt><trkpt lat="41.0732517" lon="16.6604283"><ele>170.0</ele><time>2026-04-19T06:46:18.634Z</time></trkpt><trkpt lat="41.0731883" lon="16.6604933"><ele>170.0</ele><time>2026-04-19T06:46:19.634Z</time></trkpt><trkpt lat="41.073125" lon="16.660555"><ele>170.0</ele><time>2026-04-19T06:46:20.634Z</time></trkpt><trkpt lat="41.0730667" lon="16.6606067"><ele>170.0</ele><time>2026-04-19T06:46:21.634Z</time></trkpt><trkpt lat="41.07298" lon="16.660705"><ele>170.0</ele><time>2026-04-19T06:46:23.635Z</time></trkpt><trkpt lat="41.07291" lon="16.66079"><ele>170.0</ele><time>2026-04-19T06:46:25.635Z</time></trkpt><trkpt lat="41.0728483" lon="16.66089"><ele>170.0</ele><time>2026-04-19T06:46:27.634Z</time></trkpt><trkpt lat="41.0728267" lon="16.6610167"><ele>170.0</ele><time>2026-04-19T06:46:29.634Z</time></trkpt><trkpt lat="41.0728367" lon="16.6611667"><ele>170.0</ele><time>2026-04-19T06:46:31.634Z</time></trkpt><trkpt lat="41.072845" lon="16.6612533"><ele>170.0</ele><time>2026-04-19T06:46:32.634Z</time></trkpt><trkpt lat="41.07286" lon="16.66142"><ele>170.0</ele><time>2026-04-19T06:46:34.634Z</time></trkpt><trkpt lat="41.072865" lon="16.6615083"><ele>170.0</ele><time>2026-04-19T06:46:35.634Z</time></trkpt><trkpt lat="41.0728717" lon="16.661605"><ele>170.0</ele><time>2026-04-19T06:46:36.634Z</time></trkpt><trkpt lat="41.0728767" lon="16.6616883"><ele>170.0</ele><time>2026-04-19T06:46:37.634Z</time></trkpt><trkpt lat="41.07288" lon="16.6618533"><ele>169.75</ele><time>2026-04-19T06:46:39.634Z</time></trkpt><trkpt lat="41.0728783" lon="16.6620033"><ele>169.5</ele><time>2026-04-19T06:46:41.634Z</time></trkpt><trkpt lat="41.0728833" lon="16.6621417"><ele>169.25</ele><time>2026-04-19T06:46:43.634Z</time></trkpt><trkpt lat="41.0728767" lon="16.6623083"><ele>169.0</ele><time>2026-04-19T06:46:45.634Z</time></trkpt><trkpt lat="41.072895" lon="16.6624583"><ele>169.0</ele><time>2026-04-19T06:46:47.634Z</time></trkpt><trkpt lat="41.072905" lon="16.6626083"><ele>169.0</ele><time>2026-04-19T06:46:49.634Z</time></trkpt><trkpt lat="41.0729083" lon="16.6626933"><ele>169.0</ele><time>2026-04-19T06:46:50.634Z</time></trkpt><trkpt lat="41.0729133" lon="16.6627767"><ele>169.0</ele><time>2026-04-19T06:46:51.634Z</time></trkpt><trkpt lat="41.0729283" lon="16.662945"><ele>169.0</ele><time>2026-04-19T06:46:53.635Z</time></trkpt><trkpt lat="41.0729217" lon="16.663075"><ele>168.83333333333334</ele><time>2026-04-19T06:46:55.635Z</time></trkpt><trkpt lat="41.0728733" lon="16.66316"><ele>168.66666666666669</ele><time>2026-04-19T06:46:57.634Z</time></trkpt><trkpt lat="41.07279" lon="16.6632433"><ele>168.5</ele><time>2026-04-19T06:46:59.634Z</time></trkpt><trkpt lat="41.072685" lon="16.6633183"><ele>168.33333333333334</ele><time>2026-04-19T06:47:01.635Z</time></trkpt><trkpt lat="41.0726283" lon="16.6633767"><ele>168.16666666666666</ele><time>2026-04-19T06:47:02.635Z</time></trkpt><trkpt lat="41.072575" lon="16.6634367"><ele>168.0</ele><time>2026-04-19T06:47:03.633Z</time></trkpt><trkpt lat="41.0725233" lon="16.663485"><ele>168.2</ele><time>2026-04-19T06:47:04.634Z</time></trkpt><trkpt lat="41.0724267" lon="16.66358"><ele>168.4</ele><time>2026-04-19T06:47:06.636Z</time></trkpt><trkpt lat="41.0723283" lon="16.66367"><ele>168.6</ele><time>2026-04-19T06:47:08.634Z</time></trkpt><trkpt lat="41.0722733" lon="16.6637267"><ele>168.79999999999998</ele><time>2026-04-19T06:47:09.634Z</time></trkpt><trkpt lat="41.0722217" lon="16.66378"><ele>169.0</ele><time>2026-04-19T06:47:10.633Z</time></trkpt><trkpt lat="41.0721417" lon="16.6638883"><ele>168.6</ele><time>2026-04-19T06:47:12.634Z</time></trkpt><trkpt lat="41.0721167" lon="16.6640117"><ele>168.2</ele><time>2026-04-19T06:47:14.635Z</time></trkpt><trkpt lat="41.0721117" lon="16.6641817"><ele>167.79999999999998</ele><time>2026-04-19T06:47:16.637Z</time></trkpt><trkpt lat="41.07211" lon="16.664275"><ele>167.39999999999998</ele><time>2026-04-19T06:47:17.634Z</time></trkpt><trkpt lat="41.072105" lon="16.66437"><ele>167.0</ele><time>2026-04-19T06:47:18.634Z</time></trkpt><trkpt lat="41.0721017" lon="16.66452"><ele>167.0</ele><time>2026-04-19T06:47:20.634Z</time></trkpt><trkpt lat="41.07208" lon="16.664655"><ele>167.0</ele><time>2026-04-19T06:47:22.634Z</time></trkpt><trkpt lat="41.072015" lon="16.6647567"><ele>167.0</ele><time>2026-04-19T06:47:24.635Z</time></trkpt><trkpt lat="41.071935" lon="16.6648117"><ele>167.0</ele><time>2026-04-19T06:47:26.634Z</time></trkpt><trkpt lat="41.0718817" lon="16.66491"><ele>167.0</ele><time>2026-04-19T06:47:28.633Z</time></trkpt><trkpt lat="41.0718467" lon="16.66507"><ele>167.0</ele><time>2026-04-19T06:47:30.636Z</time></trkpt><trkpt lat="41.0718267" lon="16.665155"><ele>167.0</ele><time>2026-04-19T06:47:31.634Z</time></trkpt><trkpt lat="41.0718067" lon="16.6652417"><ele>167.0</ele><time>2026-04-19T06:47:32.635Z</time></trkpt><trkpt lat="41.0717883" lon="16.665345"><ele>167.0</ele><time>2026-04-19T06:47:33.633Z</time></trkpt><trkpt lat="41.0717683" lon="16.6654417"><ele>167.0</ele><time>2026-04-19T06:47:34.634Z</time></trkpt><trkpt lat="41.0717517" lon="16.665525"><ele>167.0</ele><time>2026-04-19T06:47:35.634Z</time></trkpt><trkpt lat="41.07173" lon="16.6656667"><ele>167.0</ele><time>2026-04-19T06:47:37.634Z</time></trkpt><trkpt lat="41.0717017" lon="16.6658033"><ele>167.0</ele><time>2026-04-19T06:47:39.634Z</time></trkpt><trkpt lat="41.0716717" lon="16.6659767"><ele>167.0</ele><time>2026-04-19T06:47:41.634Z</time></trkpt><trkpt lat="41.0716583" lon="16.66607"><ele>167.0</ele><time>2026-04-19T06:47:42.635Z</time></trkpt><trkpt lat="41.0716417" lon="16.66616"><ele>167.0</ele><time>2026-04-19T06:47:43.634Z</time></trkpt><trkpt lat="41.0716267" lon="16.66625"><ele>167.2</ele><time>2026-04-19T06:47:44.634Z</time></trkpt><trkpt lat="41.0716033" lon="16.66639"><ele>167.39999999999998</ele><time>2026-04-19T06:47:46.636Z</time></trkpt><trkpt lat="41.071555" lon="16.6665033"><ele>167.60000000000002</ele><time>2026-04-19T06:47:49.634Z</time></trkpt><trkpt lat="41.0714983" lon="16.6666"><ele>167.8</ele><time>2026-04-19T06:47:51.634Z</time></trkpt><trkpt lat="41.0714117" lon="16.6667083"><ele>168.0</ele><time>2026-04-19T06:47:53.635Z</time></trkpt><trkpt lat="41.0713233" lon="16.6668133"><ele>168.0</ele><time>2026-04-19T06:47:55.635Z</time></trkpt><trkpt lat="41.0712467" lon="16.6669"><ele>168.0</ele><time>2026-04-19T06:47:57.635Z</time></trkpt><trkpt lat="41.0711767" lon="16.666975"><ele>168.0</ele><time>2026-04-19T06:47:59.634Z</time></trkpt><trkpt lat="41.0710733" lon="16.6669967"><ele>168.0</ele><time>2026-04-19T06:48:01.634Z</time></trkpt><trkpt lat="41.0710017" lon="16.667015"><ele>168.0</ele><time>2026-04-19T06:48:02.635Z</time></trkpt><trkpt lat="41.07091" lon="16.6670383"><ele>168.0</ele><time>2026-04-19T06:48:03.634Z</time></trkpt><trkpt lat="41.0708117" lon="16.66707"><ele>168.0</ele><time>2026-04-19T06:48:04.634Z</time></trkpt><trkpt lat="41.0706983" lon="16.6671033"><ele>168.0</ele><time>2026-04-19T06:48:05.635Z</time></trkpt><trkpt lat="41.0705767" lon="16.6671383"><ele>168.0</ele><time>2026-04-19T06:48:06.634Z</time></trkpt><trkpt lat="41.0704533" lon="16.6671733"><ele>168.0</ele><time>2026-04-19T06:48:07.634Z</time></trkpt><trkpt lat="41.0703217" lon="16.6672133"><ele>168.0</ele><time>2026-04-19T06:48:08.634Z</time></trkpt><trkpt lat="41.070185" lon="16.66725"><ele>168.0</ele><time>2026-04-19T06:48:09.634Z</time></trkpt><trkpt lat="41.0700567" lon="16.66728"><ele>168.0</ele><time>2026-04-19T06:48:10.634Z</time></trkpt><trkpt lat="41.069925" lon="16.6673117"><ele>168.0</ele><time>2026-04-19T06:48:11.634Z</time></trkpt><trkpt lat="41.06979" lon="16.6673483"><ele>168.0</ele><time>2026-04-19T06:48:12.634Z</time></trkpt><trkpt lat="41.0696517" lon="16.667385"><ele>168.0</ele><time>2026-04-19T06:48:13.634Z</time></trkpt><trkpt lat="41.0695133" lon="16.667425"><ele>168.0</ele><time>2026-04-19T06:48:14.635Z</time></trkpt><trkpt lat="41.0693717" lon="16.6674667"><ele>168.0</ele><time>2026-04-19T06:48:15.635Z</time></trkpt><trkpt lat="41.0692283" lon="16.6675083"><ele>168.0</ele><time>2026-04-19T06:48:16.634Z</time></trkpt><trkpt lat="41.0690933" lon="16.6675467"><ele>168.0</ele><time>2026-04-19T06:48:17.635Z</time></trkpt><trkpt lat="41.06897" lon="16.667585"><ele>168.0</ele><time>2026-04-19T06:48:18.634Z</time></trkpt><trkpt lat="41.0688567" lon="16.6676233"><ele>168.25</ele><time>2026-04-19T06:48:19.634Z</time></trkpt><trkpt lat="41.0687467" lon="16.6676667"><ele>168.5</ele><time>2026-04-19T06:48:20.634Z</time></trkpt><trkpt lat="41.0686333" lon="16.66772"><ele>168.75</ele><time>2026-04-19T06:48:21.633Z</time></trkpt><trkpt lat="41.068515" lon="16.6677717"><ele>169.0</ele><time>2026-04-19T06:48:22.634Z</time></trkpt><trkpt lat="41.0683967" lon="16.66783"><ele>169.0</ele><time>2026-04-19T06:48:23.634Z</time></trkpt><trkpt lat="41.06828" lon="16.6678883"><ele>169.0</ele><time>2026-04-19T06:48:24.634Z</time></trkpt><trkpt lat="41.06817" lon="16.66794"><ele>169.0</ele><time>2026-04-19T06:48:25.635Z</time></trkpt><trkpt lat="41.0680633" lon="16.667985"><ele>169.0</ele><time>2026-04-19T06:48:26.636Z</time></trkpt><trkpt lat="41.067965" lon="16.66802"><ele>169.0</ele><time>2026-04-19T06:48:27.633Z</time></trkpt><trkpt lat="41.0678717" lon="16.668045"><ele>169.0</ele><time>2026-04-19T06:48:28.634Z</time></trkpt><trkpt lat="41.0677867" lon="16.668065"><ele>169.0</ele><time>2026-04-19T06:48:29.634Z</time></trkpt><trkpt lat="41.0677067" lon="16.6680733"><ele>169.0</ele><time>2026-04-19T06:48:30.634Z</time></trkpt><trkpt lat="41.067625" lon="16.66807"><ele>169.0</ele><time>2026-04-19T06:48:31.634Z</time></trkpt><trkpt lat="41.0675217" lon="16.6680517"><ele>169.0</ele><time>2026-04-19T06:48:32.635Z</time></trkpt><trkpt lat="41.0674117" lon="16.6680167"><ele>169.25</ele><time>2026-04-19T06:48:33.635Z</time></trkpt><trkpt lat="41.0673033" lon="16.66799"><ele>169.5</ele><time>2026-04-19T06:48:34.634Z</time></trkpt><trkpt lat="41.06718" lon="16.6679833"><ele>169.75</ele><time>2026-04-19T06:48:35.634Z</time></trkpt><trkpt lat="41.0670517" lon="16.6679917"><ele>170.0</ele><time>2026-04-19T06:48:36.634Z</time></trkpt><trkpt lat="41.066935" lon="16.668005"><ele>170.0</ele><time>2026-04-19T06:48:37.634Z</time></trkpt><trkpt lat="41.0668283" lon="16.6680167"><ele>170.0</ele><time>2026-04-19T06:48:38.634Z</time></trkpt><trkpt lat="41.0667283" lon="16.6680183"><ele>170.0</ele><time>2026-04-19T06:48:39.636Z</time></trkpt><trkpt lat="41.066625" lon="16.6680033"><ele>170.0</ele><time>2026-04-19T06:48:40.634Z</time></trkpt><trkpt lat="41.0665183" lon="16.6679783"><ele>170.0</ele><time>2026-04-19T06:48:41.637Z</time></trkpt><trkpt lat="41.06641" lon="16.66796"><ele>170.16666666666666</ele><time>2026-04-19T06:48:42.634Z</time></trkpt><trkpt lat="41.0663067" lon="16.6679533"><ele>170.33333333333331</ele><time>2026-04-19T06:48:43.634Z</time></trkpt><trkpt lat="41.0662133" lon="16.66796"><ele>170.5</ele><time>2026-04-19T06:48:44.634Z</time></trkpt><trkpt lat="41.0661283" lon="16.667975"><ele>170.66666666666666</ele><time>2026-04-19T06:48:45.635Z</time></trkpt><trkpt lat="41.0660467" lon="16.6679867"><ele>170.83333333333334</ele><time>2026-04-19T06:48:46.634Z</time></trkpt><trkpt lat="41.065965" lon="16.6679767"><ele>171.0</ele><time>2026-04-19T06:48:47.634Z</time></trkpt><trkpt lat="41.06589" lon="16.6679567"><ele>171.0</ele><time>2026-04-19T06:48:48.635Z</time></trkpt><trkpt lat="41.0658217" lon="16.667945"><ele>171.0</ele><time>2026-04-19T06:48:49.634Z</time></trkpt><trkpt lat="41.0657467" lon="16.6679583"><ele>171.0</ele><time>2026-04-19T06:48:50.636Z</time></trkpt><trkpt lat="41.0656633" lon="16.667985"><ele>171.0</ele><time>2026-04-19T06:48:51.635Z</time></trkpt><trkpt lat="41.06557" lon="16.6680183"><ele>171.0</ele><time>2026-04-19T06:48:52.635Z</time></trkpt><trkpt lat="41.0654633" lon="16.6680617"><ele>171.0</ele><time>2026-04-19T06:48:53.635Z</time></trkpt><trkpt lat="41.0653633" lon="16.6681017"><ele>171.0</ele><time>2026-04-19T06:48:54.633Z</time></trkpt><trkpt lat="41.0652733" lon="16.6681417"><ele>171.0</ele><time>2026-04-19T06:48:55.634Z</time></trkpt><trkpt lat="41.06519" lon="16.66818"><ele>171.0</ele><time>2026-04-19T06:48:56.634Z</time></trkpt><trkpt lat="41.0651" lon="16.66822"><ele>171.0</ele><time>2026-04-19T06:48:57.633Z</time></trkpt><trkpt lat="41.065" lon="16.6682733"><ele>171.0</ele><time>2026-04-19T06:48:58.634Z</time></trkpt><trkpt lat="41.0648933" lon="16.6683383"><ele>171.0</ele><time>2026-04-19T06:48:59.634Z</time></trkpt><trkpt lat="41.0647967" lon="16.668405"><ele>171.0</ele><time>2026-04-19T06:49:00.633Z</time></trkpt><trkpt lat="41.064705" lon="16.66846"><ele>171.0</ele><time>2026-04-19T06:49:01.637Z</time></trkpt><trkpt lat="41.064615" lon="16.668505"><ele>171.0</ele><time>2026-04-19T06:49:02.635Z</time></trkpt><trkpt lat="41.064535" lon="16.6685383"><ele>171.0</ele><time>2026-04-19T06:49:03.633Z</time></trkpt><trkpt lat="41.0644733" lon="16.6685633"><ele>171.0</ele><time>2026-04-19T06:49:04.633Z</time></trkpt><trkpt lat="41.0644017" lon="16.6685783"><ele>171.0</ele><time>2026-04-19T06:49:06.634Z</time></trkpt><trkpt lat="41.0643467" lon="16.6685333"><ele>171.0</ele><time>2026-04-19T06:49:10.637Z</time></trkpt><trkpt lat="41.06433" lon="16.6683983"><ele>171.0</ele><time>2026-04-19T06:49:12.634Z</time></trkpt><trkpt lat="41.0643167" lon="16.668315"><ele>171.0</ele><time>2026-04-19T06:49:13.634Z</time></trkpt><trkpt lat="41.06429" lon="16.66823"><ele>171.0</ele><time>2026-04-19T06:49:14.634Z</time></trkpt><trkpt lat="41.0642467" lon="16.66814"><ele>171.0</ele><time>2026-04-19T06:49:15.634Z</time></trkpt><trkpt lat="41.0641967" lon="16.6680633"><ele>171.0</ele><time>2026-04-19T06:49:16.634Z</time></trkpt><trkpt lat="41.064145" lon="16.6679983"><ele>171.0</ele><time>2026-04-19T06:49:17.634Z</time></trkpt><trkpt lat="41.0640817" lon="16.6679417"><ele>171.0</ele><time>2026-04-19T06:49:18.633Z</time></trkpt><trkpt lat="41.064005" lon="16.667885"><ele>171.0</ele><time>2026-04-19T06:49:19.635Z</time></trkpt><trkpt lat="41.0639217" lon="16.66784"><ele>171.0</ele><time>2026-04-19T06:49:20.636Z</time></trkpt><trkpt lat="41.06383" lon="16.667785"><ele>171.4</ele><time>2026-04-19T06:49:21.636Z</time></trkpt><trkpt lat="41.06373" lon="16.66773"><ele>171.8</ele><time>2026-04-19T06:49:22.636Z</time></trkpt><trkpt lat="41.0636283" lon="16.6676817"><ele>172.20000000000002</ele><time>2026-04-19T06:49:23.637Z</time></trkpt><trkpt lat="41.0635433" lon="16.6676367"><ele>172.60000000000002</ele><time>2026-04-19T06:49:24.634Z</time></trkpt><trkpt lat="41.0634633" lon="16.66759"><ele>173.0</ele><time>2026-04-19T06:49:25.634Z</time></trkpt><trkpt lat="41.0633817" lon="16.667535"><ele>173.0</ele><time>2026-04-19T06:49:26.634Z</time></trkpt><trkpt lat="41.0633033" lon="16.667465"><ele>173.0</ele><time>2026-04-19T06:49:27.635Z</time></trkpt><trkpt lat="41.06323" lon="16.6673767"><ele>173.0</ele><time>2026-04-19T06:49:28.634Z</time></trkpt><trkpt lat="41.0631567" lon="16.6672783"><ele>173.0</ele><time>2026-04-19T06:49:29.634Z</time></trkpt><trkpt lat="41.063095" lon="16.6671917"><ele>173.0</ele><time>2026-04-19T06:49:30.634Z</time></trkpt><trkpt lat="41.06303" lon="16.66712"><ele>173.16666666666666</ele><time>2026-04-19T06:49:31.634Z</time></trkpt><trkpt lat="41.0629667" lon="16.6670667"><ele>173.33333333333331</ele><time>2026-04-19T06:49:32.634Z</time></trkpt><trkpt lat="41.062895" lon="16.6670267"><ele>173.5</ele><time>2026-04-19T06:49:33.635Z</time></trkpt><trkpt lat="41.0628133" lon="16.667"><ele>173.66666666666666</ele><time>2026-04-19T06:49:34.639Z</time></trkpt><trkpt lat="41.062725" lon="16.666985"><ele>173.83333333333334</ele><time>2026-04-19T06:49:35.634Z</time></trkpt><trkpt lat="41.06263" lon="16.6669767"><ele>174.0</ele><time>2026-04-19T06:49:36.635Z</time></trkpt><trkpt lat="41.0625283" lon="16.666965"><ele>174.5</ele><time>2026-04-19T06:49:37.634Z</time></trkpt><trkpt lat="41.0624217" lon="16.66694"><ele>175.0</ele><time>2026-04-19T06:49:38.634Z</time></trkpt><trkpt lat="41.062315" lon="16.6668983"><ele>175.5</ele><time>2026-04-19T06:49:39.634Z</time></trkpt><trkpt lat="41.0622033" lon="16.6668533"><ele>176.0</ele><time>2026-04-19T06:49:40.634Z</time></trkpt><trkpt lat="41.0620867" lon="16.666815"><ele>176.0</ele><time>2026-04-19T06:49:41.634Z</time></trkpt><trkpt lat="41.0619683" lon="16.6667883"><ele>176.0</ele><time>2026-04-19T06:49:42.634Z</time></trkpt><trkpt lat="41.06186" lon="16.666775"><ele>176.0</ele><time>2026-04-19T06:49:43.634Z</time></trkpt><trkpt lat="41.06176" lon="16.6667633"><ele>176.0</ele><time>2026-04-19T06:49:44.634Z</time></trkpt><trkpt lat="41.061665" lon="16.666755"><ele>176.0</ele><time>2026-04-19T06:49:45.634Z</time></trkpt><trkpt lat="41.0615783" lon="16.66674"><ele>175.83333333333331</ele><time>2026-04-19T06:49:46.634Z</time></trkpt><trkpt lat="41.0615" lon="16.6667183"><ele>175.66666666666666</ele><time>2026-04-19T06:49:47.635Z</time></trkpt><trkpt lat="41.06143" lon="16.6666967"><ele>175.5</ele><time>2026-04-19T06:49:48.634Z</time></trkpt><trkpt lat="41.06133" lon="16.66667"><ele>175.33333333333334</ele><time>2026-04-19T06:49:50.635Z</time></trkpt><trkpt lat="41.061255" lon="16.6666517"><ele>175.16666666666669</ele><time>2026-04-19T06:49:53.634Z</time></trkpt><trkpt lat="41.0611783" lon="16.6666517"><ele>175.0</ele><time>2026-04-19T06:49:55.634Z</time></trkpt><trkpt lat="41.0610467" lon="16.6666217"><ele>175.0</ele><time>2026-04-19T06:49:57.633Z</time></trkpt><trkpt lat="41.0609617" lon="16.666595"><ele>175.0</ele><time>2026-04-19T06:49:58.634Z</time></trkpt><trkpt lat="41.060865" lon="16.6665717"><ele>175.0</ele><time>2026-04-19T06:49:59.633Z</time></trkpt><trkpt lat="41.0607617" lon="16.6665433"><ele>175.0</ele><time>2026-04-19T06:50:00.634Z</time></trkpt><trkpt lat="41.0606533" lon="16.66651"><ele>175.0</ele><time>2026-04-19T06:50:01.634Z</time></trkpt><trkpt lat="41.0605517" lon="16.6664567"><ele>174.6</ele><time>2026-04-19T06:50:02.634Z</time></trkpt><trkpt lat="41.0604533" lon="16.6663917"><ele>174.2</ele><time>2026-04-19T06:50:03.636Z</time></trkpt><trkpt lat="41.060365" lon="16.666325"><ele>173.8</ele><time>2026-04-19T06:50:04.634Z</time></trkpt><trkpt lat="41.0602817" lon="16.6662667"><ele>173.4</ele><time>2026-04-19T06:50:05.635Z</time></trkpt><trkpt lat="41.0602" lon="16.6662283"><ele>173.0</ele><time>2026-04-19T06:50:06.634Z</time></trkpt><trkpt lat="41.0601117" lon="16.666205"><ele>173.0</ele><time>2026-04-19T06:50:07.634Z</time></trkpt><trkpt lat="41.0600133" lon="16.6661917"><ele>173.0</ele><time>2026-04-19T06:50:08.639Z</time></trkpt><trkpt lat="41.059905" lon="16.66618"><ele>173.0</ele><time>2026-04-19T06:50:09.633Z</time></trkpt><trkpt lat="41.0597867" lon="16.6661633"><ele>173.0</ele><time>2026-04-19T06:50:10.635Z</time></trkpt><trkpt lat="41.059665" lon="16.6661417"><ele>173.0</ele><time>2026-04-19T06:50:11.634Z</time></trkpt><trkpt lat="41.0595517" lon="16.66612"><ele>173.5</ele><time>2026-04-19T06:50:12.634Z</time></trkpt><trkpt lat="41.0594433" lon="16.6660917"><ele>174.0</ele><time>2026-04-19T06:50:13.636Z</time></trkpt><trkpt lat="41.0593267" lon="16.6660533"><ele>174.5</ele><time>2026-04-19T06:50:14.636Z</time></trkpt><trkpt lat="41.0592117" lon="16.6659983"><ele>175.0</ele><time>2026-04-19T06:50:15.633Z</time></trkpt><trkpt lat="41.0591117" lon="16.665945"><ele>175.4</ele><time>2026-04-19T06:50:16.634Z</time></trkpt><trkpt lat="41.05902" lon="16.6658833"><ele>175.8</ele><time>2026-04-19T06:50:17.634Z</time></trkpt><trkpt lat="41.058925" lon="16.6658133"><ele>176.2</ele><time>2026-04-19T06:50:18.636Z</time></trkpt><trkpt lat="41.0588333" lon="16.6657333"><ele>176.6</ele><time>2026-04-19T06:50:19.634Z</time></trkpt><trkpt lat="41.0587383" lon="16.6656483"><ele>177.0</ele><time>2026-04-19T06:50:20.634Z</time></trkpt><trkpt lat="41.0586533" lon="16.66557"><ele>177.0</ele><time>2026-04-19T06:50:21.634Z</time></trkpt><trkpt lat="41.0585683" lon="16.66549"><ele>177.0</ele><time>2026-04-19T06:50:22.634Z</time></trkpt><trkpt lat="41.0584867" lon="16.665405"><ele>177.0</ele><time>2026-04-19T06:50:23.634Z</time></trkpt><trkpt lat="41.0584083" lon="16.6653067"><ele>177.0</ele><time>2026-04-19T06:50:24.634Z</time></trkpt><trkpt lat="41.0583417" lon="16.6651967"><ele>177.0</ele><time>2026-04-19T06:50:25.634Z</time></trkpt><trkpt lat="41.05827" lon="16.6650883"><ele>177.25</ele><time>2026-04-19T06:50:26.636Z</time></trkpt><trkpt lat="41.0581917" lon="16.66499"><ele>177.5</ele><time>2026-04-19T06:50:27.633Z</time></trkpt><trkpt lat="41.058105" lon="16.6648983"><ele>177.75</ele><time>2026-04-19T06:50:28.633Z</time></trkpt><trkpt lat="41.0580117" lon="16.6648067"><ele>178.0</ele><time>2026-04-19T06:50:29.634Z</time></trkpt><trkpt lat="41.057915" lon="16.6647067"><ele>178.0</ele><time>2026-04-19T06:50:30.633Z</time></trkpt><trkpt lat="41.0578167" lon="16.6646067"><ele>178.0</ele><time>2026-04-19T06:50:31.635Z</time></trkpt><trkpt lat="41.057725" lon="16.6644983"><ele>178.0</ele><time>2026-04-19T06:50:32.636Z</time></trkpt><trkpt lat="41.0576367" lon="16.6644017"><ele>178.0</ele><time>2026-04-19T06:50:33.633Z</time></trkpt><trkpt lat="41.0575583" lon="16.6643133"><ele>178.0</ele><time>2026-04-19T06:50:34.634Z</time></trkpt><trkpt lat="41.057485" lon="16.6642333"><ele>178.0</ele><time>2026-04-19T06:50:35.633Z</time></trkpt><trkpt lat="41.0574167" lon="16.6641583"><ele>178.0</ele><time>2026-04-19T06:50:36.633Z</time></trkpt><trkpt lat="41.0573333" lon="16.6640767"><ele>178.0</ele><time>2026-04-19T06:50:37.634Z</time></trkpt><trkpt lat="41.0572317" lon="16.663995"><ele>178.0</ele><time>2026-04-19T06:50:38.634Z</time></trkpt><trkpt lat="41.0571183" lon="16.6639167"><ele>177.60000000000002</ele><time>2026-04-19T06:50:39.634Z</time></trkpt><trkpt lat="41.05701" lon="16.6638417"><ele>177.20000000000002</ele><time>2026-04-19T06:50:40.634Z</time></trkpt><trkpt lat="41.0569083" lon="16.6637767"><ele>176.8</ele><time>2026-04-19T06:50:41.634Z</time></trkpt><trkpt lat="41.05681" lon="16.6637117"><ele>176.4</ele><time>2026-04-19T06:50:42.634Z</time></trkpt><trkpt lat="41.0567167" lon="16.66365"><ele>176.0</ele><time>2026-04-19T06:50:43.635Z</time></trkpt><trkpt lat="41.0566467" lon="16.6636"><ele>175.5</ele><time>2026-04-19T06:50:44.636Z</time></trkpt><trkpt lat="41.0565783" lon="16.6635583"><ele>175.0</ele><time>2026-04-19T06:50:45.633Z</time></trkpt><trkpt lat="41.0565083" lon="16.663515"><ele>174.5</ele><time>2026-04-19T06:50:46.635Z</time></trkpt><trkpt lat="41.0564367" lon="16.66346"><ele>174.0</ele><time>2026-04-19T06:50:47.633Z</time></trkpt><trkpt lat="41.056375" lon="16.6633933"><ele>173.5</ele><time>2026-04-19T06:50:48.634Z</time></trkpt><trkpt lat="41.056315" lon="16.6633267"><ele>173.0</ele><time>2026-04-19T06:50:49.634Z</time></trkpt><trkpt lat="41.0562417" lon="16.663255"><ele>173.0</ele><time>2026-04-19T06:50:50.634Z</time></trkpt><trkpt lat="41.0561567" lon="16.663175"><ele>173.0</ele><time>2026-04-19T06:50:51.634Z</time></trkpt><trkpt lat="41.0560633" lon="16.66308"><ele>173.0</ele><time>2026-04-19T06:50:52.634Z</time></trkpt><trkpt lat="41.0559617" lon="16.662975"><ele>173.0</ele><time>2026-04-19T06:50:53.634Z</time></trkpt><trkpt lat="41.055845" lon="16.6628533"><ele>172.66666666666666</ele><time>2026-04-19T06:50:54.634Z</time></trkpt><trkpt lat="41.0557183" lon="16.6627283"><ele>172.33333333333334</ele><time>2026-04-19T06:50:55.635Z</time></trkpt><trkpt lat="41.0555917" lon="16.6625967"><ele>172.0</ele><time>2026-04-19T06:50:56.634Z</time></trkpt><trkpt lat="41.0554633" lon="16.6624633"><ele>172.0</ele><time>2026-04-19T06:50:57.633Z</time></trkpt><trkpt lat="41.05533" lon="16.66232"><ele>172.0</ele><time>2026-04-19T06:50:58.634Z</time></trkpt><trkpt lat="41.0551917" lon="16.6621717"><ele>172.0</ele><time>2026-04-19T06:50:59.634Z</time></trkpt><trkpt lat="41.0550433" lon="16.662015"><ele>171.66666666666669</ele><time>2026-04-19T06:51:00.633Z</time></trkpt><trkpt lat="41.0549017" lon="16.6618617"><ele>171.33333333333334</ele><time>2026-04-19T06:51:01.634Z</time></trkpt><trkpt lat="41.054765" lon="16.66171"><ele>171.0</ele><time>2026-04-19T06:51:02.634Z</time></trkpt><trkpt lat="41.05463" lon="16.6615533"><ele>171.0</ele><time>2026-04-19T06:51:03.635Z</time></trkpt><trkpt lat="41.0544933" lon="16.6613983"><ele>171.0</ele><time>2026-04-19T06:51:04.634Z</time></trkpt><trkpt lat="41.054355" lon="16.6612417"><ele>171.0</ele><time>2026-04-19T06:51:05.634Z</time></trkpt><trkpt lat="41.0542183" lon="16.6610833"><ele>170.66666666666666</ele><time>2026-04-19T06:51:06.633Z</time></trkpt><trkpt lat="41.0540783" lon="16.66093"><ele>170.33333333333331</ele><time>2026-04-19T06:51:07.634Z</time></trkpt><trkpt lat="41.0539367" lon="16.660775"><ele>170.0</ele><time>2026-04-19T06:51:08.634Z</time></trkpt><trkpt lat="41.0537967" lon="16.66062"><ele>170.0</ele><time>2026-04-19T06:51:09.634Z</time></trkpt><trkpt lat="41.0536617" lon="16.66047"><ele>170.0</ele><time>2026-04-19T06:51:10.634Z</time></trkpt><trkpt lat="41.0535333" lon="16.6603317"><ele>170.0</ele><time>2026-04-19T06:51:11.634Z</time></trkpt><trkpt lat="41.053415" lon="16.6602017"><ele>170.66666666666666</ele><time>2026-04-19T06:51:12.634Z</time></trkpt><trkpt lat="41.0532983" lon="16.6600767"><ele>171.33333333333334</ele><time>2026-04-19T06:51:13.634Z</time></trkpt><trkpt lat="41.0531783" lon="16.6599483"><ele>172.0</ele><time>2026-04-19T06:51:14.635Z</time></trkpt><trkpt lat="41.053055" lon="16.6598167"><ele>172.33333333333334</ele><time>2026-04-19T06:51:15.635Z</time></trkpt><trkpt lat="41.05293" lon="16.659675"><ele>172.66666666666666</ele><time>2026-04-19T06:51:16.636Z</time></trkpt><trkpt lat="41.0528083" lon="16.6595167"><ele>173.0</ele><time>2026-04-19T06:51:17.634Z</time></trkpt><trkpt lat="41.052685" lon="16.659345"><ele>173.0</ele><time>2026-04-19T06:51:18.633Z</time></trkpt><trkpt lat="41.0525617" lon="16.6591667"><ele>173.0</ele><time>2026-04-19T06:51:19.634Z</time></trkpt><trkpt lat="41.0524383" lon="16.6589867"><ele>173.0</ele><time>2026-04-19T06:51:20.635Z</time></trkpt><trkpt lat="41.05232" lon="16.6588117"><ele>174.33333333333331</ele><time>2026-04-19T06:51:21.636Z</time></trkpt><trkpt lat="41.05221" lon="16.6586483"><ele>175.66666666666666</ele><time>2026-04-19T06:51:22.636Z</time></trkpt><trkpt lat="41.0521017" lon="16.6584867"><ele>177.0</ele><time>2026-04-19T06:51:23.635Z</time></trkpt><trkpt lat="41.0519917" lon="16.6583217"><ele>177.0</ele><time>2026-04-19T06:51:24.635Z</time></trkpt><trkpt lat="41.0518817" lon="16.6581583"><ele>177.0</ele><time>2026-04-19T06:51:25.635Z</time></trkpt><trkpt lat="41.05177" lon="16.6579967"><ele>177.0</ele><time>2026-04-19T06:51:26.636Z</time></trkpt><trkpt lat="41.05166" lon="16.6578333"><ele>177.0</ele><time>2026-04-19T06:51:27.635Z</time></trkpt><trkpt lat="41.05155" lon="16.6576667"><ele>177.0</ele><time>2026-04-19T06:51:28.636Z</time></trkpt><trkpt lat="41.0514383" lon="16.6574933"><ele>177.0</ele><time>2026-04-19T06:51:29.634Z</time></trkpt><trkpt lat="41.0513233" lon="16.65732"><ele>177.0</ele><time>2026-04-19T06:51:30.634Z</time></trkpt><trkpt lat="41.0512033" lon="16.6571483"><ele>177.0</ele><time>2026-04-19T06:51:31.633Z</time></trkpt><trkpt lat="41.0510783" lon="16.6569767"><ele>177.0</ele><time>2026-04-19T06:51:32.634Z</time></trkpt><trkpt lat="41.0509517" lon="16.6568017"><ele>177.33333333333334</ele><time>2026-04-19T06:51:33.633Z</time></trkpt><trkpt lat="41.050825" lon="16.656625"><ele>177.66666666666669</ele><time>2026-04-19T06:51:34.635Z</time></trkpt><trkpt lat="41.05069" lon="16.65645"><ele>178.0</ele><time>2026-04-19T06:51:35.634Z</time></trkpt><trkpt lat="41.05055" lon="16.6562767"><ele>179.66666666666669</ele><time>2026-04-19T06:51:36.633Z</time></trkpt><trkpt lat="41.0504067" lon="16.6561017"><ele>181.33333333333334</ele><time>2026-04-19T06:51:37.634Z</time></trkpt><trkpt lat="41.0502583" lon="16.655915"><ele>183.0</ele><time>2026-04-19T06:51:38.635Z</time></trkpt><trkpt lat="41.05011" lon="16.6557217"><ele>184.0</ele><time>2026-04-19T06:51:39.634Z</time></trkpt><trkpt lat="41.0499567" lon="16.6555283"><ele>185.0</ele><time>2026-04-19T06:51:40.634Z</time></trkpt><trkpt lat="41.0497983" lon="16.6553333"><ele>186.0</ele><time>2026-04-19T06:51:41.634Z</time></trkpt><trkpt lat="41.0496383" lon="16.6551417"><ele>186.33333333333334</ele><time>2026-04-19T06:51:42.633Z</time></trkpt><trkpt lat="41.0494717" lon="16.6549567"><ele>186.66666666666669</ele><time>2026-04-19T06:51:43.634Z</time></trkpt><trkpt lat="41.0492967" lon="16.6547767"><ele>187.0</ele><time>2026-04-19T06:51:44.635Z</time></trkpt><trkpt lat="41.049115" lon="16.6546017"><ele>188.0</ele><time>2026-04-19T06:51:45.634Z</time></trkpt><trkpt lat="41.0489283" lon="16.65443"><ele>189.0</ele><time>2026-04-19T06:51:46.634Z</time></trkpt><trkpt lat="41.0487383" lon="16.6542583"><ele>189.0</ele><time>2026-04-19T06:51:47.634Z</time></trkpt><trkpt lat="41.0485467" lon="16.6540817"><ele>189.0</ele><time>2026-04-19T06:51:48.633Z</time></trkpt><trkpt lat="41.0483533" lon="16.6539067"><ele>189.0</ele><time>2026-04-19T06:51:49.634Z</time></trkpt><trkpt lat="41.048155" lon="16.65373"><ele>189.0</ele><time>2026-04-19T06:51:50.635Z</time></trkpt><trkpt lat="41.0479517" lon="16.6535483"><ele>189.0</ele><time>2026-04-19T06:51:51.634Z</time></trkpt><trkpt lat="41.0477467" lon="16.6533617"><ele>189.0</ele><time>2026-04-19T06:51:52.635Z</time></trkpt><trkpt lat="41.04754" lon="16.6531733"><ele>189.0</ele><time>2026-04-19T06:51:53.635Z</time></trkpt><trkpt lat="41.047345" lon="16.6529917"><ele>189.0</ele><time>2026-04-19T06:51:54.635Z</time></trkpt><trkpt lat="41.0471583" lon="16.6528217"><ele>189.33333333333334</ele><time>2026-04-19T06:51:55.635Z</time></trkpt><trkpt lat="41.0469767" lon="16.6526583"><ele>189.66666666666669</ele><time>2026-04-19T06:51:56.635Z</time></trkpt><trkpt lat="41.0468" lon="16.6524967"><ele>190.0</ele><time>2026-04-19T06:51:57.635Z</time></trkpt><trkpt lat="41.0466283" lon="16.6523367"><ele>190.33333333333334</ele><time>2026-04-19T06:51:58.636Z</time></trkpt><trkpt lat="41.0464583" lon="16.6521767"><ele>190.66666666666666</ele><time>2026-04-19T06:51:59.636Z</time></trkpt><trkpt lat="41.0462867" lon="16.65202"><ele>191.0</ele><time>2026-04-19T06:52:00.636Z</time></trkpt><trkpt lat="41.0461133" lon="16.65186"><ele>191.33333333333331</ele><time>2026-04-19T06:52:01.635Z</time></trkpt><trkpt lat="41.04594" lon="16.6517"><ele>191.66666666666666</ele><time>2026-04-19T06:52:02.636Z</time></trkpt><trkpt lat="41.0457633" lon="16.6515417"><ele>192.0</ele><time>2026-04-19T06:52:03.635Z</time></trkpt><trkpt lat="41.0455833" lon="16.6513833"><ele>192.33333333333331</ele><time>2026-04-19T06:52:04.636Z</time></trkpt><trkpt lat="41.0454" lon="16.6512217"><ele>192.66666666666666</ele><time>2026-04-19T06:52:05.635Z</time></trkpt><trkpt lat="41.0452117" lon="16.6510567"><ele>193.0</ele><time>2026-04-19T06:52:06.635Z</time></trkpt><trkpt lat="41.0450233" lon="16.6508967"><ele>195.0</ele><time>2026-04-19T06:52:07.635Z</time></trkpt><trkpt lat="41.04483" lon="16.6507367"><ele>197.0</ele><time>2026-04-19T06:52:08.636Z</time></trkpt><trkpt lat="41.044635" lon="16.65057"><ele>197.0</ele><time>2026-04-19T06:52:09.635Z</time></trkpt><trkpt lat="41.04444" lon="16.650395"><ele>197.0</ele><time>2026-04-19T06:52:10.636Z</time></trkpt><trkpt lat="41.0442417" lon="16.6502167"><ele>197.66666666666669</ele><time>2026-04-19T06:52:11.635Z</time></trkpt><trkpt lat="41.0440517" lon="16.6500483"><ele>198.33333333333331</ele><time>2026-04-19T06:52:12.635Z</time></trkpt><trkpt lat="41.0438733" lon="16.6498917"><ele>199.0</ele><time>2026-04-19T06:52:13.636Z</time></trkpt><trkpt lat="41.043705" lon="16.6497417"><ele>199.0</ele><time>2026-04-19T06:52:14.637Z</time></trkpt><trkpt lat="41.043535" lon="16.6495933"><ele>199.0</ele><time>2026-04-19T06:52:15.634Z</time></trkpt><trkpt lat="41.0433633" lon="16.6494417"><ele>199.0</ele><time>2026-04-19T06:52:16.634Z</time></trkpt><trkpt lat="41.0431867" lon="16.6492883"><ele>200.33333333333331</ele><time>2026-04-19T06:52:17.634Z</time></trkpt><trkpt lat="41.043005" lon="16.64913"><ele>201.66666666666669</ele><time>2026-04-19T06:52:18.633Z</time></trkpt><trkpt lat="41.0428217" lon="16.6489683"><ele>203.0</ele><time>2026-04-19T06:52:19.634Z</time></trkpt><trkpt lat="41.042635" lon="16.6488033"><ele>203.5</ele><time>2026-04-19T06:52:20.635Z</time></trkpt><trkpt lat="41.042445" lon="16.6486383"><ele>204.0</ele><time>2026-04-19T06:52:21.634Z</time></trkpt><trkpt lat="41.042255" lon="16.648475"><ele>205.0</ele><time>2026-04-19T06:52:22.635Z</time></trkpt><trkpt lat="41.042065" lon="16.6483117"><ele>206.0</ele><time>2026-04-19T06:52:23.635Z</time></trkpt><trkpt lat="41.041875" lon="16.64815"><ele>206.0</ele><time>2026-04-19T06:52:24.635Z</time></trkpt><trkpt lat="41.0416883" lon="16.647985"><ele>206.0</ele><time>2026-04-19T06:52:25.635Z</time></trkpt><trkpt lat="41.0414983" lon="16.6478117"><ele>207.33333333333334</ele><time>2026-04-19T06:52:26.636Z</time></trkpt><trkpt lat="41.041315" lon="16.6476483"><ele>208.66666666666669</ele><time>2026-04-19T06:52:27.634Z</time></trkpt><trkpt lat="41.04114" lon="16.647495"><ele>210.0</ele><time>2026-04-19T06:52:28.636Z</time></trkpt><trkpt lat="41.04098" lon="16.6473533"><ele>210.0</ele><time>2026-04-19T06:52:29.639Z</time></trkpt><trkpt lat="41.0408283" lon="16.64722"><ele>210.0</ele><time>2026-04-19T06:52:30.634Z</time></trkpt><trkpt lat="41.04068" lon="16.647085"><ele>210.0</ele><time>2026-04-19T06:52:31.634Z</time></trkpt><trkpt lat="41.04054" lon="16.6469483"><ele>210.33333333333331</ele><time>2026-04-19T06:52:32.635Z</time></trkpt><trkpt lat="41.0404133" lon="16.64681"><ele>210.66666666666666</ele><time>2026-04-19T06:52:33.633Z</time></trkpt><trkpt lat="41.0402933" lon="16.6466567"><ele>211.0</ele><time>2026-04-19T06:52:34.638Z</time></trkpt><trkpt lat="41.0401917" lon="16.6465017"><ele>211.0</ele><time>2026-04-19T06:52:35.635Z</time></trkpt><trkpt lat="41.0400983" lon="16.6463517"><ele>211.0</ele><time>2026-04-19T06:52:36.634Z</time></trkpt><trkpt lat="41.04001" lon="16.6462033"><ele>211.0</ele><time>2026-04-19T06:52:37.634Z</time></trkpt><trkpt lat="41.039945" lon="16.6460733"><ele>211.0</ele><time>2026-04-19T06:52:38.634Z</time></trkpt><trkpt lat="41.0398933" lon="16.645965"><ele>211.20000000000002</ele><time>2026-04-19T06:52:39.639Z</time></trkpt><trkpt lat="41.0398517" lon="16.6458817"><ele>211.4</ele><time>2026-04-19T06:52:40.634Z</time></trkpt><trkpt lat="41.039775" lon="16.64577"><ele>211.6</ele><time>2026-04-19T06:52:42.633Z</time></trkpt><trkpt lat="41.03967" lon="16.6457383"><ele>211.8</ele><time>2026-04-19T06:52:44.634Z</time></trkpt><trkpt lat="41.039565" lon="16.645785"><ele>212.0</ele><time>2026-04-19T06:52:46.633Z</time></trkpt><trkpt lat="41.0395117" lon="16.645845"><ele>212.0</ele><time>2026-04-19T06:52:47.635Z</time></trkpt><trkpt lat="41.0394633" lon="16.6459133"><ele>212.0</ele><time>2026-04-19T06:52:48.635Z</time></trkpt><trkpt lat="41.0393783" lon="16.6459917"><ele>212.0</ele><time>2026-04-19T06:52:50.635Z</time></trkpt><trkpt lat="41.03928" lon="16.6459867"><ele>212.0</ele><time>2026-04-19T06:52:52.635Z</time></trkpt><trkpt lat="41.0391583" lon="16.6459433"><ele>212.0</ele><time>2026-04-19T06:52:54.635Z</time></trkpt><trkpt lat="41.039085" lon="16.645905"><ele>212.0</ele><time>2026-04-19T06:52:55.636Z</time></trkpt><trkpt lat="41.0390067" lon="16.645865"><ele>212.0</ele><time>2026-04-19T06:52:56.636Z</time></trkpt><trkpt lat="41.0389233" lon="16.6458233"><ele>212.0</ele><time>2026-04-19T06:52:57.635Z</time></trkpt><trkpt lat="41.0388333" lon="16.6457783"><ele>212.0</ele><time>2026-04-19T06:52:58.636Z</time></trkpt><trkpt lat="41.0387317" lon="16.6457333"><ele>212.0</ele><time>2026-04-19T06:52:59.636Z</time></trkpt><trkpt lat="41.0386217" lon="16.6456817"><ele>212.0</ele><time>2026-04-19T06:53:00.635Z</time></trkpt><trkpt lat="41.0385117" lon="16.6456217"><ele>212.0</ele><time>2026-04-19T06:53:01.636Z</time></trkpt><trkpt lat="41.0383967" lon="16.645565"><ele>212.0</ele><time>2026-04-19T06:53:02.636Z</time></trkpt><trkpt lat="41.0382767" lon="16.6455133"><ele>212.0</ele><time>2026-04-19T06:53:03.634Z</time></trkpt><trkpt lat="41.0381617" lon="16.64546"><ele>212.25</ele><time>2026-04-19T06:53:04.633Z</time></trkpt><trkpt lat="41.03805" lon="16.645405"><ele>212.5</ele><time>2026-04-19T06:53:05.634Z</time></trkpt><trkpt lat="41.0379367" lon="16.645345"><ele>212.75</ele><time>2026-04-19T06:53:06.635Z</time></trkpt><trkpt lat="41.03782" lon="16.6452883"><ele>213.0</ele><time>2026-04-19T06:53:07.633Z</time></trkpt><trkpt lat="41.0376967" lon="16.64523"><ele>213.25</ele><time>2026-04-19T06:53:08.638Z</time></trkpt><trkpt lat="41.03757" lon="16.64517"><ele>213.5</ele><time>2026-04-19T06:53:09.634Z</time></trkpt><trkpt lat="41.03744" lon="16.64511"><ele>213.75</ele><time>2026-04-19T06:53:10.633Z</time></trkpt><trkpt lat="41.0373117" lon="16.6450483"><ele>214.0</ele><time>2026-04-19T06:53:11.634Z</time></trkpt><trkpt lat="41.03718" lon="16.6449883"><ele>214.0</ele><time>2026-04-19T06:53:12.634Z</time></trkpt><trkpt lat="41.0370467" lon="16.644925"><ele>214.0</ele><time>2026-04-19T06:53:13.633Z</time></trkpt><trkpt lat="41.036915" lon="16.6448583"><ele>214.0</ele><time>2026-04-19T06:53:14.634Z</time></trkpt><trkpt lat="41.0367867" lon="16.6447967"><ele>214.0</ele><time>2026-04-19T06:53:15.635Z</time></trkpt><trkpt lat="41.036665" lon="16.644735"><ele>214.5</ele><time>2026-04-19T06:53:16.635Z</time></trkpt><trkpt lat="41.036545" lon="16.6446683"><ele>215.0</ele><time>2026-04-19T06:53:17.634Z</time></trkpt><trkpt lat="41.0364217" lon="16.644595"><ele>215.5</ele><time>2026-04-19T06:53:18.633Z</time></trkpt><trkpt lat="41.0363017" lon="16.64453"><ele>216.0</ele><time>2026-04-19T06:53:19.634Z</time></trkpt><trkpt lat="41.0361917" lon="16.64447"><ele>216.0</ele><time>2026-04-19T06:53:20.635Z</time></trkpt><trkpt lat="41.0360883" lon="16.64441"><ele>216.00000000000003</ele><time>2026-04-19T06:53:21.634Z</time></trkpt><trkpt lat="41.0359883" lon="16.6443567"><ele>216.00000000000003</ele><time>2026-04-19T06:53:22.634Z</time></trkpt><trkpt lat="41.0358817" lon="16.6443167"><ele>216.0</ele><time>2026-04-19T06:53:23.635Z</time></trkpt><trkpt lat="41.0357667" lon="16.6442933"><ele>216.0</ele><time>2026-04-19T06:53:24.634Z</time></trkpt><trkpt lat="41.0356433" lon="16.6442717"><ele>216.25</ele><time>2026-04-19T06:53:25.634Z</time></trkpt><trkpt lat="41.0355133" lon="16.6442517"><ele>216.5</ele><time>2026-04-19T06:53:26.633Z</time></trkpt><trkpt lat="41.0353733" lon="16.64424"><ele>216.75</ele><time>2026-04-19T06:53:27.634Z</time></trkpt><trkpt lat="41.035235" lon="16.6442367"><ele>217.0</ele><time>2026-04-19T06:53:28.633Z</time></trkpt><trkpt lat="41.0351117" lon="16.6442333"><ele>217.0</ele><time>2026-04-19T06:53:29.634Z</time></trkpt><trkpt lat="41.0349967" lon="16.6442267"><ele>217.0</ele><time>2026-04-19T06:53:30.634Z</time></trkpt><trkpt lat="41.0348833" lon="16.64422"><ele>217.0</ele><time>2026-04-19T06:53:31.633Z</time></trkpt><trkpt lat="41.03476" lon="16.644215"><ele>217.0</ele><time>2026-04-19T06:53:32.634Z</time></trkpt><trkpt lat="41.0346317" lon="16.6442133"><ele>217.25</ele><time>2026-04-19T06:53:33.633Z</time></trkpt><trkpt lat="41.0344967" lon="16.6442117"><ele>217.5</ele><time>2026-04-19T06:53:34.634Z</time></trkpt><trkpt lat="41.0343567" lon="16.64421"><ele>217.75</ele><time>2026-04-19T06:53:35.635Z</time></trkpt><trkpt lat="41.03421" lon="16.6442117"><ele>218.0</ele><time>2026-04-19T06:53:36.634Z</time></trkpt><trkpt lat="41.034055" lon="16.6442083"><ele>218.0</ele><time>2026-04-19T06:53:37.634Z</time></trkpt><trkpt lat="41.0338933" lon="16.6442067"><ele>218.0</ele><time>2026-04-19T06:53:38.635Z</time></trkpt><trkpt lat="41.03372" lon="16.6442033"><ele>218.0</ele><time>2026-04-19T06:53:39.633Z</time></trkpt><trkpt lat="41.03355" lon="16.6441983"><ele>218.0</ele><time>2026-04-19T06:53:40.633Z</time></trkpt><trkpt lat="41.033395" lon="16.6441933"><ele>218.0</ele><time>2026-04-19T06:53:41.634Z</time></trkpt><trkpt lat="41.0332533" lon="16.6441867"><ele>218.0</ele><time>2026-04-19T06:53:42.638Z</time></trkpt><trkpt lat="41.0331183" lon="16.644175"><ele>218.0</ele><time>2026-04-19T06:53:43.633Z</time></trkpt><trkpt lat="41.032995" lon="16.64417"><ele>218.5</ele><time>2026-04-19T06:53:44.634Z</time></trkpt><trkpt lat="41.0328733" lon="16.6441567"><ele>219.0</ele><time>2026-04-19T06:53:45.633Z</time></trkpt><trkpt lat="41.0327467" lon="16.6441367"><ele>219.5</ele><time>2026-04-19T06:53:46.634Z</time></trkpt><trkpt lat="41.0326183" lon="16.6441033"><ele>220.0</ele><time>2026-04-19T06:53:47.635Z</time></trkpt><trkpt lat="41.0324833" lon="16.6440617"><ele>220.25</ele><time>2026-04-19T06:53:48.634Z</time></trkpt><trkpt lat="41.0323467" lon="16.6440117"><ele>220.5</ele><time>2026-04-19T06:53:49.634Z</time></trkpt><trkpt lat="41.0322067" lon="16.6439583"><ele>220.75</ele><time>2026-04-19T06:53:50.635Z</time></trkpt><trkpt lat="41.0320633" lon="16.6439"><ele>221.0</ele><time>2026-04-19T06:53:51.634Z</time></trkpt><trkpt lat="41.03192" lon="16.643845"><ele>221.0</ele><time>2026-04-19T06:53:52.634Z</time></trkpt><trkpt lat="41.0317867" lon="16.6437983"><ele>221.0</ele><time>2026-04-19T06:53:53.635Z</time></trkpt><trkpt lat="41.0316633" lon="16.6437567"><ele>221.0</ele><time>2026-04-19T06:53:54.634Z</time></trkpt><trkpt lat="41.0315467" lon="16.6437133"><ele>221.0</ele><time>2026-04-19T06:53:55.634Z</time></trkpt><trkpt lat="41.0314517" lon="16.643665"><ele>221.4</ele><time>2026-04-19T06:53:56.635Z</time></trkpt><trkpt lat="41.03137" lon="16.6436133"><ele>221.8</ele><time>2026-04-19T06:53:57.633Z</time></trkpt><trkpt lat="41.0312917" lon="16.6435433"><ele>222.20000000000002</ele><time>2026-04-19T06:53:58.634Z</time></trkpt><trkpt lat="41.031215" lon="16.6434533"><ele>222.60000000000002</ele><time>2026-04-19T06:53:59.633Z</time></trkpt><trkpt lat="41.0311383" lon="16.6433483"><ele>223.0</ele><time>2026-04-19T06:54:00.634Z</time></trkpt><trkpt lat="41.031055" lon="16.64323"><ele>223.0</ele><time>2026-04-19T06:54:01.633Z</time></trkpt><trkpt lat="41.0309717" lon="16.6431067"><ele>223.0</ele><time>2026-04-19T06:54:02.636Z</time></trkpt><trkpt lat="41.0308967" lon="16.6429917"><ele>223.0</ele><time>2026-04-19T06:54:03.633Z</time></trkpt><trkpt lat="41.0308217" lon="16.6428767"><ele>223.0</ele><time>2026-04-19T06:54:04.635Z</time></trkpt><trkpt lat="41.0307433" lon="16.6427583"><ele>223.25</ele><time>2026-04-19T06:54:05.633Z</time></trkpt><trkpt lat="41.0306567" lon="16.6426317"><ele>223.5</ele><time>2026-04-19T06:54:06.634Z</time></trkpt><trkpt lat="41.0305667" lon="16.6424983"><ele>223.75</ele><time>2026-04-19T06:54:07.635Z</time></trkpt><trkpt lat="41.030475" lon="16.6423717"><ele>224.0</ele><time>2026-04-19T06:54:08.634Z</time></trkpt><trkpt lat="41.030385" lon="16.6422667"><ele>224.0</ele><time>2026-04-19T06:54:09.633Z</time></trkpt><trkpt lat="41.0302883" lon="16.6421667"><ele>223.99999999999997</ele><time>2026-04-19T06:54:10.634Z</time></trkpt><trkpt lat="41.030195" lon="16.6420767"><ele>223.99999999999997</ele><time>2026-04-19T06:54:11.644Z</time></trkpt><trkpt lat="41.0301117" lon="16.6420017"><ele>224.0</ele><time>2026-04-19T06:54:12.634Z</time></trkpt><trkpt lat="41.030035" lon="16.641935"><ele>224.0</ele><time>2026-04-19T06:54:13.635Z</time></trkpt><trkpt lat="41.0299783" lon="16.6418867"><ele>224.2</ele><time>2026-04-19T06:54:14.634Z</time></trkpt><trkpt lat="41.0299233" lon="16.6418317"><ele>224.39999999999998</ele><time>2026-04-19T06:54:15.633Z</time></trkpt><trkpt lat="41.0298467" lon="16.6417683"><ele>224.6</ele><time>2026-04-19T06:54:16.634Z</time></trkpt><trkpt lat="41.0297483" lon="16.641695"><ele>224.8</ele><time>2026-04-19T06:54:17.633Z</time></trkpt><trkpt lat="41.029635" lon="16.6416"><ele>225.0</ele><time>2026-04-19T06:54:18.634Z</time></trkpt><trkpt lat="41.0295083" lon="16.6414933"><ele>225.0</ele><time>2026-04-19T06:54:19.634Z</time></trkpt><trkpt lat="41.029385" lon="16.64139"><ele>225.0</ele><time>2026-04-19T06:54:20.634Z</time></trkpt><trkpt lat="41.02927" lon="16.64129"><ele>225.0</ele><time>2026-04-19T06:54:21.634Z</time></trkpt><trkpt lat="41.0291667" lon="16.6411967"><ele>225.0</ele><time>2026-04-19T06:54:22.634Z</time></trkpt><trkpt lat="41.0290883" lon="16.6411233"><ele>225.33333333333334</ele><time>2026-04-19T06:54:23.633Z</time></trkpt><trkpt lat="41.0290317" lon="16.6410717"><ele>225.66666666666669</ele><time>2026-04-19T06:54:24.634Z</time></trkpt><trkpt lat="41.0289433" lon="16.640985"><ele>226.0</ele><time>2026-04-19T06:54:26.635Z</time></trkpt><trkpt lat="41.0288617" lon="16.640905"><ele>226.33333333333334</ele><time>2026-04-19T06:54:28.634Z</time></trkpt><trkpt lat="41.0288067" lon="16.6408583"><ele>226.66666666666669</ele><time>2026-04-19T06:54:29.635Z</time></trkpt><trkpt lat="41.02874" lon="16.6407983"><ele>227.0</ele><time>2026-04-19T06:54:30.635Z</time></trkpt><trkpt lat="41.028665" lon="16.6407367"><ele>227.0</ele><time>2026-04-19T06:54:31.634Z</time></trkpt><trkpt lat="41.028585" lon="16.6406633"><ele>227.0</ele><time>2026-04-19T06:54:32.636Z</time></trkpt><trkpt lat="41.028495" lon="16.640595"><ele>227.0</ele><time>2026-04-19T06:54:33.634Z</time></trkpt><trkpt lat="41.028395" lon="16.6405267"><ele>227.0</ele><time>2026-04-19T06:54:34.634Z</time></trkpt><trkpt lat="41.0282933" lon="16.640455"><ele>227.0</ele><time>2026-04-19T06:54:35.633Z</time></trkpt><trkpt lat="41.0282017" lon="16.640395"><ele>227.2</ele><time>2026-04-19T06:54:36.634Z</time></trkpt><trkpt lat="41.0281117" lon="16.6403317"><ele>227.39999999999998</ele><time>2026-04-19T06:54:37.634Z</time></trkpt><trkpt lat="41.0280217" lon="16.6402733"><ele>227.60000000000002</ele><time>2026-04-19T06:54:38.634Z</time></trkpt><trkpt lat="41.0279183" lon="16.6402283"><ele>227.8</ele><time>2026-04-19T06:54:39.633Z</time></trkpt><trkpt lat="41.0278" lon="16.6401933"><ele>228.0</ele><time>2026-04-19T06:54:40.634Z</time></trkpt><trkpt lat="41.0276783" lon="16.64017"><ele>228.0</ele><time>2026-04-19T06:54:41.634Z</time></trkpt><trkpt lat="41.0275783" lon="16.6401467"><ele>228.0</ele><time>2026-04-19T06:54:42.635Z</time></trkpt><trkpt lat="41.0274967" lon="16.6401233"><ele>228.0</ele><time>2026-04-19T06:54:43.633Z</time></trkpt><trkpt lat="41.027415" lon="16.640105"><ele>228.0</ele><time>2026-04-19T06:54:44.635Z</time></trkpt><trkpt lat="41.0273367" lon="16.6400883"><ele>228.0</ele><time>2026-04-19T06:54:45.634Z</time></trkpt><trkpt lat="41.0272567" lon="16.64007"><ele>228.0</ele><time>2026-04-19T06:54:46.634Z</time></trkpt><trkpt lat="41.0271683" lon="16.640055"><ele>228.25</ele><time>2026-04-19T06:54:47.634Z</time></trkpt><trkpt lat="41.0270717" lon="16.6400433"><ele>228.5</ele><time>2026-04-19T06:54:48.633Z</time></trkpt><trkpt lat="41.026965" lon="16.6400233"><ele>228.75</ele><time>2026-04-19T06:54:49.633Z</time></trkpt><trkpt lat="41.0268483" lon="16.639995"><ele>229.0</ele><time>2026-04-19T06:54:50.634Z</time></trkpt><trkpt lat="41.0267233" lon="16.639965"><ele>229.0</ele><time>2026-04-19T06:54:51.634Z</time></trkpt><trkpt lat="41.0265883" lon="16.639925"><ele>229.0</ele><time>2026-04-19T06:54:52.633Z</time></trkpt><trkpt lat="41.0264467" lon="16.639885"><ele>229.0</ele><time>2026-04-19T06:54:53.633Z</time></trkpt><trkpt lat="41.0263067" lon="16.6398467"><ele>229.0</ele><time>2026-04-19T06:54:54.633Z</time></trkpt><trkpt lat="41.0261783" lon="16.6398083"><ele>229.0</ele><time>2026-04-19T06:54:55.634Z</time></trkpt><trkpt lat="41.0260483" lon="16.6397633"><ele>229.0</ele><time>2026-04-19T06:54:56.634Z</time></trkpt><trkpt lat="41.0259233" lon="16.6397167"><ele>229.0</ele><time>2026-04-19T06:54:57.634Z</time></trkpt><trkpt lat="41.02581" lon="16.6396683"><ele>229.0</ele><time>2026-04-19T06:54:58.633Z</time></trkpt><trkpt lat="41.0257133" lon="16.6396183"><ele>229.16666666666666</ele><time>2026-04-19T06:54:59.633Z</time></trkpt><trkpt lat="41.0256267" lon="16.6395683"><ele>229.33333333333331</ele><time>2026-04-19T06:55:00.633Z</time></trkpt><trkpt lat="41.0255433" lon="16.639525"><ele>229.5</ele><time>2026-04-19T06:55:01.633Z</time></trkpt><trkpt lat="41.0254717" lon="16.6394833"><ele>229.66666666666669</ele><time>2026-04-19T06:55:02.634Z</time></trkpt><trkpt lat="41.0254083" lon="16.639445"><ele>229.83333333333334</ele><time>2026-04-19T06:55:03.633Z</time></trkpt><trkpt lat="41.025335" lon="16.6393983"><ele>230.0</ele><time>2026-04-19T06:55:04.635Z</time></trkpt><trkpt lat="41.0252517" lon="16.6393467"><ele>230.00000000000003</ele><time>2026-04-19T06:55:05.633Z</time></trkpt><trkpt lat="41.0251633" lon="16.6392933"><ele>230.0</ele><time>2026-04-19T06:55:06.635Z</time></trkpt><trkpt lat="41.02507" lon="16.6392417"><ele>230.0</ele><time>2026-04-19T06:55:07.634Z</time></trkpt><trkpt lat="41.024985" lon="16.63921"><ele>230.0</ele><time>2026-04-19T06:55:08.634Z</time></trkpt><trkpt lat="41.0249083" lon="16.6391683"><ele>230.00000000000003</ele><time>2026-04-19T06:55:09.634Z</time></trkpt><trkpt lat="41.02484" lon="16.639125"><ele>230.0</ele><time>2026-04-19T06:55:10.635Z</time></trkpt><trkpt lat="41.02478" lon="16.6390833"><ele>230.2</ele><time>2026-04-19T06:55:11.633Z</time></trkpt><trkpt lat="41.024725" lon="16.6390333"><ele>230.4</ele><time>2026-04-19T06:55:12.634Z</time></trkpt><trkpt lat="41.0246617" lon="16.63896"><ele>230.60000000000002</ele><time>2026-04-19T06:55:13.633Z</time></trkpt><trkpt lat="41.02459" lon="16.63887"><ele>230.8</ele><time>2026-04-19T06:55:14.634Z</time></trkpt><trkpt lat="41.0245017" lon="16.6387617"><ele>231.0</ele><time>2026-04-19T06:55:15.635Z</time></trkpt><trkpt lat="41.0244067" lon="16.6386467"><ele>231.0</ele><time>2026-04-19T06:55:16.633Z</time></trkpt><trkpt lat="41.0243" lon="16.638525"><ele>231.0</ele><time>2026-04-19T06:55:17.633Z</time></trkpt><trkpt lat="41.0241883" lon="16.6383983"><ele>231.0</ele><time>2026-04-19T06:55:18.633Z</time></trkpt><trkpt lat="41.0240617" lon="16.638265"><ele>231.0</ele><time>2026-04-19T06:55:19.634Z</time></trkpt><trkpt lat="41.0239267" lon="16.638125"><ele>231.0</ele><time>2026-04-19T06:55:20.635Z</time></trkpt><trkpt lat="41.0237917" lon="16.6379833"><ele>231.0</ele><time>2026-04-19T06:55:21.635Z</time></trkpt><trkpt lat="41.0236667" lon="16.63785"><ele>231.0</ele><time>2026-04-19T06:55:22.633Z</time></trkpt><trkpt lat="41.02355" lon="16.6377267"><ele>231.5</ele><time>2026-04-19T06:55:23.633Z</time></trkpt><trkpt lat="41.023445" lon="16.6376033"><ele>232.0</ele><time>2026-04-19T06:55:24.634Z</time></trkpt><trkpt lat="41.0233417" lon="16.63747"><ele>232.5</ele><time>2026-04-19T06:55:25.635Z</time></trkpt><trkpt lat="41.0232383" lon="16.6373183"><ele>233.0</ele><time>2026-04-19T06:55:26.634Z</time></trkpt><trkpt lat="41.0231317" lon="16.6371583"><ele>233.0</ele><time>2026-04-19T06:55:27.633Z</time></trkpt><trkpt lat="41.0230217" lon="16.6369867"><ele>233.0</ele><time>2026-04-19T06:55:28.634Z</time></trkpt><trkpt lat="41.02291" lon="16.636815"><ele>233.0</ele><time>2026-04-19T06:55:29.635Z</time></trkpt><trkpt lat="41.0228083" lon="16.6366583"><ele>233.0</ele><time>2026-04-19T06:55:30.634Z</time></trkpt><trkpt lat="41.022715" lon="16.6365117"><ele>233.0</ele><time>2026-04-19T06:55:31.633Z</time></trkpt><trkpt lat="41.0226267" lon="16.636375"><ele>233.0</ele><time>2026-04-19T06:55:32.635Z</time></trkpt><trkpt lat="41.022545" lon="16.6362483"><ele>233.0</ele><time>2026-04-19T06:55:33.637Z</time></trkpt><trkpt lat="41.0224633" lon="16.63613"><ele>233.0</ele><time>2026-04-19T06:55:34.633Z</time></trkpt><trkpt lat="41.0223833" lon="16.6360117"><ele>233.0</ele><time>2026-04-19T06:55:35.634Z</time></trkpt><trkpt lat="41.0223167" lon="16.6359033"><ele>233.0</ele><time>2026-04-19T06:55:36.633Z</time></trkpt><trkpt lat="41.022255" lon="16.6358017"><ele>233.0</ele><time>2026-04-19T06:55:37.634Z</time></trkpt><trkpt lat="41.0222" lon="16.63572"><ele>233.0</ele><time>2026-04-19T06:55:38.634Z</time></trkpt><trkpt lat="41.0221417" lon="16.6356517"><ele>233.0</ele><time>2026-04-19T06:55:39.633Z</time></trkpt><trkpt lat="41.0220717" lon="16.6355983"><ele>233.0</ele><time>2026-04-19T06:55:40.634Z</time></trkpt><trkpt lat="41.0219767" lon="16.635565"><ele>233.0</ele><time>2026-04-19T06:55:41.634Z</time></trkpt><trkpt lat="41.02187" lon="16.635535"><ele>233.0</ele><time>2026-04-19T06:55:42.633Z</time></trkpt><trkpt lat="41.0217533" lon="16.6354967"><ele>233.0</ele><time>2026-04-19T06:55:43.634Z</time></trkpt><trkpt lat="41.0216233" lon="16.6354533"><ele>234.0</ele><time>2026-04-19T06:55:44.634Z</time></trkpt><trkpt lat="41.0214767" lon="16.6354067"><ele>235.0</ele><time>2026-04-19T06:55:45.633Z</time></trkpt><trkpt lat="41.02133" lon="16.6353633"><ele>236.0</ele><time>2026-04-19T06:55:46.634Z</time></trkpt><trkpt lat="41.0211817" lon="16.6353167"><ele>236.0</ele><time>2026-04-19T06:55:47.633Z</time></trkpt><trkpt lat="41.0210317" lon="16.6352683"><ele>236.0</ele><time>2026-04-19T06:55:48.634Z</time></trkpt><trkpt lat="41.02089" lon="16.63522"><ele>236.0</ele><time>2026-04-19T06:55:49.633Z</time></trkpt><trkpt lat="41.020755" lon="16.6351767"><ele>236.0</ele><time>2026-04-19T06:55:50.635Z</time></trkpt><trkpt lat="41.0206183" lon="16.6351367"><ele>236.4</ele><time>2026-04-19T06:55:51.633Z</time></trkpt><trkpt lat="41.020495" lon="16.6351033"><ele>236.8</ele><time>2026-04-19T06:55:52.633Z</time></trkpt><trkpt lat="41.0203967" lon="16.6350767"><ele>237.20000000000002</ele><time>2026-04-19T06:55:53.633Z</time></trkpt><trkpt lat="41.0203117" lon="16.635055"><ele>237.60000000000002</ele><time>2026-04-19T06:55:54.633Z</time></trkpt><trkpt lat="41.0202333" lon="16.6350367"><ele>238.0</ele><time>2026-04-19T06:55:55.634Z</time></trkpt><trkpt lat="41.0201633" lon="16.6350217"><ele>238.0</ele><time>2026-04-19T06:55:56.638Z</time></trkpt><trkpt lat="41.0200833" lon="16.6350067"><ele>238.0</ele><time>2026-04-19T06:55:57.633Z</time></trkpt><trkpt lat="41.0199867" lon="16.63499"><ele>238.0</ele><time>2026-04-19T06:55:58.633Z</time></trkpt><trkpt lat="41.019875" lon="16.6349783"><ele>238.0</ele><time>2026-04-19T06:55:59.633Z</time></trkpt><trkpt lat="41.0197483" lon="16.634965"><ele>238.0</ele><time>2026-04-19T06:56:00.634Z</time></trkpt><trkpt lat="41.019625" lon="16.6349483"><ele>238.4</ele><time>2026-04-19T06:56:01.633Z</time></trkpt><trkpt lat="41.019515" lon="16.6349333"><ele>238.8</ele><time>2026-04-19T06:56:02.634Z</time></trkpt><trkpt lat="41.01941" lon="16.6349233"><ele>239.2</ele><time>2026-04-19T06:56:03.635Z</time></trkpt><trkpt lat="41.0193117" lon="16.634915"><ele>239.6</ele><time>2026-04-19T06:56:04.633Z</time></trkpt><trkpt lat="41.01922" lon="16.6349067"><ele>240.0</ele><time>2026-04-19T06:56:05.633Z</time></trkpt><trkpt lat="41.0191317" lon="16.634895"><ele>240.16666666666666</ele><time>2026-04-19T06:56:06.634Z</time></trkpt><trkpt lat="41.0190467" lon="16.6348817"><ele>240.33333333333331</ele><time>2026-04-19T06:56:07.636Z</time></trkpt><trkpt lat="41.0189683" lon="16.6348683"><ele>240.5</ele><time>2026-04-19T06:56:08.634Z</time></trkpt><trkpt lat="41.01889" lon="16.63486"><ele>240.66666666666666</ele><time>2026-04-19T06:56:09.633Z</time></trkpt><trkpt lat="41.0188183" lon="16.634855"><ele>240.83333333333331</ele><time>2026-04-19T06:56:10.634Z</time></trkpt><trkpt lat="41.0187467" lon="16.6348483"><ele>241.0</ele><time>2026-04-19T06:56:11.633Z</time></trkpt><trkpt lat="41.0186717" lon="16.63484"><ele>241.0</ele><time>2026-04-19T06:56:12.634Z</time></trkpt><trkpt lat="41.0185917" lon="16.63483"><ele>241.00000000000003</ele><time>2026-04-19T06:56:13.633Z</time></trkpt><trkpt lat="41.0185067" lon="16.6348233"><ele>241.00000000000003</ele><time>2026-04-19T06:56:14.634Z</time></trkpt><trkpt lat="41.01841" lon="16.6348117"><ele>241.0</ele><time>2026-04-19T06:56:15.634Z</time></trkpt><trkpt lat="41.0183" lon="16.6347967"><ele>241.0</ele><time>2026-04-19T06:56:16.633Z</time></trkpt><trkpt lat="41.0181817" lon="16.63478"><ele>241.25</ele><time>2026-04-19T06:56:17.634Z</time></trkpt><trkpt lat="41.0180567" lon="16.63476"><ele>241.5</ele><time>2026-04-19T06:56:18.633Z</time></trkpt><trkpt lat="41.01794" lon="16.6347533"><ele>241.75</ele><time>2026-04-19T06:56:19.633Z</time></trkpt><trkpt lat="41.0178317" lon="16.6347483"><ele>242.0</ele><time>2026-04-19T06:56:20.633Z</time></trkpt><trkpt lat="41.017725" lon="16.6347367"><ele>242.0</ele><time>2026-04-19T06:56:21.634Z</time></trkpt><trkpt lat="41.0176217" lon="16.6347217"><ele>242.0</ele><time>2026-04-19T06:56:22.634Z</time></trkpt><trkpt lat="41.017515" lon="16.6346933"><ele>242.0</ele><time>2026-04-19T06:56:23.633Z</time></trkpt><trkpt lat="41.0174083" lon="16.6346483"><ele>242.0</ele><time>2026-04-19T06:56:24.634Z</time></trkpt><trkpt lat="41.0173" lon="16.63459"><ele>242.0</ele><time>2026-04-19T06:56:25.633Z</time></trkpt><trkpt lat="41.0171817" lon="16.6345267"><ele>243.25</ele><time>2026-04-19T06:56:26.634Z</time></trkpt><trkpt lat="41.01706" lon="16.6344583"><ele>244.5</ele><time>2026-04-19T06:56:27.633Z</time></trkpt><trkpt lat="41.0169333" lon="16.6343717"><ele>245.75</ele><time>2026-04-19T06:56:28.636Z</time></trkpt><trkpt lat="41.016795" lon="16.6342817"><ele>247.0</ele><time>2026-04-19T06:56:29.634Z</time></trkpt><trkpt lat="41.016655" lon="16.6341983"><ele>247.25</ele><time>2026-04-19T06:56:30.633Z</time></trkpt><trkpt lat="41.016525" lon="16.6341217"><ele>247.5</ele><time>2026-04-19T06:56:31.633Z</time></trkpt><trkpt lat="41.0164083" lon="16.63405"><ele>247.75</ele><time>2026-04-19T06:56:32.633Z</time></trkpt><trkpt lat="41.0163" lon="16.6339867"><ele>248.0</ele><time>2026-04-19T06:56:33.633Z</time></trkpt><trkpt lat="41.0161833" lon="16.63393"><ele>248.0</ele><time>2026-04-19T06:56:34.634Z</time></trkpt><trkpt lat="41.0160567" lon="16.6338817"><ele>248.0</ele><time>2026-04-19T06:56:35.634Z</time></trkpt><trkpt lat="41.0159233" lon="16.6338367"><ele>248.0</ele><time>2026-04-19T06:56:36.633Z</time></trkpt><trkpt lat="41.0157783" lon="16.633795"><ele>248.0</ele><time>2026-04-19T06:56:37.634Z</time></trkpt><trkpt lat="41.0156283" lon="16.633755"><ele>248.0</ele><time>2026-04-19T06:56:38.633Z</time></trkpt><trkpt lat="41.0154717" lon="16.6337133"><ele>248.0</ele><time>2026-04-19T06:56:39.634Z</time></trkpt><trkpt lat="41.0153233" lon="16.6336733"><ele>248.0</ele><time>2026-04-19T06:56:40.634Z</time></trkpt><trkpt lat="41.0151867" lon="16.6336367"><ele>248.25</ele><time>2026-04-19T06:56:41.634Z</time></trkpt><trkpt lat="41.0150617" lon="16.6336017"><ele>248.5</ele><time>2026-04-19T06:56:42.633Z</time></trkpt><trkpt lat="41.0149467" lon="16.63357"><ele>248.75</ele><time>2026-04-19T06:56:43.633Z</time></trkpt><trkpt lat="41.0148383" lon="16.6335383"><ele>249.0</ele><time>2026-04-19T06:56:44.634Z</time></trkpt><trkpt lat="41.0147317" lon="16.6335017"><ele>249.5</ele><time>2026-04-19T06:56:45.633Z</time></trkpt><trkpt lat="41.0146233" lon="16.6334567"><ele>250.0</ele><time>2026-04-19T06:56:46.633Z</time></trkpt><trkpt lat="41.0145183" lon="16.6333933"><ele>250.5</ele><time>2026-04-19T06:56:47.633Z</time></trkpt><trkpt lat="41.01441" lon="16.6333167"><ele>251.0</ele><time>2026-04-19T06:56:48.633Z</time></trkpt><trkpt lat="41.014305" lon="16.633245"><ele>251.0</ele><time>2026-04-19T06:56:49.633Z</time></trkpt><trkpt lat="41.01421" lon="16.6331933"><ele>251.00000000000003</ele><time>2026-04-19T06:56:50.634Z</time></trkpt><trkpt lat="41.014125" lon="16.6331483"><ele>251.00000000000003</ele><time>2026-04-19T06:56:51.635Z</time></trkpt><trkpt lat="41.014045" lon="16.6330967"><ele>251.0</ele><time>2026-04-19T06:56:52.634Z</time></trkpt><trkpt lat="41.0139567" lon="16.63303"><ele>251.0</ele><time>2026-04-19T06:56:53.633Z</time></trkpt><trkpt lat="41.0138567" lon="16.6329567"><ele>252.5</ele><time>2026-04-19T06:56:54.633Z</time></trkpt><trkpt lat="41.0137467" lon="16.6328833"><ele>254.0</ele><time>2026-04-19T06:56:55.633Z</time></trkpt><trkpt lat="41.0136333" lon="16.63281"><ele>255.5</ele><time>2026-04-19T06:56:56.634Z</time></trkpt><trkpt lat="41.01353" lon="16.6327433"><ele>257.0</ele><time>2026-04-19T06:56:57.633Z</time></trkpt><trkpt lat="41.0134383" lon="16.63268"><ele>257.1666666666667</ele><time>2026-04-19T06:56:58.633Z</time></trkpt><trkpt lat="41.0133533" lon="16.6326283"><ele>257.33333333333337</ele><time>2026-04-19T06:56:59.633Z</time></trkpt><trkpt lat="41.0132717" lon="16.6325933"><ele>257.5</ele><time>2026-04-19T06:57:00.633Z</time></trkpt><trkpt lat="41.013195" lon="16.6325783"><ele>257.6666666666667</ele><time>2026-04-19T06:57:01.634Z</time></trkpt><trkpt lat="41.0131317" lon="16.63258"><ele>257.8333333333333</ele><time>2026-04-19T06:57:02.634Z</time></trkpt><trkpt lat="41.013045" lon="16.6325967"><ele>258.0</ele><time>2026-04-19T06:57:04.633Z</time></trkpt><trkpt lat="41.0129617" lon="16.63268"><ele>258.6</ele><time>2026-04-19T06:57:06.637Z</time></trkpt><trkpt lat="41.0129067" lon="16.632815"><ele>259.20000000000005</ele><time>2026-04-19T06:57:08.634Z</time></trkpt><trkpt lat="41.0128233" lon="16.632895"><ele>259.8</ele><time>2026-04-19T06:57:10.633Z</time></trkpt><trkpt lat="41.0127" lon="16.6329033"><ele>260.40000000000003</ele><time>2026-04-19T06:57:12.635Z</time></trkpt><trkpt lat="41.0126233" lon="16.632905"><ele>261.0</ele><time>2026-04-19T06:57:13.633Z</time></trkpt><trkpt lat="41.0125417" lon="16.6329067"><ele>261.6666666666667</ele><time>2026-04-19T06:57:14.633Z</time></trkpt><trkpt lat="41.01245" lon="16.6329083"><ele>262.3333333333333</ele><time>2026-04-19T06:57:15.633Z</time></trkpt><trkpt lat="41.01235" lon="16.632905"><ele>263.0</ele><time>2026-04-19T06:57:16.633Z</time></trkpt><trkpt lat="41.0122633" lon="16.6329033"><ele>263.66666666666663</ele><time>2026-04-19T06:57:17.633Z</time></trkpt><trkpt lat="41.0121833" lon="16.63291"><ele>264.3333333333333</ele><time>2026-04-19T06:57:18.634Z</time></trkpt><trkpt lat="41.01212" lon="16.632905"><ele>265.0</ele><time>2026-04-19T06:57:19.633Z</time></trkpt><trkpt lat="41.0120483" lon="16.6329017"><ele>265.0</ele><time>2026-04-19T06:57:20.633Z</time></trkpt><trkpt lat="41.0119383" lon="16.6328983"><ele>265.0</ele><time>2026-04-19T06:57:22.633Z</time></trkpt><trkpt lat="41.011865" lon="16.6328967"><ele>265.0</ele><time>2026-04-19T06:57:24.633Z</time></trkpt><trkpt lat="41.01173" lon="16.63288"><ele>265.0</ele><time>2026-04-19T06:57:57.634Z</time></trkpt><trkpt lat="41.0116317" lon="16.6328867"><ele>265.0</ele><time>2026-04-19T06:57:59.635Z</time></trkpt><trkpt lat="41.0115433" lon="16.6328917"><ele>265.8</ele><time>2026-04-19T06:58:01.633Z</time></trkpt><trkpt lat="41.0114383" lon="16.632895"><ele>266.6</ele><time>2026-04-19T06:58:03.633Z</time></trkpt><trkpt lat="41.0113367" lon="16.6328967"><ele>267.4</ele><time>2026-04-19T06:58:05.633Z</time></trkpt><trkpt lat="41.01124" lon="16.6328967"><ele>268.2</ele><time>2026-04-19T06:58:07.633Z</time></trkpt><trkpt lat="41.0111306" lon="16.6328967"><ele>269.0</ele><time>2026-04-19T06:58:09.633Z</time></trkpt><trkpt lat="41.0110104" lon="16.6328985"><ele>269.0</ele><time>2026-04-19T06:58:11.633Z</time></trkpt><trkpt lat="41.0108864" lon="16.6328952"><ele>269.0</ele><time>2026-04-19T06:58:13.634Z</time></trkpt><trkpt lat="41.0107623" lon="16.6328943"><ele>269.0</ele><time>2026-04-19T06:58:15.633Z</time></trkpt><trkpt lat="41.0106695" lon="16.6328938"><ele>269.0</ele><time>2026-04-19T06:58:17.633Z</time></trkpt><trkpt lat="41.0105938" lon="16.632897"><ele>269.0</ele><time>2026-04-19T06:58:19.633Z</time></trkpt><trkpt lat="41.0104882" lon="16.6328945"><ele>269.6666666666667</ele><time>2026-04-19T06:58:21.634Z</time></trkpt><trkpt lat="41.0103585" lon="16.6328949"><ele>270.33333333333337</ele><time>2026-04-19T06:58:23.633Z</time></trkpt><trkpt lat="41.0102878" lon="16.6328953"><ele>271.0</ele><time>2026-04-19T06:58:24.633Z</time></trkpt><trkpt lat="41.0102138" lon="16.6328958"><ele>271.6666666666667</ele><time>2026-04-19T06:58:25.634Z</time></trkpt><trkpt lat="41.0101348" lon="16.6328963"><ele>272.3333333333333</ele><time>2026-04-19T06:58:26.634Z</time></trkpt><trkpt lat="41.0100544" lon="16.6328974"><ele>273.0</ele><time>2026-04-19T06:58:27.634Z</time></trkpt><trkpt lat="41.0099757" lon="16.6329006"><ele>273.3333333333333</ele><time>2026-04-19T06:58:28.634Z</time></trkpt><trkpt lat="41.0098968" lon="16.6329055"><ele>273.6666666666667</ele><time>2026-04-19T06:58:29.634Z</time></trkpt><trkpt lat="41.0098154" lon="16.6329096"><ele>274.0</ele><time>2026-04-19T06:58:30.634Z</time></trkpt><trkpt lat="41.0097308" lon="16.6329115"><ele>274.33333333333337</ele><time>2026-04-19T06:58:31.634Z</time></trkpt><trkpt lat="41.0096437" lon="16.6329133"><ele>274.6666666666667</ele><time>2026-04-19T06:58:32.634Z</time></trkpt><trkpt lat="41.0095549" lon="16.6329099"><ele>275.0</ele><time>2026-04-19T06:58:33.633Z</time></trkpt><trkpt lat="41.009477" lon="16.6329089"><ele>275.0</ele><time>2026-04-19T06:58:34.634Z</time></trkpt><trkpt lat="41.0094051" lon="16.632904"><ele>275.0</ele><time>2026-04-19T06:58:35.634Z</time></trkpt><trkpt lat="41.00933" lon="16.6328931"><ele>275.0</ele><time>2026-04-19T06:58:36.634Z</time></trkpt><trkpt lat="41.0092591" lon="16.6328733"><ele>275.0</ele><time>2026-04-19T06:58:37.633Z</time></trkpt><trkpt lat="41.0091958" lon="16.632848"><ele>275.0</ele><time>2026-04-19T06:58:38.639Z</time></trkpt><trkpt lat="41.0091338" lon="16.6328199"><ele>275.0</ele><time>2026-04-19T06:58:39.633Z</time></trkpt><trkpt lat="41.0090672" lon="16.6327992"><ele>275.0</ele><time>2026-04-19T06:58:40.634Z</time></trkpt><trkpt lat="41.0089471" lon="16.6327701"><ele>275.1666666666667</ele><time>2026-04-19T06:58:42.633Z</time></trkpt><trkpt lat="41.0088799" lon="16.6327474"><ele>275.33333333333337</ele><time>2026-04-19T06:58:43.633Z</time></trkpt><trkpt lat="41.0088022" lon="16.6327187"><ele>275.5</ele><time>2026-04-19T06:58:44.634Z</time></trkpt><trkpt lat="41.0087172" lon="16.6326928"><ele>275.6666666666667</ele><time>2026-04-19T06:58:45.633Z</time></trkpt><trkpt lat="41.0086254" lon="16.6326642"><ele>275.8333333333333</ele><time>2026-04-19T06:58:46.633Z</time></trkpt><trkpt lat="41.0085331" lon="16.6326361"><ele>276.0</ele><time>2026-04-19T06:58:47.635Z</time></trkpt><trkpt lat="41.0084395" lon="16.6326106"><ele>276.0</ele><time>2026-04-19T06:58:48.634Z</time></trkpt><trkpt lat="41.0083444" lon="16.6325849"><ele>276.0</ele><time>2026-04-19T06:58:49.634Z</time></trkpt><trkpt lat="41.0082553" lon="16.6325633"><ele>276.0</ele><time>2026-04-19T06:58:50.634Z</time></trkpt><trkpt lat="41.0081714" lon="16.6325446"><ele>276.0</ele><time>2026-04-19T06:58:51.633Z</time></trkpt><trkpt lat="41.0080874" lon="16.6325234"><ele>276.0</ele><time>2026-04-19T06:58:52.633Z</time></trkpt><trkpt lat="41.0080032" lon="16.6324981"><ele>276.0</ele><time>2026-04-19T06:58:53.636Z</time></trkpt><trkpt lat="41.0079272" lon="16.6324736"><ele>276.0</ele><time>2026-04-19T06:58:54.634Z</time></trkpt><trkpt lat="41.0078536" lon="16.6324568"><ele>276.0</ele><time>2026-04-19T06:58:55.633Z</time></trkpt><trkpt lat="41.0077795" lon="16.6324535"><ele>276.0</ele><time>2026-04-19T06:58:56.633Z</time></trkpt><trkpt lat="41.0076985" lon="16.6324641"><ele>276.0</ele><time>2026-04-19T06:58:57.633Z</time></trkpt><trkpt lat="41.0076105" lon="16.6324895"><ele>276.0</ele><time>2026-04-19T06:58:58.634Z</time></trkpt><trkpt lat="41.0075202" lon="16.6325296"><ele>276.0</ele><time>2026-04-19T06:58:59.633Z</time></trkpt><trkpt lat="41.0074338" lon="16.6325751"><ele>275.6666666666667</ele><time>2026-04-19T06:59:00.635Z</time></trkpt><trkpt lat="41.0073548" lon="16.6326186"><ele>275.3333333333333</ele><time>2026-04-19T06:59:01.633Z</time></trkpt><trkpt lat="41.0072843" lon="16.6326565"><ele>275.0</ele><time>2026-04-19T06:59:02.633Z</time></trkpt><trkpt lat="41.0072161" lon="16.6326914"><ele>274.66666666666663</ele><time>2026-04-19T06:59:03.634Z</time></trkpt><trkpt lat="41.0071526" lon="16.632719"><ele>274.3333333333333</ele><time>2026-04-19T06:59:04.633Z</time></trkpt><trkpt lat="41.0070346" lon="16.6327409"><ele>274.0</ele><time>2026-04-19T06:59:06.633Z</time></trkpt><trkpt lat="41.0069715" lon="16.6327385"><ele>274.0</ele><time>2026-04-19T06:59:07.633Z</time></trkpt><trkpt lat="41.0068444" lon="16.6327224"><ele>274.0</ele><time>2026-04-19T06:59:09.633Z</time></trkpt><trkpt lat="41.0067739" lon="16.632716"><ele>274.0</ele><time>2026-04-19T06:59:10.633Z</time></trkpt><trkpt lat="41.0067077" lon="16.6327124"><ele>274.0</ele><time>2026-04-19T06:59:11.634Z</time></trkpt><trkpt lat="41.0066432" lon="16.6327086"><ele>274.0</ele><time>2026-04-19T06:59:12.632Z</time></trkpt><trkpt lat="41.0065754" lon="16.6327026"><ele>274.0</ele><time>2026-04-19T06:59:13.634Z</time></trkpt><trkpt lat="41.0065066" lon="16.6326921"><ele>274.2</ele><time>2026-04-19T06:59:14.634Z</time></trkpt><trkpt lat="41.0064367" lon="16.6326817"><ele>274.4</ele><time>2026-04-19T06:59:15.633Z</time></trkpt><trkpt lat="41.0063617" lon="16.63267"><ele>274.6</ele><time>2026-04-19T06:59:16.633Z</time></trkpt><trkpt lat="41.0062917" lon="16.6326617"><ele>274.8</ele><time>2026-04-19T06:59:17.634Z</time></trkpt><trkpt lat="41.0061683" lon="16.6326383"><ele>275.0</ele><time>2026-04-19T06:59:19.634Z</time></trkpt><trkpt lat="41.00605" lon="16.632625"><ele>275.0</ele><time>2026-04-19T06:59:21.635Z</time></trkpt><trkpt lat="41.0059467" lon="16.6326167"><ele>275.0</ele><time>2026-04-19T06:59:23.636Z</time></trkpt><trkpt lat="41.0058367" lon="16.63262"><ele>275.0</ele><time>2026-04-19T06:59:25.633Z</time></trkpt><trkpt lat="41.0057733" lon="16.6326367"><ele>275.0</ele><time>2026-04-19T06:59:26.634Z</time></trkpt><trkpt lat="41.0057083" lon="16.6326467"><ele>275.0</ele><time>2026-04-19T06:59:27.633Z</time></trkpt><trkpt lat="41.00564" lon="16.632655"><ele>275.0</ele><time>2026-04-19T06:59:28.634Z</time></trkpt><trkpt lat="41.005565" lon="16.6326633"><ele>276.0</ele><time>2026-04-19T06:59:29.633Z</time></trkpt><trkpt lat="41.0054917" lon="16.6326733"><ele>277.0</ele><time>2026-04-19T06:59:30.632Z</time></trkpt><trkpt lat="41.005425" lon="16.6326817"><ele>278.0</ele><time>2026-04-19T06:59:31.634Z</time></trkpt><trkpt lat="41.0053217" lon="16.6326983"><ele>279.0</ele><time>2026-04-19T06:59:33.633Z</time></trkpt><trkpt lat="41.0052533" lon="16.6327117"><ele>280.0</ele><time>2026-04-19T06:59:35.634Z</time></trkpt><trkpt lat="41.0051533" lon="16.63273"><ele>281.0</ele><time>2026-04-19T06:59:37.633Z</time></trkpt><trkpt lat="41.0050317" lon="16.6327517"><ele>281.33333333333337</ele><time>2026-04-19T06:59:39.634Z</time></trkpt><trkpt lat="41.0049683" lon="16.632765"><ele>281.6666666666667</ele><time>2026-04-19T06:59:40.633Z</time></trkpt><trkpt lat="41.0048517" lon="16.632775"><ele>282.0</ele><time>2026-04-19T06:59:42.633Z</time></trkpt><trkpt lat="41.004785" lon="16.6327783"><ele>282.3333333333333</ele><time>2026-04-19T06:59:43.633Z</time></trkpt><trkpt lat="41.004715" lon="16.6327833"><ele>282.66666666666663</ele><time>2026-04-19T06:59:44.634Z</time></trkpt><trkpt lat="41.004645" lon="16.63279"><ele>283.0</ele><time>2026-04-19T06:59:45.634Z</time></trkpt><trkpt lat="41.0045717" lon="16.6327983"><ele>283.0</ele><time>2026-04-19T06:59:46.635Z</time></trkpt><trkpt lat="41.004495" lon="16.6328017"><ele>283.0</ele><time>2026-04-19T06:59:47.633Z</time></trkpt><trkpt lat="41.0044117" lon="16.6328033"><ele>283.0</ele><time>2026-04-19T06:59:48.633Z</time></trkpt><trkpt lat="41.0043283" lon="16.632815"><ele>283.0</ele><time>2026-04-19T06:59:49.635Z</time></trkpt><trkpt lat="41.0042383" lon="16.6328267"><ele>283.0</ele><time>2026-04-19T06:59:50.635Z</time></trkpt><trkpt lat="41.0041433" lon="16.6328383"><ele>283.0</ele><time>2026-04-19T06:59:51.634Z</time></trkpt><trkpt lat="41.0040567" lon="16.6328517"><ele>283.6</ele><time>2026-04-19T06:59:52.635Z</time></trkpt><trkpt lat="41.003975" lon="16.63286"><ele>284.20000000000005</ele><time>2026-04-19T06:59:53.634Z</time></trkpt><trkpt lat="41.0039033" lon="16.632865"><ele>284.8</ele><time>2026-04-19T06:59:54.634Z</time></trkpt><trkpt lat="41.00381" lon="16.632865"><ele>285.40000000000003</ele><time>2026-04-19T06:59:56.634Z</time></trkpt><trkpt lat="41.0036783" lon="16.6328933"><ele>286.0</ele><time>2026-04-19T07:00:20.633Z</time></trkpt><trkpt lat="41.0035883" lon="16.632915"><ele>286.0</ele><time>2026-04-19T07:00:22.635Z</time></trkpt><trkpt lat="41.0034617" lon="16.6329283"><ele>286.0</ele><time>2026-04-19T07:00:24.636Z</time></trkpt><trkpt lat="41.00339" lon="16.6329417"><ele>286.0</ele><time>2026-04-19T07:00:25.634Z</time></trkpt><trkpt lat="41.0033233" lon="16.6329567"><ele>286.0</ele><time>2026-04-19T07:00:26.634Z</time></trkpt><trkpt lat="41.0032017" lon="16.6329783"><ele>286.0</ele><time>2026-04-19T07:00:28.633Z</time></trkpt><trkpt lat="41.0031367" lon="16.63299"><ele>285.99999999999994</ele><time>2026-04-19T07:00:29.633Z</time></trkpt><trkpt lat="41.0030667" lon="16.6329967"><ele>286.0</ele><time>2026-04-19T07:00:30.633Z</time></trkpt><trkpt lat="41.00299" lon="16.6330033"><ele>286.0</ele><time>2026-04-19T07:00:31.635Z</time></trkpt><trkpt lat="41.0029133" lon="16.633015"><ele>286.0</ele><time>2026-04-19T07:00:32.635Z</time></trkpt><trkpt lat="41.00284" lon="16.633025"><ele>286.0</ele><time>2026-04-19T07:00:33.634Z</time></trkpt><trkpt lat="41.0027717" lon="16.6330333"><ele>285.99999999999994</ele><time>2026-04-19T07:00:34.635Z</time></trkpt><trkpt lat="41.0027033" lon="16.633045"><ele>286.0</ele><time>2026-04-19T07:00:35.635Z</time></trkpt><trkpt lat="41.0026333" lon="16.6330517"><ele>285.99999999999994</ele><time>2026-04-19T07:00:36.634Z</time></trkpt><trkpt lat="41.0025633" lon="16.6330583"><ele>286.0</ele><time>2026-04-19T07:00:37.634Z</time></trkpt><trkpt lat="41.0024817" lon="16.63306"><ele>286.0</ele><time>2026-04-19T07:00:38.635Z</time></trkpt><trkpt lat="41.0023983" lon="16.6330667"><ele>286.0</ele><time>2026-04-19T07:00:39.633Z</time></trkpt><trkpt lat="41.0023267" lon="16.6330767"><ele>286.0</ele><time>2026-04-19T07:00:40.633Z</time></trkpt><trkpt lat="41.002255" lon="16.633085"><ele>285.99999999999994</ele><time>2026-04-19T07:00:41.635Z</time></trkpt><trkpt lat="41.0021867" lon="16.6330917"><ele>286.0</ele><time>2026-04-19T07:00:42.633Z</time></trkpt><trkpt lat="41.00212" lon="16.6331017"><ele>286.0</ele><time>2026-04-19T07:00:43.633Z</time></trkpt><trkpt lat="41.0020417" lon="16.6331067"><ele>286.0</ele><time>2026-04-19T07:00:44.634Z</time></trkpt><trkpt lat="41.0019583" lon="16.6331183"><ele>286.0</ele><time>2026-04-19T07:00:45.634Z</time></trkpt><trkpt lat="41.00188" lon="16.6331267"><ele>286.0</ele><time>2026-04-19T07:00:46.633Z</time></trkpt><trkpt lat="41.00181" lon="16.6331333"><ele>286.0</ele><time>2026-04-19T07:00:47.633Z</time></trkpt><trkpt lat="41.0017383" lon="16.6331417"><ele>286.0</ele><time>2026-04-19T07:00:48.633Z</time></trkpt><trkpt lat="41.0016667" lon="16.6331533"><ele>286.3333333333333</ele><time>2026-04-19T07:00:49.634Z</time></trkpt><trkpt lat="41.0015967" lon="16.6331667"><ele>286.66666666666663</ele><time>2026-04-19T07:00:50.634Z</time></trkpt><trkpt lat="41.0015267" lon="16.63318"><ele>287.0</ele><time>2026-04-19T07:00:51.633Z</time></trkpt><trkpt lat="41.0014533" lon="16.6331883"><ele>287.3333333333333</ele><time>2026-04-19T07:00:52.635Z</time></trkpt><trkpt lat="41.001375" lon="16.6331933"><ele>287.6666666666667</ele><time>2026-04-19T07:00:53.635Z</time></trkpt><trkpt lat="41.0012917" lon="16.6332"><ele>288.0</ele><time>2026-04-19T07:00:54.634Z</time></trkpt><trkpt lat="41.0012117" lon="16.6332067"><ele>288.0</ele><time>2026-04-19T07:00:55.633Z</time></trkpt><trkpt lat="41.0011383" lon="16.633215"><ele>288.0</ele><time>2026-04-19T07:00:56.633Z</time></trkpt><trkpt lat="41.0010683" lon="16.633225"><ele>288.0</ele><time>2026-04-19T07:00:57.633Z</time></trkpt><trkpt lat="41.001005" lon="16.63324"><ele>288.0</ele><time>2026-04-19T07:00:58.634Z</time></trkpt><trkpt lat="41.0008917" lon="16.6332533"><ele>288.0</ele><time>2026-04-19T07:01:00.634Z</time></trkpt><trkpt lat="41.000765" lon="16.6332533"><ele>288.0</ele><time>2026-04-19T07:01:02.635Z</time></trkpt><trkpt lat="41.0006933" lon="16.6332567"><ele>288.28571428571433</ele><time>2026-04-19T07:01:03.634Z</time></trkpt><trkpt lat="41.0006167" lon="16.6332683"><ele>288.57142857142856</ele><time>2026-04-19T07:01:04.636Z</time></trkpt><trkpt lat="41.00054" lon="16.63328"><ele>288.8571428571429</ele><time>2026-04-19T07:01:05.635Z</time></trkpt><trkpt lat="41.0004717" lon="16.6332933"><ele>289.14285714285717</ele><time>2026-04-19T07:01:06.634Z</time></trkpt><trkpt lat="41.000405" lon="16.6333083"><ele>289.42857142857144</ele><time>2026-04-19T07:01:07.635Z</time></trkpt><trkpt lat="41.0003367" lon="16.633325"><ele>289.7142857142857</ele><time>2026-04-19T07:01:08.634Z</time></trkpt><trkpt lat="41.0002683" lon="16.6333417"><ele>290.0</ele><time>2026-04-19T07:01:09.636Z</time></trkpt><trkpt lat="41.0001967" lon="16.6333867"><ele>290.0</ele><time>2026-04-19T07:01:10.634Z</time></trkpt><trkpt lat="41.0001517" lon="16.63346"><ele>290.0</ele><time>2026-04-19T07:01:11.633Z</time></trkpt><trkpt lat="41.00005" lon="16.633535"><ele>290.0</ele><time>2026-04-19T07:01:12.633Z</time></trkpt><trkpt lat="40.9999367" lon="16.6335233"><ele>290.0</ele><time>2026-04-19T07:01:14.635Z</time></trkpt><trkpt lat="40.99986" lon="16.6335083"><ele>290.0</ele><time>2026-04-19T07:01:15.633Z</time></trkpt><trkpt lat="40.9997767" lon="16.6334967"><ele>290.0</ele><time>2026-04-19T07:01:16.633Z</time></trkpt><trkpt lat="40.9997017" lon="16.63347"><ele>290.0</ele><time>2026-04-19T07:01:17.633Z</time></trkpt><trkpt lat="40.9996333" lon="16.6334533"><ele>290.0</ele><time>2026-04-19T07:01:18.634Z</time></trkpt><trkpt lat="40.999565" lon="16.6334517"><ele>290.0</ele><time>2026-04-19T07:01:19.634Z</time></trkpt><trkpt lat="40.99949" lon="16.633455"><ele>290.0</ele><time>2026-04-19T07:01:20.635Z</time></trkpt><trkpt lat="40.9994183" lon="16.633465"><ele>290.0</ele><time>2026-04-19T07:01:21.633Z</time></trkpt><trkpt lat="40.99935" lon="16.63347"><ele>290.0</ele><time>2026-04-19T07:01:22.634Z</time></trkpt><trkpt lat="40.9992817" lon="16.6334683"><ele>290.0</ele><time>2026-04-19T07:01:23.634Z</time></trkpt><trkpt lat="40.99921" lon="16.63347"><ele>290.0</ele><time>2026-04-19T07:01:24.633Z</time></trkpt><trkpt lat="40.99914" lon="16.6334683"><ele>290.0</ele><time>2026-04-19T07:01:25.635Z</time></trkpt><trkpt lat="40.9990667" lon="16.6334833"><ele>290.0</ele><time>2026-04-19T07:01:26.633Z</time></trkpt><trkpt lat="40.9989933" lon="16.6334933"><ele>290.0</ele><time>2026-04-19T07:01:27.633Z</time></trkpt><trkpt lat="40.9989217" lon="16.6335067"><ele>290.0</ele><time>2026-04-19T07:01:28.636Z</time></trkpt><trkpt lat="40.9988533" lon="16.6335183"><ele>290.0</ele><time>2026-04-19T07:01:29.635Z</time></trkpt><trkpt lat="40.9987667" lon="16.633525"><ele>290.1666666666667</ele><time>2026-04-19T07:01:31.633Z</time></trkpt><trkpt lat="40.9987117" lon="16.633475"><ele>290.33333333333337</ele><time>2026-04-19T07:01:35.634Z</time></trkpt><trkpt lat="40.998705" lon="16.6333633"><ele>290.5</ele><time>2026-04-19T07:01:37.634Z</time></trkpt><trkpt lat="40.9987117" lon="16.6332133"><ele>290.6666666666667</ele><time>2026-04-19T07:01:39.635Z</time></trkpt><trkpt lat="40.99871" lon="16.63309"><ele>290.8333333333333</ele><time>2026-04-19T07:01:41.633Z</time></trkpt><trkpt lat="40.9986367" lon="16.6330267"><ele>291.0</ele><time>2026-04-19T07:01:51.633Z</time></trkpt><trkpt lat="40.9985583" lon="16.6330167"><ele>291.0</ele><time>2026-04-19T07:01:53.634Z</time></trkpt><trkpt lat="40.9984883" lon="16.633"><ele>291.0</ele><time>2026-04-19T07:01:55.634Z</time></trkpt><trkpt lat="40.99842" lon="16.6329833"><ele>291.0</ele><time>2026-04-19T07:01:57.634Z</time></trkpt><trkpt lat="40.9983467" lon="16.63298"><ele>291.0</ele><time>2026-04-19T07:01:59.633Z</time></trkpt><trkpt lat="40.9982833" lon="16.6329833"><ele>291.0</ele><time>2026-04-19T07:02:01.634Z</time></trkpt><trkpt lat="40.998195" lon="16.6329533"><ele>291.0</ele><time>2026-04-19T07:02:04.633Z</time></trkpt><trkpt lat="40.9981217" lon="16.6329283"><ele>291.0</ele><time>2026-04-19T07:02:06.633Z</time></trkpt><trkpt lat="40.9980133" lon="16.6329"><ele>291.0</ele><time>2026-04-19T07:02:08.633Z</time></trkpt><trkpt lat="40.9979483" lon="16.632885"><ele>291.0</ele><time>2026-04-19T07:02:09.633Z</time></trkpt><trkpt lat="40.9978767" lon="16.6328767"><ele>291.0</ele><time>2026-04-19T07:02:10.634Z</time></trkpt><trkpt lat="40.9978033" lon="16.6328617"><ele>291.0</ele><time>2026-04-19T07:02:11.633Z</time></trkpt><trkpt lat="40.997725" lon="16.6328517"><ele>291.0</ele><time>2026-04-19T07:02:12.633Z</time></trkpt><trkpt lat="40.9976417" lon="16.63284"><ele>291.0</ele><time>2026-04-19T07:02:13.634Z</time></trkpt><trkpt lat="40.9975533" lon="16.632825"><ele>291.3333333333333</ele><time>2026-04-19T07:02:14.633Z</time></trkpt><trkpt lat="40.9974667" lon="16.6328017"><ele>291.6666666666667</ele><time>2026-04-19T07:02:15.633Z</time></trkpt><trkpt lat="40.997385" lon="16.63278"><ele>292.0</ele><time>2026-04-19T07:02:16.633Z</time></trkpt><trkpt lat="40.9973117" lon="16.63277"><ele>292.33333333333337</ele><time>2026-04-19T07:02:17.633Z</time></trkpt><trkpt lat="40.997245" lon="16.6327617"><ele>292.6666666666667</ele><time>2026-04-19T07:02:18.634Z</time></trkpt><trkpt lat="40.9971767" lon="16.6327567"><ele>293.0</ele><time>2026-04-19T07:02:19.634Z</time></trkpt><trkpt lat="40.997105" lon="16.6327467"><ele>292.99999999999994</ele><time>2026-04-19T07:02:20.633Z</time></trkpt><trkpt lat="40.997035" lon="16.632735"><ele>293.0</ele><time>2026-04-19T07:02:21.634Z</time></trkpt><trkpt lat="40.99697" lon="16.6327183"><ele>293.0</ele><time>2026-04-19T07:02:22.633Z</time></trkpt><trkpt lat="40.9969033" lon="16.632705"><ele>293.0</ele><time>2026-04-19T07:02:23.633Z</time></trkpt><trkpt lat="40.996835" lon="16.6326933"><ele>293.0</ele><time>2026-04-19T07:02:24.633Z</time></trkpt><trkpt lat="40.9967683" lon="16.6326817"><ele>292.99999999999994</ele><time>2026-04-19T07:02:25.633Z</time></trkpt><trkpt lat="40.9967" lon="16.63267"><ele>293.0</ele><time>2026-04-19T07:02:26.634Z</time></trkpt><trkpt lat="40.9966267" lon="16.6326583"><ele>293.4</ele><time>2026-04-19T07:02:27.633Z</time></trkpt><trkpt lat="40.9965467" lon="16.6326467"><ele>293.8</ele><time>2026-04-19T07:02:28.633Z</time></trkpt><trkpt lat="40.99646" lon="16.6326333"><ele>294.2</ele><time>2026-04-19T07:02:29.633Z</time></trkpt><trkpt lat="40.9963633" lon="16.632615"><ele>294.6</ele><time>2026-04-19T07:02:30.633Z</time></trkpt><trkpt lat="40.9962667" lon="16.632595"><ele>295.0</ele><time>2026-04-19T07:02:31.633Z</time></trkpt><trkpt lat="40.9961633" lon="16.6325733"><ele>295.0</ele><time>2026-04-19T07:02:32.634Z</time></trkpt><trkpt lat="40.99606" lon="16.6325533"><ele>295.0</ele><time>2026-04-19T07:02:33.633Z</time></trkpt><trkpt lat="40.9959667" lon="16.63253"><ele>295.0</ele><time>2026-04-19T07:02:34.633Z</time></trkpt><trkpt lat="40.9958833" lon="16.6325117"><ele>295.0</ele><time>2026-04-19T07:02:35.634Z</time></trkpt><trkpt lat="40.99581" lon="16.6324917"><ele>295.0</ele><time>2026-04-19T07:02:36.635Z</time></trkpt><trkpt lat="40.9957417" lon="16.6324683"><ele>295.0</ele><time>2026-04-19T07:02:37.634Z</time></trkpt><trkpt lat="40.9956683" lon="16.632455"><ele>295.16666666666663</ele><time>2026-04-19T07:02:38.633Z</time></trkpt><trkpt lat="40.99559" lon="16.6324433"><ele>295.3333333333333</ele><time>2026-04-19T07:02:39.633Z</time></trkpt><trkpt lat="40.995505" lon="16.6324283"><ele>295.5</ele><time>2026-04-19T07:02:40.634Z</time></trkpt><trkpt lat="40.995415" lon="16.63241"><ele>295.6666666666667</ele><time>2026-04-19T07:02:41.634Z</time></trkpt><trkpt lat="40.99532" lon="16.6323883"><ele>295.83333333333337</ele><time>2026-04-19T07:02:42.633Z</time></trkpt><trkpt lat="40.995225" lon="16.632365"><ele>296.0</ele><time>2026-04-19T07:02:43.633Z</time></trkpt><trkpt lat="40.9951383" lon="16.632345"><ele>296.0</ele><time>2026-04-19T07:02:44.634Z</time></trkpt><trkpt lat="40.9950617" lon="16.6323283"><ele>296.0</ele><time>2026-04-19T07:02:45.633Z</time></trkpt><trkpt lat="40.9949883" lon="16.6323133"><ele>296.0</ele><time>2026-04-19T07:02:46.633Z</time></trkpt><trkpt lat="40.9949083" lon="16.632295"><ele>296.0</ele><time>2026-04-19T07:02:47.634Z</time></trkpt><trkpt lat="40.99483" lon="16.6322817"><ele>296.0</ele><time>2026-04-19T07:02:48.633Z</time></trkpt><trkpt lat="40.9947467" lon="16.6322683"><ele>296.0</ele><time>2026-04-19T07:02:50.634Z</time></trkpt><trkpt lat="40.9946617" lon="16.6322833"><ele>296.5</ele><time>2026-04-19T07:03:53.635Z</time></trkpt><trkpt lat="40.994555" lon="16.63226"><ele>297.0</ele><time>2026-04-19T07:03:55.634Z</time></trkpt><trkpt lat="40.9944533" lon="16.6322383"><ele>297.5</ele><time>2026-04-19T07:03:57.633Z</time></trkpt><trkpt lat="40.9943467" lon="16.6322133"><ele>298.0</ele><time>2026-04-19T07:03:59.634Z</time></trkpt><trkpt lat="40.9942833" lon="16.6322"><ele>298.5</ele><time>2026-04-19T07:04:00.633Z</time></trkpt><trkpt lat="40.99422" lon="16.63219"><ele>299.0</ele><time>2026-04-19T07:04:01.634Z</time></trkpt><trkpt lat="40.9941567" lon="16.632175"><ele>299.2</ele><time>2026-04-19T07:04:02.635Z</time></trkpt><trkpt lat="40.9940433" lon="16.6321517"><ele>299.4</ele><time>2026-04-19T07:04:04.632Z</time></trkpt><trkpt lat="40.9939692" lon="16.6321266"><ele>299.6</ele><time>2026-04-19T07:04:06.633Z</time></trkpt><trkpt lat="40.9938937" lon="16.6320899"><ele>299.8</ele><time>2026-04-19T07:04:08.634Z</time></trkpt><trkpt lat="40.9938009" lon="16.6320665"><ele>300.0</ele><time>2026-04-19T07:04:10.633Z</time></trkpt><trkpt lat="40.9936764" lon="16.6320419"><ele>300.0</ele><time>2026-04-19T07:04:12.633Z</time></trkpt><trkpt lat="40.993613" lon="16.6320307"><ele>300.0</ele><time>2026-04-19T07:04:13.633Z</time></trkpt><trkpt lat="40.9935487" lon="16.63202"><ele>300.0</ele><time>2026-04-19T07:04:14.633Z</time></trkpt><trkpt lat="40.993483" lon="16.6320094"><ele>300.0</ele><time>2026-04-19T07:04:15.633Z</time></trkpt><trkpt lat="40.99342" lon="16.6319967"><ele>300.0</ele><time>2026-04-19T07:04:16.633Z</time></trkpt><trkpt lat="40.9933" lon="16.6319833"><ele>300.0</ele><time>2026-04-19T07:04:18.633Z</time></trkpt><trkpt lat="40.9932283" lon="16.6319733"><ele>300.3333333333333</ele><time>2026-04-19T07:04:19.634Z</time></trkpt><trkpt lat="40.9931583" lon="16.6319617"><ele>300.6666666666667</ele><time>2026-04-19T07:04:20.634Z</time></trkpt><trkpt lat="40.9930883" lon="16.6319517"><ele>301.0</ele><time>2026-04-19T07:04:21.633Z</time></trkpt><trkpt lat="40.9929733" lon="16.6319367"><ele>301.33333333333337</ele><time>2026-04-19T07:04:23.635Z</time></trkpt><trkpt lat="40.99291" lon="16.631925"><ele>301.6666666666667</ele><time>2026-04-19T07:04:24.634Z</time></trkpt><trkpt lat="40.99284" lon="16.6319117"><ele>302.0</ele><time>2026-04-19T07:04:25.634Z</time></trkpt><trkpt lat="40.992765" lon="16.6318933"><ele>302.0</ele><time>2026-04-19T07:04:26.634Z</time></trkpt><trkpt lat="40.9926883" lon="16.6318733"><ele>302.0</ele><time>2026-04-19T07:04:27.634Z</time></trkpt><trkpt lat="40.9926067" lon="16.6318533"><ele>302.0</ele><time>2026-04-19T07:04:28.634Z</time></trkpt><trkpt lat="40.992515" lon="16.6318333"><ele>302.0</ele><time>2026-04-19T07:04:29.636Z</time></trkpt><trkpt lat="40.9924183" lon="16.6318133"><ele>302.0</ele><time>2026-04-19T07:04:30.634Z</time></trkpt><trkpt lat="40.9923233" lon="16.6317983"><ele>302.0</ele><time>2026-04-19T07:04:31.635Z</time></trkpt><trkpt lat="40.9922333" lon="16.6317817"><ele>302.33333333333337</ele><time>2026-04-19T07:04:32.637Z</time></trkpt><trkpt lat="40.9921467" lon="16.6317667"><ele>302.6666666666667</ele><time>2026-04-19T07:04:33.635Z</time></trkpt><trkpt lat="40.9920683" lon="16.6317483"><ele>303.0</ele><time>2026-04-19T07:04:34.634Z</time></trkpt><trkpt lat="40.9919883" lon="16.6317333"><ele>303.3333333333333</ele><time>2026-04-19T07:04:35.635Z</time></trkpt><trkpt lat="40.9919067" lon="16.6317183"><ele>303.66666666666663</ele><time>2026-04-19T07:04:36.634Z</time></trkpt><trkpt lat="40.9918167" lon="16.6316983"><ele>304.0</ele><time>2026-04-19T07:04:37.634Z</time></trkpt><trkpt lat="40.9917267" lon="16.63168"><ele>304.0</ele><time>2026-04-19T07:04:38.635Z</time></trkpt><trkpt lat="40.9916383" lon="16.6316783"><ele>304.0</ele><time>2026-04-19T07:04:39.633Z</time></trkpt><trkpt lat="40.9915533" lon="16.6316733"><ele>304.0</ele><time>2026-04-19T07:04:40.633Z</time></trkpt><trkpt lat="40.9914817" lon="16.6316617"><ele>304.0</ele><time>2026-04-19T07:04:41.634Z</time></trkpt><trkpt lat="40.9914183" lon="16.6316533"><ele>304.0</ele><time>2026-04-19T07:04:42.634Z</time></trkpt><trkpt lat="40.9913083" lon="16.6316533"><ele>304.0</ele><time>2026-04-19T07:04:44.635Z</time></trkpt><trkpt lat="40.9912183" lon="16.63163"><ele>304.0</ele><time>2026-04-19T07:04:46.633Z</time></trkpt><trkpt lat="40.9911433" lon="16.63159"><ele>304.0</ele><time>2026-04-19T07:04:48.633Z</time></trkpt><trkpt lat="40.9911" lon="16.631515"><ele>304.0</ele><time>2026-04-19T07:04:51.633Z</time></trkpt><trkpt lat="40.9911117" lon="16.63139"><ele>304.0</ele><time>2026-04-19T07:04:53.634Z</time></trkpt><trkpt lat="40.9911217" lon="16.6313017"><ele>304.0</ele><time>2026-04-19T07:04:54.635Z</time></trkpt><trkpt lat="40.9911333" lon="16.6312017"><ele>304.0</ele><time>2026-04-19T07:04:55.635Z</time></trkpt><trkpt lat="40.9911467" lon="16.6310833"><ele>304.2</ele><time>2026-04-19T07:04:56.636Z</time></trkpt><trkpt lat="40.9911583" lon="16.63095"><ele>304.4</ele><time>2026-04-19T07:04:57.635Z</time></trkpt><trkpt lat="40.9911683" lon="16.6308083"><ele>304.6</ele><time>2026-04-19T07:04:58.635Z</time></trkpt><trkpt lat="40.9911767" lon="16.6306617"><ele>304.8</ele><time>2026-04-19T07:04:59.633Z</time></trkpt><trkpt lat="40.9911767" lon="16.6305017"><ele>305.0</ele><time>2026-04-19T07:05:00.633Z</time></trkpt><trkpt lat="40.99117" lon="16.6303333"><ele>305.0</ele><time>2026-04-19T07:05:01.633Z</time></trkpt><trkpt lat="40.9911617" lon="16.6301683"><ele>305.0</ele><time>2026-04-19T07:05:02.633Z</time></trkpt><trkpt lat="40.9911517" lon="16.630015"><ele>305.0</ele><time>2026-04-19T07:05:03.633Z</time></trkpt><trkpt lat="40.99114" lon="16.6298717"><ele>305.0</ele><time>2026-04-19T07:05:04.633Z</time></trkpt><trkpt lat="40.99113" lon="16.6297333"><ele>305.0</ele><time>2026-04-19T07:05:05.633Z</time></trkpt><trkpt lat="40.991115" lon="16.6295867"><ele>305.0</ele><time>2026-04-19T07:05:06.633Z</time></trkpt><trkpt lat="40.9910983" lon="16.629435"><ele>305.0</ele><time>2026-04-19T07:05:07.633Z</time></trkpt><trkpt lat="40.9910817" lon="16.6292767"><ele>305.0</ele><time>2026-04-19T07:05:08.634Z</time></trkpt><trkpt lat="40.9910633" lon="16.6291117"><ele>305.25</ele><time>2026-04-19T07:05:09.633Z</time></trkpt><trkpt lat="40.99105" lon="16.62894"><ele>305.5</ele><time>2026-04-19T07:05:10.633Z</time></trkpt><trkpt lat="40.9910367" lon="16.62878"><ele>305.75</ele><time>2026-04-19T07:05:11.633Z</time></trkpt><trkpt lat="40.9910233" lon="16.62863"><ele>306.0</ele><time>2026-04-19T07:05:12.634Z</time></trkpt><trkpt lat="40.9910083" lon="16.628485"><ele>306.0</ele><time>2026-04-19T07:05:13.633Z</time></trkpt><trkpt lat="40.9909917" lon="16.6283433"><ele>306.0</ele><time>2026-04-19T07:05:14.634Z</time></trkpt><trkpt lat="40.9909767" lon="16.6282017"><ele>306.0</ele><time>2026-04-19T07:05:15.633Z</time></trkpt><trkpt lat="40.9909633" lon="16.6280583"><ele>306.0</ele><time>2026-04-19T07:05:16.633Z</time></trkpt><trkpt lat="40.9909467" lon="16.62791"><ele>306.0</ele><time>2026-04-19T07:05:17.635Z</time></trkpt><trkpt lat="40.990925" lon="16.6277633"><ele>306.0</ele><time>2026-04-19T07:05:18.634Z</time></trkpt><trkpt lat="40.990895" lon="16.62761"><ele>306.0</ele><time>2026-04-19T07:05:19.634Z</time></trkpt><trkpt lat="40.9908567" lon="16.6274483"><ele>306.0</ele><time>2026-04-19T07:05:20.634Z</time></trkpt><trkpt lat="40.9908083" lon="16.6272883"><ele>306.0</ele><time>2026-04-19T07:05:21.635Z</time></trkpt><trkpt lat="40.99076" lon="16.6271317"><ele>306.0</ele><time>2026-04-19T07:05:22.635Z</time></trkpt><trkpt lat="40.9907117" lon="16.6269817"><ele>306.0</ele><time>2026-04-19T07:05:23.635Z</time></trkpt><trkpt lat="40.9906683" lon="16.626845"><ele>306.0</ele><time>2026-04-19T07:05:24.634Z</time></trkpt><trkpt lat="40.9906283" lon="16.6267133"><ele>306.0</ele><time>2026-04-19T07:05:25.634Z</time></trkpt><trkpt lat="40.9905917" lon="16.6265983"><ele>306.0</ele><time>2026-04-19T07:05:26.633Z</time></trkpt><trkpt lat="40.9905583" lon="16.6265017"><ele>306.1666666666667</ele><time>2026-04-19T07:05:27.633Z</time></trkpt><trkpt lat="40.99053" lon="16.626425"><ele>306.3333333333333</ele><time>2026-04-19T07:05:28.633Z</time></trkpt><trkpt lat="40.9904433" lon="16.6263283"><ele>306.5</ele><time>2026-04-19T07:05:30.633Z</time></trkpt><trkpt lat="40.99037" lon="16.6263017"><ele>306.66666666666663</ele><time>2026-04-19T07:05:31.633Z</time></trkpt><trkpt lat="40.9902783" lon="16.6262867"><ele>306.8333333333333</ele><time>2026-04-19T07:05:32.635Z</time></trkpt><trkpt lat="40.99018" lon="16.62627"><ele>307.0</ele><time>2026-04-19T07:05:33.633Z</time></trkpt><trkpt lat="40.990075" lon="16.6262517"><ele>307.0</ele><time>2026-04-19T07:05:34.633Z</time></trkpt><trkpt lat="40.98997" lon="16.6262383"><ele>307.0</ele><time>2026-04-19T07:05:35.633Z</time></trkpt><trkpt lat="40.9898683" lon="16.626225"><ele>307.0</ele><time>2026-04-19T07:05:36.633Z</time></trkpt><trkpt lat="40.989765" lon="16.626205"><ele>307.0</ele><time>2026-04-19T07:05:37.633Z</time></trkpt><trkpt lat="40.98966" lon="16.6261767"><ele>307.0</ele><time>2026-04-19T07:05:38.633Z</time></trkpt><trkpt lat="40.989555" lon="16.6261483"><ele>307.25</ele><time>2026-04-19T07:05:39.633Z</time></trkpt><trkpt lat="40.9894383" lon="16.6261283"><ele>307.5</ele><time>2026-04-19T07:05:40.633Z</time></trkpt><trkpt lat="40.98931" lon="16.626105"><ele>307.75</ele><time>2026-04-19T07:05:41.633Z</time></trkpt><trkpt lat="40.9891767" lon="16.6260833"><ele>308.0</ele><time>2026-04-19T07:05:42.634Z</time></trkpt><trkpt lat="40.9890317" lon="16.6260567"><ele>308.0</ele><time>2026-04-19T07:05:43.633Z</time></trkpt><trkpt lat="40.9888767" lon="16.6260233"><ele>308.0</ele><time>2026-04-19T07:05:44.633Z</time></trkpt><trkpt lat="40.9887167" lon="16.62599"><ele>308.0</ele><time>2026-04-19T07:05:45.633Z</time></trkpt><trkpt lat="40.9885617" lon="16.6259567"><ele>308.0</ele><time>2026-04-19T07:05:46.633Z</time></trkpt><trkpt lat="40.9884167" lon="16.6259233"><ele>308.0</ele><time>2026-04-19T07:05:47.633Z</time></trkpt><trkpt lat="40.988285" lon="16.6258933"><ele>308.0</ele><time>2026-04-19T07:05:48.633Z</time></trkpt><trkpt lat="40.9881667" lon="16.62587"><ele>308.0</ele><time>2026-04-19T07:05:49.633Z</time></trkpt><trkpt lat="40.98807" lon="16.6258533"><ele>308.0</ele><time>2026-04-19T07:05:50.634Z</time></trkpt><trkpt lat="40.9879933" lon="16.6258383"><ele>308.0</ele><time>2026-04-19T07:05:51.633Z</time></trkpt><trkpt lat="40.9878883" lon="16.6258167"><ele>308.0</ele><time>2026-04-19T07:05:53.635Z</time></trkpt><trkpt lat="40.9878217" lon="16.6258183"><ele>308.0</ele><time>2026-04-19T07:05:55.633Z</time></trkpt><trkpt lat="40.9877917" lon="16.6259167"><ele>308.0</ele><time>2026-04-19T07:05:57.633Z</time></trkpt><trkpt lat="40.9877933" lon="16.6260583"><ele>308.0</ele><time>2026-04-19T07:05:59.634Z</time></trkpt><trkpt lat="40.9878183" lon="16.6262"><ele>307.8</ele><time>2026-04-19T07:06:01.633Z</time></trkpt><trkpt lat="40.9878183" lon="16.6263383"><ele>307.6</ele><time>2026-04-19T07:06:03.633Z</time></trkpt><trkpt lat="40.9877583" lon="16.6264883"><ele>307.4</ele><time>2026-04-19T07:06:05.633Z</time></trkpt><trkpt lat="40.9877267" lon="16.6265633"><ele>307.2</ele><time>2026-04-19T07:06:06.634Z</time></trkpt><trkpt lat="40.9877117" lon="16.626715"><ele>307.0</ele><time>2026-04-19T07:06:08.634Z</time></trkpt><trkpt lat="40.9876933" lon="16.6268733"><ele>307.16666666666663</ele><time>2026-04-19T07:06:10.633Z</time></trkpt><trkpt lat="40.9876517" lon="16.6270267"><ele>307.3333333333333</ele><time>2026-04-19T07:06:12.633Z</time></trkpt><trkpt lat="40.9876183" lon="16.627105"><ele>307.5</ele><time>2026-04-19T07:06:13.633Z</time></trkpt><trkpt lat="40.9875767" lon="16.6271783"><ele>307.6666666666667</ele><time>2026-04-19T07:06:14.635Z</time></trkpt><trkpt lat="40.9875333" lon="16.6272583"><ele>307.83333333333337</ele><time>2026-04-19T07:06:15.634Z</time></trkpt><trkpt lat="40.9874933" lon="16.627355"><ele>308.0</ele><time>2026-04-19T07:06:16.633Z</time></trkpt><trkpt lat="40.9874583" lon="16.6274567"><ele>308.0</ele><time>2026-04-19T07:06:17.633Z</time></trkpt><trkpt lat="40.9874267" lon="16.6275517"><ele>308.0</ele><time>2026-04-19T07:06:18.634Z</time></trkpt><trkpt lat="40.9874" lon="16.62764"><ele>308.0</ele><time>2026-04-19T07:06:19.633Z</time></trkpt><trkpt lat="40.9873767" lon="16.62772"><ele>308.0</ele><time>2026-04-19T07:06:20.635Z</time></trkpt><trkpt lat="40.9873433" lon="16.6277933"><ele>308.0</ele><time>2026-04-19T07:06:21.633Z</time></trkpt><trkpt lat="40.987295" lon="16.627865"><ele>308.0</ele><time>2026-04-19T07:06:22.633Z</time></trkpt><trkpt lat="40.9872367" lon="16.627935"><ele>308.0</ele><time>2026-04-19T07:06:23.633Z</time></trkpt><trkpt lat="40.9871717" lon="16.6280117"><ele>308.0</ele><time>2026-04-19T07:06:24.633Z</time></trkpt><trkpt lat="40.9871083" lon="16.6280917"><ele>308.0</ele><time>2026-04-19T07:06:25.634Z</time></trkpt><trkpt lat="40.9870433" lon="16.6281667"><ele>308.0</ele><time>2026-04-19T07:06:26.634Z</time></trkpt><trkpt lat="40.9869783" lon="16.628235"><ele>308.0</ele><time>2026-04-19T07:06:27.635Z</time></trkpt><trkpt lat="40.98691" lon="16.6283167"><ele>308.0</ele><time>2026-04-19T07:06:28.633Z</time></trkpt><trkpt lat="40.9868417" lon="16.6284033"><ele>308.0</ele><time>2026-04-19T07:06:29.633Z</time></trkpt><trkpt lat="40.9867833" lon="16.6284817"><ele>308.0</ele><time>2026-04-19T07:06:30.634Z</time></trkpt><trkpt lat="40.986725" lon="16.6285467"><ele>308.0</ele><time>2026-04-19T07:06:31.633Z</time></trkpt><trkpt lat="40.98667" lon="16.6285967"><ele>308.0</ele><time>2026-04-19T07:06:32.633Z</time></trkpt><trkpt lat="40.986575" lon="16.628695"><ele>308.0</ele><time>2026-04-19T07:06:34.634Z</time></trkpt><trkpt lat="40.986515" lon="16.6288367"><ele>308.0</ele><time>2026-04-19T07:06:36.633Z</time></trkpt><trkpt lat="40.9864633" lon="16.6289183"><ele>307.83333333333337</ele><time>2026-04-19T07:06:38.635Z</time></trkpt><trkpt lat="40.9863783" lon="16.6289133"><ele>307.6666666666667</ele><time>2026-04-19T07:06:40.633Z</time></trkpt><trkpt lat="40.986265" lon="16.62886"><ele>307.5</ele><time>2026-04-19T07:06:42.633Z</time></trkpt><trkpt lat="40.9862" lon="16.6288317"><ele>307.3333333333333</ele><time>2026-04-19T07:06:43.633Z</time></trkpt><trkpt lat="40.9861267" lon="16.6288117"><ele>307.16666666666663</ele><time>2026-04-19T07:06:44.633Z</time></trkpt><trkpt lat="40.9860467" lon="16.628795"><ele>307.0</ele><time>2026-04-19T07:06:45.633Z</time></trkpt><trkpt lat="40.9859667" lon="16.62878"><ele>307.0</ele><time>2026-04-19T07:06:46.634Z</time></trkpt><trkpt lat="40.9858917" lon="16.628765"><ele>307.0</ele><time>2026-04-19T07:06:47.633Z</time></trkpt><trkpt lat="40.9858183" lon="16.6287583"><ele>307.0</ele><time>2026-04-19T07:06:48.635Z</time></trkpt><trkpt lat="40.9857433" lon="16.6287683"><ele>307.0</ele><time>2026-04-19T07:06:49.633Z</time></trkpt><trkpt lat="40.9856667" lon="16.6287967"><ele>307.0</ele><time>2026-04-19T07:06:50.634Z</time></trkpt><trkpt lat="40.9855883" lon="16.6288317"><ele>307.0</ele><time>2026-04-19T07:06:51.634Z</time></trkpt><trkpt lat="40.9855083" lon="16.6288733"><ele>307.16666666666663</ele><time>2026-04-19T07:06:52.633Z</time></trkpt><trkpt lat="40.985435" lon="16.6289183"><ele>307.3333333333333</ele><time>2026-04-19T07:06:53.635Z</time></trkpt><trkpt lat="40.9853667" lon="16.6289683"><ele>307.5</ele><time>2026-04-19T07:06:54.634Z</time></trkpt><trkpt lat="40.9853117" lon="16.6290133"><ele>307.6666666666667</ele><time>2026-04-19T07:06:55.633Z</time></trkpt><trkpt lat="40.98523" lon="16.6290483"><ele>307.83333333333337</ele><time>2026-04-19T07:06:57.634Z</time></trkpt><trkpt lat="40.9851533" lon="16.6290033"><ele>308.0</ele><time>2026-04-19T07:06:59.633Z</time></trkpt><trkpt lat="40.9850617" lon="16.628965"><ele>307.83333333333337</ele><time>2026-04-19T07:07:01.633Z</time></trkpt><trkpt lat="40.984995" lon="16.6290117"><ele>307.6666666666667</ele><time>2026-04-19T07:07:03.633Z</time></trkpt><trkpt lat="40.9849117" lon="16.6290683"><ele>307.5</ele><time>2026-04-19T07:07:05.634Z</time></trkpt><trkpt lat="40.9847917" lon="16.6291333"><ele>307.3333333333333</ele><time>2026-04-19T07:07:07.633Z</time></trkpt><trkpt lat="40.98473" lon="16.6291867"><ele>307.16666666666663</ele><time>2026-04-19T07:07:08.633Z</time></trkpt><trkpt lat="40.9846717" lon="16.6292433"><ele>307.0</ele><time>2026-04-19T07:07:09.634Z</time></trkpt><trkpt lat="40.98462" lon="16.629295"><ele>307.0</ele><time>2026-04-19T07:07:10.633Z</time></trkpt><trkpt lat="40.984575" lon="16.629355"><ele>307.0</ele><time>2026-04-19T07:07:11.633Z</time></trkpt><trkpt lat="40.9845333" lon="16.629425"><ele>307.0</ele><time>2026-04-19T07:07:12.633Z</time></trkpt><trkpt lat="40.9844933" lon="16.62951"><ele>307.0</ele><time>2026-04-19T07:07:13.633Z</time></trkpt><trkpt lat="40.9844517" lon="16.6296083"><ele>307.0</ele><time>2026-04-19T07:07:14.634Z</time></trkpt><trkpt lat="40.9844133" lon="16.6296983"><ele>307.0</ele><time>2026-04-19T07:07:15.633Z</time></trkpt><trkpt lat="40.98435" lon="16.629815"><ele>306.8</ele><time>2026-04-19T07:07:17.633Z</time></trkpt><trkpt lat="40.9842683" lon="16.6298733"><ele>306.6</ele><time>2026-04-19T07:07:19.634Z</time></trkpt><trkpt lat="40.98415" lon="16.6299167"><ele>306.40000000000003</ele><time>2026-04-19T07:07:21.634Z</time></trkpt><trkpt lat="40.9840333" lon="16.6299633"><ele>306.2</ele><time>2026-04-19T07:07:23.635Z</time></trkpt><trkpt lat="40.98394" lon="16.6300117"><ele>306.0</ele><time>2026-04-19T07:07:25.634Z</time></trkpt><trkpt lat="40.9838417" lon="16.630045"><ele>305.8</ele><time>2026-04-19T07:07:27.634Z</time></trkpt><trkpt lat="40.9837233" lon="16.6300717"><ele>305.6</ele><time>2026-04-19T07:07:29.633Z</time></trkpt><trkpt lat="40.983625" lon="16.6301017"><ele>305.4</ele><time>2026-04-19T07:07:31.633Z</time></trkpt><trkpt lat="40.98356" lon="16.6301217"><ele>305.2</ele><time>2026-04-19T07:07:33.635Z</time></trkpt><trkpt lat="40.9835217" lon="16.630025"><ele>305.0</ele><time>2026-04-19T07:07:37.633Z</time></trkpt><trkpt lat="40.9835467" lon="16.62992"><ele>305.0</ele><time>2026-04-19T07:07:39.635Z</time></trkpt><trkpt lat="40.983575" lon="16.62979"><ele>305.0</ele><time>2026-04-19T07:07:41.633Z</time></trkpt><trkpt lat="40.9835983" lon="16.629675"><ele>305.0</ele><time>2026-04-19T07:07:43.634Z</time></trkpt><trkpt lat="40.983615" lon="16.6295933"><ele>305.0</ele><time>2026-04-19T07:07:45.633Z</time></trkpt><trkpt lat="40.9836283" lon="16.6295017"><ele>305.0</ele><time>2026-04-19T07:07:47.632Z</time></trkpt><trkpt lat="40.9836417" lon="16.629375"><ele>305.0</ele><time>2026-04-19T07:07:49.633Z</time></trkpt><trkpt lat="40.983665" lon="16.6292433"><ele>305.0</ele><time>2026-04-19T07:07:51.633Z</time></trkpt><trkpt lat="40.9836883" lon="16.6290967"><ele>305.0</ele><time>2026-04-19T07:07:53.632Z</time></trkpt><trkpt lat="40.9836983" lon="16.62897"><ele>305.0</ele><time>2026-04-19T07:07:55.633Z</time></trkpt><trkpt lat="40.9837112" lon="16.6288361"><ele>305.0</ele><time>2026-04-19T07:07:57.633Z</time></trkpt><trkpt lat="40.9837337" lon="16.6287159"><ele>305.0</ele><time>2026-04-19T07:07:59.634Z</time></trkpt><trkpt lat="40.9837427" lon="16.6285917"><ele>305.0</ele><time>2026-04-19T07:08:01.633Z</time></trkpt><trkpt lat="40.9837412" lon="16.6284489"><ele>305.0</ele><time>2026-04-19T07:08:03.636Z</time></trkpt><trkpt lat="40.9837279" lon="16.6282948"><ele>305.0</ele><time>2026-04-19T07:08:05.633Z</time></trkpt><trkpt lat="40.9837101" lon="16.6281423"><ele>305.0</ele><time>2026-04-19T07:08:07.634Z</time></trkpt><trkpt lat="40.9837007" lon="16.628058"><ele>305.0</ele><time>2026-04-19T07:08:08.633Z</time></trkpt><trkpt lat="40.9836874" lon="16.6279685"><ele>305.0</ele><time>2026-04-19T07:08:09.633Z</time></trkpt><trkpt lat="40.9836804" lon="16.6278834"><ele>305.0</ele><time>2026-04-19T07:08:10.633Z</time></trkpt><trkpt lat="40.9836761" lon="16.6277343"><ele>305.0</ele><time>2026-04-19T07:08:12.633Z</time></trkpt><trkpt lat="40.9836748" lon="16.6275755"><ele>305.0</ele><time>2026-04-19T07:08:14.634Z</time></trkpt><trkpt lat="40.9836576" lon="16.6274481"><ele>305.0</ele><time>2026-04-19T07:08:16.636Z</time></trkpt><trkpt lat="40.9836141" lon="16.6273182"><ele>305.2</ele><time>2026-04-19T07:08:18.633Z</time></trkpt><trkpt lat="40.9835628" lon="16.6271978"><ele>305.4</ele><time>2026-04-19T07:08:20.633Z</time></trkpt><trkpt lat="40.9835182" lon="16.6270608"><ele>305.6</ele><time>2026-04-19T07:08:22.633Z</time></trkpt><trkpt lat="40.9834677" lon="16.6269117"><ele>305.8</ele><time>2026-04-19T07:08:24.639Z</time></trkpt><trkpt lat="40.9834309" lon="16.626838"><ele>306.0</ele><time>2026-04-19T07:08:25.633Z</time></trkpt><trkpt lat="40.9833943" lon="16.6267689"><ele>306.2</ele><time>2026-04-19T07:08:26.633Z</time></trkpt><trkpt lat="40.9833308" lon="16.6266532"><ele>306.40000000000003</ele><time>2026-04-19T07:08:28.634Z</time></trkpt><trkpt lat="40.9832921" lon="16.6265854"><ele>306.6</ele><time>2026-04-19T07:08:29.633Z</time></trkpt><trkpt lat="40.9832536" lon="16.6265156"><ele>306.8</ele><time>2026-04-19T07:08:30.633Z</time></trkpt><trkpt lat="40.983187" lon="16.6263913"><ele>307.0</ele><time>2026-04-19T07:08:32.635Z</time></trkpt><trkpt lat="40.983135" lon="16.6262773"><ele>307.0</ele><time>2026-04-19T07:08:34.633Z</time></trkpt><trkpt lat="40.9831038" lon="16.6261812"><ele>307.0</ele><time>2026-04-19T07:08:36.636Z</time></trkpt><trkpt lat="40.9830729" lon="16.6260626"><ele>307.0</ele><time>2026-04-19T07:08:38.633Z</time></trkpt><trkpt lat="40.9830259" lon="16.6259188"><ele>307.0</ele><time>2026-04-19T07:08:40.635Z</time></trkpt><trkpt lat="40.9829991" lon="16.6258377"><ele>307.0</ele><time>2026-04-19T07:08:41.635Z</time></trkpt><trkpt lat="40.9829746" lon="16.6257588"><ele>307.0</ele><time>2026-04-19T07:08:42.633Z</time></trkpt><trkpt lat="40.9829301" lon="16.6256166"><ele>307.2857142857143</ele><time>2026-04-19T07:08:44.633Z</time></trkpt><trkpt lat="40.982906" lon="16.6255355"><ele>307.57142857142856</ele><time>2026-04-19T07:08:45.633Z</time></trkpt><trkpt lat="40.9828811" lon="16.6254538"><ele>307.8571428571429</ele><time>2026-04-19T07:08:46.633Z</time></trkpt><trkpt lat="40.9828564" lon="16.625377"><ele>308.1428571428571</ele><time>2026-04-19T07:08:47.633Z</time></trkpt><trkpt lat="40.9828208" lon="16.6252559"><ele>308.42857142857144</ele><time>2026-04-19T07:08:49.633Z</time></trkpt><trkpt lat="40.9827967" lon="16.6251621"><ele>308.7142857142857</ele><time>2026-04-19T07:08:51.633Z</time></trkpt><trkpt lat="40.982766" lon="16.6250629"><ele>309.0</ele><time>2026-04-19T07:08:53.634Z</time></trkpt><trkpt lat="40.9827049" lon="16.6249391"><ele>309.3333333333333</ele><time>2026-04-19T07:08:55.633Z</time></trkpt><trkpt lat="40.9826557" lon="16.6248641"><ele>309.6666666666667</ele><time>2026-04-19T07:08:56.635Z</time></trkpt><trkpt lat="40.9825988" lon="16.6247889"><ele>310.0</ele><time>2026-04-19T07:08:57.633Z</time></trkpt><trkpt lat="40.9825444" lon="16.6247172"><ele>310.33333333333337</ele><time>2026-04-19T07:08:58.634Z</time></trkpt><trkpt lat="40.9824982" lon="16.6246534"><ele>310.6666666666667</ele><time>2026-04-19T07:08:59.633Z</time></trkpt><trkpt lat="40.9824227" lon="16.6245459"><ele>311.0</ele><time>2026-04-19T07:09:01.633Z</time></trkpt><trkpt lat="40.9823714" lon="16.6244576"><ele>311.5</ele><time>2026-04-19T07:09:04.688Z</time></trkpt><trkpt lat="40.9823432" lon="16.6243723"><ele>312.0</ele><time>2026-04-19T07:09:05.628Z</time></trkpt><trkpt lat="40.9823048" lon="16.624222"><ele>312.5</ele><time>2026-04-19T07:09:07.633Z</time></trkpt><trkpt lat="40.9822814" lon="16.6241395"><ele>313.0</ele><time>2026-04-19T07:09:08.633Z</time></trkpt><trkpt lat="40.9822558" lon="16.6240559"><ele>313.5</ele><time>2026-04-19T07:09:09.633Z</time></trkpt><trkpt lat="40.9822328" lon="16.6239695"><ele>314.0</ele><time>2026-04-19T07:09:10.633Z</time></trkpt><trkpt lat="40.9822107" lon="16.6238756"><ele>313.99999999999994</ele><time>2026-04-19T07:09:11.633Z</time></trkpt><trkpt lat="40.9821891" lon="16.623778"><ele>314.0</ele><time>2026-04-19T07:09:12.633Z</time></trkpt><trkpt lat="40.9821663" lon="16.623686"><ele>314.0</ele><time>2026-04-19T07:09:13.633Z</time></trkpt><trkpt lat="40.9821417" lon="16.623605"><ele>314.0</ele><time>2026-04-19T07:09:14.634Z</time></trkpt><trkpt lat="40.9821183" lon="16.623525"><ele>314.0</ele><time>2026-04-19T07:09:15.632Z</time></trkpt><trkpt lat="40.9820917" lon="16.6234483"><ele>313.99999999999994</ele><time>2026-04-19T07:09:16.633Z</time></trkpt><trkpt lat="40.9820617" lon="16.6233717"><ele>314.0</ele><time>2026-04-19T07:09:17.633Z</time></trkpt><trkpt lat="40.98203" lon="16.62329"><ele>314.1666666666667</ele><time>2026-04-19T07:09:18.633Z</time></trkpt><trkpt lat="40.9820017" lon="16.6232"><ele>314.33333333333337</ele><time>2026-04-19T07:09:19.633Z</time></trkpt><trkpt lat="40.9819767" lon="16.6231017"><ele>314.5</ele><time>2026-04-19T07:09:20.633Z</time></trkpt><trkpt lat="40.9819567" lon="16.6230033"><ele>314.6666666666667</ele><time>2026-04-19T07:09:21.633Z</time></trkpt><trkpt lat="40.9819383" lon="16.62291"><ele>314.8333333333333</ele><time>2026-04-19T07:09:22.633Z</time></trkpt><trkpt lat="40.9819267" lon="16.62281"><ele>315.0</ele><time>2026-04-19T07:09:23.633Z</time></trkpt><trkpt lat="40.9819167" lon="16.6227133"><ele>315.0</ele><time>2026-04-19T07:09:24.633Z</time></trkpt><trkpt lat="40.9819033" lon="16.6226233"><ele>315.0</ele><time>2026-04-19T07:09:25.634Z</time></trkpt><trkpt lat="40.9818883" lon="16.6225317"><ele>315.0</ele><time>2026-04-19T07:09:26.633Z</time></trkpt><trkpt lat="40.9818767" lon="16.6224383"><ele>315.0</ele><time>2026-04-19T07:09:27.634Z</time></trkpt><trkpt lat="40.9818717" lon="16.6223433"><ele>315.0</ele><time>2026-04-19T07:09:28.633Z</time></trkpt><trkpt lat="40.9818633" lon="16.6222483"><ele>315.0</ele><time>2026-04-19T07:09:29.632Z</time></trkpt><trkpt lat="40.9818483" lon="16.6221433"><ele>315.0</ele><time>2026-04-19T07:09:30.633Z</time></trkpt><trkpt lat="40.981825" lon="16.622025"><ele>315.1666666666667</ele><time>2026-04-19T07:09:31.634Z</time></trkpt><trkpt lat="40.981795" lon="16.62191"><ele>315.3333333333333</ele><time>2026-04-19T07:09:32.633Z</time></trkpt><trkpt lat="40.9817617" lon="16.6218133"><ele>315.5</ele><time>2026-04-19T07:09:33.633Z</time></trkpt><trkpt lat="40.9817183" lon="16.6217183"><ele>315.66666666666663</ele><time>2026-04-19T07:09:34.634Z</time></trkpt><trkpt lat="40.9816717" lon="16.6216233"><ele>315.8333333333333</ele><time>2026-04-19T07:09:35.633Z</time></trkpt><trkpt lat="40.981625" lon="16.6215333"><ele>316.0</ele><time>2026-04-19T07:09:36.633Z</time></trkpt><trkpt lat="40.981575" lon="16.6214383"><ele>316.0</ele><time>2026-04-19T07:09:37.634Z</time></trkpt><trkpt lat="40.9815267" lon="16.6213383"><ele>316.0</ele><time>2026-04-19T07:09:38.633Z</time></trkpt><trkpt lat="40.9814767" lon="16.62123"><ele>316.0</ele><time>2026-04-19T07:09:39.633Z</time></trkpt><trkpt lat="40.9814283" lon="16.6211133"><ele>316.0</ele><time>2026-04-19T07:09:40.633Z</time></trkpt><trkpt lat="40.9813817" lon="16.621"><ele>316.0</ele><time>2026-04-19T07:09:41.633Z</time></trkpt><trkpt lat="40.9813367" lon="16.6208917"><ele>316.0</ele><time>2026-04-19T07:09:42.633Z</time></trkpt><trkpt lat="40.981295" lon="16.6207783"><ele>316.0</ele><time>2026-04-19T07:09:43.634Z</time></trkpt><trkpt lat="40.981255" lon="16.6206617"><ele>316.0</ele><time>2026-04-19T07:09:44.633Z</time></trkpt><trkpt lat="40.981215" lon="16.6205417"><ele>316.0</ele><time>2026-04-19T07:09:45.633Z</time></trkpt><trkpt lat="40.9811733" lon="16.62042"><ele>316.0</ele><time>2026-04-19T07:09:46.634Z</time></trkpt><trkpt lat="40.9811317" lon="16.6202933"><ele>316.0</ele><time>2026-04-19T07:09:47.633Z</time></trkpt><trkpt lat="40.9810883" lon="16.6201633"><ele>316.0</ele><time>2026-04-19T07:09:48.633Z</time></trkpt><trkpt lat="40.981045" lon="16.6200317"><ele>316.0</ele><time>2026-04-19T07:09:49.635Z</time></trkpt><trkpt lat="40.9810033" lon="16.619905"><ele>316.0</ele><time>2026-04-19T07:09:50.633Z</time></trkpt><trkpt lat="40.980965" lon="16.61979"><ele>316.0</ele><time>2026-04-19T07:09:51.634Z</time></trkpt><trkpt lat="40.9809233" lon="16.61967"><ele>316.0</ele><time>2026-04-19T07:09:52.634Z</time></trkpt><trkpt lat="40.9808867" lon="16.6195567"><ele>316.0</ele><time>2026-04-19T07:09:53.633Z</time></trkpt><trkpt lat="40.9808517" lon="16.61945"><ele>316.0</ele><time>2026-04-19T07:09:54.634Z</time></trkpt><trkpt lat="40.9808183" lon="16.6193467"><ele>316.0</ele><time>2026-04-19T07:09:55.633Z</time></trkpt><trkpt lat="40.980785" lon="16.619235"><ele>316.0</ele><time>2026-04-19T07:09:56.633Z</time></trkpt><trkpt lat="40.980755" lon="16.6191267"><ele>316.0</ele><time>2026-04-19T07:09:57.633Z</time></trkpt><trkpt lat="40.9807267" lon="16.6190233"><ele>316.0</ele><time>2026-04-19T07:09:58.633Z</time></trkpt><trkpt lat="40.980695" lon="16.6189367"><ele>316.0</ele><time>2026-04-19T07:09:59.633Z</time></trkpt><trkpt lat="40.9806617" lon="16.6188567"><ele>316.0</ele><time>2026-04-19T07:10:00.634Z</time></trkpt><trkpt lat="40.9806333" lon="16.61878"><ele>316.0</ele><time>2026-04-19T07:10:01.633Z</time></trkpt><trkpt lat="40.9805883" lon="16.61863"><ele>316.0</ele><time>2026-04-19T07:10:03.633Z</time></trkpt><trkpt lat="40.9805433" lon="16.6184983"><ele>316.0</ele><time>2026-04-19T07:10:05.635Z</time></trkpt><trkpt lat="40.980495" lon="16.6184133"><ele>316.0</ele><time>2026-04-19T07:10:07.633Z</time></trkpt><trkpt lat="40.9804717" lon="16.6183033"><ele>316.0</ele><time>2026-04-19T07:10:09.633Z</time></trkpt><trkpt lat="40.9804517" lon="16.6181267"><ele>316.0</ele><time>2026-04-19T07:10:11.633Z</time></trkpt><trkpt lat="40.9804383" lon="16.618025"><ele>316.0</ele><time>2026-04-19T07:10:12.633Z</time></trkpt><trkpt lat="40.980425" lon="16.6179133"><ele>316.0</ele><time>2026-04-19T07:10:13.634Z</time></trkpt><trkpt lat="40.98041" lon="16.6178033"><ele>315.8333333333333</ele><time>2026-04-19T07:10:14.636Z</time></trkpt><trkpt lat="40.9803983" lon="16.6177017"><ele>315.66666666666663</ele><time>2026-04-19T07:10:15.633Z</time></trkpt><trkpt lat="40.980395" lon="16.6175933"><ele>315.5</ele><time>2026-04-19T07:10:16.633Z</time></trkpt><trkpt lat="40.980395" lon="16.6174783"><ele>315.3333333333333</ele><time>2026-04-19T07:10:17.633Z</time></trkpt><trkpt lat="40.980395" lon="16.6173633"><ele>315.1666666666667</ele><time>2026-04-19T07:10:18.634Z</time></trkpt><trkpt lat="40.980395" lon="16.61724"><ele>315.0</ele><time>2026-04-19T07:10:19.633Z</time></trkpt><trkpt lat="40.980395" lon="16.61711"><ele>315.0</ele><time>2026-04-19T07:10:20.633Z</time></trkpt><trkpt lat="40.9803983" lon="16.6169867"><ele>315.0</ele><time>2026-04-19T07:10:21.634Z</time></trkpt><trkpt lat="40.9803983" lon="16.6168717"><ele>315.0</ele><time>2026-04-19T07:10:22.633Z</time></trkpt><trkpt lat="40.9803933" lon="16.6167567"><ele>315.0</ele><time>2026-04-19T07:10:23.633Z</time></trkpt><trkpt lat="40.9803833" lon="16.6166367"><ele>315.0</ele><time>2026-04-19T07:10:24.633Z</time></trkpt><trkpt lat="40.9803733" lon="16.6165117"><ele>314.6666666666667</ele><time>2026-04-19T07:10:25.633Z</time></trkpt><trkpt lat="40.9803633" lon="16.6163917"><ele>314.3333333333333</ele><time>2026-04-19T07:10:26.636Z</time></trkpt><trkpt lat="40.9803567" lon="16.6162783"><ele>314.0</ele><time>2026-04-19T07:10:27.633Z</time></trkpt><trkpt lat="40.980345" lon="16.6161733"><ele>313.66666666666663</ele><time>2026-04-19T07:10:28.634Z</time></trkpt><trkpt lat="40.980335" lon="16.6160717"><ele>313.3333333333333</ele><time>2026-04-19T07:10:29.635Z</time></trkpt><trkpt lat="40.9803317" lon="16.6159667"><ele>313.0</ele><time>2026-04-19T07:10:30.633Z</time></trkpt><trkpt lat="40.9803283" lon="16.6158683"><ele>313.0</ele><time>2026-04-19T07:10:31.635Z</time></trkpt><trkpt lat="40.9803283" lon="16.6157767"><ele>313.0</ele><time>2026-04-19T07:10:32.634Z</time></trkpt><trkpt lat="40.9803267" lon="16.6156867"><ele>313.0</ele><time>2026-04-19T07:10:33.633Z</time></trkpt><trkpt lat="40.980335" lon="16.615535"><ele>313.0</ele><time>2026-04-19T07:10:35.634Z</time></trkpt><trkpt lat="40.980345" lon="16.6154017"><ele>313.0</ele><time>2026-04-19T07:10:37.633Z</time></trkpt><trkpt lat="40.9803567" lon="16.615295"><ele>313.0</ele><time>2026-04-19T07:10:39.633Z</time></trkpt><trkpt lat="40.9803583" lon="16.6151933"><ele>313.0</ele><time>2026-04-19T07:10:41.634Z</time></trkpt><trkpt lat="40.9803017" lon="16.6151433"><ele>313.0</ele><time>2026-04-19T07:10:44.633Z</time></trkpt><trkpt lat="40.9802067" lon="16.6152317"><ele>313.0</ele><time>2026-04-19T07:10:47.633Z</time></trkpt><trkpt lat="40.980155" lon="16.6152933"><ele>313.0</ele><time>2026-04-19T07:10:48.633Z</time></trkpt><trkpt lat="40.9800967" lon="16.6153617"><ele>313.0</ele><time>2026-04-19T07:10:49.634Z</time></trkpt><trkpt lat="40.9800283" lon="16.61544"><ele>313.0</ele><time>2026-04-19T07:10:50.633Z</time></trkpt><trkpt lat="40.9799517" lon="16.6155233"><ele>313.6</ele><time>2026-04-19T07:10:51.633Z</time></trkpt><trkpt lat="40.9798717" lon="16.61561"><ele>314.20000000000005</ele><time>2026-04-19T07:10:52.633Z</time></trkpt><trkpt lat="40.9797867" lon="16.6156983"><ele>314.8</ele><time>2026-04-19T07:10:53.634Z</time></trkpt><trkpt lat="40.9797" lon="16.61579"><ele>315.40000000000003</ele><time>2026-04-19T07:10:54.633Z</time></trkpt><trkpt lat="40.9796083" lon="16.6158867"><ele>316.0</ele><time>2026-04-19T07:10:55.633Z</time></trkpt><trkpt lat="40.97951" lon="16.61599"><ele>316.0</ele><time>2026-04-19T07:10:56.634Z</time></trkpt><trkpt lat="40.97941" lon="16.6160967"><ele>316.0</ele><time>2026-04-19T07:10:57.634Z</time></trkpt><trkpt lat="40.9793083" lon="16.6162067"><ele>316.0</ele><time>2026-04-19T07:10:58.633Z</time></trkpt><trkpt lat="40.9792117" lon="16.6163117"><ele>316.0</ele><time>2026-04-19T07:10:59.634Z</time></trkpt><trkpt lat="40.97912" lon="16.6164167"><ele>316.40000000000003</ele><time>2026-04-19T07:11:00.634Z</time></trkpt><trkpt lat="40.9790267" lon="16.6165217"><ele>316.8</ele><time>2026-04-19T07:11:01.633Z</time></trkpt><trkpt lat="40.9789417" lon="16.616615"><ele>317.20000000000005</ele><time>2026-04-19T07:11:02.633Z</time></trkpt><trkpt lat="40.9788583" lon="16.616705"><ele>317.6</ele><time>2026-04-19T07:11:03.633Z</time></trkpt><trkpt lat="40.9787783" lon="16.6167883"><ele>318.0</ele><time>2026-04-19T07:11:04.633Z</time></trkpt><trkpt lat="40.978695" lon="16.616885"><ele>318.0</ele><time>2026-04-19T07:11:05.633Z</time></trkpt><trkpt lat="40.9786067" lon="16.616995"><ele>318.0</ele><time>2026-04-19T07:11:06.633Z</time></trkpt><trkpt lat="40.9785183" lon="16.6171183"><ele>318.0</ele><time>2026-04-19T07:11:07.636Z</time></trkpt><trkpt lat="40.9784233" lon="16.6172483"><ele>318.0</ele><time>2026-04-19T07:11:08.633Z</time></trkpt><trkpt lat="40.9783217" lon="16.6173917"><ele>318.6666666666667</ele><time>2026-04-19T07:11:09.634Z</time></trkpt><trkpt lat="40.9782133" lon="16.6175467"><ele>319.33333333333337</ele><time>2026-04-19T07:11:10.633Z</time></trkpt><trkpt lat="40.9781067" lon="16.6177017"><ele>320.0</ele><time>2026-04-19T07:11:11.633Z</time></trkpt><trkpt lat="40.9780067" lon="16.6178483"><ele>320.0</ele><time>2026-04-19T07:11:12.633Z</time></trkpt><trkpt lat="40.977915" lon="16.6179783"><ele>320.0</ele><time>2026-04-19T07:11:13.634Z</time></trkpt><trkpt lat="40.9778383" lon="16.6180883"><ele>320.0</ele><time>2026-04-19T07:11:14.634Z</time></trkpt><trkpt lat="40.9777683" lon="16.6181767"><ele>320.0</ele><time>2026-04-19T07:11:15.633Z</time></trkpt><trkpt lat="40.97769" lon="16.6182533"><ele>320.0</ele><time>2026-04-19T07:11:16.633Z</time></trkpt><trkpt lat="40.977595" lon="16.6183167"><ele>320.4</ele><time>2026-04-19T07:11:17.634Z</time></trkpt><trkpt lat="40.977495" lon="16.6183717"><ele>320.8</ele><time>2026-04-19T07:11:18.633Z</time></trkpt><trkpt lat="40.9774033" lon="16.6184267"><ele>321.20000000000005</ele><time>2026-04-19T07:11:19.635Z</time></trkpt><trkpt lat="40.977325" lon="16.6184833"><ele>321.6</ele><time>2026-04-19T07:11:20.635Z</time></trkpt><trkpt lat="40.97726" lon="16.618555"><ele>322.0</ele><time>2026-04-19T07:11:21.633Z</time></trkpt><trkpt lat="40.9772067" lon="16.6186433"><ele>322.25</ele><time>2026-04-19T07:11:22.633Z</time></trkpt><trkpt lat="40.9771633" lon="16.6187667"><ele>322.5</ele><time>2026-04-19T07:11:23.634Z</time></trkpt><trkpt lat="40.977115" lon="16.6189233"><ele>322.75</ele><time>2026-04-19T07:11:24.633Z</time></trkpt><trkpt lat="40.9770617" lon="16.6191033"><ele>323.0</ele><time>2026-04-19T07:11:25.633Z</time></trkpt><trkpt lat="40.976995" lon="16.6193017"><ele>323.0</ele><time>2026-04-19T07:11:26.633Z</time></trkpt><trkpt lat="40.97692" lon="16.6195117"><ele>323.0</ele><time>2026-04-19T07:11:27.633Z</time></trkpt><trkpt lat="40.9768383" lon="16.6197367"><ele>323.0</ele><time>2026-04-19T07:11:28.633Z</time></trkpt><trkpt lat="40.9767583" lon="16.619965"><ele>323.0</ele><time>2026-04-19T07:11:29.633Z</time></trkpt><trkpt lat="40.9766867" lon="16.62018"><ele>323.0</ele><time>2026-04-19T07:11:30.633Z</time></trkpt><trkpt lat="40.9766217" lon="16.620385"><ele>323.0</ele><time>2026-04-19T07:11:31.633Z</time></trkpt><trkpt lat="40.9765683" lon="16.6205783"><ele>323.0</ele><time>2026-04-19T07:11:32.634Z</time></trkpt><trkpt lat="40.9765233" lon="16.6207617"><ele>323.0</ele><time>2026-04-19T07:11:33.633Z</time></trkpt><trkpt lat="40.9764833" lon="16.6209333"><ele>323.0</ele><time>2026-04-19T07:11:34.633Z</time></trkpt><trkpt lat="40.976445" lon="16.6210967"><ele>323.0</ele><time>2026-04-19T07:11:35.633Z</time></trkpt><trkpt lat="40.9764033" lon="16.6212517"><ele>323.0</ele><time>2026-04-19T07:11:36.634Z</time></trkpt><trkpt lat="40.976365" lon="16.6214017"><ele>323.0</ele><time>2026-04-19T07:11:37.633Z</time></trkpt><trkpt lat="40.9763383" lon="16.6215383"><ele>323.0</ele><time>2026-04-19T07:11:38.633Z</time></trkpt><trkpt lat="40.97632" lon="16.6216583"><ele>323.0</ele><time>2026-04-19T07:11:39.633Z</time></trkpt><trkpt lat="40.9763133" lon="16.6217417"><ele>323.0</ele><time>2026-04-19T07:11:40.633Z</time></trkpt><trkpt lat="40.9762967" lon="16.62187"><ele>323.0</ele><time>2026-04-19T07:11:42.633Z</time></trkpt><trkpt lat="40.9762117" lon="16.6218617"><ele>323.0</ele><time>2026-04-19T07:11:46.635Z</time></trkpt><trkpt lat="40.9761833" lon="16.621725"><ele>323.0</ele><time>2026-04-19T07:11:48.633Z</time></trkpt><trkpt lat="40.97617" lon="16.6216383"><ele>323.0</ele><time>2026-04-19T07:11:49.635Z</time></trkpt><trkpt lat="40.9761533" lon="16.6215367"><ele>323.0</ele><time>2026-04-19T07:11:50.634Z</time></trkpt><trkpt lat="40.97613" lon="16.6214117"><ele>323.0</ele><time>2026-04-19T07:11:51.633Z</time></trkpt><trkpt lat="40.9761" lon="16.6212717"><ele>323.25</ele><time>2026-04-19T07:11:52.633Z</time></trkpt><trkpt lat="40.976065" lon="16.6211167"><ele>323.5</ele><time>2026-04-19T07:11:53.634Z</time></trkpt><trkpt lat="40.97603" lon="16.6209383"><ele>323.75</ele><time>2026-04-19T07:11:54.633Z</time></trkpt><trkpt lat="40.9759917" lon="16.62074"><ele>324.0</ele><time>2026-04-19T07:11:55.634Z</time></trkpt><trkpt lat="40.97595" lon="16.6205317"><ele>324.3333333333333</ele><time>2026-04-19T07:11:56.705Z</time></trkpt><trkpt lat="40.97591" lon="16.62031"><ele>324.66666666666663</ele><time>2026-04-19T07:11:57.633Z</time></trkpt><trkpt lat="40.975865" lon="16.62008"><ele>325.0</ele><time>2026-04-19T07:11:58.634Z</time></trkpt><trkpt lat="40.975815" lon="16.6198383"><ele>325.66666666666663</ele><time>2026-04-19T07:11:59.633Z</time></trkpt><trkpt lat="40.975765" lon="16.61959"><ele>326.3333333333333</ele><time>2026-04-19T07:12:00.633Z</time></trkpt><trkpt lat="40.9757117" lon="16.619335"><ele>327.0</ele><time>2026-04-19T07:12:01.633Z</time></trkpt><trkpt lat="40.975655" lon="16.6190733"><ele>327.0</ele><time>2026-04-19T07:12:02.634Z</time></trkpt><trkpt lat="40.9756017" lon="16.6188117"><ele>327.0</ele><time>2026-04-19T07:12:03.633Z</time></trkpt><trkpt lat="40.9755517" lon="16.6185583"><ele>327.0</ele><time>2026-04-19T07:12:04.635Z</time></trkpt><trkpt lat="40.9755017" lon="16.618305"><ele>327.0</ele><time>2026-04-19T07:12:05.633Z</time></trkpt><trkpt lat="40.9754517" lon="16.61805"><ele>327.0</ele><time>2026-04-19T07:12:06.633Z</time></trkpt><trkpt lat="40.975405" lon="16.6178117"><ele>327.0</ele><time>2026-04-19T07:12:07.633Z</time></trkpt><trkpt lat="40.9753617" lon="16.617585"><ele>327.0</ele><time>2026-04-19T07:12:08.634Z</time></trkpt><trkpt lat="40.9753217" lon="16.6173767"><ele>327.0</ele><time>2026-04-19T07:12:09.633Z</time></trkpt><trkpt lat="40.97528" lon="16.6171817"><ele>327.0</ele><time>2026-04-19T07:12:10.634Z</time></trkpt><trkpt lat="40.9752267" lon="16.6169917"><ele>326.6666666666667</ele><time>2026-04-19T07:12:11.633Z</time></trkpt><trkpt lat="40.9751517" lon="16.6167967"><ele>326.33333333333337</ele><time>2026-04-19T07:12:12.633Z</time></trkpt><trkpt lat="40.9750583" lon="16.6165933"><ele>326.0</ele><time>2026-04-19T07:12:13.634Z</time></trkpt><trkpt lat="40.9749533" lon="16.6163833"><ele>326.0</ele><time>2026-04-19T07:12:14.634Z</time></trkpt><trkpt lat="40.9748417" lon="16.6161633"><ele>326.0</ele><time>2026-04-19T07:12:15.633Z</time></trkpt><trkpt lat="40.974725" lon="16.615935"><ele>326.0</ele><time>2026-04-19T07:12:16.633Z</time></trkpt><trkpt lat="40.9746067" lon="16.615705"><ele>325.33333333333337</ele><time>2026-04-19T07:12:17.634Z</time></trkpt><trkpt lat="40.97449" lon="16.6154867"><ele>324.6666666666667</ele><time>2026-04-19T07:12:18.633Z</time></trkpt><trkpt lat="40.974375" lon="16.6152667"><ele>324.0</ele><time>2026-04-19T07:12:19.634Z</time></trkpt><trkpt lat="40.9742733" lon="16.6150533"><ele>323.75</ele><time>2026-04-19T07:12:20.634Z</time></trkpt><trkpt lat="40.97418" lon="16.61487"><ele>323.5</ele><time>2026-04-19T07:12:21.633Z</time></trkpt><trkpt lat="40.9741067" lon="16.6147267"><ele>323.25</ele><time>2026-04-19T07:12:22.633Z</time></trkpt><trkpt lat="40.97406" lon="16.61463"><ele>323.0</ele><time>2026-04-19T07:12:23.634Z</time></trkpt><trkpt lat="40.9740083" lon="16.6145333"><ele>323.00000000000006</ele><time>2026-04-19T07:12:25.633Z</time></trkpt><trkpt lat="40.9739467" lon="16.6145583"><ele>323.0</ele><time>2026-04-19T07:12:27.633Z</time></trkpt><trkpt lat="40.9738917" lon="16.6146183"><ele>323.0</ele><time>2026-04-19T07:12:28.633Z</time></trkpt><trkpt lat="40.9738383" lon="16.6146783"><ele>323.0</ele><time>2026-04-19T07:12:29.633Z</time></trkpt><trkpt lat="40.9737833" lon="16.6147333"><ele>323.0</ele><time>2026-04-19T07:12:30.633Z</time></trkpt><trkpt lat="40.9737267" lon="16.6147783"><ele>323.00000000000006</ele><time>2026-04-19T07:12:31.634Z</time></trkpt><trkpt lat="40.973665" lon="16.614805"><ele>323.0</ele><time>2026-04-19T07:12:32.634Z</time></trkpt><trkpt lat="40.97359" lon="16.61482"><ele>323.0</ele><time>2026-04-19T07:12:33.633Z</time></trkpt><trkpt lat="40.9735083" lon="16.6148267"><ele>323.0</ele><time>2026-04-19T07:12:34.633Z</time></trkpt><trkpt lat="40.973415" lon="16.6148267"><ele>323.0</ele><time>2026-04-19T07:12:35.633Z</time></trkpt><trkpt lat="40.973315" lon="16.6148083"><ele>323.0</ele><time>2026-04-19T07:12:36.634Z</time></trkpt><trkpt lat="40.9732083" lon="16.61477"><ele>323.0</ele><time>2026-04-19T07:12:37.633Z</time></trkpt><trkpt lat="40.973095" lon="16.6147183"><ele>323.25</ele><time>2026-04-19T07:12:38.633Z</time></trkpt><trkpt lat="40.972975" lon="16.6146583"><ele>323.5</ele><time>2026-04-19T07:12:39.636Z</time></trkpt><trkpt lat="40.9728583" lon="16.614585"><ele>323.75</ele><time>2026-04-19T07:12:40.634Z</time></trkpt><trkpt lat="40.9727333" lon="16.6145017"><ele>324.0</ele><time>2026-04-19T07:12:41.635Z</time></trkpt><trkpt lat="40.9725967" lon="16.61442"><ele>325.0</ele><time>2026-04-19T07:12:42.635Z</time></trkpt><trkpt lat="40.9724533" lon="16.6143417"><ele>326.0</ele><time>2026-04-19T07:12:43.634Z</time></trkpt><trkpt lat="40.9723167" lon="16.6142667"><ele>327.0</ele><time>2026-04-19T07:12:44.635Z</time></trkpt><trkpt lat="40.9721967" lon="16.6142"><ele>328.0</ele><time>2026-04-19T07:12:45.634Z</time></trkpt><trkpt lat="40.9720867" lon="16.6141367"><ele>328.0</ele><time>2026-04-19T07:12:46.634Z</time></trkpt><trkpt lat="40.9719833" lon="16.6140717"><ele>328.0</ele><time>2026-04-19T07:12:47.636Z</time></trkpt><trkpt lat="40.97188" lon="16.614"><ele>328.0</ele><time>2026-04-19T07:12:48.635Z</time></trkpt><trkpt lat="40.9717783" lon="16.613925"><ele>328.0</ele><time>2026-04-19T07:12:49.634Z</time></trkpt><trkpt lat="40.9716717" lon="16.6138433"><ele>328.5</ele><time>2026-04-19T07:12:50.636Z</time></trkpt><trkpt lat="40.9715617" lon="16.6137567"><ele>329.0</ele><time>2026-04-19T07:12:51.634Z</time></trkpt><trkpt lat="40.9714433" lon="16.61366"><ele>329.5</ele><time>2026-04-19T07:12:52.634Z</time></trkpt><trkpt lat="40.9713233" lon="16.613555"><ele>330.0</ele><time>2026-04-19T07:12:53.635Z</time></trkpt><trkpt lat="40.9712" lon="16.6134467"><ele>330.3333333333333</ele><time>2026-04-19T07:12:54.635Z</time></trkpt><trkpt lat="40.9710683" lon="16.613335"><ele>330.66666666666663</ele><time>2026-04-19T07:12:55.634Z</time></trkpt><trkpt lat="40.9709333" lon="16.61322"><ele>331.0</ele><time>2026-04-19T07:12:56.634Z</time></trkpt><trkpt lat="40.9708017" lon="16.6131083"><ele>331.25</ele><time>2026-04-19T07:12:57.634Z</time></trkpt><trkpt lat="40.97068" lon="16.613005"><ele>331.5</ele><time>2026-04-19T07:12:58.634Z</time></trkpt><trkpt lat="40.97056" lon="16.6129"><ele>331.75</ele><time>2026-04-19T07:12:59.636Z</time></trkpt><trkpt lat="40.9704367" lon="16.6127933"><ele>332.0</ele><time>2026-04-19T07:13:00.634Z</time></trkpt><trkpt lat="40.9703133" lon="16.61268"><ele>332.5</ele><time>2026-04-19T07:13:01.636Z</time></trkpt><trkpt lat="40.9701833" lon="16.612565"><ele>333.0</ele><time>2026-04-19T07:13:02.635Z</time></trkpt><trkpt lat="40.9700583" lon="16.6124517"><ele>333.5</ele><time>2026-04-19T07:13:03.634Z</time></trkpt><trkpt lat="40.9699433" lon="16.61235"><ele>334.0</ele><time>2026-04-19T07:13:04.634Z</time></trkpt><trkpt lat="40.9698333" lon="16.6122583"><ele>334.5</ele><time>2026-04-19T07:13:05.635Z</time></trkpt><trkpt lat="40.969725" lon="16.61217"><ele>335.0</ele><time>2026-04-19T07:13:06.635Z</time></trkpt><trkpt lat="40.96962" lon="16.61208"><ele>335.5</ele><time>2026-04-19T07:13:07.634Z</time></trkpt><trkpt lat="40.9695067" lon="16.6119833"><ele>336.0</ele><time>2026-04-19T07:13:08.635Z</time></trkpt><trkpt lat="40.9693883" lon="16.6118883"><ele>336.25</ele><time>2026-04-19T07:13:09.634Z</time></trkpt><trkpt lat="40.9692667" lon="16.6117867"><ele>336.5</ele><time>2026-04-19T07:13:10.634Z</time></trkpt><trkpt lat="40.969145" lon="16.6116783"><ele>336.75</ele><time>2026-04-19T07:13:11.634Z</time></trkpt><trkpt lat="40.9690133" lon="16.6115667"><ele>337.0</ele><time>2026-04-19T07:13:12.634Z</time></trkpt><trkpt lat="40.9688733" lon="16.6114517"><ele>337.3333333333333</ele><time>2026-04-19T07:13:13.635Z</time></trkpt><trkpt lat="40.9687317" lon="16.6113317"><ele>337.6666666666667</ele><time>2026-04-19T07:13:14.634Z</time></trkpt><trkpt lat="40.9685883" lon="16.6112067"><ele>338.0</ele><time>2026-04-19T07:13:15.635Z</time></trkpt><trkpt lat="40.9684467" lon="16.61108"><ele>338.5</ele><time>2026-04-19T07:13:16.635Z</time></trkpt><trkpt lat="40.9683133" lon="16.6109633"><ele>339.0</ele><time>2026-04-19T07:13:17.635Z</time></trkpt><trkpt lat="40.9681967" lon="16.6108617"><ele>339.5</ele><time>2026-04-19T07:13:18.634Z</time></trkpt><trkpt lat="40.9680883" lon="16.6107667"><ele>340.0</ele><time>2026-04-19T07:13:19.635Z</time></trkpt><trkpt lat="40.967985" lon="16.610675"><ele>340.0</ele><time>2026-04-19T07:13:20.634Z</time></trkpt><trkpt lat="40.96788" lon="16.6105783"><ele>340.0</ele><time>2026-04-19T07:13:21.634Z</time></trkpt><trkpt lat="40.967775" lon="16.610485"><ele>340.0</ele><time>2026-04-19T07:13:22.634Z</time></trkpt><trkpt lat="40.9676767" lon="16.6104017"><ele>340.0</ele><time>2026-04-19T07:13:23.635Z</time></trkpt><trkpt lat="40.9675833" lon="16.610325"><ele>340.4</ele><time>2026-04-19T07:13:24.635Z</time></trkpt><trkpt lat="40.9674917" lon="16.6102583"><ele>340.8</ele><time>2026-04-19T07:13:25.635Z</time></trkpt><trkpt lat="40.967395" lon="16.610205"><ele>341.20000000000005</ele><time>2026-04-19T07:13:26.635Z</time></trkpt><trkpt lat="40.9672967" lon="16.6101583"><ele>341.6</ele><time>2026-04-19T07:13:27.634Z</time></trkpt><trkpt lat="40.9671917" lon="16.61011"><ele>342.0</ele><time>2026-04-19T07:13:28.637Z</time></trkpt><trkpt lat="40.96708" lon="16.6100633"><ele>342.0</ele><time>2026-04-19T07:13:29.634Z</time></trkpt><trkpt lat="40.9669617" lon="16.610015"><ele>342.0</ele><time>2026-04-19T07:13:30.634Z</time></trkpt><trkpt lat="40.96684" lon="16.6099733"><ele>342.0</ele><time>2026-04-19T07:13:31.634Z</time></trkpt><trkpt lat="40.9667233" lon="16.6099433"><ele>342.0</ele><time>2026-04-19T07:13:32.634Z</time></trkpt><trkpt lat="40.9666133" lon="16.6099083"><ele>342.20000000000005</ele><time>2026-04-19T07:13:33.634Z</time></trkpt><trkpt lat="40.9665133" lon="16.6098783"><ele>342.4</ele><time>2026-04-19T07:13:34.635Z</time></trkpt><trkpt lat="40.9664233" lon="16.609845"><ele>342.6</ele><time>2026-04-19T07:13:35.634Z</time></trkpt><trkpt lat="40.9663433" lon="16.6098167"><ele>342.79999999999995</ele><time>2026-04-19T07:13:36.635Z</time></trkpt><trkpt lat="40.96625" lon="16.6097833"><ele>343.0</ele><time>2026-04-19T07:13:38.635Z</time></trkpt><trkpt lat="40.9661617" lon="16.6097783"><ele>343.0</ele><time>2026-04-19T07:13:48.633Z</time></trkpt><trkpt lat="40.9660267" lon="16.60973"><ele>343.0</ele><time>2026-04-19T07:13:50.635Z</time></trkpt><trkpt lat="40.9659483" lon="16.6097033"><ele>343.0</ele><time>2026-04-19T07:13:51.635Z</time></trkpt><trkpt lat="40.9658717" lon="16.6096783"><ele>343.0</ele><time>2026-04-19T07:13:52.634Z</time></trkpt><trkpt lat="40.96579" lon="16.6096533"><ele>343.0</ele><time>2026-04-19T07:13:53.634Z</time></trkpt><trkpt lat="40.965705" lon="16.6096283"><ele>343.16666666666663</ele><time>2026-04-19T07:13:54.634Z</time></trkpt><trkpt lat="40.9656183" lon="16.6096083"><ele>343.3333333333333</ele><time>2026-04-19T07:13:55.634Z</time></trkpt><trkpt lat="40.965535" lon="16.6095833"><ele>343.5</ele><time>2026-04-19T07:13:56.635Z</time></trkpt><trkpt lat="40.9654567" lon="16.6095617"><ele>343.6666666666667</ele><time>2026-04-19T07:13:57.635Z</time></trkpt><trkpt lat="40.9653717" lon="16.6095383"><ele>343.83333333333337</ele><time>2026-04-19T07:13:58.634Z</time></trkpt><trkpt lat="40.9652833" lon="16.609515"><ele>344.0</ele><time>2026-04-19T07:13:59.634Z</time></trkpt><trkpt lat="40.96519" lon="16.60949"><ele>344.0</ele><time>2026-04-19T07:14:00.634Z</time></trkpt><trkpt lat="40.965095" lon="16.6094617"><ele>344.0</ele><time>2026-04-19T07:14:01.634Z</time></trkpt><trkpt lat="40.9650033" lon="16.609425"><ele>344.0</ele><time>2026-04-19T07:14:02.636Z</time></trkpt><trkpt lat="40.96492" lon="16.6093883"><ele>344.0</ele><time>2026-04-19T07:14:03.634Z</time></trkpt><trkpt lat="40.964845" lon="16.60936"><ele>344.0</ele><time>2026-04-19T07:14:04.637Z</time></trkpt><trkpt lat="40.96478" lon="16.6093333"><ele>344.0</ele><time>2026-04-19T07:14:05.634Z</time></trkpt><trkpt lat="40.9646767" lon="16.60929"><ele>344.33333333333337</ele><time>2026-04-19T07:14:07.635Z</time></trkpt><trkpt lat="40.96459" lon="16.6092667"><ele>344.6666666666667</ele><time>2026-04-19T07:14:09.635Z</time></trkpt><trkpt lat="40.964525" lon="16.6092517"><ele>345.0</ele><time>2026-04-19T07:14:11.635Z</time></trkpt><trkpt lat="40.9644467" lon="16.6093033"><ele>345.3333333333333</ele><time>2026-04-19T07:15:42.633Z</time></trkpt><trkpt lat="40.9643233" lon="16.6093517"><ele>345.66666666666663</ele><time>2026-04-19T07:15:44.635Z</time></trkpt><trkpt lat="40.964255" lon="16.60938"><ele>346.0</ele><time>2026-04-19T07:15:45.634Z</time></trkpt><trkpt lat="40.9641883" lon="16.6094133"><ele>346.3333333333333</ele><time>2026-04-19T07:15:46.634Z</time></trkpt><trkpt lat="40.9641183" lon="16.60945"><ele>346.66666666666663</ele><time>2026-04-19T07:15:47.634Z</time></trkpt><trkpt lat="40.96404" lon="16.609485"><ele>347.0</ele><time>2026-04-19T07:15:48.633Z</time></trkpt><trkpt lat="40.9639567" lon="16.60952"><ele>347.3333333333333</ele><time>2026-04-19T07:15:49.637Z</time></trkpt><trkpt lat="40.9638683" lon="16.609555"><ele>347.6666666666667</ele><time>2026-04-19T07:15:50.634Z</time></trkpt><trkpt lat="40.9637783" lon="16.609595"><ele>348.0</ele><time>2026-04-19T07:15:51.634Z</time></trkpt><trkpt lat="40.9636817" lon="16.60964"><ele>348.0</ele><time>2026-04-19T07:15:52.635Z</time></trkpt><trkpt lat="40.9635817" lon="16.60969"><ele>348.0</ele><time>2026-04-19T07:15:53.634Z</time></trkpt><trkpt lat="40.9634717" lon="16.6097517"><ele>348.0</ele><time>2026-04-19T07:15:54.633Z</time></trkpt><trkpt lat="40.9633767" lon="16.6098017"><ele>348.0</ele><time>2026-04-19T07:15:55.634Z</time></trkpt><trkpt lat="40.9633033" lon="16.609825"><ele>348.0</ele><time>2026-04-19T07:15:56.635Z</time></trkpt><trkpt lat="40.9632283" lon="16.6098517"><ele>348.0</ele><time>2026-04-19T07:15:57.634Z</time></trkpt><trkpt lat="40.9631517" lon="16.6098783"><ele>348.0</ele><time>2026-04-19T07:15:58.634Z</time></trkpt><trkpt lat="40.9630717" lon="16.60991"><ele>348.0</ele><time>2026-04-19T07:15:59.635Z</time></trkpt><trkpt lat="40.9629883" lon="16.609945"><ele>348.0</ele><time>2026-04-19T07:16:00.634Z</time></trkpt><trkpt lat="40.9629067" lon="16.6099767"><ele>348.0</ele><time>2026-04-19T07:16:01.633Z</time></trkpt><trkpt lat="40.9628283" lon="16.610005"><ele>348.0</ele><time>2026-04-19T07:16:02.634Z</time></trkpt><trkpt lat="40.9627567" lon="16.6100233"><ele>348.0</ele><time>2026-04-19T07:16:03.634Z</time></trkpt><trkpt lat="40.9626833" lon="16.6100317"><ele>348.0</ele><time>2026-04-19T07:16:04.635Z</time></trkpt><trkpt lat="40.96261" lon="16.610025"><ele>348.0</ele><time>2026-04-19T07:16:05.634Z</time></trkpt><trkpt lat="40.9625383" lon="16.6100133"><ele>348.0</ele><time>2026-04-19T07:16:06.636Z</time></trkpt><trkpt lat="40.9624683" lon="16.61"><ele>348.0</ele><time>2026-04-19T07:16:07.634Z</time></trkpt><trkpt lat="40.9623933" lon="16.6099833"><ele>348.0</ele><time>2026-04-19T07:16:08.634Z</time></trkpt><trkpt lat="40.9623133" lon="16.6099717"><ele>348.0</ele><time>2026-04-19T07:16:09.634Z</time></trkpt><trkpt lat="40.9622283" lon="16.6099583"><ele>348.0</ele><time>2026-04-19T07:16:10.634Z</time></trkpt><trkpt lat="40.96214" lon="16.6099467"><ele>348.0</ele><time>2026-04-19T07:16:11.634Z</time></trkpt><trkpt lat="40.96205" lon="16.6099333"><ele>348.0</ele><time>2026-04-19T07:16:12.634Z</time></trkpt><trkpt lat="40.9619567" lon="16.6099217"><ele>348.0</ele><time>2026-04-19T07:16:13.634Z</time></trkpt><trkpt lat="40.9618683" lon="16.6099083"><ele>348.0</ele><time>2026-04-19T07:16:14.635Z</time></trkpt><trkpt lat="40.9617933" lon="16.609895"><ele>348.0</ele><time>2026-04-19T07:16:15.638Z</time></trkpt><trkpt lat="40.9617217" lon="16.609885"><ele>348.1428571428571</ele><time>2026-04-19T07:16:16.633Z</time></trkpt><trkpt lat="40.9616567" lon="16.6098783"><ele>348.2857142857143</ele><time>2026-04-19T07:16:17.633Z</time></trkpt><trkpt lat="40.9615883" lon="16.6098717"><ele>348.42857142857144</ele><time>2026-04-19T07:16:18.633Z</time></trkpt><trkpt lat="40.961515" lon="16.6098633"><ele>348.57142857142856</ele><time>2026-04-19T07:16:19.634Z</time></trkpt><trkpt lat="40.9614417" lon="16.609855"><ele>348.7142857142857</ele><time>2026-04-19T07:16:20.634Z</time></trkpt><trkpt lat="40.96137" lon="16.609845"><ele>348.85714285714283</ele><time>2026-04-19T07:16:21.634Z</time></trkpt><trkpt lat="40.9613033" lon="16.60983"><ele>349.0</ele><time>2026-04-19T07:16:22.634Z</time></trkpt><trkpt lat="40.9612333" lon="16.6098183"><ele>349.0</ele><time>2026-04-19T07:16:23.634Z</time></trkpt><trkpt lat="40.96116" lon="16.6098083"><ele>349.0</ele><time>2026-04-19T07:16:24.634Z</time></trkpt><trkpt lat="40.96108" lon="16.6097983"><ele>349.0</ele><time>2026-04-19T07:16:25.635Z</time></trkpt><trkpt lat="40.9609983" lon="16.6097867"><ele>349.0</ele><time>2026-04-19T07:16:26.634Z</time></trkpt><trkpt lat="40.9609183" lon="16.6097767"><ele>349.0</ele><time>2026-04-19T07:16:27.634Z</time></trkpt><trkpt lat="40.9608433" lon="16.6097733"><ele>349.0</ele><time>2026-04-19T07:16:28.634Z</time></trkpt><trkpt lat="40.9607767" lon="16.6097617"><ele>349.2</ele><time>2026-04-19T07:16:29.634Z</time></trkpt><trkpt lat="40.960665" lon="16.6097483"><ele>349.4</ele><time>2026-04-19T07:16:31.634Z</time></trkpt><trkpt lat="40.9605717" lon="16.6097567"><ele>349.6</ele><time>2026-04-19T07:16:33.634Z</time></trkpt><trkpt lat="40.9604867" lon="16.609735"><ele>349.8</ele><time>2026-04-19T07:16:35.635Z</time></trkpt><trkpt lat="40.9604017" lon="16.6096767"><ele>350.0</ele><time>2026-04-19T07:16:37.633Z</time></trkpt><trkpt lat="40.9603" lon="16.6096067"><ele>350.0</ele><time>2026-04-19T07:16:39.635Z</time></trkpt><trkpt lat="40.9602" lon="16.609535"><ele>350.0</ele><time>2026-04-19T07:16:41.634Z</time></trkpt><trkpt lat="40.9600933" lon="16.6094633"><ele>350.0</ele><time>2026-04-19T07:16:43.633Z</time></trkpt><trkpt lat="40.9599817" lon="16.609375"><ele>350.0</ele><time>2026-04-19T07:16:45.634Z</time></trkpt><trkpt lat="40.9599183" lon="16.6093233"><ele>350.0</ele><time>2026-04-19T07:16:46.634Z</time></trkpt><trkpt lat="40.959865" lon="16.6092767"><ele>350.0</ele><time>2026-04-19T07:16:47.635Z</time></trkpt><trkpt lat="40.9597983" lon="16.609225"><ele>350.0</ele><time>2026-04-19T07:16:49.634Z</time></trkpt><trkpt lat="40.9597217" lon="16.6092733"><ele>350.0</ele><time>2026-04-19T07:17:00.635Z</time></trkpt><trkpt lat="40.95965" lon="16.6094283"><ele>350.0</ele><time>2026-04-19T07:17:02.635Z</time></trkpt><trkpt lat="40.9596" lon="16.6095367"><ele>350.0</ele><time>2026-04-19T07:17:03.634Z</time></trkpt><trkpt lat="40.9595417" lon="16.6096617"><ele>350.0</ele><time>2026-04-19T07:17:04.634Z</time></trkpt><trkpt lat="40.9594783" lon="16.6098033"><ele>350.0</ele><time>2026-04-19T07:17:05.636Z</time></trkpt><trkpt lat="40.9594083" lon="16.6099667"><ele>350.0</ele><time>2026-04-19T07:17:06.634Z</time></trkpt><trkpt lat="40.9593317" lon="16.6101467"><ele>350.0</ele><time>2026-04-19T07:17:07.634Z</time></trkpt><trkpt lat="40.95925" lon="16.61034"><ele>349.6666666666667</ele><time>2026-04-19T07:17:08.635Z</time></trkpt><trkpt lat="40.95916" lon="16.6105483"><ele>349.3333333333333</ele><time>2026-04-19T07:17:09.634Z</time></trkpt><trkpt lat="40.9590617" lon="16.6107767"><ele>349.0</ele><time>2026-04-19T07:17:10.634Z</time></trkpt><trkpt lat="40.9589567" lon="16.6110183"><ele>349.3333333333333</ele><time>2026-04-19T07:17:11.635Z</time></trkpt><trkpt lat="40.9588517" lon="16.6112633"><ele>349.6666666666667</ele><time>2026-04-19T07:17:12.634Z</time></trkpt><trkpt lat="40.958745" lon="16.6115083"><ele>350.0</ele><time>2026-04-19T07:17:13.636Z</time></trkpt><trkpt lat="40.958635" lon="16.6117633"><ele>350.0</ele><time>2026-04-19T07:17:14.634Z</time></trkpt><trkpt lat="40.9585183" lon="16.61203"><ele>350.0</ele><time>2026-04-19T07:17:15.633Z</time></trkpt><trkpt lat="40.958395" lon="16.61231"><ele>350.5</ele><time>2026-04-19T07:17:16.634Z</time></trkpt><trkpt lat="40.9582683" lon="16.6125867"><ele>351.0</ele><time>2026-04-19T07:17:17.634Z</time></trkpt><trkpt lat="40.9581483" lon="16.6128533"><ele>351.0</ele><time>2026-04-19T07:17:18.635Z</time></trkpt><trkpt lat="40.9580267" lon="16.6131133"><ele>351.0</ele><time>2026-04-19T07:17:19.635Z</time></trkpt><trkpt lat="40.9579083" lon="16.6133583"><ele>351.0</ele><time>2026-04-19T07:17:20.635Z</time></trkpt><trkpt lat="40.957805" lon="16.6135883"><ele>351.0</ele><time>2026-04-19T07:17:21.634Z</time></trkpt><trkpt lat="40.957705" lon="16.61381"><ele>351.0</ele><time>2026-04-19T07:17:22.634Z</time></trkpt><trkpt lat="40.9576083" lon="16.6140317"><ele>351.0</ele><time>2026-04-19T07:17:23.636Z</time></trkpt><trkpt lat="40.95752" lon="16.6142683"><ele>351.0</ele><time>2026-04-19T07:17:24.634Z</time></trkpt><trkpt lat="40.95744" lon="16.61452"><ele>351.0</ele><time>2026-04-19T07:17:25.634Z</time></trkpt><trkpt lat="40.95737" lon="16.6147883"><ele>351.0</ele><time>2026-04-19T07:17:26.635Z</time></trkpt><trkpt lat="40.9572917" lon="16.6150717"><ele>351.0</ele><time>2026-04-19T07:17:27.634Z</time></trkpt><trkpt lat="40.957205" lon="16.6153617"><ele>350.5</ele><time>2026-04-19T07:17:28.635Z</time></trkpt><trkpt lat="40.95712" lon="16.6156583"><ele>350.0</ele><time>2026-04-19T07:17:29.635Z</time></trkpt><trkpt lat="40.9570383" lon="16.6159517"><ele>350.6666666666667</ele><time>2026-04-19T07:17:30.634Z</time></trkpt><trkpt lat="40.95696" lon="16.6162283"><ele>351.3333333333333</ele><time>2026-04-19T07:17:31.634Z</time></trkpt><trkpt lat="40.9568817" lon="16.6164983"><ele>352.0</ele><time>2026-04-19T07:17:32.634Z</time></trkpt><trkpt lat="40.9568117" lon="16.6167367"><ele>352.0</ele><time>2026-04-19T07:17:33.635Z</time></trkpt><trkpt lat="40.9567533" lon="16.6169417"><ele>352.0</ele><time>2026-04-19T07:17:34.634Z</time></trkpt><trkpt lat="40.9567067" lon="16.6171083"><ele>352.0</ele><time>2026-04-19T07:17:35.634Z</time></trkpt><trkpt lat="40.9566667" lon="16.617245"><ele>352.0</ele><time>2026-04-19T07:17:36.634Z</time></trkpt><trkpt lat="40.9566317" lon="16.6173533"><ele>352.20000000000005</ele><time>2026-04-19T07:17:37.634Z</time></trkpt><trkpt lat="40.9566017" lon="16.6174267"><ele>352.4</ele><time>2026-04-19T07:17:38.634Z</time></trkpt><trkpt lat="40.9565217" lon="16.617455"><ele>352.6</ele><time>2026-04-19T07:17:41.634Z</time></trkpt><trkpt lat="40.95642" lon="16.6173417"><ele>352.79999999999995</ele><time>2026-04-19T07:17:43.634Z</time></trkpt><trkpt lat="40.9563567" lon="16.61725"><ele>353.0</ele><time>2026-04-19T07:17:44.635Z</time></trkpt><trkpt lat="40.9562867" lon="16.61715"><ele>353.0</ele><time>2026-04-19T07:17:45.634Z</time></trkpt><trkpt lat="40.9562067" lon="16.6170367"><ele>353.0</ele><time>2026-04-19T07:17:46.635Z</time></trkpt><trkpt lat="40.9561217" lon="16.61691"><ele>353.0</ele><time>2026-04-19T07:17:47.638Z</time></trkpt><trkpt lat="40.9560333" lon="16.61677"><ele>353.0</ele><time>2026-04-19T07:17:48.634Z</time></trkpt><trkpt lat="40.9559417" lon="16.6166233"><ele>353.0</ele><time>2026-04-19T07:17:49.634Z</time></trkpt><trkpt lat="40.9558517" lon="16.616465"><ele>353.0</ele><time>2026-04-19T07:17:50.635Z</time></trkpt><trkpt lat="40.9557567" lon="16.6163"><ele>353.0</ele><time>2026-04-19T07:17:51.634Z</time></trkpt><trkpt lat="40.9556667" lon="16.6161333"><ele>353.0</ele><time>2026-04-19T07:17:52.635Z</time></trkpt><trkpt lat="40.955585" lon="16.615975"><ele>353.0</ele><time>2026-04-19T07:17:53.635Z</time></trkpt><trkpt lat="40.955505" lon="16.61582"><ele>353.0</ele><time>2026-04-19T07:17:54.637Z</time></trkpt><trkpt lat="40.9554267" lon="16.6156583"><ele>353.0</ele><time>2026-04-19T07:17:55.634Z</time></trkpt><trkpt lat="40.9553533" lon="16.6154817"><ele>352.6666666666667</ele><time>2026-04-19T07:17:56.635Z</time></trkpt><trkpt lat="40.9552883" lon="16.6152883"><ele>352.3333333333333</ele><time>2026-04-19T07:17:57.634Z</time></trkpt><trkpt lat="40.955225" lon="16.615075"><ele>352.0</ele><time>2026-04-19T07:17:58.634Z</time></trkpt><trkpt lat="40.955165" lon="16.6148533"><ele>352.0</ele><time>2026-04-19T07:17:59.634Z</time></trkpt><trkpt lat="40.95511" lon="16.614625"><ele>352.0</ele><time>2026-04-19T07:18:00.634Z</time></trkpt><trkpt lat="40.9550583" lon="16.6144083"><ele>352.0</ele><time>2026-04-19T07:18:01.634Z</time></trkpt><trkpt lat="40.9550167" lon="16.6142"><ele>352.66666666666663</ele><time>2026-04-19T07:18:02.635Z</time></trkpt><trkpt lat="40.9549783" lon="16.613995"><ele>353.3333333333333</ele><time>2026-04-19T07:18:03.634Z</time></trkpt><trkpt lat="40.954945" lon="16.613785"><ele>354.0</ele><time>2026-04-19T07:18:04.634Z</time></trkpt><trkpt lat="40.9549167" lon="16.6135867"><ele>354.5</ele><time>2026-04-19T07:18:05.634Z</time></trkpt><trkpt lat="40.9548933" lon="16.61341"><ele>355.0</ele><time>2026-04-19T07:18:06.634Z</time></trkpt><trkpt lat="40.9548683" lon="16.6132533"><ele>355.5</ele><time>2026-04-19T07:18:07.634Z</time></trkpt><trkpt lat="40.954835" lon="16.6131033"><ele>356.0</ele><time>2026-04-19T07:18:08.634Z</time></trkpt><trkpt lat="40.9547833" lon="16.61295"><ele>355.6666666666667</ele><time>2026-04-19T07:18:09.635Z</time></trkpt><trkpt lat="40.95471" lon="16.6127933"><ele>355.3333333333333</ele><time>2026-04-19T07:18:10.635Z</time></trkpt><trkpt lat="40.95462" lon="16.61263"><ele>355.0</ele><time>2026-04-19T07:18:11.636Z</time></trkpt><trkpt lat="40.9545183" lon="16.61246"><ele>355.0</ele><time>2026-04-19T07:18:12.634Z</time></trkpt><trkpt lat="40.95441" lon="16.6122867"><ele>355.0</ele><time>2026-04-19T07:18:13.634Z</time></trkpt><trkpt lat="40.95431" lon="16.6121217"><ele>355.0</ele><time>2026-04-19T07:18:14.635Z</time></trkpt><trkpt lat="40.954215" lon="16.6119667"><ele>356.0</ele><time>2026-04-19T07:18:15.634Z</time></trkpt><trkpt lat="40.9541233" lon="16.611825"><ele>357.0</ele><time>2026-04-19T07:18:16.634Z</time></trkpt><trkpt lat="40.95404" lon="16.6116933"><ele>358.0</ele><time>2026-04-19T07:18:17.635Z</time></trkpt><trkpt lat="40.9539567" lon="16.6115683"><ele>359.0</ele><time>2026-04-19T07:18:18.634Z</time></trkpt><trkpt lat="40.95387" lon="16.6114517"><ele>359.0</ele><time>2026-04-19T07:18:19.634Z</time></trkpt><trkpt lat="40.95378" lon="16.6113417"><ele>359.0</ele><time>2026-04-19T07:18:20.634Z</time></trkpt><trkpt lat="40.95369" lon="16.61125"><ele>359.0</ele><time>2026-04-19T07:18:21.633Z</time></trkpt><trkpt lat="40.9536033" lon="16.61117"><ele>359.0</ele><time>2026-04-19T07:18:22.634Z</time></trkpt><trkpt lat="40.9535333" lon="16.6111033"><ele>359.0</ele><time>2026-04-19T07:18:23.634Z</time></trkpt><trkpt lat="40.953475" lon="16.6110333"><ele>359.0</ele><time>2026-04-19T07:18:24.634Z</time></trkpt><trkpt lat="40.95342" lon="16.6109467"><ele>359.0</ele><time>2026-04-19T07:18:25.634Z</time></trkpt><trkpt lat="40.9533717" lon="16.610835"><ele>359.0</ele><time>2026-04-19T07:18:26.636Z</time></trkpt><trkpt lat="40.9533167" lon="16.61071"><ele>359.0</ele><time>2026-04-19T07:18:27.634Z</time></trkpt><trkpt lat="40.953265" lon="16.61057"><ele>359.0</ele><time>2026-04-19T07:18:28.635Z</time></trkpt><trkpt lat="40.953215" lon="16.6104133"><ele>359.75</ele><time>2026-04-19T07:18:29.633Z</time></trkpt><trkpt lat="40.9531633" lon="16.6102433"><ele>360.5</ele><time>2026-04-19T07:18:30.634Z</time></trkpt><trkpt lat="40.9531067" lon="16.6100667"><ele>361.25</ele><time>2026-04-19T07:18:31.635Z</time></trkpt><trkpt lat="40.95305" lon="16.6098967"><ele>362.0</ele><time>2026-04-19T07:18:32.635Z</time></trkpt><trkpt lat="40.9529967" lon="16.60973"><ele>362.0</ele><time>2026-04-19T07:18:33.634Z</time></trkpt><trkpt lat="40.952945" lon="16.60957"><ele>362.0</ele><time>2026-04-19T07:18:34.634Z</time></trkpt><trkpt lat="40.9528833" lon="16.60942"><ele>362.0</ele><time>2026-04-19T07:18:35.634Z</time></trkpt><trkpt lat="40.9528083" lon="16.60927"><ele>362.0</ele><time>2026-04-19T07:18:36.634Z</time></trkpt><trkpt lat="40.952735" lon="16.6091217"><ele>362.1666666666667</ele><time>2026-04-19T07:18:37.635Z</time></trkpt><trkpt lat="40.95267" lon="16.608985"><ele>362.33333333333337</ele><time>2026-04-19T07:18:38.634Z</time></trkpt><trkpt lat="40.9526167" lon="16.6088633"><ele>362.5</ele><time>2026-04-19T07:18:39.634Z</time></trkpt><trkpt lat="40.952575" lon="16.6087683"><ele>362.6666666666667</ele><time>2026-04-19T07:18:40.634Z</time></trkpt><trkpt lat="40.95254" lon="16.6086983"><ele>362.8333333333333</ele><time>2026-04-19T07:18:41.634Z</time></trkpt><trkpt lat="40.9524983" lon="16.6086317"><ele>363.0</ele><time>2026-04-19T07:18:42.634Z</time></trkpt><trkpt lat="40.952445" lon="16.6085617"><ele>363.8333333333333</ele><time>2026-04-19T07:18:43.634Z</time></trkpt><trkpt lat="40.9523917" lon="16.6084783"><ele>364.6666666666667</ele><time>2026-04-19T07:18:44.635Z</time></trkpt><trkpt lat="40.9523333" lon="16.60839"><ele>365.5</ele><time>2026-04-19T07:18:45.633Z</time></trkpt><trkpt lat="40.9522767" lon="16.6083133"><ele>366.33333333333337</ele><time>2026-04-19T07:18:46.634Z</time></trkpt><trkpt lat="40.9522133" lon="16.6082433"><ele>367.1666666666667</ele><time>2026-04-19T07:18:47.634Z</time></trkpt><trkpt lat="40.95215" lon="16.6081967"><ele>368.0</ele><time>2026-04-19T07:18:48.633Z</time></trkpt><trkpt lat="40.95207" lon="16.608185"><ele>368.0</ele><time>2026-04-19T07:18:49.634Z</time></trkpt><trkpt lat="40.9519883" lon="16.608165"><ele>368.0</ele><time>2026-04-19T07:18:50.634Z</time></trkpt><trkpt lat="40.95191" lon="16.6081267"><ele>368.0</ele><time>2026-04-19T07:18:51.633Z</time></trkpt><trkpt lat="40.9518333" lon="16.6080617"><ele>368.0</ele><time>2026-04-19T07:18:52.634Z</time></trkpt><trkpt lat="40.9517467" lon="16.6079767"><ele>368.0</ele><time>2026-04-19T07:18:53.633Z</time></trkpt><trkpt lat="40.9516467" lon="16.607875"><ele>370.6666666666667</ele><time>2026-04-19T07:18:54.633Z</time></trkpt><trkpt lat="40.9515333" lon="16.6077567"><ele>373.3333333333333</ele><time>2026-04-19T07:18:55.635Z</time></trkpt><trkpt lat="40.9514083" lon="16.6076183"><ele>376.0</ele><time>2026-04-19T07:18:56.634Z</time></trkpt><trkpt lat="40.951275" lon="16.6074717"><ele>376.0</ele><time>2026-04-19T07:18:57.634Z</time></trkpt><trkpt lat="40.9511367" lon="16.6073217"><ele>376.0</ele><time>2026-04-19T07:18:58.633Z</time></trkpt><trkpt lat="40.950995" lon="16.6071633"><ele>376.0</ele><time>2026-04-19T07:18:59.634Z</time></trkpt><trkpt lat="40.95086" lon="16.6070033"><ele>379.3333333333333</ele><time>2026-04-19T07:19:00.634Z</time></trkpt><trkpt lat="40.9507267" lon="16.6068483"><ele>382.66666666666663</ele><time>2026-04-19T07:19:01.634Z</time></trkpt><trkpt lat="40.95059" lon="16.606695"><ele>386.0</ele><time>2026-04-19T07:19:02.634Z</time></trkpt><trkpt lat="40.95045" lon="16.606545"><ele>386.0</ele><time>2026-04-19T07:19:03.633Z</time></trkpt><trkpt lat="40.95032" lon="16.6064017"><ele>386.0</ele><time>2026-04-19T07:19:04.634Z</time></trkpt><trkpt lat="40.9502" lon="16.6062617"><ele>386.0</ele><time>2026-04-19T07:19:05.637Z</time></trkpt><trkpt lat="40.9500717" lon="16.606125"><ele>389.0</ele><time>2026-04-19T07:19:06.634Z</time></trkpt><trkpt lat="40.9499417" lon="16.605985"><ele>392.0</ele><time>2026-04-19T07:19:07.635Z</time></trkpt><trkpt lat="40.949805" lon="16.6058417"><ele>395.0</ele><time>2026-04-19T07:19:08.635Z</time></trkpt><trkpt lat="40.949665" lon="16.605695"><ele>395.0</ele><time>2026-04-19T07:19:09.634Z</time></trkpt><trkpt lat="40.9495267" lon="16.6055417"><ele>395.0</ele><time>2026-04-19T07:19:10.64Z</time></trkpt><trkpt lat="40.9493933" lon="16.6054017"><ele>395.0</ele><time>2026-04-19T07:19:11.635Z</time></trkpt><trkpt lat="40.9492733" lon="16.60527"><ele>396.5</ele><time>2026-04-19T07:19:12.635Z</time></trkpt><trkpt lat="40.9491633" lon="16.6051467"><ele>398.0</ele><time>2026-04-19T07:19:13.634Z</time></trkpt><trkpt lat="40.9490583" lon="16.6050233"><ele>399.5</ele><time>2026-04-19T07:19:14.634Z</time></trkpt><trkpt lat="40.9489467" lon="16.6049083"><ele>401.0</ele><time>2026-04-19T07:19:15.634Z</time></trkpt><trkpt lat="40.94883" lon="16.6047883"><ele>401.0</ele><time>2026-04-19T07:19:16.634Z</time></trkpt><trkpt lat="40.94871" lon="16.6046583"><ele>401.0</ele><time>2026-04-19T07:19:17.635Z</time></trkpt><trkpt lat="40.9485817" lon="16.604525"><ele>401.0</ele><time>2026-04-19T07:19:18.634Z</time></trkpt><trkpt lat="40.9484533" lon="16.6043783"><ele>403.66666666666663</ele><time>2026-04-19T07:19:19.634Z</time></trkpt><trkpt lat="40.9483183" lon="16.6042233"><ele>406.33333333333337</ele><time>2026-04-19T07:19:20.634Z</time></trkpt><trkpt lat="40.9481717" lon="16.6040667"><ele>409.0</ele><time>2026-04-19T07:19:21.634Z</time></trkpt><trkpt lat="40.9480183" lon="16.6038983"><ele>409.0</ele><time>2026-04-19T07:19:22.634Z</time></trkpt><trkpt lat="40.9478633" lon="16.6037333"><ele>409.0</ele><time>2026-04-19T07:19:23.634Z</time></trkpt><trkpt lat="40.94771" lon="16.60357"><ele>409.0</ele><time>2026-04-19T07:19:24.635Z</time></trkpt><trkpt lat="40.9475567" lon="16.6033933"><ele>410.0</ele><time>2026-04-19T07:19:25.635Z</time></trkpt><trkpt lat="40.9473917" lon="16.6032133"><ele>411.0</ele><time>2026-04-19T07:19:26.634Z</time></trkpt><trkpt lat="40.947225" lon="16.6030333"><ele>412.0</ele><time>2026-04-19T07:19:27.634Z</time></trkpt><trkpt lat="40.9470767" lon="16.60286"><ele>412.6666666666667</ele><time>2026-04-19T07:19:28.635Z</time></trkpt><trkpt lat="40.94694" lon="16.6027133"><ele>413.33333333333337</ele><time>2026-04-19T07:19:29.634Z</time></trkpt><trkpt lat="40.9468183" lon="16.6025817"><ele>414.0</ele><time>2026-04-19T07:19:30.634Z</time></trkpt><trkpt lat="40.9467083" lon="16.60246"><ele>414.0</ele><time>2026-04-19T07:19:31.635Z</time></trkpt><trkpt lat="40.9466117" lon="16.6023483"><ele>414.0</ele><time>2026-04-19T07:19:32.634Z</time></trkpt><trkpt lat="40.9465217" lon="16.6022467"><ele>414.0</ele><time>2026-04-19T07:19:33.633Z</time></trkpt><trkpt lat="40.946435" lon="16.602155"><ele>414.0</ele><time>2026-04-19T07:19:34.634Z</time></trkpt><trkpt lat="40.94635" lon="16.6020617"><ele>413.75</ele><time>2026-04-19T07:19:35.634Z</time></trkpt><trkpt lat="40.94626" lon="16.6019633"><ele>413.5</ele><time>2026-04-19T07:19:36.633Z</time></trkpt><trkpt lat="40.946165" lon="16.6018517"><ele>413.25</ele><time>2026-04-19T07:19:37.634Z</time></trkpt><trkpt lat="40.9460617" lon="16.601725"><ele>413.0</ele><time>2026-04-19T07:19:38.635Z</time></trkpt><trkpt lat="40.9459533" lon="16.6015967"><ele>413.5</ele><time>2026-04-19T07:19:39.642Z</time></trkpt><trkpt lat="40.94585" lon="16.6014783"><ele>414.0</ele><time>2026-04-19T07:19:40.634Z</time></trkpt><trkpt lat="40.9457517" lon="16.6013667"><ele>414.5</ele><time>2026-04-19T07:19:41.633Z</time></trkpt><trkpt lat="40.9456633" lon="16.6012683"><ele>415.0</ele><time>2026-04-19T07:19:42.634Z</time></trkpt><trkpt lat="40.9455867" lon="16.601185"><ele>414.2</ele><time>2026-04-19T07:19:43.634Z</time></trkpt><trkpt lat="40.9455267" lon="16.6011117"><ele>413.4</ele><time>2026-04-19T07:19:44.634Z</time></trkpt><trkpt lat="40.9454867" lon="16.6010417"><ele>412.6</ele><time>2026-04-19T07:19:45.633Z</time></trkpt><trkpt lat="40.9454617" lon="16.600915"><ele>411.8</ele><time>2026-04-19T07:19:47.634Z</time></trkpt><trkpt lat="40.945505" lon="16.6007617"><ele>411.0</ele><time>2026-04-19T07:19:49.634Z</time></trkpt><trkpt lat="40.9455633" lon="16.6006667"><ele>411.0</ele><time>2026-04-19T07:19:50.634Z</time></trkpt><trkpt lat="40.945635" lon="16.6005517"><ele>411.0</ele><time>2026-04-19T07:19:51.634Z</time></trkpt><trkpt lat="40.9457067" lon="16.60042"><ele>411.0</ele><time>2026-04-19T07:19:52.636Z</time></trkpt><trkpt lat="40.9457867" lon="16.600275"><ele>411.0</ele><time>2026-04-19T07:19:53.633Z</time></trkpt><trkpt lat="40.9458717" lon="16.60013"><ele>411.25</ele><time>2026-04-19T07:19:54.634Z</time></trkpt><trkpt lat="40.945955" lon="16.599985"><ele>411.5</ele><time>2026-04-19T07:19:55.634Z</time></trkpt><trkpt lat="40.9460367" lon="16.5998417"><ele>411.75</ele><time>2026-04-19T07:19:56.634Z</time></trkpt><trkpt lat="40.9461233" lon="16.5996933"><ele>412.0</ele><time>2026-04-19T07:19:57.635Z</time></trkpt><trkpt lat="40.946215" lon="16.5995367"><ele>412.6666666666667</ele><time>2026-04-19T07:19:58.634Z</time></trkpt><trkpt lat="40.946305" lon="16.5993733"><ele>413.33333333333337</ele><time>2026-04-19T07:19:59.633Z</time></trkpt><trkpt lat="40.9463967" lon="16.5992117"><ele>414.0</ele><time>2026-04-19T07:20:00.634Z</time></trkpt><trkpt lat="40.9464867" lon="16.5990617"><ele>414.0</ele><time>2026-04-19T07:20:01.634Z</time></trkpt><trkpt lat="40.9465717" lon="16.5989183"><ele>414.0</ele><time>2026-04-19T07:20:02.634Z</time></trkpt><trkpt lat="40.9466533" lon="16.5987817"><ele>414.0</ele><time>2026-04-19T07:20:03.634Z</time></trkpt><trkpt lat="40.9467233" lon="16.5986533"><ele>414.0</ele><time>2026-04-19T07:20:04.633Z</time></trkpt><trkpt lat="40.946785" lon="16.59854"><ele>415.0</ele><time>2026-04-19T07:20:05.634Z</time></trkpt><trkpt lat="40.9468383" lon="16.598445"><ele>416.0</ele><time>2026-04-19T07:20:06.633Z</time></trkpt><trkpt lat="40.94687" lon="16.598325"><ele>417.0</ele><time>2026-04-19T07:20:07.634Z</time></trkpt><trkpt lat="40.9468917" lon="16.598185"><ele>418.0</ele><time>2026-04-19T07:20:08.634Z</time></trkpt><trkpt lat="40.9469117" lon="16.59803"><ele>419.0</ele><time>2026-04-19T07:20:09.635Z</time></trkpt><trkpt lat="40.9469333" lon="16.597855"><ele>420.0</ele><time>2026-04-19T07:20:10.636Z</time></trkpt><trkpt lat="40.9469567" lon="16.59767"><ele>421.0</ele><time>2026-04-19T07:20:11.635Z</time></trkpt><trkpt lat="40.94698" lon="16.5974933"><ele>422.0</ele><time>2026-04-19T07:20:12.633Z</time></trkpt><trkpt lat="40.9470083" lon="16.59734"><ele>423.0</ele><time>2026-04-19T07:20:13.634Z</time></trkpt><trkpt lat="40.947025" lon="16.5972133"><ele>423.0</ele><time>2026-04-19T07:20:14.634Z</time></trkpt><trkpt lat="40.94703" lon="16.5971083"><ele>423.0</ele><time>2026-04-19T07:20:15.636Z</time></trkpt><trkpt lat="40.9470283" lon="16.59701"><ele>423.0</ele><time>2026-04-19T07:20:16.633Z</time></trkpt><trkpt lat="40.94701" lon="16.5969083"><ele>423.0</ele><time>2026-04-19T07:20:17.634Z</time></trkpt><trkpt lat="40.94697" lon="16.59679"><ele>423.0</ele><time>2026-04-19T07:20:18.633Z</time></trkpt><trkpt lat="40.9469233" lon="16.59665"><ele>423.0</ele><time>2026-04-19T07:20:19.633Z</time></trkpt><trkpt lat="40.9468733" lon="16.5964917"><ele>423.5</ele><time>2026-04-19T07:20:20.634Z</time></trkpt><trkpt lat="40.94682" lon="16.596325"><ele>424.0</ele><time>2026-04-19T07:20:21.634Z</time></trkpt><trkpt lat="40.946755" lon="16.596155"><ele>424.5</ele><time>2026-04-19T07:20:22.634Z</time></trkpt><trkpt lat="40.9466883" lon="16.59599"><ele>425.0</ele><time>2026-04-19T07:20:23.635Z</time></trkpt><trkpt lat="40.9466133" lon="16.5958233"><ele>426.5</ele><time>2026-04-19T07:20:24.635Z</time></trkpt><trkpt lat="40.9465367" lon="16.5956583"><ele>428.0</ele><time>2026-04-19T07:20:25.635Z</time></trkpt><trkpt lat="40.9464633" lon="16.5955033"><ele>429.5</ele><time>2026-04-19T07:20:26.635Z</time></trkpt><trkpt lat="40.9463933" lon="16.595365"><ele>431.0</ele><time>2026-04-19T07:20:27.635Z</time></trkpt><trkpt lat="40.94633" lon="16.59524"><ele>431.4</ele><time>2026-04-19T07:20:28.635Z</time></trkpt><trkpt lat="40.9462733" lon="16.5951333"><ele>431.8</ele><time>2026-04-19T07:20:29.635Z</time></trkpt><trkpt lat="40.9462183" lon="16.5950483"><ele>432.19999999999993</ele><time>2026-04-19T07:20:30.635Z</time></trkpt><trkpt lat="40.9461533" lon="16.5949833"><ele>432.59999999999997</ele><time>2026-04-19T07:20:31.635Z</time></trkpt><trkpt lat="40.94607" lon="16.5949333"><ele>433.0</ele><time>2026-04-19T07:20:32.634Z</time></trkpt><trkpt lat="40.94596" lon="16.5948933"><ele>433.0</ele><time>2026-04-19T07:20:33.634Z</time></trkpt><trkpt lat="40.9458333" lon="16.59485"><ele>433.0</ele><time>2026-04-19T07:20:34.634Z</time></trkpt><trkpt lat="40.9457017" lon="16.594805"><ele>433.0</ele><time>2026-04-19T07:20:35.634Z</time></trkpt><trkpt lat="40.9455817" lon="16.5947567"><ele>433.0</ele><time>2026-04-19T07:20:36.633Z</time></trkpt><trkpt lat="40.945475" lon="16.594695"><ele>433.0</ele><time>2026-04-19T07:20:37.634Z</time></trkpt><trkpt lat="40.94537" lon="16.5946167"><ele>433.0</ele><time>2026-04-19T07:20:38.634Z</time></trkpt><trkpt lat="40.9452617" lon="16.5945333"><ele>433.0</ele><time>2026-04-19T07:20:39.634Z</time></trkpt><trkpt lat="40.9451567" lon="16.59442"><ele>433.0</ele><time>2026-04-19T07:20:40.634Z</time></trkpt><trkpt lat="40.9450517" lon="16.5942867"><ele>433.25</ele><time>2026-04-19T07:20:41.634Z</time></trkpt><trkpt lat="40.944945" lon="16.59414"><ele>433.5</ele><time>2026-04-19T07:20:42.634Z</time></trkpt><trkpt lat="40.94484" lon="16.5939983"><ele>433.75</ele><time>2026-04-19T07:20:43.633Z</time></trkpt><trkpt lat="40.9447433" lon="16.5938633"><ele>434.0</ele><time>2026-04-19T07:20:44.634Z</time></trkpt><trkpt lat="40.9446433" lon="16.593735"><ele>433.3333333333333</ele><time>2026-04-19T07:20:45.665Z</time></trkpt><trkpt lat="40.9445317" lon="16.5936117"><ele>432.66666666666663</ele><time>2026-04-19T07:20:46.634Z</time></trkpt><trkpt lat="40.9444" lon="16.5934933"><ele>432.0</ele><time>2026-04-19T07:20:47.634Z</time></trkpt><trkpt lat="40.9442567" lon="16.5933683"><ele>431.66666666666663</ele><time>2026-04-19T07:20:48.633Z</time></trkpt><trkpt lat="40.944105" lon="16.5932417"><ele>431.3333333333333</ele><time>2026-04-19T07:20:49.633Z</time></trkpt><trkpt lat="40.9439583" lon="16.5931183"><ele>431.0</ele><time>2026-04-19T07:20:50.634Z</time></trkpt><trkpt lat="40.9438217" lon="16.592995"><ele>431.0</ele><time>2026-04-19T07:20:51.633Z</time></trkpt><trkpt lat="40.94369" lon="16.5928717"><ele>431.0</ele><time>2026-04-19T07:20:52.635Z</time></trkpt><trkpt lat="40.9435667" lon="16.5927633"><ele>431.0</ele><time>2026-04-19T07:20:53.633Z</time></trkpt><trkpt lat="40.94345" lon="16.5926667"><ele>431.0</ele><time>2026-04-19T07:20:54.633Z</time></trkpt><trkpt lat="40.94334" lon="16.5925783"><ele>430.5</ele><time>2026-04-19T07:20:55.633Z</time></trkpt><trkpt lat="40.9432217" lon="16.5924967"><ele>430.0</ele><time>2026-04-19T07:20:56.634Z</time></trkpt><trkpt lat="40.9430933" lon="16.592425"><ele>429.5</ele><time>2026-04-19T07:20:57.633Z</time></trkpt><trkpt lat="40.94295" lon="16.592365"><ele>429.0</ele><time>2026-04-19T07:20:58.634Z</time></trkpt><trkpt lat="40.9427983" lon="16.5923083"><ele>429.0</ele><time>2026-04-19T07:20:59.634Z</time></trkpt><trkpt lat="40.9426383" lon="16.5922617"><ele>429.0</ele><time>2026-04-19T07:21:00.633Z</time></trkpt><trkpt lat="40.9424883" lon="16.592225"><ele>429.0</ele><time>2026-04-19T07:21:01.635Z</time></trkpt><trkpt lat="40.9423517" lon="16.592195"><ele>429.5</ele><time>2026-04-19T07:21:02.634Z</time></trkpt><trkpt lat="40.942245" lon="16.592175"><ele>430.0</ele><time>2026-04-19T07:21:03.636Z</time></trkpt><trkpt lat="40.942175" lon="16.5921583"><ele>430.5</ele><time>2026-04-19T07:21:04.633Z</time></trkpt><trkpt lat="40.9421117" lon="16.5921317"><ele>431.0</ele><time>2026-04-19T07:21:05.633Z</time></trkpt><trkpt lat="40.9420517" lon="16.5920817"><ele>431.5</ele><time>2026-04-19T07:21:06.635Z</time></trkpt><trkpt lat="40.9419867" lon="16.5920117"><ele>432.0</ele><time>2026-04-19T07:21:07.634Z</time></trkpt><trkpt lat="40.9419183" lon="16.5919183"><ele>432.25</ele><time>2026-04-19T07:21:08.634Z</time></trkpt><trkpt lat="40.94184" lon="16.5918083"><ele>432.5</ele><time>2026-04-19T07:21:09.633Z</time></trkpt><trkpt lat="40.9417533" lon="16.5916867"><ele>432.75</ele><time>2026-04-19T07:21:10.633Z</time></trkpt><trkpt lat="40.9416583" lon="16.59155"><ele>433.0</ele><time>2026-04-19T07:21:11.634Z</time></trkpt><trkpt lat="40.94156" lon="16.5914117"><ele>433.75</ele><time>2026-04-19T07:21:12.634Z</time></trkpt><trkpt lat="40.9414567" lon="16.591265"><ele>434.5</ele><time>2026-04-19T07:21:13.633Z</time></trkpt><trkpt lat="40.9413567" lon="16.5911167"><ele>435.25</ele><time>2026-04-19T07:21:14.634Z</time></trkpt><trkpt lat="40.9412633" lon="16.5909783"><ele>436.0</ele><time>2026-04-19T07:21:15.634Z</time></trkpt><trkpt lat="40.94117" lon="16.5908467"><ele>436.25</ele><time>2026-04-19T07:21:16.634Z</time></trkpt><trkpt lat="40.9410817" lon="16.5907117"><ele>436.5</ele><time>2026-04-19T07:21:17.635Z</time></trkpt><trkpt lat="40.9409917" lon="16.5905733"><ele>436.75</ele><time>2026-04-19T07:21:18.634Z</time></trkpt><trkpt lat="40.9409033" lon="16.590445"><ele>437.0</ele><time>2026-04-19T07:21:19.634Z</time></trkpt><trkpt lat="40.9408233" lon="16.5903233"><ele>437.20000000000005</ele><time>2026-04-19T07:21:20.635Z</time></trkpt><trkpt lat="40.9407517" lon="16.5902117"><ele>437.40000000000003</ele><time>2026-04-19T07:21:21.634Z</time></trkpt><trkpt lat="40.9406867" lon="16.5901067"><ele>437.59999999999997</ele><time>2026-04-19T07:21:22.634Z</time></trkpt><trkpt lat="40.9406267" lon="16.5900133"><ele>437.79999999999995</ele><time>2026-04-19T07:21:23.634Z</time></trkpt><trkpt lat="40.94057" lon="16.5899333"><ele>438.0</ele><time>2026-04-19T07:21:24.635Z</time></trkpt><trkpt lat="40.9405167" lon="16.5898683"><ele>438.0</ele><time>2026-04-19T07:21:25.634Z</time></trkpt><trkpt lat="40.9404033" lon="16.589825"><ele>437.99999999999994</ele><time>2026-04-19T07:21:27.634Z</time></trkpt><trkpt lat="40.94032" lon="16.5898233"><ele>437.99999999999994</ele><time>2026-04-19T07:21:28.634Z</time></trkpt><trkpt lat="40.9402267" lon="16.5898083"><ele>438.0</ele><time>2026-04-19T07:21:29.634Z</time></trkpt><trkpt lat="40.94012" lon="16.5897817"><ele>438.0</ele><time>2026-04-19T07:21:30.636Z</time></trkpt><trkpt lat="40.940005" lon="16.58975"><ele>439.25</ele><time>2026-04-19T07:21:31.634Z</time></trkpt><trkpt lat="40.9398817" lon="16.5897217"><ele>440.5</ele><time>2026-04-19T07:21:32.634Z</time></trkpt><trkpt lat="40.9397483" lon="16.5896867"><ele>441.75</ele><time>2026-04-19T07:21:33.633Z</time></trkpt><trkpt lat="40.9396083" lon="16.5896533"><ele>443.0</ele><time>2026-04-19T07:21:34.633Z</time></trkpt><trkpt lat="40.9394633" lon="16.5896183"><ele>443.0</ele><time>2026-04-19T07:21:35.633Z</time></trkpt><trkpt lat="40.939315" lon="16.5895833"><ele>443.0</ele><time>2026-04-19T07:21:36.634Z</time></trkpt><trkpt lat="40.9391733" lon="16.5895483"><ele>443.0</ele><time>2026-04-19T07:21:37.633Z</time></trkpt><trkpt lat="40.93904" lon="16.5895133"><ele>443.0</ele><time>2026-04-19T07:21:38.635Z</time></trkpt><trkpt lat="40.938915" lon="16.5894817"><ele>443.25</ele><time>2026-04-19T07:21:39.634Z</time></trkpt><trkpt lat="40.9387933" lon="16.5894533"><ele>443.5</ele><time>2026-04-19T07:21:40.636Z</time></trkpt><trkpt lat="40.9386633" lon="16.5894133"><ele>443.75</ele><time>2026-04-19T07:21:41.633Z</time></trkpt><trkpt lat="40.9385217" lon="16.58938"><ele>444.0</ele><time>2026-04-19T07:21:42.633Z</time></trkpt><trkpt lat="40.9383767" lon="16.5893467"><ele>444.0</ele><time>2026-04-19T07:21:43.635Z</time></trkpt><trkpt lat="40.9382233" lon="16.5893167"><ele>444.0</ele><time>2026-04-19T07:21:44.634Z</time></trkpt><trkpt lat="40.9380617" lon="16.5892783"><ele>444.0</ele><time>2026-04-19T07:21:45.634Z</time></trkpt><trkpt lat="40.937905" lon="16.58924"><ele>444.0</ele><time>2026-04-19T07:21:46.634Z</time></trkpt><trkpt lat="40.9377617" lon="16.5892"><ele>444.0</ele><time>2026-04-19T07:21:47.633Z</time></trkpt><trkpt lat="40.9376267" lon="16.589165"><ele>444.0</ele><time>2026-04-19T07:21:48.635Z</time></trkpt><trkpt lat="40.93749" lon="16.5891317"><ele>444.0</ele><time>2026-04-19T07:21:49.634Z</time></trkpt><trkpt lat="40.937365" lon="16.5891017"><ele>444.5</ele><time>2026-04-19T07:21:50.635Z</time></trkpt><trkpt lat="40.9372383" lon="16.5890717"><ele>445.0</ele><time>2026-04-19T07:21:51.634Z</time></trkpt><trkpt lat="40.9371117" lon="16.5890417"><ele>445.5</ele><time>2026-04-19T07:21:52.634Z</time></trkpt><trkpt lat="40.93698" lon="16.589005"><ele>446.0</ele><time>2026-04-19T07:21:53.633Z</time></trkpt><trkpt lat="40.93685" lon="16.5889717"><ele>446.0</ele><time>2026-04-19T07:21:54.634Z</time></trkpt><trkpt lat="40.9367283" lon="16.5889433"><ele>446.0</ele><time>2026-04-19T07:21:55.634Z</time></trkpt><trkpt lat="40.9366117" lon="16.5889133"><ele>446.0</ele><time>2026-04-19T07:21:56.634Z</time></trkpt><trkpt lat="40.9364967" lon="16.5888833"><ele>446.0</ele><time>2026-04-19T07:21:57.635Z</time></trkpt><trkpt lat="40.936385" lon="16.5888483"><ele>446.5</ele><time>2026-04-19T07:21:58.634Z</time></trkpt><trkpt lat="40.9362717" lon="16.588815"><ele>447.0</ele><time>2026-04-19T07:21:59.633Z</time></trkpt><trkpt lat="40.9361583" lon="16.5887817"><ele>447.5</ele><time>2026-04-19T07:22:00.636Z</time></trkpt><trkpt lat="40.9360467" lon="16.58875"><ele>448.0</ele><time>2026-04-19T07:22:01.633Z</time></trkpt><trkpt lat="40.93593" lon="16.58872"><ele>448.25</ele><time>2026-04-19T07:22:02.634Z</time></trkpt><trkpt lat="40.9358017" lon="16.5886833"><ele>448.5</ele><time>2026-04-19T07:22:03.634Z</time></trkpt><trkpt lat="40.9356683" lon="16.5886417"><ele>448.75</ele><time>2026-04-19T07:22:04.633Z</time></trkpt><trkpt lat="40.9355233" lon="16.5886033"><ele>449.0</ele><time>2026-04-19T07:22:05.633Z</time></trkpt><trkpt lat="40.9353633" lon="16.58856"><ele>449.0</ele><time>2026-04-19T07:22:06.633Z</time></trkpt><trkpt lat="40.9351967" lon="16.5885217"><ele>449.0</ele><time>2026-04-19T07:22:07.633Z</time></trkpt><trkpt lat="40.9350383" lon="16.5884833"><ele>449.0</ele><time>2026-04-19T07:22:08.634Z</time></trkpt><trkpt lat="40.9348983" lon="16.5884467"><ele>449.2</ele><time>2026-04-19T07:22:09.633Z</time></trkpt><trkpt lat="40.9347667" lon="16.5884167"><ele>449.4</ele><time>2026-04-19T07:22:10.636Z</time></trkpt><trkpt lat="40.9346483" lon="16.58839"><ele>449.6</ele><time>2026-04-19T07:22:11.634Z</time></trkpt><trkpt lat="40.934545" lon="16.58836"><ele>449.8</ele><time>2026-04-19T07:22:12.633Z</time></trkpt><trkpt lat="40.9344583" lon="16.5883383"><ele>450.0</ele><time>2026-04-19T07:22:13.633Z</time></trkpt><trkpt lat="40.9343917" lon="16.5883183"><ele>450.0</ele><time>2026-04-19T07:22:14.634Z</time></trkpt><trkpt lat="40.9343067" lon="16.5882717"><ele>450.0</ele><time>2026-04-19T07:22:16.634Z</time></trkpt><trkpt lat="40.9342433" lon="16.5882"><ele>450.0</ele><time>2026-04-19T07:22:18.633Z</time></trkpt><trkpt lat="40.93421" lon="16.5881283"><ele>450.0</ele><time>2026-04-19T07:22:19.635Z</time></trkpt><trkpt lat="40.9341767" lon="16.5880267"><ele>450.0</ele><time>2026-04-19T07:22:20.634Z</time></trkpt><trkpt lat="40.9341517" lon="16.5879017"><ele>450.0</ele><time>2026-04-19T07:22:21.633Z</time></trkpt><trkpt lat="40.9341233" lon="16.587765"><ele>449.75</ele><time>2026-04-19T07:22:22.636Z</time></trkpt><trkpt lat="40.93408" lon="16.5876183"><ele>449.5</ele><time>2026-04-19T07:22:23.634Z</time></trkpt><trkpt lat="40.9340183" lon="16.5874633"><ele>449.25</ele><time>2026-04-19T07:22:24.635Z</time></trkpt><trkpt lat="40.93394" lon="16.5873"><ele>449.0</ele><time>2026-04-19T07:22:25.633Z</time></trkpt><trkpt lat="40.9338533" lon="16.5871267"><ele>448.66666666666663</ele><time>2026-04-19T07:22:26.635Z</time></trkpt><trkpt lat="40.9337667" lon="16.5869483"><ele>448.33333333333337</ele><time>2026-04-19T07:22:27.633Z</time></trkpt><trkpt lat="40.93368" lon="16.58677"><ele>448.0</ele><time>2026-04-19T07:22:28.633Z</time></trkpt><trkpt lat="40.9336" lon="16.5866067"><ele>448.0</ele><time>2026-04-19T07:22:29.634Z</time></trkpt><trkpt lat="40.9335267" lon="16.5864567"><ele>448.0</ele><time>2026-04-19T07:22:30.633Z</time></trkpt><trkpt lat="40.933455" lon="16.5863117"><ele>448.0</ele><time>2026-04-19T07:22:31.634Z</time></trkpt><trkpt lat="40.9333833" lon="16.5861683"><ele>448.0</ele><time>2026-04-19T07:22:32.633Z</time></trkpt><trkpt lat="40.933305" lon="16.5860317"><ele>449.25</ele><time>2026-04-19T07:22:33.636Z</time></trkpt><trkpt lat="40.9332233" lon="16.5858967"><ele>450.5</ele><time>2026-04-19T07:22:34.633Z</time></trkpt><trkpt lat="40.9331483" lon="16.5857667"><ele>451.75</ele><time>2026-04-19T07:22:35.635Z</time></trkpt><trkpt lat="40.933085" lon="16.585645"><ele>453.0</ele><time>2026-04-19T07:22:36.634Z</time></trkpt><trkpt lat="40.9330267" lon="16.5855183"><ele>453.0</ele><time>2026-04-19T07:22:37.633Z</time></trkpt><trkpt lat="40.9329683" lon="16.585375"><ele>453.0</ele><time>2026-04-19T07:22:38.634Z</time></trkpt><trkpt lat="40.9329067" lon="16.5852183"><ele>453.0</ele><time>2026-04-19T07:22:39.633Z</time></trkpt><trkpt lat="40.932845" lon="16.5850467"><ele>453.0</ele><time>2026-04-19T07:22:40.633Z</time></trkpt><trkpt lat="40.9327783" lon="16.5848667"><ele>453.25</ele><time>2026-04-19T07:22:41.634Z</time></trkpt><trkpt lat="40.9327133" lon="16.5846933"><ele>453.5</ele><time>2026-04-19T07:22:42.634Z</time></trkpt><trkpt lat="40.9326517" lon="16.58454"><ele>453.75</ele><time>2026-04-19T07:22:43.635Z</time></trkpt><trkpt lat="40.932595" lon="16.5843983"><ele>454.0</ele><time>2026-04-19T07:22:44.635Z</time></trkpt><trkpt lat="40.932545" lon="16.58426"><ele>455.25</ele><time>2026-04-19T07:22:45.633Z</time></trkpt><trkpt lat="40.9324917" lon="16.58412"><ele>456.5</ele><time>2026-04-19T07:22:46.634Z</time></trkpt><trkpt lat="40.9324367" lon="16.5839717"><ele>457.75</ele><time>2026-04-19T07:22:47.635Z</time></trkpt><trkpt lat="40.932385" lon="16.5838133"><ele>459.0</ele><time>2026-04-19T07:22:48.633Z</time></trkpt><trkpt lat="40.9323367" lon="16.5836533"><ele>459.79999999999995</ele><time>2026-04-19T07:22:49.636Z</time></trkpt><trkpt lat="40.93229" lon="16.58351"><ele>460.59999999999997</ele><time>2026-04-19T07:22:50.634Z</time></trkpt><trkpt lat="40.93225" lon="16.58338"><ele>461.4</ele><time>2026-04-19T07:22:51.633Z</time></trkpt><trkpt lat="40.932205" lon="16.5832567"><ele>462.2</ele><time>2026-04-19T07:22:52.635Z</time></trkpt><trkpt lat="40.9321533" lon="16.5831333"><ele>463.0</ele><time>2026-04-19T07:22:53.636Z</time></trkpt><trkpt lat="40.9321017" lon="16.5830017"><ele>463.0</ele><time>2026-04-19T07:22:54.634Z</time></trkpt><trkpt lat="40.9320483" lon="16.5828583"><ele>463.0</ele><time>2026-04-19T07:22:55.633Z</time></trkpt><trkpt lat="40.9319933" lon="16.582705"><ele>463.0</ele><time>2026-04-19T07:22:56.634Z</time></trkpt><trkpt lat="40.9319333" lon="16.5825467"><ele>463.0</ele><time>2026-04-19T07:22:57.636Z</time></trkpt><trkpt lat="40.9318767" lon="16.58239"><ele>463.59999999999997</ele><time>2026-04-19T07:22:58.634Z</time></trkpt><trkpt lat="40.9318233" lon="16.58225"><ele>464.19999999999993</ele><time>2026-04-19T07:22:59.633Z</time></trkpt><trkpt lat="40.9317783" lon="16.5821233"><ele>464.8</ele><time>2026-04-19T07:23:00.633Z</time></trkpt><trkpt lat="40.9317417" lon="16.5820117"><ele>465.4</ele><time>2026-04-19T07:23:01.635Z</time></trkpt><trkpt lat="40.9317067" lon="16.5819117"><ele>466.0</ele><time>2026-04-19T07:23:02.634Z</time></trkpt><trkpt lat="40.9316717" lon="16.58182"><ele>466.50000000000006</ele><time>2026-04-19T07:23:03.633Z</time></trkpt><trkpt lat="40.9316383" lon="16.581735"><ele>467.0</ele><time>2026-04-19T07:23:04.635Z</time></trkpt><trkpt lat="40.9316083" lon="16.5816567"><ele>467.5</ele><time>2026-04-19T07:23:05.634Z</time></trkpt><trkpt lat="40.9315617" lon="16.5815117"><ele>468.0</ele><time>2026-04-19T07:23:07.634Z</time></trkpt><trkpt lat="40.9315333" lon="16.5814333"><ele>468.50000000000006</ele><time>2026-04-19T07:23:08.64Z</time></trkpt><trkpt lat="40.9315033" lon="16.58136"><ele>469.0</ele><time>2026-04-19T07:23:09.635Z</time></trkpt><trkpt lat="40.9314533" lon="16.58122"><ele>469.33333333333337</ele><time>2026-04-19T07:23:11.635Z</time></trkpt><trkpt lat="40.9314" lon="16.5810767"><ele>469.6666666666667</ele><time>2026-04-19T07:23:13.634Z</time></trkpt><trkpt lat="40.931365" lon="16.5809917"><ele>470.0</ele><time>2026-04-19T07:23:14.634Z</time></trkpt><trkpt lat="40.9313333" lon="16.5809067"><ele>470.33333333333337</ele><time>2026-04-19T07:23:15.634Z</time></trkpt><trkpt lat="40.9313033" lon="16.580815"><ele>470.6666666666667</ele><time>2026-04-19T07:23:16.634Z</time></trkpt><trkpt lat="40.9312683" lon="16.58071"><ele>471.0</ele><time>2026-04-19T07:23:17.635Z</time></trkpt><trkpt lat="40.9312283" lon="16.5805967"><ele>471.0</ele><time>2026-04-19T07:23:18.634Z</time></trkpt><trkpt lat="40.9311817" lon="16.5804783"><ele>471.0</ele><time>2026-04-19T07:23:19.635Z</time></trkpt><trkpt lat="40.93113" lon="16.5803567"><ele>471.0</ele><time>2026-04-19T07:23:20.635Z</time></trkpt><trkpt lat="40.9310817" lon="16.580235"><ele>471.0</ele><time>2026-04-19T07:23:21.633Z</time></trkpt><trkpt lat="40.9310333" lon="16.5801267"><ele>471.0</ele><time>2026-04-19T07:23:22.634Z</time></trkpt><trkpt lat="40.9309883" lon="16.5800217"><ele>471.4</ele><time>2026-04-19T07:23:23.634Z</time></trkpt><trkpt lat="40.93095" lon="16.5799067"><ele>471.8</ele><time>2026-04-19T07:23:24.634Z</time></trkpt><trkpt lat="40.9309133" lon="16.579785"><ele>472.19999999999993</ele><time>2026-04-19T07:23:25.634Z</time></trkpt><trkpt lat="40.9308783" lon="16.5796517"><ele>472.59999999999997</ele><time>2026-04-19T07:23:26.635Z</time></trkpt><trkpt lat="40.9308433" lon="16.5795117"><ele>473.0</ele><time>2026-04-19T07:23:27.633Z</time></trkpt><trkpt lat="40.9308067" lon="16.5793667"><ele>474.0</ele><time>2026-04-19T07:23:28.637Z</time></trkpt><trkpt lat="40.930775" lon="16.579225"><ele>474.99999999999994</ele><time>2026-04-19T07:23:29.635Z</time></trkpt><trkpt lat="40.930745" lon="16.5790867"><ele>475.99999999999994</ele><time>2026-04-19T07:23:30.634Z</time></trkpt><trkpt lat="40.9307167" lon="16.57895"><ele>477.0</ele><time>2026-04-19T07:23:31.634Z</time></trkpt><trkpt lat="40.9306817" lon="16.578805"><ele>478.0</ele><time>2026-04-19T07:23:32.635Z</time></trkpt><trkpt lat="40.9306467" lon="16.5786433"><ele>478.0</ele><time>2026-04-19T07:23:33.633Z</time></trkpt><trkpt lat="40.93061" lon="16.5784683"><ele>478.0</ele><time>2026-04-19T07:23:34.635Z</time></trkpt><trkpt lat="40.9305683" lon="16.5782817"><ele>478.0</ele><time>2026-04-19T07:23:35.634Z</time></trkpt><trkpt lat="40.9305267" lon="16.5780933"><ele>478.0</ele><time>2026-04-19T07:23:36.635Z</time></trkpt><trkpt lat="40.9304867" lon="16.5779167"><ele>478.25</ele><time>2026-04-19T07:23:37.634Z</time></trkpt><trkpt lat="40.9304483" lon="16.577745"><ele>478.5</ele><time>2026-04-19T07:23:38.634Z</time></trkpt><trkpt lat="40.930415" lon="16.5775783"><ele>478.75</ele><time>2026-04-19T07:23:39.633Z</time></trkpt><trkpt lat="40.93038" lon="16.5774217"><ele>479.0</ele><time>2026-04-19T07:23:40.634Z</time></trkpt><trkpt lat="40.930345" lon="16.5772633"><ele>479.0</ele><time>2026-04-19T07:23:41.633Z</time></trkpt><trkpt lat="40.9303033" lon="16.5771067"><ele>479.0</ele><time>2026-04-19T07:23:42.634Z</time></trkpt><trkpt lat="40.9302467" lon="16.57696"><ele>479.0</ele><time>2026-04-19T07:23:43.634Z</time></trkpt><trkpt lat="40.9301817" lon="16.5768167"><ele>479.0</ele><time>2026-04-19T07:23:44.634Z</time></trkpt><trkpt lat="40.9301083" lon="16.5766717"><ele>479.0</ele><time>2026-04-19T07:23:45.637Z</time></trkpt><trkpt lat="40.9300217" lon="16.5765217"><ele>479.0</ele><time>2026-04-19T07:23:46.636Z</time></trkpt><trkpt lat="40.9299233" lon="16.576375"><ele>479.0</ele><time>2026-04-19T07:23:47.634Z</time></trkpt><trkpt lat="40.9298167" lon="16.57622"><ele>479.0</ele><time>2026-04-19T07:23:48.633Z</time></trkpt><trkpt lat="40.9296983" lon="16.576055"><ele>479.3333333333333</ele><time>2026-04-19T07:23:49.635Z</time></trkpt><trkpt lat="40.929575" lon="16.5758883"><ele>479.66666666666663</ele><time>2026-04-19T07:23:50.635Z</time></trkpt><trkpt lat="40.92945" lon="16.5757217"><ele>480.0</ele><time>2026-04-19T07:23:51.634Z</time></trkpt><trkpt lat="40.92932" lon="16.5755467"><ele>480.66666666666663</ele><time>2026-04-19T07:23:52.635Z</time></trkpt><trkpt lat="40.929185" lon="16.5753683"><ele>481.3333333333333</ele><time>2026-04-19T07:23:53.634Z</time></trkpt><trkpt lat="40.9290533" lon="16.5751917"><ele>482.0</ele><time>2026-04-19T07:23:54.634Z</time></trkpt><trkpt lat="40.9289317" lon="16.5750233"><ele>482.3333333333333</ele><time>2026-04-19T07:23:55.634Z</time></trkpt><trkpt lat="40.9288167" lon="16.5748667"><ele>482.66666666666663</ele><time>2026-04-19T07:23:56.634Z</time></trkpt><trkpt lat="40.9287017" lon="16.5747083"><ele>483.0</ele><time>2026-04-19T07:23:57.633Z</time></trkpt><trkpt lat="40.9285833" lon="16.5745467"><ele>483.66666666666663</ele><time>2026-04-19T07:23:58.633Z</time></trkpt><trkpt lat="40.9284667" lon="16.5743817"><ele>484.3333333333333</ele><time>2026-04-19T07:23:59.634Z</time></trkpt><trkpt lat="40.9283483" lon="16.5742083"><ele>485.0</ele><time>2026-04-19T07:24:00.633Z</time></trkpt><trkpt lat="40.9282317" lon="16.574035"><ele>485.0</ele><time>2026-04-19T07:24:01.634Z</time></trkpt><trkpt lat="40.9281217" lon="16.5738783"><ele>485.0</ele><time>2026-04-19T07:24:02.635Z</time></trkpt><trkpt lat="40.9280167" lon="16.5737233"><ele>485.0</ele><time>2026-04-19T07:24:03.634Z</time></trkpt><trkpt lat="40.9279033" lon="16.573565"><ele>484.3333333333333</ele><time>2026-04-19T07:24:04.634Z</time></trkpt><trkpt lat="40.9277817" lon="16.5733983"><ele>483.66666666666663</ele><time>2026-04-19T07:24:05.634Z</time></trkpt><trkpt lat="40.92766" lon="16.5732267"><ele>483.0</ele><time>2026-04-19T07:24:06.635Z</time></trkpt><trkpt lat="40.9275433" lon="16.5730633"><ele>483.0</ele><time>2026-04-19T07:24:07.633Z</time></trkpt><trkpt lat="40.9274317" lon="16.5729117"><ele>483.0</ele><time>2026-04-19T07:24:08.635Z</time></trkpt><trkpt lat="40.927325" lon="16.5727633"><ele>483.0</ele><time>2026-04-19T07:24:09.634Z</time></trkpt><trkpt lat="40.927225" lon="16.572605"><ele>484.0</ele><time>2026-04-19T07:24:10.635Z</time></trkpt><trkpt lat="40.9271233" lon="16.5724417"><ele>485.0</ele><time>2026-04-19T07:24:11.634Z</time></trkpt><trkpt lat="40.927025" lon="16.5722783"><ele>486.0</ele><time>2026-04-19T07:24:12.634Z</time></trkpt><trkpt lat="40.9269333" lon="16.5721283"><ele>486.5</ele><time>2026-04-19T07:24:13.634Z</time></trkpt><trkpt lat="40.9268383" lon="16.5719833"><ele>487.0</ele><time>2026-04-19T07:24:14.634Z</time></trkpt><trkpt lat="40.9267367" lon="16.57185"><ele>487.5</ele><time>2026-04-19T07:24:15.634Z</time></trkpt><trkpt lat="40.926625" lon="16.5717267"><ele>488.0</ele><time>2026-04-19T07:24:16.635Z</time></trkpt><trkpt lat="40.9264983" lon="16.5716083"><ele>486.66666666666663</ele><time>2026-04-19T07:24:17.635Z</time></trkpt><trkpt lat="40.9263567" lon="16.5715017"><ele>485.33333333333337</ele><time>2026-04-19T07:24:18.635Z</time></trkpt><trkpt lat="40.926205" lon="16.5713917"><ele>484.0</ele><time>2026-04-19T07:24:19.634Z</time></trkpt><trkpt lat="40.9260567" lon="16.5712783"><ele>485.6666666666667</ele><time>2026-04-19T07:24:20.636Z</time></trkpt><trkpt lat="40.92591" lon="16.5711533"><ele>487.33333333333337</ele><time>2026-04-19T07:24:21.633Z</time></trkpt><trkpt lat="40.9257667" lon="16.571005"><ele>489.0</ele><time>2026-04-19T07:24:22.635Z</time></trkpt><trkpt lat="40.9256217" lon="16.570845"><ele>489.0</ele><time>2026-04-19T07:24:23.634Z</time></trkpt><trkpt lat="40.9254767" lon="16.5706833"><ele>489.0</ele><time>2026-04-19T07:24:24.633Z</time></trkpt><trkpt lat="40.92534" lon="16.5705267"><ele>489.0</ele><time>2026-04-19T07:24:25.636Z</time></trkpt><trkpt lat="40.9252133" lon="16.5703633"><ele>489.0</ele><time>2026-04-19T07:24:26.633Z</time></trkpt><trkpt lat="40.9250867" lon="16.570195"><ele>489.0</ele><time>2026-04-19T07:24:27.633Z</time></trkpt><trkpt lat="40.9249533" lon="16.5700217"><ele>489.0</ele><time>2026-04-19T07:24:28.634Z</time></trkpt><trkpt lat="40.9248183" lon="16.5698433"><ele>489.0</ele><time>2026-04-19T07:24:29.634Z</time></trkpt><trkpt lat="40.92468" lon="16.5696683"><ele>489.0</ele><time>2026-04-19T07:24:30.633Z</time></trkpt><trkpt lat="40.9245467" lon="16.5695067"><ele>489.0</ele><time>2026-04-19T07:24:31.634Z</time></trkpt><trkpt lat="40.9244233" lon="16.5693517"><ele>489.0</ele><time>2026-04-19T07:24:32.635Z</time></trkpt><trkpt lat="40.9243083" lon="16.5692117"><ele>489.0</ele><time>2026-04-19T07:24:33.633Z</time></trkpt><trkpt lat="40.9242033" lon="16.5690817"><ele>489.0</ele><time>2026-04-19T07:24:34.634Z</time></trkpt><trkpt lat="40.9241067" lon="16.5689617"><ele>489.0</ele><time>2026-04-19T07:24:35.634Z</time></trkpt><trkpt lat="40.9240117" lon="16.5688533"><ele>489.75</ele><time>2026-04-19T07:24:36.633Z</time></trkpt><trkpt lat="40.9239133" lon="16.568745"><ele>490.5</ele><time>2026-04-19T07:24:37.635Z</time></trkpt><trkpt lat="40.9238133" lon="16.5686283"><ele>491.25</ele><time>2026-04-19T07:24:38.634Z</time></trkpt><trkpt lat="40.92371" lon="16.568515"><ele>492.0</ele><time>2026-04-19T07:24:39.634Z</time></trkpt><trkpt lat="40.9236017" lon="16.5683933"><ele>492.33333333333337</ele><time>2026-04-19T07:24:40.634Z</time></trkpt><trkpt lat="40.9234917" lon="16.5682667"><ele>492.6666666666667</ele><time>2026-04-19T07:24:41.636Z</time></trkpt><trkpt lat="40.9233783" lon="16.5681383"><ele>493.0</ele><time>2026-04-19T07:24:42.636Z</time></trkpt><trkpt lat="40.92326" lon="16.5680033"><ele>494.0</ele><time>2026-04-19T07:24:43.634Z</time></trkpt><trkpt lat="40.923135" lon="16.56786"><ele>495.0</ele><time>2026-04-19T07:24:44.635Z</time></trkpt><trkpt lat="40.9229967" lon="16.5677117"><ele>496.0</ele><time>2026-04-19T07:24:45.633Z</time></trkpt><trkpt lat="40.9228567" lon="16.5675583"><ele>496.0</ele><time>2026-04-19T07:24:46.635Z</time></trkpt><trkpt lat="40.9227267" lon="16.567405"><ele>496.0</ele><time>2026-04-19T07:24:47.634Z</time></trkpt><trkpt lat="40.9225917" lon="16.5672433"><ele>496.0</ele><time>2026-04-19T07:24:48.634Z</time></trkpt><trkpt lat="40.9224567" lon="16.5670833"><ele>496.33333333333337</ele><time>2026-04-19T07:24:49.635Z</time></trkpt><trkpt lat="40.9223317" lon="16.566935"><ele>496.66666666666663</ele><time>2026-04-19T07:24:50.635Z</time></trkpt><trkpt lat="40.9222167" lon="16.5667967"><ele>497.0</ele><time>2026-04-19T07:24:51.633Z</time></trkpt><trkpt lat="40.9221183" lon="16.5666733"><ele>497.0</ele><time>2026-04-19T07:24:52.635Z</time></trkpt><trkpt lat="40.9220367" lon="16.56658"><ele>497.00000000000006</ele><time>2026-04-19T07:24:53.634Z</time></trkpt><trkpt lat="40.9219667" lon="16.566505"><ele>497.00000000000006</ele><time>2026-04-19T07:24:54.633Z</time></trkpt><trkpt lat="40.921895" lon="16.5664533"><ele>497.0</ele><time>2026-04-19T07:24:55.634Z</time></trkpt><trkpt lat="40.9218117" lon="16.5664283"><ele>497.0</ele><time>2026-04-19T07:24:56.635Z</time></trkpt><trkpt lat="40.9217167" lon="16.5664217"><ele>497.5</ele><time>2026-04-19T07:24:57.635Z</time></trkpt><trkpt lat="40.9216033" lon="16.5664283"><ele>498.0</ele><time>2026-04-19T07:24:58.633Z</time></trkpt><trkpt lat="40.9214717" lon="16.56644"><ele>498.5</ele><time>2026-04-19T07:24:59.635Z</time></trkpt><trkpt lat="40.921335" lon="16.5664483"><ele>499.0</ele><time>2026-04-19T07:25:00.633Z</time></trkpt><trkpt lat="40.92119" lon="16.5664617"><ele>499.0</ele><time>2026-04-19T07:25:01.633Z</time></trkpt><trkpt lat="40.9210333" lon="16.5664817"><ele>499.0</ele><time>2026-04-19T07:25:02.634Z</time></trkpt><trkpt lat="40.9208733" lon="16.5664967"><ele>499.0</ele><time>2026-04-19T07:25:03.633Z</time></trkpt><trkpt lat="40.9207183" lon="16.5665067"><ele>499.6666666666667</ele><time>2026-04-19T07:25:04.634Z</time></trkpt><trkpt lat="40.9205617" lon="16.5665067"><ele>500.33333333333337</ele><time>2026-04-19T07:25:05.637Z</time></trkpt><trkpt lat="40.9203967" lon="16.5665033"><ele>501.0</ele><time>2026-04-19T07:25:06.633Z</time></trkpt><trkpt lat="40.92023" lon="16.5664967"><ele>501.0</ele><time>2026-04-19T07:25:07.636Z</time></trkpt><trkpt lat="40.920075" lon="16.5664867"><ele>501.0</ele><time>2026-04-19T07:25:08.634Z</time></trkpt><trkpt lat="40.9199383" lon="16.5664717"><ele>501.0</ele><time>2026-04-19T07:25:09.638Z</time></trkpt><trkpt lat="40.919815" lon="16.56646"><ele>501.0</ele><time>2026-04-19T07:25:10.637Z</time></trkpt><trkpt lat="40.9196933" lon="16.566465"><ele>500.33333333333337</ele><time>2026-04-19T07:25:11.633Z</time></trkpt><trkpt lat="40.9195583" lon="16.56649"><ele>499.6666666666667</ele><time>2026-04-19T07:25:12.633Z</time></trkpt><trkpt lat="40.91941" lon="16.56653"><ele>499.0</ele><time>2026-04-19T07:25:13.633Z</time></trkpt><trkpt lat="40.9192467" lon="16.5665767"><ele>497.6666666666667</ele><time>2026-04-19T07:25:14.635Z</time></trkpt><trkpt lat="40.919075" lon="16.5666283"><ele>496.33333333333337</ele><time>2026-04-19T07:25:15.634Z</time></trkpt><trkpt lat="40.9188883" lon="16.5666733"><ele>495.0</ele><time>2026-04-19T07:25:16.635Z</time></trkpt><trkpt lat="40.918695" lon="16.566725"><ele>495.0</ele><time>2026-04-19T07:25:17.634Z</time></trkpt><trkpt lat="40.9185033" lon="16.5667717"><ele>495.0</ele><time>2026-04-19T07:25:18.635Z</time></trkpt><trkpt lat="40.9183167" lon="16.5668217"><ele>495.0</ele><time>2026-04-19T07:25:19.634Z</time></trkpt><trkpt lat="40.9181367" lon="16.5668817"><ele>494.0</ele><time>2026-04-19T07:25:20.636Z</time></trkpt><trkpt lat="40.9179683" lon="16.5669417"><ele>493.0</ele><time>2026-04-19T07:25:21.633Z</time></trkpt><trkpt lat="40.917815" lon="16.5669917"><ele>492.0</ele><time>2026-04-19T07:25:22.634Z</time></trkpt><trkpt lat="40.917685" lon="16.567035"><ele>492.0</ele><time>2026-04-19T07:25:23.634Z</time></trkpt><trkpt lat="40.9175733" lon="16.567075"><ele>492.0</ele><time>2026-04-19T07:25:24.635Z</time></trkpt><trkpt lat="40.91748" lon="16.567105"><ele>492.0</ele><time>2026-04-19T07:25:25.633Z</time></trkpt><trkpt lat="40.9174017" lon="16.5671183"><ele>492.0</ele><time>2026-04-19T07:25:26.633Z</time></trkpt><trkpt lat="40.9173317" lon="16.567115"><ele>492.0</ele><time>2026-04-19T07:25:27.633Z</time></trkpt><trkpt lat="40.9172683" lon="16.5670667"><ele>492.0</ele><time>2026-04-19T07:25:28.635Z</time></trkpt><trkpt lat="40.91721" lon="16.566985"><ele>491.25</ele><time>2026-04-19T07:25:29.634Z</time></trkpt><trkpt lat="40.9171483" lon="16.5668833"><ele>490.5</ele><time>2026-04-19T07:25:30.633Z</time></trkpt><trkpt lat="40.917085" lon="16.56677"><ele>489.75</ele><time>2026-04-19T07:25:31.634Z</time></trkpt><trkpt lat="40.9170083" lon="16.56664"><ele>489.0</ele><time>2026-04-19T07:25:32.634Z</time></trkpt><trkpt lat="40.9169183" lon="16.56649"><ele>489.0</ele><time>2026-04-19T07:25:33.633Z</time></trkpt><trkpt lat="40.9168217" lon="16.5663283"><ele>489.0</ele><time>2026-04-19T07:25:34.635Z</time></trkpt><trkpt lat="40.9167217" lon="16.5661633"><ele>489.0</ele><time>2026-04-19T07:25:35.634Z</time></trkpt><trkpt lat="40.9166133" lon="16.5659967"><ele>488.33333333333337</ele><time>2026-04-19T07:25:36.635Z</time></trkpt><trkpt lat="40.9165033" lon="16.565835"><ele>487.6666666666667</ele><time>2026-04-19T07:25:37.634Z</time></trkpt><trkpt lat="40.916395" lon="16.5656783"><ele>487.0</ele><time>2026-04-19T07:25:38.637Z</time></trkpt><trkpt lat="40.9162917" lon="16.5655267"><ele>487.0</ele><time>2026-04-19T07:25:39.633Z</time></trkpt><trkpt lat="40.916185" lon="16.5653783"><ele>487.0</ele><time>2026-04-19T07:25:40.633Z</time></trkpt><trkpt lat="40.9160683" lon="16.5652333"><ele>487.0</ele><time>2026-04-19T07:25:41.634Z</time></trkpt><trkpt lat="40.9159433" lon="16.5650883"><ele>486.6666666666667</ele><time>2026-04-19T07:25:42.634Z</time></trkpt><trkpt lat="40.9158167" lon="16.5649433"><ele>486.33333333333337</ele><time>2026-04-19T07:25:43.635Z</time></trkpt><trkpt lat="40.9156933" lon="16.5648033"><ele>486.0</ele><time>2026-04-19T07:25:44.635Z</time></trkpt><trkpt lat="40.9155817" lon="16.564675"><ele>486.0</ele><time>2026-04-19T07:25:45.635Z</time></trkpt><trkpt lat="40.915475" lon="16.5645583"><ele>486.0</ele><time>2026-04-19T07:25:46.634Z</time></trkpt><trkpt lat="40.9153767" lon="16.5644533"><ele>486.0</ele><time>2026-04-19T07:25:47.635Z</time></trkpt><trkpt lat="40.9152883" lon="16.5643567"><ele>486.0</ele><time>2026-04-19T07:25:48.634Z</time></trkpt><trkpt lat="40.9152117" lon="16.564265"><ele>486.5</ele><time>2026-04-19T07:25:49.633Z</time></trkpt><trkpt lat="40.9151417" lon="16.564195"><ele>487.0</ele><time>2026-04-19T07:25:50.635Z</time></trkpt><trkpt lat="40.9150817" lon="16.5641567"><ele>487.5</ele><time>2026-04-19T07:25:51.633Z</time></trkpt><trkpt lat="40.9149717" lon="16.5641833"><ele>488.0</ele><time>2026-04-19T07:25:53.635Z</time></trkpt><trkpt lat="40.9149217" lon="16.56424"><ele>488.5</ele><time>2026-04-19T07:25:54.634Z</time></trkpt><trkpt lat="40.9148567" lon="16.5643217"><ele>489.0</ele><time>2026-04-19T07:25:55.634Z</time></trkpt><trkpt lat="40.9147767" lon="16.5644083"><ele>489.25</ele><time>2026-04-19T07:25:56.634Z</time></trkpt><trkpt lat="40.9146917" lon="16.5645"><ele>489.5</ele><time>2026-04-19T07:25:57.635Z</time></trkpt><trkpt lat="40.9146033" lon="16.5646033"><ele>489.75</ele><time>2026-04-19T07:25:58.634Z</time></trkpt><trkpt lat="40.9145033" lon="16.5647133"><ele>490.0</ele><time>2026-04-19T07:25:59.634Z</time></trkpt><trkpt lat="40.914395" lon="16.56483"><ele>490.0</ele><time>2026-04-19T07:26:00.634Z</time></trkpt><trkpt lat="40.91428" lon="16.56495"><ele>490.0</ele><time>2026-04-19T07:26:01.635Z</time></trkpt><trkpt lat="40.91416" lon="16.5650717"><ele>490.0</ele><time>2026-04-19T07:26:02.634Z</time></trkpt><trkpt lat="40.91403" lon="16.5651883"><ele>490.0</ele><time>2026-04-19T07:26:03.634Z</time></trkpt><trkpt lat="40.913885" lon="16.5652967"><ele>490.0</ele><time>2026-04-19T07:26:04.634Z</time></trkpt><trkpt lat="40.9137283" lon="16.5654"><ele>490.0</ele><time>2026-04-19T07:26:05.633Z</time></trkpt><trkpt lat="40.913565" lon="16.5655083"><ele>490.33333333333337</ele><time>2026-04-19T07:26:06.633Z</time></trkpt><trkpt lat="40.9133967" lon="16.565625"><ele>490.66666666666663</ele><time>2026-04-19T07:26:07.634Z</time></trkpt><trkpt lat="40.9132283" lon="16.56574"><ele>491.0</ele><time>2026-04-19T07:26:08.634Z</time></trkpt><trkpt lat="40.913075" lon="16.5658433"><ele>491.0</ele><time>2026-04-19T07:26:09.634Z</time></trkpt><trkpt lat="40.91294" lon="16.5659333"><ele>491.0</ele><time>2026-04-19T07:26:10.635Z</time></trkpt><trkpt lat="40.912815" lon="16.5660167"><ele>491.0</ele><time>2026-04-19T07:26:11.635Z</time></trkpt><trkpt lat="40.9126983" lon="16.5660967"><ele>491.0</ele><time>2026-04-19T07:26:12.633Z</time></trkpt><trkpt lat="40.9125933" lon="16.5661783"><ele>490.75</ele><time>2026-04-19T07:26:13.633Z</time></trkpt><trkpt lat="40.9124967" lon="16.5662867"><ele>490.5</ele><time>2026-04-19T07:26:14.635Z</time></trkpt><trkpt lat="40.9124017" lon="16.5664333"><ele>490.25</ele><time>2026-04-19T07:26:15.633Z</time></trkpt><trkpt lat="40.912305" lon="16.5666133"><ele>490.0</ele><time>2026-04-19T07:26:16.634Z</time></trkpt><trkpt lat="40.912205" lon="16.5668133"><ele>490.0</ele><time>2026-04-19T07:26:17.635Z</time></trkpt><trkpt lat="40.9121" lon="16.5670133"><ele>490.0</ele><time>2026-04-19T07:26:18.634Z</time></trkpt><trkpt lat="40.91199" lon="16.567195"><ele>490.0</ele><time>2026-04-19T07:26:19.634Z</time></trkpt><trkpt lat="40.9118733" lon="16.5673667"><ele>489.75</ele><time>2026-04-19T07:26:20.634Z</time></trkpt><trkpt lat="40.9117567" lon="16.56751"><ele>489.5</ele><time>2026-04-19T07:26:21.635Z</time></trkpt><trkpt lat="40.911645" lon="16.56762"><ele>489.25</ele><time>2026-04-19T07:26:22.714Z</time></trkpt><trkpt lat="40.9115183" lon="16.5677133"><ele>489.0</ele><time>2026-04-19T07:26:23.633Z</time></trkpt><trkpt lat="40.91137" lon="16.5678"><ele>489.0</ele><time>2026-04-19T07:26:24.634Z</time></trkpt><trkpt lat="40.9112167" lon="16.5678783"><ele>489.0</ele><time>2026-04-19T07:26:25.633Z</time></trkpt><trkpt lat="40.9110783" lon="16.5679467"><ele>489.0</ele><time>2026-04-19T07:26:26.634Z</time></trkpt><trkpt lat="40.910965" lon="16.568015"><ele>489.0</ele><time>2026-04-19T07:26:27.635Z</time></trkpt><trkpt lat="40.9108867" lon="16.56808"><ele>489.6666666666667</ele><time>2026-04-19T07:26:28.633Z</time></trkpt><trkpt lat="40.9108283" lon="16.5681517"><ele>490.33333333333337</ele><time>2026-04-19T07:26:29.634Z</time></trkpt><trkpt lat="40.910795" lon="16.5682433"><ele>491.0</ele><time>2026-04-19T07:26:30.633Z</time></trkpt><trkpt lat="40.9107933" lon="16.5683517"><ele>491.6666666666667</ele><time>2026-04-19T07:26:31.634Z</time></trkpt><trkpt lat="40.9108" lon="16.568475"><ele>492.33333333333337</ele><time>2026-04-19T07:26:32.635Z</time></trkpt><trkpt lat="40.9108" lon="16.5686183"><ele>493.0</ele><time>2026-04-19T07:26:33.633Z</time></trkpt><trkpt lat="40.9107983" lon="16.568785"><ele>493.25</ele><time>2026-04-19T07:26:34.634Z</time></trkpt><trkpt lat="40.910805" lon="16.568965"><ele>493.5</ele><time>2026-04-19T07:26:35.634Z</time></trkpt><trkpt lat="40.9108033" lon="16.5691567"><ele>493.75</ele><time>2026-04-19T07:26:36.633Z</time></trkpt><trkpt lat="40.9107917" lon="16.5693583"><ele>494.0</ele><time>2026-04-19T07:26:37.634Z</time></trkpt><trkpt lat="40.9107817" lon="16.5695733"><ele>494.3333333333333</ele><time>2026-04-19T07:26:38.635Z</time></trkpt><trkpt lat="40.9107767" lon="16.5698"><ele>494.66666666666663</ele><time>2026-04-19T07:26:39.633Z</time></trkpt><trkpt lat="40.9107717" lon="16.5700117"><ele>495.0</ele><time>2026-04-19T07:26:40.633Z</time></trkpt><trkpt lat="40.9107667" lon="16.5701967"><ele>495.0</ele><time>2026-04-19T07:26:41.634Z</time></trkpt><trkpt lat="40.9107567" lon="16.5703683"><ele>495.0</ele><time>2026-04-19T07:26:42.633Z</time></trkpt><trkpt lat="40.91073" lon="16.570545"><ele>495.0</ele><time>2026-04-19T07:26:43.633Z</time></trkpt><trkpt lat="40.9106883" lon="16.5707383"><ele>495.0</ele><time>2026-04-19T07:26:44.634Z</time></trkpt><trkpt lat="40.9106433" lon="16.5709417"><ele>495.0</ele><time>2026-04-19T07:26:45.635Z</time></trkpt><trkpt lat="40.9105983" lon="16.5711583"><ele>495.0</ele><time>2026-04-19T07:26:46.635Z</time></trkpt><trkpt lat="40.9105533" lon="16.5713817"><ele>495.0</ele><time>2026-04-19T07:26:47.635Z</time></trkpt><trkpt lat="40.9105067" lon="16.5716033"><ele>494.5</ele><time>2026-04-19T07:26:48.634Z</time></trkpt><trkpt lat="40.9104583" lon="16.5718183"><ele>494.0</ele><time>2026-04-19T07:26:49.633Z</time></trkpt><trkpt lat="40.9104167" lon="16.57201"><ele>493.5</ele><time>2026-04-19T07:26:50.634Z</time></trkpt><trkpt lat="40.91038" lon="16.5721633"><ele>493.0</ele><time>2026-04-19T07:26:51.634Z</time></trkpt><trkpt lat="40.91035" lon="16.5722733"><ele>493.00000000000006</ele><time>2026-04-19T07:26:52.634Z</time></trkpt><trkpt lat="40.91032" lon="16.5723617"><ele>493.0</ele><time>2026-04-19T07:26:53.635Z</time></trkpt><trkpt lat="40.9102783" lon="16.5724317"><ele>493.0</ele><time>2026-04-19T07:26:54.633Z</time></trkpt><trkpt lat="40.9102183" lon="16.5724933"><ele>493.0</ele><time>2026-04-19T07:26:55.634Z</time></trkpt><trkpt lat="40.91014" lon="16.5725467"><ele>493.00000000000006</ele><time>2026-04-19T07:26:56.635Z</time></trkpt><trkpt lat="40.9100533" lon="16.572595"><ele>493.0</ele><time>2026-04-19T07:26:57.634Z</time></trkpt><trkpt lat="40.9099617" lon="16.5726617"><ele>494.0</ele><time>2026-04-19T07:26:58.634Z</time></trkpt><trkpt lat="40.9098767" lon="16.572765"><ele>495.0</ele><time>2026-04-19T07:26:59.634Z</time></trkpt><trkpt lat="40.9097967" lon="16.5729017"><ele>496.0</ele><time>2026-04-19T07:27:00.634Z</time></trkpt><trkpt lat="40.9097217" lon="16.5730583"><ele>497.0</ele><time>2026-04-19T07:27:01.635Z</time></trkpt><trkpt lat="40.909645" lon="16.5732267"><ele>497.3333333333333</ele><time>2026-04-19T07:27:02.635Z</time></trkpt><trkpt lat="40.9095683" lon="16.5734067"><ele>497.66666666666663</ele><time>2026-04-19T07:27:03.635Z</time></trkpt><trkpt lat="40.9094917" lon="16.5736"><ele>498.0</ele><time>2026-04-19T07:27:04.634Z</time></trkpt><trkpt lat="40.9094133" lon="16.573805"><ele>498.33333333333337</ele><time>2026-04-19T07:27:05.633Z</time></trkpt><trkpt lat="40.9093333" lon="16.5740167"><ele>498.6666666666667</ele><time>2026-04-19T07:27:06.634Z</time></trkpt><trkpt lat="40.9092467" lon="16.5742383"><ele>499.0</ele><time>2026-04-19T07:27:07.635Z</time></trkpt><trkpt lat="40.9091617" lon="16.5744617"><ele>499.33333333333337</ele><time>2026-04-19T07:27:08.634Z</time></trkpt><trkpt lat="40.9090817" lon="16.5746733"><ele>499.66666666666663</ele><time>2026-04-19T07:27:09.633Z</time></trkpt><trkpt lat="40.9090067" lon="16.5748667"><ele>500.0</ele><time>2026-04-19T07:27:10.634Z</time></trkpt><trkpt lat="40.908935" lon="16.5750517"><ele>500.0</ele><time>2026-04-19T07:27:11.633Z</time></trkpt><trkpt lat="40.9088683" lon="16.57524"><ele>500.0</ele><time>2026-04-19T07:27:12.633Z</time></trkpt><trkpt lat="40.9088133" lon="16.575455"><ele>500.0</ele><time>2026-04-19T07:27:13.633Z</time></trkpt><trkpt lat="40.908765" lon="16.5756833"><ele>499.3333333333333</ele><time>2026-04-19T07:27:14.634Z</time></trkpt><trkpt lat="40.90872" lon="16.5759067"><ele>498.66666666666663</ele><time>2026-04-19T07:27:15.636Z</time></trkpt><trkpt lat="40.9086767" lon="16.5761217"><ele>498.0</ele><time>2026-04-19T07:27:16.634Z</time></trkpt><trkpt lat="40.9086383" lon="16.5763417"><ele>497.66666666666663</ele><time>2026-04-19T07:27:17.634Z</time></trkpt><trkpt lat="40.9085967" lon="16.5765767"><ele>497.3333333333333</ele><time>2026-04-19T07:27:18.633Z</time></trkpt><trkpt lat="40.9085533" lon="16.5768217"><ele>497.0</ele><time>2026-04-19T07:27:19.634Z</time></trkpt><trkpt lat="40.9085083" lon="16.57706"><ele>496.66666666666663</ele><time>2026-04-19T07:27:20.635Z</time></trkpt><trkpt lat="40.9084717" lon="16.5772833"><ele>496.33333333333337</ele><time>2026-04-19T07:27:21.633Z</time></trkpt><trkpt lat="40.9084383" lon="16.5774867"><ele>496.0</ele><time>2026-04-19T07:27:22.634Z</time></trkpt><trkpt lat="40.9084083" lon="16.57767"><ele>497.5</ele><time>2026-04-19T07:27:23.634Z</time></trkpt><trkpt lat="40.9083783" lon="16.5778383"><ele>499.0</ele><time>2026-04-19T07:27:24.633Z</time></trkpt><trkpt lat="40.90835" lon="16.577995"><ele>500.5</ele><time>2026-04-19T07:27:25.634Z</time></trkpt><trkpt lat="40.9083167" lon="16.5781517"><ele>502.0</ele><time>2026-04-19T07:27:26.634Z</time></trkpt><trkpt lat="40.908285" lon="16.5783183"><ele>502.0</ele><time>2026-04-19T07:27:27.634Z</time></trkpt><trkpt lat="40.9082517" lon="16.57851"><ele>502.0</ele><time>2026-04-19T07:27:28.634Z</time></trkpt><trkpt lat="40.9082183" lon="16.5787267"><ele>502.0</ele><time>2026-04-19T07:27:29.633Z</time></trkpt><trkpt lat="40.90818" lon="16.5789633"><ele>502.0</ele><time>2026-04-19T07:27:30.635Z</time></trkpt><trkpt lat="40.9081367" lon="16.57922"><ele>502.0</ele><time>2026-04-19T07:27:31.634Z</time></trkpt><trkpt lat="40.9080883" lon="16.5794883"><ele>502.0</ele><time>2026-04-19T07:27:32.634Z</time></trkpt><trkpt lat="40.9080383" lon="16.5797583"><ele>501.0</ele><time>2026-04-19T07:27:33.633Z</time></trkpt><trkpt lat="40.9079933" lon="16.58001"><ele>500.0</ele><time>2026-04-19T07:27:34.634Z</time></trkpt><trkpt lat="40.9079533" lon="16.580235"><ele>499.0</ele><time>2026-04-19T07:27:35.634Z</time></trkpt><trkpt lat="40.9079167" lon="16.5804317"><ele>498.75</ele><time>2026-04-19T07:27:36.633Z</time></trkpt><trkpt lat="40.9078833" lon="16.5806117"><ele>498.5</ele><time>2026-04-19T07:27:37.633Z</time></trkpt><trkpt lat="40.90785" lon="16.5807817"><ele>498.25</ele><time>2026-04-19T07:27:38.634Z</time></trkpt><trkpt lat="40.90782" lon="16.58094"><ele>498.0</ele><time>2026-04-19T07:27:39.633Z</time></trkpt><trkpt lat="40.9077883" lon="16.58109"><ele>498.0</ele><time>2026-04-19T07:27:40.635Z</time></trkpt><trkpt lat="40.9077583" lon="16.5812417"><ele>498.0</ele><time>2026-04-19T07:27:41.634Z</time></trkpt><trkpt lat="40.9077283" lon="16.5814067"><ele>498.0</ele><time>2026-04-19T07:27:42.637Z</time></trkpt><trkpt lat="40.9076983" lon="16.581585"><ele>498.0</ele><time>2026-04-19T07:27:43.634Z</time></trkpt><trkpt lat="40.907665" lon="16.5817717"><ele>498.0</ele><time>2026-04-19T07:27:44.634Z</time></trkpt><trkpt lat="40.90763" lon="16.58196"><ele>498.0</ele><time>2026-04-19T07:27:45.633Z</time></trkpt><trkpt lat="40.9075967" lon="16.5821383"><ele>498.0</ele><time>2026-04-19T07:27:46.635Z</time></trkpt><trkpt lat="40.907565" lon="16.5823033"><ele>498.0</ele><time>2026-04-19T07:27:47.634Z</time></trkpt><trkpt lat="40.9075367" lon="16.5824567"><ele>498.59999999999997</ele><time>2026-04-19T07:27:48.633Z</time></trkpt><trkpt lat="40.907515" lon="16.582595"><ele>499.19999999999993</ele><time>2026-04-19T07:27:49.633Z</time></trkpt><trkpt lat="40.9074883" lon="16.5827133"><ele>499.8</ele><time>2026-04-19T07:27:50.634Z</time></trkpt><trkpt lat="40.9074517" lon="16.582815"><ele>500.4</ele><time>2026-04-19T07:27:51.633Z</time></trkpt><trkpt lat="40.9073983" lon="16.5829017"><ele>501.0</ele><time>2026-04-19T07:27:52.635Z</time></trkpt><trkpt lat="40.9073233" lon="16.58298"><ele>501.0</ele><time>2026-04-19T07:27:53.636Z</time></trkpt><trkpt lat="40.9072267" lon="16.5830567"><ele>501.0</ele><time>2026-04-19T07:27:54.634Z</time></trkpt><trkpt lat="40.907115" lon="16.583135"><ele>501.0</ele><time>2026-04-19T07:27:55.634Z</time></trkpt><trkpt lat="40.9069917" lon="16.5832183"><ele>501.0</ele><time>2026-04-19T07:27:56.634Z</time></trkpt><trkpt lat="40.90686" lon="16.583305"><ele>502.0</ele><time>2026-04-19T07:27:57.634Z</time></trkpt><trkpt lat="40.9067233" lon="16.5833967"><ele>503.0</ele><time>2026-04-19T07:27:58.634Z</time></trkpt><trkpt lat="40.9065817" lon="16.5834967"><ele>504.0</ele><time>2026-04-19T07:27:59.634Z</time></trkpt><trkpt lat="40.9064467" lon="16.583595"><ele>503.75</ele><time>2026-04-19T07:28:00.633Z</time></trkpt><trkpt lat="40.9063233" lon="16.5836867"><ele>503.5</ele><time>2026-04-19T07:28:01.634Z</time></trkpt><trkpt lat="40.9062" lon="16.583765"><ele>503.25</ele><time>2026-04-19T07:28:02.635Z</time></trkpt><trkpt lat="40.9060667" lon="16.5838267"><ele>503.0</ele><time>2026-04-19T07:28:03.633Z</time></trkpt><trkpt lat="40.9059217" lon="16.5838667"><ele>503.25</ele><time>2026-04-19T07:28:04.633Z</time></trkpt><trkpt lat="40.9057783" lon="16.58389"><ele>503.5</ele><time>2026-04-19T07:28:05.633Z</time></trkpt><trkpt lat="40.905635" lon="16.5839117"><ele>503.75</ele><time>2026-04-19T07:28:06.634Z</time></trkpt><trkpt lat="40.905485" lon="16.5839433"><ele>504.0</ele><time>2026-04-19T07:28:07.633Z</time></trkpt><trkpt lat="40.9053317" lon="16.58398"><ele>504.0</ele><time>2026-04-19T07:28:08.633Z</time></trkpt><trkpt lat="40.9051767" lon="16.5840317"><ele>504.0</ele><time>2026-04-19T07:28:09.633Z</time></trkpt><trkpt lat="40.9050333" lon="16.5840933"><ele>504.0</ele><time>2026-04-19T07:28:10.633Z</time></trkpt><trkpt lat="40.9049117" lon="16.5841467"><ele>504.0</ele><time>2026-04-19T07:28:11.633Z</time></trkpt><trkpt lat="40.9048033" lon="16.5841833"><ele>503.5</ele><time>2026-04-19T07:28:12.634Z</time></trkpt><trkpt lat="40.904685" lon="16.5841983"><ele>503.0</ele><time>2026-04-19T07:28:13.634Z</time></trkpt><trkpt lat="40.9045517" lon="16.584195"><ele>502.5</ele><time>2026-04-19T07:28:14.633Z</time></trkpt><trkpt lat="40.9044083" lon="16.5841833"><ele>502.0</ele><time>2026-04-19T07:28:15.633Z</time></trkpt><trkpt lat="40.9042533" lon="16.58419"><ele>500.33333333333337</ele><time>2026-04-19T07:28:16.635Z</time></trkpt><trkpt lat="40.9040867" lon="16.58422"><ele>498.66666666666663</ele><time>2026-04-19T07:28:17.633Z</time></trkpt><trkpt lat="40.9039233" lon="16.5842633"><ele>497.0</ele><time>2026-04-19T07:28:18.633Z</time></trkpt><trkpt lat="40.9037667" lon="16.5843133"><ele>497.0</ele><time>2026-04-19T07:28:19.635Z</time></trkpt><trkpt lat="40.9036217" lon="16.5843683"><ele>497.0</ele><time>2026-04-19T07:28:20.634Z</time></trkpt><trkpt lat="40.90349" lon="16.5844117"><ele>497.0</ele><time>2026-04-19T07:28:21.633Z</time></trkpt><trkpt lat="40.9033667" lon="16.5844283"><ele>497.0</ele><time>2026-04-19T07:28:22.634Z</time></trkpt><trkpt lat="40.9032367" lon="16.5844117"><ele>495.75</ele><time>2026-04-19T07:28:23.634Z</time></trkpt><trkpt lat="40.9030917" lon="16.5843667"><ele>494.5</ele><time>2026-04-19T07:28:24.633Z</time></trkpt><trkpt lat="40.9029483" lon="16.58431"><ele>493.25</ele><time>2026-04-19T07:28:25.634Z</time></trkpt><trkpt lat="40.90281" lon="16.584265"><ele>492.0</ele><time>2026-04-19T07:28:26.634Z</time></trkpt><trkpt lat="40.902655" lon="16.5842517"><ele>490.66666666666663</ele><time>2026-04-19T07:28:27.633Z</time></trkpt><trkpt lat="40.902485" lon="16.58427"><ele>489.3333333333333</ele><time>2026-04-19T07:28:28.633Z</time></trkpt><trkpt lat="40.90231" lon="16.584295"><ele>488.0</ele><time>2026-04-19T07:28:29.633Z</time></trkpt><trkpt lat="40.9021433" lon="16.5843233"><ele>488.0</ele><time>2026-04-19T07:28:30.633Z</time></trkpt><trkpt lat="40.90197" lon="16.58437"><ele>488.0</ele><time>2026-04-19T07:28:31.633Z</time></trkpt><trkpt lat="40.9017967" lon="16.5844333"><ele>488.0</ele><time>2026-04-19T07:28:32.634Z</time></trkpt><trkpt lat="40.901635" lon="16.58449"><ele>487.0</ele><time>2026-04-19T07:28:33.633Z</time></trkpt><trkpt lat="40.9014833" lon="16.5845367"><ele>486.0</ele><time>2026-04-19T07:28:34.633Z</time></trkpt><trkpt lat="40.9013333" lon="16.5845717"><ele>485.0</ele><time>2026-04-19T07:28:35.633Z</time></trkpt><trkpt lat="40.9011767" lon="16.5845967"><ele>485.0</ele><time>2026-04-19T07:28:36.634Z</time></trkpt><trkpt lat="40.90102" lon="16.5846117"><ele>485.0</ele><time>2026-04-19T07:28:37.633Z</time></trkpt><trkpt lat="40.90086" lon="16.58462"><ele>485.0</ele><time>2026-04-19T07:28:38.633Z</time></trkpt><trkpt lat="40.9007017" lon="16.58462"><ele>484.3333333333333</ele><time>2026-04-19T07:28:39.633Z</time></trkpt><trkpt lat="40.90054" lon="16.584605"><ele>483.66666666666663</ele><time>2026-04-19T07:28:40.633Z</time></trkpt><trkpt lat="40.900375" lon="16.5845717"><ele>483.0</ele><time>2026-04-19T07:28:41.634Z</time></trkpt><trkpt lat="40.9002067" lon="16.5845317"><ele>482.66666666666663</ele><time>2026-04-19T07:28:42.634Z</time></trkpt><trkpt lat="40.90004" lon="16.5845017"><ele>482.3333333333333</ele><time>2026-04-19T07:28:43.634Z</time></trkpt><trkpt lat="40.8998833" lon="16.5844767"><ele>482.0</ele><time>2026-04-19T07:28:44.634Z</time></trkpt><trkpt lat="40.8997367" lon="16.5844583"><ele>482.0</ele><time>2026-04-19T07:28:45.634Z</time></trkpt><trkpt lat="40.89959" lon="16.5844517"><ele>482.0</ele><time>2026-04-19T07:28:46.633Z</time></trkpt><trkpt lat="40.899435" lon="16.5844633"><ele>482.0</ele><time>2026-04-19T07:28:47.634Z</time></trkpt><trkpt lat="40.899275" lon="16.58449"><ele>481.0</ele><time>2026-04-19T07:28:48.633Z</time></trkpt><trkpt lat="40.8991083" lon="16.5845267"><ele>480.0</ele><time>2026-04-19T07:28:49.633Z</time></trkpt><trkpt lat="40.898935" lon="16.5845667"><ele>479.0</ele><time>2026-04-19T07:28:50.633Z</time></trkpt><trkpt lat="40.8987583" lon="16.5846067"><ele>479.0</ele><time>2026-04-19T07:28:51.633Z</time></trkpt><trkpt lat="40.8985817" lon="16.5846467"><ele>479.0</ele><time>2026-04-19T07:28:52.634Z</time></trkpt><trkpt lat="40.8984067" lon="16.58469"><ele>479.0</ele><time>2026-04-19T07:28:53.634Z</time></trkpt><trkpt lat="40.8982283" lon="16.5847317"><ele>479.0</ele><time>2026-04-19T07:28:54.633Z</time></trkpt><trkpt lat="40.8980467" lon="16.5847733"><ele>479.0</ele><time>2026-04-19T07:28:55.634Z</time></trkpt><trkpt lat="40.8978583" lon="16.5848183"><ele>479.0</ele><time>2026-04-19T07:28:56.634Z</time></trkpt><trkpt lat="40.8976633" lon="16.5848667"><ele>478.3333333333333</ele><time>2026-04-19T07:28:57.633Z</time></trkpt><trkpt lat="40.8974617" lon="16.584915"><ele>477.66666666666663</ele><time>2026-04-19T07:28:58.633Z</time></trkpt><trkpt lat="40.8972617" lon="16.5849633"><ele>477.0</ele><time>2026-04-19T07:28:59.633Z</time></trkpt><trkpt lat="40.8970733" lon="16.5850083"><ele>477.0</ele><time>2026-04-19T07:29:00.633Z</time></trkpt><trkpt lat="40.8968967" lon="16.5850517"><ele>477.0</ele><time>2026-04-19T07:29:01.634Z</time></trkpt><trkpt lat="40.8967333" lon="16.5850883"><ele>477.0</ele><time>2026-04-19T07:29:02.633Z</time></trkpt><trkpt lat="40.896585" lon="16.585115"><ele>476.33333333333337</ele><time>2026-04-19T07:29:03.633Z</time></trkpt><trkpt lat="40.8964367" lon="16.5851217"><ele>475.6666666666667</ele><time>2026-04-19T07:29:04.635Z</time></trkpt><trkpt lat="40.8962767" lon="16.5851083"><ele>475.0</ele><time>2026-04-19T07:29:05.635Z</time></trkpt><trkpt lat="40.896105" lon="16.58508"><ele>475.0</ele><time>2026-04-19T07:29:06.635Z</time></trkpt><trkpt lat="40.8959233" lon="16.58505"><ele>475.0</ele><time>2026-04-19T07:29:07.635Z</time></trkpt><trkpt lat="40.8957367" lon="16.5850183"><ele>475.0</ele><time>2026-04-19T07:29:08.636Z</time></trkpt><trkpt lat="40.895555" lon="16.5849883"><ele>474.6666666666667</ele><time>2026-04-19T07:29:09.635Z</time></trkpt><trkpt lat="40.8953833" lon="16.58496"><ele>474.33333333333337</ele><time>2026-04-19T07:29:10.635Z</time></trkpt><trkpt lat="40.895225" lon="16.5849317"><ele>474.0</ele><time>2026-04-19T07:29:11.635Z</time></trkpt><trkpt lat="40.895075" lon="16.584905"><ele>474.0</ele><time>2026-04-19T07:29:12.634Z</time></trkpt><trkpt lat="40.8949367" lon="16.5848783"><ele>474.0</ele><time>2026-04-19T07:29:13.717Z</time></trkpt><trkpt lat="40.8948083" lon="16.5848567"><ele>474.0</ele><time>2026-04-19T07:29:14.633Z</time></trkpt><trkpt lat="40.8946917" lon="16.584835"><ele>474.0</ele><time>2026-04-19T07:29:15.634Z</time></trkpt><trkpt lat="40.89459" lon="16.5848183"><ele>474.0</ele><time>2026-04-19T07:29:16.633Z</time></trkpt><trkpt lat="40.894495" lon="16.5847983"><ele>474.0</ele><time>2026-04-19T07:29:17.633Z</time></trkpt><trkpt lat="40.894405" lon="16.5847683"><ele>474.0</ele><time>2026-04-19T07:29:18.633Z</time></trkpt><trkpt lat="40.8943233" lon="16.5847133"><ele>474.0</ele><time>2026-04-19T07:29:19.634Z</time></trkpt><trkpt lat="40.8942533" lon="16.5846383"><ele>474.0</ele><time>2026-04-19T07:29:20.635Z</time></trkpt><trkpt lat="40.894185" lon="16.584535"><ele>474.0</ele><time>2026-04-19T07:29:21.634Z</time></trkpt><trkpt lat="40.8941117" lon="16.5844067"><ele>474.0</ele><time>2026-04-19T07:29:22.633Z</time></trkpt><trkpt lat="40.8940283" lon="16.5842583"><ele>474.0</ele><time>2026-04-19T07:29:23.634Z</time></trkpt><trkpt lat="40.89394" lon="16.5841017"><ele>474.0</ele><time>2026-04-19T07:29:24.634Z</time></trkpt><trkpt lat="40.8938433" lon="16.5839317"><ele>474.0</ele><time>2026-04-19T07:29:25.633Z</time></trkpt><trkpt lat="40.89375" lon="16.5837567"><ele>474.0</ele><time>2026-04-19T07:29:26.635Z</time></trkpt><trkpt lat="40.8936667" lon="16.58359"><ele>474.0</ele><time>2026-04-19T07:29:27.633Z</time></trkpt><trkpt lat="40.893585" lon="16.583435"><ele>473.75</ele><time>2026-04-19T07:29:28.633Z</time></trkpt><trkpt lat="40.89349" lon="16.5832933"><ele>473.5</ele><time>2026-04-19T07:29:29.634Z</time></trkpt><trkpt lat="40.8933767" lon="16.5831633"><ele>473.25</ele><time>2026-04-19T07:29:30.634Z</time></trkpt><trkpt lat="40.8932533" lon="16.5830383"><ele>473.0</ele><time>2026-04-19T07:29:31.633Z</time></trkpt><trkpt lat="40.8931367" lon="16.5829133"><ele>473.0</ele><time>2026-04-19T07:29:32.634Z</time></trkpt><trkpt lat="40.8930217" lon="16.5827833"><ele>473.0</ele><time>2026-04-19T07:29:33.633Z</time></trkpt><trkpt lat="40.8928983" lon="16.5826567"><ele>473.0</ele><time>2026-04-19T07:29:34.634Z</time></trkpt><trkpt lat="40.8927683" lon="16.5825367"><ele>473.0</ele><time>2026-04-19T07:29:35.634Z</time></trkpt><trkpt lat="40.8926117" lon="16.5824633"><ele>473.0</ele><time>2026-04-19T07:29:36.634Z</time></trkpt><trkpt lat="40.892455" lon="16.582335"><ele>473.0</ele><time>2026-04-19T07:29:37.635Z</time></trkpt><trkpt lat="40.892305" lon="16.582205"><ele>474.3333333333333</ele><time>2026-04-19T07:29:38.635Z</time></trkpt><trkpt lat="40.8921417" lon="16.5820767"><ele>475.66666666666663</ele><time>2026-04-19T07:29:39.633Z</time></trkpt><trkpt lat="40.89198" lon="16.5819517"><ele>477.0</ele><time>2026-04-19T07:29:40.634Z</time></trkpt><trkpt lat="40.891815" lon="16.5818167"><ele>477.66666666666663</ele><time>2026-04-19T07:29:41.633Z</time></trkpt><trkpt lat="40.891645" lon="16.5816833"><ele>478.3333333333333</ele><time>2026-04-19T07:29:42.633Z</time></trkpt><trkpt lat="40.8914767" lon="16.5815517"><ele>479.0</ele><time>2026-04-19T07:29:43.634Z</time></trkpt><trkpt lat="40.8913183" lon="16.5814283"><ele>479.0</ele><time>2026-04-19T07:29:44.634Z</time></trkpt><trkpt lat="40.8911683" lon="16.581315"><ele>479.0</ele><time>2026-04-19T07:29:45.633Z</time></trkpt><trkpt lat="40.89103" lon="16.58121"><ele>479.0</ele><time>2026-04-19T07:29:46.634Z</time></trkpt><trkpt lat="40.8909033" lon="16.5811117"><ele>480.0</ele><time>2026-04-19T07:29:47.635Z</time></trkpt><trkpt lat="40.8907867" lon="16.5810217"><ele>481.0</ele><time>2026-04-19T07:29:48.633Z</time></trkpt><trkpt lat="40.8906783" lon="16.580935"><ele>482.0</ele><time>2026-04-19T07:29:49.635Z</time></trkpt><trkpt lat="40.8905783" lon="16.580855"><ele>483.0</ele><time>2026-04-19T07:29:50.634Z</time></trkpt><trkpt lat="40.8904867" lon="16.5807783"><ele>483.0</ele><time>2026-04-19T07:29:51.633Z</time></trkpt><trkpt lat="40.8904083" lon="16.5807083"><ele>482.99999999999994</ele><time>2026-04-19T07:29:52.633Z</time></trkpt><trkpt lat="40.8903267" lon="16.5806383"><ele>482.99999999999994</ele><time>2026-04-19T07:29:53.634Z</time></trkpt><trkpt lat="40.89024" lon="16.5805667"><ele>483.0</ele><time>2026-04-19T07:29:54.633Z</time></trkpt><trkpt lat="40.890155" lon="16.5805017"><ele>483.0</ele><time>2026-04-19T07:29:55.633Z</time></trkpt><trkpt lat="40.8900767" lon="16.5804417"><ele>482.8333333333333</ele><time>2026-04-19T07:29:56.634Z</time></trkpt><trkpt lat="40.8900017" lon="16.5803817"><ele>482.66666666666663</ele><time>2026-04-19T07:29:57.634Z</time></trkpt><trkpt lat="40.8899367" lon="16.58033"><ele>482.5</ele><time>2026-04-19T07:29:58.632Z</time></trkpt><trkpt lat="40.88988" lon="16.5802817"><ele>482.3333333333333</ele><time>2026-04-19T07:29:59.634Z</time></trkpt><trkpt lat="40.8898417" lon="16.5801817"><ele>482.16666666666663</ele><time>2026-04-19T07:30:02.635Z</time></trkpt><trkpt lat="40.88989" lon="16.5801233"><ele>482.0</ele><time>2026-04-19T07:30:04.635Z</time></trkpt><trkpt lat="40.889985" lon="16.58003"><ele>482.16666666666663</ele><time>2026-04-19T07:30:06.635Z</time></trkpt><trkpt lat="40.89004" lon="16.5799667"><ele>482.3333333333333</ele><time>2026-04-19T07:30:07.635Z</time></trkpt><trkpt lat="40.8901" lon="16.579885"><ele>482.5</ele><time>2026-04-19T07:30:08.635Z</time></trkpt><trkpt lat="40.89016" lon="16.5797917"><ele>482.66666666666663</ele><time>2026-04-19T07:30:09.634Z</time></trkpt><trkpt lat="40.8902133" lon="16.5796967"><ele>482.8333333333333</ele><time>2026-04-19T07:30:10.634Z</time></trkpt><trkpt lat="40.8902617" lon="16.5796167"><ele>483.0</ele><time>2026-04-19T07:30:11.633Z</time></trkpt><trkpt lat="40.89031" lon="16.579545"><ele>483.1666666666667</ele><time>2026-04-19T07:30:12.633Z</time></trkpt><trkpt lat="40.8903533" lon="16.5794817"><ele>483.33333333333337</ele><time>2026-04-19T07:30:13.633Z</time></trkpt><trkpt lat="40.8903983" lon="16.57942"><ele>483.5</ele><time>2026-04-19T07:30:14.633Z</time></trkpt><trkpt lat="40.890445" lon="16.57935"><ele>483.6666666666667</ele><time>2026-04-19T07:30:15.636Z</time></trkpt><trkpt lat="40.8904967" lon="16.5792717"><ele>483.83333333333337</ele><time>2026-04-19T07:30:16.633Z</time></trkpt><trkpt lat="40.8905517" lon="16.579185"><ele>484.0</ele><time>2026-04-19T07:30:17.634Z</time></trkpt><trkpt lat="40.8906083" lon="16.5790917"><ele>484.0</ele><time>2026-04-19T07:30:18.634Z</time></trkpt><trkpt lat="40.8906667" lon="16.5789867"><ele>484.0</ele><time>2026-04-19T07:30:19.634Z</time></trkpt><trkpt lat="40.8907267" lon="16.5788717"><ele>484.0</ele><time>2026-04-19T07:30:20.633Z</time></trkpt><trkpt lat="40.8907933" lon="16.57875"><ele>484.0</ele><time>2026-04-19T07:30:21.634Z</time></trkpt><trkpt lat="40.8908567" lon="16.5786233"><ele>484.0</ele><time>2026-04-19T07:30:22.633Z</time></trkpt><trkpt lat="40.89092" lon="16.5784933"><ele>484.0</ele><time>2026-04-19T07:30:23.633Z</time></trkpt><trkpt lat="40.89098" lon="16.5783733"><ele>484.0</ele><time>2026-04-19T07:30:24.633Z</time></trkpt><trkpt lat="40.891035" lon="16.5782667"><ele>484.0</ele><time>2026-04-19T07:30:25.633Z</time></trkpt><trkpt lat="40.8910783" lon="16.5781667"><ele>484.0</ele><time>2026-04-19T07:30:26.633Z</time></trkpt><trkpt lat="40.8911183" lon="16.57807"><ele>484.0</ele><time>2026-04-19T07:30:27.633Z</time></trkpt><trkpt lat="40.8911533" lon="16.57798"><ele>484.0</ele><time>2026-04-19T07:30:28.634Z</time></trkpt><trkpt lat="40.8911933" lon="16.5778917"><ele>484.0</ele><time>2026-04-19T07:30:29.635Z</time></trkpt><trkpt lat="40.8912383" lon="16.5777933"><ele>484.0</ele><time>2026-04-19T07:30:30.633Z</time></trkpt><trkpt lat="40.891285" lon="16.5776833"><ele>484.0</ele><time>2026-04-19T07:30:31.633Z</time></trkpt><trkpt lat="40.8913317" lon="16.5775683"><ele>484.0</ele><time>2026-04-19T07:30:32.634Z</time></trkpt><trkpt lat="40.8913783" lon="16.5774567"><ele>483.79999999999995</ele><time>2026-04-19T07:30:33.633Z</time></trkpt><trkpt lat="40.8914283" lon="16.577355"><ele>483.59999999999997</ele><time>2026-04-19T07:30:34.635Z</time></trkpt><trkpt lat="40.8914783" lon="16.5772583"><ele>483.4</ele><time>2026-04-19T07:30:35.634Z</time></trkpt><trkpt lat="40.8915267" lon="16.57715"><ele>483.2</ele><time>2026-04-19T07:30:36.633Z</time></trkpt><trkpt lat="40.8915767" lon="16.5770383"><ele>483.0</ele><time>2026-04-19T07:30:37.634Z</time></trkpt><trkpt lat="40.891625" lon="16.57693"><ele>482.79999999999995</ele><time>2026-04-19T07:30:38.634Z</time></trkpt><trkpt lat="40.8916683" lon="16.5768333"><ele>482.59999999999997</ele><time>2026-04-19T07:30:39.634Z</time></trkpt><trkpt lat="40.8917117" lon="16.5767433"><ele>482.40000000000003</ele><time>2026-04-19T07:30:40.634Z</time></trkpt><trkpt lat="40.8917533" lon="16.5766467"><ele>482.20000000000005</ele><time>2026-04-19T07:30:41.633Z</time></trkpt><trkpt lat="40.8917883" lon="16.576525"><ele>482.0</ele><time>2026-04-19T07:30:42.633Z</time></trkpt><trkpt lat="40.8918083" lon="16.5763817"><ele>482.0</ele><time>2026-04-19T07:30:43.633Z</time></trkpt><trkpt lat="40.8918217" lon="16.57623"><ele>482.0</ele><time>2026-04-19T07:30:44.634Z</time></trkpt><trkpt lat="40.891835" lon="16.5760683"><ele>482.0</ele><time>2026-04-19T07:30:45.633Z</time></trkpt><trkpt lat="40.891855" lon="16.5758967"><ele>482.0</ele><time>2026-04-19T07:30:46.633Z</time></trkpt><trkpt lat="40.891875" lon="16.5757167"><ele>481.5</ele><time>2026-04-19T07:30:47.633Z</time></trkpt><trkpt lat="40.8918917" lon="16.575535"><ele>481.0</ele><time>2026-04-19T07:30:48.633Z</time></trkpt><trkpt lat="40.8919083" lon="16.5753583"><ele>480.5</ele><time>2026-04-19T07:30:49.633Z</time></trkpt><trkpt lat="40.8919267" lon="16.575185"><ele>480.0</ele><time>2026-04-19T07:30:50.633Z</time></trkpt><trkpt lat="40.89194" lon="16.5750133"><ele>479.5</ele><time>2026-04-19T07:30:51.633Z</time></trkpt><trkpt lat="40.8919567" lon="16.5748483"><ele>479.0</ele><time>2026-04-19T07:30:52.633Z</time></trkpt><trkpt lat="40.8919733" lon="16.5746867"><ele>478.5</ele><time>2026-04-19T07:30:53.633Z</time></trkpt><trkpt lat="40.8919867" lon="16.574525"><ele>478.0</ele><time>2026-04-19T07:30:54.633Z</time></trkpt><trkpt lat="40.8920017" lon="16.57436"><ele>477.75</ele><time>2026-04-19T07:30:55.633Z</time></trkpt><trkpt lat="40.8920217" lon="16.57419"><ele>477.5</ele><time>2026-04-19T07:30:56.634Z</time></trkpt><trkpt lat="40.89204" lon="16.5740067"><ele>477.25</ele><time>2026-04-19T07:30:57.634Z</time></trkpt><trkpt lat="40.8920583" lon="16.5738183"><ele>477.0</ele><time>2026-04-19T07:30:58.633Z</time></trkpt><trkpt lat="40.89208" lon="16.5736217"><ele>476.0</ele><time>2026-04-19T07:30:59.634Z</time></trkpt><trkpt lat="40.8921" lon="16.5734283"><ele>475.0</ele><time>2026-04-19T07:31:00.633Z</time></trkpt><trkpt lat="40.8921183" lon="16.573245"><ele>474.0</ele><time>2026-04-19T07:31:01.634Z</time></trkpt><trkpt lat="40.8921333" lon="16.5730733"><ele>473.0</ele><time>2026-04-19T07:31:02.633Z</time></trkpt><trkpt lat="40.8921483" lon="16.5729117"><ele>472.59999999999997</ele><time>2026-04-19T07:31:03.633Z</time></trkpt><trkpt lat="40.8921567" lon="16.5727617"><ele>472.19999999999993</ele><time>2026-04-19T07:31:04.634Z</time></trkpt><trkpt lat="40.8921567" lon="16.5726333"><ele>471.8</ele><time>2026-04-19T07:31:05.634Z</time></trkpt><trkpt lat="40.8921433" lon="16.5725183"><ele>471.4</ele><time>2026-04-19T07:31:06.633Z</time></trkpt><trkpt lat="40.8921117" lon="16.5724117"><ele>471.0</ele><time>2026-04-19T07:31:07.634Z</time></trkpt><trkpt lat="40.8920683" lon="16.572315"><ele>471.0</ele><time>2026-04-19T07:31:08.634Z</time></trkpt><trkpt lat="40.8920233" lon="16.5722383"><ele>471.0</ele><time>2026-04-19T07:31:09.633Z</time></trkpt><trkpt lat="40.8919717" lon="16.5721733"><ele>471.0</ele><time>2026-04-19T07:31:10.633Z</time></trkpt><trkpt lat="40.89192" lon="16.5721083"><ele>471.0</ele><time>2026-04-19T07:31:11.633Z</time></trkpt><trkpt lat="40.8918667" lon="16.5720333"><ele>471.0</ele><time>2026-04-19T07:31:12.633Z</time></trkpt><trkpt lat="40.8918083" lon="16.57196"><ele>471.0</ele><time>2026-04-19T07:31:13.633Z</time></trkpt><trkpt lat="40.8917383" lon="16.571885"><ele>471.0</ele><time>2026-04-19T07:31:14.633Z</time></trkpt><trkpt lat="40.8916667" lon="16.5718017"><ele>471.0</ele><time>2026-04-19T07:31:15.633Z</time></trkpt><trkpt lat="40.8915917" lon="16.5717167"><ele>471.0</ele><time>2026-04-19T07:31:16.634Z</time></trkpt><trkpt lat="40.89152" lon="16.5716467"><ele>471.0</ele><time>2026-04-19T07:31:17.634Z</time></trkpt><trkpt lat="40.8914567" lon="16.57158"><ele>471.0</ele><time>2026-04-19T07:31:18.633Z</time></trkpt><trkpt lat="40.891405" lon="16.5715117"><ele>471.0</ele><time>2026-04-19T07:31:19.633Z</time></trkpt><trkpt lat="40.8913533" lon="16.571445"><ele>471.0</ele><time>2026-04-19T07:31:20.635Z</time></trkpt><trkpt lat="40.8912633" lon="16.5713433"><ele>471.0</ele><time>2026-04-19T07:31:22.633Z</time></trkpt><trkpt lat="40.8911583" lon="16.5712517"><ele>471.0</ele><time>2026-04-19T07:31:24.633Z</time></trkpt><trkpt lat="40.8910967" lon="16.5712067"><ele>471.0</ele><time>2026-04-19T07:31:25.633Z</time></trkpt><trkpt lat="40.8910367" lon="16.5711617"><ele>471.0</ele><time>2026-04-19T07:31:26.634Z</time></trkpt><trkpt lat="40.8909567" lon="16.5710983"><ele>468.1666666666667</ele><time>2026-04-19T07:31:28.633Z</time></trkpt><trkpt lat="40.8908833" lon="16.5710517"><ele>465.33333333333337</ele><time>2026-04-19T07:31:30.633Z</time></trkpt><trkpt lat="40.8908033" lon="16.5710467"><ele>462.5</ele><time>2026-04-19T07:31:32.634Z</time></trkpt><trkpt lat="40.8907233" lon="16.5710333"><ele>459.6666666666667</ele><time>2026-04-19T07:31:34.635Z</time></trkpt><trkpt lat="40.8906431" lon="16.571064"><ele>456.83333333333337</ele><time>2026-04-19T07:47:48.634Z</time></trkpt><trkpt lat="40.8905485" lon="16.5710848"><ele>454.0</ele><time>2026-04-19T07:47:49.635Z</time></trkpt><trkpt lat="40.8904617" lon="16.5711"><ele>454.0</ele><time>2026-04-19T07:47:50.635Z</time></trkpt><trkpt lat="40.8903888" lon="16.5711141"><ele>454.0</ele><time>2026-04-19T07:47:51.635Z</time></trkpt><trkpt lat="40.8903259" lon="16.5711236"><ele>454.0</ele><time>2026-04-19T07:47:52.635Z</time></trkpt><trkpt lat="40.8902156" lon="16.571137"><ele>454.0</ele><time>2026-04-19T07:47:54.635Z</time></trkpt><trkpt lat="40.8900849" lon="16.5711546"><ele>454.0</ele><time>2026-04-19T07:47:56.635Z</time></trkpt><trkpt lat="40.8900098" lon="16.5711639"><ele>454.00000000000006</ele><time>2026-04-19T07:47:57.633Z</time></trkpt><trkpt lat="40.8899299" lon="16.5711769"><ele>454.0</ele><time>2026-04-19T07:47:58.633Z</time></trkpt><trkpt lat="40.8898456" lon="16.5711907"><ele>454.0</ele><time>2026-04-19T07:47:59.633Z</time></trkpt><trkpt lat="40.8897587" lon="16.5712056"><ele>454.0</ele><time>2026-04-19T07:48:00.633Z</time></trkpt><trkpt lat="40.8896769" lon="16.571218"><ele>454.00000000000006</ele><time>2026-04-19T07:48:01.633Z</time></trkpt><trkpt lat="40.8896021" lon="16.5712293"><ele>454.0</ele><time>2026-04-19T07:48:02.634Z</time></trkpt><trkpt lat="40.8895292" lon="16.5712434"><ele>457.1666666666667</ele><time>2026-04-19T07:48:03.633Z</time></trkpt><trkpt lat="40.8894548" lon="16.5712575"><ele>460.33333333333337</ele><time>2026-04-19T07:48:04.634Z</time></trkpt><trkpt lat="40.8893771" lon="16.5712683"><ele>463.5</ele><time>2026-04-19T07:48:05.633Z</time></trkpt><trkpt lat="40.8892998" lon="16.5712739"><ele>466.66666666666663</ele><time>2026-04-19T07:48:06.634Z</time></trkpt><trkpt lat="40.8892246" lon="16.5712793"><ele>469.8333333333333</ele><time>2026-04-19T07:48:07.634Z</time></trkpt><trkpt lat="40.8891526" lon="16.5712868"><ele>473.0</ele><time>2026-04-19T07:48:08.635Z</time></trkpt><trkpt lat="40.8890783" lon="16.5712981"><ele>473.0</ele><time>2026-04-19T07:48:09.634Z</time></trkpt><trkpt lat="40.8890062" lon="16.5713089"><ele>473.0</ele><time>2026-04-19T07:48:10.634Z</time></trkpt><trkpt lat="40.8889378" lon="16.5713206"><ele>473.0</ele><time>2026-04-19T07:48:11.633Z</time></trkpt><trkpt lat="40.888871" lon="16.5713289"><ele>473.0</ele><time>2026-04-19T07:48:12.635Z</time></trkpt><trkpt lat="40.8888019" lon="16.5713379"><ele>473.0</ele><time>2026-04-19T07:48:13.633Z</time></trkpt><trkpt lat="40.8887255" lon="16.5713326"><ele>473.0</ele><time>2026-04-19T07:48:14.634Z</time></trkpt><trkpt lat="40.8886482" lon="16.5713229"><ele>473.0</ele><time>2026-04-19T07:48:15.635Z</time></trkpt><trkpt lat="40.8885698" lon="16.5713078"><ele>472.99999999999994</ele><time>2026-04-19T07:48:16.635Z</time></trkpt><trkpt lat="40.8884911" lon="16.5712851"><ele>473.0</ele><time>2026-04-19T07:48:17.634Z</time></trkpt><trkpt lat="40.8884155" lon="16.5712625"><ele>473.0</ele><time>2026-04-19T07:48:18.633Z</time></trkpt><trkpt lat="40.888339" lon="16.5712402"><ele>473.0</ele><time>2026-04-19T07:48:19.634Z</time></trkpt><trkpt lat="40.8882592" lon="16.5712124"><ele>472.99999999999994</ele><time>2026-04-19T07:48:20.635Z</time></trkpt><trkpt lat="40.8881804" lon="16.571175"><ele>473.0</ele><time>2026-04-19T07:48:21.634Z</time></trkpt><trkpt lat="40.8881118" lon="16.5711259"><ele>471.8333333333333</ele><time>2026-04-19T07:48:22.634Z</time></trkpt><trkpt lat="40.8880484" lon="16.571069"><ele>470.66666666666663</ele><time>2026-04-19T07:48:23.635Z</time></trkpt><trkpt lat="40.8879975" lon="16.5710049"><ele>469.5</ele><time>2026-04-19T07:48:24.634Z</time></trkpt><trkpt lat="40.8879589" lon="16.5709235"><ele>468.33333333333337</ele><time>2026-04-19T07:48:25.636Z</time></trkpt><trkpt lat="40.8879244" lon="16.570825"><ele>467.1666666666667</ele><time>2026-04-19T07:48:26.633Z</time></trkpt><trkpt lat="40.8878921" lon="16.5707182"><ele>466.0</ele><time>2026-04-19T07:48:27.633Z</time></trkpt><trkpt lat="40.887858" lon="16.5706088"><ele>466.0</ele><time>2026-04-19T07:48:28.634Z</time></trkpt><trkpt lat="40.8878197" lon="16.5705037"><ele>466.0</ele><time>2026-04-19T07:48:29.634Z</time></trkpt><trkpt lat="40.8877841" lon="16.5703961"><ele>466.0</ele><time>2026-04-19T07:48:30.633Z</time></trkpt><trkpt lat="40.8877508" lon="16.5702797"><ele>466.0</ele><time>2026-04-19T07:48:31.633Z</time></trkpt><trkpt lat="40.8877133" lon="16.5701646"><ele>466.0</ele><time>2026-04-19T07:48:32.634Z</time></trkpt><trkpt lat="40.8876692" lon="16.570046"><ele>466.4</ele><time>2026-04-19T07:48:33.634Z</time></trkpt><trkpt lat="40.8876251" lon="16.5699213"><ele>466.8</ele><time>2026-04-19T07:48:34.633Z</time></trkpt><trkpt lat="40.8875817" lon="16.5697915"><ele>467.19999999999993</ele><time>2026-04-19T07:48:35.633Z</time></trkpt><trkpt lat="40.8875369" lon="16.5696618"><ele>467.59999999999997</ele><time>2026-04-19T07:48:36.635Z</time></trkpt><trkpt lat="40.887493" lon="16.5695362"><ele>468.0</ele><time>2026-04-19T07:48:37.634Z</time></trkpt><trkpt lat="40.8874565" lon="16.5694245"><ele>468.0</ele><time>2026-04-19T07:48:38.634Z</time></trkpt><trkpt lat="40.8874275" lon="16.5693258"><ele>468.0</ele><time>2026-04-19T07:48:39.634Z</time></trkpt><trkpt lat="40.8873978" lon="16.5692315"><ele>468.0</ele><time>2026-04-19T07:48:40.635Z</time></trkpt><trkpt lat="40.8873616" lon="16.5691327"><ele>468.0</ele><time>2026-04-19T07:48:41.633Z</time></trkpt><trkpt lat="40.8873215" lon="16.5690273"><ele>468.0</ele><time>2026-04-19T07:48:42.633Z</time></trkpt><trkpt lat="40.8872826" lon="16.5689146"><ele>468.0</ele><time>2026-04-19T07:48:43.633Z</time></trkpt><trkpt lat="40.887243" lon="16.5687949"><ele>466.0</ele><time>2026-04-19T07:48:44.635Z</time></trkpt><trkpt lat="40.8872045" lon="16.568671"><ele>463.99999999999994</ele><time>2026-04-19T07:48:45.633Z</time></trkpt><trkpt lat="40.8871644" lon="16.5685402"><ele>461.99999999999994</ele><time>2026-04-19T07:48:46.633Z</time></trkpt><trkpt lat="40.8871259" lon="16.5684077"><ele>460.0</ele><time>2026-04-19T07:48:47.634Z</time></trkpt><trkpt lat="40.8870877" lon="16.5682811"><ele>458.0</ele><time>2026-04-19T07:48:48.634Z</time></trkpt><trkpt lat="40.887054" lon="16.5681675"><ele>458.0</ele><time>2026-04-19T07:48:49.635Z</time></trkpt><trkpt lat="40.8870225" lon="16.5680567"><ele>457.99999999999994</ele><time>2026-04-19T07:48:50.635Z</time></trkpt><trkpt lat="40.8869868" lon="16.5679412"><ele>457.99999999999994</ele><time>2026-04-19T07:48:51.635Z</time></trkpt><trkpt lat="40.8869513" lon="16.5678188"><ele>458.0</ele><time>2026-04-19T07:48:52.635Z</time></trkpt><trkpt lat="40.8869148" lon="16.5676894"><ele>458.0</ele><time>2026-04-19T07:48:53.635Z</time></trkpt><trkpt lat="40.8868778" lon="16.5675544"><ele>457.5</ele><time>2026-04-19T07:48:54.634Z</time></trkpt><trkpt lat="40.8868385" lon="16.5674146"><ele>457.0</ele><time>2026-04-19T07:48:55.634Z</time></trkpt><trkpt lat="40.8867965" lon="16.5672709"><ele>456.5</ele><time>2026-04-19T07:48:56.634Z</time></trkpt><trkpt lat="40.8867549" lon="16.5671237"><ele>456.0</ele><time>2026-04-19T07:48:57.634Z</time></trkpt><trkpt lat="40.8867101" lon="16.5669794"><ele>460.0</ele><time>2026-04-19T07:48:58.635Z</time></trkpt><trkpt lat="40.8866674" lon="16.5668379"><ele>464.0</ele><time>2026-04-19T07:48:59.633Z</time></trkpt><trkpt lat="40.8866288" lon="16.5667067"><ele>468.0</ele><time>2026-04-19T07:49:00.633Z</time></trkpt><trkpt lat="40.8865938" lon="16.5665819"><ele>472.0</ele><time>2026-04-19T07:49:01.634Z</time></trkpt><trkpt lat="40.8865596" lon="16.5664589"><ele>476.0</ele><time>2026-04-19T07:49:02.634Z</time></trkpt><trkpt lat="40.8865246" lon="16.5663402"><ele>475.99999999999994</ele><time>2026-04-19T07:49:03.635Z</time></trkpt><trkpt lat="40.8864937" lon="16.5662313"><ele>476.0</ele><time>2026-04-19T07:49:04.634Z</time></trkpt><trkpt lat="40.8864667" lon="16.5661338"><ele>476.0</ele><time>2026-04-19T07:49:05.633Z</time></trkpt><trkpt lat="40.8864444" lon="16.5659998"><ele>476.0</ele><time>2026-04-19T07:49:07.633Z</time></trkpt><trkpt lat="40.8864943" lon="16.5659486"><ele>475.99999999999994</ele><time>2026-04-19T07:49:10.634Z</time></trkpt><trkpt lat="40.886575" lon="16.5659149"><ele>476.0</ele><time>2026-04-19T07:49:12.633Z</time></trkpt><trkpt lat="40.8866799" lon="16.5658572"><ele>476.16666666666663</ele><time>2026-04-19T07:49:14.636Z</time></trkpt><trkpt lat="40.886749" lon="16.5658195"><ele>476.3333333333333</ele><time>2026-04-19T07:49:15.634Z</time></trkpt><trkpt lat="40.886825" lon="16.5657786"><ele>476.5</ele><time>2026-04-19T07:49:16.633Z</time></trkpt><trkpt lat="40.8869043" lon="16.5657323"><ele>476.66666666666663</ele><time>2026-04-19T07:49:17.634Z</time></trkpt><trkpt lat="40.8869863" lon="16.5656869"><ele>476.8333333333333</ele><time>2026-04-19T07:49:18.634Z</time></trkpt><trkpt lat="40.8870659" lon="16.5656475"><ele>477.0</ele><time>2026-04-19T07:49:19.635Z</time></trkpt><trkpt lat="40.8871374" lon="16.5656112"><ele>476.71428571428567</ele><time>2026-04-19T07:49:20.634Z</time></trkpt><trkpt lat="40.887207" lon="16.565574"><ele>476.4285714285714</ele><time>2026-04-19T07:49:21.634Z</time></trkpt><trkpt lat="40.8872767" lon="16.5655367"><ele>476.1428571428571</ele><time>2026-04-19T07:49:22.635Z</time></trkpt><trkpt lat="40.8873422" lon="16.5655041"><ele>475.8571428571429</ele><time>2026-04-19T07:49:23.635Z</time></trkpt><trkpt lat="40.8874067" lon="16.5654748"><ele>475.5714285714286</ele><time>2026-04-19T07:49:24.634Z</time></trkpt><trkpt lat="40.8874745" lon="16.5654493"><ele>475.28571428571433</ele><time>2026-04-19T07:49:25.633Z</time></trkpt><trkpt lat="40.8875423" lon="16.5654224"><ele>475.0</ele><time>2026-04-19T07:49:26.634Z</time></trkpt><trkpt lat="40.8876116" lon="16.565388"><ele>474.50000000000006</ele><time>2026-04-19T07:49:27.634Z</time></trkpt><trkpt lat="40.8876816" lon="16.5653544"><ele>474.0</ele><time>2026-04-19T07:49:28.633Z</time></trkpt><trkpt lat="40.8877464" lon="16.5653244"><ele>473.5</ele><time>2026-04-19T07:49:29.634Z</time></trkpt><trkpt lat="40.8878108" lon="16.5652961"><ele>473.0</ele><time>2026-04-19T07:49:30.634Z</time></trkpt><trkpt lat="40.8878731" lon="16.5652689"><ele>472.50000000000006</ele><time>2026-04-19T07:49:31.634Z</time></trkpt><trkpt lat="40.8879841" lon="16.5652212"><ele>472.0</ele><time>2026-04-19T07:49:33.633Z</time></trkpt><trkpt lat="40.8880465" lon="16.5651924"><ele>472.00000000000006</ele><time>2026-04-19T07:49:34.634Z</time></trkpt><trkpt lat="40.88811" lon="16.565159"><ele>472.0</ele><time>2026-04-19T07:49:35.633Z</time></trkpt><trkpt lat="40.8881677" lon="16.5651246"><ele>472.0</ele><time>2026-04-19T07:49:36.634Z</time></trkpt><trkpt lat="40.8882651" lon="16.5650559"><ele>472.0</ele><time>2026-04-19T07:49:38.635Z</time></trkpt><trkpt lat="40.8883728" lon="16.5650038"><ele>472.00000000000006</ele><time>2026-04-19T07:49:40.636Z</time></trkpt><trkpt lat="40.888437" lon="16.5649945"><ele>472.0</ele><time>2026-04-19T07:49:41.633Z</time></trkpt><trkpt lat="40.8885039" lon="16.5649967"><ele>469.6</ele><time>2026-04-19T07:49:42.634Z</time></trkpt><trkpt lat="40.8885679" lon="16.5650041"><ele>467.20000000000005</ele><time>2026-04-19T07:49:43.634Z</time></trkpt><trkpt lat="40.8886321" lon="16.565011"><ele>464.8</ele><time>2026-04-19T07:49:44.634Z</time></trkpt><trkpt lat="40.8887566" lon="16.5650123"><ele>462.4</ele><time>2026-04-19T07:49:46.635Z</time></trkpt><trkpt lat="40.8888695" lon="16.5650096"><ele>460.0</ele><time>2026-04-19T07:49:48.634Z</time></trkpt><trkpt lat="40.8889737" lon="16.5649917"><ele>460.0</ele><time>2026-04-19T07:49:50.634Z</time></trkpt><trkpt lat="40.8890735" lon="16.56494"><ele>460.0</ele><time>2026-04-19T07:49:52.634Z</time></trkpt><trkpt lat="40.889176" lon="16.564858"><ele>460.0</ele><time>2026-04-19T07:49:54.634Z</time></trkpt><trkpt lat="40.8892309" lon="16.5648094"><ele>460.0</ele><time>2026-04-19T07:49:55.634Z</time></trkpt><trkpt lat="40.8893241" lon="16.5647212"><ele>460.0</ele><time>2026-04-19T07:49:57.634Z</time></trkpt><trkpt lat="40.8893974" lon="16.5646474"><ele>461.2</ele><time>2026-04-19T07:49:59.634Z</time></trkpt><trkpt lat="40.889481" lon="16.5645701"><ele>462.4</ele><time>2026-04-19T07:50:01.634Z</time></trkpt><trkpt lat="40.8895541" lon="16.5644864"><ele>463.6</ele><time>2026-04-19T07:50:03.634Z</time></trkpt><trkpt lat="40.8896137" lon="16.5643787"><ele>464.8</ele><time>2026-04-19T07:50:05.633Z</time></trkpt><trkpt lat="40.8896593" lon="16.5642617"><ele>466.0</ele><time>2026-04-19T07:50:07.635Z</time></trkpt><trkpt lat="40.8896967" lon="16.5641629"><ele>466.00000000000006</ele><time>2026-04-19T07:50:09.634Z</time></trkpt><trkpt lat="40.8897318" lon="16.5640801"><ele>466.0</ele><time>2026-04-19T07:50:11.634Z</time></trkpt><trkpt lat="40.8897567" lon="16.5639983"><ele>466.0</ele><time>2026-04-19T07:50:14.634Z</time></trkpt><trkpt lat="40.8897" lon="16.5640617"><ele>466.0</ele><time>2026-04-19T07:50:45.633Z</time></trkpt><trkpt lat="40.8896833" lon="16.56419"><ele>466.00000000000006</ele><time>2026-04-19T07:50:48.634Z</time></trkpt><trkpt lat="40.8896583" lon="16.5642983"><ele>466.0</ele><time>2026-04-19T07:50:50.634Z</time></trkpt><trkpt lat="40.8896183" lon="16.5643867"><ele>466.0</ele><time>2026-04-19T07:50:52.633Z</time></trkpt><trkpt lat="40.8895567" lon="16.5644883"><ele>466.0</ele><time>2026-04-19T07:50:54.633Z</time></trkpt><trkpt lat="40.889475" lon="16.5645833"><ele>466.0</ele><time>2026-04-19T07:50:56.634Z</time></trkpt><trkpt lat="40.8893833" lon="16.5646664"><ele>466.0</ele><time>2026-04-19T07:50:58.633Z</time></trkpt><trkpt lat="40.8892971" lon="16.5647538"><ele>466.0</ele><time>2026-04-19T07:51:00.635Z</time></trkpt><trkpt lat="40.8892158" lon="16.5648319"><ele>464.8</ele><time>2026-04-19T07:51:02.635Z</time></trkpt><trkpt lat="40.8891259" lon="16.5649124"><ele>463.6</ele><time>2026-04-19T07:51:04.634Z</time></trkpt><trkpt lat="40.8890206" lon="16.56498"><ele>462.4</ele><time>2026-04-19T07:51:06.634Z</time></trkpt><trkpt lat="40.8889256" lon="16.5650106"><ele>461.2</ele><time>2026-04-19T07:51:08.634Z</time></trkpt><trkpt lat="40.8888239" lon="16.5650164"><ele>460.0</ele><time>2026-04-19T07:51:10.637Z</time></trkpt><trkpt lat="40.8887281" lon="16.5650138"><ele>460.0</ele><time>2026-04-19T07:51:12.637Z</time></trkpt><trkpt lat="40.8886346" lon="16.5650163"><ele>460.0</ele><time>2026-04-19T07:51:14.634Z</time></trkpt><trkpt lat="40.8885509" lon="16.5650032"><ele>460.0</ele><time>2026-04-19T07:51:16.633Z</time></trkpt><trkpt lat="40.8884562" lon="16.5649895"><ele>460.0</ele><time>2026-04-19T07:51:18.633Z</time></trkpt><trkpt lat="40.8883498" lon="16.5650015"><ele>460.0</ele><time>2026-04-19T07:51:20.635Z</time></trkpt><trkpt lat="40.8882409" lon="16.5650695"><ele>462.4</ele><time>2026-04-19T07:51:22.635Z</time></trkpt><trkpt lat="40.8881503" lon="16.5651396"><ele>464.8</ele><time>2026-04-19T07:51:24.633Z</time></trkpt><trkpt lat="40.8880542" lon="16.5651919"><ele>467.20000000000005</ele><time>2026-04-19T07:51:26.634Z</time></trkpt><trkpt lat="40.8879407" lon="16.5652444"><ele>469.6</ele><time>2026-04-19T07:51:28.634Z</time></trkpt><trkpt lat="40.887878" lon="16.5652749"><ele>472.0</ele><time>2026-04-19T07:51:29.635Z</time></trkpt><trkpt lat="40.8878138" lon="16.565304"><ele>472.00000000000006</ele><time>2026-04-19T07:51:30.634Z</time></trkpt><trkpt lat="40.8877522" lon="16.5653335"><ele>472.0</ele><time>2026-04-19T07:51:31.633Z</time></trkpt><trkpt lat="40.8876914" lon="16.5653592"><ele>472.0</ele><time>2026-04-19T07:51:32.634Z</time></trkpt><trkpt lat="40.8875795" lon="16.5653972"><ele>472.0</ele><time>2026-04-19T07:51:34.633Z</time></trkpt><trkpt lat="40.8874768" lon="16.5654539"><ele>472.00000000000006</ele><time>2026-04-19T07:51:36.634Z</time></trkpt><trkpt lat="40.8874165" lon="16.5654882"><ele>472.0</ele><time>2026-04-19T07:51:37.634Z</time></trkpt><trkpt lat="40.8873547" lon="16.5655179"><ele>472.42857142857144</ele><time>2026-04-19T07:51:38.634Z</time></trkpt><trkpt lat="40.8872926" lon="16.5655437"><ele>472.8571428571429</ele><time>2026-04-19T07:51:39.634Z</time></trkpt><trkpt lat="40.8872266" lon="16.5655703"><ele>473.28571428571433</ele><time>2026-04-19T07:51:40.635Z</time></trkpt><trkpt lat="40.8871579" lon="16.5656003"><ele>473.7142857142857</ele><time>2026-04-19T07:51:41.635Z</time></trkpt><trkpt lat="40.8870834" lon="16.5656322"><ele>474.1428571428572</ele><time>2026-04-19T07:51:42.634Z</time></trkpt><trkpt lat="40.8870092" lon="16.5656683"><ele>474.5714285714286</ele><time>2026-04-19T07:51:43.634Z</time></trkpt><trkpt lat="40.8869342" lon="16.5657063"><ele>475.0</ele><time>2026-04-19T07:51:44.636Z</time></trkpt><trkpt lat="40.8868651" lon="16.5657434"><ele>475.0</ele><time>2026-04-19T07:51:45.634Z</time></trkpt><trkpt lat="40.8868041" lon="16.5657805"><ele>475.0</ele><time>2026-04-19T07:51:46.634Z</time></trkpt><trkpt lat="40.886696" lon="16.5658445"><ele>475.0</ele><time>2026-04-19T07:51:48.634Z</time></trkpt><trkpt lat="40.8866013" lon="16.5658931"><ele>475.0</ele><time>2026-04-19T07:51:50.634Z</time></trkpt><trkpt lat="40.8865196" lon="16.5659433"><ele>475.0</ele><time>2026-04-19T07:51:52.634Z</time></trkpt><trkpt lat="40.8864542" lon="16.5659842"><ele>475.2</ele><time>2026-04-19T07:51:54.635Z</time></trkpt><trkpt lat="40.88644" lon="16.5660933"><ele>475.4</ele><time>2026-04-19T07:52:26.635Z</time></trkpt><trkpt lat="40.88648" lon="16.5662083"><ele>475.6</ele><time>2026-04-19T07:52:28.635Z</time></trkpt><trkpt lat="40.886525" lon="16.566355"><ele>475.8</ele><time>2026-04-19T07:52:30.634Z</time></trkpt><trkpt lat="40.8865717" lon="16.566515"><ele>476.0</ele><time>2026-04-19T07:52:32.634Z</time></trkpt><trkpt lat="40.8865967" lon="16.5666017"><ele>475.99999999999994</ele><time>2026-04-19T07:52:33.635Z</time></trkpt><trkpt lat="40.8866217" lon="16.56669"><ele>476.0</ele><time>2026-04-19T07:52:34.633Z</time></trkpt><trkpt lat="40.886645" lon="16.5667733"><ele>476.0</ele><time>2026-04-19T07:52:35.635Z</time></trkpt><trkpt lat="40.8866683" lon="16.5668567"><ele>476.0</ele><time>2026-04-19T07:52:36.635Z</time></trkpt><trkpt lat="40.8867116" lon="16.5670068"><ele>475.99999999999994</ele><time>2026-04-19T07:52:38.634Z</time></trkpt><trkpt lat="40.8867376" lon="16.5670937"><ele>476.0</ele><time>2026-04-19T07:52:39.634Z</time></trkpt><trkpt lat="40.8867649" lon="16.5671795"><ele>472.66666666666663</ele><time>2026-04-19T07:52:40.634Z</time></trkpt><trkpt lat="40.8867911" lon="16.5672674"><ele>469.3333333333333</ele><time>2026-04-19T07:52:41.633Z</time></trkpt><trkpt lat="40.8868211" lon="16.5673663"><ele>466.0</ele><time>2026-04-19T07:52:42.633Z</time></trkpt><trkpt lat="40.88685" lon="16.5674709"><ele>462.66666666666663</ele><time>2026-04-19T07:52:43.634Z</time></trkpt><trkpt lat="40.8868804" lon="16.5675771"><ele>459.3333333333333</ele><time>2026-04-19T07:52:44.634Z</time></trkpt><trkpt lat="40.8869119" lon="16.5676864"><ele>456.0</ele><time>2026-04-19T07:52:45.635Z</time></trkpt><trkpt lat="40.8869415" lon="16.5677913"><ele>456.3333333333333</ele><time>2026-04-19T07:52:46.634Z</time></trkpt><trkpt lat="40.8869703" lon="16.5678967"><ele>456.66666666666663</ele><time>2026-04-19T07:52:47.634Z</time></trkpt><trkpt lat="40.8869995" lon="16.5680005"><ele>457.0</ele><time>2026-04-19T07:52:48.634Z</time></trkpt><trkpt lat="40.8870283" lon="16.5681011"><ele>457.3333333333333</ele><time>2026-04-19T07:52:49.635Z</time></trkpt><trkpt lat="40.8870587" lon="16.5682046"><ele>457.66666666666663</ele><time>2026-04-19T07:52:50.635Z</time></trkpt><trkpt lat="40.8870902" lon="16.5683108"><ele>458.0</ele><time>2026-04-19T07:52:51.635Z</time></trkpt><trkpt lat="40.8871207" lon="16.5684175"><ele>458.0</ele><time>2026-04-19T07:52:52.635Z</time></trkpt><trkpt lat="40.8871518" lon="16.5685273"><ele>457.99999999999994</ele><time>2026-04-19T07:52:53.635Z</time></trkpt><trkpt lat="40.8871863" lon="16.5686378"><ele>457.99999999999994</ele><time>2026-04-19T07:52:54.636Z</time></trkpt><trkpt lat="40.8872246" lon="16.5687507"><ele>458.0</ele><time>2026-04-19T07:52:55.635Z</time></trkpt><trkpt lat="40.8872643" lon="16.5688589"><ele>458.0</ele><time>2026-04-19T07:52:56.635Z</time></trkpt><trkpt lat="40.8873009" lon="16.5689635"><ele>459.66666666666663</ele><time>2026-04-19T07:52:57.635Z</time></trkpt><trkpt lat="40.8873367" lon="16.5690722"><ele>461.3333333333333</ele><time>2026-04-19T07:52:58.635Z</time></trkpt><trkpt lat="40.887374" lon="16.5691807"><ele>463.0</ele><time>2026-04-19T07:52:59.633Z</time></trkpt><trkpt lat="40.8874077" lon="16.5692797"><ele>464.66666666666663</ele><time>2026-04-19T07:53:00.634Z</time></trkpt><trkpt lat="40.8874375" lon="16.5693721"><ele>466.3333333333333</ele><time>2026-04-19T07:53:01.634Z</time></trkpt><trkpt lat="40.8874658" lon="16.5694568"><ele>468.0</ele><time>2026-04-19T07:53:02.639Z</time></trkpt><trkpt lat="40.8874937" lon="16.5695365"><ele>468.3333333333333</ele><time>2026-04-19T07:53:03.633Z</time></trkpt><trkpt lat="40.8875229" lon="16.5696235"><ele>468.66666666666663</ele><time>2026-04-19T07:53:04.633Z</time></trkpt><trkpt lat="40.8875521" lon="16.5697143"><ele>469.0</ele><time>2026-04-19T07:53:05.633Z</time></trkpt><trkpt lat="40.8875815" lon="16.5698012"><ele>469.3333333333333</ele><time>2026-04-19T07:53:06.634Z</time></trkpt><trkpt lat="40.8876116" lon="16.5698851"><ele>469.66666666666663</ele><time>2026-04-19T07:53:07.634Z</time></trkpt><trkpt lat="40.8876417" lon="16.5699597"><ele>470.0</ele><time>2026-04-19T07:53:08.634Z</time></trkpt><trkpt lat="40.8876998" lon="16.5701175"><ele>469.3333333333333</ele><time>2026-04-19T07:53:10.634Z</time></trkpt><trkpt lat="40.8877253" lon="16.5702085"><ele>468.66666666666663</ele><time>2026-04-19T07:53:11.634Z</time></trkpt><trkpt lat="40.8877506" lon="16.5702962"><ele>468.0</ele><time>2026-04-19T07:53:12.637Z</time></trkpt><trkpt lat="40.8877801" lon="16.5703858"><ele>467.33333333333337</ele><time>2026-04-19T07:53:13.634Z</time></trkpt><trkpt lat="40.8878129" lon="16.5704805"><ele>466.6666666666667</ele><time>2026-04-19T07:53:14.634Z</time></trkpt><trkpt lat="40.8878464" lon="16.5705813"><ele>466.0</ele><time>2026-04-19T07:53:15.635Z</time></trkpt><trkpt lat="40.8878802" lon="16.5706832"><ele>466.00000000000006</ele><time>2026-04-19T07:53:16.634Z</time></trkpt><trkpt lat="40.8879124" lon="16.5707756"><ele>466.0</ele><time>2026-04-19T07:53:17.634Z</time></trkpt><trkpt lat="40.8879425" lon="16.5708606"><ele>466.0</ele><time>2026-04-19T07:53:18.634Z</time></trkpt><trkpt lat="40.887972" lon="16.5709436"><ele>466.0</ele><time>2026-04-19T07:53:19.635Z</time></trkpt><trkpt lat="40.8880046" lon="16.5710196"><ele>466.00000000000006</ele><time>2026-04-19T07:53:20.635Z</time></trkpt><trkpt lat="40.8880425" lon="16.5710863"><ele>466.0</ele><time>2026-04-19T07:53:21.634Z</time></trkpt><trkpt lat="40.8881315" lon="16.5711853"><ele>466.50000000000006</ele><time>2026-04-19T07:53:23.634Z</time></trkpt><trkpt lat="40.8882121" lon="16.5712449"><ele>467.0</ele><time>2026-04-19T07:53:25.632Z</time></trkpt><trkpt lat="40.8883171" lon="16.5712756"><ele>467.5</ele><time>2026-04-19T07:53:27.633Z</time></trkpt><trkpt lat="40.8883856" lon="16.5712932"><ele>468.0</ele><time>2026-04-19T07:53:28.633Z</time></trkpt><trkpt lat="40.8884624" lon="16.5713147"><ele>468.50000000000006</ele><time>2026-04-19T07:53:29.633Z</time></trkpt><trkpt lat="40.8885432" lon="16.5713373"><ele>469.0</ele><time>2026-04-19T07:53:30.633Z</time></trkpt><trkpt lat="40.8886255" lon="16.571358"><ele>469.6666666666667</ele><time>2026-04-19T07:53:31.633Z</time></trkpt><trkpt lat="40.8887109" lon="16.5713715"><ele>470.33333333333337</ele><time>2026-04-19T07:53:32.716Z</time></trkpt><trkpt lat="40.8887927" lon="16.5713735"><ele>471.0</ele><time>2026-04-19T07:53:33.632Z</time></trkpt><trkpt lat="40.8888791" lon="16.5713668"><ele>471.66666666666663</ele><time>2026-04-19T07:53:34.634Z</time></trkpt><trkpt lat="40.8889634" lon="16.5713536"><ele>472.3333333333333</ele><time>2026-04-19T07:53:35.633Z</time></trkpt><trkpt lat="40.889051" lon="16.5713378"><ele>473.0</ele><time>2026-04-19T07:53:36.633Z</time></trkpt><trkpt lat="40.889148" lon="16.5713204"><ele>473.0</ele><time>2026-04-19T07:53:37.634Z</time></trkpt><trkpt lat="40.8892527" lon="16.5713028"><ele>472.99999999999994</ele><time>2026-04-19T07:53:38.633Z</time></trkpt><trkpt lat="40.8893542" lon="16.5712866"><ele>472.99999999999994</ele><time>2026-04-19T07:53:39.632Z</time></trkpt><trkpt lat="40.8894644" lon="16.5712688"><ele>473.0</ele><time>2026-04-19T07:53:40.634Z</time></trkpt><trkpt lat="40.88959" lon="16.5712497"><ele>473.0</ele><time>2026-04-19T07:53:41.632Z</time></trkpt><trkpt lat="40.8897194" lon="16.5712231"><ele>473.0</ele><time>2026-04-19T07:53:42.633Z</time></trkpt><trkpt lat="40.88983" lon="16.5712046"><ele>472.99999999999994</ele><time>2026-04-19T07:53:43.633Z</time></trkpt><trkpt lat="40.8899305" lon="16.5711908"><ele>472.99999999999994</ele><time>2026-04-19T07:53:44.633Z</time></trkpt><trkpt lat="40.890021" lon="16.5711805"><ele>473.0</ele><time>2026-04-19T07:53:45.633Z</time></trkpt><trkpt lat="40.8901069" lon="16.5711714"><ele>473.0</ele><time>2026-04-19T07:53:46.635Z</time></trkpt><trkpt lat="40.8901937" lon="16.5711571"><ele>469.8333333333333</ele><time>2026-04-19T07:53:47.633Z</time></trkpt><trkpt lat="40.8902813" lon="16.5711434"><ele>466.66666666666663</ele><time>2026-04-19T07:53:48.633Z</time></trkpt><trkpt lat="40.8903697" lon="16.5711328"><ele>463.5</ele><time>2026-04-19T07:53:49.633Z</time></trkpt><trkpt lat="40.8904581" lon="16.5711262"><ele>460.33333333333337</ele><time>2026-04-19T07:53:50.633Z</time></trkpt><trkpt lat="40.8905391" lon="16.5711233"><ele>457.1666666666667</ele><time>2026-04-19T07:53:51.633Z</time></trkpt><trkpt lat="40.89061" lon="16.5711158"><ele>454.0</ele><time>2026-04-19T07:53:52.633Z</time></trkpt><trkpt lat="40.8906734" lon="16.5711011"><ele>454.0</ele><time>2026-04-19T07:53:53.633Z</time></trkpt><trkpt lat="40.8907831" lon="16.5710722"><ele>454.0</ele><time>2026-04-19T07:53:55.635Z</time></trkpt><trkpt lat="40.8908746" lon="16.5710743"><ele>454.0</ele><time>2026-04-19T07:53:57.633Z</time></trkpt><trkpt lat="40.8909527" lon="16.5710901"><ele>454.0</ele><time>2026-04-19T07:53:59.633Z</time></trkpt><trkpt lat="40.8910547" lon="16.5711512"><ele>454.0</ele><time>2026-04-19T07:54:01.633Z</time></trkpt><trkpt lat="40.8911225" lon="16.5712117"><ele>458.25</ele><time>2026-04-19T07:54:02.633Z</time></trkpt><trkpt lat="40.8912063" lon="16.5712957"><ele>462.5</ele><time>2026-04-19T07:54:03.633Z</time></trkpt><trkpt lat="40.8913009" lon="16.5714018"><ele>466.75</ele><time>2026-04-19T07:54:04.633Z</time></trkpt><trkpt lat="40.8913965" lon="16.5715132"><ele>471.0</ele><time>2026-04-19T07:54:05.633Z</time></trkpt><trkpt lat="40.8914885" lon="16.57162"><ele>471.0</ele><time>2026-04-19T07:54:06.632Z</time></trkpt><trkpt lat="40.8915851" lon="16.5717304"><ele>471.0</ele><time>2026-04-19T07:54:07.633Z</time></trkpt><trkpt lat="40.8916951" lon="16.5718453"><ele>471.0</ele><time>2026-04-19T07:54:08.633Z</time></trkpt><trkpt lat="40.8918017" lon="16.5719648"><ele>471.0</ele><time>2026-04-19T07:54:09.633Z</time></trkpt><trkpt lat="40.8918956" lon="16.5720781"><ele>471.0</ele><time>2026-04-19T07:54:10.633Z</time></trkpt><trkpt lat="40.8919719" lon="16.572179"><ele>471.0</ele><time>2026-04-19T07:54:11.633Z</time></trkpt><trkpt lat="40.8920371" lon="16.5722744"><ele>471.0</ele><time>2026-04-19T07:54:12.633Z</time></trkpt><trkpt lat="40.8920902" lon="16.5723562"><ele>471.0</ele><time>2026-04-19T07:54:13.633Z</time></trkpt><trkpt lat="40.8921333" lon="16.572434"><ele>471.0</ele><time>2026-04-19T07:54:14.633Z</time></trkpt><trkpt lat="40.8921656" lon="16.5725185"><ele>471.0</ele><time>2026-04-19T07:54:15.633Z</time></trkpt><trkpt lat="40.8921838" lon="16.57262"><ele>471.0</ele><time>2026-04-19T07:54:16.633Z</time></trkpt><trkpt lat="40.892185" lon="16.572738"><ele>471.0</ele><time>2026-04-19T07:54:17.633Z</time></trkpt><trkpt lat="40.892173" lon="16.5728657"><ele>471.0</ele><time>2026-04-19T07:54:18.634Z</time></trkpt><trkpt lat="40.8921588" lon="16.573013"><ele>471.0</ele><time>2026-04-19T07:54:19.633Z</time></trkpt><trkpt lat="40.8921456" lon="16.5731613"><ele>471.0</ele><time>2026-04-19T07:54:20.633Z</time></trkpt><trkpt lat="40.892129" lon="16.5733144"><ele>471.5</ele><time>2026-04-19T07:54:21.633Z</time></trkpt><trkpt lat="40.8921051" lon="16.5734737"><ele>472.0</ele><time>2026-04-19T07:54:22.633Z</time></trkpt><trkpt lat="40.8920866" lon="16.5736413"><ele>472.5</ele><time>2026-04-19T07:54:23.633Z</time></trkpt><trkpt lat="40.8920682" lon="16.573808"><ele>473.0</ele><time>2026-04-19T07:54:24.633Z</time></trkpt><trkpt lat="40.8920495" lon="16.5739767"><ele>474.0</ele><time>2026-04-19T07:54:25.634Z</time></trkpt><trkpt lat="40.892031" lon="16.5741483"><ele>475.0</ele><time>2026-04-19T07:54:26.634Z</time></trkpt><trkpt lat="40.8920097" lon="16.5743337"><ele>476.0</ele><time>2026-04-19T07:54:27.633Z</time></trkpt><trkpt lat="40.8919917" lon="16.574532"><ele>477.0</ele><time>2026-04-19T07:54:28.633Z</time></trkpt><trkpt lat="40.891972" lon="16.5747362"><ele>477.33333333333337</ele><time>2026-04-19T07:54:29.634Z</time></trkpt><trkpt lat="40.891952" lon="16.5749465"><ele>477.6666666666667</ele><time>2026-04-19T07:54:30.633Z</time></trkpt><trkpt lat="40.8919306" lon="16.5751649"><ele>478.0</ele><time>2026-04-19T07:54:31.634Z</time></trkpt><trkpt lat="40.8919101" lon="16.5753866"><ele>478.5</ele><time>2026-04-19T07:54:32.633Z</time></trkpt><trkpt lat="40.8918919" lon="16.5755972"><ele>479.0</ele><time>2026-04-19T07:54:33.634Z</time></trkpt><trkpt lat="40.8918751" lon="16.5757895"><ele>479.5</ele><time>2026-04-19T07:54:34.634Z</time></trkpt><trkpt lat="40.8918531" lon="16.5759691"><ele>480.0</ele><time>2026-04-19T07:54:35.634Z</time></trkpt><trkpt lat="40.8918302" lon="16.5761324"><ele>480.4</ele><time>2026-04-19T07:54:36.634Z</time></trkpt><trkpt lat="40.8918183" lon="16.5762767"><ele>480.8</ele><time>2026-04-19T07:54:37.634Z</time></trkpt><trkpt lat="40.8918105" lon="16.5764022"><ele>481.20000000000005</ele><time>2026-04-19T07:54:38.634Z</time></trkpt><trkpt lat="40.8917969" lon="16.5765093"><ele>481.6</ele><time>2026-04-19T07:54:39.634Z</time></trkpt><trkpt lat="40.8917718" lon="16.5766064"><ele>482.0</ele><time>2026-04-19T07:54:40.637Z</time></trkpt><trkpt lat="40.8917355" lon="16.576708"><ele>482.0</ele><time>2026-04-19T07:54:41.636Z</time></trkpt><trkpt lat="40.8916848" lon="16.576823"><ele>482.00000000000006</ele><time>2026-04-19T07:54:42.635Z</time></trkpt><trkpt lat="40.89163" lon="16.5769481"><ele>482.00000000000006</ele><time>2026-04-19T07:54:43.634Z</time></trkpt><trkpt lat="40.8915688" lon="16.5770803"><ele>482.0</ele><time>2026-04-19T07:54:44.635Z</time></trkpt><trkpt lat="40.8915037" lon="16.5772146"><ele>482.0</ele><time>2026-04-19T07:54:45.633Z</time></trkpt><trkpt lat="40.8914365" lon="16.5773489"><ele>482.25</ele><time>2026-04-19T07:54:46.633Z</time></trkpt><trkpt lat="40.8913708" lon="16.5774802"><ele>482.5</ele><time>2026-04-19T07:54:47.633Z</time></trkpt><trkpt lat="40.8913085" lon="16.577619"><ele>482.75</ele><time>2026-04-19T07:54:48.633Z</time></trkpt><trkpt lat="40.8912425" lon="16.5777635"><ele>483.0</ele><time>2026-04-19T07:54:49.633Z</time></trkpt><trkpt lat="40.8911756" lon="16.5779035"><ele>483.2</ele><time>2026-04-19T07:54:50.634Z</time></trkpt><trkpt lat="40.8911162" lon="16.5780304"><ele>483.4</ele><time>2026-04-19T07:54:51.634Z</time></trkpt><trkpt lat="40.8910614" lon="16.5781463"><ele>483.59999999999997</ele><time>2026-04-19T07:54:52.632Z</time></trkpt><trkpt lat="40.8910117" lon="16.5782517"><ele>483.79999999999995</ele><time>2026-04-19T07:54:53.633Z</time></trkpt><trkpt lat="40.8909667" lon="16.5783533"><ele>484.0</ele><time>2026-04-19T07:54:54.633Z</time></trkpt><trkpt lat="40.8909217" lon="16.5784517"><ele>484.0</ele><time>2026-04-19T07:54:55.633Z</time></trkpt><trkpt lat="40.890875" lon="16.5785517"><ele>484.0</ele><time>2026-04-19T07:54:56.633Z</time></trkpt><trkpt lat="40.8908217" lon="16.57866"><ele>484.0</ele><time>2026-04-19T07:54:57.633Z</time></trkpt><trkpt lat="40.8907667" lon="16.5787683"><ele>484.0</ele><time>2026-04-19T07:54:58.634Z</time></trkpt><trkpt lat="40.8907133" lon="16.57888"><ele>484.0</ele><time>2026-04-19T07:54:59.633Z</time></trkpt><trkpt lat="40.89066" lon="16.5789833"><ele>484.0</ele><time>2026-04-19T07:55:00.633Z</time></trkpt><trkpt lat="40.8906" lon="16.5790917"><ele>484.0</ele><time>2026-04-19T07:55:01.633Z</time></trkpt><trkpt lat="40.8905367" lon="16.5792017"><ele>484.0</ele><time>2026-04-19T07:55:02.633Z</time></trkpt><trkpt lat="40.8904667" lon="16.5793167"><ele>484.0</ele><time>2026-04-19T07:55:03.634Z</time></trkpt><trkpt lat="40.8904" lon="16.57943"><ele>484.0</ele><time>2026-04-19T07:55:04.633Z</time></trkpt><trkpt lat="40.89033" lon="16.5795367"><ele>483.83333333333337</ele><time>2026-04-19T07:55:05.633Z</time></trkpt><trkpt lat="40.8902583" lon="16.579645"><ele>483.6666666666667</ele><time>2026-04-19T07:55:06.633Z</time></trkpt><trkpt lat="40.890195" lon="16.5797433"><ele>483.5</ele><time>2026-04-19T07:55:07.634Z</time></trkpt><trkpt lat="40.8901383" lon="16.5798333"><ele>483.33333333333337</ele><time>2026-04-19T07:55:08.633Z</time></trkpt><trkpt lat="40.890085" lon="16.579915"><ele>483.1666666666667</ele><time>2026-04-19T07:55:09.633Z</time></trkpt><trkpt lat="40.8900367" lon="16.579985"><ele>483.0</ele><time>2026-04-19T07:55:10.632Z</time></trkpt><trkpt lat="40.8899867" lon="16.580045"><ele>483.0</ele><time>2026-04-19T07:55:11.633Z</time></trkpt><trkpt lat="40.8898983" lon="16.580145"><ele>482.99999999999994</ele><time>2026-04-19T07:55:13.633Z</time></trkpt><trkpt lat="40.8898617" lon="16.5802333"><ele>482.99999999999994</ele><time>2026-04-19T07:55:15.633Z</time></trkpt><trkpt lat="40.8899133" lon="16.5803183"><ele>483.0</ele><time>2026-04-19T07:55:18.633Z</time></trkpt><trkpt lat="40.890025" lon="16.5804017"><ele>483.0</ele><time>2026-04-19T07:55:20.633Z</time></trkpt><trkpt lat="40.8901017" lon="16.5804633"><ele>483.0</ele><time>2026-04-19T07:55:21.633Z</time></trkpt><trkpt lat="40.8901867" lon="16.580535"><ele>482.99999999999994</ele><time>2026-04-19T07:55:22.633Z</time></trkpt><trkpt lat="40.8902717" lon="16.5806117"><ele>482.99999999999994</ele><time>2026-04-19T07:55:23.633Z</time></trkpt><trkpt lat="40.890355" lon="16.580685"><ele>483.0</ele><time>2026-04-19T07:55:24.633Z</time></trkpt><trkpt lat="40.8904267" lon="16.5807467"><ele>483.0</ele><time>2026-04-19T07:55:25.633Z</time></trkpt><trkpt lat="40.8904867" lon="16.5807983"><ele>483.0</ele><time>2026-04-19T07:55:26.633Z</time></trkpt><trkpt lat="40.89055" lon="16.5808533"><ele>482.99999999999994</ele><time>2026-04-19T07:55:27.633Z</time></trkpt><trkpt lat="40.8906333" lon="16.5809167"><ele>482.99999999999994</ele><time>2026-04-19T07:55:28.633Z</time></trkpt><trkpt lat="40.8907383" lon="16.581"><ele>483.0</ele><time>2026-04-19T07:55:29.633Z</time></trkpt><trkpt lat="40.8908667" lon="16.5810983"><ele>483.0</ele><time>2026-04-19T07:55:30.634Z</time></trkpt><trkpt lat="40.8910117" lon="16.5812067"><ele>481.66666666666663</ele><time>2026-04-19T07:55:31.633Z</time></trkpt><trkpt lat="40.891165" lon="16.5813233"><ele>480.3333333333333</ele><time>2026-04-19T07:55:32.633Z</time></trkpt><trkpt lat="40.8913283" lon="16.5814517"><ele>479.0</ele><time>2026-04-19T07:55:33.634Z</time></trkpt><trkpt lat="40.8915067" lon="16.5815867"><ele>479.0</ele><time>2026-04-19T07:55:34.634Z</time></trkpt><trkpt lat="40.89169" lon="16.581725"><ele>479.0</ele><time>2026-04-19T07:55:35.633Z</time></trkpt><trkpt lat="40.8918667" lon="16.58186"><ele>479.0</ele><time>2026-04-19T07:55:36.633Z</time></trkpt><trkpt lat="40.8920367" lon="16.58199"><ele>478.3333333333333</ele><time>2026-04-19T07:55:37.633Z</time></trkpt><trkpt lat="40.8921967" lon="16.58211"><ele>477.66666666666663</ele><time>2026-04-19T07:55:38.634Z</time></trkpt><trkpt lat="40.89235" lon="16.582225"><ele>477.0</ele><time>2026-04-19T07:55:39.633Z</time></trkpt><trkpt lat="40.8925083" lon="16.5823467"><ele>475.66666666666663</ele><time>2026-04-19T07:55:40.632Z</time></trkpt><trkpt lat="40.8926767" lon="16.58249"><ele>474.3333333333333</ele><time>2026-04-19T07:55:41.633Z</time></trkpt><trkpt lat="40.8928367" lon="16.58264"><ele>473.0</ele><time>2026-04-19T07:55:42.633Z</time></trkpt><trkpt lat="40.8929833" lon="16.5827867"><ele>473.0</ele><time>2026-04-19T07:55:43.632Z</time></trkpt><trkpt lat="40.8931217" lon="16.58293"><ele>473.0</ele><time>2026-04-19T07:55:44.634Z</time></trkpt><trkpt lat="40.8932517" lon="16.5830683"><ele>473.0</ele><time>2026-04-19T07:55:45.634Z</time></trkpt><trkpt lat="40.89337" lon="16.5831933"><ele>472.66666666666663</ele><time>2026-04-19T07:55:46.637Z</time></trkpt><trkpt lat="40.8934767" lon="16.5833167"><ele>472.33333333333337</ele><time>2026-04-19T07:55:47.633Z</time></trkpt><trkpt lat="40.89358" lon="16.583465"><ele>472.0</ele><time>2026-04-19T07:55:48.633Z</time></trkpt><trkpt lat="40.8936767" lon="16.5836417"><ele>472.6666666666667</ele><time>2026-04-19T07:55:49.633Z</time></trkpt><trkpt lat="40.89378" lon="16.5838333"><ele>473.33333333333337</ele><time>2026-04-19T07:55:50.634Z</time></trkpt><trkpt lat="40.8938867" lon="16.5840233"><ele>474.0</ele><time>2026-04-19T07:55:51.633Z</time></trkpt><trkpt lat="40.8939883" lon="16.5842"><ele>474.0</ele><time>2026-04-19T07:55:52.633Z</time></trkpt><trkpt lat="40.8940817" lon="16.5843633"><ele>474.0</ele><time>2026-04-19T07:55:53.633Z</time></trkpt><trkpt lat="40.8941683" lon="16.5845167"><ele>474.0</ele><time>2026-04-19T07:55:54.633Z</time></trkpt><trkpt lat="40.8942483" lon="16.5846433"><ele>474.0</ele><time>2026-04-19T07:55:55.633Z</time></trkpt><trkpt lat="40.8943183" lon="16.5847333"><ele>474.0</ele><time>2026-04-19T07:55:56.635Z</time></trkpt><trkpt lat="40.8943967" lon="16.5847883"><ele>474.0</ele><time>2026-04-19T07:55:57.633Z</time></trkpt><trkpt lat="40.8944817" lon="16.5848233"><ele>474.0</ele><time>2026-04-19T07:55:58.634Z</time></trkpt><trkpt lat="40.894595" lon="16.58484"><ele>474.0</ele><time>2026-04-19T07:55:59.633Z</time></trkpt><trkpt lat="40.8947283" lon="16.58486"><ele>474.0</ele><time>2026-04-19T07:56:00.633Z</time></trkpt><trkpt lat="40.8948833" lon="16.58488"><ele>474.0</ele><time>2026-04-19T07:56:01.633Z</time></trkpt><trkpt lat="40.8950533" lon="16.5849017"><ele>474.0</ele><time>2026-04-19T07:56:02.633Z</time></trkpt><trkpt lat="40.895235" lon="16.58493"><ele>474.0</ele><time>2026-04-19T07:56:03.634Z</time></trkpt><trkpt lat="40.8954283" lon="16.5849633"><ele>474.0</ele><time>2026-04-19T07:56:04.633Z</time></trkpt><trkpt lat="40.8956283" lon="16.5849967"><ele>474.0</ele><time>2026-04-19T07:56:05.633Z</time></trkpt><trkpt lat="40.8958267" lon="16.5850283"><ele>474.0</ele><time>2026-04-19T07:56:06.633Z</time></trkpt><trkpt lat="40.8960083" lon="16.58506"><ele>474.33333333333337</ele><time>2026-04-19T07:56:07.633Z</time></trkpt><trkpt lat="40.8961733" lon="16.5850917"><ele>474.6666666666667</ele><time>2026-04-19T07:56:08.633Z</time></trkpt><trkpt lat="40.896325" lon="16.58512"><ele>475.0</ele><time>2026-04-19T07:56:09.633Z</time></trkpt><trkpt lat="40.8964733" lon="16.5851283"><ele>475.0</ele><time>2026-04-19T07:56:10.633Z</time></trkpt><trkpt lat="40.8966367" lon="16.5851067"><ele>475.0</ele><time>2026-04-19T07:56:11.633Z</time></trkpt><trkpt lat="40.8968133" lon="16.5850733"><ele>475.0</ele><time>2026-04-19T07:56:12.634Z</time></trkpt><trkpt lat="40.897" lon="16.5850333"><ele>475.6666666666667</ele><time>2026-04-19T07:56:13.634Z</time></trkpt><trkpt lat="40.897195" lon="16.5849883"><ele>476.33333333333337</ele><time>2026-04-19T07:56:14.633Z</time></trkpt><trkpt lat="40.8973917" lon="16.5849383"><ele>477.0</ele><time>2026-04-19T07:56:15.633Z</time></trkpt><trkpt lat="40.897575" lon="16.58489"><ele>477.66666666666663</ele><time>2026-04-19T07:56:16.633Z</time></trkpt><trkpt lat="40.89774" lon="16.58485"><ele>478.3333333333333</ele><time>2026-04-19T07:56:17.639Z</time></trkpt><trkpt lat="40.8978917" lon="16.584815"><ele>479.0</ele><time>2026-04-19T07:56:18.633Z</time></trkpt><trkpt lat="40.89804" lon="16.58478"><ele>479.0</ele><time>2026-04-19T07:56:19.633Z</time></trkpt><trkpt lat="40.8981933" lon="16.5847467"><ele>479.0</ele><time>2026-04-19T07:56:20.633Z</time></trkpt><trkpt lat="40.8983533" lon="16.5847117"><ele>479.0</ele><time>2026-04-19T07:56:21.633Z</time></trkpt><trkpt lat="40.8985183" lon="16.5846733"><ele>479.0</ele><time>2026-04-19T07:56:22.632Z</time></trkpt><trkpt lat="40.8986883" lon="16.5846367"><ele>479.0</ele><time>2026-04-19T07:56:23.633Z</time></trkpt><trkpt lat="40.898865" lon="16.5845983"><ele>479.0</ele><time>2026-04-19T07:56:24.633Z</time></trkpt><trkpt lat="40.89904" lon="16.5845583"><ele>479.0</ele><time>2026-04-19T07:56:25.633Z</time></trkpt><trkpt lat="40.899205" lon="16.584515"><ele>479.0</ele><time>2026-04-19T07:56:26.633Z</time></trkpt><trkpt lat="40.8993617" lon="16.584475"><ele>479.0</ele><time>2026-04-19T07:56:27.633Z</time></trkpt><trkpt lat="40.8995183" lon="16.58445"><ele>480.0</ele><time>2026-04-19T07:56:28.633Z</time></trkpt><trkpt lat="40.899685" lon="16.5844517"><ele>481.0</ele><time>2026-04-19T07:56:29.632Z</time></trkpt><trkpt lat="40.8998583" lon="16.584475"><ele>482.0</ele><time>2026-04-19T07:56:30.633Z</time></trkpt><trkpt lat="40.9000333" lon="16.58451"><ele>482.3333333333333</ele><time>2026-04-19T07:56:31.633Z</time></trkpt><trkpt lat="40.9001983" lon="16.5845483"><ele>482.66666666666663</ele><time>2026-04-19T07:56:32.633Z</time></trkpt><trkpt lat="40.90035" lon="16.5845817"><ele>483.0</ele><time>2026-04-19T07:56:33.633Z</time></trkpt><trkpt lat="40.9004917" lon="16.5846083"><ele>483.0</ele><time>2026-04-19T07:56:34.633Z</time></trkpt><trkpt lat="40.90062" lon="16.5846317"><ele>483.0</ele><time>2026-04-19T07:56:35.634Z</time></trkpt><trkpt lat="40.90075" lon="16.58465"><ele>483.0</ele><time>2026-04-19T07:56:36.633Z</time></trkpt><trkpt lat="40.9008867" lon="16.584655"><ele>483.0</ele><time>2026-04-19T07:56:37.633Z</time></trkpt><trkpt lat="40.9010267" lon="16.5846467"><ele>483.66666666666663</ele><time>2026-04-19T07:56:38.633Z</time></trkpt><trkpt lat="40.9011783" lon="16.58463"><ele>484.3333333333333</ele><time>2026-04-19T07:56:39.633Z</time></trkpt><trkpt lat="40.9013383" lon="16.5846"><ele>485.0</ele><time>2026-04-19T07:56:40.633Z</time></trkpt><trkpt lat="40.9015033" lon="16.584555"><ele>485.0</ele><time>2026-04-19T07:56:41.633Z</time></trkpt><trkpt lat="40.9016683" lon="16.5845017"><ele>485.0</ele><time>2026-04-19T07:56:42.633Z</time></trkpt><trkpt lat="40.9018183" lon="16.5844467"><ele>485.0</ele><time>2026-04-19T07:56:43.633Z</time></trkpt><trkpt lat="40.901965" lon="16.5843933"><ele>486.0</ele><time>2026-04-19T07:56:44.634Z</time></trkpt><trkpt lat="40.9021217" lon="16.5843467"><ele>487.0</ele><time>2026-04-19T07:56:45.633Z</time></trkpt><trkpt lat="40.902285" lon="16.58431"><ele>488.0</ele><time>2026-04-19T07:56:46.633Z</time></trkpt><trkpt lat="40.9024467" lon="16.5842833"><ele>489.0</ele><time>2026-04-19T07:56:47.635Z</time></trkpt><trkpt lat="40.9026017" lon="16.5842617"><ele>490.0</ele><time>2026-04-19T07:56:48.634Z</time></trkpt><trkpt lat="40.902745" lon="16.5842617"><ele>491.0</ele><time>2026-04-19T07:56:49.633Z</time></trkpt><trkpt lat="40.9028833" lon="16.5842867"><ele>492.0</ele><time>2026-04-19T07:56:50.634Z</time></trkpt><trkpt lat="40.9030317" lon="16.5843383"><ele>492.0</ele><time>2026-04-19T07:56:51.633Z</time></trkpt><trkpt lat="40.903175" lon="16.584395"><ele>492.0</ele><time>2026-04-19T07:56:52.633Z</time></trkpt><trkpt lat="40.903305" lon="16.584425"><ele>492.0</ele><time>2026-04-19T07:56:53.633Z</time></trkpt><trkpt lat="40.9034383" lon="16.5844217"><ele>492.0</ele><time>2026-04-19T07:56:54.633Z</time></trkpt><trkpt lat="40.9035833" lon="16.58439"><ele>493.66666666666663</ele><time>2026-04-19T07:56:55.633Z</time></trkpt><trkpt lat="40.90374" lon="16.5843333"><ele>495.3333333333333</ele><time>2026-04-19T07:56:56.637Z</time></trkpt><trkpt lat="40.903915" lon="16.5842783"><ele>497.0</ele><time>2026-04-19T07:56:57.633Z</time></trkpt><trkpt lat="40.9040933" lon="16.5842333"><ele>498.66666666666663</ele><time>2026-04-19T07:56:58.634Z</time></trkpt><trkpt lat="40.9042617" lon="16.5842033"><ele>500.33333333333337</ele><time>2026-04-19T07:56:59.634Z</time></trkpt><trkpt lat="40.9044283" lon="16.584195"><ele>502.0</ele><time>2026-04-19T07:57:00.633Z</time></trkpt><trkpt lat="40.90458" lon="16.584205"><ele>502.0</ele><time>2026-04-19T07:57:01.633Z</time></trkpt><trkpt lat="40.904725" lon="16.5842033"><ele>502.0</ele><time>2026-04-19T07:57:02.633Z</time></trkpt><trkpt lat="40.9048783" lon="16.584165"><ele>502.0</ele><time>2026-04-19T07:57:03.634Z</time></trkpt><trkpt lat="40.9050417" lon="16.5841"><ele>502.6666666666667</ele><time>2026-04-19T07:57:04.633Z</time></trkpt><trkpt lat="40.9052217" lon="16.5840367"><ele>503.33333333333337</ele><time>2026-04-19T07:57:05.633Z</time></trkpt><trkpt lat="40.9054133" lon="16.5839833"><ele>504.0</ele><time>2026-04-19T07:57:06.633Z</time></trkpt><trkpt lat="40.9055983" lon="16.5839467"><ele>504.0</ele><time>2026-04-19T07:57:07.633Z</time></trkpt><trkpt lat="40.9057667" lon="16.58392"><ele>504.0</ele><time>2026-04-19T07:57:08.633Z</time></trkpt><trkpt lat="40.905915" lon="16.5838883"><ele>504.0</ele><time>2026-04-19T07:57:09.633Z</time></trkpt><trkpt lat="40.9060533" lon="16.5838483"><ele>504.0</ele><time>2026-04-19T07:57:10.634Z</time></trkpt><trkpt lat="40.9061883" lon="16.58379"><ele>504.0</ele><time>2026-04-19T07:57:11.633Z</time></trkpt><trkpt lat="40.9063233" lon="16.58371"><ele>504.0</ele><time>2026-04-19T07:57:12.633Z</time></trkpt><trkpt lat="40.9064617" lon="16.58362"><ele>504.0</ele><time>2026-04-19T07:57:13.634Z</time></trkpt><trkpt lat="40.906605" lon="16.5835217"><ele>504.0</ele><time>2026-04-19T07:57:14.634Z</time></trkpt><trkpt lat="40.9067433" lon="16.5834217"><ele>504.0</ele><time>2026-04-19T07:57:15.633Z</time></trkpt><trkpt lat="40.90687" lon="16.5833267"><ele>504.0</ele><time>2026-04-19T07:57:16.633Z</time></trkpt><trkpt lat="40.906985" lon="16.58324"><ele>504.0</ele><time>2026-04-19T07:57:17.633Z</time></trkpt><trkpt lat="40.9070883" lon="16.5831683"><ele>504.0</ele><time>2026-04-19T07:57:18.633Z</time></trkpt><trkpt lat="40.9071733" lon="16.5831083"><ele>504.0</ele><time>2026-04-19T07:57:19.633Z</time></trkpt><trkpt lat="40.9072483" lon="16.5830567"><ele>504.0</ele><time>2026-04-19T07:57:20.636Z</time></trkpt><trkpt lat="40.9073133" lon="16.5830083"><ele>504.0</ele><time>2026-04-19T07:57:21.633Z</time></trkpt><trkpt lat="40.9073683" lon="16.5829533"><ele>504.0</ele><time>2026-04-19T07:57:22.633Z</time></trkpt><trkpt lat="40.9074233" lon="16.5828767"><ele>504.0</ele><time>2026-04-19T07:57:23.633Z</time></trkpt><trkpt lat="40.9074733" lon="16.5827717"><ele>504.0</ele><time>2026-04-19T07:57:24.634Z</time></trkpt><trkpt lat="40.9075117" lon="16.582635"><ele>504.0</ele><time>2026-04-19T07:57:25.634Z</time></trkpt><trkpt lat="40.9075417" lon="16.5824783"><ele>504.0</ele><time>2026-04-19T07:57:26.634Z</time></trkpt><trkpt lat="40.9075717" lon="16.5823017"><ele>504.0</ele><time>2026-04-19T07:57:27.633Z</time></trkpt><trkpt lat="40.9076067" lon="16.5821067"><ele>502.0</ele><time>2026-04-19T07:57:28.633Z</time></trkpt><trkpt lat="40.9076433" lon="16.5818967"><ele>500.0</ele><time>2026-04-19T07:57:29.633Z</time></trkpt><trkpt lat="40.9076833" lon="16.581665"><ele>498.0</ele><time>2026-04-19T07:57:30.633Z</time></trkpt><trkpt lat="40.9077267" lon="16.5814183"><ele>498.0</ele><time>2026-04-19T07:57:31.633Z</time></trkpt><trkpt lat="40.9077717" lon="16.5811483"><ele>498.0</ele><time>2026-04-19T07:57:32.633Z</time></trkpt><trkpt lat="40.9078233" lon="16.580865"><ele>498.0</ele><time>2026-04-19T07:57:33.634Z</time></trkpt><trkpt lat="40.90788" lon="16.5805867"><ele>498.33333333333337</ele><time>2026-04-19T07:57:34.633Z</time></trkpt><trkpt lat="40.9079333" lon="16.580325"><ele>498.6666666666667</ele><time>2026-04-19T07:57:35.633Z</time></trkpt><trkpt lat="40.9079817" lon="16.58008"><ele>499.0</ele><time>2026-04-19T07:57:36.633Z</time></trkpt><trkpt lat="40.9080233" lon="16.5798467"><ele>499.0</ele><time>2026-04-19T07:57:37.634Z</time></trkpt><trkpt lat="40.9080617" lon="16.5796267"><ele>499.0</ele><time>2026-04-19T07:57:38.634Z</time></trkpt><trkpt lat="40.9080983" lon="16.5794217"><ele>499.0</ele><time>2026-04-19T07:57:39.633Z</time></trkpt><trkpt lat="40.9081317" lon="16.57923"><ele>499.75</ele><time>2026-04-19T07:57:40.634Z</time></trkpt><trkpt lat="40.9081617" lon="16.5790467"><ele>500.5</ele><time>2026-04-19T07:57:41.633Z</time></trkpt><trkpt lat="40.9081867" lon="16.5788617"><ele>501.25</ele><time>2026-04-19T07:57:42.633Z</time></trkpt><trkpt lat="40.9082117" lon="16.5786683"><ele>502.0</ele><time>2026-04-19T07:57:43.634Z</time></trkpt><trkpt lat="40.9082433" lon="16.5784783"><ele>502.0</ele><time>2026-04-19T07:57:44.635Z</time></trkpt><trkpt lat="40.90828" lon="16.578295"><ele>502.0</ele><time>2026-04-19T07:57:45.634Z</time></trkpt><trkpt lat="40.908315" lon="16.5781"><ele>502.0</ele><time>2026-04-19T07:57:46.633Z</time></trkpt><trkpt lat="40.9083533" lon="16.57789"><ele>502.0</ele><time>2026-04-19T07:57:47.633Z</time></trkpt><trkpt lat="40.90839" lon="16.5776617"><ele>502.0</ele><time>2026-04-19T07:57:48.633Z</time></trkpt><trkpt lat="40.90843" lon="16.5774183"><ele>502.0</ele><time>2026-04-19T07:57:49.633Z</time></trkpt><trkpt lat="40.9084733" lon="16.5771583"><ele>500.33333333333337</ele><time>2026-04-19T07:57:50.634Z</time></trkpt><trkpt lat="40.908525" lon="16.5768983"><ele>498.66666666666663</ele><time>2026-04-19T07:57:51.633Z</time></trkpt><trkpt lat="40.90857" lon="16.5766567"><ele>497.0</ele><time>2026-04-19T07:57:52.633Z</time></trkpt><trkpt lat="40.9086133" lon="16.57643"><ele>497.0</ele><time>2026-04-19T07:57:53.633Z</time></trkpt><trkpt lat="40.9086533" lon="16.57622"><ele>497.0</ele><time>2026-04-19T07:57:54.633Z</time></trkpt><trkpt lat="40.9086867" lon="16.5760183"><ele>497.0</ele><time>2026-04-19T07:57:55.633Z</time></trkpt><trkpt lat="40.9087217" lon="16.575825"><ele>497.3333333333333</ele><time>2026-04-19T07:57:56.635Z</time></trkpt><trkpt lat="40.9087617" lon="16.575625"><ele>497.66666666666663</ele><time>2026-04-19T07:57:57.633Z</time></trkpt><trkpt lat="40.90881" lon="16.575425"><ele>498.0</ele><time>2026-04-19T07:57:58.633Z</time></trkpt><trkpt lat="40.9088683" lon="16.5752217"><ele>498.66666666666663</ele><time>2026-04-19T07:57:59.633Z</time></trkpt><trkpt lat="40.9089433" lon="16.5750017"><ele>499.3333333333333</ele><time>2026-04-19T07:58:00.633Z</time></trkpt><trkpt lat="40.9090317" lon="16.57477"><ele>500.0</ele><time>2026-04-19T07:58:01.634Z</time></trkpt><trkpt lat="40.909125" lon="16.57453"><ele>499.66666666666663</ele><time>2026-04-19T07:58:02.633Z</time></trkpt><trkpt lat="40.9092183" lon="16.57429"><ele>499.33333333333337</ele><time>2026-04-19T07:58:03.633Z</time></trkpt><trkpt lat="40.9093067" lon="16.5740667"><ele>499.0</ele><time>2026-04-19T07:58:04.634Z</time></trkpt><trkpt lat="40.9093883" lon="16.5738567"><ele>498.6666666666667</ele><time>2026-04-19T07:58:05.636Z</time></trkpt><trkpt lat="40.909465" lon="16.57365"><ele>498.33333333333337</ele><time>2026-04-19T07:58:06.633Z</time></trkpt><trkpt lat="40.909545" lon="16.573445"><ele>498.0</ele><time>2026-04-19T07:58:07.633Z</time></trkpt><trkpt lat="40.90963" lon="16.5732417"><ele>498.0</ele><time>2026-04-19T07:58:08.634Z</time></trkpt><trkpt lat="40.90971" lon="16.5730617"><ele>498.0</ele><time>2026-04-19T07:58:09.633Z</time></trkpt><trkpt lat="40.9097817" lon="16.5729133"><ele>498.0</ele><time>2026-04-19T07:58:10.633Z</time></trkpt><trkpt lat="40.9098483" lon="16.5727883"><ele>498.0</ele><time>2026-04-19T07:58:11.634Z</time></trkpt><trkpt lat="40.9099233" lon="16.5726867"><ele>497.79999999999995</ele><time>2026-04-19T07:58:12.633Z</time></trkpt><trkpt lat="40.9100067" lon="16.5726117"><ele>497.59999999999997</ele><time>2026-04-19T07:58:13.633Z</time></trkpt><trkpt lat="40.9101033" lon="16.5725567"><ele>497.40000000000003</ele><time>2026-04-19T07:58:14.633Z</time></trkpt><trkpt lat="40.910195" lon="16.57251"><ele>497.20000000000005</ele><time>2026-04-19T07:58:15.633Z</time></trkpt><trkpt lat="40.9102683" lon="16.5724583"><ele>497.0</ele><time>2026-04-19T07:58:16.633Z</time></trkpt><trkpt lat="40.9103267" lon="16.57238"><ele>496.0</ele><time>2026-04-19T07:58:17.634Z</time></trkpt><trkpt lat="40.91037" lon="16.5722667"><ele>495.0</ele><time>2026-04-19T07:58:18.633Z</time></trkpt><trkpt lat="40.9104" lon="16.5721167"><ele>494.0</ele><time>2026-04-19T07:58:19.633Z</time></trkpt><trkpt lat="40.9104317" lon="16.5719517"><ele>493.0</ele><time>2026-04-19T07:58:20.634Z</time></trkpt><trkpt lat="40.910465" lon="16.5717767"><ele>493.0</ele><time>2026-04-19T07:58:21.633Z</time></trkpt><trkpt lat="40.9105033" lon="16.5715917"><ele>493.0</ele><time>2026-04-19T07:58:22.633Z</time></trkpt><trkpt lat="40.9105433" lon="16.57139"><ele>493.0</ele><time>2026-04-19T07:58:23.633Z</time></trkpt><trkpt lat="40.9105883" lon="16.57118"><ele>493.6666666666667</ele><time>2026-04-19T07:58:24.715Z</time></trkpt><trkpt lat="40.9106333" lon="16.570965"><ele>494.33333333333337</ele><time>2026-04-19T07:58:25.634Z</time></trkpt><trkpt lat="40.9106767" lon="16.570765"><ele>495.0</ele><time>2026-04-19T07:58:26.633Z</time></trkpt><trkpt lat="40.9107167" lon="16.57058"><ele>495.0</ele><time>2026-04-19T07:58:27.633Z</time></trkpt><trkpt lat="40.9107483" lon="16.57039"><ele>495.0</ele><time>2026-04-19T07:58:28.633Z</time></trkpt><trkpt lat="40.910765" lon="16.570185"><ele>495.0</ele><time>2026-04-19T07:58:29.632Z</time></trkpt><trkpt lat="40.91077" lon="16.5699633"><ele>495.0</ele><time>2026-04-19T07:58:30.633Z</time></trkpt><trkpt lat="40.9107767" lon="16.5697367"><ele>495.0</ele><time>2026-04-19T07:58:31.633Z</time></trkpt><trkpt lat="40.9107867" lon="16.56951"><ele>495.0</ele><time>2026-04-19T07:58:32.634Z</time></trkpt><trkpt lat="40.9107967" lon="16.5693017"><ele>494.75</ele><time>2026-04-19T07:58:33.633Z</time></trkpt><trkpt lat="40.9108067" lon="16.5691083"><ele>494.5</ele><time>2026-04-19T07:58:34.634Z</time></trkpt><trkpt lat="40.9108117" lon="16.568925"><ele>494.25</ele><time>2026-04-19T07:58:35.633Z</time></trkpt><trkpt lat="40.91081" lon="16.56875"><ele>494.0</ele><time>2026-04-19T07:58:36.633Z</time></trkpt><trkpt lat="40.9108083" lon="16.5685833"><ele>493.8333333333333</ele><time>2026-04-19T07:58:37.633Z</time></trkpt><trkpt lat="40.9108083" lon="16.5684317"><ele>493.66666666666663</ele><time>2026-04-19T07:58:38.633Z</time></trkpt><trkpt lat="40.9108183" lon="16.5682883"><ele>493.5</ele><time>2026-04-19T07:58:39.633Z</time></trkpt><trkpt lat="40.9108383" lon="16.5681717"><ele>493.33333333333337</ele><time>2026-04-19T07:58:40.633Z</time></trkpt><trkpt lat="40.910865" lon="16.56809"><ele>493.1666666666667</ele><time>2026-04-19T07:58:41.633Z</time></trkpt><trkpt lat="40.910915" lon="16.56803"><ele>493.0</ele><time>2026-04-19T07:58:42.633Z</time></trkpt><trkpt lat="40.9109983" lon="16.5679783"><ele>492.0</ele><time>2026-04-19T07:58:43.632Z</time></trkpt><trkpt lat="40.9111083" lon="16.5679317"><ele>491.0</ele><time>2026-04-19T07:58:44.633Z</time></trkpt><trkpt lat="40.911245" lon="16.5678733"><ele>490.0</ele><time>2026-04-19T07:58:45.633Z</time></trkpt><trkpt lat="40.9113833" lon="16.5678033"><ele>489.0</ele><time>2026-04-19T07:58:46.633Z</time></trkpt><trkpt lat="40.9115183" lon="16.5677217"><ele>489.0</ele><time>2026-04-19T07:58:47.635Z</time></trkpt><trkpt lat="40.91165" lon="16.56762"><ele>489.0</ele><time>2026-04-19T07:58:48.633Z</time></trkpt><trkpt lat="40.9117767" lon="16.567495"><ele>489.0</ele><time>2026-04-19T07:58:49.633Z</time></trkpt><trkpt lat="40.9118983" lon="16.5673417"><ele>488.66666666666663</ele><time>2026-04-19T07:58:50.634Z</time></trkpt><trkpt lat="40.9120183" lon="16.567165"><ele>488.3333333333333</ele><time>2026-04-19T07:58:51.633Z</time></trkpt><trkpt lat="40.91213" lon="16.5669733"><ele>488.0</ele><time>2026-04-19T07:58:52.633Z</time></trkpt><trkpt lat="40.9122317" lon="16.566785"><ele>488.66666666666663</ele><time>2026-04-19T07:58:53.634Z</time></trkpt><trkpt lat="40.912325" lon="16.566605"><ele>489.33333333333337</ele><time>2026-04-19T07:58:54.633Z</time></trkpt><trkpt lat="40.9124083" lon="16.5664417"><ele>490.0</ele><time>2026-04-19T07:58:55.633Z</time></trkpt><trkpt lat="40.9124917" lon="16.5663"><ele>490.33333333333337</ele><time>2026-04-19T07:58:56.633Z</time></trkpt><trkpt lat="40.9125967" lon="16.5661817"><ele>490.66666666666663</ele><time>2026-04-19T07:58:57.633Z</time></trkpt><trkpt lat="40.9127283" lon="16.5660817"><ele>491.0</ele><time>2026-04-19T07:58:58.633Z</time></trkpt><trkpt lat="40.912875" lon="16.5659883"><ele>491.0</ele><time>2026-04-19T07:58:59.633Z</time></trkpt><trkpt lat="40.9130333" lon="16.5658833"><ele>491.0</ele><time>2026-04-19T07:59:00.633Z</time></trkpt><trkpt lat="40.9132017" lon="16.5657667"><ele>491.0</ele><time>2026-04-19T07:59:01.633Z</time></trkpt><trkpt lat="40.9133717" lon="16.56565"><ele>490.66666666666663</ele><time>2026-04-19T07:59:02.633Z</time></trkpt><trkpt lat="40.913535" lon="16.56554"><ele>490.33333333333337</ele><time>2026-04-19T07:59:03.633Z</time></trkpt><trkpt lat="40.9136917" lon="16.5654383"><ele>490.0</ele><time>2026-04-19T07:59:04.633Z</time></trkpt><trkpt lat="40.9138383" lon="16.56534"><ele>490.0</ele><time>2026-04-19T07:59:05.634Z</time></trkpt><trkpt lat="40.9139817" lon="16.5652417"><ele>490.0</ele><time>2026-04-19T07:59:06.633Z</time></trkpt><trkpt lat="40.914125" lon="16.565125"><ele>490.0</ele><time>2026-04-19T07:59:07.632Z</time></trkpt><trkpt lat="40.91427" lon="16.5649783"><ele>490.0</ele><time>2026-04-19T07:59:08.633Z</time></trkpt><trkpt lat="40.914415" lon="16.564825"><ele>490.0</ele><time>2026-04-19T07:59:09.633Z</time></trkpt><trkpt lat="40.9145517" lon="16.56468"><ele>490.0</ele><time>2026-04-19T07:59:10.633Z</time></trkpt><trkpt lat="40.9146767" lon="16.5645417"><ele>490.0</ele><time>2026-04-19T07:59:11.633Z</time></trkpt><trkpt lat="40.9147867" lon="16.5644167"><ele>490.0</ele><time>2026-04-19T07:59:12.633Z</time></trkpt><trkpt lat="40.914875" lon="16.5643117"><ele>490.0</ele><time>2026-04-19T07:59:13.632Z</time></trkpt><trkpt lat="40.9149467" lon="16.5642383"><ele>490.0</ele><time>2026-04-19T07:59:14.633Z</time></trkpt><trkpt lat="40.9150067" lon="16.5641933"><ele>490.0</ele><time>2026-04-19T07:59:15.632Z</time></trkpt><trkpt lat="40.9151233" lon="16.5641883"><ele>489.8</ele><time>2026-04-19T07:59:17.634Z</time></trkpt><trkpt lat="40.91519" lon="16.5642283"><ele>489.6</ele><time>2026-04-19T07:59:18.633Z</time></trkpt><trkpt lat="40.9152683" lon="16.5643033"><ele>489.4</ele><time>2026-04-19T07:59:19.633Z</time></trkpt><trkpt lat="40.9153567" lon="16.5644117"><ele>489.2</ele><time>2026-04-19T07:59:20.633Z</time></trkpt><trkpt lat="40.9154533" lon="16.56453"><ele>489.0</ele><time>2026-04-19T07:59:21.633Z</time></trkpt><trkpt lat="40.9155617" lon="16.564655"><ele>488.0</ele><time>2026-04-19T07:59:22.633Z</time></trkpt><trkpt lat="40.9156767" lon="16.5647867"><ele>487.0</ele><time>2026-04-19T07:59:23.635Z</time></trkpt><trkpt lat="40.9158" lon="16.564925"><ele>486.0</ele><time>2026-04-19T07:59:24.633Z</time></trkpt><trkpt lat="40.9159267" lon="16.5650667"><ele>485.66666666666663</ele><time>2026-04-19T07:59:25.633Z</time></trkpt><trkpt lat="40.9160583" lon="16.5652117"><ele>485.3333333333333</ele><time>2026-04-19T07:59:26.633Z</time></trkpt><trkpt lat="40.91619" lon="16.565365"><ele>485.0</ele><time>2026-04-19T07:59:27.633Z</time></trkpt><trkpt lat="40.91632" lon="16.5655433"><ele>485.66666666666663</ele><time>2026-04-19T07:59:28.633Z</time></trkpt><trkpt lat="40.9164483" lon="16.5657333"><ele>486.33333333333337</ele><time>2026-04-19T07:59:29.633Z</time></trkpt><trkpt lat="40.9165783" lon="16.5659383"><ele>487.0</ele><time>2026-04-19T07:59:30.633Z</time></trkpt><trkpt lat="40.9167067" lon="16.5661367"><ele>487.6666666666667</ele><time>2026-04-19T07:59:31.634Z</time></trkpt><trkpt lat="40.9168233" lon="16.566325"><ele>488.33333333333337</ele><time>2026-04-19T07:59:32.634Z</time></trkpt><trkpt lat="40.91693" lon="16.5665067"><ele>489.0</ele><time>2026-04-19T07:59:33.633Z</time></trkpt><trkpt lat="40.91703" lon="16.566675"><ele>489.0</ele><time>2026-04-19T07:59:34.634Z</time></trkpt><trkpt lat="40.9171217" lon="16.56682"><ele>489.0</ele><time>2026-04-19T07:59:35.633Z</time></trkpt><trkpt lat="40.91719" lon="16.5669383"><ele>489.0</ele><time>2026-04-19T07:59:36.634Z</time></trkpt><trkpt lat="40.9172433" lon="16.5670283"><ele>489.0</ele><time>2026-04-19T07:59:37.633Z</time></trkpt><trkpt lat="40.9172967" lon="16.5670983"><ele>489.0</ele><time>2026-04-19T07:59:38.634Z</time></trkpt><trkpt lat="40.9173633" lon="16.567155"><ele>489.0</ele><time>2026-04-19T07:59:39.633Z</time></trkpt><trkpt lat="40.9174467" lon="16.567175"><ele>489.0</ele><time>2026-04-19T07:59:40.633Z</time></trkpt><trkpt lat="40.9175417" lon="16.5671733"><ele>489.0</ele><time>2026-04-19T07:59:41.633Z</time></trkpt><trkpt lat="40.9176367" lon="16.56713"><ele>489.0</ele><time>2026-04-19T07:59:42.635Z</time></trkpt><trkpt lat="40.917745" lon="16.567075"><ele>489.0</ele><time>2026-04-19T07:59:43.632Z</time></trkpt><trkpt lat="40.9178617" lon="16.5670233"><ele>489.75</ele><time>2026-04-19T07:59:44.633Z</time></trkpt><trkpt lat="40.917985" lon="16.5669733"><ele>490.5</ele><time>2026-04-19T07:59:45.633Z</time></trkpt><trkpt lat="40.9181183" lon="16.5669317"><ele>491.25</ele><time>2026-04-19T07:59:46.633Z</time></trkpt><trkpt lat="40.9182533" lon="16.56689"><ele>492.0</ele><time>2026-04-19T07:59:47.634Z</time></trkpt><trkpt lat="40.918395" lon="16.566845"><ele>493.0</ele><time>2026-04-19T07:59:48.634Z</time></trkpt><trkpt lat="40.91854" lon="16.5668"><ele>494.0</ele><time>2026-04-19T07:59:49.635Z</time></trkpt><trkpt lat="40.9186883" lon="16.566755"><ele>495.0</ele><time>2026-04-19T07:59:50.634Z</time></trkpt><trkpt lat="40.9188417" lon="16.5667133"><ele>495.0</ele><time>2026-04-19T07:59:51.634Z</time></trkpt><trkpt lat="40.9189917" lon="16.56667"><ele>495.0</ele><time>2026-04-19T07:59:52.635Z</time></trkpt><trkpt lat="40.9191283" lon="16.5666233"><ele>495.0</ele><time>2026-04-19T07:59:53.634Z</time></trkpt><trkpt lat="40.9192567" lon="16.5665733"><ele>495.0</ele><time>2026-04-19T07:59:54.634Z</time></trkpt><trkpt lat="40.9193617" lon="16.56654"><ele>495.8</ele><time>2026-04-19T07:59:55.633Z</time></trkpt><trkpt lat="40.9194583" lon="16.5665117"><ele>496.6</ele><time>2026-04-19T07:59:56.634Z</time></trkpt><trkpt lat="40.9195517" lon="16.56649"><ele>497.4</ele><time>2026-04-19T07:59:57.632Z</time></trkpt><trkpt lat="40.9196517" lon="16.5664717"><ele>498.2</ele><time>2026-04-19T07:59:58.633Z</time></trkpt><trkpt lat="40.9197583" lon="16.5664617"><ele>499.0</ele><time>2026-04-19T07:59:59.633Z</time></trkpt><trkpt lat="40.919875" lon="16.5664667"><ele>499.0</ele><time>2026-04-19T08:00:00.633Z</time></trkpt><trkpt lat="40.9199983" lon="16.56648"><ele>499.0</ele><time>2026-04-19T08:00:01.633Z</time></trkpt><trkpt lat="40.9201383" lon="16.5665033"><ele>499.0</ele><time>2026-04-19T08:00:02.633Z</time></trkpt><trkpt lat="40.9202867" lon="16.566525"><ele>499.0</ele><time>2026-04-19T08:00:03.633Z</time></trkpt><trkpt lat="40.9204533" lon="16.56653"><ele>499.0</ele><time>2026-04-19T08:00:04.632Z</time></trkpt><trkpt lat="40.92063" lon="16.56653"><ele>499.0</ele><time>2026-04-19T08:00:05.633Z</time></trkpt><trkpt lat="40.9208067" lon="16.566525"><ele>499.0</ele><time>2026-04-19T08:00:06.634Z</time></trkpt><trkpt lat="40.92098" lon="16.56651"><ele>499.0</ele><time>2026-04-19T08:00:07.634Z</time></trkpt><trkpt lat="40.92114" lon="16.5664983"><ele>499.0</ele><time>2026-04-19T08:00:08.634Z</time></trkpt><trkpt lat="40.9212883" lon="16.5664817"><ele>499.0</ele><time>2026-04-19T08:00:09.638Z</time></trkpt><trkpt lat="40.9214267" lon="16.566465"><ele>499.0</ele><time>2026-04-19T08:00:10.633Z</time></trkpt><trkpt lat="40.92156" lon="16.5664483"><ele>499.0</ele><time>2026-04-19T08:00:11.632Z</time></trkpt><trkpt lat="40.9216717" lon="16.56644"><ele>499.0</ele><time>2026-04-19T08:00:12.632Z</time></trkpt><trkpt lat="40.9217667" lon="16.566435"><ele>499.0</ele><time>2026-04-19T08:00:13.632Z</time></trkpt><trkpt lat="40.9218433" lon="16.5664317"><ele>499.0</ele><time>2026-04-19T08:00:14.633Z</time></trkpt><trkpt lat="40.92195" lon="16.5663933"><ele>499.0</ele><time>2026-04-19T08:00:16.633Z</time></trkpt><trkpt lat="40.92202" lon="16.56629"><ele>498.6</ele><time>2026-04-19T08:00:18.635Z</time></trkpt><trkpt lat="40.9220617" lon="16.5661533"><ele>498.2</ele><time>2026-04-19T08:00:20.634Z</time></trkpt><trkpt lat="40.9220983" lon="16.56598"><ele>497.80000000000007</ele><time>2026-04-19T08:00:22.633Z</time></trkpt><trkpt lat="40.9221217" lon="16.56587"><ele>497.40000000000003</ele><time>2026-04-19T08:00:23.634Z</time></trkpt><trkpt lat="40.9221433" lon="16.5657483"><ele>497.0</ele><time>2026-04-19T08:00:24.633Z</time></trkpt><trkpt lat="40.922165" lon="16.5656183"><ele>497.0</ele><time>2026-04-19T08:00:25.633Z</time></trkpt><trkpt lat="40.9221883" lon="16.565475"><ele>497.0</ele><time>2026-04-19T08:00:26.633Z</time></trkpt><trkpt lat="40.9222083" lon="16.5653217"><ele>497.0</ele><time>2026-04-19T08:00:27.633Z</time></trkpt><trkpt lat="40.9222283" lon="16.5651617"><ele>497.0</ele><time>2026-04-19T08:00:28.633Z</time></trkpt><trkpt lat="40.9222483" lon="16.564995"><ele>497.5</ele><time>2026-04-19T08:00:29.633Z</time></trkpt><trkpt lat="40.92227" lon="16.5648217"><ele>498.0</ele><time>2026-04-19T08:00:30.638Z</time></trkpt><trkpt lat="40.9222933" lon="16.5646517"><ele>498.5</ele><time>2026-04-19T08:00:31.633Z</time></trkpt><trkpt lat="40.9223133" lon="16.5644917"><ele>499.0</ele><time>2026-04-19T08:00:32.633Z</time></trkpt><trkpt lat="40.9223333" lon="16.5643283"><ele>499.0</ele><time>2026-04-19T08:00:33.633Z</time></trkpt><trkpt lat="40.922355" lon="16.5641617"><ele>499.0</ele><time>2026-04-19T08:00:34.633Z</time></trkpt><trkpt lat="40.9223783" lon="16.5639933"><ele>499.0</ele><time>2026-04-19T08:00:35.633Z</time></trkpt><trkpt lat="40.9223983" lon="16.5638233"><ele>499.0</ele><time>2026-04-19T08:00:36.634Z</time></trkpt><trkpt lat="40.92242" lon="16.5636533"><ele>499.5</ele><time>2026-04-19T08:00:37.633Z</time></trkpt><trkpt lat="40.92244" lon="16.5634883"><ele>500.0</ele><time>2026-04-19T08:00:38.634Z</time></trkpt><trkpt lat="40.9224567" lon="16.5633317"><ele>500.5</ele><time>2026-04-19T08:00:39.633Z</time></trkpt><trkpt lat="40.9224733" lon="16.5631767"><ele>501.0</ele><time>2026-04-19T08:00:40.633Z</time></trkpt><trkpt lat="40.9224917" lon="16.563025"><ele>501.0</ele><time>2026-04-19T08:00:41.633Z</time></trkpt><trkpt lat="40.9225117" lon="16.5628967"><ele>501.0</ele><time>2026-04-19T08:00:42.634Z</time></trkpt><trkpt lat="40.9225217" lon="16.5627933"><ele>501.0</ele><time>2026-04-19T08:00:43.632Z</time></trkpt><trkpt lat="40.9225333" lon="16.5627033"><ele>501.0</ele><time>2026-04-19T08:00:44.634Z</time></trkpt><trkpt lat="40.9225467" lon="16.56262"><ele>501.0</ele><time>2026-04-19T08:00:45.634Z</time></trkpt><trkpt lat="40.9225783" lon="16.5624617"><ele>501.0</ele><time>2026-04-19T08:00:47.633Z</time></trkpt><trkpt lat="40.9225933" lon="16.562315"><ele>501.1666666666667</ele><time>2026-04-19T08:00:49.636Z</time></trkpt><trkpt lat="40.9226017" lon="16.5622317"><ele>501.33333333333337</ele><time>2026-04-19T08:00:50.635Z</time></trkpt><trkpt lat="40.922615" lon="16.5621333"><ele>501.5</ele><time>2026-04-19T08:00:51.634Z</time></trkpt><trkpt lat="40.9226283" lon="16.5620233"><ele>501.6666666666667</ele><time>2026-04-19T08:00:52.634Z</time></trkpt><trkpt lat="40.9226467" lon="16.5619017"><ele>501.83333333333337</ele><time>2026-04-19T08:00:53.634Z</time></trkpt><trkpt lat="40.922665" lon="16.561775"><ele>502.0</ele><time>2026-04-19T08:00:54.634Z</time></trkpt><trkpt lat="40.9226817" lon="16.5616517"><ele>502.1666666666667</ele><time>2026-04-19T08:00:55.633Z</time></trkpt><trkpt lat="40.922695" lon="16.56154"><ele>502.33333333333337</ele><time>2026-04-19T08:00:56.634Z</time></trkpt><trkpt lat="40.92271" lon="16.56143"><ele>502.5</ele><time>2026-04-19T08:00:57.633Z</time></trkpt><trkpt lat="40.9227217" lon="16.5613117"><ele>502.66666666666663</ele><time>2026-04-19T08:00:58.633Z</time></trkpt><trkpt lat="40.922735" lon="16.56119"><ele>502.8333333333333</ele><time>2026-04-19T08:00:59.633Z</time></trkpt><trkpt lat="40.9227467" lon="16.56107"><ele>503.0</ele><time>2026-04-19T08:01:00.634Z</time></trkpt><trkpt lat="40.92276" lon="16.5609583"><ele>502.99999999999994</ele><time>2026-04-19T08:01:01.634Z</time></trkpt><trkpt lat="40.92277" lon="16.5608467"><ele>503.0</ele><time>2026-04-19T08:01:02.635Z</time></trkpt><trkpt lat="40.9227817" lon="16.5607367"><ele>503.0</ele><time>2026-04-19T08:01:03.634Z</time></trkpt><trkpt lat="40.9227917" lon="16.5606367"><ele>503.0</ele><time>2026-04-19T08:01:04.633Z</time></trkpt><trkpt lat="40.9228" lon="16.5605417"><ele>502.99999999999994</ele><time>2026-04-19T08:01:05.634Z</time></trkpt><trkpt lat="40.9228117" lon="16.5604567"><ele>503.0</ele><time>2026-04-19T08:01:06.634Z</time></trkpt><trkpt lat="40.92283" lon="16.56032"><ele>503.2</ele><time>2026-04-19T08:01:08.636Z</time></trkpt><trkpt lat="40.922845" lon="16.560165"><ele>503.4</ele><time>2026-04-19T08:01:10.635Z</time></trkpt><trkpt lat="40.92286" lon="16.56007"><ele>503.59999999999997</ele><time>2026-04-19T08:01:11.636Z</time></trkpt><trkpt lat="40.922875" lon="16.559965"><ele>503.79999999999995</ele><time>2026-04-19T08:01:12.634Z</time></trkpt><trkpt lat="40.9228883" lon="16.5598517"><ele>504.0</ele><time>2026-04-19T08:01:13.634Z</time></trkpt><trkpt lat="40.9229033" lon="16.5597267"><ele>504.0</ele><time>2026-04-19T08:01:14.633Z</time></trkpt><trkpt lat="40.9229217" lon="16.5595933"><ele>504.0</ele><time>2026-04-19T08:01:15.633Z</time></trkpt><trkpt lat="40.9229417" lon="16.55945"><ele>504.0</ele><time>2026-04-19T08:01:16.633Z</time></trkpt><trkpt lat="40.9229583" lon="16.5592983"><ele>504.0</ele><time>2026-04-19T08:01:17.634Z</time></trkpt><trkpt lat="40.9229767" lon="16.55915"><ele>504.0</ele><time>2026-04-19T08:01:18.634Z</time></trkpt><trkpt lat="40.9229917" lon="16.55901"><ele>504.2</ele><time>2026-04-19T08:01:19.635Z</time></trkpt><trkpt lat="40.9230033" lon="16.5588733"><ele>504.4</ele><time>2026-04-19T08:01:20.635Z</time></trkpt><trkpt lat="40.9230133" lon="16.5587333"><ele>504.6</ele><time>2026-04-19T08:01:21.634Z</time></trkpt><trkpt lat="40.923025" lon="16.5585933"><ele>504.8</ele><time>2026-04-19T08:01:22.634Z</time></trkpt><trkpt lat="40.9230367" lon="16.5584567"><ele>505.0</ele><time>2026-04-19T08:01:23.634Z</time></trkpt><trkpt lat="40.9230467" lon="16.55833"><ele>505.33333333333337</ele><time>2026-04-19T08:01:24.633Z</time></trkpt><trkpt lat="40.9230583" lon="16.558205"><ele>505.6666666666667</ele><time>2026-04-19T08:01:25.633Z</time></trkpt><trkpt lat="40.9230717" lon="16.55809"><ele>506.0</ele><time>2026-04-19T08:01:26.633Z</time></trkpt><trkpt lat="40.92308" lon="16.5579833"><ele>506.33333333333337</ele><time>2026-04-19T08:01:27.634Z</time></trkpt><trkpt lat="40.9230833" lon="16.5578833"><ele>506.6666666666667</ele><time>2026-04-19T08:01:28.634Z</time></trkpt><trkpt lat="40.923085" lon="16.5577833"><ele>507.0</ele><time>2026-04-19T08:01:29.634Z</time></trkpt><trkpt lat="40.9230883" lon="16.5576817"><ele>507.20000000000005</ele><time>2026-04-19T08:01:30.633Z</time></trkpt><trkpt lat="40.9230933" lon="16.5575733"><ele>507.40000000000003</ele><time>2026-04-19T08:01:31.634Z</time></trkpt><trkpt lat="40.9231" lon="16.55746"><ele>507.59999999999997</ele><time>2026-04-19T08:01:32.634Z</time></trkpt><trkpt lat="40.9231083" lon="16.557335"><ele>507.79999999999995</ele><time>2026-04-19T08:01:33.633Z</time></trkpt><trkpt lat="40.923115" lon="16.5572"><ele>508.0</ele><time>2026-04-19T08:01:34.633Z</time></trkpt><trkpt lat="40.92312" lon="16.557065"><ele>508.0</ele><time>2026-04-19T08:01:35.634Z</time></trkpt><trkpt lat="40.923125" lon="16.55694"><ele>507.99999999999994</ele><time>2026-04-19T08:01:36.633Z</time></trkpt><trkpt lat="40.9231317" lon="16.55682"><ele>507.99999999999994</ele><time>2026-04-19T08:01:37.633Z</time></trkpt><trkpt lat="40.923135" lon="16.55669"><ele>508.0</ele><time>2026-04-19T08:01:38.633Z</time></trkpt><trkpt lat="40.92314" lon="16.5565517"><ele>508.0</ele><time>2026-04-19T08:01:39.632Z</time></trkpt><trkpt lat="40.9231467" lon="16.5564117"><ele>508.00000000000006</ele><time>2026-04-19T08:01:40.634Z</time></trkpt><trkpt lat="40.923155" lon="16.5562683"><ele>508.0</ele><time>2026-04-19T08:01:41.634Z</time></trkpt><trkpt lat="40.923155" lon="16.5561283"><ele>508.0</ele><time>2026-04-19T08:01:42.635Z</time></trkpt><trkpt lat="40.9231517" lon="16.5560233"><ele>508.0</ele><time>2026-04-19T08:01:43.633Z</time></trkpt><trkpt lat="40.9231417" lon="16.55592"><ele>508.00000000000006</ele><time>2026-04-19T08:01:44.633Z</time></trkpt><trkpt lat="40.9231483" lon="16.5558233"><ele>508.0</ele><time>2026-04-19T08:01:45.633Z</time></trkpt><trkpt lat="40.92316" lon="16.5557283"><ele>508.00000000000006</ele><time>2026-04-19T08:01:46.633Z</time></trkpt><trkpt lat="40.9231633" lon="16.5556317"><ele>508.0</ele><time>2026-04-19T08:01:47.633Z</time></trkpt><trkpt lat="40.9231717" lon="16.55554"><ele>508.0</ele><time>2026-04-19T08:01:48.632Z</time></trkpt><trkpt lat="40.9231767" lon="16.55545"><ele>508.0</ele><time>2026-04-19T08:01:49.633Z</time></trkpt><trkpt lat="40.9231817" lon="16.5553483"><ele>508.00000000000006</ele><time>2026-04-19T08:01:50.633Z</time></trkpt><trkpt lat="40.9231883" lon="16.5552333"><ele>508.0</ele><time>2026-04-19T08:01:51.633Z</time></trkpt><trkpt lat="40.9232" lon="16.5551"><ele>508.0</ele><time>2026-04-19T08:01:52.633Z</time></trkpt><trkpt lat="40.9232167" lon="16.5549433"><ele>508.0</ele><time>2026-04-19T08:01:53.635Z</time></trkpt><trkpt lat="40.92324" lon="16.5547817"><ele>508.0</ele><time>2026-04-19T08:01:54.633Z</time></trkpt><trkpt lat="40.9232717" lon="16.55463"><ele>508.0</ele><time>2026-04-19T08:01:55.633Z</time></trkpt><trkpt lat="40.9233017" lon="16.5544917"><ele>507.79999999999995</ele><time>2026-04-19T08:01:56.633Z</time></trkpt><trkpt lat="40.9233267" lon="16.554355"><ele>507.59999999999997</ele><time>2026-04-19T08:01:57.633Z</time></trkpt><trkpt lat="40.923355" lon="16.554215"><ele>507.40000000000003</ele><time>2026-04-19T08:01:58.633Z</time></trkpt><trkpt lat="40.9233833" lon="16.5540733"><ele>507.20000000000005</ele><time>2026-04-19T08:01:59.635Z</time></trkpt><trkpt lat="40.9234133" lon="16.5539333"><ele>507.0</ele><time>2026-04-19T08:02:00.633Z</time></trkpt><trkpt lat="40.92345" lon="16.553785"><ele>507.0</ele><time>2026-04-19T08:02:01.633Z</time></trkpt><trkpt lat="40.9234917" lon="16.5536233"><ele>507.0</ele><time>2026-04-19T08:02:02.634Z</time></trkpt><trkpt lat="40.9235367" lon="16.553455"><ele>507.0</ele><time>2026-04-19T08:02:03.633Z</time></trkpt><trkpt lat="40.9235783" lon="16.55329"><ele>507.0</ele><time>2026-04-19T08:02:04.633Z</time></trkpt><trkpt lat="40.9236183" lon="16.553135"><ele>507.0</ele><time>2026-04-19T08:02:05.633Z</time></trkpt><trkpt lat="40.923655" lon="16.5529883"><ele>507.0</ele><time>2026-04-19T08:02:06.634Z</time></trkpt><trkpt lat="40.9236917" lon="16.5528433"><ele>507.0</ele><time>2026-04-19T08:02:07.633Z</time></trkpt><trkpt lat="40.9237283" lon="16.55269"><ele>507.0</ele><time>2026-04-19T08:02:08.633Z</time></trkpt><trkpt lat="40.9237667" lon="16.5525283"><ele>507.0</ele><time>2026-04-19T08:02:09.633Z</time></trkpt><trkpt lat="40.923805" lon="16.5523667"><ele>507.0</ele><time>2026-04-19T08:02:10.633Z</time></trkpt><trkpt lat="40.923845" lon="16.5522117"><ele>507.0</ele><time>2026-04-19T08:02:11.633Z</time></trkpt><trkpt lat="40.92388" lon="16.5520567"><ele>507.0</ele><time>2026-04-19T08:02:12.636Z</time></trkpt><trkpt lat="40.9239117" lon="16.55191"><ele>506.75</ele><time>2026-04-19T08:02:13.633Z</time></trkpt><trkpt lat="40.9239417" lon="16.55177"><ele>506.5</ele><time>2026-04-19T08:02:14.634Z</time></trkpt><trkpt lat="40.9239683" lon="16.5516233"><ele>506.25</ele><time>2026-04-19T08:02:15.633Z</time></trkpt><trkpt lat="40.9239883" lon="16.5514683"><ele>506.0</ele><time>2026-04-19T08:02:16.633Z</time></trkpt><trkpt lat="40.9239983" lon="16.5513117"><ele>505.5</ele><time>2026-04-19T08:02:17.634Z</time></trkpt><trkpt lat="40.924005" lon="16.5511567"><ele>505.0</ele><time>2026-04-19T08:02:18.633Z</time></trkpt><trkpt lat="40.9240117" lon="16.5509983"><ele>504.5</ele><time>2026-04-19T08:02:19.634Z</time></trkpt><trkpt lat="40.92402" lon="16.5508367"><ele>504.0</ele><time>2026-04-19T08:02:20.634Z</time></trkpt><trkpt lat="40.9240283" lon="16.55067"><ele>504.0</ele><time>2026-04-19T08:02:21.633Z</time></trkpt><trkpt lat="40.9240367" lon="16.5505"><ele>504.0</ele><time>2026-04-19T08:02:22.632Z</time></trkpt><trkpt lat="40.9240467" lon="16.55034"><ele>504.0</ele><time>2026-04-19T08:02:23.633Z</time></trkpt><trkpt lat="40.924055" lon="16.5501883"><ele>504.0</ele><time>2026-04-19T08:02:24.633Z</time></trkpt><trkpt lat="40.9240633" lon="16.5500417"><ele>504.0</ele><time>2026-04-19T08:02:25.633Z</time></trkpt><trkpt lat="40.92407" lon="16.5499017"><ele>504.0</ele><time>2026-04-19T08:02:26.635Z</time></trkpt><trkpt lat="40.9240783" lon="16.5497617"><ele>504.0</ele><time>2026-04-19T08:02:27.633Z</time></trkpt><trkpt lat="40.924085" lon="16.549635"><ele>504.0</ele><time>2026-04-19T08:02:28.633Z</time></trkpt><trkpt lat="40.9240883" lon="16.5495083"><ele>504.0</ele><time>2026-04-19T08:02:29.633Z</time></trkpt><trkpt lat="40.924095" lon="16.5493817"><ele>503.8333333333333</ele><time>2026-04-19T08:02:30.633Z</time></trkpt><trkpt lat="40.924105" lon="16.5492567"><ele>503.66666666666663</ele><time>2026-04-19T08:02:31.633Z</time></trkpt><trkpt lat="40.92412" lon="16.5491367"><ele>503.5</ele><time>2026-04-19T08:02:32.633Z</time></trkpt><trkpt lat="40.9241433" lon="16.5490267"><ele>503.3333333333333</ele><time>2026-04-19T08:02:33.634Z</time></trkpt><trkpt lat="40.9241717" lon="16.548925"><ele>503.16666666666663</ele><time>2026-04-19T08:02:34.633Z</time></trkpt><trkpt lat="40.9242" lon="16.5488267"><ele>503.0</ele><time>2026-04-19T08:02:35.634Z</time></trkpt><trkpt lat="40.9242283" lon="16.5487217"><ele>502.4</ele><time>2026-04-19T08:02:36.633Z</time></trkpt><trkpt lat="40.9242633" lon="16.5486083"><ele>501.79999999999995</ele><time>2026-04-19T08:02:37.633Z</time></trkpt><trkpt lat="40.9243017" lon="16.548485"><ele>501.2</ele><time>2026-04-19T08:02:38.633Z</time></trkpt><trkpt lat="40.9243417" lon="16.5483517"><ele>500.6</ele><time>2026-04-19T08:02:39.633Z</time></trkpt><trkpt lat="40.924385" lon="16.5482167"><ele>500.0</ele><time>2026-04-19T08:02:40.633Z</time></trkpt><trkpt lat="40.9244233" lon="16.5480867"><ele>499.99999999999994</ele><time>2026-04-19T08:02:41.634Z</time></trkpt><trkpt lat="40.9244567" lon="16.5479667"><ele>500.0</ele><time>2026-04-19T08:02:42.634Z</time></trkpt><trkpt lat="40.9244867" lon="16.54786"><ele>500.0</ele><time>2026-04-19T08:02:43.633Z</time></trkpt><trkpt lat="40.9245133" lon="16.5477617"><ele>500.0</ele><time>2026-04-19T08:02:44.634Z</time></trkpt><trkpt lat="40.9245383" lon="16.54767"><ele>499.99999999999994</ele><time>2026-04-19T08:02:45.633Z</time></trkpt><trkpt lat="40.9245683" lon="16.547575"><ele>500.0</ele><time>2026-04-19T08:02:46.634Z</time></trkpt><trkpt lat="40.9246" lon="16.54747"><ele>499.49999999999994</ele><time>2026-04-19T08:02:47.638Z</time></trkpt><trkpt lat="40.92464" lon="16.5473667"><ele>499.0</ele><time>2026-04-19T08:02:48.634Z</time></trkpt><trkpt lat="40.9246817" lon="16.547265"><ele>498.5</ele><time>2026-04-19T08:02:49.633Z</time></trkpt><trkpt lat="40.924725" lon="16.54717"><ele>498.0</ele><time>2026-04-19T08:02:50.634Z</time></trkpt><trkpt lat="40.9247633" lon="16.5470783"><ele>497.49999999999994</ele><time>2026-04-19T08:02:51.632Z</time></trkpt><trkpt lat="40.9248017" lon="16.5469883"><ele>497.0</ele><time>2026-04-19T08:02:52.633Z</time></trkpt><trkpt lat="40.92484" lon="16.5469033"><ele>497.0</ele><time>2026-04-19T08:02:53.633Z</time></trkpt><trkpt lat="40.9248817" lon="16.5468283"><ele>497.0</ele><time>2026-04-19T08:02:54.718Z</time></trkpt><trkpt lat="40.9249233" lon="16.5467617"><ele>497.0</ele><time>2026-04-19T08:02:55.634Z</time></trkpt><trkpt lat="40.92497" lon="16.5467017"><ele>497.0</ele><time>2026-04-19T08:02:56.634Z</time></trkpt><trkpt lat="40.9250167" lon="16.546645"><ele>497.0</ele><time>2026-04-19T08:02:57.633Z</time></trkpt><trkpt lat="40.9250617" lon="16.5465867"><ele>497.0</ele><time>2026-04-19T08:02:58.633Z</time></trkpt><trkpt lat="40.9251033" lon="16.5465167"><ele>497.0</ele><time>2026-04-19T08:02:59.633Z</time></trkpt><trkpt lat="40.9251483" lon="16.5464267"><ele>496.3333333333333</ele><time>2026-04-19T08:03:00.633Z</time></trkpt><trkpt lat="40.9251933" lon="16.54633"><ele>495.66666666666663</ele><time>2026-04-19T08:03:01.634Z</time></trkpt><trkpt lat="40.9252367" lon="16.5462317"><ele>495.0</ele><time>2026-04-19T08:03:02.635Z</time></trkpt><trkpt lat="40.9252717" lon="16.5461433"><ele>494.33333333333337</ele><time>2026-04-19T08:03:03.634Z</time></trkpt><trkpt lat="40.9253067" lon="16.5460567"><ele>493.6666666666667</ele><time>2026-04-19T08:03:04.633Z</time></trkpt><trkpt lat="40.92534" lon="16.54597"><ele>493.0</ele><time>2026-04-19T08:03:05.633Z</time></trkpt><trkpt lat="40.9253667" lon="16.545885"><ele>493.0</ele><time>2026-04-19T08:03:06.633Z</time></trkpt><trkpt lat="40.9253867" lon="16.5458017"><ele>493.0</ele><time>2026-04-19T08:03:07.633Z</time></trkpt><trkpt lat="40.925415" lon="16.54572"><ele>493.0</ele><time>2026-04-19T08:03:08.634Z</time></trkpt><trkpt lat="40.9254517" lon="16.5456317"><ele>493.0</ele><time>2026-04-19T08:03:09.633Z</time></trkpt><trkpt lat="40.92549" lon="16.5455483"><ele>493.0</ele><time>2026-04-19T08:03:10.633Z</time></trkpt><trkpt lat="40.9255333" lon="16.5454767"><ele>493.0</ele><time>2026-04-19T08:03:11.633Z</time></trkpt><trkpt lat="40.9255867" lon="16.5454167"><ele>493.0</ele><time>2026-04-19T08:03:12.633Z</time></trkpt><trkpt lat="40.9256483" lon="16.5453617"><ele>493.00000000000006</ele><time>2026-04-19T08:03:13.633Z</time></trkpt><trkpt lat="40.9257183" lon="16.5453067"><ele>493.0</ele><time>2026-04-19T08:03:14.634Z</time></trkpt><trkpt lat="40.9257917" lon="16.54525"><ele>493.0</ele><time>2026-04-19T08:03:15.633Z</time></trkpt><trkpt lat="40.92586" lon="16.545195"><ele>493.0</ele><time>2026-04-19T08:03:16.633Z</time></trkpt><trkpt lat="40.9259217" lon="16.5451317"><ele>493.00000000000006</ele><time>2026-04-19T08:03:17.633Z</time></trkpt><trkpt lat="40.925985" lon="16.5450567"><ele>493.0</ele><time>2026-04-19T08:03:18.633Z</time></trkpt><trkpt lat="40.926055" lon="16.5449783"><ele>493.1666666666667</ele><time>2026-04-19T08:03:19.633Z</time></trkpt><trkpt lat="40.9261267" lon="16.5449033"><ele>493.33333333333337</ele><time>2026-04-19T08:03:20.633Z</time></trkpt><trkpt lat="40.9262033" lon="16.5448317"><ele>493.5</ele><time>2026-04-19T08:03:21.633Z</time></trkpt><trkpt lat="40.9262817" lon="16.5447717"><ele>493.66666666666663</ele><time>2026-04-19T08:03:22.633Z</time></trkpt><trkpt lat="40.9263533" lon="16.5447217"><ele>493.8333333333333</ele><time>2026-04-19T08:03:23.635Z</time></trkpt><trkpt lat="40.9264233" lon="16.5446717"><ele>494.0</ele><time>2026-04-19T08:03:24.633Z</time></trkpt><trkpt lat="40.9264983" lon="16.5446183"><ele>493.99999999999994</ele><time>2026-04-19T08:03:25.633Z</time></trkpt><trkpt lat="40.9265733" lon="16.5445717"><ele>494.0</ele><time>2026-04-19T08:03:26.634Z</time></trkpt><trkpt lat="40.9266517" lon="16.5445433"><ele>494.0</ele><time>2026-04-19T08:03:27.633Z</time></trkpt><trkpt lat="40.9267333" lon="16.54453"><ele>494.0</ele><time>2026-04-19T08:03:28.633Z</time></trkpt><trkpt lat="40.9268233" lon="16.5445233"><ele>493.99999999999994</ele><time>2026-04-19T08:03:29.634Z</time></trkpt><trkpt lat="40.9269183" lon="16.54451"><ele>494.0</ele><time>2026-04-19T08:03:30.633Z</time></trkpt><trkpt lat="40.9270167" lon="16.544485"><ele>494.4</ele><time>2026-04-19T08:03:31.633Z</time></trkpt><trkpt lat="40.9271183" lon="16.5444567"><ele>494.79999999999995</ele><time>2026-04-19T08:03:32.633Z</time></trkpt><trkpt lat="40.927225" lon="16.5444283"><ele>495.20000000000005</ele><time>2026-04-19T08:03:33.633Z</time></trkpt><trkpt lat="40.92733" lon="16.5444"><ele>495.6</ele><time>2026-04-19T08:03:34.633Z</time></trkpt><trkpt lat="40.9274317" lon="16.544375"><ele>496.0</ele><time>2026-04-19T08:03:35.633Z</time></trkpt><trkpt lat="40.9275383" lon="16.5443433"><ele>496.0</ele><time>2026-04-19T08:03:36.633Z</time></trkpt><trkpt lat="40.9276483" lon="16.5443117"><ele>496.0</ele><time>2026-04-19T08:03:37.634Z</time></trkpt><trkpt lat="40.9277667" lon="16.5442917"><ele>496.0</ele><time>2026-04-19T08:03:38.634Z</time></trkpt><trkpt lat="40.927885" lon="16.5442833"><ele>496.0</ele><time>2026-04-19T08:03:39.633Z</time></trkpt><trkpt lat="40.9279967" lon="16.5442767"><ele>496.0</ele><time>2026-04-19T08:03:40.633Z</time></trkpt><trkpt lat="40.9281" lon="16.5442683"><ele>496.0</ele><time>2026-04-19T08:03:41.634Z</time></trkpt><trkpt lat="40.9281967" lon="16.54426"><ele>496.0</ele><time>2026-04-19T08:03:42.633Z</time></trkpt><trkpt lat="40.9282883" lon="16.544255"><ele>496.0</ele><time>2026-04-19T08:03:43.633Z</time></trkpt><trkpt lat="40.9283733" lon="16.54424"><ele>496.0</ele><time>2026-04-19T08:03:44.634Z</time></trkpt><trkpt lat="40.9284483" lon="16.5442017"><ele>496.00000000000006</ele><time>2026-04-19T08:03:45.633Z</time></trkpt><trkpt lat="40.9285083" lon="16.544135"><ele>496.0</ele><time>2026-04-19T08:03:46.634Z</time></trkpt><trkpt lat="40.928565" lon="16.54406"><ele>496.0</ele><time>2026-04-19T08:03:47.633Z</time></trkpt><trkpt lat="40.9286217" lon="16.5439967"><ele>496.0</ele><time>2026-04-19T08:03:48.633Z</time></trkpt><trkpt lat="40.9286917" lon="16.543955"><ele>496.00000000000006</ele><time>2026-04-19T08:03:49.635Z</time></trkpt><trkpt lat="40.9287767" lon="16.5439267"><ele>496.0</ele><time>2026-04-19T08:03:50.634Z</time></trkpt><trkpt lat="40.9288583" lon="16.5438883"><ele>496.00000000000006</ele><time>2026-04-19T08:03:51.633Z</time></trkpt><trkpt lat="40.9289333" lon="16.5438367"><ele>496.0</ele><time>2026-04-19T08:03:52.633Z</time></trkpt><trkpt lat="40.9289983" lon="16.5437583"><ele>496.0</ele><time>2026-04-19T08:03:53.634Z</time></trkpt><trkpt lat="40.929065" lon="16.543675"><ele>496.0</ele><time>2026-04-19T08:03:54.633Z</time></trkpt><trkpt lat="40.92914" lon="16.5436067"><ele>496.00000000000006</ele><time>2026-04-19T08:03:55.633Z</time></trkpt><trkpt lat="40.929225" lon="16.543555"><ele>496.0</ele><time>2026-04-19T08:03:56.635Z</time></trkpt><trkpt lat="40.92931" lon="16.5435"><ele>496.0</ele><time>2026-04-19T08:03:57.633Z</time></trkpt><trkpt lat="40.9293883" lon="16.5434233"><ele>496.0</ele><time>2026-04-19T08:03:58.636Z</time></trkpt><trkpt lat="40.9294583" lon="16.5433217"><ele>496.0</ele><time>2026-04-19T08:03:59.634Z</time></trkpt><trkpt lat="40.9295217" lon="16.5432017"><ele>496.0</ele><time>2026-04-19T08:04:00.633Z</time></trkpt><trkpt lat="40.9295783" lon="16.5430783"><ele>496.0</ele><time>2026-04-19T08:04:01.635Z</time></trkpt><trkpt lat="40.9296267" lon="16.5429583"><ele>496.1666666666667</ele><time>2026-04-19T08:04:02.634Z</time></trkpt><trkpt lat="40.9296583" lon="16.5428367"><ele>496.33333333333337</ele><time>2026-04-19T08:04:03.633Z</time></trkpt><trkpt lat="40.9296717" lon="16.5427167"><ele>496.5</ele><time>2026-04-19T08:04:04.633Z</time></trkpt><trkpt lat="40.9296817" lon="16.5426"><ele>496.66666666666663</ele><time>2026-04-19T08:04:05.635Z</time></trkpt><trkpt lat="40.9296933" lon="16.5424933"><ele>496.8333333333333</ele><time>2026-04-19T08:04:06.633Z</time></trkpt><trkpt lat="40.929705" lon="16.5423883"><ele>497.0</ele><time>2026-04-19T08:04:07.636Z</time></trkpt><trkpt lat="40.92972" lon="16.54227"><ele>497.0</ele><time>2026-04-19T08:04:08.633Z</time></trkpt><trkpt lat="40.9297433" lon="16.5421417"><ele>497.00000000000006</ele><time>2026-04-19T08:04:09.633Z</time></trkpt><trkpt lat="40.929775" lon="16.5420067"><ele>497.00000000000006</ele><time>2026-04-19T08:04:10.633Z</time></trkpt><trkpt lat="40.9298133" lon="16.54187"><ele>497.0</ele><time>2026-04-19T08:04:11.633Z</time></trkpt><trkpt lat="40.9298567" lon="16.54174"><ele>497.0</ele><time>2026-04-19T08:04:12.633Z</time></trkpt><trkpt lat="40.9298983" lon="16.54162"><ele>497.16666666666663</ele><time>2026-04-19T08:04:13.633Z</time></trkpt><trkpt lat="40.9299383" lon="16.5415"><ele>497.3333333333333</ele><time>2026-04-19T08:04:14.633Z</time></trkpt><trkpt lat="40.929975" lon="16.5413783"><ele>497.5</ele><time>2026-04-19T08:04:15.633Z</time></trkpt><trkpt lat="40.93001" lon="16.5412667"><ele>497.66666666666663</ele><time>2026-04-19T08:04:16.633Z</time></trkpt><trkpt lat="40.9300433" lon="16.5411633"><ele>497.8333333333333</ele><time>2026-04-19T08:04:17.634Z</time></trkpt><trkpt lat="40.9300717" lon="16.5410717"><ele>498.0</ele><time>2026-04-19T08:04:18.633Z</time></trkpt><trkpt lat="40.9301117" lon="16.540945"><ele>497.6666666666667</ele><time>2026-04-19T08:04:20.634Z</time></trkpt><trkpt lat="40.9301467" lon="16.54085"><ele>497.33333333333337</ele><time>2026-04-19T08:04:22.633Z</time></trkpt><trkpt lat="40.9301733" lon="16.54076"><ele>497.0</ele><time>2026-04-19T08:04:24.634Z</time></trkpt><trkpt lat="40.9302017" lon="16.5406383"><ele>496.6666666666667</ele><time>2026-04-19T08:04:27.634Z</time></trkpt><trkpt lat="40.9302317" lon="16.5404917"><ele>496.33333333333337</ele><time>2026-04-19T08:04:29.633Z</time></trkpt><trkpt lat="40.930255" lon="16.5404067"><ele>496.0</ele><time>2026-04-19T08:04:30.633Z</time></trkpt><trkpt lat="40.93028" lon="16.5403167"><ele>496.00000000000006</ele><time>2026-04-19T08:04:31.633Z</time></trkpt><trkpt lat="40.9303117" lon="16.54022"><ele>496.0</ele><time>2026-04-19T08:04:32.634Z</time></trkpt><trkpt lat="40.930345" lon="16.5401183"><ele>496.0</ele><time>2026-04-19T08:04:33.635Z</time></trkpt><trkpt lat="40.930375" lon="16.5400083"><ele>496.0</ele><time>2026-04-19T08:04:34.634Z</time></trkpt><trkpt lat="40.930405" lon="16.539895"><ele>496.00000000000006</ele><time>2026-04-19T08:04:35.635Z</time></trkpt><trkpt lat="40.930435" lon="16.5397833"><ele>496.0</ele><time>2026-04-19T08:04:36.633Z</time></trkpt><trkpt lat="40.9304667" lon="16.5396933"><ele>496.0</ele><time>2026-04-19T08:04:37.633Z</time></trkpt><trkpt lat="40.9305367" lon="16.5395933"><ele>496.0</ele><time>2026-04-19T08:04:39.633Z</time></trkpt><trkpt lat="40.9305933" lon="16.5395"><ele>496.0</ele><time>2026-04-19T08:04:41.633Z</time></trkpt><trkpt lat="40.9306167" lon="16.53936"><ele>496.0</ele><time>2026-04-19T08:04:43.633Z</time></trkpt><trkpt lat="40.9306267" lon="16.5392667"><ele>496.0</ele><time>2026-04-19T08:04:44.634Z</time></trkpt><trkpt lat="40.93064" lon="16.539165"><ele>496.33333333333337</ele><time>2026-04-19T08:04:45.633Z</time></trkpt><trkpt lat="40.930665" lon="16.5390617"><ele>496.6666666666667</ele><time>2026-04-19T08:04:46.633Z</time></trkpt><trkpt lat="40.9306933" lon="16.5389517"><ele>497.0</ele><time>2026-04-19T08:04:47.634Z</time></trkpt><trkpt lat="40.9307217" lon="16.5388333"><ele>497.33333333333337</ele><time>2026-04-19T08:04:48.635Z</time></trkpt><trkpt lat="40.9307533" lon="16.5387183"><ele>497.6666666666667</ele><time>2026-04-19T08:04:49.635Z</time></trkpt><trkpt lat="40.9307817" lon="16.53861"><ele>498.0</ele><time>2026-04-19T08:04:50.635Z</time></trkpt><trkpt lat="40.93081" lon="16.5385167"><ele>498.2</ele><time>2026-04-19T08:04:51.633Z</time></trkpt><trkpt lat="40.9308417" lon="16.5384367"><ele>498.4</ele><time>2026-04-19T08:04:52.634Z</time></trkpt><trkpt lat="40.93091" lon="16.5383217"><ele>498.59999999999997</ele><time>2026-04-19T08:04:54.634Z</time></trkpt><trkpt lat="40.9310183" lon="16.5382333"><ele>498.79999999999995</ele><time>2026-04-19T08:04:56.635Z</time></trkpt><trkpt lat="40.9310883" lon="16.5381667"><ele>499.0</ele><time>2026-04-19T08:04:57.634Z</time></trkpt><trkpt lat="40.9311583" lon="16.5380933"><ele>499.1428571428572</ele><time>2026-04-19T08:04:58.634Z</time></trkpt><trkpt lat="40.9312217" lon="16.5380183"><ele>499.28571428571433</ele><time>2026-04-19T08:04:59.635Z</time></trkpt><trkpt lat="40.93128" lon="16.5379483"><ele>499.42857142857144</ele><time>2026-04-19T08:05:00.636Z</time></trkpt><trkpt lat="40.93134" lon="16.5378833"><ele>499.5714285714286</ele><time>2026-04-19T08:05:01.635Z</time></trkpt><trkpt lat="40.9314" lon="16.53783"><ele>499.7142857142858</ele><time>2026-04-19T08:05:02.635Z</time></trkpt><trkpt lat="40.9314583" lon="16.53778"><ele>499.85714285714283</ele><time>2026-04-19T08:05:03.634Z</time></trkpt><trkpt lat="40.9315117" lon="16.537735"><ele>500.0</ele><time>2026-04-19T08:05:04.634Z</time></trkpt><trkpt lat="40.9316067" lon="16.537655"><ele>500.0</ele><time>2026-04-19T08:05:06.634Z</time></trkpt><trkpt lat="40.931685" lon="16.5375867"><ele>500.0</ele><time>2026-04-19T08:05:08.634Z</time></trkpt><trkpt lat="40.9317683" lon="16.5375133"><ele>500.0</ele><time>2026-04-19T08:05:10.634Z</time></trkpt><trkpt lat="40.931885" lon="16.5374267"><ele>500.0</ele><time>2026-04-19T08:05:12.633Z</time></trkpt><trkpt lat="40.9319567" lon="16.5373717"><ele>500.0</ele><time>2026-04-19T08:05:13.633Z</time></trkpt><trkpt lat="40.9320333" lon="16.537315"><ele>499.8333333333333</ele><time>2026-04-19T08:05:14.634Z</time></trkpt><trkpt lat="40.9321033" lon="16.537255"><ele>499.66666666666663</ele><time>2026-04-19T08:05:15.633Z</time></trkpt><trkpt lat="40.93217" lon="16.537195"><ele>499.5</ele><time>2026-04-19T08:05:16.633Z</time></trkpt><trkpt lat="40.9322317" lon="16.5371383"><ele>499.33333333333337</ele><time>2026-04-19T08:05:17.634Z</time></trkpt><trkpt lat="40.93229" lon="16.537085"><ele>499.1666666666667</ele><time>2026-04-19T08:05:18.633Z</time></trkpt><trkpt lat="40.9323483" lon="16.5370267"><ele>499.0</ele><time>2026-04-19T08:05:19.635Z</time></trkpt><trkpt lat="40.9324083" lon="16.5369617"><ele>499.00000000000006</ele><time>2026-04-19T08:05:20.634Z</time></trkpt><trkpt lat="40.932475" lon="16.5368933"><ele>499.0</ele><time>2026-04-19T08:05:21.633Z</time></trkpt><trkpt lat="40.9325417" lon="16.5368267"><ele>499.0</ele><time>2026-04-19T08:05:22.634Z</time></trkpt><trkpt lat="40.9326133" lon="16.5367567"><ele>499.0</ele><time>2026-04-19T08:05:23.634Z</time></trkpt><trkpt lat="40.9326833" lon="16.5366933"><ele>499.00000000000006</ele><time>2026-04-19T08:05:24.633Z</time></trkpt><trkpt lat="40.9327483" lon="16.536635"><ele>499.0</ele><time>2026-04-19T08:05:25.633Z</time></trkpt><trkpt lat="40.9328133" lon="16.5365783"><ele>499.00000000000006</ele><time>2026-04-19T08:05:26.634Z</time></trkpt><trkpt lat="40.9328783" lon="16.5365217"><ele>499.0</ele><time>2026-04-19T08:05:27.633Z</time></trkpt><trkpt lat="40.9329467" lon="16.5364633"><ele>499.0</ele><time>2026-04-19T08:05:28.633Z</time></trkpt><trkpt lat="40.9330133" lon="16.5363983"><ele>499.0</ele><time>2026-04-19T08:05:29.634Z</time></trkpt><trkpt lat="40.9330817" lon="16.5363367"><ele>499.00000000000006</ele><time>2026-04-19T08:05:30.634Z</time></trkpt><trkpt lat="40.9331433" lon="16.536275"><ele>499.0</ele><time>2026-04-19T08:05:31.633Z</time></trkpt><trkpt lat="40.9332033" lon="16.5362217"><ele>499.4</ele><time>2026-04-19T08:05:32.634Z</time></trkpt><trkpt lat="40.9332633" lon="16.5361733"><ele>499.79999999999995</ele><time>2026-04-19T08:05:33.633Z</time></trkpt><trkpt lat="40.933315" lon="16.536125"><ele>500.20000000000005</ele><time>2026-04-19T08:05:34.633Z</time></trkpt><trkpt lat="40.933405" lon="16.536035"><ele>500.6</ele><time>2026-04-19T08:05:36.633Z</time></trkpt><trkpt lat="40.9334917" lon="16.53601"><ele>501.0</ele><time>2026-04-19T08:05:38.636Z</time></trkpt><trkpt lat="40.9336067" lon="16.5360133"><ele>501.0</ele><time>2026-04-19T08:05:40.634Z</time></trkpt><trkpt lat="40.933675" lon="16.536015"><ele>501.0</ele><time>2026-04-19T08:05:41.633Z</time></trkpt><trkpt lat="40.9337483" lon="16.536015"><ele>501.0</ele><time>2026-04-19T08:05:42.633Z</time></trkpt><trkpt lat="40.93382" lon="16.5360117"><ele>501.0</ele><time>2026-04-19T08:05:43.633Z</time></trkpt><trkpt lat="40.9338917" lon="16.5360067"><ele>501.0</ele><time>2026-04-19T08:05:44.633Z</time></trkpt><trkpt lat="40.9339633" lon="16.5360017"><ele>501.0</ele><time>2026-04-19T08:05:45.634Z</time></trkpt><trkpt lat="40.9340317" lon="16.5359983"><ele>501.0</ele><time>2026-04-19T08:05:46.634Z</time></trkpt><trkpt lat="40.9341" lon="16.535995"><ele>501.0</ele><time>2026-04-19T08:05:47.634Z</time></trkpt><trkpt lat="40.9341683" lon="16.5359833"><ele>501.0</ele><time>2026-04-19T08:05:48.633Z</time></trkpt><trkpt lat="40.9342333" lon="16.535965"><ele>501.0</ele><time>2026-04-19T08:05:49.634Z</time></trkpt><trkpt lat="40.93431" lon="16.5359533"><ele>501.0</ele><time>2026-04-19T08:06:20.633Z</time></trkpt><trkpt lat="40.93434" lon="16.5358433"><ele>501.0</ele><time>2026-04-19T08:06:23.634Z</time></trkpt><trkpt lat="40.934365" lon="16.53574"><ele>501.0</ele><time>2026-04-19T08:06:25.633Z</time></trkpt><trkpt lat="40.9343967" lon="16.5356533"><ele>501.0</ele><time>2026-04-19T08:06:27.634Z</time></trkpt><trkpt lat="40.9344467" lon="16.5355483"><ele>501.0</ele><time>2026-04-19T08:06:29.634Z</time></trkpt><trkpt lat="40.934475" lon="16.5354467"><ele>501.0</ele><time>2026-04-19T08:06:31.633Z</time></trkpt><trkpt lat="40.9344867" lon="16.5353517"><ele>501.0</ele><time>2026-04-19T08:06:33.633Z</time></trkpt><trkpt lat="40.93448" lon="16.5352383"><ele>501.0</ele><time>2026-04-19T08:06:35.633Z</time></trkpt><trkpt lat="40.9344667" lon="16.5351233"><ele>501.0</ele><time>2026-04-19T08:06:37.633Z</time></trkpt><trkpt lat="40.934455" lon="16.5350217"><ele>501.0</ele><time>2026-04-19T08:06:39.633Z</time></trkpt><trkpt lat="40.93444" lon="16.53493"><ele>501.0</ele><time>2026-04-19T08:06:41.633Z</time></trkpt><trkpt lat="40.9344283" lon="16.5348067"><ele>501.0</ele><time>2026-04-19T08:06:43.634Z</time></trkpt><trkpt lat="40.9344234" lon="16.534693"><ele>501.0</ele><time>2026-04-19T08:06:45.633Z</time></trkpt><trkpt lat="40.9344045" lon="16.5346127"><ele>501.0</ele><time>2026-04-19T08:06:47.634Z</time></trkpt><trkpt lat="40.9343472" lon="16.5345105"><ele>501.0</ele><time>2026-04-19T08:06:50.634Z</time></trkpt><trkpt lat="40.9342957" lon="16.5343946"><ele>501.0</ele><time>2026-04-19T08:06:52.633Z</time></trkpt><trkpt lat="40.9342666" lon="16.5342881"><ele>501.0</ele><time>2026-04-19T08:06:54.633Z</time></trkpt><trkpt lat="40.9342417" lon="16.5341883"><ele>501.0</ele><time>2026-04-19T08:06:56.633Z</time></trkpt><trkpt lat="40.934205" lon="16.5340667"><ele>501.0</ele><time>2026-04-19T08:06:58.634Z</time></trkpt><trkpt lat="40.9341767" lon="16.5339333"><ele>501.0</ele><time>2026-04-19T08:07:00.633Z</time></trkpt><trkpt lat="40.934195" lon="16.533815"><ele>500.6666666666667</ele><time>2026-04-19T08:07:02.634Z</time></trkpt><trkpt lat="40.9342217" lon="16.5336933"><ele>500.33333333333337</ele><time>2026-04-19T08:07:04.633Z</time></trkpt><trkpt lat="40.9342367" lon="16.533595"><ele>500.0</ele><time>2026-04-19T08:07:06.633Z</time></trkpt><trkpt lat="40.93426" lon="16.5334817"><ele>499.6666666666667</ele><time>2026-04-19T08:07:08.634Z</time></trkpt><trkpt lat="40.9342933" lon="16.5333817"><ele>499.33333333333337</ele><time>2026-04-19T08:07:10.633Z</time></trkpt><trkpt lat="40.934345" lon="16.5332783"><ele>499.0</ele><time>2026-04-19T08:07:12.633Z</time></trkpt><trkpt lat="40.9343867" lon="16.53318"><ele>499.0</ele><time>2026-04-19T08:07:14.635Z</time></trkpt><trkpt lat="40.9344067" lon="16.5330683"><ele>499.0</ele><time>2026-04-19T08:07:16.633Z</time></trkpt><trkpt lat="40.9344036" lon="16.5328993"><ele>499.0</ele><time>2026-04-19T08:07:19.634Z</time></trkpt><trkpt lat="40.9344114" lon="16.5327748"><ele>499.0</ele><time>2026-04-19T08:07:22.553Z</time></trkpt><trkpt lat="40.9344457" lon="16.532644"><ele>499.0</ele><time>2026-04-19T08:07:24.634Z</time></trkpt><trkpt lat="40.9344767" lon="16.5325598"><ele>498.4</ele><time>2026-04-19T08:07:25.636Z</time></trkpt><trkpt lat="40.9345029" lon="16.532478"><ele>497.79999999999995</ele><time>2026-04-19T08:07:26.633Z</time></trkpt><trkpt lat="40.9345083" lon="16.5323367"><ele>497.20000000000005</ele><time>2026-04-19T08:07:28.634Z</time></trkpt><trkpt lat="40.934485" lon="16.5322"><ele>496.6</ele><time>2026-04-19T08:07:30.633Z</time></trkpt><trkpt lat="40.9344267" lon="16.5320583"><ele>496.0</ele><time>2026-04-19T08:07:32.634Z</time></trkpt><trkpt lat="40.9343833" lon="16.5319267"><ele>496.0</ele><time>2026-04-19T08:07:34.633Z</time></trkpt><trkpt lat="40.9343717" lon="16.5318067"><ele>496.0</ele><time>2026-04-19T08:07:36.633Z</time></trkpt><trkpt lat="40.93438" lon="16.5316617"><ele>496.0</ele><time>2026-04-19T08:07:38.635Z</time></trkpt><trkpt lat="40.9343883" lon="16.53151"><ele>496.0</ele><time>2026-04-19T08:07:40.634Z</time></trkpt><trkpt lat="40.9343933" lon="16.53139"><ele>496.0</ele><time>2026-04-19T08:07:42.633Z</time></trkpt><trkpt lat="40.934395" lon="16.5312817"><ele>496.0</ele><time>2026-04-19T08:07:44.634Z</time></trkpt><trkpt lat="40.9343833" lon="16.5311467"><ele>496.0</ele><time>2026-04-19T08:07:46.634Z</time></trkpt><trkpt lat="40.9343783" lon="16.53099"><ele>496.0</ele><time>2026-04-19T08:07:48.633Z</time></trkpt><trkpt lat="40.9343933" lon="16.53087"><ele>496.0</ele><time>2026-04-19T08:07:50.634Z</time></trkpt><trkpt lat="40.9344233" lon="16.5307617"><ele>496.0</ele><time>2026-04-19T08:07:52.634Z</time></trkpt><trkpt lat="40.9344767" lon="16.5306517"><ele>496.0</ele><time>2026-04-19T08:07:54.633Z</time></trkpt><trkpt lat="40.93452" lon="16.5305383"><ele>496.0</ele><time>2026-04-19T08:07:56.634Z</time></trkpt><trkpt lat="40.9345233" lon="16.5304083"><ele>496.0</ele><time>2026-04-19T08:07:58.634Z</time></trkpt><trkpt lat="40.9345083" lon="16.5302683"><ele>496.0</ele><time>2026-04-19T08:08:00.635Z</time></trkpt><trkpt lat="40.9345117" lon="16.5301467"><ele>496.0</ele><time>2026-04-19T08:08:02.635Z</time></trkpt><trkpt lat="40.9345383" lon="16.5300467"><ele>495.8</ele><time>2026-04-19T08:08:04.633Z</time></trkpt><trkpt lat="40.9345867" lon="16.5299383"><ele>495.6</ele><time>2026-04-19T08:08:06.634Z</time></trkpt><trkpt lat="40.9346183" lon="16.5298383"><ele>495.4</ele><time>2026-04-19T08:08:08.634Z</time></trkpt><trkpt lat="40.93464" lon="16.52973"><ele>495.2</ele><time>2026-04-19T08:08:10.633Z</time></trkpt><trkpt lat="40.9346567" lon="16.5296067"><ele>495.0</ele><time>2026-04-19T08:08:12.633Z</time></trkpt><trkpt lat="40.9346733" lon="16.5294783"><ele>494.4</ele><time>2026-04-19T08:08:14.634Z</time></trkpt><trkpt lat="40.93469" lon="16.5293533"><ele>493.8</ele><time>2026-04-19T08:08:16.633Z</time></trkpt><trkpt lat="40.93473" lon="16.5292167"><ele>493.20000000000005</ele><time>2026-04-19T08:08:18.633Z</time></trkpt><trkpt lat="40.934785" lon="16.52909"><ele>492.6</ele><time>2026-04-19T08:08:20.635Z</time></trkpt><trkpt lat="40.9348333" lon="16.5289617"><ele>492.0</ele><time>2026-04-19T08:08:22.633Z</time></trkpt><trkpt lat="40.9348633" lon="16.5288217"><ele>491.25</ele><time>2026-04-19T08:08:24.635Z</time></trkpt><trkpt lat="40.9348867" lon="16.5286633"><ele>490.5</ele><time>2026-04-19T08:08:26.634Z</time></trkpt><trkpt lat="40.934915" lon="16.5285217"><ele>489.75</ele><time>2026-04-19T08:08:28.634Z</time></trkpt><trkpt lat="40.9349467" lon="16.5283633"><ele>489.0</ele><time>2026-04-19T08:08:30.634Z</time></trkpt><trkpt lat="40.93497" lon="16.5282183"><ele>489.0</ele><time>2026-04-19T08:08:32.634Z</time></trkpt><trkpt lat="40.93499" lon="16.5280633"><ele>489.0</ele><time>2026-04-19T08:08:34.633Z</time></trkpt><trkpt lat="40.9350033" lon="16.5279017"><ele>489.0</ele><time>2026-04-19T08:08:36.633Z</time></trkpt><trkpt lat="40.9350083" lon="16.527815"><ele>489.0</ele><time>2026-04-19T08:08:37.633Z</time></trkpt><trkpt lat="40.9350117" lon="16.5277317"><ele>489.0</ele><time>2026-04-19T08:08:38.722Z</time></trkpt><trkpt lat="40.93502" lon="16.5276483"><ele>489.0</ele><time>2026-04-19T08:08:39.633Z</time></trkpt><trkpt lat="40.935035" lon="16.52756"><ele>489.0</ele><time>2026-04-19T08:08:40.634Z</time></trkpt><trkpt lat="40.9350517" lon="16.52747"><ele>489.00000000000006</ele><time>2026-04-19T08:08:41.634Z</time></trkpt><trkpt lat="40.9350717" lon="16.5273833"><ele>489.0</ele><time>2026-04-19T08:08:42.633Z</time></trkpt><trkpt lat="40.93509" lon="16.5273"><ele>489.0</ele><time>2026-04-19T08:08:43.635Z</time></trkpt><trkpt lat="40.935105" lon="16.527215"><ele>489.00000000000006</ele><time>2026-04-19T08:08:44.633Z</time></trkpt><trkpt lat="40.9351217" lon="16.5271317"><ele>489.0</ele><time>2026-04-19T08:08:45.634Z</time></trkpt><trkpt lat="40.93514" lon="16.5270483"><ele>489.0</ele><time>2026-04-19T08:08:46.633Z</time></trkpt><trkpt lat="40.9351633" lon="16.5269667"><ele>489.0</ele><time>2026-04-19T08:08:47.633Z</time></trkpt><trkpt lat="40.9351883" lon="16.5268867"><ele>489.00000000000006</ele><time>2026-04-19T08:08:48.633Z</time></trkpt><trkpt lat="40.9352167" lon="16.5268017"><ele>489.0</ele><time>2026-04-19T08:08:49.633Z</time></trkpt><trkpt lat="40.935245" lon="16.5267217"><ele>489.0</ele><time>2026-04-19T08:08:50.633Z</time></trkpt><trkpt lat="40.9352683" lon="16.5266433"><ele>489.00000000000006</ele><time>2026-04-19T08:08:51.633Z</time></trkpt><trkpt lat="40.9353" lon="16.52656"><ele>489.0</ele><time>2026-04-19T08:08:52.633Z</time></trkpt><trkpt lat="40.9353317" lon="16.5264717"><ele>489.0</ele><time>2026-04-19T08:08:53.633Z</time></trkpt><trkpt lat="40.935365" lon="16.5263883"><ele>489.0</ele><time>2026-04-19T08:08:54.633Z</time></trkpt><trkpt lat="40.9353917" lon="16.5263"><ele>489.0</ele><time>2026-04-19T08:08:55.633Z</time></trkpt><trkpt lat="40.935415" lon="16.5262117"><ele>489.0</ele><time>2026-04-19T08:08:56.634Z</time></trkpt><trkpt lat="40.9354333" lon="16.526125"><ele>489.0</ele><time>2026-04-19T08:08:57.634Z</time></trkpt><trkpt lat="40.9354517" lon="16.5260383"><ele>489.0</ele><time>2026-04-19T08:08:58.633Z</time></trkpt><trkpt lat="40.9354717" lon="16.525955"><ele>489.0</ele><time>2026-04-19T08:08:59.633Z</time></trkpt><trkpt lat="40.9354983" lon="16.5258117"><ele>488.8333333333333</ele><time>2026-04-19T08:09:01.633Z</time></trkpt><trkpt lat="40.935485" lon="16.5257017"><ele>488.66666666666663</ele><time>2026-04-19T08:09:03.633Z</time></trkpt><trkpt lat="40.935475" lon="16.525595"><ele>488.5</ele><time>2026-04-19T08:09:05.633Z</time></trkpt><trkpt lat="40.9354833" lon="16.5254667"><ele>488.3333333333333</ele><time>2026-04-19T08:09:07.634Z</time></trkpt><trkpt lat="40.9355033" lon="16.5253617"><ele>488.16666666666663</ele><time>2026-04-19T08:09:09.633Z</time></trkpt><trkpt lat="40.935535" lon="16.5252383"><ele>488.0</ele><time>2026-04-19T08:09:11.639Z</time></trkpt><trkpt lat="40.935545" lon="16.52509"><ele>488.0</ele><time>2026-04-19T08:09:13.633Z</time></trkpt><trkpt lat="40.9355617" lon="16.524935"><ele>488.0</ele><time>2026-04-19T08:09:15.633Z</time></trkpt><trkpt lat="40.935595" lon="16.5247883"><ele>488.0</ele><time>2026-04-19T08:09:17.634Z</time></trkpt><trkpt lat="40.9356233" lon="16.524655"><ele>488.0</ele><time>2026-04-19T08:09:19.633Z</time></trkpt><trkpt lat="40.9356533" lon="16.52451"><ele>488.2</ele><time>2026-04-19T08:09:21.633Z</time></trkpt><trkpt lat="40.9356783" lon="16.5243667"><ele>488.4</ele><time>2026-04-19T08:09:23.633Z</time></trkpt><trkpt lat="40.9357067" lon="16.5242467"><ele>488.59999999999997</ele><time>2026-04-19T08:09:25.634Z</time></trkpt><trkpt lat="40.9357333" lon="16.5241267"><ele>488.79999999999995</ele><time>2026-04-19T08:09:27.633Z</time></trkpt><trkpt lat="40.9357667" lon="16.523985"><ele>489.0</ele><time>2026-04-19T08:09:29.635Z</time></trkpt><trkpt lat="40.9358017" lon="16.5238267"><ele>489.0</ele><time>2026-04-19T08:09:31.633Z</time></trkpt><trkpt lat="40.935815" lon="16.5237367"><ele>489.0</ele><time>2026-04-19T08:09:32.633Z</time></trkpt><trkpt lat="40.9358267" lon="16.523645"><ele>489.0</ele><time>2026-04-19T08:09:33.633Z</time></trkpt><trkpt lat="40.9358433" lon="16.5235517"><ele>489.0</ele><time>2026-04-19T08:09:34.635Z</time></trkpt><trkpt lat="40.9358617" lon="16.5234517"><ele>489.0</ele><time>2026-04-19T08:09:35.634Z</time></trkpt><trkpt lat="40.93588" lon="16.5233467"><ele>489.0</ele><time>2026-04-19T08:09:36.634Z</time></trkpt><trkpt lat="40.9359" lon="16.5232417"><ele>488.8333333333333</ele><time>2026-04-19T08:09:37.634Z</time></trkpt><trkpt lat="40.9359183" lon="16.5231417"><ele>488.66666666666663</ele><time>2026-04-19T08:09:38.633Z</time></trkpt><trkpt lat="40.935935" lon="16.5230483"><ele>488.5</ele><time>2026-04-19T08:09:39.634Z</time></trkpt><trkpt lat="40.93595" lon="16.5229517"><ele>488.3333333333333</ele><time>2026-04-19T08:09:40.633Z</time></trkpt><trkpt lat="40.9359683" lon="16.5228533"><ele>488.16666666666663</ele><time>2026-04-19T08:09:41.633Z</time></trkpt><trkpt lat="40.9359917" lon="16.52275"><ele>488.0</ele><time>2026-04-19T08:09:42.633Z</time></trkpt><trkpt lat="40.9360117" lon="16.5226483"><ele>487.99999999999994</ele><time>2026-04-19T08:09:43.634Z</time></trkpt><trkpt lat="40.93603" lon="16.52255"><ele>488.0</ele><time>2026-04-19T08:09:44.634Z</time></trkpt><trkpt lat="40.9360533" lon="16.5224533"><ele>488.0</ele><time>2026-04-19T08:09:45.633Z</time></trkpt><trkpt lat="40.93608" lon="16.5223567"><ele>488.0</ele><time>2026-04-19T08:09:46.633Z</time></trkpt><trkpt lat="40.9361117" lon="16.5222617"><ele>487.99999999999994</ele><time>2026-04-19T08:09:47.633Z</time></trkpt><trkpt lat="40.9361433" lon="16.5221633"><ele>488.0</ele><time>2026-04-19T08:09:48.634Z</time></trkpt><trkpt lat="40.9361717" lon="16.5220667"><ele>487.99999999999994</ele><time>2026-04-19T08:09:49.634Z</time></trkpt><trkpt lat="40.9361867" lon="16.5219733"><ele>488.0</ele><time>2026-04-19T08:09:50.634Z</time></trkpt><trkpt lat="40.9362" lon="16.5218833"><ele>488.0</ele><time>2026-04-19T08:09:51.633Z</time></trkpt><trkpt lat="40.9362117" lon="16.521795"><ele>488.0</ele><time>2026-04-19T08:09:52.633Z</time></trkpt><trkpt lat="40.9362417" lon="16.5216467"><ele>487.99999999999994</ele><time>2026-04-19T08:09:54.633Z</time></trkpt><trkpt lat="40.9362617" lon="16.521505"><ele>488.0</ele><time>2026-04-19T08:09:56.634Z</time></trkpt><trkpt lat="40.9362533" lon="16.52142"><ele>487.99999999999994</ele><time>2026-04-19T08:09:57.633Z</time></trkpt><trkpt lat="40.9362433" lon="16.5213267"><ele>488.0</ele><time>2026-04-19T08:09:58.635Z</time></trkpt><trkpt lat="40.9362333" lon="16.5212367"><ele>487.99999999999994</ele><time>2026-04-19T08:09:59.633Z</time></trkpt><trkpt lat="40.9362217" lon="16.5211467"><ele>487.99999999999994</ele><time>2026-04-19T08:10:00.633Z</time></trkpt><trkpt lat="40.936215" lon="16.5210533"><ele>488.0</ele><time>2026-04-19T08:10:01.633Z</time></trkpt><trkpt lat="40.9362067" lon="16.52095"><ele>487.99999999999994</ele><time>2026-04-19T08:10:02.634Z</time></trkpt><trkpt lat="40.9362" lon="16.5208433"><ele>487.99999999999994</ele><time>2026-04-19T08:10:03.634Z</time></trkpt><trkpt lat="40.93619" lon="16.5207383"><ele>487.99999999999994</ele><time>2026-04-19T08:10:04.633Z</time></trkpt><trkpt lat="40.9361767" lon="16.5206317"><ele>488.0</ele><time>2026-04-19T08:10:05.634Z</time></trkpt><trkpt lat="40.9361517" lon="16.5205267"><ele>488.0</ele><time>2026-04-19T08:10:06.633Z</time></trkpt><trkpt lat="40.9361217" lon="16.5204183"><ele>488.0</ele><time>2026-04-19T08:10:07.633Z</time></trkpt><trkpt lat="40.9360917" lon="16.5203183"><ele>487.99999999999994</ele><time>2026-04-19T08:10:08.635Z</time></trkpt><trkpt lat="40.9360633" lon="16.5202183"><ele>488.0</ele><time>2026-04-19T08:10:09.633Z</time></trkpt><trkpt lat="40.9360333" lon="16.52012"><ele>487.8333333333333</ele><time>2026-04-19T08:10:10.634Z</time></trkpt><trkpt lat="40.936005" lon="16.5200183"><ele>487.66666666666663</ele><time>2026-04-19T08:10:11.633Z</time></trkpt><trkpt lat="40.9359767" lon="16.5199183"><ele>487.5</ele><time>2026-04-19T08:10:12.634Z</time></trkpt><trkpt lat="40.9359467" lon="16.5198183"><ele>487.33333333333337</ele><time>2026-04-19T08:10:13.633Z</time></trkpt><trkpt lat="40.9359183" lon="16.5197183"><ele>487.1666666666667</ele><time>2026-04-19T08:10:14.634Z</time></trkpt><trkpt lat="40.9358933" lon="16.51962"><ele>487.0</ele><time>2026-04-19T08:10:15.634Z</time></trkpt><trkpt lat="40.9358683" lon="16.51952"><ele>487.33333333333337</ele><time>2026-04-19T08:10:16.633Z</time></trkpt><trkpt lat="40.9358417" lon="16.5194183"><ele>487.6666666666667</ele><time>2026-04-19T08:10:17.633Z</time></trkpt><trkpt lat="40.9358167" lon="16.5193167"><ele>488.0</ele><time>2026-04-19T08:10:18.633Z</time></trkpt><trkpt lat="40.9358083" lon="16.5192167"><ele>488.33333333333337</ele><time>2026-04-19T08:10:19.633Z</time></trkpt><trkpt lat="40.9358083" lon="16.519105"><ele>488.6666666666667</ele><time>2026-04-19T08:10:20.634Z</time></trkpt><trkpt lat="40.9358083" lon="16.5189833"><ele>489.0</ele><time>2026-04-19T08:10:21.634Z</time></trkpt><trkpt lat="40.935805" lon="16.5188667"><ele>489.0</ele><time>2026-04-19T08:10:22.633Z</time></trkpt><trkpt lat="40.9358" lon="16.5187533"><ele>489.0</ele><time>2026-04-19T08:10:23.633Z</time></trkpt><trkpt lat="40.935785" lon="16.5186433"><ele>489.0</ele><time>2026-04-19T08:10:24.636Z</time></trkpt><trkpt lat="40.9357633" lon="16.5185467"><ele>489.0</ele><time>2026-04-19T08:10:25.634Z</time></trkpt><trkpt lat="40.9357217" lon="16.5184733"><ele>489.0</ele><time>2026-04-19T08:10:26.635Z</time></trkpt><trkpt lat="40.9356717" lon="16.5183983"><ele>489.0</ele><time>2026-04-19T08:10:27.633Z</time></trkpt><trkpt lat="40.935625" lon="16.5183117"><ele>489.0</ele><time>2026-04-19T08:10:28.634Z</time></trkpt><trkpt lat="40.9355817" lon="16.5182133"><ele>489.0</ele><time>2026-04-19T08:10:29.633Z</time></trkpt><trkpt lat="40.93554" lon="16.518105"><ele>489.0</ele><time>2026-04-19T08:10:30.634Z</time></trkpt><trkpt lat="40.9355" lon="16.5179867"><ele>489.0</ele><time>2026-04-19T08:10:31.634Z</time></trkpt><trkpt lat="40.935455" lon="16.517875"><ele>489.0</ele><time>2026-04-19T08:10:32.634Z</time></trkpt><trkpt lat="40.9354167" lon="16.5177633"><ele>489.0</ele><time>2026-04-19T08:10:33.633Z</time></trkpt><trkpt lat="40.9354" lon="16.517665"><ele>489.0</ele><time>2026-04-19T08:10:34.634Z</time></trkpt><trkpt lat="40.9353967" lon="16.5175633"><ele>489.0</ele><time>2026-04-19T08:10:35.634Z</time></trkpt><trkpt lat="40.9354117" lon="16.517455"><ele>489.0</ele><time>2026-04-19T08:10:36.634Z</time></trkpt><trkpt lat="40.935435" lon="16.5173367"><ele>489.0</ele><time>2026-04-19T08:10:37.634Z</time></trkpt><trkpt lat="40.93546" lon="16.5172217"><ele>489.0</ele><time>2026-04-19T08:10:38.633Z</time></trkpt><trkpt lat="40.9354733" lon="16.51711"><ele>489.0</ele><time>2026-04-19T08:10:39.634Z</time></trkpt><trkpt lat="40.9354667" lon="16.5170033"><ele>489.0</ele><time>2026-04-19T08:10:40.634Z</time></trkpt><trkpt lat="40.9354533" lon="16.5168933"><ele>489.0</ele><time>2026-04-19T08:10:41.635Z</time></trkpt><trkpt lat="40.9354433" lon="16.5167783"><ele>489.0</ele><time>2026-04-19T08:10:42.634Z</time></trkpt><trkpt lat="40.9354267" lon="16.51666"><ele>489.0</ele><time>2026-04-19T08:10:43.633Z</time></trkpt><trkpt lat="40.9353967" lon="16.516545"><ele>489.0</ele><time>2026-04-19T08:10:44.634Z</time></trkpt><trkpt lat="40.935345" lon="16.5164283"><ele>489.0</ele><time>2026-04-19T08:10:45.634Z</time></trkpt><trkpt lat="40.93528" lon="16.5163067"><ele>489.0</ele><time>2026-04-19T08:10:46.633Z</time></trkpt><trkpt lat="40.9352183" lon="16.5161883"><ele>489.0</ele><time>2026-04-19T08:10:47.635Z</time></trkpt><trkpt lat="40.935165" lon="16.5160767"><ele>489.0</ele><time>2026-04-19T08:10:48.634Z</time></trkpt><trkpt lat="40.9351083" lon="16.515965"><ele>489.0</ele><time>2026-04-19T08:10:49.636Z</time></trkpt><trkpt lat="40.9350383" lon="16.5158567"><ele>489.75</ele><time>2026-04-19T08:10:50.636Z</time></trkpt><trkpt lat="40.9349517" lon="16.5157483"><ele>490.5</ele><time>2026-04-19T08:10:51.634Z</time></trkpt><trkpt lat="40.934855" lon="16.5156367"><ele>491.25</ele><time>2026-04-19T08:10:52.635Z</time></trkpt><trkpt lat="40.93477" lon="16.51553"><ele>492.0</ele><time>2026-04-19T08:10:53.635Z</time></trkpt><trkpt lat="40.9347" lon="16.5154233"><ele>492.0</ele><time>2026-04-19T08:10:54.634Z</time></trkpt><trkpt lat="40.9346467" lon="16.51531"><ele>492.00000000000006</ele><time>2026-04-19T08:10:55.634Z</time></trkpt><trkpt lat="40.9346067" lon="16.5151767"><ele>492.00000000000006</ele><time>2026-04-19T08:10:56.634Z</time></trkpt><trkpt lat="40.9345783" lon="16.51503"><ele>492.0</ele><time>2026-04-19T08:10:57.635Z</time></trkpt><trkpt lat="40.9345567" lon="16.5148833"><ele>492.0</ele><time>2026-04-19T08:10:58.634Z</time></trkpt><trkpt lat="40.9345333" lon="16.5147483"><ele>492.0</ele><time>2026-04-19T08:10:59.633Z</time></trkpt><trkpt lat="40.9345033" lon="16.5146267"><ele>492.00000000000006</ele><time>2026-04-19T08:11:00.633Z</time></trkpt><trkpt lat="40.934475" lon="16.5144967"><ele>492.00000000000006</ele><time>2026-04-19T08:11:01.633Z</time></trkpt><trkpt lat="40.9344417" lon="16.5143583"><ele>492.0</ele><time>2026-04-19T08:11:02.634Z</time></trkpt><trkpt lat="40.9344017" lon="16.5142133"><ele>492.0</ele><time>2026-04-19T08:11:03.633Z</time></trkpt><trkpt lat="40.9343583" lon="16.5140733"><ele>492.20000000000005</ele><time>2026-04-19T08:11:04.634Z</time></trkpt><trkpt lat="40.934315" lon="16.5139417"><ele>492.40000000000003</ele><time>2026-04-19T08:11:05.634Z</time></trkpt><trkpt lat="40.9342817" lon="16.513815"><ele>492.59999999999997</ele><time>2026-04-19T08:11:06.635Z</time></trkpt><trkpt lat="40.93426" lon="16.51368"><ele>492.79999999999995</ele><time>2026-04-19T08:11:07.634Z</time></trkpt><trkpt lat="40.9342517" lon="16.5135483"><ele>493.0</ele><time>2026-04-19T08:11:08.634Z</time></trkpt><trkpt lat="40.9342483" lon="16.51344"><ele>493.1666666666667</ele><time>2026-04-19T08:11:09.635Z</time></trkpt><trkpt lat="40.9342483" lon="16.51334"><ele>493.33333333333337</ele><time>2026-04-19T08:11:10.634Z</time></trkpt><trkpt lat="40.9342467" lon="16.513245"><ele>493.5</ele><time>2026-04-19T08:11:11.634Z</time></trkpt><trkpt lat="40.9342383" lon="16.5131467"><ele>493.66666666666663</ele><time>2026-04-19T08:11:12.633Z</time></trkpt><trkpt lat="40.9342317" lon="16.513035"><ele>493.8333333333333</ele><time>2026-04-19T08:11:13.634Z</time></trkpt><trkpt lat="40.9342267" lon="16.5129133"><ele>494.0</ele><time>2026-04-19T08:11:14.634Z</time></trkpt><trkpt lat="40.9342217" lon="16.5127867"><ele>494.0</ele><time>2026-04-19T08:11:15.635Z</time></trkpt><trkpt lat="40.9342167" lon="16.51266"><ele>494.0</ele><time>2026-04-19T08:11:16.633Z</time></trkpt><trkpt lat="40.9342067" lon="16.5125333"><ele>494.0</ele><time>2026-04-19T08:11:17.633Z</time></trkpt><trkpt lat="40.9341917" lon="16.5124167"><ele>494.0</ele><time>2026-04-19T08:11:18.633Z</time></trkpt><trkpt lat="40.9341733" lon="16.5123033"><ele>494.0</ele><time>2026-04-19T08:11:19.634Z</time></trkpt><trkpt lat="40.934155" lon="16.5121917"><ele>494.0</ele><time>2026-04-19T08:11:20.634Z</time></trkpt><trkpt lat="40.9341383" lon="16.5120883"><ele>494.0</ele><time>2026-04-19T08:11:21.634Z</time></trkpt><trkpt lat="40.9341267" lon="16.51199"><ele>494.0</ele><time>2026-04-19T08:11:22.634Z</time></trkpt><trkpt lat="40.9341167" lon="16.5119"><ele>494.0</ele><time>2026-04-19T08:11:23.634Z</time></trkpt><trkpt lat="40.9341117" lon="16.51181"><ele>494.0</ele><time>2026-04-19T08:11:24.634Z</time></trkpt><trkpt lat="40.93411" lon="16.5117133"><ele>494.0</ele><time>2026-04-19T08:11:25.633Z</time></trkpt><trkpt lat="40.93411" lon="16.5116033"><ele>494.0</ele><time>2026-04-19T08:11:26.634Z</time></trkpt><trkpt lat="40.9341083" lon="16.5114883"><ele>493.99999999999994</ele><time>2026-04-19T08:11:27.634Z</time></trkpt><trkpt lat="40.9341067" lon="16.5113733"><ele>494.0</ele><time>2026-04-19T08:11:28.633Z</time></trkpt><trkpt lat="40.934105" lon="16.5112633"><ele>494.0</ele><time>2026-04-19T08:11:29.634Z</time></trkpt><trkpt lat="40.9341067" lon="16.511155"><ele>494.0</ele><time>2026-04-19T08:11:30.634Z</time></trkpt><trkpt lat="40.934105" lon="16.5110467"><ele>493.99999999999994</ele><time>2026-04-19T08:11:31.635Z</time></trkpt><trkpt lat="40.934105" lon="16.5109317"><ele>494.0</ele><time>2026-04-19T08:11:32.635Z</time></trkpt><trkpt lat="40.934105" lon="16.5108117"><ele>493.99999999999994</ele><time>2026-04-19T08:11:33.633Z</time></trkpt><trkpt lat="40.9341033" lon="16.5106933"><ele>494.0</ele><time>2026-04-19T08:11:34.633Z</time></trkpt><trkpt lat="40.934105" lon="16.5105817"><ele>494.0</ele><time>2026-04-19T08:11:35.634Z</time></trkpt><trkpt lat="40.9341067" lon="16.5104767"><ele>494.0</ele><time>2026-04-19T08:11:36.634Z</time></trkpt><trkpt lat="40.9341083" lon="16.51037"><ele>493.99999999999994</ele><time>2026-04-19T08:11:37.633Z</time></trkpt><trkpt lat="40.93411" lon="16.5102633"><ele>494.0</ele><time>2026-04-19T08:11:38.634Z</time></trkpt><trkpt lat="40.9341033" lon="16.51016"><ele>494.16666666666663</ele><time>2026-04-19T08:11:39.633Z</time></trkpt><trkpt lat="40.9341033" lon="16.5100433"><ele>494.3333333333333</ele><time>2026-04-19T08:11:40.637Z</time></trkpt><trkpt lat="40.9340967" lon="16.5099283"><ele>494.5</ele><time>2026-04-19T08:11:41.634Z</time></trkpt><trkpt lat="40.9340783" lon="16.5098217"><ele>494.66666666666663</ele><time>2026-04-19T08:11:42.633Z</time></trkpt><trkpt lat="40.9340583" lon="16.509715"><ele>494.8333333333333</ele><time>2026-04-19T08:11:43.634Z</time></trkpt><trkpt lat="40.9340367" lon="16.5096083"><ele>495.0</ele><time>2026-04-19T08:11:44.636Z</time></trkpt><trkpt lat="40.9340133" lon="16.5095067"><ele>494.6666666666667</ele><time>2026-04-19T08:11:45.634Z</time></trkpt><trkpt lat="40.93399" lon="16.5094017"><ele>494.33333333333337</ele><time>2026-04-19T08:11:46.634Z</time></trkpt><trkpt lat="40.9339733" lon="16.5092967"><ele>494.0</ele><time>2026-04-19T08:11:47.635Z</time></trkpt><trkpt lat="40.9339533" lon="16.5091917"><ele>493.6666666666667</ele><time>2026-04-19T08:11:48.634Z</time></trkpt><trkpt lat="40.9339317" lon="16.509085"><ele>493.33333333333337</ele><time>2026-04-19T08:11:49.634Z</time></trkpt><trkpt lat="40.9339067" lon="16.5089717"><ele>493.0</ele><time>2026-04-19T08:11:50.635Z</time></trkpt><trkpt lat="40.93389" lon="16.5088833"><ele>493.0</ele><time>2026-04-19T08:11:51.633Z</time></trkpt><trkpt lat="40.9338733" lon="16.5087983"><ele>493.0</ele><time>2026-04-19T08:11:52.634Z</time></trkpt><trkpt lat="40.9338583" lon="16.5087133"><ele>493.0</ele><time>2026-04-19T08:11:53.634Z</time></trkpt><trkpt lat="40.9338383" lon="16.508625"><ele>493.0</ele><time>2026-04-19T08:11:54.634Z</time></trkpt><trkpt lat="40.9338233" lon="16.50854"><ele>493.0</ele><time>2026-04-19T08:11:55.633Z</time></trkpt><trkpt lat="40.9338083" lon="16.5084533"><ele>493.0</ele><time>2026-04-19T08:11:56.635Z</time></trkpt><trkpt lat="40.9337917" lon="16.508365"><ele>493.0</ele><time>2026-04-19T08:11:57.634Z</time></trkpt><trkpt lat="40.93377" lon="16.5082667"><ele>493.00000000000006</ele><time>2026-04-19T08:11:58.634Z</time></trkpt><trkpt lat="40.933745" lon="16.5081567"><ele>493.0</ele><time>2026-04-19T08:11:59.633Z</time></trkpt><trkpt lat="40.9337233" lon="16.50804"><ele>493.0</ele><time>2026-04-19T08:12:00.634Z</time></trkpt><trkpt lat="40.9337017" lon="16.5079217"><ele>493.0</ele><time>2026-04-19T08:12:01.633Z</time></trkpt><trkpt lat="40.9336783" lon="16.50781"><ele>493.00000000000006</ele><time>2026-04-19T08:12:02.634Z</time></trkpt><trkpt lat="40.9336567" lon="16.5077083"><ele>493.0</ele><time>2026-04-19T08:12:03.633Z</time></trkpt><trkpt lat="40.9336333" lon="16.5076167"><ele>493.00000000000006</ele><time>2026-04-19T08:12:04.635Z</time></trkpt><trkpt lat="40.93361" lon="16.5075367"><ele>493.0</ele><time>2026-04-19T08:12:05.633Z</time></trkpt><trkpt lat="40.9335833" lon="16.5074517"><ele>493.0</ele><time>2026-04-19T08:12:06.635Z</time></trkpt><trkpt lat="40.9335533" lon="16.5073633"><ele>493.0</ele><time>2026-04-19T08:12:07.634Z</time></trkpt><trkpt lat="40.9335217" lon="16.5072683"><ele>493.00000000000006</ele><time>2026-04-19T08:12:08.634Z</time></trkpt><trkpt lat="40.9334883" lon="16.5071633"><ele>493.0</ele><time>2026-04-19T08:12:09.634Z</time></trkpt><trkpt lat="40.9334583" lon="16.5070483"><ele>492.83333333333337</ele><time>2026-04-19T08:12:10.633Z</time></trkpt><trkpt lat="40.9334267" lon="16.50694"><ele>492.6666666666667</ele><time>2026-04-19T08:12:11.633Z</time></trkpt><trkpt lat="40.93339" lon="16.5068367"><ele>492.5</ele><time>2026-04-19T08:12:12.634Z</time></trkpt><trkpt lat="40.9333617" lon="16.5067317"><ele>492.33333333333337</ele><time>2026-04-19T08:12:13.634Z</time></trkpt><trkpt lat="40.9333333" lon="16.5066233"><ele>492.1666666666667</ele><time>2026-04-19T08:12:14.634Z</time></trkpt><trkpt lat="40.9333017" lon="16.5065167"><ele>492.0</ele><time>2026-04-19T08:12:15.634Z</time></trkpt><trkpt lat="40.9332667" lon="16.5064117"><ele>491.8</ele><time>2026-04-19T08:12:16.633Z</time></trkpt><trkpt lat="40.933235" lon="16.5063017"><ele>491.6</ele><time>2026-04-19T08:12:17.635Z</time></trkpt><trkpt lat="40.9332" lon="16.5061917"><ele>491.40000000000003</ele><time>2026-04-19T08:12:18.634Z</time></trkpt><trkpt lat="40.933165" lon="16.5060767"><ele>491.20000000000005</ele><time>2026-04-19T08:12:19.634Z</time></trkpt><trkpt lat="40.9331267" lon="16.5059517"><ele>491.0</ele><time>2026-04-19T08:12:20.635Z</time></trkpt><trkpt lat="40.933085" lon="16.505815"><ele>491.0</ele><time>2026-04-19T08:12:21.634Z</time></trkpt><trkpt lat="40.93305" lon="16.5056717"><ele>491.0</ele><time>2026-04-19T08:12:22.633Z</time></trkpt><trkpt lat="40.9330083" lon="16.505545"><ele>491.0</ele><time>2026-04-19T08:12:23.634Z</time></trkpt><trkpt lat="40.9329717" lon="16.50543"><ele>491.0</ele><time>2026-04-19T08:12:24.633Z</time></trkpt><trkpt lat="40.93294" lon="16.5053217"><ele>491.0</ele><time>2026-04-19T08:12:25.633Z</time></trkpt><trkpt lat="40.9329033" lon="16.50523"><ele>490.99999999999994</ele><time>2026-04-19T08:12:26.634Z</time></trkpt><trkpt lat="40.9328533" lon="16.5051567"><ele>491.0</ele><time>2026-04-19T08:12:27.633Z</time></trkpt><trkpt lat="40.93279" lon="16.5051"><ele>491.0</ele><time>2026-04-19T08:12:28.633Z</time></trkpt><trkpt lat="40.932715" lon="16.5050533"><ele>491.0</ele><time>2026-04-19T08:12:29.634Z</time></trkpt><trkpt lat="40.93264" lon="16.5050017"><ele>490.99999999999994</ele><time>2026-04-19T08:12:30.633Z</time></trkpt><trkpt lat="40.932585" lon="16.5049333"><ele>491.0</ele><time>2026-04-19T08:12:31.634Z</time></trkpt><trkpt lat="40.93254" lon="16.5048483"><ele>490.8333333333333</ele><time>2026-04-19T08:12:32.634Z</time></trkpt><trkpt lat="40.9325117" lon="16.5047433"><ele>490.66666666666663</ele><time>2026-04-19T08:12:33.634Z</time></trkpt><trkpt lat="40.9324917" lon="16.5046333"><ele>490.5</ele><time>2026-04-19T08:12:34.633Z</time></trkpt><trkpt lat="40.932475" lon="16.50452"><ele>490.33333333333337</ele><time>2026-04-19T08:12:35.633Z</time></trkpt><trkpt lat="40.9324467" lon="16.5044017"><ele>490.1666666666667</ele><time>2026-04-19T08:12:36.633Z</time></trkpt><trkpt lat="40.93242" lon="16.5042867"><ele>490.0</ele><time>2026-04-19T08:12:37.633Z</time></trkpt><trkpt lat="40.9323967" lon="16.5041767"><ele>489.83333333333337</ele><time>2026-04-19T08:12:38.634Z</time></trkpt><trkpt lat="40.9323767" lon="16.504075"><ele>489.6666666666667</ele><time>2026-04-19T08:12:39.633Z</time></trkpt><trkpt lat="40.9323617" lon="16.50398"><ele>489.5</ele><time>2026-04-19T08:12:40.633Z</time></trkpt><trkpt lat="40.9323383" lon="16.5038833"><ele>489.33333333333337</ele><time>2026-04-19T08:12:41.633Z</time></trkpt><trkpt lat="40.9322917" lon="16.5037833"><ele>489.1666666666667</ele><time>2026-04-19T08:12:42.634Z</time></trkpt><trkpt lat="40.9322283" lon="16.5036883"><ele>489.0</ele><time>2026-04-19T08:12:43.634Z</time></trkpt><trkpt lat="40.9321567" lon="16.5036033"><ele>489.0</ele><time>2026-04-19T08:12:44.635Z</time></trkpt><trkpt lat="40.9320817" lon="16.50351"><ele>489.0</ele><time>2026-04-19T08:12:45.635Z</time></trkpt><trkpt lat="40.932005" lon="16.50341"><ele>489.0</ele><time>2026-04-19T08:12:46.635Z</time></trkpt><trkpt lat="40.9319267" lon="16.5033167"><ele>489.0</ele><time>2026-04-19T08:12:47.634Z</time></trkpt><trkpt lat="40.931855" lon="16.503225"><ele>489.0</ele><time>2026-04-19T08:12:48.634Z</time></trkpt><trkpt lat="40.9317917" lon="16.503135"><ele>489.0</ele><time>2026-04-19T08:12:49.634Z</time></trkpt><trkpt lat="40.9317267" lon="16.5030433"><ele>489.0</ele><time>2026-04-19T08:12:50.635Z</time></trkpt><trkpt lat="40.93166" lon="16.5029517"><ele>489.0</ele><time>2026-04-19T08:12:51.634Z</time></trkpt><trkpt lat="40.9315967" lon="16.5028683"><ele>489.0</ele><time>2026-04-19T08:12:52.634Z</time></trkpt><trkpt lat="40.9315383" lon="16.5027933"><ele>489.0</ele><time>2026-04-19T08:12:53.634Z</time></trkpt><trkpt lat="40.9314783" lon="16.502725"><ele>489.0</ele><time>2026-04-19T08:12:54.635Z</time></trkpt><trkpt lat="40.9314117" lon="16.5026583"><ele>488.4</ele><time>2026-04-19T08:12:55.633Z</time></trkpt><trkpt lat="40.9313383" lon="16.5025933"><ele>487.79999999999995</ele><time>2026-04-19T08:12:56.635Z</time></trkpt><trkpt lat="40.9312617" lon="16.50252"><ele>487.20000000000005</ele><time>2026-04-19T08:12:57.633Z</time></trkpt><trkpt lat="40.9311833" lon="16.5024483"><ele>486.6</ele><time>2026-04-19T08:12:58.634Z</time></trkpt><trkpt lat="40.9311017" lon="16.50238"><ele>486.0</ele><time>2026-04-19T08:12:59.634Z</time></trkpt><trkpt lat="40.9310217" lon="16.502315"><ele>486.0</ele><time>2026-04-19T08:13:00.633Z</time></trkpt><trkpt lat="40.9309383" lon="16.5022467"><ele>486.0</ele><time>2026-04-19T08:13:01.633Z</time></trkpt><trkpt lat="40.9308567" lon="16.5021733"><ele>486.0</ele><time>2026-04-19T08:13:02.634Z</time></trkpt><trkpt lat="40.9307917" lon="16.502105"><ele>486.0</ele><time>2026-04-19T08:13:03.635Z</time></trkpt><trkpt lat="40.9307433" lon="16.5020367"><ele>486.0</ele><time>2026-04-19T08:13:04.633Z</time></trkpt><trkpt lat="40.9307" lon="16.5019017"><ele>486.0</ele><time>2026-04-19T08:13:06.633Z</time></trkpt><trkpt lat="40.930715" lon="16.501775"><ele>486.0</ele><time>2026-04-19T08:13:08.634Z</time></trkpt><trkpt lat="40.930755" lon="16.50165"><ele>486.0</ele><time>2026-04-19T08:13:10.633Z</time></trkpt><trkpt lat="40.930775" lon="16.5015683"><ele>486.0</ele><time>2026-04-19T08:13:11.633Z</time></trkpt><trkpt lat="40.9307933" lon="16.5014767"><ele>486.0</ele><time>2026-04-19T08:13:12.633Z</time></trkpt><trkpt lat="40.9308083" lon="16.5013917"><ele>486.0</ele><time>2026-04-19T08:13:13.634Z</time></trkpt><trkpt lat="40.93084" lon="16.501265"><ele>486.0</ele><time>2026-04-19T08:13:15.633Z</time></trkpt><trkpt lat="40.9309" lon="16.5011983"><ele>486.0</ele><time>2026-04-19T08:13:18.634Z</time></trkpt><trkpt lat="40.93101" lon="16.5012133"><ele>486.0</ele><time>2026-04-19T08:13:20.634Z</time></trkpt><trkpt lat="40.9311" lon="16.50125"><ele>486.0</ele><time>2026-04-19T08:13:21.633Z</time></trkpt><trkpt lat="40.9312033" lon="16.501285"><ele>486.0</ele><time>2026-04-19T08:13:22.634Z</time></trkpt><trkpt lat="40.93131" lon="16.50131"><ele>486.0</ele><time>2026-04-19T08:13:23.635Z</time></trkpt><trkpt lat="40.93143" lon="16.5013367"><ele>486.0</ele><time>2026-04-19T08:13:24.633Z</time></trkpt><trkpt lat="40.931565" lon="16.501375"><ele>486.0</ele><time>2026-04-19T08:13:25.634Z</time></trkpt><trkpt lat="40.9317017" lon="16.5014083"><ele>486.0</ele><time>2026-04-19T08:13:26.634Z</time></trkpt><trkpt lat="40.9318417" lon="16.50144"><ele>486.66666666666663</ele><time>2026-04-19T08:13:27.634Z</time></trkpt><trkpt lat="40.9319917" lon="16.5014733"><ele>487.3333333333333</ele><time>2026-04-19T08:13:28.634Z</time></trkpt><trkpt lat="40.9321467" lon="16.5015133"><ele>488.0</ele><time>2026-04-19T08:13:29.633Z</time></trkpt><trkpt lat="40.9323017" lon="16.5015533"><ele>488.0</ele><time>2026-04-19T08:13:30.633Z</time></trkpt><trkpt lat="40.9324583" lon="16.50159"><ele>488.0</ele><time>2026-04-19T08:13:31.634Z</time></trkpt><trkpt lat="40.9326217" lon="16.5016117"><ele>488.0</ele><time>2026-04-19T08:13:32.634Z</time></trkpt><trkpt lat="40.9327933" lon="16.5016067"><ele>488.0</ele><time>2026-04-19T08:13:33.633Z</time></trkpt><trkpt lat="40.932975" lon="16.5015783"><ele>488.0</ele><time>2026-04-19T08:13:34.635Z</time></trkpt><trkpt lat="40.9331633" lon="16.5015383"><ele>488.0</ele><time>2026-04-19T08:13:35.633Z</time></trkpt><trkpt lat="40.933365" lon="16.501495"><ele>487.66666666666663</ele><time>2026-04-19T08:13:36.634Z</time></trkpt><trkpt lat="40.93358" lon="16.5014467"><ele>487.33333333333337</ele><time>2026-04-19T08:13:37.634Z</time></trkpt><trkpt lat="40.9338017" lon="16.501395"><ele>487.0</ele><time>2026-04-19T08:13:38.635Z</time></trkpt><trkpt lat="40.934025" lon="16.5013383"><ele>487.0</ele><time>2026-04-19T08:13:39.634Z</time></trkpt><trkpt lat="40.9342467" lon="16.50128"><ele>487.0</ele><time>2026-04-19T08:13:40.633Z</time></trkpt><trkpt lat="40.934455" lon="16.501225"><ele>487.0</ele><time>2026-04-19T08:13:41.633Z</time></trkpt><trkpt lat="40.93466" lon="16.5011717"><ele>487.0</ele><time>2026-04-19T08:13:42.633Z</time></trkpt><trkpt lat="40.93487" lon="16.5011217"><ele>487.0</ele><time>2026-04-19T08:13:43.634Z</time></trkpt><trkpt lat="40.93509" lon="16.5010717"><ele>487.0</ele><time>2026-04-19T08:13:44.635Z</time></trkpt><trkpt lat="40.93532" lon="16.50102"><ele>485.5</ele><time>2026-04-19T08:13:45.634Z</time></trkpt><trkpt lat="40.9355633" lon="16.500965"><ele>484.0</ele><time>2026-04-19T08:13:46.633Z</time></trkpt><trkpt lat="40.9358117" lon="16.50091"><ele>482.5</ele><time>2026-04-19T08:13:47.634Z</time></trkpt><trkpt lat="40.9360633" lon="16.5008583"><ele>481.0</ele><time>2026-04-19T08:13:48.634Z</time></trkpt><trkpt lat="40.936315" lon="16.50081"><ele>481.0</ele><time>2026-04-19T08:13:49.633Z</time></trkpt><trkpt lat="40.9365667" lon="16.5007583"><ele>481.0</ele><time>2026-04-19T08:13:50.634Z</time></trkpt><trkpt lat="40.9368033" lon="16.5007033"><ele>480.5</ele><time>2026-04-19T08:13:51.634Z</time></trkpt><trkpt lat="40.9370283" lon="16.5006433"><ele>480.0</ele><time>2026-04-19T08:13:52.634Z</time></trkpt><trkpt lat="40.9372517" lon="16.5005717"><ele>480.0</ele><time>2026-04-19T08:13:53.633Z</time></trkpt><trkpt lat="40.93748" lon="16.5004883"><ele>480.0</ele><time>2026-04-19T08:13:54.633Z</time></trkpt><trkpt lat="40.9377117" lon="16.5004"><ele>481.0</ele><time>2026-04-19T08:13:55.633Z</time></trkpt><trkpt lat="40.9379433" lon="16.500315"><ele>482.0</ele><time>2026-04-19T08:13:56.634Z</time></trkpt><trkpt lat="40.9381617" lon="16.500235"><ele>482.0</ele><time>2026-04-19T08:13:57.634Z</time></trkpt><trkpt lat="40.9383683" lon="16.5001533"><ele>482.0</ele><time>2026-04-19T08:13:58.633Z</time></trkpt><trkpt lat="40.938565" lon="16.5000783"><ele>482.0</ele><time>2026-04-19T08:13:59.634Z</time></trkpt><trkpt lat="40.938745" lon="16.5000117"><ele>482.0</ele><time>2026-04-19T08:14:00.633Z</time></trkpt><trkpt lat="40.938905" lon="16.49995"><ele>482.0</ele><time>2026-04-19T08:14:01.634Z</time></trkpt><trkpt lat="40.9390633" lon="16.4998967"><ele>482.0</ele><time>2026-04-19T08:14:02.635Z</time></trkpt><trkpt lat="40.939195" lon="16.4997983"><ele>482.0</ele><time>2026-04-19T08:14:03.633Z</time></trkpt><trkpt lat="40.9393317" lon="16.4996783"><ele>482.0</ele><time>2026-04-19T08:14:04.634Z</time></trkpt><trkpt lat="40.9394717" lon="16.4995267"><ele>482.0</ele><time>2026-04-19T08:14:05.634Z</time></trkpt><trkpt lat="40.9396067" lon="16.4993467"><ele>481.66666666666663</ele><time>2026-04-19T08:14:06.634Z</time></trkpt><trkpt lat="40.93975" lon="16.4991483"><ele>481.33333333333337</ele><time>2026-04-19T08:14:07.634Z</time></trkpt><trkpt lat="40.939905" lon="16.4989367"><ele>481.0</ele><time>2026-04-19T08:14:08.634Z</time></trkpt><trkpt lat="40.9400667" lon="16.4987267"><ele>481.0</ele><time>2026-04-19T08:14:09.634Z</time></trkpt><trkpt lat="40.94022" lon="16.4985417"><ele>481.0</ele><time>2026-04-19T08:14:10.634Z</time></trkpt><trkpt lat="40.9403783" lon="16.49837"><ele>481.0</ele><time>2026-04-19T08:14:11.633Z</time></trkpt><trkpt lat="40.9405417" lon="16.4982133"><ele>481.0</ele><time>2026-04-19T08:14:12.633Z</time></trkpt><trkpt lat="40.940705" lon="16.4980683"><ele>481.0</ele><time>2026-04-19T08:14:13.634Z</time></trkpt><trkpt lat="40.940875" lon="16.4979367"><ele>481.0</ele><time>2026-04-19T08:14:14.634Z</time></trkpt><trkpt lat="40.9410567" lon="16.497815"><ele>480.6666666666667</ele><time>2026-04-19T08:14:15.633Z</time></trkpt><trkpt lat="40.9412467" lon="16.497695"><ele>480.33333333333337</ele><time>2026-04-19T08:14:16.635Z</time></trkpt><trkpt lat="40.94144" lon="16.49757"><ele>480.0</ele><time>2026-04-19T08:14:17.633Z</time></trkpt><trkpt lat="40.9416317" lon="16.4974433"><ele>480.0</ele><time>2026-04-19T08:14:18.633Z</time></trkpt><trkpt lat="40.9418267" lon="16.4973133"><ele>480.0</ele><time>2026-04-19T08:14:19.634Z</time></trkpt><trkpt lat="40.9420217" lon="16.49719"><ele>480.0</ele><time>2026-04-19T08:14:20.634Z</time></trkpt><trkpt lat="40.94222" lon="16.4970683"><ele>480.0</ele><time>2026-04-19T08:14:21.633Z</time></trkpt><trkpt lat="40.942415" lon="16.4969533"><ele>480.0</ele><time>2026-04-19T08:14:22.633Z</time></trkpt><trkpt lat="40.9425983" lon="16.4968533"><ele>480.0</ele><time>2026-04-19T08:14:23.634Z</time></trkpt><trkpt lat="40.9427733" lon="16.496765"><ele>479.33333333333337</ele><time>2026-04-19T08:14:24.635Z</time></trkpt><trkpt lat="40.9429417" lon="16.4966817"><ele>478.6666666666667</ele><time>2026-04-19T08:14:25.634Z</time></trkpt><trkpt lat="40.9431" lon="16.4965983"><ele>478.0</ele><time>2026-04-19T08:14:26.634Z</time></trkpt><trkpt lat="40.9432467" lon="16.4965067"><ele>478.0</ele><time>2026-04-19T08:14:27.634Z</time></trkpt><trkpt lat="40.9433883" lon="16.4963817"><ele>478.0</ele><time>2026-04-19T08:14:28.635Z</time></trkpt><trkpt lat="40.94353" lon="16.496215"><ele>478.0</ele><time>2026-04-19T08:14:29.634Z</time></trkpt><trkpt lat="40.9436667" lon="16.4960233"><ele>478.0</ele><time>2026-04-19T08:14:30.635Z</time></trkpt><trkpt lat="40.9438033" lon="16.495815"><ele>478.0</ele><time>2026-04-19T08:14:31.635Z</time></trkpt><trkpt lat="40.94394" lon="16.4955967"><ele>478.0</ele><time>2026-04-19T08:14:32.636Z</time></trkpt><trkpt lat="40.94408" lon="16.4953683"><ele>477.5</ele><time>2026-04-19T08:14:33.633Z</time></trkpt><trkpt lat="40.9442233" lon="16.4951283"><ele>477.0</ele><time>2026-04-19T08:14:34.634Z</time></trkpt><trkpt lat="40.9443717" lon="16.4948767"><ele>477.0</ele><time>2026-04-19T08:14:35.635Z</time></trkpt><trkpt lat="40.9445283" lon="16.494615"><ele>477.0</ele><time>2026-04-19T08:14:36.634Z</time></trkpt><trkpt lat="40.944685" lon="16.4943483"><ele>477.5</ele><time>2026-04-19T08:14:37.634Z</time></trkpt><trkpt lat="40.9448467" lon="16.494075"><ele>478.0</ele><time>2026-04-19T08:14:38.635Z</time></trkpt><trkpt lat="40.9450133" lon="16.4938017"><ele>478.0</ele><time>2026-04-19T08:14:39.634Z</time></trkpt><trkpt lat="40.94518" lon="16.49354"><ele>478.0</ele><time>2026-04-19T08:14:40.634Z</time></trkpt><trkpt lat="40.9453433" lon="16.4932967"><ele>478.0</ele><time>2026-04-19T08:14:41.634Z</time></trkpt><trkpt lat="40.9454933" lon="16.493075"><ele>478.0</ele><time>2026-04-19T08:14:42.634Z</time></trkpt><trkpt lat="40.9456333" lon="16.4928767"><ele>478.0</ele><time>2026-04-19T08:14:43.634Z</time></trkpt><trkpt lat="40.94577" lon="16.492695"><ele>479.6666666666667</ele><time>2026-04-19T08:14:44.634Z</time></trkpt><trkpt lat="40.9459033" lon="16.4925317"><ele>481.33333333333337</ele><time>2026-04-19T08:14:45.634Z</time></trkpt><trkpt lat="40.9460283" lon="16.492385"><ele>483.0</ele><time>2026-04-19T08:14:46.634Z</time></trkpt><trkpt lat="40.9461467" lon="16.49225"><ele>483.0</ele><time>2026-04-19T08:14:47.634Z</time></trkpt><trkpt lat="40.9462667" lon="16.4921183"><ele>483.0</ele><time>2026-04-19T08:14:48.634Z</time></trkpt><trkpt lat="40.946395" lon="16.4919817"><ele>483.0</ele><time>2026-04-19T08:14:49.634Z</time></trkpt><trkpt lat="40.9465283" lon="16.491835"><ele>483.33333333333337</ele><time>2026-04-19T08:14:50.634Z</time></trkpt><trkpt lat="40.9466683" lon="16.4916817"><ele>483.6666666666667</ele><time>2026-04-19T08:14:51.634Z</time></trkpt><trkpt lat="40.9468167" lon="16.4915217"><ele>484.0</ele><time>2026-04-19T08:14:52.634Z</time></trkpt><trkpt lat="40.9469717" lon="16.4913567"><ele>485.0</ele><time>2026-04-19T08:14:53.634Z</time></trkpt><trkpt lat="40.9471267" lon="16.4911817"><ele>486.0</ele><time>2026-04-19T08:14:54.633Z</time></trkpt><trkpt lat="40.94728" lon="16.4909883"><ele>487.0</ele><time>2026-04-19T08:14:55.635Z</time></trkpt><trkpt lat="40.947425" lon="16.490775"><ele>486.5</ele><time>2026-04-19T08:14:56.634Z</time></trkpt><trkpt lat="40.9475683" lon="16.490545"><ele>486.0</ele><time>2026-04-19T08:14:57.634Z</time></trkpt><trkpt lat="40.9477117" lon="16.4903067"><ele>486.0</ele><time>2026-04-19T08:14:58.634Z</time></trkpt><trkpt lat="40.9478533" lon="16.4900617"><ele>486.0</ele><time>2026-04-19T08:14:59.634Z</time></trkpt><trkpt lat="40.9479983" lon="16.4898133"><ele>485.5</ele><time>2026-04-19T08:15:00.634Z</time></trkpt><trkpt lat="40.9481467" lon="16.48956"><ele>485.0</ele><time>2026-04-19T08:15:01.636Z</time></trkpt><trkpt lat="40.948295" lon="16.4893033"><ele>485.0</ele><time>2026-04-19T08:15:02.635Z</time></trkpt><trkpt lat="40.9484467" lon="16.4890417"><ele>485.0</ele><time>2026-04-19T08:15:03.634Z</time></trkpt><trkpt lat="40.9486" lon="16.4887783"><ele>485.5</ele><time>2026-04-19T08:15:04.634Z</time></trkpt><trkpt lat="40.948755" lon="16.4885117"><ele>486.0</ele><time>2026-04-19T08:15:05.634Z</time></trkpt><trkpt lat="40.94891" lon="16.4882433"><ele>486.0</ele><time>2026-04-19T08:15:06.634Z</time></trkpt><trkpt lat="40.9490683" lon="16.48797"><ele>486.0</ele><time>2026-04-19T08:15:07.635Z</time></trkpt><trkpt lat="40.9492267" lon="16.4876967"><ele>487.0</ele><time>2026-04-19T08:15:08.635Z</time></trkpt><trkpt lat="40.9493867" lon="16.4874183"><ele>488.0</ele><time>2026-04-19T08:15:09.635Z</time></trkpt><trkpt lat="40.9495467" lon="16.4871383"><ele>488.0</ele><time>2026-04-19T08:15:10.634Z</time></trkpt><trkpt lat="40.9497083" lon="16.4868583"><ele>488.0</ele><time>2026-04-19T08:15:11.634Z</time></trkpt><trkpt lat="40.9498667" lon="16.4865767"><ele>488.0</ele><time>2026-04-19T08:15:12.634Z</time></trkpt><trkpt lat="40.9500267" lon="16.486295"><ele>488.0</ele><time>2026-04-19T08:15:13.634Z</time></trkpt><trkpt lat="40.9501883" lon="16.4860117"><ele>488.0</ele><time>2026-04-19T08:15:14.635Z</time></trkpt><trkpt lat="40.95035" lon="16.4857283"><ele>488.0</ele><time>2026-04-19T08:15:15.634Z</time></trkpt><trkpt lat="40.95051" lon="16.4854433"><ele>487.5</ele><time>2026-04-19T08:15:16.634Z</time></trkpt><trkpt lat="40.950665" lon="16.4851717"><ele>487.0</ele><time>2026-04-19T08:15:17.634Z</time></trkpt><trkpt lat="40.9508117" lon="16.4849167"><ele>487.6666666666667</ele><time>2026-04-19T08:15:18.634Z</time></trkpt><trkpt lat="40.9509533" lon="16.484675"><ele>488.33333333333337</ele><time>2026-04-19T08:15:19.635Z</time></trkpt><trkpt lat="40.9510867" lon="16.4844517"><ele>489.0</ele><time>2026-04-19T08:15:20.635Z</time></trkpt><trkpt lat="40.95121" lon="16.4842433"><ele>489.66666666666663</ele><time>2026-04-19T08:15:21.635Z</time></trkpt><trkpt lat="40.9513317" lon="16.48404"><ele>490.3333333333333</ele><time>2026-04-19T08:15:22.634Z</time></trkpt><trkpt lat="40.9514533" lon="16.483835"><ele>491.0</ele><time>2026-04-19T08:15:23.636Z</time></trkpt><trkpt lat="40.95158" lon="16.4836367"><ele>491.3333333333333</ele><time>2026-04-19T08:15:24.635Z</time></trkpt><trkpt lat="40.9517167" lon="16.4834467"><ele>491.66666666666663</ele><time>2026-04-19T08:15:25.635Z</time></trkpt><trkpt lat="40.95187" lon="16.48326"><ele>492.0</ele><time>2026-04-19T08:15:26.635Z</time></trkpt><trkpt lat="40.95204" lon="16.4830767"><ele>491.5</ele><time>2026-04-19T08:15:27.635Z</time></trkpt><trkpt lat="40.9522233" lon="16.4828983"><ele>491.0</ele><time>2026-04-19T08:15:28.635Z</time></trkpt><trkpt lat="40.9524167" lon="16.4827233"><ele>492.0</ele><time>2026-04-19T08:15:29.633Z</time></trkpt><trkpt lat="40.9526167" lon="16.48255"><ele>493.0</ele><time>2026-04-19T08:15:30.634Z</time></trkpt><trkpt lat="40.9528183" lon="16.4823767"><ele>493.0</ele><time>2026-04-19T08:15:31.634Z</time></trkpt><trkpt lat="40.9530217" lon="16.4822"><ele>493.0</ele><time>2026-04-19T08:15:32.634Z</time></trkpt><trkpt lat="40.9532233" lon="16.4820217"><ele>493.5</ele><time>2026-04-19T08:15:33.634Z</time></trkpt><trkpt lat="40.953415" lon="16.48185"><ele>494.0</ele><time>2026-04-19T08:15:34.636Z</time></trkpt><trkpt lat="40.9536" lon="16.4816817"><ele>494.0</ele><time>2026-04-19T08:15:35.634Z</time></trkpt><trkpt lat="40.953785" lon="16.4815183"><ele>494.0</ele><time>2026-04-19T08:15:36.633Z</time></trkpt><trkpt lat="40.9539667" lon="16.4813583"><ele>494.0</ele><time>2026-04-19T08:15:37.634Z</time></trkpt><trkpt lat="40.9541483" lon="16.4812017"><ele>493.66666666666663</ele><time>2026-04-19T08:15:38.634Z</time></trkpt><trkpt lat="40.9543283" lon="16.4810433"><ele>493.33333333333337</ele><time>2026-04-19T08:15:39.633Z</time></trkpt><trkpt lat="40.9545117" lon="16.4808833"><ele>493.0</ele><time>2026-04-19T08:15:40.635Z</time></trkpt><trkpt lat="40.9546967" lon="16.4807167"><ele>493.0</ele><time>2026-04-19T08:15:41.634Z</time></trkpt><trkpt lat="40.9548867" lon="16.4805467"><ele>493.0</ele><time>2026-04-19T08:15:42.634Z</time></trkpt><trkpt lat="40.955085" lon="16.480375"><ele>492.0</ele><time>2026-04-19T08:15:43.634Z</time></trkpt><trkpt lat="40.9552833" lon="16.4802"><ele>491.0</ele><time>2026-04-19T08:15:44.636Z</time></trkpt><trkpt lat="40.9554867" lon="16.480015"><ele>491.0</ele><time>2026-04-19T08:15:45.635Z</time></trkpt><trkpt lat="40.9556933" lon="16.4798333"><ele>491.0</ele><time>2026-04-19T08:15:46.634Z</time></trkpt><trkpt lat="40.9559033" lon="16.4796517"><ele>491.0</ele><time>2026-04-19T08:15:47.634Z</time></trkpt><trkpt lat="40.9561117" lon="16.4794733"><ele>491.0</ele><time>2026-04-19T08:15:48.636Z</time></trkpt><trkpt lat="40.9563083" lon="16.4793"><ele>491.0</ele><time>2026-04-19T08:15:49.634Z</time></trkpt><trkpt lat="40.9564883" lon="16.4791417"><ele>491.0</ele><time>2026-04-19T08:15:50.635Z</time></trkpt><trkpt lat="40.9566483" lon="16.479"><ele>491.0</ele><time>2026-04-19T08:15:51.634Z</time></trkpt><trkpt lat="40.956805" lon="16.47887"><ele>491.3333333333333</ele><time>2026-04-19T08:15:52.635Z</time></trkpt><trkpt lat="40.95697" lon="16.4787433"><ele>491.66666666666663</ele><time>2026-04-19T08:15:53.635Z</time></trkpt><trkpt lat="40.95715" lon="16.4786283"><ele>492.0</ele><time>2026-04-19T08:15:54.635Z</time></trkpt><trkpt lat="40.9573433" lon="16.478525"><ele>491.33333333333337</ele><time>2026-04-19T08:15:55.635Z</time></trkpt><trkpt lat="40.95755" lon="16.4784383"><ele>490.6666666666667</ele><time>2026-04-19T08:15:56.635Z</time></trkpt><trkpt lat="40.9577683" lon="16.4783633"><ele>490.0</ele><time>2026-04-19T08:15:57.635Z</time></trkpt><trkpt lat="40.9579917" lon="16.478285"><ele>490.0</ele><time>2026-04-19T08:15:58.635Z</time></trkpt><trkpt lat="40.9582217" lon="16.4782033"><ele>490.0</ele><time>2026-04-19T08:15:59.634Z</time></trkpt><trkpt lat="40.9584533" lon="16.4781217"><ele>489.0</ele><time>2026-04-19T08:16:00.634Z</time></trkpt><trkpt lat="40.9586883" lon="16.4780367"><ele>488.0</ele><time>2026-04-19T08:16:01.634Z</time></trkpt><trkpt lat="40.9589233" lon="16.4779517"><ele>488.5</ele><time>2026-04-19T08:16:02.64Z</time></trkpt><trkpt lat="40.9591483" lon="16.4778667"><ele>489.0</ele><time>2026-04-19T08:16:03.633Z</time></trkpt><trkpt lat="40.959365" lon="16.4777867"><ele>488.33333333333337</ele><time>2026-04-19T08:16:04.634Z</time></trkpt><trkpt lat="40.95957" lon="16.4777083"><ele>487.6666666666667</ele><time>2026-04-19T08:16:05.634Z</time></trkpt><trkpt lat="40.9597667" lon="16.4776333"><ele>487.0</ele><time>2026-04-19T08:16:06.633Z</time></trkpt><trkpt lat="40.9599617" lon="16.4775583"><ele>486.6666666666667</ele><time>2026-04-19T08:16:07.633Z</time></trkpt><trkpt lat="40.9601583" lon="16.4774833"><ele>486.33333333333337</ele><time>2026-04-19T08:16:08.635Z</time></trkpt><trkpt lat="40.9603583" lon="16.477415"><ele>486.0</ele><time>2026-04-19T08:16:09.634Z</time></trkpt><trkpt lat="40.9605583" lon="16.477345"><ele>486.0</ele><time>2026-04-19T08:16:10.635Z</time></trkpt><trkpt lat="40.960755" lon="16.4772733"><ele>486.0</ele><time>2026-04-19T08:16:11.634Z</time></trkpt><trkpt lat="40.9609383" lon="16.4772067"><ele>486.0</ele><time>2026-04-19T08:16:12.635Z</time></trkpt><trkpt lat="40.961105" lon="16.4771483"><ele>486.0</ele><time>2026-04-19T08:16:13.634Z</time></trkpt><trkpt lat="40.961255" lon="16.477095"><ele>486.0</ele><time>2026-04-19T08:16:14.635Z</time></trkpt><trkpt lat="40.961395" lon="16.4770483"><ele>486.0</ele><time>2026-04-19T08:16:15.634Z</time></trkpt><trkpt lat="40.961535" lon="16.4770117"><ele>486.0</ele><time>2026-04-19T08:16:16.634Z</time></trkpt><trkpt lat="40.961675" lon="16.476995"><ele>485.0</ele><time>2026-04-19T08:16:17.634Z</time></trkpt><trkpt lat="40.9618117" lon="16.4769883"><ele>484.0</ele><time>2026-04-19T08:16:18.634Z</time></trkpt><trkpt lat="40.9619483" lon="16.476985"><ele>483.0</ele><time>2026-04-19T08:16:19.635Z</time></trkpt><trkpt lat="40.9620883" lon="16.4769817"><ele>482.0</ele><time>2026-04-19T08:16:20.635Z</time></trkpt><trkpt lat="40.962235" lon="16.4769783"><ele>482.0</ele><time>2026-04-19T08:16:21.635Z</time></trkpt><trkpt lat="40.9623933" lon="16.4769783"><ele>482.0</ele><time>2026-04-19T08:16:22.635Z</time></trkpt><trkpt lat="40.9625617" lon="16.4769783"><ele>482.0</ele><time>2026-04-19T08:16:23.635Z</time></trkpt><trkpt lat="40.9627433" lon="16.4769767"><ele>481.3333333333333</ele><time>2026-04-19T08:16:24.635Z</time></trkpt><trkpt lat="40.9629333" lon="16.476975"><ele>480.66666666666663</ele><time>2026-04-19T08:16:25.636Z</time></trkpt><trkpt lat="40.96313" lon="16.4769733"><ele>480.0</ele><time>2026-04-19T08:16:26.636Z</time></trkpt><trkpt lat="40.9633383" lon="16.4769717"><ele>479.0</ele><time>2026-04-19T08:16:27.635Z</time></trkpt><trkpt lat="40.9635483" lon="16.4769717"><ele>478.0</ele><time>2026-04-19T08:16:28.635Z</time></trkpt><trkpt lat="40.963765" lon="16.4769683"><ele>477.0</ele><time>2026-04-19T08:16:29.635Z</time></trkpt><trkpt lat="40.9639867" lon="16.4769667"><ele>475.33333333333337</ele><time>2026-04-19T08:16:30.635Z</time></trkpt><trkpt lat="40.96421" lon="16.4769633"><ele>473.6666666666667</ele><time>2026-04-19T08:16:31.634Z</time></trkpt><trkpt lat="40.9644317" lon="16.4769583"><ele>472.0</ele><time>2026-04-19T08:16:32.634Z</time></trkpt><trkpt lat="40.9646517" lon="16.476955"><ele>472.0</ele><time>2026-04-19T08:16:33.634Z</time></trkpt><trkpt lat="40.9648683" lon="16.4769533"><ele>472.0</ele><time>2026-04-19T08:16:34.635Z</time></trkpt><trkpt lat="40.965065" lon="16.47695"><ele>472.0</ele><time>2026-04-19T08:16:35.637Z</time></trkpt><trkpt lat="40.9652367" lon="16.4769417"><ele>471.0</ele><time>2026-04-19T08:16:36.633Z</time></trkpt><trkpt lat="40.96539" lon="16.476925"><ele>470.0</ele><time>2026-04-19T08:16:37.633Z</time></trkpt><trkpt lat="40.96553" lon="16.4768917"><ele>469.0</ele><time>2026-04-19T08:16:38.634Z</time></trkpt><trkpt lat="40.9656683" lon="16.4768333"><ele>468.0</ele><time>2026-04-19T08:16:39.633Z</time></trkpt><trkpt lat="40.9658083" lon="16.4767367"><ele>468.0</ele><time>2026-04-19T08:16:40.634Z</time></trkpt><trkpt lat="40.9659483" lon="16.4766033"><ele>468.0</ele><time>2026-04-19T08:16:41.635Z</time></trkpt><trkpt lat="40.966085" lon="16.4764383"><ele>468.0</ele><time>2026-04-19T08:16:42.633Z</time></trkpt><trkpt lat="40.9662217" lon="16.4762617"><ele>468.33333333333337</ele><time>2026-04-19T08:16:43.634Z</time></trkpt><trkpt lat="40.9663583" lon="16.47609"><ele>468.6666666666667</ele><time>2026-04-19T08:16:44.634Z</time></trkpt><trkpt lat="40.9664983" lon="16.4759233"><ele>469.0</ele><time>2026-04-19T08:16:45.633Z</time></trkpt><trkpt lat="40.9666417" lon="16.4757533"><ele>469.0</ele><time>2026-04-19T08:16:46.633Z</time></trkpt><trkpt lat="40.9667833" lon="16.4755817"><ele>469.0</ele><time>2026-04-19T08:16:47.635Z</time></trkpt><trkpt lat="40.9669283" lon="16.475405"><ele>469.0</ele><time>2026-04-19T08:16:48.634Z</time></trkpt><trkpt lat="40.9670783" lon="16.4752283"><ele>469.33333333333337</ele><time>2026-04-19T08:16:49.634Z</time></trkpt><trkpt lat="40.96723" lon="16.4750567"><ele>469.66666666666663</ele><time>2026-04-19T08:16:50.635Z</time></trkpt><trkpt lat="40.9673867" lon="16.4748967"><ele>470.0</ele><time>2026-04-19T08:16:51.634Z</time></trkpt><trkpt lat="40.9675517" lon="16.474755"><ele>468.66666666666663</ele><time>2026-04-19T08:16:52.634Z</time></trkpt><trkpt lat="40.96772" lon="16.474635"><ele>467.33333333333337</ele><time>2026-04-19T08:16:53.635Z</time></trkpt><trkpt lat="40.9678933" lon="16.47453"><ele>466.0</ele><time>2026-04-19T08:16:54.635Z</time></trkpt><trkpt lat="40.9680783" lon="16.474435"><ele>466.0</ele><time>2026-04-19T08:16:55.636Z</time></trkpt><trkpt lat="40.9682767" lon="16.47435"><ele>466.0</ele><time>2026-04-19T08:16:56.636Z</time></trkpt><trkpt lat="40.9684867" lon="16.4742733"><ele>466.0</ele><time>2026-04-19T08:16:57.635Z</time></trkpt><trkpt lat="40.9687083" lon="16.4742033"><ele>465.0</ele><time>2026-04-19T08:16:58.635Z</time></trkpt><trkpt lat="40.9689383" lon="16.474135"><ele>464.0</ele><time>2026-04-19T08:16:59.635Z</time></trkpt><trkpt lat="40.9691733" lon="16.474065"><ele>466.0</ele><time>2026-04-19T08:17:00.635Z</time></trkpt><trkpt lat="40.9694133" lon="16.47399"><ele>468.0</ele><time>2026-04-19T08:17:01.634Z</time></trkpt><trkpt lat="40.9696567" lon="16.4739117"><ele>468.0</ele><time>2026-04-19T08:17:02.635Z</time></trkpt><trkpt lat="40.9699083" lon="16.473835"><ele>468.0</ele><time>2026-04-19T08:17:03.634Z</time></trkpt><trkpt lat="40.970165" lon="16.4737567"><ele>468.5</ele><time>2026-04-19T08:17:04.634Z</time></trkpt><trkpt lat="40.9704233" lon="16.4736767"><ele>469.0</ele><time>2026-04-19T08:17:05.635Z</time></trkpt><trkpt lat="40.9706883" lon="16.4735967"><ele>469.5</ele><time>2026-04-19T08:17:06.634Z</time></trkpt><trkpt lat="40.9709567" lon="16.473515"><ele>470.0</ele><time>2026-04-19T08:17:07.635Z</time></trkpt><trkpt lat="40.97123" lon="16.47343"><ele>470.0</ele><time>2026-04-19T08:17:08.634Z</time></trkpt><trkpt lat="40.9715067" lon="16.473345"><ele>470.0</ele><time>2026-04-19T08:17:09.634Z</time></trkpt><trkpt lat="40.9717867" lon="16.4732567"><ele>471.5</ele><time>2026-04-19T08:17:10.634Z</time></trkpt><trkpt lat="40.9720717" lon="16.473165"><ele>473.0</ele><time>2026-04-19T08:17:11.634Z</time></trkpt><trkpt lat="40.97236" lon="16.4730767"><ele>473.5</ele><time>2026-04-19T08:17:12.634Z</time></trkpt><trkpt lat="40.9726533" lon="16.472985"><ele>474.0</ele><time>2026-04-19T08:17:13.634Z</time></trkpt><trkpt lat="40.9729433" lon="16.472895"><ele>474.5</ele><time>2026-04-19T08:17:14.634Z</time></trkpt><trkpt lat="40.973215" lon="16.4728083"><ele>475.0</ele><time>2026-04-19T08:17:15.634Z</time></trkpt><trkpt lat="40.9734683" lon="16.4727267"><ele>476.5</ele><time>2026-04-19T08:17:16.634Z</time></trkpt><trkpt lat="40.9737067" lon="16.4726483"><ele>478.0</ele><time>2026-04-19T08:17:17.635Z</time></trkpt><trkpt lat="40.9739317" lon="16.4725767"><ele>478.0</ele><time>2026-04-19T08:17:18.634Z</time></trkpt><trkpt lat="40.9741483" lon="16.472515"><ele>478.0</ele><time>2026-04-19T08:17:19.635Z</time></trkpt><trkpt lat="40.9743417" lon="16.4724367"><ele>478.0</ele><time>2026-04-19T08:17:20.635Z</time></trkpt><trkpt lat="40.9745267" lon="16.4723783"><ele>478.6666666666667</ele><time>2026-04-19T08:17:21.635Z</time></trkpt><trkpt lat="40.974725" lon="16.4723283"><ele>479.33333333333337</ele><time>2026-04-19T08:17:22.635Z</time></trkpt><trkpt lat="40.9749217" lon="16.4722733"><ele>480.0</ele><time>2026-04-19T08:17:23.636Z</time></trkpt><trkpt lat="40.9751183" lon="16.47221"><ele>480.0</ele><time>2026-04-19T08:17:24.634Z</time></trkpt><trkpt lat="40.9753233" lon="16.47215"><ele>480.0</ele><time>2026-04-19T08:17:25.634Z</time></trkpt><trkpt lat="40.9755333" lon="16.472085"><ele>480.0</ele><time>2026-04-19T08:17:26.634Z</time></trkpt><trkpt lat="40.9757483" lon="16.4720167"><ele>481.0</ele><time>2026-04-19T08:17:27.634Z</time></trkpt><trkpt lat="40.97597" lon="16.4719483"><ele>482.0</ele><time>2026-04-19T08:17:28.634Z</time></trkpt><trkpt lat="40.9761933" lon="16.4718817"><ele>482.0</ele><time>2026-04-19T08:17:29.634Z</time></trkpt><trkpt lat="40.97642" lon="16.4718133"><ele>482.0</ele><time>2026-04-19T08:17:30.634Z</time></trkpt><trkpt lat="40.9766483" lon="16.4717433"><ele>482.0</ele><time>2026-04-19T08:17:31.634Z</time></trkpt><trkpt lat="40.9768817" lon="16.47167"><ele>482.0</ele><time>2026-04-19T08:17:32.634Z</time></trkpt><trkpt lat="40.9771133" lon="16.4715917"><ele>482.0</ele><time>2026-04-19T08:17:33.633Z</time></trkpt><trkpt lat="40.9773417" lon="16.4715167"><ele>482.0</ele><time>2026-04-19T08:17:34.634Z</time></trkpt><trkpt lat="40.9775567" lon="16.4714467"><ele>482.3333333333333</ele><time>2026-04-19T08:17:35.635Z</time></trkpt><trkpt lat="40.9777617" lon="16.4713817"><ele>482.66666666666663</ele><time>2026-04-19T08:17:36.634Z</time></trkpt><trkpt lat="40.977955" lon="16.4713167"><ele>483.0</ele><time>2026-04-19T08:17:37.634Z</time></trkpt><trkpt lat="40.97814" lon="16.4712567"><ele>482.75</ele><time>2026-04-19T08:17:38.635Z</time></trkpt><trkpt lat="40.97831" lon="16.4712083"><ele>482.5</ele><time>2026-04-19T08:17:39.634Z</time></trkpt><trkpt lat="40.9784483" lon="16.471165"><ele>482.25</ele><time>2026-04-19T08:17:40.636Z</time></trkpt><trkpt lat="40.9785617" lon="16.4711183"><ele>482.0</ele><time>2026-04-19T08:17:41.633Z</time></trkpt><trkpt lat="40.97866" lon="16.4710717"><ele>482.0</ele><time>2026-04-19T08:17:42.633Z</time></trkpt><trkpt lat="40.97875" lon="16.471025"><ele>482.00000000000006</ele><time>2026-04-19T08:17:43.633Z</time></trkpt><trkpt lat="40.9788333" lon="16.4709633"><ele>482.00000000000006</ele><time>2026-04-19T08:17:44.634Z</time></trkpt><trkpt lat="40.9789233" lon="16.47088"><ele>482.0</ele><time>2026-04-19T08:17:45.634Z</time></trkpt><trkpt lat="40.9790133" lon="16.4707733"><ele>482.0</ele><time>2026-04-19T08:17:46.634Z</time></trkpt><trkpt lat="40.97911" lon="16.4706483"><ele>481.5</ele><time>2026-04-19T08:17:47.635Z</time></trkpt><trkpt lat="40.97921" lon="16.4705117"><ele>481.0</ele><time>2026-04-19T08:17:48.634Z</time></trkpt><trkpt lat="40.9793117" lon="16.47037"><ele>480.5</ele><time>2026-04-19T08:17:49.634Z</time></trkpt><trkpt lat="40.9794183" lon="16.4702267"><ele>480.0</ele><time>2026-04-19T08:17:50.635Z</time></trkpt><trkpt lat="40.979535" lon="16.4700767"><ele>480.0</ele><time>2026-04-19T08:17:51.635Z</time></trkpt><trkpt lat="40.97966" lon="16.46992"><ele>480.0</ele><time>2026-04-19T08:17:52.635Z</time></trkpt><trkpt lat="40.979795" lon="16.469765"><ele>480.0</ele><time>2026-04-19T08:17:53.635Z</time></trkpt><trkpt lat="40.97994" lon="16.469615"><ele>479.66666666666663</ele><time>2026-04-19T08:17:54.634Z</time></trkpt><trkpt lat="40.9800883" lon="16.46947"><ele>479.3333333333333</ele><time>2026-04-19T08:17:55.634Z</time></trkpt><trkpt lat="40.9802283" lon="16.469325"><ele>479.0</ele><time>2026-04-19T08:17:56.635Z</time></trkpt><trkpt lat="40.980365" lon="16.4691717"><ele>479.0</ele><time>2026-04-19T08:17:57.634Z</time></trkpt><trkpt lat="40.9804967" lon="16.4690183"><ele>479.0</ele><time>2026-04-19T08:17:58.634Z</time></trkpt><trkpt lat="40.9806217" lon="16.4688733"><ele>479.0</ele><time>2026-04-19T08:17:59.636Z</time></trkpt><trkpt lat="40.98074" lon="16.4687333"><ele>477.5</ele><time>2026-04-19T08:18:00.635Z</time></trkpt><trkpt lat="40.9808533" lon="16.4685983"><ele>476.0</ele><time>2026-04-19T08:18:01.635Z</time></trkpt><trkpt lat="40.9809583" lon="16.46847"><ele>474.5</ele><time>2026-04-19T08:18:02.635Z</time></trkpt><trkpt lat="40.9810567" lon="16.4683467"><ele>473.0</ele><time>2026-04-19T08:18:03.634Z</time></trkpt><trkpt lat="40.9811517" lon="16.4682367"><ele>473.0</ele><time>2026-04-19T08:18:04.634Z</time></trkpt><trkpt lat="40.9812483" lon="16.4681467"><ele>472.99999999999994</ele><time>2026-04-19T08:18:05.635Z</time></trkpt><trkpt lat="40.9813433" lon="16.46808"><ele>472.99999999999994</ele><time>2026-04-19T08:18:06.635Z</time></trkpt><trkpt lat="40.981435" lon="16.4680467"><ele>473.0</ele><time>2026-04-19T08:18:07.634Z</time></trkpt><trkpt lat="40.981525" lon="16.4680367"><ele>473.0</ele><time>2026-04-19T08:18:08.634Z</time></trkpt><trkpt lat="40.9816233" lon="16.4680533"><ele>471.75</ele><time>2026-04-19T08:18:09.634Z</time></trkpt><trkpt lat="40.9817317" lon="16.4680967"><ele>470.5</ele><time>2026-04-19T08:18:10.634Z</time></trkpt><trkpt lat="40.9818517" lon="16.46817"><ele>469.25</ele><time>2026-04-19T08:18:11.635Z</time></trkpt><trkpt lat="40.9819833" lon="16.4682617"><ele>468.0</ele><time>2026-04-19T08:18:12.635Z</time></trkpt><trkpt lat="40.9821183" lon="16.4683617"><ele>468.0</ele><time>2026-04-19T08:18:13.634Z</time></trkpt><trkpt lat="40.9822633" lon="16.4684633"><ele>468.0</ele><time>2026-04-19T08:18:14.634Z</time></trkpt><trkpt lat="40.9824283" lon="16.4685583"><ele>468.0</ele><time>2026-04-19T08:18:15.634Z</time></trkpt><trkpt lat="40.9826083" lon="16.4686417"><ele>465.66666666666663</ele><time>2026-04-19T08:18:16.634Z</time></trkpt><trkpt lat="40.9828017" lon="16.4687183"><ele>463.3333333333333</ele><time>2026-04-19T08:18:17.634Z</time></trkpt><trkpt lat="40.9830083" lon="16.4687917"><ele>461.0</ele><time>2026-04-19T08:18:18.635Z</time></trkpt><trkpt lat="40.98322" lon="16.4688633"><ele>459.3333333333333</ele><time>2026-04-19T08:18:19.634Z</time></trkpt><trkpt lat="40.98343" lon="16.4689333"><ele>457.66666666666663</ele><time>2026-04-19T08:18:20.635Z</time></trkpt><trkpt lat="40.9836233" lon="16.4690017"><ele>456.0</ele><time>2026-04-19T08:18:21.637Z</time></trkpt><trkpt lat="40.9838033" lon="16.469075"><ele>456.0</ele><time>2026-04-19T08:18:22.634Z</time></trkpt><trkpt lat="40.9839633" lon="16.46916"><ele>456.0</ele><time>2026-04-19T08:18:23.634Z</time></trkpt><trkpt lat="40.9841017" lon="16.469265"><ele>456.0</ele><time>2026-04-19T08:18:24.634Z</time></trkpt><trkpt lat="40.9842267" lon="16.4693933"><ele>454.66666666666663</ele><time>2026-04-19T08:18:25.635Z</time></trkpt><trkpt lat="40.9843433" lon="16.46955"><ele>453.3333333333333</ele><time>2026-04-19T08:18:26.634Z</time></trkpt><trkpt lat="40.9844517" lon="16.469735"><ele>452.0</ele><time>2026-04-19T08:18:27.634Z</time></trkpt><trkpt lat="40.9845617" lon="16.46992"><ele>452.0</ele><time>2026-04-19T08:18:28.635Z</time></trkpt><trkpt lat="40.9846733" lon="16.4700817"><ele>452.0</ele><time>2026-04-19T08:18:29.635Z</time></trkpt><trkpt lat="40.984805" lon="16.470215"><ele>452.0</ele><time>2026-04-19T08:18:30.635Z</time></trkpt><trkpt lat="40.984965" lon="16.4703133"><ele>451.66666666666663</ele><time>2026-04-19T08:18:31.636Z</time></trkpt><trkpt lat="40.98515" lon="16.4703833"><ele>451.33333333333337</ele><time>2026-04-19T08:18:32.636Z</time></trkpt><trkpt lat="40.985355" lon="16.470425"><ele>451.0</ele><time>2026-04-19T08:18:33.635Z</time></trkpt><trkpt lat="40.9855633" lon="16.47045"><ele>451.0</ele><time>2026-04-19T08:18:34.639Z</time></trkpt><trkpt lat="40.985765" lon="16.4704717"><ele>451.0</ele><time>2026-04-19T08:18:35.635Z</time></trkpt><trkpt lat="40.9859617" lon="16.4704967"><ele>451.0</ele><time>2026-04-19T08:18:36.635Z</time></trkpt><trkpt lat="40.9861683" lon="16.4705367"><ele>450.6666666666667</ele><time>2026-04-19T08:18:37.636Z</time></trkpt><trkpt lat="40.9863817" lon="16.4706017"><ele>450.33333333333337</ele><time>2026-04-19T08:18:38.635Z</time></trkpt><trkpt lat="40.9866017" lon="16.470685"><ele>450.0</ele><time>2026-04-19T08:18:39.634Z</time></trkpt><trkpt lat="40.9868317" lon="16.4707733"><ele>449.5</ele><time>2026-04-19T08:18:40.634Z</time></trkpt><trkpt lat="40.98707" lon="16.470865"><ele>449.0</ele><time>2026-04-19T08:18:41.634Z</time></trkpt><trkpt lat="40.9873167" lon="16.4709633"><ele>448.5</ele><time>2026-04-19T08:18:42.633Z</time></trkpt><trkpt lat="40.987575" lon="16.4710633"><ele>448.0</ele><time>2026-04-19T08:18:43.634Z</time></trkpt><trkpt lat="40.9878167" lon="16.4711617"><ele>448.0</ele><time>2026-04-19T08:18:44.635Z</time></trkpt><trkpt lat="40.9880367" lon="16.47125"><ele>448.0</ele><time>2026-04-19T08:18:45.634Z</time></trkpt><trkpt lat="40.9882333" lon="16.471325"><ele>448.0</ele><time>2026-04-19T08:18:46.635Z</time></trkpt><trkpt lat="40.9884067" lon="16.4713933"><ele>447.33333333333337</ele><time>2026-04-19T08:18:47.634Z</time></trkpt><trkpt lat="40.9885567" lon="16.4714667"><ele>446.66666666666663</ele><time>2026-04-19T08:18:48.634Z</time></trkpt><trkpt lat="40.9886983" lon="16.4715567"><ele>446.0</ele><time>2026-04-19T08:18:49.634Z</time></trkpt><trkpt lat="40.9888367" lon="16.47167"><ele>446.0</ele><time>2026-04-19T08:18:50.634Z</time></trkpt><trkpt lat="40.9889633" lon="16.4718083"><ele>446.0</ele><time>2026-04-19T08:18:51.634Z</time></trkpt><trkpt lat="40.98909" lon="16.4719617"><ele>446.0</ele><time>2026-04-19T08:18:52.633Z</time></trkpt><trkpt lat="40.9892183" lon="16.4721233"><ele>445.3333333333333</ele><time>2026-04-19T08:18:53.634Z</time></trkpt><trkpt lat="40.98935" lon="16.4722933"><ele>444.66666666666663</ele><time>2026-04-19T08:18:54.634Z</time></trkpt><trkpt lat="40.9894817" lon="16.4724817"><ele>444.0</ele><time>2026-04-19T08:18:55.634Z</time></trkpt><trkpt lat="40.9896133" lon="16.4726667"><ele>444.0</ele><time>2026-04-19T08:18:56.635Z</time></trkpt><trkpt lat="40.9897333" lon="16.4728317"><ele>444.0</ele><time>2026-04-19T08:18:57.634Z</time></trkpt><trkpt lat="40.9898317" lon="16.4729667"><ele>444.0</ele><time>2026-04-19T08:18:58.634Z</time></trkpt><trkpt lat="40.9899117" lon="16.4730717"><ele>444.0</ele><time>2026-04-19T08:18:59.634Z</time></trkpt><trkpt lat="40.9899833" lon="16.4731467"><ele>444.0</ele><time>2026-04-19T08:19:00.634Z</time></trkpt><trkpt lat="40.99006" lon="16.47321"><ele>444.0</ele><time>2026-04-19T08:19:01.635Z</time></trkpt><trkpt lat="40.9901483" lon="16.4732617"><ele>444.0</ele><time>2026-04-19T08:19:02.634Z</time></trkpt><trkpt lat="40.99026" lon="16.47329"><ele>444.0</ele><time>2026-04-19T08:19:03.634Z</time></trkpt><trkpt lat="40.9903883" lon="16.4732917"><ele>444.0</ele><time>2026-04-19T08:19:04.636Z</time></trkpt><trkpt lat="40.9905317" lon="16.47327"><ele>444.0</ele><time>2026-04-19T08:19:05.636Z</time></trkpt><trkpt lat="40.9906783" lon="16.47324"><ele>444.0</ele><time>2026-04-19T08:19:06.634Z</time></trkpt><trkpt lat="40.9908167" lon="16.473215"><ele>444.0</ele><time>2026-04-19T08:19:07.635Z</time></trkpt><trkpt lat="40.9909433" lon="16.4731933"><ele>444.0</ele><time>2026-04-19T08:19:08.634Z</time></trkpt><trkpt lat="40.991065" lon="16.473185"><ele>443.25</ele><time>2026-04-19T08:19:09.634Z</time></trkpt><trkpt lat="40.991195" lon="16.4732017"><ele>442.5</ele><time>2026-04-19T08:19:10.634Z</time></trkpt><trkpt lat="40.991335" lon="16.4732417"><ele>441.75</ele><time>2026-04-19T08:19:11.635Z</time></trkpt><trkpt lat="40.9914833" lon="16.4732967"><ele>441.0</ele><time>2026-04-19T08:19:12.634Z</time></trkpt><trkpt lat="40.991645" lon="16.4733633"><ele>440.0</ele><time>2026-04-19T08:19:13.634Z</time></trkpt><trkpt lat="40.9918167" lon="16.4734333"><ele>439.0</ele><time>2026-04-19T08:19:14.636Z</time></trkpt><trkpt lat="40.9919967" lon="16.4735033"><ele>438.0</ele><time>2026-04-19T08:19:15.633Z</time></trkpt><trkpt lat="40.992185" lon="16.47358"><ele>438.0</ele><time>2026-04-19T08:19:16.633Z</time></trkpt><trkpt lat="40.99238" lon="16.473675"><ele>438.0</ele><time>2026-04-19T08:19:17.634Z</time></trkpt><trkpt lat="40.9925783" lon="16.47379"><ele>438.0</ele><time>2026-04-19T08:19:18.635Z</time></trkpt><trkpt lat="40.9927767" lon="16.47392"><ele>439.0</ele><time>2026-04-19T08:19:19.634Z</time></trkpt><trkpt lat="40.99298" lon="16.4740583"><ele>440.0</ele><time>2026-04-19T08:19:20.635Z</time></trkpt><trkpt lat="40.9931867" lon="16.4742"><ele>440.0</ele><time>2026-04-19T08:19:21.635Z</time></trkpt><trkpt lat="40.9933967" lon="16.47434"><ele>440.0</ele><time>2026-04-19T08:19:22.634Z</time></trkpt><trkpt lat="40.9936017" lon="16.4744733"><ele>440.0</ele><time>2026-04-19T08:19:23.635Z</time></trkpt><trkpt lat="40.9937933" lon="16.4745983"><ele>440.0</ele><time>2026-04-19T08:19:24.634Z</time></trkpt><trkpt lat="40.993975" lon="16.4747133"><ele>440.0</ele><time>2026-04-19T08:19:25.635Z</time></trkpt><trkpt lat="40.9941467" lon="16.4748233"><ele>439.3333333333333</ele><time>2026-04-19T08:19:26.635Z</time></trkpt><trkpt lat="40.9943067" lon="16.47493"><ele>438.66666666666663</ele><time>2026-04-19T08:19:27.635Z</time></trkpt><trkpt lat="40.99446" lon="16.47503"><ele>438.0</ele><time>2026-04-19T08:19:28.636Z</time></trkpt><trkpt lat="40.9946067" lon="16.47512"><ele>438.0</ele><time>2026-04-19T08:19:29.635Z</time></trkpt><trkpt lat="40.994745" lon="16.47521"><ele>438.0</ele><time>2026-04-19T08:19:30.634Z</time></trkpt><trkpt lat="40.9948817" lon="16.4753133"><ele>438.0</ele><time>2026-04-19T08:19:31.635Z</time></trkpt><trkpt lat="40.995015" lon="16.4754433"><ele>436.33333333333337</ele><time>2026-04-19T08:19:32.636Z</time></trkpt><trkpt lat="40.995145" lon="16.4755967"><ele>434.6666666666667</ele><time>2026-04-19T08:19:33.634Z</time></trkpt><trkpt lat="40.995275" lon="16.4757633"><ele>433.0</ele><time>2026-04-19T08:19:34.635Z</time></trkpt><trkpt lat="40.99541" lon="16.4759383"><ele>433.0</ele><time>2026-04-19T08:19:35.635Z</time></trkpt><trkpt lat="40.9955533" lon="16.4761183"><ele>433.0</ele><time>2026-04-19T08:19:36.634Z</time></trkpt><trkpt lat="40.9956983" lon="16.4763017"><ele>433.0</ele><time>2026-04-19T08:19:37.635Z</time></trkpt><trkpt lat="40.9958467" lon="16.4764883"><ele>432.0</ele><time>2026-04-19T08:19:38.635Z</time></trkpt><trkpt lat="40.9959967" lon="16.4766767"><ele>431.0</ele><time>2026-04-19T08:19:39.634Z</time></trkpt><trkpt lat="40.9961467" lon="16.4768717"><ele>430.0</ele><time>2026-04-19T08:19:40.635Z</time></trkpt><trkpt lat="40.9963017" lon="16.4770733"><ele>429.5</ele><time>2026-04-19T08:19:41.635Z</time></trkpt><trkpt lat="40.9964633" lon="16.47728"><ele>429.0</ele><time>2026-04-19T08:19:42.636Z</time></trkpt><trkpt lat="40.99663" lon="16.4774883"><ele>427.5</ele><time>2026-04-19T08:19:43.635Z</time></trkpt><trkpt lat="40.9967983" lon="16.4777017"><ele>426.0</ele><time>2026-04-19T08:19:44.635Z</time></trkpt><trkpt lat="40.9969617" lon="16.4779133"><ele>425.66666666666663</ele><time>2026-04-19T08:19:45.634Z</time></trkpt><trkpt lat="40.99712" lon="16.47812"><ele>425.3333333333333</ele><time>2026-04-19T08:19:46.634Z</time></trkpt><trkpt lat="40.99728" lon="16.4783233"><ele>425.0</ele><time>2026-04-19T08:19:47.634Z</time></trkpt><trkpt lat="40.997445" lon="16.4785217"><ele>424.0</ele><time>2026-04-19T08:19:48.635Z</time></trkpt><trkpt lat="40.9976083" lon="16.47872"><ele>423.0</ele><time>2026-04-19T08:19:49.634Z</time></trkpt><trkpt lat="40.9977717" lon="16.4789233"><ele>422.0</ele><time>2026-04-19T08:19:50.635Z</time></trkpt><trkpt lat="40.9979283" lon="16.4791233"><ele>422.0</ele><time>2026-04-19T08:19:51.634Z</time></trkpt><trkpt lat="40.99808" lon="16.4793183"><ele>422.0</ele><time>2026-04-19T08:19:52.634Z</time></trkpt><trkpt lat="40.9982283" lon="16.4795217"><ele>422.0</ele><time>2026-04-19T08:19:53.634Z</time></trkpt><trkpt lat="40.99838" lon="16.4797383"><ele>419.5</ele><time>2026-04-19T08:19:54.634Z</time></trkpt><trkpt lat="40.99853" lon="16.4799667"><ele>417.0</ele><time>2026-04-19T08:19:55.635Z</time></trkpt><trkpt lat="40.9986817" lon="16.4802017"><ele>417.0</ele><time>2026-04-19T08:19:56.634Z</time></trkpt><trkpt lat="40.9988367" lon="16.4804433"><ele>417.0</ele><time>2026-04-19T08:19:57.635Z</time></trkpt><trkpt lat="40.998995" lon="16.48069"><ele>417.0</ele><time>2026-04-19T08:19:58.634Z</time></trkpt><trkpt lat="40.999155" lon="16.4809417"><ele>417.0</ele><time>2026-04-19T08:19:59.634Z</time></trkpt><trkpt lat="40.9993133" lon="16.4811967"><ele>414.0</ele><time>2026-04-19T08:20:00.634Z</time></trkpt><trkpt lat="40.99947" lon="16.4814467"><ele>411.0</ele><time>2026-04-19T08:20:01.634Z</time></trkpt><trkpt lat="40.9996217" lon="16.4816883"><ele>411.0</ele><time>2026-04-19T08:20:02.635Z</time></trkpt><trkpt lat="40.9997667" lon="16.4819183"><ele>411.0</ele><time>2026-04-19T08:20:03.635Z</time></trkpt><trkpt lat="40.9999033" lon="16.4821367"><ele>411.0</ele><time>2026-04-19T08:20:04.634Z</time></trkpt><trkpt lat="41.0000317" lon="16.482345"><ele>411.33333333333337</ele><time>2026-04-19T08:20:05.635Z</time></trkpt><trkpt lat="41.00015" lon="16.48254"><ele>411.6666666666667</ele><time>2026-04-19T08:20:06.635Z</time></trkpt><trkpt lat="41.00026" lon="16.4827183"><ele>412.0</ele><time>2026-04-19T08:20:07.634Z</time></trkpt><trkpt lat="41.0003783" lon="16.4828867"><ele>411.0</ele><time>2026-04-19T08:20:08.634Z</time></trkpt><trkpt lat="41.0005183" lon="16.4830533"><ele>410.0</ele><time>2026-04-19T08:20:09.634Z</time></trkpt><trkpt lat="41.0006767" lon="16.4832167"><ele>409.0</ele><time>2026-04-19T08:20:10.634Z</time></trkpt><trkpt lat="41.0008417" lon="16.4833767"><ele>407.0</ele><time>2026-04-19T08:20:11.634Z</time></trkpt><trkpt lat="41.001005" lon="16.4835317"><ele>405.0</ele><time>2026-04-19T08:20:12.634Z</time></trkpt><trkpt lat="41.00116" lon="16.4836817"><ele>403.0</ele><time>2026-04-19T08:20:13.634Z</time></trkpt><trkpt lat="41.00131" lon="16.4838233"><ele>402.33333333333337</ele><time>2026-04-19T08:20:14.634Z</time></trkpt><trkpt lat="41.0014617" lon="16.4839583"><ele>401.66666666666663</ele><time>2026-04-19T08:20:15.634Z</time></trkpt><trkpt lat="41.0016067" lon="16.48409"><ele>401.0</ele><time>2026-04-19T08:20:16.634Z</time></trkpt><trkpt lat="41.0017483" lon="16.4842233"><ele>399.0</ele><time>2026-04-19T08:20:17.635Z</time></trkpt><trkpt lat="41.00189" lon="16.484355"><ele>397.0</ele><time>2026-04-19T08:20:18.634Z</time></trkpt><trkpt lat="41.0020267" lon="16.4844867"><ele>395.0</ele><time>2026-04-19T08:20:19.634Z</time></trkpt><trkpt lat="41.0021633" lon="16.4846133"><ele>393.3333333333333</ele><time>2026-04-19T08:20:20.635Z</time></trkpt><trkpt lat="41.0022967" lon="16.4847367"><ele>391.66666666666663</ele><time>2026-04-19T08:20:21.634Z</time></trkpt><trkpt lat="41.002425" lon="16.4848533"><ele>390.0</ele><time>2026-04-19T08:20:22.634Z</time></trkpt><trkpt lat="41.00254" lon="16.4849567"><ele>389.2</ele><time>2026-04-19T08:20:23.634Z</time></trkpt><trkpt lat="41.0026383" lon="16.48504"><ele>388.4</ele><time>2026-04-19T08:20:24.634Z</time></trkpt><trkpt lat="41.0027233" lon="16.4851033"><ele>387.6</ele><time>2026-04-19T08:20:25.634Z</time></trkpt><trkpt lat="41.002815" lon="16.48515"><ele>386.8</ele><time>2026-04-19T08:20:26.634Z</time></trkpt><trkpt lat="41.0029233" lon="16.4851717"><ele>386.0</ele><time>2026-04-19T08:20:27.634Z</time></trkpt><trkpt lat="41.00305" lon="16.4851483"><ele>386.0</ele><time>2026-04-19T08:20:28.634Z</time></trkpt><trkpt lat="41.00317" lon="16.4850867"><ele>386.0</ele><time>2026-04-19T08:20:29.633Z</time></trkpt><trkpt lat="41.00328" lon="16.48499"><ele>386.0</ele><time>2026-04-19T08:20:30.634Z</time></trkpt><trkpt lat="41.0033817" lon="16.484865"><ele>386.0</ele><time>2026-04-19T08:20:31.634Z</time></trkpt><trkpt lat="41.003475" lon="16.48471"><ele>385.0</ele><time>2026-04-19T08:20:32.634Z</time></trkpt><trkpt lat="41.003565" lon="16.484545"><ele>384.0</ele><time>2026-04-19T08:20:33.634Z</time></trkpt><trkpt lat="41.0036517" lon="16.4843867"><ele>383.0</ele><time>2026-04-19T08:20:34.634Z</time></trkpt><trkpt lat="41.003735" lon="16.4842367"><ele>382.0</ele><time>2026-04-19T08:20:35.634Z</time></trkpt><trkpt lat="41.0038217" lon="16.484085"><ele>382.0</ele><time>2026-04-19T08:20:36.634Z</time></trkpt><trkpt lat="41.0039167" lon="16.4839233"><ele>382.0</ele><time>2026-04-19T08:20:37.634Z</time></trkpt><trkpt lat="41.00402" lon="16.4837483"><ele>382.0</ele><time>2026-04-19T08:20:38.635Z</time></trkpt><trkpt lat="41.0041267" lon="16.48357"><ele>379.3333333333333</ele><time>2026-04-19T08:20:39.634Z</time></trkpt><trkpt lat="41.0042283" lon="16.4833967"><ele>376.6666666666667</ele><time>2026-04-19T08:20:40.634Z</time></trkpt><trkpt lat="41.004325" lon="16.4832317"><ele>374.0</ele><time>2026-04-19T08:20:41.635Z</time></trkpt><trkpt lat="41.0044183" lon="16.4830717"><ele>373.25</ele><time>2026-04-19T08:20:42.634Z</time></trkpt><trkpt lat="41.004505" lon="16.482925"><ele>372.5</ele><time>2026-04-19T08:20:43.634Z</time></trkpt><trkpt lat="41.0045867" lon="16.4827967"><ele>371.75</ele><time>2026-04-19T08:20:44.635Z</time></trkpt><trkpt lat="41.0046667" lon="16.4827"><ele>371.0</ele><time>2026-04-19T08:20:45.634Z</time></trkpt><trkpt lat="41.0047533" lon="16.4826317"><ele>371.0</ele><time>2026-04-19T08:20:46.634Z</time></trkpt><trkpt lat="41.00485" lon="16.48258"><ele>371.0</ele><time>2026-04-19T08:20:47.635Z</time></trkpt><trkpt lat="41.0049517" lon="16.482555"><ele>371.0</ele><time>2026-04-19T08:20:48.633Z</time></trkpt><trkpt lat="41.0050517" lon="16.4825667"><ele>371.0</ele><time>2026-04-19T08:20:49.635Z</time></trkpt><trkpt lat="41.0051517" lon="16.4826133"><ele>371.0</ele><time>2026-04-19T08:20:50.634Z</time></trkpt><trkpt lat="41.005255" lon="16.4826917"><ele>369.0</ele><time>2026-04-19T08:20:51.636Z</time></trkpt><trkpt lat="41.0053617" lon="16.4828117"><ele>367.0</ele><time>2026-04-19T08:20:52.634Z</time></trkpt><trkpt lat="41.00549" lon="16.4829317"><ele>365.0</ele><time>2026-04-19T08:20:53.635Z</time></trkpt><trkpt lat="41.005635" lon="16.4830367"><ele>365.0</ele><time>2026-04-19T08:20:54.634Z</time></trkpt><trkpt lat="41.0057867" lon="16.4831117"><ele>365.0</ele><time>2026-04-19T08:20:55.634Z</time></trkpt><trkpt lat="41.00594" lon="16.48317"><ele>365.0</ele><time>2026-04-19T08:20:56.635Z</time></trkpt><trkpt lat="41.0060967" lon="16.4832283"><ele>363.0</ele><time>2026-04-19T08:20:57.634Z</time></trkpt><trkpt lat="41.006255" lon="16.4832883"><ele>361.0</ele><time>2026-04-19T08:20:58.633Z</time></trkpt><trkpt lat="41.00642" lon="16.4833467"><ele>359.0</ele><time>2026-04-19T08:20:59.634Z</time></trkpt><trkpt lat="41.0065967" lon="16.4834083"><ele>357.33333333333337</ele><time>2026-04-19T08:21:00.634Z</time></trkpt><trkpt lat="41.0067867" lon="16.483475"><ele>355.6666666666667</ele><time>2026-04-19T08:21:01.634Z</time></trkpt><trkpt lat="41.0069833" lon="16.4835467"><ele>354.0</ele><time>2026-04-19T08:21:02.634Z</time></trkpt><trkpt lat="41.0071867" lon="16.4836217"><ele>354.0</ele><time>2026-04-19T08:21:03.634Z</time></trkpt><trkpt lat="41.0074" lon="16.4837017"><ele>354.0</ele><time>2026-04-19T08:21:04.633Z</time></trkpt><trkpt lat="41.0076217" lon="16.4837817"><ele>352.0</ele><time>2026-04-19T08:21:05.633Z</time></trkpt><trkpt lat="41.0078517" lon="16.4838617"><ele>350.0</ele><time>2026-04-19T08:21:06.634Z</time></trkpt><trkpt lat="41.0080833" lon="16.4839467"><ele>350.0</ele><time>2026-04-19T08:21:07.635Z</time></trkpt><trkpt lat="41.00832" lon="16.48403"><ele>350.0</ele><time>2026-04-19T08:21:08.635Z</time></trkpt><trkpt lat="41.00856" lon="16.484115"><ele>347.5</ele><time>2026-04-19T08:21:09.634Z</time></trkpt><trkpt lat="41.0088017" lon="16.48421"><ele>345.0</ele><time>2026-04-19T08:21:10.634Z</time></trkpt><trkpt lat="41.0090417" lon="16.4843117"><ele>347.0</ele><time>2026-04-19T08:21:11.634Z</time></trkpt><trkpt lat="41.0092717" lon="16.4844133"><ele>349.0</ele><time>2026-04-19T08:21:12.634Z</time></trkpt><trkpt lat="41.0094883" lon="16.484515"><ele>344.5</ele><time>2026-04-19T08:21:13.636Z</time></trkpt><trkpt lat="41.0097" lon="16.48463"><ele>340.0</ele><time>2026-04-19T08:21:14.634Z</time></trkpt><trkpt lat="41.00991" lon="16.4847633"><ele>339.5</ele><time>2026-04-19T08:21:15.634Z</time></trkpt><trkpt lat="41.0101217" lon="16.48492"><ele>339.0</ele><time>2026-04-19T08:21:16.634Z</time></trkpt><trkpt lat="41.010335" lon="16.4850933"><ele>339.0</ele><time>2026-04-19T08:21:17.634Z</time></trkpt><trkpt lat="41.0105517" lon="16.4852683"><ele>339.0</ele><time>2026-04-19T08:21:18.634Z</time></trkpt><trkpt lat="41.0107633" lon="16.4854433"><ele>337.0</ele><time>2026-04-19T08:21:19.634Z</time></trkpt><trkpt lat="41.0109633" lon="16.485605"><ele>335.0</ele><time>2026-04-19T08:21:20.634Z</time></trkpt><trkpt lat="41.01115" lon="16.4857517"><ele>335.0</ele><time>2026-04-19T08:21:21.634Z</time></trkpt><trkpt lat="41.011335" lon="16.48589"><ele>335.0</ele><time>2026-04-19T08:21:22.634Z</time></trkpt><trkpt lat="41.0115233" lon="16.4860167"><ele>335.0</ele><time>2026-04-19T08:21:23.634Z</time></trkpt><trkpt lat="41.0117133" lon="16.486125"><ele>334.33333333333337</ele><time>2026-04-19T08:21:24.634Z</time></trkpt><trkpt lat="41.01191" lon="16.4862283"><ele>333.6666666666667</ele><time>2026-04-19T08:21:25.634Z</time></trkpt><trkpt lat="41.0121133" lon="16.48634"><ele>333.0</ele><time>2026-04-19T08:21:26.634Z</time></trkpt><trkpt lat="41.0123167" lon="16.486455"><ele>331.6666666666667</ele><time>2026-04-19T08:21:27.634Z</time></trkpt><trkpt lat="41.01252" lon="16.48657"><ele>330.33333333333337</ele><time>2026-04-19T08:21:28.634Z</time></trkpt><trkpt lat="41.0127183" lon="16.4866783"><ele>329.0</ele><time>2026-04-19T08:21:29.634Z</time></trkpt><trkpt lat="41.012905" lon="16.4867817"><ele>329.0</ele><time>2026-04-19T08:21:30.634Z</time></trkpt><trkpt lat="41.0130817" lon="16.48688"><ele>329.0</ele><time>2026-04-19T08:21:31.634Z</time></trkpt><trkpt lat="41.0132483" lon="16.4869717"><ele>329.0</ele><time>2026-04-19T08:21:32.635Z</time></trkpt><trkpt lat="41.0134167" lon="16.4870567"><ele>328.6666666666667</ele><time>2026-04-19T08:21:33.634Z</time></trkpt><trkpt lat="41.0135917" lon="16.4871383"><ele>328.3333333333333</ele><time>2026-04-19T08:21:34.634Z</time></trkpt><trkpt lat="41.0137783" lon="16.487205"><ele>328.0</ele><time>2026-04-19T08:21:35.634Z</time></trkpt><trkpt lat="41.0139783" lon="16.487265"><ele>327.66666666666663</ele><time>2026-04-19T08:21:36.635Z</time></trkpt><trkpt lat="41.0141867" lon="16.4873183"><ele>327.3333333333333</ele><time>2026-04-19T08:21:37.634Z</time></trkpt><trkpt lat="41.0144033" lon="16.4873767"><ele>327.0</ele><time>2026-04-19T08:21:38.634Z</time></trkpt><trkpt lat="41.0146267" lon="16.4874333"><ele>327.0</ele><time>2026-04-19T08:21:39.635Z</time></trkpt><trkpt lat="41.0148567" lon="16.4874867"><ele>327.0</ele><time>2026-04-19T08:21:40.633Z</time></trkpt><trkpt lat="41.0150883" lon="16.4875383"><ele>327.0</ele><time>2026-04-19T08:21:41.634Z</time></trkpt><trkpt lat="41.015315" lon="16.4875917"><ele>327.0</ele><time>2026-04-19T08:21:42.634Z</time></trkpt><trkpt lat="41.015525" lon="16.487645"><ele>327.0</ele><time>2026-04-19T08:21:43.634Z</time></trkpt><trkpt lat="41.015715" lon="16.4877067"><ele>328.0</ele><time>2026-04-19T08:21:44.635Z</time></trkpt><trkpt lat="41.0159067" lon="16.4877817"><ele>329.0</ele><time>2026-04-19T08:21:45.634Z</time></trkpt><trkpt lat="41.016105" lon="16.4878733"><ele>330.0</ele><time>2026-04-19T08:21:46.634Z</time></trkpt><trkpt lat="41.016305" lon="16.4879783"><ele>330.0</ele><time>2026-04-19T08:21:47.635Z</time></trkpt><trkpt lat="41.016505" lon="16.4881"><ele>330.0</ele><time>2026-04-19T08:21:48.634Z</time></trkpt><trkpt lat="41.0167083" lon="16.48824"><ele>330.0</ele><time>2026-04-19T08:21:49.634Z</time></trkpt><trkpt lat="41.0169183" lon="16.488395"><ele>330.0</ele><time>2026-04-19T08:21:50.634Z</time></trkpt><trkpt lat="41.0171283" lon="16.4885517"><ele>330.0</ele><time>2026-04-19T08:21:51.634Z</time></trkpt><trkpt lat="41.0173267" lon="16.488695"><ele>329.3333333333333</ele><time>2026-04-19T08:21:52.634Z</time></trkpt><trkpt lat="41.0175233" lon="16.4888317"><ele>328.66666666666663</ele><time>2026-04-19T08:21:53.635Z</time></trkpt><trkpt lat="41.017725" lon="16.488965"><ele>328.0</ele><time>2026-04-19T08:21:54.634Z</time></trkpt><trkpt lat="41.0179333" lon="16.4890967"><ele>328.0</ele><time>2026-04-19T08:21:55.634Z</time></trkpt><trkpt lat="41.01814" lon="16.4892267"><ele>328.0</ele><time>2026-04-19T08:21:56.634Z</time></trkpt><trkpt lat="41.0183483" lon="16.4893517"><ele>327.66666666666663</ele><time>2026-04-19T08:21:57.634Z</time></trkpt><trkpt lat="41.0185483" lon="16.4894717"><ele>327.3333333333333</ele><time>2026-04-19T08:21:58.634Z</time></trkpt><trkpt lat="41.0187367" lon="16.4895833"><ele>327.0</ele><time>2026-04-19T08:21:59.634Z</time></trkpt><trkpt lat="41.0189117" lon="16.4896733"><ele>326.3333333333333</ele><time>2026-04-19T08:22:00.634Z</time></trkpt><trkpt lat="41.0190933" lon="16.4897417"><ele>325.66666666666663</ele><time>2026-04-19T08:22:01.634Z</time></trkpt><trkpt lat="41.0192883" lon="16.4897917"><ele>325.0</ele><time>2026-04-19T08:22:02.634Z</time></trkpt><trkpt lat="41.0195" lon="16.4898383"><ele>324.66666666666663</ele><time>2026-04-19T08:22:03.634Z</time></trkpt><trkpt lat="41.0197167" lon="16.4898983"><ele>324.3333333333333</ele><time>2026-04-19T08:22:04.634Z</time></trkpt><trkpt lat="41.0199333" lon="16.48997"><ele>324.0</ele><time>2026-04-19T08:22:05.634Z</time></trkpt><trkpt lat="41.0201367" lon="16.4900367"><ele>323.3333333333333</ele><time>2026-04-19T08:22:06.634Z</time></trkpt><trkpt lat="41.02033" lon="16.49011"><ele>322.66666666666663</ele><time>2026-04-19T08:22:07.633Z</time></trkpt><trkpt lat="41.0205267" lon="16.4901883"><ele>322.0</ele><time>2026-04-19T08:22:08.634Z</time></trkpt><trkpt lat="41.0207317" lon="16.4902833"><ele>320.5</ele><time>2026-04-19T08:22:09.634Z</time></trkpt><trkpt lat="41.0209433" lon="16.4904083"><ele>319.0</ele><time>2026-04-19T08:22:10.634Z</time></trkpt><trkpt lat="41.02116" lon="16.49056"><ele>319.0</ele><time>2026-04-19T08:22:11.635Z</time></trkpt><trkpt lat="41.02138" lon="16.4907317"><ele>319.0</ele><time>2026-04-19T08:22:12.634Z</time></trkpt><trkpt lat="41.0215917" lon="16.4909133"><ele>317.5</ele><time>2026-04-19T08:22:13.64Z</time></trkpt><trkpt lat="41.0217883" lon="16.4910917"><ele>316.0</ele><time>2026-04-19T08:22:14.634Z</time></trkpt><trkpt lat="41.0219667" lon="16.491275"><ele>315.66666666666663</ele><time>2026-04-19T08:22:15.634Z</time></trkpt><trkpt lat="41.02213" lon="16.4914633"><ele>315.3333333333333</ele><time>2026-04-19T08:22:16.634Z</time></trkpt><trkpt lat="41.0223033" lon="16.49166"><ele>315.0</ele><time>2026-04-19T08:22:17.633Z</time></trkpt><trkpt lat="41.022465" lon="16.491845"><ele>315.0</ele><time>2026-04-19T08:22:18.634Z</time></trkpt><trkpt lat="41.022605" lon="16.492025"><ele>315.0</ele><time>2026-04-19T08:22:19.634Z</time></trkpt><trkpt lat="41.0227367" lon="16.4922033"><ele>315.0</ele><time>2026-04-19T08:22:20.635Z</time></trkpt><trkpt lat="41.0228433" lon="16.4923433"><ele>315.0</ele><time>2026-04-19T08:22:21.634Z</time></trkpt><trkpt lat="41.02294" lon="16.49247"><ele>315.0</ele><time>2026-04-19T08:22:22.634Z</time></trkpt><trkpt lat="41.0230283" lon="16.4925833"><ele>315.0</ele><time>2026-04-19T08:22:23.634Z</time></trkpt><trkpt lat="41.0231117" lon="16.4926967"><ele>315.0</ele><time>2026-04-19T08:22:24.634Z</time></trkpt><trkpt lat="41.0231867" lon="16.4927983"><ele>315.0</ele><time>2026-04-19T08:22:25.634Z</time></trkpt><trkpt lat="41.02326" lon="16.492885"><ele>315.0</ele><time>2026-04-19T08:22:26.634Z</time></trkpt><trkpt lat="41.0233333" lon="16.4929583"><ele>315.0</ele><time>2026-04-19T08:22:27.634Z</time></trkpt><trkpt lat="41.0234" lon="16.4930267"><ele>315.0</ele><time>2026-04-19T08:22:28.634Z</time></trkpt><trkpt lat="41.0234683" lon="16.4931017"><ele>315.0</ele><time>2026-04-19T08:22:29.634Z</time></trkpt><trkpt lat="41.02354" lon="16.4931783"><ele>316.0</ele><time>2026-04-19T08:22:30.634Z</time></trkpt><trkpt lat="41.0236033" lon="16.4932517"><ele>317.0</ele><time>2026-04-19T08:22:31.634Z</time></trkpt><trkpt lat="41.0236617" lon="16.4933183"><ele>318.0</ele><time>2026-04-19T08:22:32.634Z</time></trkpt><trkpt lat="41.0237183" lon="16.493375"><ele>319.0</ele><time>2026-04-19T08:22:33.634Z</time></trkpt><trkpt lat="41.0238217" lon="16.4934767"><ele>320.0</ele><time>2026-04-19T08:22:35.634Z</time></trkpt><trkpt lat="41.02388" lon="16.493535"><ele>321.0</ele><time>2026-04-19T08:22:36.633Z</time></trkpt><trkpt lat="41.0239483" lon="16.4936083"><ele>321.0</ele><time>2026-04-19T08:22:37.634Z</time></trkpt><trkpt lat="41.0240217" lon="16.49369"><ele>321.0</ele><time>2026-04-19T08:22:38.634Z</time></trkpt><trkpt lat="41.0241067" lon="16.493785"><ele>321.0</ele><time>2026-04-19T08:22:39.634Z</time></trkpt><trkpt lat="41.0242067" lon="16.4939"><ele>321.0</ele><time>2026-04-19T08:22:40.634Z</time></trkpt><trkpt lat="41.02432" lon="16.494025"><ele>320.6666666666667</ele><time>2026-04-19T08:22:41.633Z</time></trkpt><trkpt lat="41.024445" lon="16.4941617"><ele>320.33333333333337</ele><time>2026-04-19T08:22:42.633Z</time></trkpt><trkpt lat="41.02458" lon="16.4943133"><ele>320.0</ele><time>2026-04-19T08:22:43.634Z</time></trkpt><trkpt lat="41.0247233" lon="16.494475"><ele>319.6666666666667</ele><time>2026-04-19T08:22:44.634Z</time></trkpt><trkpt lat="41.0248717" lon="16.4946367"><ele>319.3333333333333</ele><time>2026-04-19T08:22:45.634Z</time></trkpt><trkpt lat="41.02502" lon="16.4947983"><ele>319.0</ele><time>2026-04-19T08:22:46.634Z</time></trkpt><trkpt lat="41.02516" lon="16.494955"><ele>318.0</ele><time>2026-04-19T08:22:47.634Z</time></trkpt><trkpt lat="41.0252933" lon="16.495115"><ele>317.0</ele><time>2026-04-19T08:22:48.635Z</time></trkpt><trkpt lat="41.02542" lon="16.4952617"><ele>316.0</ele><time>2026-04-19T08:22:49.638Z</time></trkpt><trkpt lat="41.0255517" lon="16.4953833"><ele>315.0</ele><time>2026-04-19T08:22:50.636Z</time></trkpt><trkpt lat="41.025685" lon="16.4954883"><ele>314.0</ele><time>2026-04-19T08:22:51.635Z</time></trkpt><trkpt lat="41.0258267" lon="16.4955667"><ele>313.0</ele><time>2026-04-19T08:22:52.635Z</time></trkpt><trkpt lat="41.02598" lon="16.4956233"><ele>312.66666666666663</ele><time>2026-04-19T08:22:53.635Z</time></trkpt><trkpt lat="41.0261433" lon="16.4956567"><ele>312.3333333333333</ele><time>2026-04-19T08:22:54.634Z</time></trkpt><trkpt lat="41.0263117" lon="16.4956717"><ele>312.0</ele><time>2026-04-19T08:22:55.634Z</time></trkpt><trkpt lat="41.0264867" lon="16.49568"><ele>311.6666666666667</ele><time>2026-04-19T08:22:56.634Z</time></trkpt><trkpt lat="41.026665" lon="16.495695"><ele>311.33333333333337</ele><time>2026-04-19T08:22:57.634Z</time></trkpt><trkpt lat="41.0268433" lon="16.4957133"><ele>311.0</ele><time>2026-04-19T08:22:58.634Z</time></trkpt><trkpt lat="41.0270167" lon="16.4957333"><ele>311.0</ele><time>2026-04-19T08:22:59.633Z</time></trkpt><trkpt lat="41.02718" lon="16.49575"><ele>311.0</ele><time>2026-04-19T08:23:00.634Z</time></trkpt><trkpt lat="41.0273333" lon="16.4957583"><ele>311.0</ele><time>2026-04-19T08:23:01.635Z</time></trkpt><trkpt lat="41.0274783" lon="16.4957633"><ele>311.25</ele><time>2026-04-19T08:23:02.634Z</time></trkpt><trkpt lat="41.0276183" lon="16.4957717"><ele>311.5</ele><time>2026-04-19T08:23:03.634Z</time></trkpt><trkpt lat="41.0277417" lon="16.49578"><ele>311.75</ele><time>2026-04-19T08:23:04.634Z</time></trkpt><trkpt lat="41.0278533" lon="16.4957917"><ele>312.0</ele><time>2026-04-19T08:23:05.634Z</time></trkpt><trkpt lat="41.0279483" lon="16.4958017"><ele>312.0</ele><time>2026-04-19T08:23:06.634Z</time></trkpt><trkpt lat="41.028025" lon="16.49581"><ele>312.0</ele><time>2026-04-19T08:23:07.633Z</time></trkpt><trkpt lat="41.0281183" lon="16.4958117"><ele>312.0</ele><time>2026-04-19T08:23:09.634Z</time></trkpt><trkpt lat="41.0280683" lon="16.4957583"><ele>312.0</ele><time>2026-04-19T08:23:26.634Z</time></trkpt><trkpt lat="41.0279567" lon="16.4957683"><ele>312.0</ele><time>2026-04-19T08:23:28.634Z</time></trkpt><trkpt lat="41.0278883" lon="16.4957633"><ele>312.0</ele><time>2026-04-19T08:23:29.634Z</time></trkpt><trkpt lat="41.0278117" lon="16.4957567"><ele>312.0</ele><time>2026-04-19T08:23:30.634Z</time></trkpt><trkpt lat="41.0277283" lon="16.49575"><ele>312.0</ele><time>2026-04-19T08:23:31.633Z</time></trkpt><trkpt lat="41.0276333" lon="16.49574"><ele>312.0</ele><time>2026-04-19T08:23:32.634Z</time></trkpt><trkpt lat="41.0275283" lon="16.4957317"><ele>312.0</ele><time>2026-04-19T08:23:33.634Z</time></trkpt><trkpt lat="41.027415" lon="16.4957217"><ele>312.0</ele><time>2026-04-19T08:23:34.634Z</time></trkpt><trkpt lat="41.0272917" lon="16.49571"><ele>311.75</ele><time>2026-04-19T08:23:35.634Z</time></trkpt><trkpt lat="41.02716" lon="16.495695"><ele>311.5</ele><time>2026-04-19T08:23:36.634Z</time></trkpt><trkpt lat="41.0270217" lon="16.49568"><ele>311.25</ele><time>2026-04-19T08:23:37.633Z</time></trkpt><trkpt lat="41.02688" lon="16.4956683"><ele>311.0</ele><time>2026-04-19T08:23:38.634Z</time></trkpt><trkpt lat="41.026735" lon="16.49566"><ele>311.25</ele><time>2026-04-19T08:23:39.635Z</time></trkpt><trkpt lat="41.0265967" lon="16.49565"><ele>311.5</ele><time>2026-04-19T08:23:40.633Z</time></trkpt><trkpt lat="41.0264717" lon="16.4956417"><ele>311.75</ele><time>2026-04-19T08:23:41.633Z</time></trkpt><trkpt lat="41.026355" lon="16.49563"><ele>312.0</ele><time>2026-04-19T08:23:42.633Z</time></trkpt><trkpt lat="41.0262467" lon="16.4956183"><ele>312.0</ele><time>2026-04-19T08:23:43.633Z</time></trkpt><trkpt lat="41.026145" lon="16.495605"><ele>312.0</ele><time>2026-04-19T08:23:44.634Z</time></trkpt><trkpt lat="41.02606" lon="16.4955983"><ele>312.0</ele><time>2026-04-19T08:23:45.633Z</time></trkpt><trkpt lat="41.0259933" lon="16.4955933"><ele>312.0</ele><time>2026-04-19T08:23:46.635Z</time></trkpt><trkpt lat="41.0258967" lon="16.4956133"><ele>312.0</ele><time>2026-04-19T08:23:48.634Z</time></trkpt><trkpt lat="41.025825" lon="16.49569"><ele>312.0</ele><time>2026-04-19T08:23:50.635Z</time></trkpt><trkpt lat="41.0258817" lon="16.4958067"><ele>312.0</ele><time>2026-04-19T08:23:52.637Z</time></trkpt><trkpt lat="41.0259333" lon="16.4958683"><ele>312.0</ele><time>2026-04-19T08:23:53.636Z</time></trkpt><trkpt lat="41.0259967" lon="16.4959333"><ele>312.0</ele><time>2026-04-19T08:23:54.634Z</time></trkpt><trkpt lat="41.026075" lon="16.49601"><ele>312.0</ele><time>2026-04-19T08:23:55.634Z</time></trkpt><trkpt lat="41.0261617" lon="16.496095"><ele>312.0</ele><time>2026-04-19T08:23:56.634Z</time></trkpt><trkpt lat="41.026255" lon="16.4961883"><ele>311.25</ele><time>2026-04-19T08:23:57.634Z</time></trkpt><trkpt lat="41.0263617" lon="16.4962933"><ele>310.5</ele><time>2026-04-19T08:23:58.634Z</time></trkpt><trkpt lat="41.0264767" lon="16.4964033"><ele>309.75</ele><time>2026-04-19T08:23:59.634Z</time></trkpt><trkpt lat="41.0265967" lon="16.4965233"><ele>309.0</ele><time>2026-04-19T08:24:00.634Z</time></trkpt><trkpt lat="41.026725" lon="16.4966483"><ele>308.6666666666667</ele><time>2026-04-19T08:24:01.633Z</time></trkpt><trkpt lat="41.026855" lon="16.4967767"><ele>308.33333333333337</ele><time>2026-04-19T08:24:02.635Z</time></trkpt><trkpt lat="41.0269867" lon="16.496905"><ele>308.0</ele><time>2026-04-19T08:24:03.634Z</time></trkpt><trkpt lat="41.0271167" lon="16.4970267"><ele>308.0</ele><time>2026-04-19T08:24:04.634Z</time></trkpt><trkpt lat="41.0272433" lon="16.49714"><ele>308.0</ele><time>2026-04-19T08:24:05.633Z</time></trkpt><trkpt lat="41.0273633" lon="16.4972533"><ele>308.0</ele><time>2026-04-19T08:24:06.635Z</time></trkpt><trkpt lat="41.02748" lon="16.4973733"><ele>308.0</ele><time>2026-04-19T08:24:07.634Z</time></trkpt><trkpt lat="41.0276033" lon="16.4975"><ele>308.0</ele><time>2026-04-19T08:24:08.635Z</time></trkpt><trkpt lat="41.02773" lon="16.4976317"><ele>308.0</ele><time>2026-04-19T08:24:09.634Z</time></trkpt><trkpt lat="41.027855" lon="16.49776"><ele>308.0</ele><time>2026-04-19T08:24:10.634Z</time></trkpt><trkpt lat="41.02797" lon="16.49788"><ele>308.0</ele><time>2026-04-19T08:24:11.634Z</time></trkpt><trkpt lat="41.0280733" lon="16.4979917"><ele>308.0</ele><time>2026-04-19T08:24:12.634Z</time></trkpt><trkpt lat="41.0281683" lon="16.498095"><ele>308.0</ele><time>2026-04-19T08:24:13.635Z</time></trkpt><trkpt lat="41.0282617" lon="16.4981933"><ele>308.0</ele><time>2026-04-19T08:24:14.634Z</time></trkpt><trkpt lat="41.028355" lon="16.49829"><ele>308.0</ele><time>2026-04-19T08:24:15.634Z</time></trkpt><trkpt lat="41.0284433" lon="16.4983933"><ele>308.0</ele><time>2026-04-19T08:24:16.633Z</time></trkpt><trkpt lat="41.028525" lon="16.4985133"><ele>308.0</ele><time>2026-04-19T08:24:17.634Z</time></trkpt><trkpt lat="41.0286017" lon="16.4986433"><ele>308.0</ele><time>2026-04-19T08:24:18.634Z</time></trkpt><trkpt lat="41.0286783" lon="16.4987683"><ele>307.0</ele><time>2026-04-19T08:24:19.634Z</time></trkpt><trkpt lat="41.0287633" lon="16.4988833"><ele>306.0</ele><time>2026-04-19T08:24:20.635Z</time></trkpt><trkpt lat="41.0288583" lon="16.4989983"><ele>305.0</ele><time>2026-04-19T08:24:21.634Z</time></trkpt><trkpt lat="41.02896" lon="16.49911"><ele>304.0</ele><time>2026-04-19T08:24:22.634Z</time></trkpt><trkpt lat="41.0290667" lon="16.499225"><ele>304.0</ele><time>2026-04-19T08:24:23.634Z</time></trkpt><trkpt lat="41.0291833" lon="16.49934"><ele>304.0</ele><time>2026-04-19T08:24:24.634Z</time></trkpt><trkpt lat="41.0293033" lon="16.4994567"><ele>304.0</ele><time>2026-04-19T08:24:25.634Z</time></trkpt><trkpt lat="41.02942" lon="16.4995633"><ele>304.0</ele><time>2026-04-19T08:24:26.634Z</time></trkpt><trkpt lat="41.0295317" lon="16.49965"><ele>304.0</ele><time>2026-04-19T08:24:27.634Z</time></trkpt><trkpt lat="41.0296367" lon="16.49972"><ele>304.0</ele><time>2026-04-19T08:24:28.635Z</time></trkpt><trkpt lat="41.02974" lon="16.499785"><ele>304.0</ele><time>2026-04-19T08:24:29.634Z</time></trkpt><trkpt lat="41.0298467" lon="16.499855"><ele>304.0</ele><time>2026-04-19T08:24:30.634Z</time></trkpt><trkpt lat="41.02996" lon="16.49993"><ele>304.5</ele><time>2026-04-19T08:24:31.634Z</time></trkpt><trkpt lat="41.030085" lon="16.5000033"><ele>305.0</ele><time>2026-04-19T08:24:32.634Z</time></trkpt><trkpt lat="41.03021" lon="16.500075"><ele>305.5</ele><time>2026-04-19T08:24:33.636Z</time></trkpt><trkpt lat="41.0303367" lon="16.5001483"><ele>306.0</ele><time>2026-04-19T08:24:34.634Z</time></trkpt><trkpt lat="41.0304683" lon="16.5002283"><ele>306.0</ele><time>2026-04-19T08:24:35.634Z</time></trkpt><trkpt lat="41.0305983" lon="16.50031"><ele>306.0</ele><time>2026-04-19T08:24:36.635Z</time></trkpt><trkpt lat="41.0307267" lon="16.5003917"><ele>306.0</ele><time>2026-04-19T08:24:37.633Z</time></trkpt><trkpt lat="41.0308583" lon="16.5004767"><ele>306.0</ele><time>2026-04-19T08:24:38.635Z</time></trkpt><trkpt lat="41.0309867" lon="16.5005583"><ele>304.75</ele><time>2026-04-19T08:24:39.633Z</time></trkpt><trkpt lat="41.03111" lon="16.50064"><ele>303.5</ele><time>2026-04-19T08:24:40.634Z</time></trkpt><trkpt lat="41.0312267" lon="16.5007167"><ele>302.25</ele><time>2026-04-19T08:24:41.634Z</time></trkpt><trkpt lat="41.0313333" lon="16.5007917"><ele>301.0</ele><time>2026-04-19T08:24:42.634Z</time></trkpt><trkpt lat="41.0314233" lon="16.5008583"><ele>301.0</ele><time>2026-04-19T08:24:43.634Z</time></trkpt><trkpt lat="41.0314967" lon="16.5009117"><ele>301.0</ele><time>2026-04-19T08:24:44.634Z</time></trkpt><trkpt lat="41.0315617" lon="16.5009617"><ele>301.0</ele><time>2026-04-19T08:24:45.634Z</time></trkpt><trkpt lat="41.031625" lon="16.50101"><ele>301.0</ele><time>2026-04-19T08:24:46.635Z</time></trkpt><trkpt lat="41.0316917" lon="16.5010583"><ele>301.0</ele><time>2026-04-19T08:24:47.636Z</time></trkpt><trkpt lat="41.031765" lon="16.5011067"><ele>301.0</ele><time>2026-04-19T08:24:48.635Z</time></trkpt><trkpt lat="41.0318483" lon="16.5011567"><ele>300.75</ele><time>2026-04-19T08:24:49.635Z</time></trkpt><trkpt lat="41.0319433" lon="16.5012117"><ele>300.5</ele><time>2026-04-19T08:24:50.636Z</time></trkpt><trkpt lat="41.032045" lon="16.5012683"><ele>300.25</ele><time>2026-04-19T08:24:51.634Z</time></trkpt><trkpt lat="41.0321533" lon="16.5013233"><ele>300.0</ele><time>2026-04-19T08:24:52.635Z</time></trkpt><trkpt lat="41.0322683" lon="16.501375"><ele>299.6</ele><time>2026-04-19T08:24:53.64Z</time></trkpt><trkpt lat="41.0323867" lon="16.5014217"><ele>299.2</ele><time>2026-04-19T08:24:54.634Z</time></trkpt><trkpt lat="41.0325033" lon="16.5014567"><ele>298.8</ele><time>2026-04-19T08:24:55.633Z</time></trkpt><trkpt lat="41.032605" lon="16.501485"><ele>298.4</ele><time>2026-04-19T08:24:56.634Z</time></trkpt><trkpt lat="41.0326883" lon="16.5015133"><ele>298.0</ele><time>2026-04-19T08:24:57.634Z</time></trkpt><trkpt lat="41.0327567" lon="16.5015333"><ele>297.8333333333333</ele><time>2026-04-19T08:24:58.634Z</time></trkpt><trkpt lat="41.032865" lon="16.5015167"><ele>297.66666666666663</ele><time>2026-04-19T08:25:00.635Z</time></trkpt><trkpt lat="41.03292" lon="16.501465"><ele>297.5</ele><time>2026-04-19T08:25:01.634Z</time></trkpt><trkpt lat="41.0329783" lon="16.5014067"><ele>297.3333333333333</ele><time>2026-04-19T08:25:02.635Z</time></trkpt><trkpt lat="41.03304" lon="16.5013733"><ele>297.1666666666667</ele><time>2026-04-19T08:25:03.633Z</time></trkpt><trkpt lat="41.0331133" lon="16.50137"><ele>297.0</ele><time>2026-04-19T08:25:04.636Z</time></trkpt><trkpt lat="41.033195" lon="16.501415"><ele>297.0</ele><time>2026-04-19T08:25:05.634Z</time></trkpt><trkpt lat="41.0332767" lon="16.5014833"><ele>297.0</ele><time>2026-04-19T08:25:06.633Z</time></trkpt><trkpt lat="41.0333683" lon="16.5015633"><ele>297.0</ele><time>2026-04-19T08:25:07.633Z</time></trkpt><trkpt lat="41.0334583" lon="16.5016533"><ele>297.0</ele><time>2026-04-19T08:25:08.634Z</time></trkpt><trkpt lat="41.0335467" lon="16.5017517"><ele>297.0</ele><time>2026-04-19T08:25:09.634Z</time></trkpt><trkpt lat="41.0336267" lon="16.5018567"><ele>297.0</ele><time>2026-04-19T08:25:10.633Z</time></trkpt><trkpt lat="41.0337" lon="16.501965"><ele>297.0</ele><time>2026-04-19T08:25:11.633Z</time></trkpt><trkpt lat="41.0337617" lon="16.50208"><ele>297.0</ele><time>2026-04-19T08:25:12.633Z</time></trkpt><trkpt lat="41.0338183" lon="16.5021917"><ele>297.0</ele><time>2026-04-19T08:25:13.634Z</time></trkpt><trkpt lat="41.03387" lon="16.5022933"><ele>297.0</ele><time>2026-04-19T08:25:14.635Z</time></trkpt><trkpt lat="41.0339167" lon="16.5023767"><ele>296.5</ele><time>2026-04-19T08:25:15.634Z</time></trkpt><trkpt lat="41.0340033" lon="16.5024667"><ele>296.0</ele><time>2026-04-19T08:25:17.634Z</time></trkpt><trkpt lat="41.034095" lon="16.5025367"><ele>295.5</ele><time>2026-04-19T08:25:19.635Z</time></trkpt><trkpt lat="41.0341517" lon="16.5025783"><ele>295.0</ele><time>2026-04-19T08:25:20.635Z</time></trkpt><trkpt lat="41.0342133" lon="16.5026217"><ele>294.5</ele><time>2026-04-19T08:25:21.634Z</time></trkpt><trkpt lat="41.0342717" lon="16.5026583"><ele>294.0</ele><time>2026-04-19T08:25:22.634Z</time></trkpt><trkpt lat="41.034335" lon="16.502695"><ele>293.5</ele><time>2026-04-19T08:25:23.635Z</time></trkpt><trkpt lat="41.0344067" lon="16.5027383"><ele>293.0</ele><time>2026-04-19T08:25:24.634Z</time></trkpt><trkpt lat="41.0344867" lon="16.5027883"><ele>292.5</ele><time>2026-04-19T08:25:25.634Z</time></trkpt><trkpt lat="41.03457" lon="16.502845"><ele>292.0</ele><time>2026-04-19T08:25:26.634Z</time></trkpt><trkpt lat="41.0346533" lon="16.5028967"><ele>291.5</ele><time>2026-04-19T08:25:27.633Z</time></trkpt><trkpt lat="41.0347333" lon="16.5029483"><ele>291.0</ele><time>2026-04-19T08:25:28.634Z</time></trkpt><trkpt lat="41.0348083" lon="16.502995"><ele>290.8333333333333</ele><time>2026-04-19T08:25:29.633Z</time></trkpt><trkpt lat="41.0348717" lon="16.50303"><ele>290.6666666666667</ele><time>2026-04-19T08:25:30.635Z</time></trkpt><trkpt lat="41.0349333" lon="16.50307"><ele>290.5</ele><time>2026-04-19T08:25:31.635Z</time></trkpt><trkpt lat="41.0349933" lon="16.5031133"><ele>290.33333333333337</ele><time>2026-04-19T08:25:32.634Z</time></trkpt><trkpt lat="41.0350633" lon="16.5031567"><ele>290.1666666666667</ele><time>2026-04-19T08:25:33.634Z</time></trkpt><trkpt lat="41.035145" lon="16.5032033"><ele>290.0</ele><time>2026-04-19T08:25:34.635Z</time></trkpt><trkpt lat="41.0352317" lon="16.5032583"><ele>289.25</ele><time>2026-04-19T08:25:35.633Z</time></trkpt><trkpt lat="41.0353283" lon="16.50332"><ele>288.5</ele><time>2026-04-19T08:25:36.635Z</time></trkpt><trkpt lat="41.03543" lon="16.5033867"><ele>287.75</ele><time>2026-04-19T08:25:37.634Z</time></trkpt><trkpt lat="41.0355367" lon="16.5034583"><ele>287.0</ele><time>2026-04-19T08:25:38.635Z</time></trkpt><trkpt lat="41.0356433" lon="16.50354"><ele>287.0</ele><time>2026-04-19T08:25:39.634Z</time></trkpt><trkpt lat="41.03575" lon="16.50363"><ele>287.0</ele><time>2026-04-19T08:25:40.634Z</time></trkpt><trkpt lat="41.0358567" lon="16.503725"><ele>287.0</ele><time>2026-04-19T08:25:41.634Z</time></trkpt><trkpt lat="41.0359617" lon="16.5038217"><ele>287.0</ele><time>2026-04-19T08:25:42.635Z</time></trkpt><trkpt lat="41.0360683" lon="16.50392"><ele>287.0</ele><time>2026-04-19T08:25:43.634Z</time></trkpt><trkpt lat="41.0361767" lon="16.5040217"><ele>287.0</ele><time>2026-04-19T08:25:44.635Z</time></trkpt><trkpt lat="41.0362867" lon="16.5041217"><ele>287.0</ele><time>2026-04-19T08:25:45.634Z</time></trkpt><trkpt lat="41.0363967" lon="16.5042233"><ele>287.0</ele><time>2026-04-19T08:25:46.634Z</time></trkpt><trkpt lat="41.0365067" lon="16.5043233"><ele>287.0</ele><time>2026-04-19T08:25:47.635Z</time></trkpt><trkpt lat="41.0366083" lon="16.5044133"><ele>287.0</ele><time>2026-04-19T08:25:48.634Z</time></trkpt><trkpt lat="41.0367033" lon="16.5044917"><ele>287.0</ele><time>2026-04-19T08:25:49.635Z</time></trkpt><trkpt lat="41.0367917" lon="16.504565"><ele>287.0</ele><time>2026-04-19T08:25:50.635Z</time></trkpt><trkpt lat="41.0368767" lon="16.5046433"><ele>287.0</ele><time>2026-04-19T08:25:51.635Z</time></trkpt><trkpt lat="41.03696" lon="16.5047267"><ele>288.1666666666667</ele><time>2026-04-19T08:25:52.634Z</time></trkpt><trkpt lat="41.037035" lon="16.5048"><ele>289.33333333333337</ele><time>2026-04-19T08:25:53.633Z</time></trkpt><trkpt lat="41.0371" lon="16.504855"><ele>290.5</ele><time>2026-04-19T08:25:54.633Z</time></trkpt><trkpt lat="41.0371633" lon="16.504895"><ele>291.6666666666667</ele><time>2026-04-19T08:25:55.635Z</time></trkpt><trkpt lat="41.0372283" lon="16.5049433"><ele>292.8333333333333</ele><time>2026-04-19T08:25:56.634Z</time></trkpt><trkpt lat="41.0373017" lon="16.5050033"><ele>294.0</ele><time>2026-04-19T08:25:57.634Z</time></trkpt><trkpt lat="41.0373733" lon="16.5050683"><ele>294.0</ele><time>2026-04-19T08:25:58.634Z</time></trkpt><trkpt lat="41.0374417" lon="16.5051317"><ele>294.0</ele><time>2026-04-19T08:25:59.633Z</time></trkpt><trkpt lat="41.0375083" lon="16.505195"><ele>294.0</ele><time>2026-04-19T08:26:00.633Z</time></trkpt><trkpt lat="41.03758" lon="16.5052667"><ele>294.0</ele><time>2026-04-19T08:26:01.634Z</time></trkpt><trkpt lat="41.037665" lon="16.50534"><ele>294.0</ele><time>2026-04-19T08:26:02.634Z</time></trkpt><trkpt lat="41.037755" lon="16.5054183"><ele>295.2</ele><time>2026-04-19T08:26:03.633Z</time></trkpt><trkpt lat="41.0378383" lon="16.505495"><ele>296.4</ele><time>2026-04-19T08:26:04.634Z</time></trkpt><trkpt lat="41.0379217" lon="16.5055683"><ele>297.6</ele><time>2026-04-19T08:26:05.634Z</time></trkpt><trkpt lat="41.0380083" lon="16.505645"><ele>298.8</ele><time>2026-04-19T08:26:06.634Z</time></trkpt><trkpt lat="41.0380917" lon="16.5057233"><ele>300.0</ele><time>2026-04-19T08:26:07.633Z</time></trkpt><trkpt lat="41.03817" lon="16.505795"><ele>300.0</ele><time>2026-04-19T08:26:08.634Z</time></trkpt><trkpt lat="41.038245" lon="16.5058567"><ele>300.0</ele><time>2026-04-19T08:26:09.634Z</time></trkpt><trkpt lat="41.0383133" lon="16.5059067"><ele>300.0</ele><time>2026-04-19T08:26:10.634Z</time></trkpt><trkpt lat="41.0383867" lon="16.505945"><ele>300.0</ele><time>2026-04-19T08:26:11.634Z</time></trkpt><trkpt lat="41.0384733" lon="16.5059867"><ele>300.0</ele><time>2026-04-19T08:26:12.633Z</time></trkpt><trkpt lat="41.0385733" lon="16.50603"><ele>300.0</ele><time>2026-04-19T08:26:13.634Z</time></trkpt><trkpt lat="41.0386783" lon="16.5060783"><ele>300.0</ele><time>2026-04-19T08:26:14.635Z</time></trkpt><trkpt lat="41.03879" lon="16.5061233"><ele>300.0</ele><time>2026-04-19T08:26:15.633Z</time></trkpt><trkpt lat="41.038905" lon="16.5061733"><ele>300.0</ele><time>2026-04-19T08:26:16.633Z</time></trkpt><trkpt lat="41.0390233" lon="16.5062283"><ele>300.0</ele><time>2026-04-19T08:26:17.634Z</time></trkpt><trkpt lat="41.039135" lon="16.506285"><ele>300.0</ele><time>2026-04-19T08:26:18.634Z</time></trkpt><trkpt lat="41.0392417" lon="16.5063333"><ele>300.0</ele><time>2026-04-19T08:26:19.634Z</time></trkpt><trkpt lat="41.0393383" lon="16.5063733"><ele>300.0</ele><time>2026-04-19T08:26:20.634Z</time></trkpt><trkpt lat="41.03943" lon="16.5064167"><ele>300.0</ele><time>2026-04-19T08:26:21.636Z</time></trkpt><trkpt lat="41.03951" lon="16.5064683"><ele>300.0</ele><time>2026-04-19T08:26:22.633Z</time></trkpt><trkpt lat="41.0395917" lon="16.5065317"><ele>300.0</ele><time>2026-04-19T08:26:23.634Z</time></trkpt><trkpt lat="41.03968" lon="16.5066167"><ele>300.0</ele><time>2026-04-19T08:26:24.635Z</time></trkpt><trkpt lat="41.039775" lon="16.5067117"><ele>300.0</ele><time>2026-04-19T08:26:25.633Z</time></trkpt><trkpt lat="41.03988" lon="16.506815"><ele>300.0</ele><time>2026-04-19T08:26:26.634Z</time></trkpt><trkpt lat="41.0399883" lon="16.5069267"><ele>300.0</ele><time>2026-04-19T08:26:27.634Z</time></trkpt><trkpt lat="41.040105" lon="16.5070433"><ele>300.0</ele><time>2026-04-19T08:26:28.634Z</time></trkpt><trkpt lat="41.0402317" lon="16.5071667"><ele>300.0</ele><time>2026-04-19T08:26:29.634Z</time></trkpt><trkpt lat="41.0403567" lon="16.5072917"><ele>300.0</ele><time>2026-04-19T08:26:30.634Z</time></trkpt><trkpt lat="41.0404767" lon="16.50741"><ele>300.0</ele><time>2026-04-19T08:26:31.635Z</time></trkpt><trkpt lat="41.0405917" lon="16.5075217"><ele>300.0</ele><time>2026-04-19T08:26:32.635Z</time></trkpt><trkpt lat="41.0407133" lon="16.5076333"><ele>300.0</ele><time>2026-04-19T08:26:33.634Z</time></trkpt><trkpt lat="41.04083" lon="16.5077467"><ele>299.0</ele><time>2026-04-19T08:26:34.634Z</time></trkpt><trkpt lat="41.0409467" lon="16.5078583"><ele>298.0</ele><time>2026-04-19T08:26:35.634Z</time></trkpt><trkpt lat="41.0410667" lon="16.507965"><ele>297.0</ele><time>2026-04-19T08:26:36.633Z</time></trkpt><trkpt lat="41.041185" lon="16.50807"><ele>296.0</ele><time>2026-04-19T08:26:37.634Z</time></trkpt><trkpt lat="41.0412917" lon="16.5081733"><ele>295.5</ele><time>2026-04-19T08:26:38.634Z</time></trkpt><trkpt lat="41.0413933" lon="16.508275"><ele>295.0</ele><time>2026-04-19T08:26:39.634Z</time></trkpt><trkpt lat="41.0414983" lon="16.508375"><ele>294.5</ele><time>2026-04-19T08:26:40.634Z</time></trkpt><trkpt lat="41.0416033" lon="16.5084783"><ele>294.0</ele><time>2026-04-19T08:26:41.634Z</time></trkpt><trkpt lat="41.0417017" lon="16.508585"><ele>293.75</ele><time>2026-04-19T08:26:42.635Z</time></trkpt><trkpt lat="41.0418" lon="16.508695"><ele>293.5</ele><time>2026-04-19T08:26:43.633Z</time></trkpt><trkpt lat="41.0418967" lon="16.5088033"><ele>293.25</ele><time>2026-04-19T08:26:44.635Z</time></trkpt><trkpt lat="41.0419917" lon="16.508895"><ele>293.0</ele><time>2026-04-19T08:26:45.634Z</time></trkpt><trkpt lat="41.0420867" lon="16.508975"><ele>293.0</ele><time>2026-04-19T08:26:46.634Z</time></trkpt><trkpt lat="41.0421783" lon="16.5090417"><ele>293.0</ele><time>2026-04-19T08:26:47.634Z</time></trkpt><trkpt lat="41.0422667" lon="16.5091"><ele>293.0</ele><time>2026-04-19T08:26:48.635Z</time></trkpt><trkpt lat="41.0423567" lon="16.5091533"><ele>293.0</ele><time>2026-04-19T08:26:49.634Z</time></trkpt><trkpt lat="41.0424517" lon="16.5092067"><ele>293.0</ele><time>2026-04-19T08:26:50.635Z</time></trkpt><trkpt lat="41.04256" lon="16.50926"><ele>292.4</ele><time>2026-04-19T08:26:51.633Z</time></trkpt><trkpt lat="41.0426717" lon="16.50931"><ele>291.8</ele><time>2026-04-19T08:26:52.634Z</time></trkpt><trkpt lat="41.04278" lon="16.5093583"><ele>291.2</ele><time>2026-04-19T08:26:53.634Z</time></trkpt><trkpt lat="41.0428783" lon="16.5093917"><ele>290.6</ele><time>2026-04-19T08:26:54.634Z</time></trkpt><trkpt lat="41.042975" lon="16.5094183"><ele>290.0</ele><time>2026-04-19T08:26:55.633Z</time></trkpt><trkpt lat="41.0430783" lon="16.5094233"><ele>290.0</ele><time>2026-04-19T08:26:56.634Z</time></trkpt><trkpt lat="41.04318" lon="16.50942"><ele>290.0</ele><time>2026-04-19T08:26:57.633Z</time></trkpt><trkpt lat="41.0432733" lon="16.5094167"><ele>290.0</ele><time>2026-04-19T08:26:58.635Z</time></trkpt><trkpt lat="41.0433533" lon="16.509425"><ele>290.0</ele><time>2026-04-19T08:26:59.634Z</time></trkpt><trkpt lat="41.0434183" lon="16.5094483"><ele>290.0</ele><time>2026-04-19T08:27:00.633Z</time></trkpt><trkpt lat="41.0435067" lon="16.5095517"><ele>289.6</ele><time>2026-04-19T08:27:02.634Z</time></trkpt><trkpt lat="41.0435783" lon="16.5096567"><ele>289.2</ele><time>2026-04-19T08:27:04.634Z</time></trkpt><trkpt lat="41.043675" lon="16.5097267"><ele>288.8</ele><time>2026-04-19T08:27:06.633Z</time></trkpt><trkpt lat="41.0437433" lon="16.5097533"><ele>288.4</ele><time>2026-04-19T08:27:07.634Z</time></trkpt><trkpt lat="41.0438267" lon="16.509785"><ele>288.0</ele><time>2026-04-19T08:27:08.634Z</time></trkpt><trkpt lat="41.043915" lon="16.5098117"><ele>288.0</ele><time>2026-04-19T08:27:09.634Z</time></trkpt><trkpt lat="41.0440117" lon="16.50983"><ele>288.0</ele><time>2026-04-19T08:27:10.634Z</time></trkpt><trkpt lat="41.04411" lon="16.509845"><ele>288.0</ele><time>2026-04-19T08:27:11.634Z</time></trkpt><trkpt lat="41.0442" lon="16.5098617"><ele>288.0</ele><time>2026-04-19T08:27:12.635Z</time></trkpt><trkpt lat="41.044275" lon="16.5098767"><ele>288.0</ele><time>2026-04-19T08:27:13.634Z</time></trkpt><trkpt lat="41.0443383" lon="16.5098917"><ele>288.0</ele><time>2026-04-19T08:27:14.635Z</time></trkpt><trkpt lat="41.0443983" lon="16.5099183"><ele>287.8333333333333</ele><time>2026-04-19T08:27:15.634Z</time></trkpt><trkpt lat="41.0444967" lon="16.5099967"><ele>287.6666666666667</ele><time>2026-04-19T08:27:17.634Z</time></trkpt><trkpt lat="41.0445983" lon="16.5100583"><ele>287.5</ele><time>2026-04-19T08:27:19.636Z</time></trkpt><trkpt lat="41.044655" lon="16.5100967"><ele>287.33333333333337</ele><time>2026-04-19T08:27:20.636Z</time></trkpt><trkpt lat="41.0447117" lon="16.510145"><ele>287.1666666666667</ele><time>2026-04-19T08:27:21.635Z</time></trkpt><trkpt lat="41.044775" lon="16.5102017"><ele>287.0</ele><time>2026-04-19T08:27:22.635Z</time></trkpt><trkpt lat="41.04487" lon="16.510275"><ele>287.0</ele><time>2026-04-19T08:27:24.636Z</time></trkpt><trkpt lat="41.04497" lon="16.510315"><ele>287.0</ele><time>2026-04-19T08:27:26.638Z</time></trkpt><trkpt lat="41.04507" lon="16.510375"><ele>287.0</ele><time>2026-04-19T08:27:28.635Z</time></trkpt><trkpt lat="41.04519" lon="16.5104333"><ele>287.0</ele><time>2026-04-19T08:27:30.633Z</time></trkpt><trkpt lat="41.0452683" lon="16.51045"><ele>287.0</ele><time>2026-04-19T08:27:31.636Z</time></trkpt><trkpt lat="41.04535" lon="16.510475"><ele>287.33333333333337</ele><time>2026-04-19T08:27:32.635Z</time></trkpt><trkpt lat="41.04543" lon="16.5105"><ele>287.6666666666667</ele><time>2026-04-19T08:27:33.634Z</time></trkpt><trkpt lat="41.0455067" lon="16.51053"><ele>288.0</ele><time>2026-04-19T08:27:34.634Z</time></trkpt><trkpt lat="41.045585" lon="16.51057"><ele>288.3333333333333</ele><time>2026-04-19T08:27:35.633Z</time></trkpt><trkpt lat="41.04567" lon="16.51062"><ele>288.66666666666663</ele><time>2026-04-19T08:27:36.634Z</time></trkpt><trkpt lat="41.04576" lon="16.5106717"><ele>289.0</ele><time>2026-04-19T08:27:37.634Z</time></trkpt><trkpt lat="41.0458433" lon="16.5107283"><ele>288.3333333333333</ele><time>2026-04-19T08:27:38.635Z</time></trkpt><trkpt lat="41.0459167" lon="16.510785"><ele>287.66666666666663</ele><time>2026-04-19T08:27:39.633Z</time></trkpt><trkpt lat="41.0459717" lon="16.51084"><ele>287.0</ele><time>2026-04-19T08:27:40.634Z</time></trkpt><trkpt lat="41.0460717" lon="16.5109367"><ele>286.3333333333333</ele><time>2026-04-19T08:27:42.634Z</time></trkpt><trkpt lat="41.0461267" lon="16.5109967"><ele>285.6666666666667</ele><time>2026-04-19T08:27:43.634Z</time></trkpt><trkpt lat="41.0461917" lon="16.5110617"><ele>285.0</ele><time>2026-04-19T08:27:44.634Z</time></trkpt><trkpt lat="41.0462583" lon="16.5111383"><ele>285.0</ele><time>2026-04-19T08:27:45.634Z</time></trkpt><trkpt lat="41.046325" lon="16.5112267"><ele>285.0</ele><time>2026-04-19T08:27:46.633Z</time></trkpt><trkpt lat="41.0463817" lon="16.5113167"><ele>285.0</ele><time>2026-04-19T08:27:47.633Z</time></trkpt><trkpt lat="41.0464333" lon="16.51139"><ele>285.0</ele><time>2026-04-19T08:27:48.633Z</time></trkpt><trkpt lat="41.04648" lon="16.5114733"><ele>285.0</ele><time>2026-04-19T08:27:50.635Z</time></trkpt><trkpt lat="41.0465467" lon="16.5115617"><ele>285.0</ele><time>2026-04-19T08:27:53.634Z</time></trkpt><trkpt lat="41.0466083" lon="16.5116567"><ele>285.0</ele><time>2026-04-19T08:27:55.638Z</time></trkpt><trkpt lat="41.04665" lon="16.5117333"><ele>285.0</ele><time>2026-04-19T08:27:56.636Z</time></trkpt><trkpt lat="41.0466883" lon="16.5118217"><ele>285.0</ele><time>2026-04-19T08:27:57.634Z</time></trkpt><trkpt lat="41.04673" lon="16.511925"><ele>285.0</ele><time>2026-04-19T08:27:58.634Z</time></trkpt><trkpt lat="41.0467717" lon="16.512035"><ele>285.0</ele><time>2026-04-19T08:27:59.633Z</time></trkpt><trkpt lat="41.0468067" lon="16.51214"><ele>285.0</ele><time>2026-04-19T08:28:00.633Z</time></trkpt><trkpt lat="41.0468433" lon="16.5122433"><ele>285.0</ele><time>2026-04-19T08:28:01.633Z</time></trkpt><trkpt lat="41.0468917" lon="16.5123433"><ele>285.0</ele><time>2026-04-19T08:28:02.634Z</time></trkpt><trkpt lat="41.046955" lon="16.512445"><ele>285.0</ele><time>2026-04-19T08:28:03.633Z</time></trkpt><trkpt lat="41.0470217" lon="16.5125433"><ele>285.0</ele><time>2026-04-19T08:28:04.634Z</time></trkpt><trkpt lat="41.0470883" lon="16.5126367"><ele>285.0</ele><time>2026-04-19T08:28:05.634Z</time></trkpt><trkpt lat="41.0471517" lon="16.512725"><ele>285.0</ele><time>2026-04-19T08:28:06.635Z</time></trkpt><trkpt lat="41.04722" lon="16.5128217"><ele>285.0</ele><time>2026-04-19T08:28:07.634Z</time></trkpt><trkpt lat="41.0472817" lon="16.5129183"><ele>285.0</ele><time>2026-04-19T08:28:08.635Z</time></trkpt><trkpt lat="41.04734" lon="16.5130183"><ele>285.0</ele><time>2026-04-19T08:28:09.633Z</time></trkpt><trkpt lat="41.0473933" lon="16.5131267"><ele>285.0</ele><time>2026-04-19T08:28:10.633Z</time></trkpt><trkpt lat="41.0474467" lon="16.5132317"><ele>284.5</ele><time>2026-04-19T08:28:11.633Z</time></trkpt><trkpt lat="41.0474917" lon="16.51333"><ele>284.0</ele><time>2026-04-19T08:28:12.633Z</time></trkpt><trkpt lat="41.0475283" lon="16.5134267"><ele>283.5</ele><time>2026-04-19T08:28:13.634Z</time></trkpt><trkpt lat="41.0475683" lon="16.5134917"><ele>283.0</ele><time>2026-04-19T08:28:14.634Z</time></trkpt><trkpt lat="41.0476683" lon="16.513565"><ele>282.5</ele><time>2026-04-19T08:28:16.634Z</time></trkpt><trkpt lat="41.047745" lon="16.5135817"><ele>282.0</ele><time>2026-04-19T08:28:17.633Z</time></trkpt><trkpt lat="41.0478267" lon="16.5136033"><ele>282.0</ele><time>2026-04-19T08:28:18.633Z</time></trkpt><trkpt lat="41.0479167" lon="16.5136317"><ele>282.0</ele><time>2026-04-19T08:28:19.634Z</time></trkpt><trkpt lat="41.04802" lon="16.5136617"><ele>282.0</ele><time>2026-04-19T08:28:20.634Z</time></trkpt><trkpt lat="41.0481317" lon="16.5136833"><ele>282.0</ele><time>2026-04-19T08:28:21.634Z</time></trkpt><trkpt lat="41.0482517" lon="16.5137017"><ele>282.0</ele><time>2026-04-19T08:28:22.634Z</time></trkpt><trkpt lat="41.0483817" lon="16.513735"><ele>281.5</ele><time>2026-04-19T08:28:23.635Z</time></trkpt><trkpt lat="41.0485133" lon="16.5137783"><ele>281.0</ele><time>2026-04-19T08:28:24.635Z</time></trkpt><trkpt lat="41.048645" lon="16.5138383"><ele>280.5</ele><time>2026-04-19T08:28:25.635Z</time></trkpt><trkpt lat="41.0487667" lon="16.5139033"><ele>280.0</ele><time>2026-04-19T08:28:26.636Z</time></trkpt><trkpt lat="41.04889" lon="16.5139517"><ele>280.0</ele><time>2026-04-19T08:28:27.634Z</time></trkpt><trkpt lat="41.0490233" lon="16.5139817"><ele>280.0</ele><time>2026-04-19T08:28:28.634Z</time></trkpt><trkpt lat="41.0491683" lon="16.51401"><ele>280.0</ele><time>2026-04-19T08:28:29.634Z</time></trkpt><trkpt lat="41.049325" lon="16.5140383"><ele>280.0</ele><time>2026-04-19T08:28:30.634Z</time></trkpt><trkpt lat="41.0494867" lon="16.51406"><ele>279.5</ele><time>2026-04-19T08:28:31.634Z</time></trkpt><trkpt lat="41.049645" lon="16.5140817"><ele>279.0</ele><time>2026-04-19T08:28:32.634Z</time></trkpt><trkpt lat="41.04979" lon="16.5141117"><ele>278.5</ele><time>2026-04-19T08:28:33.634Z</time></trkpt><trkpt lat="41.0499233" lon="16.51415"><ele>278.0</ele><time>2026-04-19T08:28:34.634Z</time></trkpt><trkpt lat="41.0500417" lon="16.51419"><ele>278.0</ele><time>2026-04-19T08:28:35.633Z</time></trkpt><trkpt lat="41.050145" lon="16.514235"><ele>278.0</ele><time>2026-04-19T08:28:36.634Z</time></trkpt><trkpt lat="41.0502317" lon="16.5142783"><ele>278.0</ele><time>2026-04-19T08:28:37.634Z</time></trkpt><trkpt lat="41.0503017" lon="16.5143383"><ele>278.0</ele><time>2026-04-19T08:28:38.635Z</time></trkpt><trkpt lat="41.050365" lon="16.51443"><ele>278.0</ele><time>2026-04-19T08:28:39.634Z</time></trkpt><trkpt lat="41.050415" lon="16.5145533"><ele>277.5</ele><time>2026-04-19T08:28:40.634Z</time></trkpt><trkpt lat="41.0504817" lon="16.514675"><ele>277.0</ele><time>2026-04-19T08:28:41.635Z</time></trkpt><trkpt lat="41.0505783" lon="16.5147883"><ele>276.5</ele><time>2026-04-19T08:28:42.635Z</time></trkpt><trkpt lat="41.0507017" lon="16.5148917"><ele>276.0</ele><time>2026-04-19T08:28:43.635Z</time></trkpt><trkpt lat="41.050845" lon="16.514985"><ele>275.6666666666667</ele><time>2026-04-19T08:28:44.634Z</time></trkpt><trkpt lat="41.0509983" lon="16.5150783"><ele>275.33333333333337</ele><time>2026-04-19T08:28:45.634Z</time></trkpt><trkpt lat="41.05116" lon="16.515175"><ele>275.0</ele><time>2026-04-19T08:28:46.633Z</time></trkpt><trkpt lat="41.0513283" lon="16.515275"><ele>275.0</ele><time>2026-04-19T08:28:47.634Z</time></trkpt><trkpt lat="41.051495" lon="16.5153667"><ele>275.0</ele><time>2026-04-19T08:28:48.634Z</time></trkpt><trkpt lat="41.0516533" lon="16.5154483"><ele>275.0</ele><time>2026-04-19T08:28:49.634Z</time></trkpt><trkpt lat="41.0518" lon="16.5155233"><ele>274.75</ele><time>2026-04-19T08:28:50.638Z</time></trkpt><trkpt lat="41.0519367" lon="16.5155883"><ele>274.5</ele><time>2026-04-19T08:28:51.635Z</time></trkpt><trkpt lat="41.05206" lon="16.51565"><ele>274.25</ele><time>2026-04-19T08:28:52.637Z</time></trkpt><trkpt lat="41.05218" lon="16.5157067"><ele>274.0</ele><time>2026-04-19T08:28:53.637Z</time></trkpt><trkpt lat="41.05229" lon="16.5157717"><ele>274.0</ele><time>2026-04-19T08:28:54.636Z</time></trkpt><trkpt lat="41.052395" lon="16.5158433"><ele>274.0</ele><time>2026-04-19T08:28:55.636Z</time></trkpt><trkpt lat="41.0525" lon="16.5159283"><ele>274.0</ele><time>2026-04-19T08:28:56.636Z</time></trkpt><trkpt lat="41.0526133" lon="16.5160167"><ele>274.0</ele><time>2026-04-19T08:28:57.635Z</time></trkpt><trkpt lat="41.0527317" lon="16.5160933"><ele>274.25</ele><time>2026-04-19T08:28:58.635Z</time></trkpt><trkpt lat="41.052855" lon="16.5161567"><ele>274.5</ele><time>2026-04-19T08:28:59.634Z</time></trkpt><trkpt lat="41.0529883" lon="16.5162033"><ele>274.75</ele><time>2026-04-19T08:29:00.634Z</time></trkpt><trkpt lat="41.0531267" lon="16.516225"><ele>275.0</ele><time>2026-04-19T08:29:01.634Z</time></trkpt><trkpt lat="41.053265" lon="16.5162283"><ele>274.5</ele><time>2026-04-19T08:29:02.634Z</time></trkpt><trkpt lat="41.053395" lon="16.5162283"><ele>274.0</ele><time>2026-04-19T08:29:03.634Z</time></trkpt><trkpt lat="41.0535167" lon="16.5162317"><ele>273.5</ele><time>2026-04-19T08:29:04.634Z</time></trkpt><trkpt lat="41.05363" lon="16.5162417"><ele>273.0</ele><time>2026-04-19T08:29:05.635Z</time></trkpt><trkpt lat="41.053745" lon="16.51627"><ele>273.0</ele><time>2026-04-19T08:29:06.634Z</time></trkpt><trkpt lat="41.0538683" lon="16.51632"><ele>273.0</ele><time>2026-04-19T08:29:07.635Z</time></trkpt><trkpt lat="41.054005" lon="16.51639"><ele>273.0</ele><time>2026-04-19T08:29:08.634Z</time></trkpt><trkpt lat="41.05415" lon="16.5164733"><ele>273.0</ele><time>2026-04-19T08:29:09.633Z</time></trkpt><trkpt lat="41.0543017" lon="16.5165717"><ele>272.6666666666667</ele><time>2026-04-19T08:29:10.634Z</time></trkpt><trkpt lat="41.0544617" lon="16.51667"><ele>272.33333333333337</ele><time>2026-04-19T08:29:11.634Z</time></trkpt><trkpt lat="41.054625" lon="16.5167567"><ele>272.0</ele><time>2026-04-19T08:29:12.634Z</time></trkpt><trkpt lat="41.054775" lon="16.51683"><ele>272.0</ele><time>2026-04-19T08:29:13.634Z</time></trkpt><trkpt lat="41.0549083" lon="16.51689"><ele>272.0</ele><time>2026-04-19T08:29:14.634Z</time></trkpt><trkpt lat="41.0550383" lon="16.5169317"><ele>272.0</ele><time>2026-04-19T08:29:15.634Z</time></trkpt><trkpt lat="41.055165" lon="16.5169533"><ele>272.0</ele><time>2026-04-19T08:29:16.635Z</time></trkpt><trkpt lat="41.05529" lon="16.516955"><ele>271.8</ele><time>2026-04-19T08:29:17.635Z</time></trkpt><trkpt lat="41.055405" lon="16.5169467"><ele>271.6</ele><time>2026-04-19T08:29:18.636Z</time></trkpt><trkpt lat="41.0555117" lon="16.5169417"><ele>271.40000000000003</ele><time>2026-04-19T08:29:19.636Z</time></trkpt><trkpt lat="41.055615" lon="16.5169683"><ele>271.2</ele><time>2026-04-19T08:29:20.636Z</time></trkpt><trkpt lat="41.055715" lon="16.5170267"><ele>271.0</ele><time>2026-04-19T08:29:21.636Z</time></trkpt><trkpt lat="41.055815" lon="16.517115"><ele>270.75</ele><time>2026-04-19T08:29:22.635Z</time></trkpt><trkpt lat="41.0559183" lon="16.5172217"><ele>270.5</ele><time>2026-04-19T08:29:23.637Z</time></trkpt><trkpt lat="41.0560283" lon="16.5173317"><ele>270.25</ele><time>2026-04-19T08:29:24.634Z</time></trkpt><trkpt lat="41.0561567" lon="16.5174183"><ele>270.0</ele><time>2026-04-19T08:29:25.634Z</time></trkpt><trkpt lat="41.05631" lon="16.517485"><ele>270.0</ele><time>2026-04-19T08:29:26.634Z</time></trkpt><trkpt lat="41.05648" lon="16.5175517"><ele>270.0</ele><time>2026-04-19T08:29:27.634Z</time></trkpt><trkpt lat="41.056655" lon="16.5176183"><ele>270.0</ele><time>2026-04-19T08:29:28.634Z</time></trkpt><trkpt lat="41.0568383" lon="16.5176767"><ele>269.6666666666667</ele><time>2026-04-19T08:29:29.634Z</time></trkpt><trkpt lat="41.057015" lon="16.51772"><ele>269.33333333333337</ele><time>2026-04-19T08:29:30.634Z</time></trkpt><trkpt lat="41.0571767" lon="16.51776"><ele>269.0</ele><time>2026-04-19T08:29:31.635Z</time></trkpt><trkpt lat="41.0573283" lon="16.5178017"><ele>269.0</ele><time>2026-04-19T08:29:32.635Z</time></trkpt><trkpt lat="41.0574733" lon="16.5178533"><ele>269.0</ele><time>2026-04-19T08:29:33.634Z</time></trkpt><trkpt lat="41.0576267" lon="16.51792"><ele>269.0</ele><time>2026-04-19T08:29:34.634Z</time></trkpt><trkpt lat="41.057785" lon="16.5180033"><ele>269.0</ele><time>2026-04-19T08:29:35.634Z</time></trkpt><trkpt lat="41.057955" lon="16.5180917"><ele>269.0</ele><time>2026-04-19T08:29:36.633Z</time></trkpt><trkpt lat="41.0581333" lon="16.51817"><ele>269.0</ele><time>2026-04-19T08:29:37.635Z</time></trkpt><trkpt lat="41.0583067" lon="16.5182367"><ele>268.33333333333337</ele><time>2026-04-19T08:29:38.634Z</time></trkpt><trkpt lat="41.058475" lon="16.5182983"><ele>267.6666666666667</ele><time>2026-04-19T08:29:39.634Z</time></trkpt><trkpt lat="41.05863" lon="16.5183567"><ele>267.0</ele><time>2026-04-19T08:29:40.635Z</time></trkpt><trkpt lat="41.058775" lon="16.5184117"><ele>267.0</ele><time>2026-04-19T08:29:41.634Z</time></trkpt><trkpt lat="41.0589133" lon="16.5184617"><ele>267.0</ele><time>2026-04-19T08:29:42.634Z</time></trkpt><trkpt lat="41.0590533" lon="16.5185017"><ele>267.0</ele><time>2026-04-19T08:29:43.634Z</time></trkpt><trkpt lat="41.05919" lon="16.5185383"><ele>267.0</ele><time>2026-04-19T08:29:44.634Z</time></trkpt><trkpt lat="41.05935" lon="16.518565"><ele>266.6666666666667</ele><time>2026-04-19T08:29:45.634Z</time></trkpt><trkpt lat="41.059515" lon="16.51859"><ele>266.33333333333337</ele><time>2026-04-19T08:29:46.634Z</time></trkpt><trkpt lat="41.0596883" lon="16.5186183"><ele>266.0</ele><time>2026-04-19T08:29:47.637Z</time></trkpt><trkpt lat="41.0598683" lon="16.51865"><ele>266.0</ele><time>2026-04-19T08:29:48.635Z</time></trkpt><trkpt lat="41.0600533" lon="16.5186833"><ele>266.0</ele><time>2026-04-19T08:29:49.636Z</time></trkpt><trkpt lat="41.0602467" lon="16.5187167"><ele>266.0</ele><time>2026-04-19T08:29:50.636Z</time></trkpt><trkpt lat="41.06044" lon="16.518745"><ele>266.0</ele><time>2026-04-19T08:29:51.635Z</time></trkpt><trkpt lat="41.060625" lon="16.5187733"><ele>266.0</ele><time>2026-04-19T08:29:52.635Z</time></trkpt><trkpt lat="41.0607967" lon="16.5188033"><ele>266.0</ele><time>2026-04-19T08:29:53.635Z</time></trkpt><trkpt lat="41.0609583" lon="16.51883"><ele>265.75</ele><time>2026-04-19T08:29:54.634Z</time></trkpt><trkpt lat="41.061105" lon="16.5188567"><ele>265.5</ele><time>2026-04-19T08:29:55.634Z</time></trkpt><trkpt lat="41.0612483" lon="16.51888"><ele>265.25</ele><time>2026-04-19T08:29:56.634Z</time></trkpt><trkpt lat="41.061385" lon="16.5189033"><ele>265.0</ele><time>2026-04-19T08:29:57.634Z</time></trkpt><trkpt lat="41.0615167" lon="16.5189283"><ele>264.6</ele><time>2026-04-19T08:29:58.634Z</time></trkpt><trkpt lat="41.0616383" lon="16.5189467"><ele>264.2</ele><time>2026-04-19T08:29:59.634Z</time></trkpt><trkpt lat="41.0617533" lon="16.5189633"><ele>263.8</ele><time>2026-04-19T08:30:00.634Z</time></trkpt><trkpt lat="41.0618667" lon="16.5189817"><ele>263.4</ele><time>2026-04-19T08:30:01.633Z</time></trkpt><trkpt lat="41.06196" lon="16.5189967"><ele>263.0</ele><time>2026-04-19T08:30:02.634Z</time></trkpt><trkpt lat="41.0620267" lon="16.51901"><ele>263.0</ele><time>2026-04-19T08:30:03.634Z</time></trkpt><trkpt lat="41.06209" lon="16.5190333"><ele>263.0</ele><time>2026-04-19T08:30:04.633Z</time></trkpt><trkpt lat="41.0621617" lon="16.5191317"><ele>263.0</ele><time>2026-04-19T08:30:06.634Z</time></trkpt><trkpt lat="41.0621817" lon="16.5192817"><ele>263.0</ele><time>2026-04-19T08:30:08.635Z</time></trkpt><trkpt lat="41.0622017" lon="16.5193633"><ele>263.0</ele><time>2026-04-19T08:30:09.634Z</time></trkpt><trkpt lat="41.0622383" lon="16.5194367"><ele>263.0</ele><time>2026-04-19T08:30:10.634Z</time></trkpt><trkpt lat="41.0622883" lon="16.5195017"><ele>263.0</ele><time>2026-04-19T08:30:11.634Z</time></trkpt><trkpt lat="41.062345" lon="16.5195483"><ele>263.0</ele><time>2026-04-19T08:30:12.633Z</time></trkpt><trkpt lat="41.0624067" lon="16.51959"><ele>263.0</ele><time>2026-04-19T08:30:13.634Z</time></trkpt><trkpt lat="41.0624683" lon="16.5196267"><ele>263.0</ele><time>2026-04-19T08:30:14.634Z</time></trkpt><trkpt lat="41.0625367" lon="16.5196667"><ele>263.0</ele><time>2026-04-19T08:30:15.635Z</time></trkpt><trkpt lat="41.0626167" lon="16.5197133"><ele>263.0</ele><time>2026-04-19T08:30:16.634Z</time></trkpt><trkpt lat="41.062705" lon="16.5197733"><ele>263.5</ele><time>2026-04-19T08:30:17.634Z</time></trkpt><trkpt lat="41.0628033" lon="16.5198383"><ele>264.0</ele><time>2026-04-19T08:30:18.634Z</time></trkpt><trkpt lat="41.0629083" lon="16.51991"><ele>264.5</ele><time>2026-04-19T08:30:19.633Z</time></trkpt><trkpt lat="41.0630183" lon="16.5199817"><ele>265.0</ele><time>2026-04-19T08:30:20.634Z</time></trkpt><trkpt lat="41.0631317" lon="16.5200533"><ele>265.0</ele><time>2026-04-19T08:30:21.633Z</time></trkpt><trkpt lat="41.0632533" lon="16.520125"><ele>265.0</ele><time>2026-04-19T08:30:22.633Z</time></trkpt><trkpt lat="41.0633767" lon="16.5202"><ele>265.0</ele><time>2026-04-19T08:30:23.633Z</time></trkpt><trkpt lat="41.0635017" lon="16.5202767"><ele>265.0</ele><time>2026-04-19T08:30:24.634Z</time></trkpt><trkpt lat="41.0636233" lon="16.5203567"><ele>264.5</ele><time>2026-04-19T08:30:25.634Z</time></trkpt><trkpt lat="41.06374" lon="16.5204333"><ele>264.0</ele><time>2026-04-19T08:30:26.634Z</time></trkpt><trkpt lat="41.0638483" lon="16.5205033"><ele>263.5</ele><time>2026-04-19T08:30:27.634Z</time></trkpt><trkpt lat="41.0639517" lon="16.5205683"><ele>263.0</ele><time>2026-04-19T08:30:28.633Z</time></trkpt><trkpt lat="41.06405" lon="16.520625"><ele>263.0</ele><time>2026-04-19T08:30:29.634Z</time></trkpt><trkpt lat="41.0641433" lon="16.52067"><ele>263.0</ele><time>2026-04-19T08:30:30.634Z</time></trkpt><trkpt lat="41.0642317" lon="16.520705"><ele>263.0</ele><time>2026-04-19T08:30:31.634Z</time></trkpt><trkpt lat="41.0643217" lon="16.5207367"><ele>263.0</ele><time>2026-04-19T08:30:32.636Z</time></trkpt><trkpt lat="41.0644117" lon="16.52076"><ele>263.0</ele><time>2026-04-19T08:30:33.634Z</time></trkpt><trkpt lat="41.0645033" lon="16.5207733"><ele>263.0</ele><time>2026-04-19T08:30:34.634Z</time></trkpt><trkpt lat="41.0645867" lon="16.5207767"><ele>263.0</ele><time>2026-04-19T08:30:35.635Z</time></trkpt><trkpt lat="41.0646717" lon="16.52077"><ele>263.0</ele><time>2026-04-19T08:30:36.634Z</time></trkpt><trkpt lat="41.0647667" lon="16.5207583"><ele>263.0</ele><time>2026-04-19T08:30:37.634Z</time></trkpt><trkpt lat="41.06486" lon="16.52074"><ele>263.0</ele><time>2026-04-19T08:30:38.634Z</time></trkpt><trkpt lat="41.0649517" lon="16.5207283"><ele>263.0</ele><time>2026-04-19T08:30:39.635Z</time></trkpt><trkpt lat="41.0650417" lon="16.5207283"><ele>263.0</ele><time>2026-04-19T08:30:40.634Z</time></trkpt><trkpt lat="41.065125" lon="16.5207383"><ele>263.0</ele><time>2026-04-19T08:30:41.634Z</time></trkpt><trkpt lat="41.0652017" lon="16.5207567"><ele>263.0</ele><time>2026-04-19T08:30:42.634Z</time></trkpt><trkpt lat="41.0652767" lon="16.5207883"><ele>263.0</ele><time>2026-04-19T08:30:43.634Z</time></trkpt><trkpt lat="41.0653583" lon="16.520835"><ele>263.0</ele><time>2026-04-19T08:30:44.634Z</time></trkpt><trkpt lat="41.0654417" lon="16.5208933"><ele>263.0</ele><time>2026-04-19T08:30:45.634Z</time></trkpt><trkpt lat="41.0655283" lon="16.520955"><ele>263.0</ele><time>2026-04-19T08:30:46.634Z</time></trkpt><trkpt lat="41.0656083" lon="16.521015"><ele>263.0</ele><time>2026-04-19T08:30:47.634Z</time></trkpt><trkpt lat="41.065685" lon="16.52107"><ele>263.0</ele><time>2026-04-19T08:30:48.634Z</time></trkpt><trkpt lat="41.0657533" lon="16.521125"><ele>263.0</ele><time>2026-04-19T08:30:49.634Z</time></trkpt><trkpt lat="41.0658183" lon="16.52118"><ele>263.0</ele><time>2026-04-19T08:30:50.635Z</time></trkpt><trkpt lat="41.0658867" lon="16.521235"><ele>262.4</ele><time>2026-04-19T08:30:51.634Z</time></trkpt><trkpt lat="41.0659633" lon="16.5212933"><ele>261.8</ele><time>2026-04-19T08:30:52.634Z</time></trkpt><trkpt lat="41.0660567" lon="16.5213517"><ele>261.2</ele><time>2026-04-19T08:30:53.634Z</time></trkpt><trkpt lat="41.0661667" lon="16.5214117"><ele>260.6</ele><time>2026-04-19T08:30:54.634Z</time></trkpt><trkpt lat="41.0662867" lon="16.52148"><ele>260.0</ele><time>2026-04-19T08:30:55.633Z</time></trkpt><trkpt lat="41.0664083" lon="16.521545"><ele>260.0</ele><time>2026-04-19T08:30:56.634Z</time></trkpt><trkpt lat="41.06652" lon="16.521605"><ele>260.0</ele><time>2026-04-19T08:30:57.634Z</time></trkpt><trkpt lat="41.0666267" lon="16.5216633"><ele>260.0</ele><time>2026-04-19T08:30:58.634Z</time></trkpt><trkpt lat="41.06673" lon="16.5217167"><ele>260.0</ele><time>2026-04-19T08:30:59.634Z</time></trkpt><trkpt lat="41.0668367" lon="16.5217733"><ele>259.4</ele><time>2026-04-19T08:31:00.634Z</time></trkpt><trkpt lat="41.0669417" lon="16.5218333"><ele>258.8</ele><time>2026-04-19T08:31:01.635Z</time></trkpt><trkpt lat="41.0670467" lon="16.5218933"><ele>258.2</ele><time>2026-04-19T08:31:02.637Z</time></trkpt><trkpt lat="41.067145" lon="16.5219467"><ele>257.6</ele><time>2026-04-19T08:31:03.635Z</time></trkpt><trkpt lat="41.0672433" lon="16.5219983"><ele>257.0</ele><time>2026-04-19T08:31:04.635Z</time></trkpt><trkpt lat="41.0673417" lon="16.5220467"><ele>256.8</ele><time>2026-04-19T08:31:05.636Z</time></trkpt><trkpt lat="41.0674383" lon="16.5220867"><ele>256.6</ele><time>2026-04-19T08:31:06.635Z</time></trkpt><trkpt lat="41.0675333" lon="16.5221167"><ele>256.40000000000003</ele><time>2026-04-19T08:31:07.636Z</time></trkpt><trkpt lat="41.0676267" lon="16.5221417"><ele>256.2</ele><time>2026-04-19T08:31:08.634Z</time></trkpt><trkpt lat="41.0677317" lon="16.5221567"><ele>256.0</ele><time>2026-04-19T08:31:09.634Z</time></trkpt><trkpt lat="41.067855" lon="16.522175"><ele>255.0</ele><time>2026-04-19T08:31:10.634Z</time></trkpt><trkpt lat="41.0679967" lon="16.5221917"><ele>254.0</ele><time>2026-04-19T08:31:11.634Z</time></trkpt><trkpt lat="41.06816" lon="16.522205"><ele>253.0</ele><time>2026-04-19T08:31:12.635Z</time></trkpt><trkpt lat="41.068345" lon="16.5222167"><ele>252.0</ele><time>2026-04-19T08:31:13.634Z</time></trkpt><trkpt lat="41.06854" lon="16.5222283"><ele>251.0</ele><time>2026-04-19T08:31:14.635Z</time></trkpt><trkpt lat="41.0687233" lon="16.5222383"><ele>250.0</ele><time>2026-04-19T08:31:15.635Z</time></trkpt><trkpt lat="41.0689" lon="16.5222467"><ele>250.0</ele><time>2026-04-19T08:31:16.635Z</time></trkpt><trkpt lat="41.06908" lon="16.522255"><ele>250.0</ele><time>2026-04-19T08:31:17.636Z</time></trkpt><trkpt lat="41.0692533" lon="16.5222633"><ele>250.0</ele><time>2026-04-19T08:31:18.634Z</time></trkpt><trkpt lat="41.06942" lon="16.5222717"><ele>249.25</ele><time>2026-04-19T08:31:19.634Z</time></trkpt><trkpt lat="41.069575" lon="16.5222783"><ele>248.5</ele><time>2026-04-19T08:31:20.634Z</time></trkpt><trkpt lat="41.0697183" lon="16.5222867"><ele>247.75</ele><time>2026-04-19T08:31:21.635Z</time></trkpt><trkpt lat="41.069855" lon="16.5222933"><ele>247.0</ele><time>2026-04-19T08:31:22.635Z</time></trkpt><trkpt lat="41.0699933" lon="16.5222983"><ele>246.66666666666666</ele><time>2026-04-19T08:31:23.635Z</time></trkpt><trkpt lat="41.0701433" lon="16.5223083"><ele>246.33333333333331</ele><time>2026-04-19T08:31:24.634Z</time></trkpt><trkpt lat="41.07031" lon="16.522315"><ele>246.0</ele><time>2026-04-19T08:31:25.634Z</time></trkpt><trkpt lat="41.0704917" lon="16.522325"><ele>246.0</ele><time>2026-04-19T08:31:26.634Z</time></trkpt><trkpt lat="41.0706867" lon="16.5223383"><ele>246.0</ele><time>2026-04-19T08:31:27.635Z</time></trkpt><trkpt lat="41.0708933" lon="16.5223517"><ele>246.0</ele><time>2026-04-19T08:31:28.634Z</time></trkpt><trkpt lat="41.07111" lon="16.5223683"><ele>245.5</ele><time>2026-04-19T08:31:29.636Z</time></trkpt><trkpt lat="41.0713383" lon="16.5223883"><ele>245.0</ele><time>2026-04-19T08:31:30.635Z</time></trkpt><trkpt lat="41.0715617" lon="16.5224117"><ele>244.66666666666669</ele><time>2026-04-19T08:31:31.636Z</time></trkpt><trkpt lat="41.071775" lon="16.5224333"><ele>244.33333333333331</ele><time>2026-04-19T08:31:32.636Z</time></trkpt><trkpt lat="41.071975" lon="16.52245"><ele>244.0</ele><time>2026-04-19T08:31:33.634Z</time></trkpt><trkpt lat="41.072165" lon="16.522465"><ele>244.0</ele><time>2026-04-19T08:31:34.634Z</time></trkpt><trkpt lat="41.0723517" lon="16.5224833"><ele>244.0</ele><time>2026-04-19T08:31:35.634Z</time></trkpt><trkpt lat="41.0725367" lon="16.522505"><ele>244.0</ele><time>2026-04-19T08:31:36.634Z</time></trkpt><trkpt lat="41.07272" lon="16.5225267"><ele>243.66666666666666</ele><time>2026-04-19T08:31:37.639Z</time></trkpt><trkpt lat="41.0728983" lon="16.5225483"><ele>243.33333333333331</ele><time>2026-04-19T08:31:38.634Z</time></trkpt><trkpt lat="41.07307" lon="16.5225683"><ele>243.0</ele><time>2026-04-19T08:31:39.635Z</time></trkpt><trkpt lat="41.0732383" lon="16.522595"><ele>242.33333333333331</ele><time>2026-04-19T08:31:40.636Z</time></trkpt><trkpt lat="41.0734017" lon="16.5226217"><ele>241.66666666666666</ele><time>2026-04-19T08:31:41.634Z</time></trkpt><trkpt lat="41.0735583" lon="16.5226483"><ele>241.0</ele><time>2026-04-19T08:31:42.634Z</time></trkpt><trkpt lat="41.0737067" lon="16.5226733"><ele>241.0</ele><time>2026-04-19T08:31:43.634Z</time></trkpt><trkpt lat="41.0738533" lon="16.5226983"><ele>241.0</ele><time>2026-04-19T08:31:44.635Z</time></trkpt><trkpt lat="41.074005" lon="16.522725"><ele>241.0</ele><time>2026-04-19T08:31:45.633Z</time></trkpt><trkpt lat="41.07416" lon="16.522755"><ele>241.33333333333331</ele><time>2026-04-19T08:31:46.634Z</time></trkpt><trkpt lat="41.074315" lon="16.5227883"><ele>241.66666666666669</ele><time>2026-04-19T08:31:47.634Z</time></trkpt><trkpt lat="41.07447" lon="16.52282"><ele>242.0</ele><time>2026-04-19T08:31:48.634Z</time></trkpt><trkpt lat="41.07463" lon="16.5228483"><ele>242.0</ele><time>2026-04-19T08:31:49.634Z</time></trkpt><trkpt lat="41.0747983" lon="16.522875"><ele>242.0</ele><time>2026-04-19T08:31:50.634Z</time></trkpt><trkpt lat="41.0749733" lon="16.52291"><ele>242.0</ele><time>2026-04-19T08:31:51.635Z</time></trkpt><trkpt lat="41.07516" lon="16.5229533"><ele>239.66666666666669</ele><time>2026-04-19T08:31:52.634Z</time></trkpt><trkpt lat="41.0753467" lon="16.523"><ele>237.33333333333331</ele><time>2026-04-19T08:31:53.635Z</time></trkpt><trkpt lat="41.0755283" lon="16.523045"><ele>235.0</ele><time>2026-04-19T08:31:54.634Z</time></trkpt><trkpt lat="41.0757017" lon="16.5230867"><ele>233.66666666666666</ele><time>2026-04-19T08:31:55.633Z</time></trkpt><trkpt lat="41.07587" lon="16.52313"><ele>232.33333333333331</ele><time>2026-04-19T08:31:56.634Z</time></trkpt><trkpt lat="41.0760383" lon="16.5231733"><ele>231.0</ele><time>2026-04-19T08:31:57.634Z</time></trkpt><trkpt lat="41.0762017" lon="16.52321"><ele>231.0</ele><time>2026-04-19T08:31:58.634Z</time></trkpt><trkpt lat="41.076365" lon="16.5232467"><ele>231.0</ele><time>2026-04-19T08:31:59.634Z</time></trkpt><trkpt lat="41.0765317" lon="16.5232933"><ele>231.0</ele><time>2026-04-19T08:32:00.634Z</time></trkpt><trkpt lat="41.0767067" lon="16.52335"><ele>230.0</ele><time>2026-04-19T08:32:01.636Z</time></trkpt><trkpt lat="41.0768867" lon="16.52342"><ele>229.0</ele><time>2026-04-19T08:32:02.636Z</time></trkpt><trkpt lat="41.0770717" lon="16.5235033"><ele>228.0</ele><time>2026-04-19T08:32:03.635Z</time></trkpt><trkpt lat="41.077255" lon="16.5236033"><ele>228.0</ele><time>2026-04-19T08:32:04.636Z</time></trkpt><trkpt lat="41.077435" lon="16.5237033"><ele>228.0</ele><time>2026-04-19T08:32:05.636Z</time></trkpt><trkpt lat="41.077605" lon="16.5238"><ele>228.0</ele><time>2026-04-19T08:32:06.636Z</time></trkpt><trkpt lat="41.0777733" lon="16.52389"><ele>226.33333333333331</ele><time>2026-04-19T08:32:07.636Z</time></trkpt><trkpt lat="41.0779383" lon="16.5239733"><ele>224.66666666666666</ele><time>2026-04-19T08:32:08.637Z</time></trkpt><trkpt lat="41.078105" lon="16.5240467"><ele>223.0</ele><time>2026-04-19T08:32:09.636Z</time></trkpt><trkpt lat="41.0782833" lon="16.5241217"><ele>222.66666666666666</ele><time>2026-04-19T08:32:10.636Z</time></trkpt><trkpt lat="41.07846" lon="16.524195"><ele>222.33333333333331</ele><time>2026-04-19T08:32:11.636Z</time></trkpt><trkpt lat="41.0786283" lon="16.5242617"><ele>222.0</ele><time>2026-04-19T08:32:12.635Z</time></trkpt><trkpt lat="41.07879" lon="16.5243217"><ele>222.0</ele><time>2026-04-19T08:32:13.637Z</time></trkpt><trkpt lat="41.0789367" lon="16.5243733"><ele>222.0</ele><time>2026-04-19T08:32:14.636Z</time></trkpt><trkpt lat="41.07907" lon="16.524425"><ele>222.0</ele><time>2026-04-19T08:32:15.634Z</time></trkpt><trkpt lat="41.079185" lon="16.5244767"><ele>222.0</ele><time>2026-04-19T08:32:16.634Z</time></trkpt><trkpt lat="41.07928" lon="16.52452"><ele>221.66666666666666</ele><time>2026-04-19T08:32:17.634Z</time></trkpt><trkpt lat="41.079355" lon="16.5245483"><ele>221.33333333333331</ele><time>2026-04-19T08:32:18.634Z</time></trkpt><trkpt lat="41.079435" lon="16.5245817"><ele>221.0</ele><time>2026-04-19T08:32:20.634Z</time></trkpt><trkpt lat="41.0795033" lon="16.5246"><ele>220.66666666666666</ele><time>2026-04-19T08:32:23.634Z</time></trkpt><trkpt lat="41.0796033" lon="16.524645"><ele>220.33333333333331</ele><time>2026-04-19T08:32:25.634Z</time></trkpt><trkpt lat="41.0796767" lon="16.524675"><ele>220.0</ele><time>2026-04-19T08:32:26.635Z</time></trkpt><trkpt lat="41.079765" lon="16.52471"><ele>220.0</ele><time>2026-04-19T08:32:27.634Z</time></trkpt><trkpt lat="41.079865" lon="16.5247517"><ele>220.0</ele><time>2026-04-19T08:32:28.635Z</time></trkpt><trkpt lat="41.0799733" lon="16.5247983"><ele>220.0</ele><time>2026-04-19T08:32:29.637Z</time></trkpt><trkpt lat="41.0800867" lon="16.52485"><ele>220.0</ele><time>2026-04-19T08:32:30.635Z</time></trkpt><trkpt lat="41.0802033" lon="16.5249067"><ele>219.75</ele><time>2026-04-19T08:32:31.636Z</time></trkpt><trkpt lat="41.0803283" lon="16.5249633"><ele>219.5</ele><time>2026-04-19T08:32:32.636Z</time></trkpt><trkpt lat="41.0804517" lon="16.52502"><ele>219.25</ele><time>2026-04-19T08:32:33.636Z</time></trkpt><trkpt lat="41.0805717" lon="16.5250767"><ele>219.0</ele><time>2026-04-19T08:32:34.636Z</time></trkpt><trkpt lat="41.080695" lon="16.52513"><ele>219.25</ele><time>2026-04-19T08:32:35.634Z</time></trkpt><trkpt lat="41.0808217" lon="16.5251817"><ele>219.5</ele><time>2026-04-19T08:32:36.633Z</time></trkpt><trkpt lat="41.0809383" lon="16.52523"><ele>219.75</ele><time>2026-04-19T08:32:37.634Z</time></trkpt><trkpt lat="41.0810533" lon="16.5252817"><ele>220.0</ele><time>2026-04-19T08:32:38.634Z</time></trkpt><trkpt lat="41.081175" lon="16.5253333"><ele>220.0</ele><time>2026-04-19T08:32:39.633Z</time></trkpt><trkpt lat="41.0813033" lon="16.5253833"><ele>220.0</ele><time>2026-04-19T08:32:40.634Z</time></trkpt><trkpt lat="41.08144" lon="16.525435"><ele>220.0</ele><time>2026-04-19T08:32:41.635Z</time></trkpt><trkpt lat="41.0815833" lon="16.5254783"><ele>220.0</ele><time>2026-04-19T08:32:42.634Z</time></trkpt><trkpt lat="41.0817333" lon="16.5255117"><ele>219.33333333333331</ele><time>2026-04-19T08:32:43.634Z</time></trkpt><trkpt lat="41.0818933" lon="16.525525"><ele>218.66666666666669</ele><time>2026-04-19T08:32:44.634Z</time></trkpt><trkpt lat="41.0820617" lon="16.5255217"><ele>218.0</ele><time>2026-04-19T08:32:45.634Z</time></trkpt><trkpt lat="41.0822417" lon="16.525505"><ele>218.0</ele><time>2026-04-19T08:32:46.634Z</time></trkpt><trkpt lat="41.08243" lon="16.525485"><ele>218.0</ele><time>2026-04-19T08:32:47.634Z</time></trkpt><trkpt lat="41.0826217" lon="16.525455"><ele>218.0</ele><time>2026-04-19T08:32:48.634Z</time></trkpt><trkpt lat="41.0828017" lon="16.52542"><ele>218.66666666666669</ele><time>2026-04-19T08:32:49.634Z</time></trkpt><trkpt lat="41.0829717" lon="16.5253833"><ele>219.33333333333331</ele><time>2026-04-19T08:32:50.634Z</time></trkpt><trkpt lat="41.0831383" lon="16.5253517"><ele>220.0</ele><time>2026-04-19T08:32:51.634Z</time></trkpt><trkpt lat="41.08331" lon="16.52533"><ele>220.0</ele><time>2026-04-19T08:32:52.634Z</time></trkpt><trkpt lat="41.0834917" lon="16.525315"><ele>220.0</ele><time>2026-04-19T08:32:53.635Z</time></trkpt><trkpt lat="41.0836783" lon="16.5253117"><ele>220.0</ele><time>2026-04-19T08:32:54.634Z</time></trkpt><trkpt lat="41.0838717" lon="16.5253117"><ele>220.0</ele><time>2026-04-19T08:32:55.634Z</time></trkpt><trkpt lat="41.0840583" lon="16.5253217"><ele>220.0</ele><time>2026-04-19T08:32:56.634Z</time></trkpt><trkpt lat="41.0842417" lon="16.5253417"><ele>220.0</ele><time>2026-04-19T08:32:57.634Z</time></trkpt><trkpt lat="41.0844267" lon="16.5253683"><ele>220.0</ele><time>2026-04-19T08:32:58.636Z</time></trkpt><trkpt lat="41.0846183" lon="16.5254033"><ele>220.0</ele><time>2026-04-19T08:32:59.634Z</time></trkpt><trkpt lat="41.0848017" lon="16.5254433"><ele>220.0</ele><time>2026-04-19T08:33:00.633Z</time></trkpt><trkpt lat="41.084975" lon="16.5254867"><ele>219.33333333333331</ele><time>2026-04-19T08:33:01.634Z</time></trkpt><trkpt lat="41.0851367" lon="16.5255367"><ele>218.66666666666669</ele><time>2026-04-19T08:33:02.634Z</time></trkpt><trkpt lat="41.0853" lon="16.5255883"><ele>218.0</ele><time>2026-04-19T08:33:03.634Z</time></trkpt><trkpt lat="41.0854583" lon="16.5256483"><ele>218.0</ele><time>2026-04-19T08:33:04.633Z</time></trkpt><trkpt lat="41.0856133" lon="16.5257217"><ele>218.0</ele><time>2026-04-19T08:33:05.635Z</time></trkpt><trkpt lat="41.085765" lon="16.5258067"><ele>218.0</ele><time>2026-04-19T08:33:06.634Z</time></trkpt><trkpt lat="41.0859067" lon="16.5259033"><ele>218.0</ele><time>2026-04-19T08:33:07.635Z</time></trkpt><trkpt lat="41.0860417" lon="16.5260083"><ele>218.0</ele><time>2026-04-19T08:33:08.635Z</time></trkpt><trkpt lat="41.0861733" lon="16.5261217"><ele>218.0</ele><time>2026-04-19T08:33:09.636Z</time></trkpt><trkpt lat="41.0863017" lon="16.5262483"><ele>218.33333333333334</ele><time>2026-04-19T08:33:10.636Z</time></trkpt><trkpt lat="41.0864283" lon="16.526385"><ele>218.66666666666669</ele><time>2026-04-19T08:33:11.634Z</time></trkpt><trkpt lat="41.0865467" lon="16.52652"><ele>219.0</ele><time>2026-04-19T08:33:12.634Z</time></trkpt><trkpt lat="41.086655" lon="16.5266483"><ele>219.0</ele><time>2026-04-19T08:33:13.633Z</time></trkpt><trkpt lat="41.0867467" lon="16.5267683"><ele>219.0</ele><time>2026-04-19T08:33:14.637Z</time></trkpt><trkpt lat="41.08683" lon="16.5268833"><ele>219.0</ele><time>2026-04-19T08:33:15.634Z</time></trkpt><trkpt lat="41.086915" lon="16.527005"><ele>219.0</ele><time>2026-04-19T08:33:16.633Z</time></trkpt><trkpt lat="41.0870117" lon="16.52713"><ele>219.0</ele><time>2026-04-19T08:33:17.634Z</time></trkpt><trkpt lat="41.0871183" lon="16.5272517"><ele>219.0</ele><time>2026-04-19T08:33:18.633Z</time></trkpt><trkpt lat="41.0872217" lon="16.5273667"><ele>219.0</ele><time>2026-04-19T08:33:19.634Z</time></trkpt><trkpt lat="41.08732" lon="16.527475"><ele>219.0</ele><time>2026-04-19T08:33:20.635Z</time></trkpt><trkpt lat="41.0874183" lon="16.5275833"><ele>219.75</ele><time>2026-04-19T08:33:21.634Z</time></trkpt><trkpt lat="41.0875167" lon="16.527695"><ele>220.5</ele><time>2026-04-19T08:33:22.634Z</time></trkpt><trkpt lat="41.0876133" lon="16.5278117"><ele>221.25</ele><time>2026-04-19T08:33:23.635Z</time></trkpt><trkpt lat="41.0877033" lon="16.527925"><ele>222.0</ele><time>2026-04-19T08:33:24.634Z</time></trkpt><trkpt lat="41.0877883" lon="16.5280383"><ele>222.0</ele><time>2026-04-19T08:33:25.633Z</time></trkpt><trkpt lat="41.087865" lon="16.52816"><ele>222.0</ele><time>2026-04-19T08:33:26.635Z</time></trkpt><trkpt lat="41.08795" lon="16.5282883"><ele>222.0</ele><time>2026-04-19T08:33:27.634Z</time></trkpt><trkpt lat="41.0880417" lon="16.5284083"><ele>222.0</ele><time>2026-04-19T08:33:28.634Z</time></trkpt><trkpt lat="41.0881367" lon="16.5285117"><ele>222.0</ele><time>2026-04-19T08:33:29.636Z</time></trkpt><trkpt lat="41.088235" lon="16.5285933"><ele>222.0</ele><time>2026-04-19T08:33:30.636Z</time></trkpt><trkpt lat="41.0883317" lon="16.5286617"><ele>222.0</ele><time>2026-04-19T08:33:31.636Z</time></trkpt><trkpt lat="41.0884383" lon="16.5287217"><ele>222.0</ele><time>2026-04-19T08:33:32.636Z</time></trkpt><trkpt lat="41.088555" lon="16.52878"><ele>222.25</ele><time>2026-04-19T08:33:33.634Z</time></trkpt><trkpt lat="41.0886817" lon="16.5288483"><ele>222.5</ele><time>2026-04-19T08:33:34.634Z</time></trkpt><trkpt lat="41.0888167" lon="16.528935"><ele>222.75</ele><time>2026-04-19T08:33:35.634Z</time></trkpt><trkpt lat="41.0889567" lon="16.5290433"><ele>223.0</ele><time>2026-04-19T08:33:36.634Z</time></trkpt><trkpt lat="41.0891017" lon="16.529165"><ele>221.33333333333331</ele><time>2026-04-19T08:33:37.636Z</time></trkpt><trkpt lat="41.0892517" lon="16.529285"><ele>219.66666666666669</ele><time>2026-04-19T08:33:38.635Z</time></trkpt><trkpt lat="41.0894" lon="16.5294033"><ele>218.0</ele><time>2026-04-19T08:33:39.633Z</time></trkpt><trkpt lat="41.08954" lon="16.52952"><ele>218.0</ele><time>2026-04-19T08:33:40.634Z</time></trkpt><trkpt lat="41.0896733" lon="16.52963"><ele>218.0</ele><time>2026-04-19T08:33:41.634Z</time></trkpt><trkpt lat="41.0897983" lon="16.529735"><ele>218.0</ele><time>2026-04-19T08:33:42.635Z</time></trkpt><trkpt lat="41.08992" lon="16.5298317"><ele>218.0</ele><time>2026-04-19T08:33:43.635Z</time></trkpt><trkpt lat="41.0900367" lon="16.5299217"><ele>217.5</ele><time>2026-04-19T08:33:44.637Z</time></trkpt><trkpt lat="41.0901483" lon="16.530005"><ele>217.0</ele><time>2026-04-19T08:33:45.634Z</time></trkpt><trkpt lat="41.0902567" lon="16.53009"><ele>216.5</ele><time>2026-04-19T08:33:46.634Z</time></trkpt><trkpt lat="41.090355" lon="16.5301683"><ele>216.0</ele><time>2026-04-19T08:33:47.634Z</time></trkpt><trkpt lat="41.0904367" lon="16.5302333"><ele>216.0</ele><time>2026-04-19T08:33:48.634Z</time></trkpt><trkpt lat="41.09051" lon="16.5302883"><ele>216.00000000000003</ele><time>2026-04-19T08:33:49.634Z</time></trkpt><trkpt lat="41.0905917" lon="16.5303483"><ele>216.00000000000003</ele><time>2026-04-19T08:33:50.635Z</time></trkpt><trkpt lat="41.0906767" lon="16.530425"><ele>216.0</ele><time>2026-04-19T08:33:51.633Z</time></trkpt><trkpt lat="41.0907733" lon="16.5305183"><ele>216.0</ele><time>2026-04-19T08:33:52.633Z</time></trkpt><trkpt lat="41.0908733" lon="16.53062"><ele>215.5</ele><time>2026-04-19T08:33:53.635Z</time></trkpt><trkpt lat="41.0909817" lon="16.5307233"><ele>215.0</ele><time>2026-04-19T08:33:54.633Z</time></trkpt><trkpt lat="41.0910983" lon="16.5308233"><ele>214.5</ele><time>2026-04-19T08:33:55.635Z</time></trkpt><trkpt lat="41.0912233" lon="16.530915"><ele>214.0</ele><time>2026-04-19T08:33:56.634Z</time></trkpt><trkpt lat="41.091365" lon="16.5309983"><ele>214.0</ele><time>2026-04-19T08:33:57.635Z</time></trkpt><trkpt lat="41.09152" lon="16.5310767"><ele>214.0</ele><time>2026-04-19T08:33:58.636Z</time></trkpt><trkpt lat="41.0916833" lon="16.5311483"><ele>214.0</ele><time>2026-04-19T08:33:59.634Z</time></trkpt><trkpt lat="41.0918533" lon="16.53122"><ele>213.33333333333331</ele><time>2026-04-19T08:34:00.635Z</time></trkpt><trkpt lat="41.0920217" lon="16.5312867"><ele>212.66666666666669</ele><time>2026-04-19T08:34:01.634Z</time></trkpt><trkpt lat="41.09218" lon="16.5313383"><ele>212.0</ele><time>2026-04-19T08:34:02.634Z</time></trkpt><trkpt lat="41.09232" lon="16.53137"><ele>211.83333333333334</ele><time>2026-04-19T08:34:03.634Z</time></trkpt><trkpt lat="41.0924383" lon="16.531385"><ele>211.66666666666669</ele><time>2026-04-19T08:34:04.634Z</time></trkpt><trkpt lat="41.0925367" lon="16.5313933"><ele>211.5</ele><time>2026-04-19T08:34:05.635Z</time></trkpt><trkpt lat="41.0926217" lon="16.5314033"><ele>211.33333333333331</ele><time>2026-04-19T08:34:06.634Z</time></trkpt><trkpt lat="41.0926867" lon="16.5314117"><ele>211.16666666666666</ele><time>2026-04-19T08:34:07.635Z</time></trkpt><trkpt lat="41.092755" lon="16.5314133"><ele>211.0</ele><time>2026-04-19T08:34:10.634Z</time></trkpt><trkpt lat="41.092825" lon="16.5314183"><ele>211.0</ele><time>2026-04-19T08:34:12.634Z</time></trkpt><trkpt lat="41.0929467" lon="16.5314183"><ele>211.0</ele><time>2026-04-19T08:34:14.634Z</time></trkpt><trkpt lat="41.0930183" lon="16.5314167"><ele>211.0</ele><time>2026-04-19T08:34:15.633Z</time></trkpt><trkpt lat="41.0931017" lon="16.5314217"><ele>211.0</ele><time>2026-04-19T08:34:16.634Z</time></trkpt><trkpt lat="41.09319" lon="16.5314283"><ele>211.0</ele><time>2026-04-19T08:34:17.634Z</time></trkpt><trkpt lat="41.093285" lon="16.5314383"><ele>211.60000000000002</ele><time>2026-04-19T08:34:18.634Z</time></trkpt><trkpt lat="41.0933867" lon="16.5314483"><ele>212.2</ele><time>2026-04-19T08:34:19.633Z</time></trkpt><trkpt lat="41.093495" lon="16.5314617"><ele>212.79999999999998</ele><time>2026-04-19T08:34:20.636Z</time></trkpt><trkpt lat="41.0936067" lon="16.5314767"><ele>213.39999999999998</ele><time>2026-04-19T08:34:21.634Z</time></trkpt><trkpt lat="41.09372" lon="16.5314917"><ele>214.0</ele><time>2026-04-19T08:34:22.633Z</time></trkpt><trkpt lat="41.0938417" lon="16.5315067"><ele>213.99999999999997</ele><time>2026-04-19T08:34:23.634Z</time></trkpt><trkpt lat="41.0939583" lon="16.5315233"><ele>214.0</ele><time>2026-04-19T08:34:24.634Z</time></trkpt><trkpt lat="41.0940533" lon="16.53154"><ele>214.0</ele><time>2026-04-19T08:34:25.635Z</time></trkpt><trkpt lat="41.0941233" lon="16.5315517"><ele>214.0</ele><time>2026-04-19T08:34:26.635Z</time></trkpt><trkpt lat="41.09419" lon="16.5315567"><ele>213.99999999999997</ele><time>2026-04-19T08:34:27.64Z</time></trkpt><trkpt lat="41.094265" lon="16.5315633"><ele>214.0</ele><time>2026-04-19T08:34:28.634Z</time></trkpt><trkpt lat="41.09435" lon="16.5315683"><ele>215.0</ele><time>2026-04-19T08:34:29.634Z</time></trkpt><trkpt lat="41.0944417" lon="16.5315633"><ele>216.0</ele><time>2026-04-19T08:34:30.634Z</time></trkpt><trkpt lat="41.0945517" lon="16.5315467"><ele>217.0</ele><time>2026-04-19T08:34:31.634Z</time></trkpt><trkpt lat="41.09468" lon="16.53153"><ele>218.0</ele><time>2026-04-19T08:34:32.636Z</time></trkpt><trkpt lat="41.09482" lon="16.53153"><ele>219.0</ele><time>2026-04-19T08:34:33.635Z</time></trkpt><trkpt lat="41.0949717" lon="16.531535"><ele>220.0</ele><time>2026-04-19T08:34:34.636Z</time></trkpt><trkpt lat="41.0951283" lon="16.5315417"><ele>221.0</ele><time>2026-04-19T08:34:35.637Z</time></trkpt><trkpt lat="41.0953017" lon="16.5315433"><ele>221.0</ele><time>2026-04-19T08:34:36.635Z</time></trkpt><trkpt lat="41.0954833" lon="16.5315467"><ele>221.0</ele><time>2026-04-19T08:34:37.636Z</time></trkpt><trkpt lat="41.0956583" lon="16.5315483"><ele>221.0</ele><time>2026-04-19T08:34:38.635Z</time></trkpt><trkpt lat="41.09582" lon="16.5315433"><ele>221.25</ele><time>2026-04-19T08:34:39.634Z</time></trkpt><trkpt lat="41.09597" lon="16.53154"><ele>221.5</ele><time>2026-04-19T08:34:40.634Z</time></trkpt><trkpt lat="41.0961067" lon="16.5315367"><ele>221.75</ele><time>2026-04-19T08:34:41.634Z</time></trkpt><trkpt lat="41.0962383" lon="16.53153"><ele>222.0</ele><time>2026-04-19T08:34:42.634Z</time></trkpt><trkpt lat="41.096375" lon="16.5315133"><ele>222.0</ele><time>2026-04-19T08:34:43.634Z</time></trkpt><trkpt lat="41.09651" lon="16.531485"><ele>222.0</ele><time>2026-04-19T08:34:44.635Z</time></trkpt><trkpt lat="41.0966517" lon="16.5314433"><ele>222.0</ele><time>2026-04-19T08:34:45.634Z</time></trkpt><trkpt lat="41.0968033" lon="16.5313983"><ele>222.0</ele><time>2026-04-19T08:34:46.634Z</time></trkpt><trkpt lat="41.0969517" lon="16.5313567"><ele>222.5</ele><time>2026-04-19T08:34:47.635Z</time></trkpt><trkpt lat="41.0970933" lon="16.531325"><ele>223.0</ele><time>2026-04-19T08:34:48.634Z</time></trkpt><trkpt lat="41.0972367" lon="16.5313033"><ele>223.5</ele><time>2026-04-19T08:34:49.635Z</time></trkpt><trkpt lat="41.0973817" lon="16.5312933"><ele>224.0</ele><time>2026-04-19T08:34:50.635Z</time></trkpt><trkpt lat="41.097535" lon="16.5313"><ele>224.0</ele><time>2026-04-19T08:34:51.635Z</time></trkpt><trkpt lat="41.0976917" lon="16.5313167"><ele>224.0</ele><time>2026-04-19T08:34:52.634Z</time></trkpt><trkpt lat="41.0978483" lon="16.5313367"><ele>224.0</ele><time>2026-04-19T08:34:53.635Z</time></trkpt><trkpt lat="41.098" lon="16.5313567"><ele>224.0</ele><time>2026-04-19T08:34:54.634Z</time></trkpt><trkpt lat="41.0981483" lon="16.531365"><ele>224.0</ele><time>2026-04-19T08:34:55.635Z</time></trkpt><trkpt lat="41.0983017" lon="16.5313633"><ele>224.0</ele><time>2026-04-19T08:34:56.635Z</time></trkpt><trkpt lat="41.09846" lon="16.53135"><ele>224.0</ele><time>2026-04-19T08:34:57.634Z</time></trkpt><trkpt lat="41.0986183" lon="16.5313267"><ele>224.0</ele><time>2026-04-19T08:34:58.634Z</time></trkpt><trkpt lat="41.0987733" lon="16.5312933"><ele>224.0</ele><time>2026-04-19T08:34:59.634Z</time></trkpt><trkpt lat="41.0989267" lon="16.5312617"><ele>224.0</ele><time>2026-04-19T08:35:00.633Z</time></trkpt><trkpt lat="41.09907" lon="16.5312317"><ele>224.0</ele><time>2026-04-19T08:35:01.634Z</time></trkpt><trkpt lat="41.0992033" lon="16.5312017"><ele>224.0</ele><time>2026-04-19T08:35:02.635Z</time></trkpt><trkpt lat="41.0993283" lon="16.5311733"><ele>224.0</ele><time>2026-04-19T08:35:03.634Z</time></trkpt><trkpt lat="41.0994483" lon="16.53115"><ele>224.0</ele><time>2026-04-19T08:35:04.635Z</time></trkpt><trkpt lat="41.0995667" lon="16.5311283"><ele>223.99999999999997</ele><time>2026-04-19T08:35:05.635Z</time></trkpt><trkpt lat="41.0996717" lon="16.53111"><ele>223.99999999999997</ele><time>2026-04-19T08:35:06.634Z</time></trkpt><trkpt lat="41.0997617" lon="16.5310917"><ele>224.0</ele><time>2026-04-19T08:35:07.635Z</time></trkpt><trkpt lat="41.099845" lon="16.5310817"><ele>224.0</ele><time>2026-04-19T08:35:08.635Z</time></trkpt><trkpt lat="41.099925" lon="16.5310667"><ele>224.0</ele><time>2026-04-19T08:35:09.635Z</time></trkpt><trkpt lat="41.1000017" lon="16.53105"><ele>224.0</ele><time>2026-04-19T08:35:10.634Z</time></trkpt><trkpt lat="41.1000717" lon="16.53104"><ele>224.0</ele><time>2026-04-19T08:35:11.634Z</time></trkpt><trkpt lat="41.1001383" lon="16.5310283"><ele>224.0</ele><time>2026-04-19T08:35:12.634Z</time></trkpt><trkpt lat="41.100205" lon="16.531015"><ele>224.0</ele><time>2026-04-19T08:35:13.634Z</time></trkpt><trkpt lat="41.1002783" lon="16.531005"><ele>224.0</ele><time>2026-04-19T08:35:14.635Z</time></trkpt><trkpt lat="41.100355" lon="16.5309917"><ele>224.0</ele><time>2026-04-19T08:35:15.634Z</time></trkpt><trkpt lat="41.10044" lon="16.5309783"><ele>224.00000000000003</ele><time>2026-04-19T08:35:16.634Z</time></trkpt><trkpt lat="41.100525" lon="16.5309633"><ele>224.0</ele><time>2026-04-19T08:35:17.635Z</time></trkpt><trkpt lat="41.1006033" lon="16.53095"><ele>224.0</ele><time>2026-04-19T08:35:18.635Z</time></trkpt><trkpt lat="41.1006867" lon="16.5309383"><ele>224.0</ele><time>2026-04-19T08:35:19.635Z</time></trkpt><trkpt lat="41.100775" lon="16.5309267"><ele>224.00000000000003</ele><time>2026-04-19T08:35:20.637Z</time></trkpt><trkpt lat="41.10087" lon="16.5309167"><ele>224.0</ele><time>2026-04-19T08:35:21.635Z</time></trkpt><trkpt lat="41.1009683" lon="16.5309067"><ele>223.75</ele><time>2026-04-19T08:35:22.636Z</time></trkpt><trkpt lat="41.1010733" lon="16.530905"><ele>223.5</ele><time>2026-04-19T08:35:23.636Z</time></trkpt><trkpt lat="41.1011817" lon="16.530905"><ele>223.25</ele><time>2026-04-19T08:35:24.635Z</time></trkpt><trkpt lat="41.1013017" lon="16.53091"><ele>223.0</ele><time>2026-04-19T08:35:25.636Z</time></trkpt><trkpt lat="41.1014317" lon="16.530925"><ele>223.0</ele><time>2026-04-19T08:35:26.636Z</time></trkpt><trkpt lat="41.1015633" lon="16.5309483"><ele>223.0</ele><time>2026-04-19T08:35:27.635Z</time></trkpt><trkpt lat="41.1017033" lon="16.5309817"><ele>223.0</ele><time>2026-04-19T08:35:28.636Z</time></trkpt><trkpt lat="41.10185" lon="16.5310167"><ele>223.0</ele><time>2026-04-19T08:35:29.636Z</time></trkpt><trkpt lat="41.101995" lon="16.53105"><ele>222.5</ele><time>2026-04-19T08:35:30.636Z</time></trkpt><trkpt lat="41.102135" lon="16.531085"><ele>222.0</ele><time>2026-04-19T08:35:31.636Z</time></trkpt><trkpt lat="41.1022683" lon="16.5311167"><ele>221.5</ele><time>2026-04-19T08:35:32.636Z</time></trkpt><trkpt lat="41.102405" lon="16.5311417"><ele>221.0</ele><time>2026-04-19T08:35:33.635Z</time></trkpt><trkpt lat="41.1025483" lon="16.5311633"><ele>220.66666666666669</ele><time>2026-04-19T08:35:34.635Z</time></trkpt><trkpt lat="41.102695" lon="16.5311817"><ele>220.33333333333331</ele><time>2026-04-19T08:35:35.636Z</time></trkpt><trkpt lat="41.102855" lon="16.5311983"><ele>220.0</ele><time>2026-04-19T08:35:36.636Z</time></trkpt><trkpt lat="41.1030233" lon="16.5312167"><ele>220.0</ele><time>2026-04-19T08:35:37.635Z</time></trkpt><trkpt lat="41.103195" lon="16.5312333"><ele>220.0</ele><time>2026-04-19T08:35:38.636Z</time></trkpt><trkpt lat="41.1033617" lon="16.5312433"><ele>220.0</ele><time>2026-04-19T08:35:39.635Z</time></trkpt><trkpt lat="41.1035167" lon="16.5312483"><ele>219.5</ele><time>2026-04-19T08:35:40.635Z</time></trkpt><trkpt lat="41.1036633" lon="16.5312533"><ele>219.0</ele><time>2026-04-19T08:35:41.634Z</time></trkpt><trkpt lat="41.1038017" lon="16.5312567"><ele>218.5</ele><time>2026-04-19T08:35:42.634Z</time></trkpt><trkpt lat="41.1039433" lon="16.5312683"><ele>218.0</ele><time>2026-04-19T08:35:43.634Z</time></trkpt><trkpt lat="41.10409" lon="16.53128"><ele>217.66666666666669</ele><time>2026-04-19T08:35:44.634Z</time></trkpt><trkpt lat="41.10424" lon="16.5312983"><ele>217.33333333333331</ele><time>2026-04-19T08:35:45.634Z</time></trkpt><trkpt lat="41.104395" lon="16.5313233"><ele>217.0</ele><time>2026-04-19T08:35:46.634Z</time></trkpt><trkpt lat="41.104555" lon="16.531365"><ele>217.0</ele><time>2026-04-19T08:35:47.636Z</time></trkpt><trkpt lat="41.1047167" lon="16.5314067"><ele>217.0</ele><time>2026-04-19T08:35:48.636Z</time></trkpt><trkpt lat="41.1048767" lon="16.5314433"><ele>217.0</ele><time>2026-04-19T08:35:49.642Z</time></trkpt><trkpt lat="41.1050333" lon="16.5314783"><ele>216.5</ele><time>2026-04-19T08:35:50.636Z</time></trkpt><trkpt lat="41.105185" lon="16.5315167"><ele>216.0</ele><time>2026-04-19T08:35:51.635Z</time></trkpt><trkpt lat="41.1053267" lon="16.53155"><ele>215.5</ele><time>2026-04-19T08:35:52.635Z</time></trkpt><trkpt lat="41.1054583" lon="16.53158"><ele>215.0</ele><time>2026-04-19T08:35:53.635Z</time></trkpt><trkpt lat="41.1055833" lon="16.531615"><ele>215.0</ele><time>2026-04-19T08:35:54.636Z</time></trkpt><trkpt lat="41.1057017" lon="16.5316417"><ele>215.0</ele><time>2026-04-19T08:35:55.634Z</time></trkpt><trkpt lat="41.1058083" lon="16.53167"><ele>215.0</ele><time>2026-04-19T08:35:56.635Z</time></trkpt><trkpt lat="41.1059117" lon="16.531695"><ele>215.0</ele><time>2026-04-19T08:35:57.634Z</time></trkpt><trkpt lat="41.106005" lon="16.5317167"><ele>215.0</ele><time>2026-04-19T08:35:58.635Z</time></trkpt><trkpt lat="41.1060967" lon="16.53174"><ele>215.2</ele><time>2026-04-19T08:35:59.634Z</time></trkpt><trkpt lat="41.1061883" lon="16.5317717"><ele>215.4</ele><time>2026-04-19T08:36:00.634Z</time></trkpt><trkpt lat="41.1062867" lon="16.5318217"><ele>215.60000000000002</ele><time>2026-04-19T08:36:01.634Z</time></trkpt><trkpt lat="41.10639" lon="16.5318883"><ele>215.8</ele><time>2026-04-19T08:36:02.634Z</time></trkpt><trkpt lat="41.1065017" lon="16.5319733"><ele>216.0</ele><time>2026-04-19T08:36:03.634Z</time></trkpt><trkpt lat="41.1066183" lon="16.5320717"><ele>215.33333333333331</ele><time>2026-04-19T08:36:04.634Z</time></trkpt><trkpt lat="41.10674" lon="16.5321783"><ele>214.66666666666666</ele><time>2026-04-19T08:36:05.635Z</time></trkpt><trkpt lat="41.10688" lon="16.5322917"><ele>214.0</ele><time>2026-04-19T08:36:06.634Z</time></trkpt><trkpt lat="41.107035" lon="16.532415"><ele>214.0</ele><time>2026-04-19T08:36:07.634Z</time></trkpt><trkpt lat="41.1071867" lon="16.5325467"><ele>214.0</ele><time>2026-04-19T08:36:08.635Z</time></trkpt><trkpt lat="41.10733" lon="16.5326883"><ele>214.0</ele><time>2026-04-19T08:36:09.634Z</time></trkpt><trkpt lat="41.1074633" lon="16.5328267"><ele>214.33333333333331</ele><time>2026-04-19T08:36:10.634Z</time></trkpt><trkpt lat="41.107595" lon="16.53295"><ele>214.66666666666669</ele><time>2026-04-19T08:36:11.634Z</time></trkpt><trkpt lat="41.10774" lon="16.5330633"><ele>215.0</ele><time>2026-04-19T08:36:12.634Z</time></trkpt><trkpt lat="41.107895" lon="16.533165"><ele>215.0</ele><time>2026-04-19T08:36:13.634Z</time></trkpt><trkpt lat="41.1080483" lon="16.5332617"><ele>215.0</ele><time>2026-04-19T08:36:14.634Z</time></trkpt><trkpt lat="41.1081867" lon="16.5333617"><ele>215.0</ele><time>2026-04-19T08:36:15.634Z</time></trkpt><trkpt lat="41.10831" lon="16.533475"><ele>214.66666666666669</ele><time>2026-04-19T08:36:16.634Z</time></trkpt><trkpt lat="41.1084233" lon="16.5336067"><ele>214.33333333333331</ele><time>2026-04-19T08:36:17.634Z</time></trkpt><trkpt lat="41.1085333" lon="16.533765"><ele>214.0</ele><time>2026-04-19T08:36:18.634Z</time></trkpt><trkpt lat="41.1086417" lon="16.5339467"><ele>213.33333333333331</ele><time>2026-04-19T08:36:19.637Z</time></trkpt><trkpt lat="41.1087483" lon="16.5341483"><ele>212.66666666666669</ele><time>2026-04-19T08:36:20.637Z</time></trkpt><trkpt lat="41.1088567" lon="16.5343517"><ele>212.0</ele><time>2026-04-19T08:36:21.635Z</time></trkpt><trkpt lat="41.1089583" lon="16.5345417"><ele>211.66666666666669</ele><time>2026-04-19T08:36:22.635Z</time></trkpt><trkpt lat="41.1090517" lon="16.5347167"><ele>211.33333333333331</ele><time>2026-04-19T08:36:23.636Z</time></trkpt><trkpt lat="41.1091383" lon="16.53488"><ele>211.0</ele><time>2026-04-19T08:36:24.634Z</time></trkpt><trkpt lat="41.1092217" lon="16.5350367"><ele>211.0</ele><time>2026-04-19T08:36:25.634Z</time></trkpt><trkpt lat="41.1093033" lon="16.53519"><ele>211.0</ele><time>2026-04-19T08:36:26.634Z</time></trkpt><trkpt lat="41.109385" lon="16.53535"><ele>211.0</ele><time>2026-04-19T08:36:27.634Z</time></trkpt><trkpt lat="41.1094617" lon="16.5355083"><ele>211.0</ele><time>2026-04-19T08:36:28.634Z</time></trkpt><trkpt lat="41.10954" lon="16.5356517"><ele>211.0</ele><time>2026-04-19T08:36:29.634Z</time></trkpt><trkpt lat="41.10963" lon="16.5357767"><ele>211.0</ele><time>2026-04-19T08:36:30.634Z</time></trkpt><trkpt lat="41.109725" lon="16.535885"><ele>211.0</ele><time>2026-04-19T08:36:31.633Z</time></trkpt><trkpt lat="41.10983" lon="16.5359783"><ele>211.0</ele><time>2026-04-19T08:36:32.634Z</time></trkpt><trkpt lat="41.10995" lon="16.536055"><ele>209.33333333333331</ele><time>2026-04-19T08:36:33.634Z</time></trkpt><trkpt lat="41.11009" lon="16.5361167"><ele>207.66666666666669</ele><time>2026-04-19T08:36:34.634Z</time></trkpt><trkpt lat="41.1102417" lon="16.5361817"><ele>206.0</ele><time>2026-04-19T08:36:35.635Z</time></trkpt><trkpt lat="41.110395" lon="16.53625"><ele>205.75</ele><time>2026-04-19T08:36:36.634Z</time></trkpt><trkpt lat="41.11054" lon="16.5363167"><ele>205.5</ele><time>2026-04-19T08:36:37.636Z</time></trkpt><trkpt lat="41.1106783" lon="16.5363783"><ele>205.25</ele><time>2026-04-19T08:36:38.636Z</time></trkpt><trkpt lat="41.1108033" lon="16.53643"><ele>205.0</ele><time>2026-04-19T08:36:39.634Z</time></trkpt><trkpt lat="41.1109133" lon="16.5364683"><ele>205.0</ele><time>2026-04-19T08:36:40.634Z</time></trkpt><trkpt lat="41.1110183" lon="16.5364917"><ele>205.0</ele><time>2026-04-19T08:36:41.633Z</time></trkpt><trkpt lat="41.1111183" lon="16.5365117"><ele>205.0</ele><time>2026-04-19T08:36:42.634Z</time></trkpt><trkpt lat="41.111205" lon="16.5365283"><ele>205.0</ele><time>2026-04-19T08:36:43.634Z</time></trkpt><trkpt lat="41.1112683" lon="16.5365383"><ele>205.0</ele><time>2026-04-19T08:36:44.634Z</time></trkpt><trkpt lat="41.1113617" lon="16.5366183"><ele>205.0</ele><time>2026-04-19T08:36:46.634Z</time></trkpt><trkpt lat="41.11141" lon="16.5367817"><ele>205.0</ele><time>2026-04-19T08:36:48.634Z</time></trkpt><trkpt lat="41.111425" lon="16.5369067"><ele>205.0</ele><time>2026-04-19T08:36:49.634Z</time></trkpt><trkpt lat="41.1114317" lon="16.5370717"><ele>205.0</ele><time>2026-04-19T08:36:50.635Z</time></trkpt><trkpt lat="41.1114417" lon="16.5372617"><ele>204.33333333333331</ele><time>2026-04-19T08:36:51.636Z</time></trkpt><trkpt lat="41.1114533" lon="16.5374683"><ele>203.66666666666669</ele><time>2026-04-19T08:36:52.636Z</time></trkpt><trkpt lat="41.1114717" lon="16.53769"><ele>203.0</ele><time>2026-04-19T08:36:53.636Z</time></trkpt><trkpt lat="41.1114933" lon="16.537935"><ele>203.0</ele><time>2026-04-19T08:36:54.634Z</time></trkpt><trkpt lat="41.11151" lon="16.53821"><ele>203.0</ele><time>2026-04-19T08:36:55.635Z</time></trkpt><trkpt lat="41.1115267" lon="16.538505"><ele>203.0</ele><time>2026-04-19T08:36:56.637Z</time></trkpt><trkpt lat="41.111545" lon="16.5388117"><ele>203.0</ele><time>2026-04-19T08:36:57.635Z</time></trkpt><trkpt lat="41.1115667" lon="16.5391317"><ele>203.0</ele><time>2026-04-19T08:36:58.634Z</time></trkpt><trkpt lat="41.1115917" lon="16.5394633"><ele>203.5</ele><time>2026-04-19T08:36:59.635Z</time></trkpt><trkpt lat="41.1116183" lon="16.5398033"><ele>204.0</ele><time>2026-04-19T08:37:00.634Z</time></trkpt><trkpt lat="41.111645" lon="16.540135"><ele>204.5</ele><time>2026-04-19T08:37:01.635Z</time></trkpt><trkpt lat="41.1116717" lon="16.540445"><ele>205.0</ele><time>2026-04-19T08:37:02.636Z</time></trkpt><trkpt lat="41.1116933" lon="16.5407467"><ele>205.0</ele><time>2026-04-19T08:37:03.634Z</time></trkpt><trkpt lat="41.111715" lon="16.54105"><ele>205.0</ele><time>2026-04-19T08:37:04.635Z</time></trkpt><trkpt lat="41.11174" lon="16.54136"><ele>205.5</ele><time>2026-04-19T08:37:05.635Z</time></trkpt><trkpt lat="41.111765" lon="16.5416783"><ele>206.0</ele><time>2026-04-19T08:37:06.634Z</time></trkpt><trkpt lat="41.1117867" lon="16.542005"><ele>206.5</ele><time>2026-04-19T08:37:07.636Z</time></trkpt><trkpt lat="41.11181" lon="16.5423467"><ele>207.0</ele><time>2026-04-19T08:37:08.634Z</time></trkpt><trkpt lat="41.1118367" lon="16.5426967"><ele>207.0</ele><time>2026-04-19T08:37:09.634Z</time></trkpt><trkpt lat="41.1118667" lon="16.5430567"><ele>207.0</ele><time>2026-04-19T08:37:10.634Z</time></trkpt><trkpt lat="41.111895" lon="16.5434283"><ele>206.5</ele><time>2026-04-19T08:37:11.634Z</time></trkpt><trkpt lat="41.11192" lon="16.5438083"><ele>206.0</ele><time>2026-04-19T08:37:12.634Z</time></trkpt><trkpt lat="41.1119467" lon="16.54418"><ele>206.0</ele><time>2026-04-19T08:37:13.633Z</time></trkpt><trkpt lat="41.1119717" lon="16.54453"><ele>206.0</ele><time>2026-04-19T08:37:14.634Z</time></trkpt><trkpt lat="41.1119967" lon="16.54486"><ele>205.0</ele><time>2026-04-19T08:37:15.636Z</time></trkpt><trkpt lat="41.1120217" lon="16.5451833"><ele>204.0</ele><time>2026-04-19T08:37:16.635Z</time></trkpt><trkpt lat="41.1120483" lon="16.5454967"><ele>204.0</ele><time>2026-04-19T08:37:17.634Z</time></trkpt><trkpt lat="41.1120767" lon="16.545805"><ele>204.0</ele><time>2026-04-19T08:37:18.634Z</time></trkpt><trkpt lat="41.1121033" lon="16.5461083"><ele>204.0</ele><time>2026-04-19T08:37:19.636Z</time></trkpt><trkpt lat="41.112125" lon="16.5464117"><ele>204.0</ele><time>2026-04-19T08:37:20.636Z</time></trkpt><trkpt lat="41.1121483" lon="16.5467217"><ele>204.0</ele><time>2026-04-19T08:37:21.635Z</time></trkpt><trkpt lat="41.11217" lon="16.54704"><ele>204.0</ele><time>2026-04-19T08:37:22.635Z</time></trkpt><trkpt lat="41.112195" lon="16.5473633"><ele>204.5</ele><time>2026-04-19T08:37:23.637Z</time></trkpt><trkpt lat="41.1122233" lon="16.547695"><ele>205.0</ele><time>2026-04-19T08:37:24.636Z</time></trkpt><trkpt lat="41.11225" lon="16.5480367"><ele>205.5</ele><time>2026-04-19T08:37:25.636Z</time></trkpt><trkpt lat="41.1122783" lon="16.54838"><ele>206.0</ele><time>2026-04-19T08:37:26.636Z</time></trkpt><trkpt lat="41.1123017" lon="16.5487367"><ele>206.0</ele><time>2026-04-19T08:37:27.636Z</time></trkpt><trkpt lat="41.112335" lon="16.5491017"><ele>206.0</ele><time>2026-04-19T08:37:28.635Z</time></trkpt><trkpt lat="41.1123633" lon="16.549455"><ele>205.5</ele><time>2026-04-19T08:37:29.636Z</time></trkpt><trkpt lat="41.1123883" lon="16.5497933"><ele>205.0</ele><time>2026-04-19T08:37:30.635Z</time></trkpt><trkpt lat="41.1124117" lon="16.5501267"><ele>203.0</ele><time>2026-04-19T08:37:31.634Z</time></trkpt><trkpt lat="41.112435" lon="16.5504567"><ele>201.0</ele><time>2026-04-19T08:37:32.634Z</time></trkpt><trkpt lat="41.11246" lon="16.5507883"><ele>201.0</ele><time>2026-04-19T08:37:33.633Z</time></trkpt><trkpt lat="41.1124833" lon="16.5511117"><ele>201.0</ele><time>2026-04-19T08:37:34.634Z</time></trkpt><trkpt lat="41.1125067" lon="16.551435"><ele>201.0</ele><time>2026-04-19T08:37:35.635Z</time></trkpt><trkpt lat="41.1125283" lon="16.5517583"><ele>201.0</ele><time>2026-04-19T08:37:36.634Z</time></trkpt><trkpt lat="41.1125533" lon="16.5520783"><ele>200.5</ele><time>2026-04-19T08:37:37.634Z</time></trkpt><trkpt lat="41.1125767" lon="16.5523883"><ele>200.0</ele><time>2026-04-19T08:37:38.636Z</time></trkpt><trkpt lat="41.1125983" lon="16.5526867"><ele>200.33333333333334</ele><time>2026-04-19T08:37:39.635Z</time></trkpt><trkpt lat="41.1126167" lon="16.552975"><ele>200.66666666666669</ele><time>2026-04-19T08:37:40.635Z</time></trkpt><trkpt lat="41.1126383" lon="16.5532567"><ele>201.0</ele><time>2026-04-19T08:37:41.633Z</time></trkpt><trkpt lat="41.1126617" lon="16.5535267"><ele>201.0</ele><time>2026-04-19T08:37:42.634Z</time></trkpt><trkpt lat="41.1126817" lon="16.5537817"><ele>201.0</ele><time>2026-04-19T08:37:43.633Z</time></trkpt><trkpt lat="41.1127017" lon="16.5540267"><ele>201.0</ele><time>2026-04-19T08:37:44.635Z</time></trkpt><trkpt lat="41.1127233" lon="16.5542783"><ele>201.66666666666669</ele><time>2026-04-19T08:37:45.634Z</time></trkpt><trkpt lat="41.11274" lon="16.554545"><ele>202.33333333333334</ele><time>2026-04-19T08:37:46.634Z</time></trkpt><trkpt lat="41.1127583" lon="16.5548217"><ele>203.0</ele><time>2026-04-19T08:37:47.634Z</time></trkpt><trkpt lat="41.1127833" lon="16.5551067"><ele>202.5</ele><time>2026-04-19T08:37:48.634Z</time></trkpt><trkpt lat="41.1128167" lon="16.5554"><ele>202.0</ele><time>2026-04-19T08:37:49.634Z</time></trkpt><trkpt lat="41.1128483" lon="16.5557"><ele>202.0</ele><time>2026-04-19T08:37:50.634Z</time></trkpt><trkpt lat="41.11287" lon="16.5560017"><ele>202.0</ele><time>2026-04-19T08:37:51.634Z</time></trkpt><trkpt lat="41.1128917" lon="16.5562867"><ele>202.0</ele><time>2026-04-19T08:37:52.634Z</time></trkpt><trkpt lat="41.112915" lon="16.5565467"><ele>201.66666666666666</ele><time>2026-04-19T08:37:53.634Z</time></trkpt><trkpt lat="41.1129367" lon="16.5567867"><ele>201.33333333333331</ele><time>2026-04-19T08:37:54.634Z</time></trkpt><trkpt lat="41.11295" lon="16.5570133"><ele>201.0</ele><time>2026-04-19T08:37:55.634Z</time></trkpt><trkpt lat="41.11296" lon="16.55723"><ele>200.33333333333331</ele><time>2026-04-19T08:37:56.635Z</time></trkpt><trkpt lat="41.1129617" lon="16.5574333"><ele>199.66666666666666</ele><time>2026-04-19T08:37:57.634Z</time></trkpt><trkpt lat="41.1129517" lon="16.5576333"><ele>199.0</ele><time>2026-04-19T08:37:58.634Z</time></trkpt><trkpt lat="41.1129217" lon="16.5578367"><ele>199.33333333333331</ele><time>2026-04-19T08:37:59.634Z</time></trkpt><trkpt lat="41.11287" lon="16.558045"><ele>199.66666666666669</ele><time>2026-04-19T08:38:00.634Z</time></trkpt><trkpt lat="41.112805" lon="16.5582583"><ele>200.0</ele><time>2026-04-19T08:38:01.633Z</time></trkpt><trkpt lat="41.1127367" lon="16.55846"><ele>200.0</ele><time>2026-04-19T08:38:02.634Z</time></trkpt><trkpt lat="41.112675" lon="16.558655"><ele>200.0</ele><time>2026-04-19T08:38:03.634Z</time></trkpt><trkpt lat="41.1126167" lon="16.5588283"><ele>200.0</ele><time>2026-04-19T08:38:04.634Z</time></trkpt><trkpt lat="41.1125633" lon="16.5589733"><ele>200.0</ele><time>2026-04-19T08:38:05.634Z</time></trkpt><trkpt lat="41.1125267" lon="16.5590833"><ele>199.8</ele><time>2026-04-19T08:38:06.633Z</time></trkpt><trkpt lat="41.1125067" lon="16.559165"><ele>199.6</ele><time>2026-04-19T08:38:07.633Z</time></trkpt><trkpt lat="41.112515" lon="16.5592783"><ele>199.39999999999998</ele><time>2026-04-19T08:38:09.633Z</time></trkpt><trkpt lat="41.1126283" lon="16.55934"><ele>199.2</ele><time>2026-04-19T08:38:11.635Z</time></trkpt><trkpt lat="41.1127317" lon="16.5593567"><ele>199.0</ele><time>2026-04-19T08:38:12.633Z</time></trkpt><trkpt lat="41.11286" lon="16.5593717"><ele>199.0</ele><time>2026-04-19T08:38:13.635Z</time></trkpt><trkpt lat="41.1129767" lon="16.559405"><ele>199.0</ele><time>2026-04-19T08:38:14.634Z</time></trkpt><trkpt lat="41.113075" lon="16.5594683"><ele>199.0</ele><time>2026-04-19T08:38:15.634Z</time></trkpt><trkpt lat="41.113145" lon="16.5595467"><ele>199.0</ele><time>2026-04-19T08:38:16.636Z</time></trkpt><trkpt lat="41.1131967" lon="16.5596417"><ele>199.0</ele><time>2026-04-19T08:38:17.634Z</time></trkpt><trkpt lat="41.1132167" lon="16.5597767"><ele>199.0</ele><time>2026-04-19T08:38:18.633Z</time></trkpt><trkpt lat="41.1132233" lon="16.55994"><ele>199.0</ele><time>2026-04-19T08:38:19.634Z</time></trkpt><trkpt lat="41.1132333" lon="16.5601333"><ele>199.0</ele><time>2026-04-19T08:38:20.635Z</time></trkpt><trkpt lat="41.1132533" lon="16.5603517"><ele>199.0</ele><time>2026-04-19T08:38:21.634Z</time></trkpt><trkpt lat="41.1132733" lon="16.5605733"><ele>198.66666666666666</ele><time>2026-04-19T08:38:22.634Z</time></trkpt><trkpt lat="41.1132917" lon="16.5607983"><ele>198.33333333333331</ele><time>2026-04-19T08:38:23.634Z</time></trkpt><trkpt lat="41.1133133" lon="16.5610267"><ele>198.0</ele><time>2026-04-19T08:38:24.634Z</time></trkpt><trkpt lat="41.1133333" lon="16.5612567"><ele>198.0</ele><time>2026-04-19T08:38:25.633Z</time></trkpt><trkpt lat="41.113355" lon="16.5614933"><ele>198.0</ele><time>2026-04-19T08:38:26.635Z</time></trkpt><trkpt lat="41.11338" lon="16.5617333"><ele>198.0</ele><time>2026-04-19T08:38:27.634Z</time></trkpt><trkpt lat="41.1134033" lon="16.5619867"><ele>197.33333333333331</ele><time>2026-04-19T08:38:28.634Z</time></trkpt><trkpt lat="41.1134267" lon="16.5622533"><ele>196.66666666666666</ele><time>2026-04-19T08:38:29.634Z</time></trkpt><trkpt lat="41.1134517" lon="16.5625383"><ele>196.0</ele><time>2026-04-19T08:38:30.634Z</time></trkpt><trkpt lat="41.11348" lon="16.5628317"><ele>196.0</ele><time>2026-04-19T08:38:31.636Z</time></trkpt><trkpt lat="41.11351" lon="16.5631333"><ele>196.0</ele><time>2026-04-19T08:38:32.636Z</time></trkpt><trkpt lat="41.1135417" lon="16.5634517"><ele>195.5</ele><time>2026-04-19T08:38:33.635Z</time></trkpt><trkpt lat="41.1135817" lon="16.563785"><ele>195.0</ele><time>2026-04-19T08:38:34.636Z</time></trkpt><trkpt lat="41.11362" lon="16.5641267"><ele>195.0</ele><time>2026-04-19T08:38:35.636Z</time></trkpt><trkpt lat="41.1136567" lon="16.5644817"><ele>195.0</ele><time>2026-04-19T08:38:36.634Z</time></trkpt><trkpt lat="41.1136917" lon="16.5648417"><ele>194.0</ele><time>2026-04-19T08:38:37.634Z</time></trkpt><trkpt lat="41.11373" lon="16.565205"><ele>193.0</ele><time>2026-04-19T08:38:38.635Z</time></trkpt><trkpt lat="41.1137683" lon="16.5655733"><ele>193.0</ele><time>2026-04-19T08:38:39.635Z</time></trkpt><trkpt lat="41.1138083" lon="16.5659283"><ele>193.0</ele><time>2026-04-19T08:38:40.634Z</time></trkpt><trkpt lat="41.1138417" lon="16.56625"><ele>192.33333333333331</ele><time>2026-04-19T08:38:41.634Z</time></trkpt><trkpt lat="41.1138717" lon="16.5665417"><ele>191.66666666666666</ele><time>2026-04-19T08:38:42.633Z</time></trkpt><trkpt lat="41.1139" lon="16.5668183"><ele>191.0</ele><time>2026-04-19T08:38:43.634Z</time></trkpt><trkpt lat="41.1139283" lon="16.567085"><ele>190.66666666666666</ele><time>2026-04-19T08:38:44.634Z</time></trkpt><trkpt lat="41.1139517" lon="16.5673383"><ele>190.33333333333334</ele><time>2026-04-19T08:38:45.634Z</time></trkpt><trkpt lat="41.1139717" lon="16.5675767"><ele>190.0</ele><time>2026-04-19T08:38:46.633Z</time></trkpt><trkpt lat="41.1139917" lon="16.5678033"><ele>189.25</ele><time>2026-04-19T08:38:47.633Z</time></trkpt><trkpt lat="41.1140117" lon="16.5680067"><ele>188.5</ele><time>2026-04-19T08:38:48.635Z</time></trkpt><trkpt lat="41.1140267" lon="16.568185"><ele>187.75</ele><time>2026-04-19T08:38:49.634Z</time></trkpt><trkpt lat="41.11404" lon="16.5683467"><ele>187.0</ele><time>2026-04-19T08:38:50.635Z</time></trkpt><trkpt lat="41.11405" lon="16.568495"><ele>187.0</ele><time>2026-04-19T08:38:51.634Z</time></trkpt><trkpt lat="41.1140533" lon="16.568615"><ele>187.0</ele><time>2026-04-19T08:38:52.634Z</time></trkpt><trkpt lat="41.1140383" lon="16.5687217"><ele>187.0</ele><time>2026-04-19T08:38:53.634Z</time></trkpt><trkpt lat="41.1140033" lon="16.568825"><ele>187.0</ele><time>2026-04-19T08:38:54.634Z</time></trkpt><trkpt lat="41.1139433" lon="16.5689283"><ele>187.0</ele><time>2026-04-19T08:38:55.634Z</time></trkpt><trkpt lat="41.1138567" lon="16.5690233"><ele>186.75</ele><time>2026-04-19T08:38:56.634Z</time></trkpt><trkpt lat="41.1137483" lon="16.5691033"><ele>186.5</ele><time>2026-04-19T08:38:57.634Z</time></trkpt><trkpt lat="41.1136317" lon="16.56917"><ele>186.25</ele><time>2026-04-19T08:38:58.634Z</time></trkpt><trkpt lat="41.1135133" lon="16.5692583"><ele>186.0</ele><time>2026-04-19T08:38:59.634Z</time></trkpt><trkpt lat="41.11341" lon="16.5693833"><ele>186.33333333333334</ele><time>2026-04-19T08:39:00.634Z</time></trkpt><trkpt lat="41.1133183" lon="16.5695433"><ele>186.66666666666669</ele><time>2026-04-19T08:39:01.634Z</time></trkpt><trkpt lat="41.11325" lon="16.5697283"><ele>187.0</ele><time>2026-04-19T08:39:02.635Z</time></trkpt><trkpt lat="41.1132133" lon="16.56992"><ele>187.0</ele><time>2026-04-19T08:39:03.634Z</time></trkpt><trkpt lat="41.1132033" lon="16.5701067"><ele>187.0</ele><time>2026-04-19T08:39:04.633Z</time></trkpt><trkpt lat="41.1132217" lon="16.5702783"><ele>187.0</ele><time>2026-04-19T08:39:05.634Z</time></trkpt><trkpt lat="41.11327" lon="16.57043"><ele>187.0</ele><time>2026-04-19T08:39:06.635Z</time></trkpt><trkpt lat="41.1133433" lon="16.5705683"><ele>185.75</ele><time>2026-04-19T08:39:07.634Z</time></trkpt><trkpt lat="41.113435" lon="16.5706833"><ele>184.5</ele><time>2026-04-19T08:39:08.634Z</time></trkpt><trkpt lat="41.11354" lon="16.5707717"><ele>183.25</ele><time>2026-04-19T08:39:09.633Z</time></trkpt><trkpt lat="41.1136617" lon="16.5708233"><ele>182.0</ele><time>2026-04-19T08:39:10.634Z</time></trkpt><trkpt lat="41.1138017" lon="16.5708367"><ele>182.0</ele><time>2026-04-19T08:39:11.634Z</time></trkpt><trkpt lat="41.1139617" lon="16.5708217"><ele>182.0</ele><time>2026-04-19T08:39:12.636Z</time></trkpt><trkpt lat="41.1141367" lon="16.5707883"><ele>182.0</ele><time>2026-04-19T08:39:13.635Z</time></trkpt><trkpt lat="41.11432" lon="16.5707483"><ele>182.33333333333331</ele><time>2026-04-19T08:39:14.635Z</time></trkpt><trkpt lat="41.114515" lon="16.5707067"><ele>182.66666666666666</ele><time>2026-04-19T08:39:15.634Z</time></trkpt><trkpt lat="41.1147183" lon="16.57067"><ele>183.0</ele><time>2026-04-19T08:39:16.634Z</time></trkpt><trkpt lat="41.1149367" lon="16.5706267"><ele>183.0</ele><time>2026-04-19T08:39:17.634Z</time></trkpt><trkpt lat="41.1151567" lon="16.5705883"><ele>183.0</ele><time>2026-04-19T08:39:18.634Z</time></trkpt><trkpt lat="41.1153667" lon="16.57055"><ele>183.0</ele><time>2026-04-19T08:39:19.634Z</time></trkpt><trkpt lat="41.1155683" lon="16.5705133"><ele>182.0</ele><time>2026-04-19T08:39:20.635Z</time></trkpt><trkpt lat="41.1157667" lon="16.5704833"><ele>181.0</ele><time>2026-04-19T08:39:21.635Z</time></trkpt><trkpt lat="41.11597" lon="16.5704733"><ele>180.0</ele><time>2026-04-19T08:39:22.634Z</time></trkpt><trkpt lat="41.1161817" lon="16.5704817"><ele>180.0</ele><time>2026-04-19T08:39:23.636Z</time></trkpt><trkpt lat="41.1163983" lon="16.5705117"><ele>180.0</ele><time>2026-04-19T08:39:24.634Z</time></trkpt><trkpt lat="41.1166217" lon="16.57057"><ele>180.0</ele><time>2026-04-19T08:39:25.636Z</time></trkpt><trkpt lat="41.116845" lon="16.5706567"><ele>179.33333333333334</ele><time>2026-04-19T08:39:26.635Z</time></trkpt><trkpt lat="41.1170583" lon="16.570755"><ele>178.66666666666669</ele><time>2026-04-19T08:39:27.634Z</time></trkpt><trkpt lat="41.1172583" lon="16.5708567"><ele>178.0</ele><time>2026-04-19T08:39:28.634Z</time></trkpt><trkpt lat="41.1174467" lon="16.5709567"><ele>178.0</ele><time>2026-04-19T08:39:29.635Z</time></trkpt><trkpt lat="41.1176217" lon="16.57106"><ele>178.0</ele><time>2026-04-19T08:39:30.634Z</time></trkpt><trkpt lat="41.11779" lon="16.5711617"><ele>178.0</ele><time>2026-04-19T08:39:31.634Z</time></trkpt><trkpt lat="41.1179433" lon="16.5712533"><ele>177.33333333333334</ele><time>2026-04-19T08:39:32.635Z</time></trkpt><trkpt lat="41.1180883" lon="16.5713417"><ele>176.66666666666666</ele><time>2026-04-19T08:39:33.635Z</time></trkpt><trkpt lat="41.1182267" lon="16.57142"><ele>176.0</ele><time>2026-04-19T08:39:34.634Z</time></trkpt><trkpt lat="41.11836" lon="16.5714917"><ele>175.75</ele><time>2026-04-19T08:39:35.634Z</time></trkpt><trkpt lat="41.1184867" lon="16.57156"><ele>175.5</ele><time>2026-04-19T08:39:36.634Z</time></trkpt><trkpt lat="41.11861" lon="16.5716217"><ele>175.25</ele><time>2026-04-19T08:39:37.634Z</time></trkpt><trkpt lat="41.1187283" lon="16.57169"><ele>175.0</ele><time>2026-04-19T08:39:38.634Z</time></trkpt><trkpt lat="41.118835" lon="16.57175"><ele>175.0</ele><time>2026-04-19T08:39:39.634Z</time></trkpt><trkpt lat="41.1189317" lon="16.5718083"><ele>175.0</ele><time>2026-04-19T08:39:40.633Z</time></trkpt><trkpt lat="41.1190283" lon="16.5718583"><ele>175.0</ele><time>2026-04-19T08:39:41.635Z</time></trkpt><trkpt lat="41.11912" lon="16.5719117"><ele>175.0</ele><time>2026-04-19T08:39:42.633Z</time></trkpt><trkpt lat="41.11921" lon="16.5719667"><ele>175.0</ele><time>2026-04-19T08:39:43.634Z</time></trkpt><trkpt lat="41.1192983" lon="16.57202"><ele>174.6</ele><time>2026-04-19T08:39:44.635Z</time></trkpt><trkpt lat="41.1193833" lon="16.5720683"><ele>174.2</ele><time>2026-04-19T08:39:45.634Z</time></trkpt><trkpt lat="41.119465" lon="16.5721133"><ele>173.8</ele><time>2026-04-19T08:39:46.634Z</time></trkpt><trkpt lat="41.11955" lon="16.5721633"><ele>173.4</ele><time>2026-04-19T08:39:47.634Z</time></trkpt><trkpt lat="41.1196333" lon="16.572215"><ele>173.0</ele><time>2026-04-19T08:39:48.634Z</time></trkpt><trkpt lat="41.1197183" lon="16.5722633"><ele>173.0</ele><time>2026-04-19T08:39:49.637Z</time></trkpt><trkpt lat="41.1198017" lon="16.5723117"><ele>173.0</ele><time>2026-04-19T08:39:50.636Z</time></trkpt><trkpt lat="41.119885" lon="16.5723583"><ele>173.0</ele><time>2026-04-19T08:39:51.635Z</time></trkpt><trkpt lat="41.1199683" lon="16.572405"><ele>173.0</ele><time>2026-04-19T08:39:52.635Z</time></trkpt><trkpt lat="41.12005" lon="16.57245"><ele>173.0</ele><time>2026-04-19T08:39:53.636Z</time></trkpt><trkpt lat="41.12013" lon="16.5724933"><ele>173.0</ele><time>2026-04-19T08:39:54.635Z</time></trkpt><trkpt lat="41.1202033" lon="16.572535"><ele>172.83333333333331</ele><time>2026-04-19T08:39:55.635Z</time></trkpt><trkpt lat="41.1202617" lon="16.5725733"><ele>172.66666666666666</ele><time>2026-04-19T08:39:56.636Z</time></trkpt><trkpt lat="41.12034" lon="16.5726317"><ele>172.5</ele><time>2026-04-19T08:39:58.635Z</time></trkpt><trkpt lat="41.120395" lon="16.5726783"><ele>172.33333333333334</ele><time>2026-04-19T08:40:02.634Z</time></trkpt><trkpt lat="41.1204883" lon="16.572625"><ele>172.16666666666669</ele><time>2026-04-19T08:40:05.634Z</time></trkpt><trkpt lat="41.120545" lon="16.5724883"><ele>172.0</ele><time>2026-04-19T08:40:07.635Z</time></trkpt><trkpt lat="41.1206" lon="16.5723467"><ele>172.0</ele><time>2026-04-19T08:40:09.633Z</time></trkpt><trkpt lat="41.1206467" lon="16.5722483"><ele>172.0</ele><time>2026-04-19T08:40:10.634Z</time></trkpt><trkpt lat="41.1207" lon="16.5721367"><ele>172.0</ele><time>2026-04-19T08:40:11.635Z</time></trkpt><trkpt lat="41.12076" lon="16.57202"><ele>172.0</ele><time>2026-04-19T08:40:12.633Z</time></trkpt><trkpt lat="41.1208167" lon="16.5719067"><ele>172.0</ele><time>2026-04-19T08:40:13.635Z</time></trkpt><trkpt lat="41.120875" lon="16.57179"><ele>171.5</ele><time>2026-04-19T08:40:14.634Z</time></trkpt><trkpt lat="41.1209417" lon="16.5716683"><ele>171.0</ele><time>2026-04-19T08:40:15.633Z</time></trkpt><trkpt lat="41.1210117" lon="16.5715383"><ele>170.5</ele><time>2026-04-19T08:40:16.635Z</time></trkpt><trkpt lat="41.12108" lon="16.5713933"><ele>170.0</ele><time>2026-04-19T08:40:17.634Z</time></trkpt><trkpt lat="41.121145" lon="16.5712483"><ele>169.75</ele><time>2026-04-19T08:40:18.634Z</time></trkpt><trkpt lat="41.1212117" lon="16.5711067"><ele>169.5</ele><time>2026-04-19T08:40:19.634Z</time></trkpt><trkpt lat="41.121285" lon="16.5709567"><ele>169.25</ele><time>2026-04-19T08:40:20.634Z</time></trkpt><trkpt lat="41.1213667" lon="16.570785"><ele>169.0</ele><time>2026-04-19T08:40:21.634Z</time></trkpt><trkpt lat="41.1214483" lon="16.5706067"><ele>169.0</ele><time>2026-04-19T08:40:22.636Z</time></trkpt><trkpt lat="41.121535" lon="16.570425"><ele>169.0</ele><time>2026-04-19T08:40:23.635Z</time></trkpt><trkpt lat="41.121625" lon="16.570235"><ele>169.0</ele><time>2026-04-19T08:40:24.635Z</time></trkpt><trkpt lat="41.1217183" lon="16.5700417"><ele>169.0</ele><time>2026-04-19T08:40:25.635Z</time></trkpt><trkpt lat="41.12182" lon="16.5698383"><ele>169.0</ele><time>2026-04-19T08:40:26.636Z</time></trkpt><trkpt lat="41.1219233" lon="16.569625"><ele>169.0</ele><time>2026-04-19T08:40:27.636Z</time></trkpt><trkpt lat="41.1220233" lon="16.5694117"><ele>168.33333333333334</ele><time>2026-04-19T08:40:28.635Z</time></trkpt><trkpt lat="41.1221183" lon="16.569205"><ele>167.66666666666666</ele><time>2026-04-19T08:40:29.634Z</time></trkpt><trkpt lat="41.12221" lon="16.569015"><ele>167.0</ele><time>2026-04-19T08:40:30.634Z</time></trkpt><trkpt lat="41.1222983" lon="16.5688283"><ele>167.33333333333331</ele><time>2026-04-19T08:40:31.634Z</time></trkpt><trkpt lat="41.1223867" lon="16.5686383"><ele>167.66666666666666</ele><time>2026-04-19T08:40:32.635Z</time></trkpt><trkpt lat="41.1224717" lon="16.5684517"><ele>168.0</ele><time>2026-04-19T08:40:33.633Z</time></trkpt><trkpt lat="41.1225633" lon="16.5682583"><ele>167.0</ele><time>2026-04-19T08:40:34.634Z</time></trkpt><trkpt lat="41.1226567" lon="16.5680567"><ele>166.0</ele><time>2026-04-19T08:40:35.635Z</time></trkpt><trkpt lat="41.1227533" lon="16.567835"><ele>165.0</ele><time>2026-04-19T08:40:36.634Z</time></trkpt><trkpt lat="41.1228567" lon="16.5676117"><ele>165.0</ele><time>2026-04-19T08:40:37.633Z</time></trkpt><trkpt lat="41.1229633" lon="16.5673833"><ele>165.0</ele><time>2026-04-19T08:40:38.634Z</time></trkpt><trkpt lat="41.1230717" lon="16.5671467"><ele>165.0</ele><time>2026-04-19T08:40:39.633Z</time></trkpt><trkpt lat="41.123185" lon="16.5669117"><ele>165.0</ele><time>2026-04-19T08:40:40.635Z</time></trkpt><trkpt lat="41.1232967" lon="16.5666817"><ele>165.0</ele><time>2026-04-19T08:40:41.634Z</time></trkpt><trkpt lat="41.123405" lon="16.5664567"><ele>165.0</ele><time>2026-04-19T08:40:42.634Z</time></trkpt><trkpt lat="41.1235133" lon="16.566235"><ele>165.0</ele><time>2026-04-19T08:40:43.634Z</time></trkpt><trkpt lat="41.12362" lon="16.56602"><ele>165.0</ele><time>2026-04-19T08:40:44.634Z</time></trkpt><trkpt lat="41.1237183" lon="16.56582"><ele>165.0</ele><time>2026-04-19T08:40:45.634Z</time></trkpt><trkpt lat="41.1238133" lon="16.5656233"><ele>165.0</ele><time>2026-04-19T08:40:46.634Z</time></trkpt><trkpt lat="41.1239017" lon="16.5654267"><ele>165.0</ele><time>2026-04-19T08:40:47.634Z</time></trkpt><trkpt lat="41.1239933" lon="16.565235"><ele>165.0</ele><time>2026-04-19T08:40:48.634Z</time></trkpt><trkpt lat="41.12408" lon="16.565055"><ele>166.5</ele><time>2026-04-19T08:40:49.635Z</time></trkpt><trkpt lat="41.12416" lon="16.5648867"><ele>168.0</ele><time>2026-04-19T08:40:50.636Z</time></trkpt><trkpt lat="41.1242367" lon="16.56473"><ele>169.5</ele><time>2026-04-19T08:40:51.635Z</time></trkpt><trkpt lat="41.12431" lon="16.564575"><ele>171.0</ele><time>2026-04-19T08:40:52.635Z</time></trkpt><trkpt lat="41.124385" lon="16.564415"><ele>171.0</ele><time>2026-04-19T08:40:53.637Z</time></trkpt><trkpt lat="41.12446" lon="16.5642567"><ele>171.0</ele><time>2026-04-19T08:40:54.635Z</time></trkpt><trkpt lat="41.124525" lon="16.5641183"><ele>171.0</ele><time>2026-04-19T08:40:55.636Z</time></trkpt><trkpt lat="41.12458" lon="16.564"><ele>171.0</ele><time>2026-04-19T08:40:56.636Z</time></trkpt><trkpt lat="41.1246283" lon="16.5638883"><ele>171.0</ele><time>2026-04-19T08:40:57.636Z</time></trkpt><trkpt lat="41.12468" lon="16.563795"><ele>171.0</ele><time>2026-04-19T08:40:58.635Z</time></trkpt><trkpt lat="41.124725" lon="16.563705"><ele>171.0</ele><time>2026-04-19T08:40:59.634Z</time></trkpt><trkpt lat="41.124775" lon="16.5636"><ele>171.0</ele><time>2026-04-19T08:41:00.635Z</time></trkpt><trkpt lat="41.124825" lon="16.5634867"><ele>171.0</ele><time>2026-04-19T08:41:01.634Z</time></trkpt><trkpt lat="41.124875" lon="16.563375"><ele>171.60000000000002</ele><time>2026-04-19T08:41:02.635Z</time></trkpt><trkpt lat="41.1249283" lon="16.5632683"><ele>172.2</ele><time>2026-04-19T08:41:03.635Z</time></trkpt><trkpt lat="41.12498" lon="16.5631567"><ele>172.8</ele><time>2026-04-19T08:41:04.633Z</time></trkpt><trkpt lat="41.12503" lon="16.5630433"><ele>173.39999999999998</ele><time>2026-04-19T08:41:05.634Z</time></trkpt><trkpt lat="41.1250817" lon="16.562935"><ele>174.0</ele><time>2026-04-19T08:41:06.635Z</time></trkpt><trkpt lat="41.1251383" lon="16.5628217"><ele>174.39999999999998</ele><time>2026-04-19T08:41:07.634Z</time></trkpt><trkpt lat="41.125195" lon="16.5627067"><ele>174.8</ele><time>2026-04-19T08:41:08.634Z</time></trkpt><trkpt lat="41.12525" lon="16.562595"><ele>175.2</ele><time>2026-04-19T08:41:09.634Z</time></trkpt><trkpt lat="41.125305" lon="16.5624817"><ele>175.60000000000002</ele><time>2026-04-19T08:41:10.633Z</time></trkpt><trkpt lat="41.1253517" lon="16.5623767"><ele>176.0</ele><time>2026-04-19T08:41:11.634Z</time></trkpt><trkpt lat="41.1253967" lon="16.56228"><ele>176.0</ele><time>2026-04-19T08:41:12.634Z</time></trkpt><trkpt lat="41.1254417" lon="16.5621783"><ele>176.0</ele><time>2026-04-19T08:41:13.634Z</time></trkpt><trkpt lat="41.12549" lon="16.56207"><ele>176.0</ele><time>2026-04-19T08:41:14.637Z</time></trkpt><trkpt lat="41.1255467" lon="16.561955"><ele>176.0</ele><time>2026-04-19T08:41:15.633Z</time></trkpt><trkpt lat="41.1256067" lon="16.56182"><ele>176.0</ele><time>2026-04-19T08:41:16.634Z</time></trkpt><trkpt lat="41.125675" lon="16.5616617"><ele>176.0</ele><time>2026-04-19T08:41:17.634Z</time></trkpt><trkpt lat="41.12575" lon="16.5614933"><ele>176.0</ele><time>2026-04-19T08:41:18.634Z</time></trkpt><trkpt lat="41.1258267" lon="16.5613283"><ele>176.0</ele><time>2026-04-19T08:41:19.635Z</time></trkpt><trkpt lat="41.1259033" lon="16.5611767"><ele>176.0</ele><time>2026-04-19T08:41:20.635Z</time></trkpt><trkpt lat="41.1259733" lon="16.5610383"><ele>176.75</ele><time>2026-04-19T08:41:21.634Z</time></trkpt><trkpt lat="41.1260383" lon="16.5609133"><ele>177.5</ele><time>2026-04-19T08:41:22.634Z</time></trkpt><trkpt lat="41.1260983" lon="16.5607883"><ele>178.25</ele><time>2026-04-19T08:41:23.634Z</time></trkpt><trkpt lat="41.1261633" lon="16.56066"><ele>179.0</ele><time>2026-04-19T08:41:24.636Z</time></trkpt><trkpt lat="41.1262317" lon="16.5605233"><ele>179.0</ele><time>2026-04-19T08:41:25.634Z</time></trkpt><trkpt lat="41.1263067" lon="16.5603733"><ele>179.0</ele><time>2026-04-19T08:41:26.636Z</time></trkpt><trkpt lat="41.126385" lon="16.560215"><ele>179.0</ele><time>2026-04-19T08:41:27.634Z</time></trkpt><trkpt lat="41.1264683" lon="16.5600467"><ele>179.0</ele><time>2026-04-19T08:41:28.634Z</time></trkpt><trkpt lat="41.1265533" lon="16.5598683"><ele>179.33333333333331</ele><time>2026-04-19T08:41:29.633Z</time></trkpt><trkpt lat="41.12664" lon="16.55969"><ele>179.66666666666666</ele><time>2026-04-19T08:41:30.633Z</time></trkpt><trkpt lat="41.1267233" lon="16.5595133"><ele>180.0</ele><time>2026-04-19T08:41:31.633Z</time></trkpt><trkpt lat="41.12681" lon="16.5593367"><ele>180.33333333333334</ele><time>2026-04-19T08:41:32.633Z</time></trkpt><trkpt lat="41.126895" lon="16.5591567"><ele>180.66666666666669</ele><time>2026-04-19T08:41:33.633Z</time></trkpt><trkpt lat="41.12698" lon="16.5589733"><ele>181.0</ele><time>2026-04-19T08:41:34.633Z</time></trkpt><trkpt lat="41.1270667" lon="16.55879"><ele>181.33333333333334</ele><time>2026-04-19T08:41:35.634Z</time></trkpt><trkpt lat="41.1271467" lon="16.5586117"><ele>181.66666666666666</ele><time>2026-04-19T08:41:36.633Z</time></trkpt><trkpt lat="41.127225" lon="16.558445"><ele>182.0</ele><time>2026-04-19T08:41:37.634Z</time></trkpt><trkpt lat="41.1273067" lon="16.558285"><ele>182.0</ele><time>2026-04-19T08:41:38.633Z</time></trkpt><trkpt lat="41.1273867" lon="16.5581167"><ele>182.0</ele><time>2026-04-19T08:41:39.632Z</time></trkpt><trkpt lat="41.1274667" lon="16.55795"><ele>182.0</ele><time>2026-04-19T08:41:40.632Z</time></trkpt><trkpt lat="41.127545" lon="16.55779"><ele>182.0</ele><time>2026-04-19T08:41:41.633Z</time></trkpt><trkpt lat="41.127615" lon="16.557635"><ele>182.25</ele><time>2026-04-19T08:41:42.633Z</time></trkpt><trkpt lat="41.1276867" lon="16.5574767"><ele>182.5</ele><time>2026-04-19T08:41:43.636Z</time></trkpt><trkpt lat="41.1277617" lon="16.557315"><ele>182.75</ele><time>2026-04-19T08:41:44.633Z</time></trkpt><trkpt lat="41.1278383" lon="16.5571467"><ele>183.0</ele><time>2026-04-19T08:41:45.633Z</time></trkpt><trkpt lat="41.127915" lon="16.55698"><ele>183.5</ele><time>2026-04-19T08:41:46.636Z</time></trkpt><trkpt lat="41.1279867" lon="16.55683"><ele>184.0</ele><time>2026-04-19T08:41:47.633Z</time></trkpt><trkpt lat="41.128055" lon="16.556695"><ele>184.5</ele><time>2026-04-19T08:41:48.633Z</time></trkpt><trkpt lat="41.1281167" lon="16.5565667"><ele>185.0</ele><time>2026-04-19T08:41:49.633Z</time></trkpt><trkpt lat="41.1281683" lon="16.556455"><ele>185.0</ele><time>2026-04-19T08:41:50.633Z</time></trkpt><trkpt lat="41.12821" lon="16.5563633"><ele>185.0</ele><time>2026-04-19T08:41:51.634Z</time></trkpt><trkpt lat="41.1282483" lon="16.5562917"><ele>185.0</ele><time>2026-04-19T08:41:52.634Z</time></trkpt><trkpt lat="41.128315" lon="16.55621"><ele>185.0</ele><time>2026-04-19T08:41:54.633Z</time></trkpt><trkpt lat="41.1284067" lon="16.5562583"><ele>185.0</ele><time>2026-04-19T08:41:56.634Z</time></trkpt><trkpt lat="41.1284667" lon="16.5562933"><ele>185.0</ele><time>2026-04-19T08:41:57.633Z</time></trkpt><trkpt lat="41.1285467" lon="16.5563567"><ele>184.25</ele><time>2026-04-19T08:41:58.633Z</time></trkpt><trkpt lat="41.128645" lon="16.5564417"><ele>183.5</ele><time>2026-04-19T08:41:59.633Z</time></trkpt><trkpt lat="41.128775" lon="16.5565533"><ele>182.75</ele><time>2026-04-19T08:42:00.632Z</time></trkpt><trkpt lat="41.128915" lon="16.5566417"><ele>182.0</ele><time>2026-04-19T08:42:01.633Z</time></trkpt><trkpt lat="41.1290567" lon="16.556725"><ele>180.66666666666666</ele><time>2026-04-19T08:42:02.633Z</time></trkpt><trkpt lat="41.1292" lon="16.5567917"><ele>179.33333333333334</ele><time>2026-04-19T08:42:03.634Z</time></trkpt><trkpt lat="41.129345" lon="16.5568433"><ele>178.0</ele><time>2026-04-19T08:42:04.632Z</time></trkpt><trkpt lat="41.129495" lon="16.556865"><ele>178.0</ele><time>2026-04-19T08:42:05.633Z</time></trkpt><trkpt lat="41.1296433" lon="16.5568617"><ele>178.0</ele><time>2026-04-19T08:42:06.633Z</time></trkpt><trkpt lat="41.1297983" lon="16.5568433"><ele>178.0</ele><time>2026-04-19T08:42:07.633Z</time></trkpt><trkpt lat="41.1299583" lon="16.5568067"><ele>177.75</ele><time>2026-04-19T08:42:08.635Z</time></trkpt><trkpt lat="41.130115" lon="16.5567733"><ele>177.5</ele><time>2026-04-19T08:42:09.633Z</time></trkpt><trkpt lat="41.1302617" lon="16.5567433"><ele>177.25</ele><time>2026-04-19T08:42:10.633Z</time></trkpt><trkpt lat="41.1303983" lon="16.5567233"><ele>177.0</ele><time>2026-04-19T08:42:11.633Z</time></trkpt><trkpt lat="41.1305183" lon="16.5566983"><ele>177.0</ele><time>2026-04-19T08:42:12.632Z</time></trkpt><trkpt lat="41.130615" lon="16.5566783"><ele>177.0</ele><time>2026-04-19T08:42:13.633Z</time></trkpt><trkpt lat="41.1306933" lon="16.5566717"><ele>177.0</ele><time>2026-04-19T08:42:14.635Z</time></trkpt><trkpt lat="41.1307567" lon="16.556685"><ele>177.0</ele><time>2026-04-19T08:42:15.633Z</time></trkpt><trkpt lat="41.1308533" lon="16.5568033"><ele>177.0</ele><time>2026-04-19T08:42:17.633Z</time></trkpt><trkpt lat="41.1308883" lon="16.556905"><ele>177.0</ele><time>2026-04-19T08:42:18.633Z</time></trkpt><trkpt lat="41.1309167" lon="16.5570217"><ele>177.0</ele><time>2026-04-19T08:42:19.633Z</time></trkpt><trkpt lat="41.1309367" lon="16.55713"><ele>177.0</ele><time>2026-04-19T08:42:20.636Z</time></trkpt><trkpt lat="41.13095" lon="16.5572333"><ele>177.0</ele><time>2026-04-19T08:42:21.633Z</time></trkpt><trkpt lat="41.130965" lon="16.5573367"><ele>177.0</ele><time>2026-04-19T08:42:22.632Z</time></trkpt><trkpt lat="41.1309767" lon="16.5574417"><ele>177.0</ele><time>2026-04-19T08:42:23.633Z</time></trkpt><trkpt lat="41.13099" lon="16.5575367"><ele>177.0</ele><time>2026-04-19T08:42:24.633Z</time></trkpt><trkpt lat="41.131005" lon="16.55762"><ele>177.0</ele><time>2026-04-19T08:42:25.633Z</time></trkpt><trkpt lat="41.1310233" lon="16.5577133"><ele>177.0</ele><time>2026-04-19T08:42:26.634Z</time></trkpt><trkpt lat="41.131045" lon="16.5578083"><ele>177.0</ele><time>2026-04-19T08:42:27.633Z</time></trkpt><trkpt lat="41.1310667" lon="16.5579017"><ele>177.0</ele><time>2026-04-19T08:42:28.635Z</time></trkpt><trkpt lat="41.1310883" lon="16.557995"><ele>177.0</ele><time>2026-04-19T08:42:29.633Z</time></trkpt><trkpt lat="41.131115" lon="16.5580917"><ele>177.0</ele><time>2026-04-19T08:42:30.633Z</time></trkpt><trkpt lat="41.1311417" lon="16.5581933"><ele>176.6</ele><time>2026-04-19T08:42:31.633Z</time></trkpt><trkpt lat="41.1311667" lon="16.558295"><ele>176.2</ele><time>2026-04-19T08:42:32.634Z</time></trkpt><trkpt lat="41.131195" lon="16.5583967"><ele>175.8</ele><time>2026-04-19T08:42:33.633Z</time></trkpt><trkpt lat="41.13123" lon="16.558515"><ele>175.4</ele><time>2026-04-19T08:42:34.633Z</time></trkpt><trkpt lat="41.1312733" lon="16.5586467"><ele>175.0</ele><time>2026-04-19T08:42:35.633Z</time></trkpt><trkpt lat="41.131325" lon="16.558795"><ele>174.5</ele><time>2026-04-19T08:42:36.633Z</time></trkpt><trkpt lat="41.131375" lon="16.5589617"><ele>174.0</ele><time>2026-04-19T08:42:37.633Z</time></trkpt><trkpt lat="41.1314233" lon="16.5591483"><ele>173.5</ele><time>2026-04-19T08:42:38.633Z</time></trkpt><trkpt lat="41.131475" lon="16.559355"><ele>173.0</ele><time>2026-04-19T08:42:39.633Z</time></trkpt><trkpt lat="41.1315367" lon="16.5595717"><ele>173.0</ele><time>2026-04-19T08:42:40.633Z</time></trkpt><trkpt lat="41.1316083" lon="16.5597983"><ele>173.0</ele><time>2026-04-19T08:42:41.633Z</time></trkpt><trkpt lat="41.1316867" lon="16.5600367"><ele>173.0</ele><time>2026-04-19T08:42:42.633Z</time></trkpt><trkpt lat="41.131775" lon="16.5602817"><ele>172.66666666666666</ele><time>2026-04-19T08:42:43.634Z</time></trkpt><trkpt lat="41.13187" lon="16.5605117"><ele>172.33333333333334</ele><time>2026-04-19T08:42:44.634Z</time></trkpt><trkpt lat="41.13196" lon="16.5607333"><ele>172.0</ele><time>2026-04-19T08:42:45.633Z</time></trkpt><trkpt lat="41.1320383" lon="16.560965"><ele>171.33333333333334</ele><time>2026-04-19T08:42:46.633Z</time></trkpt><trkpt lat="41.1321017" lon="16.5612117"><ele>170.66666666666666</ele><time>2026-04-19T08:42:47.634Z</time></trkpt><trkpt lat="41.1321617" lon="16.5614733"><ele>170.0</ele><time>2026-04-19T08:42:48.636Z</time></trkpt><trkpt lat="41.132215" lon="16.5617533"><ele>169.33333333333331</ele><time>2026-04-19T08:42:49.634Z</time></trkpt><trkpt lat="41.132265" lon="16.56204"><ele>168.66666666666666</ele><time>2026-04-19T08:42:50.633Z</time></trkpt><trkpt lat="41.13231" lon="16.56232"><ele>168.0</ele><time>2026-04-19T08:42:51.633Z</time></trkpt><trkpt lat="41.1323517" lon="16.5625867"><ele>167.66666666666666</ele><time>2026-04-19T08:42:52.633Z</time></trkpt><trkpt lat="41.1323933" lon="16.5628383"><ele>167.33333333333331</ele><time>2026-04-19T08:42:53.633Z</time></trkpt><trkpt lat="41.132435" lon="16.563075"><ele>167.0</ele><time>2026-04-19T08:42:54.633Z</time></trkpt><trkpt lat="41.1324783" lon="16.5633033"><ele>166.33333333333331</ele><time>2026-04-19T08:42:55.633Z</time></trkpt><trkpt lat="41.132525" lon="16.563525"><ele>165.66666666666666</ele><time>2026-04-19T08:42:56.633Z</time></trkpt><trkpt lat="41.13258" lon="16.563745"><ele>165.0</ele><time>2026-04-19T08:42:57.633Z</time></trkpt><trkpt lat="41.1326517" lon="16.5639633"><ele>164.33333333333334</ele><time>2026-04-19T08:42:58.634Z</time></trkpt><trkpt lat="41.1327417" lon="16.5641783"><ele>163.66666666666669</ele><time>2026-04-19T08:42:59.633Z</time></trkpt><trkpt lat="41.1328433" lon="16.5643933"><ele>163.0</ele><time>2026-04-19T08:43:00.633Z</time></trkpt><trkpt lat="41.1329517" lon="16.5646183"><ele>162.66666666666669</ele><time>2026-04-19T08:43:01.633Z</time></trkpt><trkpt lat="41.1330633" lon="16.564855"><ele>162.33333333333334</ele><time>2026-04-19T08:43:02.633Z</time></trkpt><trkpt lat="41.133175" lon="16.5650983"><ele>162.0</ele><time>2026-04-19T08:43:03.633Z</time></trkpt><trkpt lat="41.1332883" lon="16.5653417"><ele>161.0</ele><time>2026-04-19T08:43:04.633Z</time></trkpt><trkpt lat="41.1333967" lon="16.5655733"><ele>160.0</ele><time>2026-04-19T08:43:05.633Z</time></trkpt><trkpt lat="41.1335" lon="16.5657983"><ele>159.0</ele><time>2026-04-19T08:43:06.634Z</time></trkpt><trkpt lat="41.1335967" lon="16.5660267"><ele>159.0</ele><time>2026-04-19T08:43:07.635Z</time></trkpt><trkpt lat="41.1336867" lon="16.5662633"><ele>159.0</ele><time>2026-04-19T08:43:08.634Z</time></trkpt><trkpt lat="41.1337683" lon="16.56651"><ele>159.0</ele><time>2026-04-19T08:43:09.634Z</time></trkpt><trkpt lat="41.133845" lon="16.56677"><ele>159.0</ele><time>2026-04-19T08:43:10.633Z</time></trkpt><trkpt lat="41.1339183" lon="16.5670383"><ele>159.0</ele><time>2026-04-19T08:43:11.633Z</time></trkpt><trkpt lat="41.133995" lon="16.56731"><ele>159.0</ele><time>2026-04-19T08:43:12.633Z</time></trkpt><trkpt lat="41.1340733" lon="16.56758"><ele>159.0</ele><time>2026-04-19T08:43:13.633Z</time></trkpt><trkpt lat="41.134145" lon="16.5678417"><ele>159.0</ele><time>2026-04-19T08:43:14.633Z</time></trkpt><trkpt lat="41.134215" lon="16.5680883"><ele>159.0</ele><time>2026-04-19T08:43:15.633Z</time></trkpt><trkpt lat="41.1342817" lon="16.568325"><ele>158.33333333333334</ele><time>2026-04-19T08:43:16.633Z</time></trkpt><trkpt lat="41.1343467" lon="16.5685617"><ele>157.66666666666669</ele><time>2026-04-19T08:43:17.634Z</time></trkpt><trkpt lat="41.13441" lon="16.5688"><ele>157.0</ele><time>2026-04-19T08:43:18.634Z</time></trkpt><trkpt lat="41.1344767" lon="16.5690483"><ele>156.66666666666669</ele><time>2026-04-19T08:43:19.633Z</time></trkpt><trkpt lat="41.13455" lon="16.5693017"><ele>156.33333333333334</ele><time>2026-04-19T08:43:20.633Z</time></trkpt><trkpt lat="41.1346267" lon="16.56956"><ele>156.0</ele><time>2026-04-19T08:43:21.633Z</time></trkpt><trkpt lat="41.134715" lon="16.569815"><ele>155.0</ele><time>2026-04-19T08:43:22.635Z</time></trkpt><trkpt lat="41.134815" lon="16.57007"><ele>154.0</ele><time>2026-04-19T08:43:23.633Z</time></trkpt><trkpt lat="41.13492" lon="16.5703267"><ele>153.0</ele><time>2026-04-19T08:43:24.633Z</time></trkpt><trkpt lat="41.1350167" lon="16.5705817"><ele>152.66666666666666</ele><time>2026-04-19T08:43:25.635Z</time></trkpt><trkpt lat="41.1350983" lon="16.5708267"><ele>152.33333333333331</ele><time>2026-04-19T08:43:26.634Z</time></trkpt><trkpt lat="41.1351583" lon="16.571065"><ele>152.0</ele><time>2026-04-19T08:43:27.633Z</time></trkpt><trkpt lat="41.1352033" lon="16.5712983"><ele>152.0</ele><time>2026-04-19T08:43:28.634Z</time></trkpt><trkpt lat="41.1352367" lon="16.57154"><ele>152.0</ele><time>2026-04-19T08:43:29.635Z</time></trkpt><trkpt lat="41.1352533" lon="16.5717883"><ele>152.0</ele><time>2026-04-19T08:43:30.633Z</time></trkpt><trkpt lat="41.1352533" lon="16.572045"><ele>151.33333333333331</ele><time>2026-04-19T08:43:31.633Z</time></trkpt><trkpt lat="41.1352367" lon="16.5723133"><ele>150.66666666666666</ele><time>2026-04-19T08:43:32.639Z</time></trkpt><trkpt lat="41.1352133" lon="16.57259"><ele>150.0</ele><time>2026-04-19T08:43:33.633Z</time></trkpt><trkpt lat="41.13519" lon="16.57287"><ele>150.0</ele><time>2026-04-19T08:43:34.633Z</time></trkpt><trkpt lat="41.1351633" lon="16.5731483"><ele>150.0</ele><time>2026-04-19T08:43:35.633Z</time></trkpt><trkpt lat="41.135125" lon="16.5734217"><ele>150.0</ele><time>2026-04-19T08:43:36.633Z</time></trkpt><trkpt lat="41.1350733" lon="16.573695"><ele>150.0</ele><time>2026-04-19T08:43:37.633Z</time></trkpt><trkpt lat="41.13501" lon="16.5739767"><ele>150.0</ele><time>2026-04-19T08:43:38.633Z</time></trkpt><trkpt lat="41.1349367" lon="16.5742617"><ele>150.0</ele><time>2026-04-19T08:43:39.634Z</time></trkpt><trkpt lat="41.134865" lon="16.57455"><ele>148.5</ele><time>2026-04-19T08:43:40.634Z</time></trkpt><trkpt lat="41.1347867" lon="16.5748433"><ele>147.0</ele><time>2026-04-19T08:43:41.635Z</time></trkpt><trkpt lat="41.1347083" lon="16.5751433"><ele>147.0</ele><time>2026-04-19T08:43:42.633Z</time></trkpt><trkpt lat="41.134625" lon="16.5754417"><ele>147.0</ele><time>2026-04-19T08:43:43.634Z</time></trkpt><trkpt lat="41.13454" lon="16.5757417"><ele>147.0</ele><time>2026-04-19T08:43:44.634Z</time></trkpt><trkpt lat="41.134455" lon="16.5760483"><ele>147.0</ele><time>2026-04-19T08:43:45.633Z</time></trkpt><trkpt lat="41.13437" lon="16.5763567"><ele>146.0</ele><time>2026-04-19T08:43:46.634Z</time></trkpt><trkpt lat="41.1342817" lon="16.5766717"><ele>145.0</ele><time>2026-04-19T08:43:47.634Z</time></trkpt><trkpt lat="41.1341883" lon="16.5769917"><ele>144.5</ele><time>2026-04-19T08:43:48.634Z</time></trkpt><trkpt lat="41.134095" lon="16.577315"><ele>144.0</ele><time>2026-04-19T08:43:49.633Z</time></trkpt><trkpt lat="41.1339967" lon="16.5776433"><ele>144.0</ele><time>2026-04-19T08:43:50.633Z</time></trkpt><trkpt lat="41.1338933" lon="16.577975"><ele>144.0</ele><time>2026-04-19T08:43:51.633Z</time></trkpt><trkpt lat="41.1337933" lon="16.5783117"><ele>144.0</ele><time>2026-04-19T08:43:52.633Z</time></trkpt><trkpt lat="41.1337017" lon="16.5786383"><ele>144.0</ele><time>2026-04-19T08:43:53.634Z</time></trkpt><trkpt lat="41.1336117" lon="16.5789483"><ele>143.5</ele><time>2026-04-19T08:43:54.633Z</time></trkpt><trkpt lat="41.1335267" lon="16.5792417"><ele>143.0</ele><time>2026-04-19T08:43:55.634Z</time></trkpt><trkpt lat="41.13345" lon="16.5795217"><ele>142.66666666666666</ele><time>2026-04-19T08:43:56.634Z</time></trkpt><trkpt lat="41.1333733" lon="16.5797883"><ele>142.33333333333334</ele><time>2026-04-19T08:43:57.633Z</time></trkpt><trkpt lat="41.1332967" lon="16.5800483"><ele>142.0</ele><time>2026-04-19T08:43:58.633Z</time></trkpt><trkpt lat="41.13322" lon="16.580305"><ele>141.66666666666669</ele><time>2026-04-19T08:43:59.633Z</time></trkpt><trkpt lat="41.1331433" lon="16.5805567"><ele>141.33333333333334</ele><time>2026-04-19T08:44:00.634Z</time></trkpt><trkpt lat="41.1330783" lon="16.580805"><ele>141.0</ele><time>2026-04-19T08:44:01.633Z</time></trkpt><trkpt lat="41.13302" lon="16.5810667"><ele>141.0</ele><time>2026-04-19T08:44:02.633Z</time></trkpt><trkpt lat="41.1329733" lon="16.58134"><ele>141.0</ele><time>2026-04-19T08:44:03.633Z</time></trkpt><trkpt lat="41.1329317" lon="16.5816217"><ele>141.0</ele><time>2026-04-19T08:44:04.635Z</time></trkpt><trkpt lat="41.1329017" lon="16.581915"><ele>141.33333333333334</ele><time>2026-04-19T08:44:05.634Z</time></trkpt><trkpt lat="41.132885" lon="16.58221"><ele>141.66666666666669</ele><time>2026-04-19T08:44:06.633Z</time></trkpt><trkpt lat="41.1328717" lon="16.5824933"><ele>142.0</ele><time>2026-04-19T08:44:07.633Z</time></trkpt><trkpt lat="41.1328483" lon="16.582765"><ele>141.33333333333334</ele><time>2026-04-19T08:44:08.633Z</time></trkpt><trkpt lat="41.13281" lon="16.58304"><ele>140.66666666666666</ele><time>2026-04-19T08:44:09.633Z</time></trkpt><trkpt lat="41.1327533" lon="16.5833183"><ele>140.0</ele><time>2026-04-19T08:44:10.634Z</time></trkpt><trkpt lat="41.1326767" lon="16.5835983"><ele>140.0</ele><time>2026-04-19T08:44:11.633Z</time></trkpt><trkpt lat="41.1325833" lon="16.5838783"><ele>140.0</ele><time>2026-04-19T08:44:12.634Z</time></trkpt><trkpt lat="41.1324783" lon="16.5841667"><ele>140.5</ele><time>2026-04-19T08:44:13.634Z</time></trkpt><trkpt lat="41.1323667" lon="16.58447"><ele>141.0</ele><time>2026-04-19T08:44:14.633Z</time></trkpt><trkpt lat="41.1322533" lon="16.5847783"><ele>141.0</ele><time>2026-04-19T08:44:15.634Z</time></trkpt><trkpt lat="41.1321283" lon="16.5850967"><ele>141.0</ele><time>2026-04-19T08:44:16.633Z</time></trkpt><trkpt lat="41.1320017" lon="16.5854017"><ele>141.5</ele><time>2026-04-19T08:44:17.633Z</time></trkpt><trkpt lat="41.1318817" lon="16.5856833"><ele>142.0</ele><time>2026-04-19T08:44:18.634Z</time></trkpt><trkpt lat="41.1317683" lon="16.5859483"><ele>142.66666666666669</ele><time>2026-04-19T08:44:19.633Z</time></trkpt><trkpt lat="41.1316583" lon="16.586205"><ele>143.33333333333334</ele><time>2026-04-19T08:44:20.634Z</time></trkpt><trkpt lat="41.1315517" lon="16.5864483"><ele>144.0</ele><time>2026-04-19T08:44:21.633Z</time></trkpt><trkpt lat="41.1314467" lon="16.586685"><ele>144.33333333333334</ele><time>2026-04-19T08:44:22.633Z</time></trkpt><trkpt lat="41.1313617" lon="16.586915"><ele>144.66666666666669</ele><time>2026-04-19T08:44:23.633Z</time></trkpt><trkpt lat="41.1312933" lon="16.587155"><ele>145.0</ele><time>2026-04-19T08:44:24.635Z</time></trkpt><trkpt lat="41.1312467" lon="16.5874167"><ele>145.0</ele><time>2026-04-19T08:44:25.633Z</time></trkpt><trkpt lat="41.1312217" lon="16.5876967"><ele>145.0</ele><time>2026-04-19T08:44:26.633Z</time></trkpt><trkpt lat="41.1312117" lon="16.58799"><ele>145.0</ele><time>2026-04-19T08:44:27.633Z</time></trkpt><trkpt lat="41.131215" lon="16.5882967"><ele>145.0</ele><time>2026-04-19T08:44:28.634Z</time></trkpt><trkpt lat="41.1312217" lon="16.588615"><ele>145.0</ele><time>2026-04-19T08:44:29.634Z</time></trkpt><trkpt lat="41.1312383" lon="16.588945"><ele>144.5</ele><time>2026-04-19T08:44:30.635Z</time></trkpt><trkpt lat="41.1312583" lon="16.5892883"><ele>144.0</ele><time>2026-04-19T08:44:31.634Z</time></trkpt><trkpt lat="41.1312833" lon="16.5896367"><ele>144.0</ele><time>2026-04-19T08:44:32.635Z</time></trkpt><trkpt lat="41.1313067" lon="16.5899833"><ele>144.0</ele><time>2026-04-19T08:44:33.634Z</time></trkpt><trkpt lat="41.13133" lon="16.5903217"><ele>144.0</ele><time>2026-04-19T08:44:34.634Z</time></trkpt><trkpt lat="41.13135" lon="16.5906483"><ele>144.0</ele><time>2026-04-19T08:44:35.638Z</time></trkpt><trkpt lat="41.131365" lon="16.59097"><ele>143.5</ele><time>2026-04-19T08:44:36.635Z</time></trkpt><trkpt lat="41.1313667" lon="16.5912983"><ele>143.0</ele><time>2026-04-19T08:44:37.634Z</time></trkpt><trkpt lat="41.131345" lon="16.5916333"><ele>143.0</ele><time>2026-04-19T08:44:38.635Z</time></trkpt><trkpt lat="41.1313067" lon="16.5919733"><ele>143.0</ele><time>2026-04-19T08:44:39.634Z</time></trkpt><trkpt lat="41.1312617" lon="16.5923133"><ele>142.5</ele><time>2026-04-19T08:44:40.634Z</time></trkpt><trkpt lat="41.1312217" lon="16.59266"><ele>142.0</ele><time>2026-04-19T08:44:41.636Z</time></trkpt><trkpt lat="41.13119" lon="16.5930017"><ele>142.0</ele><time>2026-04-19T08:44:42.634Z</time></trkpt><trkpt lat="41.131165" lon="16.59333"><ele>142.0</ele><time>2026-04-19T08:44:43.634Z</time></trkpt><trkpt lat="41.1311467" lon="16.59365"><ele>142.5</ele><time>2026-04-19T08:44:44.634Z</time></trkpt><trkpt lat="41.1311417" lon="16.5939567"><ele>143.0</ele><time>2026-04-19T08:44:45.633Z</time></trkpt><trkpt lat="41.13115" lon="16.5942683"><ele>143.0</ele><time>2026-04-19T08:44:46.634Z</time></trkpt><trkpt lat="41.1311683" lon="16.5945767"><ele>143.0</ele><time>2026-04-19T08:44:47.633Z</time></trkpt><trkpt lat="41.1311917" lon="16.5948733"><ele>143.0</ele><time>2026-04-19T08:44:48.633Z</time></trkpt><trkpt lat="41.1312117" lon="16.5951567"><ele>143.0</ele><time>2026-04-19T08:44:49.633Z</time></trkpt><trkpt lat="41.1312283" lon="16.5954367"><ele>143.0</ele><time>2026-04-19T08:44:50.634Z</time></trkpt><trkpt lat="41.13124" lon="16.5957183"><ele>142.66666666666666</ele><time>2026-04-19T08:44:51.633Z</time></trkpt><trkpt lat="41.1312433" lon="16.5959883"><ele>142.33333333333334</ele><time>2026-04-19T08:44:52.633Z</time></trkpt><trkpt lat="41.1312317" lon="16.5962433"><ele>142.0</ele><time>2026-04-19T08:44:53.634Z</time></trkpt><trkpt lat="41.131215" lon="16.5964867"><ele>142.0</ele><time>2026-04-19T08:44:54.633Z</time></trkpt><trkpt lat="41.1311883" lon="16.5967233"><ele>142.0</ele><time>2026-04-19T08:44:55.633Z</time></trkpt><trkpt lat="41.1311467" lon="16.596955"><ele>142.0</ele><time>2026-04-19T08:44:56.633Z</time></trkpt><trkpt lat="41.131095" lon="16.5971883"><ele>142.0</ele><time>2026-04-19T08:44:57.633Z</time></trkpt><trkpt lat="41.131035" lon="16.5974183"><ele>142.0</ele><time>2026-04-19T08:44:58.633Z</time></trkpt><trkpt lat="41.1309833" lon="16.5976383"><ele>142.0</ele><time>2026-04-19T08:44:59.634Z</time></trkpt><trkpt lat="41.1309383" lon="16.59785"><ele>142.0</ele><time>2026-04-19T08:45:00.633Z</time></trkpt><trkpt lat="41.13091" lon="16.59805"><ele>142.0</ele><time>2026-04-19T08:45:01.633Z</time></trkpt><trkpt lat="41.13089" lon="16.59825"><ele>142.0</ele><time>2026-04-19T08:45:02.633Z</time></trkpt><trkpt lat="41.13087" lon="16.598455"><ele>142.0</ele><time>2026-04-19T08:45:03.633Z</time></trkpt><trkpt lat="41.1308517" lon="16.5986533"><ele>142.0</ele><time>2026-04-19T08:45:04.633Z</time></trkpt><trkpt lat="41.1308283" lon="16.598845"><ele>142.0</ele><time>2026-04-19T08:45:05.633Z</time></trkpt><trkpt lat="41.1308117" lon="16.5990283"><ele>142.0</ele><time>2026-04-19T08:45:06.633Z</time></trkpt><trkpt lat="41.1307967" lon="16.599215"><ele>142.0</ele><time>2026-04-19T08:45:07.633Z</time></trkpt><trkpt lat="41.1307833" lon="16.5994083"><ele>142.0</ele><time>2026-04-19T08:45:08.634Z</time></trkpt><trkpt lat="41.1307667" lon="16.59961"><ele>142.0</ele><time>2026-04-19T08:45:09.638Z</time></trkpt><trkpt lat="41.130745" lon="16.5998233"><ele>142.0</ele><time>2026-04-19T08:45:10.633Z</time></trkpt><trkpt lat="41.1307167" lon="16.6000383"><ele>142.0</ele><time>2026-04-19T08:45:11.633Z</time></trkpt><trkpt lat="41.130685" lon="16.6002483"><ele>142.0</ele><time>2026-04-19T08:45:12.633Z</time></trkpt><trkpt lat="41.1306533" lon="16.60045"><ele>142.0</ele><time>2026-04-19T08:45:13.633Z</time></trkpt><trkpt lat="41.13062" lon="16.6006383"><ele>142.0</ele><time>2026-04-19T08:45:14.633Z</time></trkpt><trkpt lat="41.1305833" lon="16.60082"><ele>142.0</ele><time>2026-04-19T08:45:15.633Z</time></trkpt><trkpt lat="41.13055" lon="16.6010033"><ele>142.0</ele><time>2026-04-19T08:45:16.633Z</time></trkpt><trkpt lat="41.13052" lon="16.6011967"><ele>142.0</ele><time>2026-04-19T08:45:17.633Z</time></trkpt><trkpt lat="41.130485" lon="16.601395"><ele>142.0</ele><time>2026-04-19T08:45:18.633Z</time></trkpt><trkpt lat="41.130445" lon="16.601595"><ele>142.0</ele><time>2026-04-19T08:45:19.633Z</time></trkpt><trkpt lat="41.1304067" lon="16.60179"><ele>142.0</ele><time>2026-04-19T08:45:20.634Z</time></trkpt><trkpt lat="41.130375" lon="16.6019833"><ele>142.0</ele><time>2026-04-19T08:45:21.633Z</time></trkpt><trkpt lat="41.13034" lon="16.6021783"><ele>142.0</ele><time>2026-04-19T08:45:22.633Z</time></trkpt><trkpt lat="41.1303017" lon="16.6023667"><ele>142.0</ele><time>2026-04-19T08:45:23.633Z</time></trkpt><trkpt lat="41.1302683" lon="16.6025417"><ele>141.75</ele><time>2026-04-19T08:45:24.632Z</time></trkpt><trkpt lat="41.1302333" lon="16.6027117"><ele>141.5</ele><time>2026-04-19T08:45:25.634Z</time></trkpt><trkpt lat="41.1302" lon="16.6028867"><ele>141.25</ele><time>2026-04-19T08:45:26.635Z</time></trkpt><trkpt lat="41.13017" lon="16.603065"><ele>141.0</ele><time>2026-04-19T08:45:27.634Z</time></trkpt><trkpt lat="41.1301367" lon="16.603245"><ele>141.5</ele><time>2026-04-19T08:45:28.633Z</time></trkpt><trkpt lat="41.1300967" lon="16.6034233"><ele>142.0</ele><time>2026-04-19T08:45:29.633Z</time></trkpt><trkpt lat="41.1300533" lon="16.6036017"><ele>142.5</ele><time>2026-04-19T08:45:30.634Z</time></trkpt><trkpt lat="41.13001" lon="16.60377"><ele>143.0</ele><time>2026-04-19T08:45:31.633Z</time></trkpt><trkpt lat="41.129965" lon="16.6039283"><ele>143.25</ele><time>2026-04-19T08:45:32.636Z</time></trkpt><trkpt lat="41.1299217" lon="16.6040783"><ele>143.5</ele><time>2026-04-19T08:45:33.632Z</time></trkpt><trkpt lat="41.129875" lon="16.6042383"><ele>143.75</ele><time>2026-04-19T08:45:34.633Z</time></trkpt><trkpt lat="41.12983" lon="16.60441"><ele>144.0</ele><time>2026-04-19T08:45:35.635Z</time></trkpt><trkpt lat="41.12979" lon="16.60459"><ele>144.33333333333334</ele><time>2026-04-19T08:45:36.634Z</time></trkpt><trkpt lat="41.1297483" lon="16.6047783"><ele>144.66666666666669</ele><time>2026-04-19T08:45:37.634Z</time></trkpt><trkpt lat="41.1297067" lon="16.604975"><ele>145.0</ele><time>2026-04-19T08:45:38.635Z</time></trkpt><trkpt lat="41.129665" lon="16.6051767"><ele>144.66666666666669</ele><time>2026-04-19T08:45:39.634Z</time></trkpt><trkpt lat="41.129625" lon="16.60538"><ele>144.33333333333334</ele><time>2026-04-19T08:45:40.635Z</time></trkpt><trkpt lat="41.1295833" lon="16.6055833"><ele>144.0</ele><time>2026-04-19T08:45:41.636Z</time></trkpt><trkpt lat="41.12954" lon="16.6057883"><ele>144.0</ele><time>2026-04-19T08:45:42.633Z</time></trkpt><trkpt lat="41.1294967" lon="16.6059933"><ele>144.0</ele><time>2026-04-19T08:45:43.636Z</time></trkpt><trkpt lat="41.129455" lon="16.6061983"><ele>144.0</ele><time>2026-04-19T08:45:44.635Z</time></trkpt><trkpt lat="41.1294117" lon="16.6064033"><ele>143.66666666666666</ele><time>2026-04-19T08:45:45.633Z</time></trkpt><trkpt lat="41.1293717" lon="16.6066017"><ele>143.33333333333331</ele><time>2026-04-19T08:45:46.633Z</time></trkpt><trkpt lat="41.1293267" lon="16.6067983"><ele>143.0</ele><time>2026-04-19T08:45:47.633Z</time></trkpt><trkpt lat="41.1292817" lon="16.60699"><ele>142.5</ele><time>2026-04-19T08:45:48.633Z</time></trkpt><trkpt lat="41.1292367" lon="16.607175"><ele>142.0</ele><time>2026-04-19T08:45:49.633Z</time></trkpt><trkpt lat="41.1291917" lon="16.6073583"><ele>141.5</ele><time>2026-04-19T08:45:50.633Z</time></trkpt><trkpt lat="41.129145" lon="16.60755"><ele>141.0</ele><time>2026-04-19T08:45:51.634Z</time></trkpt><trkpt lat="41.1290967" lon="16.6077483"><ele>141.33333333333334</ele><time>2026-04-19T08:45:52.633Z</time></trkpt><trkpt lat="41.1290417" lon="16.60796"><ele>141.66666666666669</ele><time>2026-04-19T08:45:53.633Z</time></trkpt><trkpt lat="41.1289833" lon="16.608175"><ele>142.0</ele><time>2026-04-19T08:45:54.633Z</time></trkpt><trkpt lat="41.1289267" lon="16.6083883"><ele>142.0</ele><time>2026-04-19T08:45:55.635Z</time></trkpt><trkpt lat="41.12887" lon="16.6085933"><ele>142.0</ele><time>2026-04-19T08:45:56.634Z</time></trkpt><trkpt lat="41.1288133" lon="16.6087983"><ele>142.0</ele><time>2026-04-19T08:45:57.633Z</time></trkpt><trkpt lat="41.1287617" lon="16.6090067"><ele>142.0</ele><time>2026-04-19T08:45:58.634Z</time></trkpt><trkpt lat="41.1287167" lon="16.6092233"><ele>142.0</ele><time>2026-04-19T08:45:59.633Z</time></trkpt><trkpt lat="41.12867" lon="16.6094467"><ele>142.0</ele><time>2026-04-19T08:46:00.633Z</time></trkpt><trkpt lat="41.1286283" lon="16.6096733"><ele>141.0</ele><time>2026-04-19T08:46:01.634Z</time></trkpt><trkpt lat="41.1285983" lon="16.6098933"><ele>140.0</ele><time>2026-04-19T08:46:02.635Z</time></trkpt><trkpt lat="41.1285733" lon="16.61011"><ele>139.0</ele><time>2026-04-19T08:46:03.633Z</time></trkpt><trkpt lat="41.1285517" lon="16.6103267"><ele>138.66666666666669</ele><time>2026-04-19T08:46:04.633Z</time></trkpt><trkpt lat="41.12853" lon="16.6105467"><ele>138.33333333333334</ele><time>2026-04-19T08:46:05.633Z</time></trkpt><trkpt lat="41.1285067" lon="16.61077"><ele>138.0</ele><time>2026-04-19T08:46:06.633Z</time></trkpt><trkpt lat="41.12849" lon="16.6110067"><ele>138.0</ele><time>2026-04-19T08:46:07.635Z</time></trkpt><trkpt lat="41.12847" lon="16.6112483"><ele>138.0</ele><time>2026-04-19T08:46:08.634Z</time></trkpt><trkpt lat="41.12844" lon="16.6114833"><ele>138.0</ele><time>2026-04-19T08:46:09.634Z</time></trkpt><trkpt lat="41.1284083" lon="16.6117167"><ele>138.0</ele><time>2026-04-19T08:46:10.634Z</time></trkpt><trkpt lat="41.1283783" lon="16.61195"><ele>138.0</ele><time>2026-04-19T08:46:11.634Z</time></trkpt><trkpt lat="41.1283517" lon="16.61217"><ele>138.0</ele><time>2026-04-19T08:46:12.634Z</time></trkpt><trkpt lat="41.1283333" lon="16.6123717"><ele>138.0</ele><time>2026-04-19T08:46:13.635Z</time></trkpt><trkpt lat="41.1283133" lon="16.6125617"><ele>138.0</ele><time>2026-04-19T08:46:14.634Z</time></trkpt><trkpt lat="41.1283" lon="16.6127483"><ele>138.0</ele><time>2026-04-19T08:46:15.633Z</time></trkpt><trkpt lat="41.1282867" lon="16.61295"><ele>138.0</ele><time>2026-04-19T08:46:16.634Z</time></trkpt><trkpt lat="41.128275" lon="16.613165"><ele>138.33333333333334</ele><time>2026-04-19T08:46:17.633Z</time></trkpt><trkpt lat="41.1282567" lon="16.61338"><ele>138.66666666666669</ele><time>2026-04-19T08:46:18.633Z</time></trkpt><trkpt lat="41.12824" lon="16.613585"><ele>139.0</ele><time>2026-04-19T08:46:19.633Z</time></trkpt><trkpt lat="41.1282233" lon="16.61379"><ele>138.33333333333334</ele><time>2026-04-19T08:46:20.633Z</time></trkpt><trkpt lat="41.1282067" lon="16.6140017"><ele>137.66666666666666</ele><time>2026-04-19T08:46:21.633Z</time></trkpt><trkpt lat="41.1281933" lon="16.6142083"><ele>137.0</ele><time>2026-04-19T08:46:22.632Z</time></trkpt><trkpt lat="41.1281783" lon="16.614405"><ele>137.0</ele><time>2026-04-19T08:46:23.633Z</time></trkpt><trkpt lat="41.12817" lon="16.6146017"><ele>137.0</ele><time>2026-04-19T08:46:24.633Z</time></trkpt><trkpt lat="41.1281683" lon="16.614805"><ele>137.0</ele><time>2026-04-19T08:46:25.633Z</time></trkpt><trkpt lat="41.1281767" lon="16.615015"><ele>137.0</ele><time>2026-04-19T08:46:26.634Z</time></trkpt><trkpt lat="41.1282017" lon="16.615225"><ele>137.0</ele><time>2026-04-19T08:46:27.633Z</time></trkpt><trkpt lat="41.128235" lon="16.6154267"><ele>137.0</ele><time>2026-04-19T08:46:28.634Z</time></trkpt><trkpt lat="41.1282617" lon="16.615615"><ele>137.5</ele><time>2026-04-19T08:46:29.633Z</time></trkpt><trkpt lat="41.12828" lon="16.615795"><ele>138.0</ele><time>2026-04-19T08:46:30.634Z</time></trkpt><trkpt lat="41.1283" lon="16.61597"><ele>138.5</ele><time>2026-04-19T08:46:31.633Z</time></trkpt><trkpt lat="41.1283217" lon="16.61615"><ele>139.0</ele><time>2026-04-19T08:46:32.633Z</time></trkpt><trkpt lat="41.1283433" lon="16.6163317"><ele>139.25</ele><time>2026-04-19T08:46:33.634Z</time></trkpt><trkpt lat="41.1283667" lon="16.6165117"><ele>139.5</ele><time>2026-04-19T08:46:34.635Z</time></trkpt><trkpt lat="41.1283917" lon="16.6166883"><ele>139.75</ele><time>2026-04-19T08:46:35.634Z</time></trkpt><trkpt lat="41.128415" lon="16.6168683"><ele>140.0</ele><time>2026-04-19T08:46:36.634Z</time></trkpt><trkpt lat="41.1284417" lon="16.617055"><ele>140.66666666666666</ele><time>2026-04-19T08:46:37.634Z</time></trkpt><trkpt lat="41.128465" lon="16.6172483"><ele>141.33333333333334</ele><time>2026-04-19T08:46:38.633Z</time></trkpt><trkpt lat="41.128495" lon="16.6174467"><ele>142.0</ele><time>2026-04-19T08:46:39.632Z</time></trkpt><trkpt lat="41.12854" lon="16.6176417"><ele>142.0</ele><time>2026-04-19T08:46:40.633Z</time></trkpt><trkpt lat="41.128605" lon="16.6178417"><ele>142.0</ele><time>2026-04-19T08:46:41.633Z</time></trkpt><trkpt lat="41.1286917" lon="16.6180483"><ele>142.0</ele><time>2026-04-19T08:46:42.632Z</time></trkpt><trkpt lat="41.12879" lon="16.6182633"><ele>142.0</ele><time>2026-04-19T08:46:43.634Z</time></trkpt><trkpt lat="41.1288967" lon="16.6184967"><ele>142.0</ele><time>2026-04-19T08:46:44.634Z</time></trkpt><trkpt lat="41.1290017" lon="16.61873"><ele>142.0</ele><time>2026-04-19T08:46:45.633Z</time></trkpt><trkpt lat="41.1290983" lon="16.6189533"><ele>141.33333333333334</ele><time>2026-04-19T08:46:46.634Z</time></trkpt><trkpt lat="41.129185" lon="16.619165"><ele>140.66666666666666</ele><time>2026-04-19T08:46:47.633Z</time></trkpt><trkpt lat="41.1292683" lon="16.619365"><ele>140.0</ele><time>2026-04-19T08:46:48.633Z</time></trkpt><trkpt lat="41.1293517" lon="16.619555"><ele>140.0</ele><time>2026-04-19T08:46:49.634Z</time></trkpt><trkpt lat="41.1294383" lon="16.6197317"><ele>140.0</ele><time>2026-04-19T08:46:50.635Z</time></trkpt><trkpt lat="41.1295267" lon="16.61989"><ele>140.0</ele><time>2026-04-19T08:46:51.634Z</time></trkpt><trkpt lat="41.1296183" lon="16.6200333"><ele>140.0</ele><time>2026-04-19T08:46:52.635Z</time></trkpt><trkpt lat="41.1297183" lon="16.6201517"><ele>140.0</ele><time>2026-04-19T08:46:53.634Z</time></trkpt><trkpt lat="41.129825" lon="16.6202617"><ele>140.0</ele><time>2026-04-19T08:46:54.635Z</time></trkpt><trkpt lat="41.1299483" lon="16.6203533"><ele>140.0</ele><time>2026-04-19T08:46:55.634Z</time></trkpt><trkpt lat="41.1300833" lon="16.620425"><ele>140.0</ele><time>2026-04-19T08:46:56.633Z</time></trkpt><trkpt lat="41.1302217" lon="16.620485"><ele>139.33333333333331</ele><time>2026-04-19T08:46:57.634Z</time></trkpt><trkpt lat="41.1303633" lon="16.6205383"><ele>138.66666666666666</ele><time>2026-04-19T08:46:58.633Z</time></trkpt><trkpt lat="41.13051" lon="16.62059"><ele>138.0</ele><time>2026-04-19T08:46:59.634Z</time></trkpt><trkpt lat="41.13066" lon="16.6206333"><ele>137.66666666666666</ele><time>2026-04-19T08:47:00.633Z</time></trkpt><trkpt lat="41.1308167" lon="16.6206717"><ele>137.33333333333331</ele><time>2026-04-19T08:47:01.636Z</time></trkpt><trkpt lat="41.1309667" lon="16.62071"><ele>137.0</ele><time>2026-04-19T08:47:02.636Z</time></trkpt><trkpt lat="41.1311183" lon="16.6207483"><ele>137.0</ele><time>2026-04-19T08:47:03.633Z</time></trkpt><trkpt lat="41.131285" lon="16.6207867"><ele>137.0</ele><time>2026-04-19T08:47:04.633Z</time></trkpt><trkpt lat="41.13147" lon="16.620825"><ele>137.0</ele><time>2026-04-19T08:47:05.637Z</time></trkpt><trkpt lat="41.1316717" lon="16.620875"><ele>136.33333333333331</ele><time>2026-04-19T08:47:06.633Z</time></trkpt><trkpt lat="41.131885" lon="16.620935"><ele>135.66666666666666</ele><time>2026-04-19T08:47:07.634Z</time></trkpt><trkpt lat="41.1321033" lon="16.6210033"><ele>135.0</ele><time>2026-04-19T08:47:08.636Z</time></trkpt><trkpt lat="41.1323333" lon="16.6210733"><ele>133.5</ele><time>2026-04-19T08:47:09.633Z</time></trkpt><trkpt lat="41.132575" lon="16.62114"><ele>132.0</ele><time>2026-04-19T08:47:10.633Z</time></trkpt><trkpt lat="41.13283" lon="16.6212033"><ele>130.5</ele><time>2026-04-19T08:47:11.634Z</time></trkpt><trkpt lat="41.1330933" lon="16.6212683"><ele>129.0</ele><time>2026-04-19T08:47:12.633Z</time></trkpt><trkpt lat="41.133365" lon="16.621335"><ele>128.0</ele><time>2026-04-19T08:47:13.634Z</time></trkpt><trkpt lat="41.13364" lon="16.6214"><ele>127.0</ele><time>2026-04-19T08:47:14.635Z</time></trkpt><trkpt lat="41.133915" lon="16.6214583"><ele>126.5</ele><time>2026-04-19T08:47:15.633Z</time></trkpt><trkpt lat="41.1341817" lon="16.621505"><ele>126.0</ele><time>2026-04-19T08:47:16.633Z</time></trkpt><trkpt lat="41.134435" lon="16.6215417"><ele>126.0</ele><time>2026-04-19T08:47:17.633Z</time></trkpt><trkpt lat="41.1346817" lon="16.62157"><ele>126.0</ele><time>2026-04-19T08:47:18.633Z</time></trkpt><trkpt lat="41.13493" lon="16.6216"><ele>124.0</ele><time>2026-04-19T08:47:19.633Z</time></trkpt><trkpt lat="41.1351817" lon="16.62164"><ele>122.0</ele><time>2026-04-19T08:47:20.635Z</time></trkpt><trkpt lat="41.1354367" lon="16.6216933"><ele>122.0</ele><time>2026-04-19T08:47:21.633Z</time></trkpt><trkpt lat="41.1356933" lon="16.621765"><ele>122.0</ele><time>2026-04-19T08:47:22.633Z</time></trkpt><trkpt lat="41.13595" lon="16.62185"><ele>122.0</ele><time>2026-04-19T08:47:23.633Z</time></trkpt><trkpt lat="41.1362083" lon="16.6219467"><ele>122.0</ele><time>2026-04-19T08:47:24.634Z</time></trkpt><trkpt lat="41.1364583" lon="16.6220517"><ele>122.5</ele><time>2026-04-19T08:47:25.635Z</time></trkpt><trkpt lat="41.1367" lon="16.62215"><ele>123.0</ele><time>2026-04-19T08:47:26.634Z</time></trkpt><trkpt lat="41.1369167" lon="16.6222383"><ele>123.0</ele><time>2026-04-19T08:47:27.633Z</time></trkpt><trkpt lat="41.13711" lon="16.6223167"><ele>123.0</ele><time>2026-04-19T08:47:28.633Z</time></trkpt><trkpt lat="41.1372817" lon="16.6223933"><ele>123.0</ele><time>2026-04-19T08:47:29.634Z</time></trkpt><trkpt lat="41.1374333" lon="16.6224767"><ele>123.33333333333334</ele><time>2026-04-19T08:47:30.633Z</time></trkpt><trkpt lat="41.1375733" lon="16.62256"><ele>123.66666666666667</ele><time>2026-04-19T08:47:31.634Z</time></trkpt><trkpt lat="41.1377033" lon="16.6226717"><ele>124.0</ele><time>2026-04-19T08:47:32.633Z</time></trkpt><trkpt lat="41.1378217" lon="16.62284"><ele>123.0</ele><time>2026-04-19T08:47:33.633Z</time></trkpt><trkpt lat="41.13794" lon="16.62304"><ele>122.0</ele><time>2026-04-19T08:47:34.633Z</time></trkpt><trkpt lat="41.1380617" lon="16.62326"><ele>121.0</ele><time>2026-04-19T08:47:35.634Z</time></trkpt><trkpt lat="41.1381917" lon="16.6234917"><ele>120.5</ele><time>2026-04-19T08:47:36.634Z</time></trkpt><trkpt lat="41.13832" lon="16.623745"><ele>120.0</ele><time>2026-04-19T08:47:37.633Z</time></trkpt><trkpt lat="41.1384567" lon="16.6240083"><ele>120.0</ele><time>2026-04-19T08:47:38.633Z</time></trkpt><trkpt lat="41.1386" lon="16.624285"><ele>120.0</ele><time>2026-04-19T08:47:39.633Z</time></trkpt><trkpt lat="41.13875" lon="16.624565"><ele>119.0</ele><time>2026-04-19T08:47:40.633Z</time></trkpt><trkpt lat="41.138905" lon="16.6248517"><ele>118.0</ele><time>2026-04-19T08:47:41.633Z</time></trkpt><trkpt lat="41.1390617" lon="16.6251433"><ele>117.5</ele><time>2026-04-19T08:47:42.634Z</time></trkpt><trkpt lat="41.13922" lon="16.6254417"><ele>117.0</ele><time>2026-04-19T08:47:43.633Z</time></trkpt><trkpt lat="41.13938" lon="16.6257417"><ele>117.0</ele><time>2026-04-19T08:47:44.634Z</time></trkpt><trkpt lat="41.1395367" lon="16.6260333"><ele>117.0</ele><time>2026-04-19T08:47:45.633Z</time></trkpt><trkpt lat="41.1396933" lon="16.6263183"><ele>116.5</ele><time>2026-04-19T08:47:46.633Z</time></trkpt><trkpt lat="41.1398517" lon="16.6266033"><ele>116.0</ele><time>2026-04-19T08:47:47.635Z</time></trkpt><trkpt lat="41.1400117" lon="16.62689"><ele>114.0</ele><time>2026-04-19T08:47:48.633Z</time></trkpt><trkpt lat="41.140175" lon="16.62718"><ele>112.0</ele><time>2026-04-19T08:47:49.633Z</time></trkpt><trkpt lat="41.1403317" lon="16.6274667"><ele>112.0</ele><time>2026-04-19T08:47:50.634Z</time></trkpt><trkpt lat="41.14048" lon="16.62774"><ele>112.0</ele><time>2026-04-19T08:47:51.633Z</time></trkpt><trkpt lat="41.14062" lon="16.627995"><ele>111.33333333333334</ele><time>2026-04-19T08:47:52.633Z</time></trkpt><trkpt lat="41.14075" lon="16.628225"><ele>110.66666666666666</ele><time>2026-04-19T08:47:53.635Z</time></trkpt><trkpt lat="41.1408633" lon="16.62843"><ele>110.0</ele><time>2026-04-19T08:47:54.633Z</time></trkpt><trkpt lat="41.1409683" lon="16.6286217"><ele>109.66666666666666</ele><time>2026-04-19T08:47:55.633Z</time></trkpt><trkpt lat="41.1410683" lon="16.6287983"><ele>109.33333333333334</ele><time>2026-04-19T08:47:56.634Z</time></trkpt><trkpt lat="41.14116" lon="16.628965"><ele>109.0</ele><time>2026-04-19T08:47:57.633Z</time></trkpt><trkpt lat="41.141245" lon="16.6291217"><ele>109.0</ele><time>2026-04-19T08:47:58.633Z</time></trkpt><trkpt lat="41.1413183" lon="16.62926"><ele>109.0</ele><time>2026-04-19T08:47:59.633Z</time></trkpt><trkpt lat="41.14138" lon="16.6293783"><ele>109.0</ele><time>2026-04-19T08:48:00.633Z</time></trkpt><trkpt lat="41.14143" lon="16.62948"><ele>109.0</ele><time>2026-04-19T08:48:01.633Z</time></trkpt><trkpt lat="41.1414717" lon="16.6295567"><ele>109.0</ele><time>2026-04-19T08:48:02.635Z</time></trkpt><trkpt lat="41.1415133" lon="16.6296233"><ele>109.00000000000001</ele><time>2026-04-19T08:48:04.635Z</time></trkpt><trkpt lat="41.1415833" lon="16.6296683"><ele>109.0</ele><time>2026-04-19T08:48:09.633Z</time></trkpt><trkpt lat="41.1416467" lon="16.629695"><ele>109.0</ele><time>2026-04-19T08:48:10.633Z</time></trkpt><trkpt lat="41.1417317" lon="16.62973"><ele>109.0</ele><time>2026-04-19T08:48:11.633Z</time></trkpt><trkpt lat="41.1418267" lon="16.6297567"><ele>109.00000000000001</ele><time>2026-04-19T08:48:12.633Z</time></trkpt><trkpt lat="41.1419417" lon="16.6297667"><ele>109.0</ele><time>2026-04-19T08:48:13.634Z</time></trkpt><trkpt lat="41.1420683" lon="16.6297783"><ele>109.0</ele><time>2026-04-19T08:48:14.634Z</time></trkpt><trkpt lat="41.1422083" lon="16.6297917"><ele>109.0</ele><time>2026-04-19T08:48:15.633Z</time></trkpt><trkpt lat="41.14236" lon="16.6298083"><ele>109.0</ele><time>2026-04-19T08:48:16.634Z</time></trkpt><trkpt lat="41.142515" lon="16.6298283"><ele>109.0</ele><time>2026-04-19T08:48:17.633Z</time></trkpt><trkpt lat="41.14268" lon="16.62985"><ele>108.0</ele><time>2026-04-19T08:48:18.634Z</time></trkpt><trkpt lat="41.1428533" lon="16.6298817"><ele>107.0</ele><time>2026-04-19T08:48:19.633Z</time></trkpt><trkpt lat="41.1430367" lon="16.6299233"><ele>106.0</ele><time>2026-04-19T08:48:20.633Z</time></trkpt><trkpt lat="41.1432233" lon="16.62998"><ele>106.0</ele><time>2026-04-19T08:48:21.633Z</time></trkpt><trkpt lat="41.143415" lon="16.6300533"><ele>106.0</ele><time>2026-04-19T08:48:22.634Z</time></trkpt><trkpt lat="41.1436117" lon="16.63013"><ele>106.0</ele><time>2026-04-19T08:48:23.634Z</time></trkpt><trkpt lat="41.14381" lon="16.63021"><ele>106.0</ele><time>2026-04-19T08:48:24.635Z</time></trkpt><trkpt lat="41.1440133" lon="16.63029"><ele>106.0</ele><time>2026-04-19T08:48:25.633Z</time></trkpt><trkpt lat="41.1442233" lon="16.630375"><ele>106.0</ele><time>2026-04-19T08:48:26.635Z</time></trkpt><trkpt lat="41.1444383" lon="16.6304617"><ele>105.0</ele><time>2026-04-19T08:48:27.633Z</time></trkpt><trkpt lat="41.14466" lon="16.6305483"><ele>104.0</ele><time>2026-04-19T08:48:28.634Z</time></trkpt><trkpt lat="41.1448883" lon="16.6306317"><ele>103.5</ele><time>2026-04-19T08:48:29.633Z</time></trkpt><trkpt lat="41.145125" lon="16.6307133"><ele>103.0</ele><time>2026-04-19T08:48:30.633Z</time></trkpt><trkpt lat="41.145365" lon="16.6308033"><ele>103.0</ele><time>2026-04-19T08:48:31.633Z</time></trkpt><trkpt lat="41.1456067" lon="16.6309"><ele>103.0</ele><time>2026-04-19T08:48:32.635Z</time></trkpt><trkpt lat="41.1458433" lon="16.63101"><ele>101.5</ele><time>2026-04-19T08:48:33.635Z</time></trkpt><trkpt lat="41.1460733" lon="16.6311217"><ele>100.0</ele><time>2026-04-19T08:48:34.633Z</time></trkpt><trkpt lat="41.1462883" lon="16.6312267"><ele>100.0</ele><time>2026-04-19T08:48:35.633Z</time></trkpt><trkpt lat="41.1464933" lon="16.6313233"><ele>100.0</ele><time>2026-04-19T08:48:36.634Z</time></trkpt><trkpt lat="41.14669" lon="16.6314133"><ele>100.0</ele><time>2026-04-19T08:48:37.633Z</time></trkpt><trkpt lat="41.1468767" lon="16.6315017"><ele>98.66666666666667</ele><time>2026-04-19T08:48:38.634Z</time></trkpt><trkpt lat="41.1470633" lon="16.63159"><ele>97.33333333333334</ele><time>2026-04-19T08:48:39.633Z</time></trkpt><trkpt lat="41.147255" lon="16.6316817"><ele>96.0</ele><time>2026-04-19T08:48:40.634Z</time></trkpt><trkpt lat="41.1474433" lon="16.631785"><ele>95.33333333333333</ele><time>2026-04-19T08:48:41.634Z</time></trkpt><trkpt lat="41.1476367" lon="16.6318983"><ele>94.66666666666666</ele><time>2026-04-19T08:48:42.634Z</time></trkpt><trkpt lat="41.1478333" lon="16.63202"><ele>94.0</ele><time>2026-04-19T08:48:43.637Z</time></trkpt><trkpt lat="41.1480333" lon="16.6321517"><ele>92.5</ele><time>2026-04-19T08:48:44.635Z</time></trkpt><trkpt lat="41.14824" lon="16.6322883"><ele>91.0</ele><time>2026-04-19T08:48:45.633Z</time></trkpt><trkpt lat="41.1484533" lon="16.6324283"><ele>91.0</ele><time>2026-04-19T08:48:46.633Z</time></trkpt><trkpt lat="41.1486767" lon="16.6325767"><ele>91.0</ele><time>2026-04-19T08:48:47.634Z</time></trkpt><trkpt lat="41.148895" lon="16.6327217"><ele>89.5</ele><time>2026-04-19T08:48:48.633Z</time></trkpt><trkpt lat="41.1491033" lon="16.63286"><ele>88.0</ele><time>2026-04-19T08:48:49.634Z</time></trkpt><trkpt lat="41.149305" lon="16.632995"><ele>88.0</ele><time>2026-04-19T08:48:50.634Z</time></trkpt><trkpt lat="41.1495033" lon="16.633125"><ele>88.0</ele><time>2026-04-19T08:48:51.633Z</time></trkpt><trkpt lat="41.1496917" lon="16.6332533"><ele>88.0</ele><time>2026-04-19T08:48:52.635Z</time></trkpt><trkpt lat="41.1498833" lon="16.6333633"><ele>87.33333333333333</ele><time>2026-04-19T08:48:53.633Z</time></trkpt><trkpt lat="41.1500517" lon="16.633485"><ele>86.66666666666667</ele><time>2026-04-19T08:48:54.633Z</time></trkpt><trkpt lat="41.15021" lon="16.6336133"><ele>86.0</ele><time>2026-04-19T08:48:55.634Z</time></trkpt><trkpt lat="41.1503617" lon="16.6337567"><ele>85.66666666666667</ele><time>2026-04-19T08:48:56.634Z</time></trkpt><trkpt lat="41.150505" lon="16.6339283"><ele>85.33333333333333</ele><time>2026-04-19T08:48:57.633Z</time></trkpt><trkpt lat="41.1506467" lon="16.634125"><ele>85.0</ele><time>2026-04-19T08:48:58.634Z</time></trkpt><trkpt lat="41.1507883" lon="16.634345"><ele>84.5</ele><time>2026-04-19T08:48:59.633Z</time></trkpt><trkpt lat="41.1509317" lon="16.634575"><ele>84.0</ele><time>2026-04-19T08:49:00.634Z</time></trkpt><trkpt lat="41.1510783" lon="16.634815"><ele>84.0</ele><time>2026-04-19T08:49:01.633Z</time></trkpt><trkpt lat="41.1512317" lon="16.6350567"><ele>84.0</ele><time>2026-04-19T08:49:02.634Z</time></trkpt><trkpt lat="41.15138" lon="16.6352933"><ele>83.66666666666667</ele><time>2026-04-19T08:49:03.633Z</time></trkpt><trkpt lat="41.1515183" lon="16.6355183"><ele>83.33333333333334</ele><time>2026-04-19T08:49:04.634Z</time></trkpt><trkpt lat="41.15165" lon="16.635735"><ele>83.0</ele><time>2026-04-19T08:49:05.633Z</time></trkpt><trkpt lat="41.1517783" lon="16.6359483"><ele>82.0</ele><time>2026-04-19T08:49:06.633Z</time></trkpt><trkpt lat="41.1519117" lon="16.636165"><ele>81.0</ele><time>2026-04-19T08:49:07.633Z</time></trkpt><trkpt lat="41.15205" lon="16.6363783"><ele>80.0</ele><time>2026-04-19T08:49:08.634Z</time></trkpt><trkpt lat="41.1521983" lon="16.6365833"><ele>80.0</ele><time>2026-04-19T08:49:09.634Z</time></trkpt><trkpt lat="41.152365" lon="16.63677"><ele>80.0</ele><time>2026-04-19T08:49:10.633Z</time></trkpt><trkpt lat="41.1525517" lon="16.63694"><ele>80.0</ele><time>2026-04-19T08:49:11.634Z</time></trkpt><trkpt lat="41.1527567" lon="16.637095"><ele>79.5</ele><time>2026-04-19T08:49:12.633Z</time></trkpt><trkpt lat="41.1529633" lon="16.637255"><ele>79.0</ele><time>2026-04-19T08:49:13.633Z</time></trkpt><trkpt lat="41.1531817" lon="16.6374167"><ele>78.0</ele><time>2026-04-19T08:49:14.636Z</time></trkpt><trkpt lat="41.1534033" lon="16.6375933"><ele>77.0</ele><time>2026-04-19T08:49:15.633Z</time></trkpt><trkpt lat="41.1536283" lon="16.63777"><ele>76.0</ele><time>2026-04-19T08:49:16.634Z</time></trkpt><trkpt lat="41.1538567" lon="16.63795"><ele>75.0</ele><time>2026-04-19T08:49:17.633Z</time></trkpt><trkpt lat="41.1540817" lon="16.6381283"><ele>74.5</ele><time>2026-04-19T08:49:18.633Z</time></trkpt><trkpt lat="41.1542967" lon="16.638295"><ele>74.0</ele><time>2026-04-19T08:49:19.633Z</time></trkpt><trkpt lat="41.154505" lon="16.638455"><ele>74.0</ele><time>2026-04-19T08:49:20.634Z</time></trkpt><trkpt lat="41.1547083" lon="16.6386117"><ele>74.0</ele><time>2026-04-19T08:49:21.633Z</time></trkpt><trkpt lat="41.15491" lon="16.6387617"><ele>73.5</ele><time>2026-04-19T08:49:22.634Z</time></trkpt><trkpt lat="41.1551167" lon="16.638905"><ele>73.0</ele><time>2026-04-19T08:49:23.634Z</time></trkpt><trkpt lat="41.1553267" lon="16.63904"><ele>73.0</ele><time>2026-04-19T08:49:24.633Z</time></trkpt><trkpt lat="41.155535" lon="16.6391667"><ele>73.0</ele><time>2026-04-19T08:49:25.636Z</time></trkpt><trkpt lat="41.1557383" lon="16.6392917"><ele>72.66666666666666</ele><time>2026-04-19T08:49:26.635Z</time></trkpt><trkpt lat="41.1559333" lon="16.6394133"><ele>72.33333333333333</ele><time>2026-04-19T08:49:27.634Z</time></trkpt><trkpt lat="41.1561283" lon="16.6395367"><ele>72.0</ele><time>2026-04-19T08:49:28.634Z</time></trkpt><trkpt lat="41.1563267" lon="16.639655"><ele>72.0</ele><time>2026-04-19T08:49:29.635Z</time></trkpt><trkpt lat="41.1565283" lon="16.6397583"><ele>72.0</ele><time>2026-04-19T08:49:30.635Z</time></trkpt><trkpt lat="41.156735" lon="16.6398417"><ele>72.0</ele><time>2026-04-19T08:49:31.634Z</time></trkpt><trkpt lat="41.1569417" lon="16.63991"><ele>71.33333333333333</ele><time>2026-04-19T08:49:32.635Z</time></trkpt><trkpt lat="41.15714" lon="16.6399733"><ele>70.66666666666666</ele><time>2026-04-19T08:49:33.635Z</time></trkpt><trkpt lat="41.1573333" lon="16.6400433"><ele>70.0</ele><time>2026-04-19T08:49:34.634Z</time></trkpt><trkpt lat="41.157525" lon="16.6401317"><ele>70.0</ele><time>2026-04-19T08:49:35.634Z</time></trkpt><trkpt lat="41.1577067" lon="16.6402283"><ele>70.0</ele><time>2026-04-19T08:49:36.635Z</time></trkpt><trkpt lat="41.1578767" lon="16.640325"><ele>70.0</ele><time>2026-04-19T08:49:37.634Z</time></trkpt><trkpt lat="41.158045" lon="16.6404233"><ele>69.66666666666666</ele><time>2026-04-19T08:49:38.634Z</time></trkpt><trkpt lat="41.1582117" lon="16.6405267"><ele>69.33333333333333</ele><time>2026-04-19T08:49:39.634Z</time></trkpt><trkpt lat="41.1583767" lon="16.6406317"><ele>69.0</ele><time>2026-04-19T08:49:40.635Z</time></trkpt><trkpt lat="41.15854" lon="16.640735"><ele>69.0</ele><time>2026-04-19T08:49:41.634Z</time></trkpt><trkpt lat="41.15871" lon="16.6408533"><ele>69.0</ele><time>2026-04-19T08:49:42.634Z</time></trkpt><trkpt lat="41.1588867" lon="16.6409933"><ele>69.0</ele><time>2026-04-19T08:49:43.634Z</time></trkpt><trkpt lat="41.15906" lon="16.6411517"><ele>68.0</ele><time>2026-04-19T08:49:44.635Z</time></trkpt><trkpt lat="41.15922" lon="16.6413183"><ele>67.0</ele><time>2026-04-19T08:49:45.633Z</time></trkpt><trkpt lat="41.159365" lon="16.6414767"><ele>66.0</ele><time>2026-04-19T08:49:46.634Z</time></trkpt><trkpt lat="41.159495" lon="16.6416283"><ele>66.0</ele><time>2026-04-19T08:49:47.633Z</time></trkpt><trkpt lat="41.15959" lon="16.641795"><ele>66.0</ele><time>2026-04-19T08:49:48.633Z</time></trkpt><trkpt lat="41.159655" lon="16.6419733"><ele>66.0</ele><time>2026-04-19T08:49:49.633Z</time></trkpt><trkpt lat="41.1597133" lon="16.64215"><ele>66.0</ele><time>2026-04-19T08:49:50.635Z</time></trkpt><trkpt lat="41.1597933" lon="16.6423183"><ele>66.0</ele><time>2026-04-19T08:49:51.633Z</time></trkpt><trkpt lat="41.1599133" lon="16.6424717"><ele>66.0</ele><time>2026-04-19T08:49:52.637Z</time></trkpt><trkpt lat="41.1600633" lon="16.6426167"><ele>66.0</ele><time>2026-04-19T08:49:53.633Z</time></trkpt><trkpt lat="41.1602333" lon="16.6427617"><ele>66.0</ele><time>2026-04-19T08:49:54.633Z</time></trkpt><trkpt lat="41.160425" lon="16.6429"><ele>66.0</ele><time>2026-04-19T08:49:55.633Z</time></trkpt><trkpt lat="41.1606217" lon="16.64304"><ele>65.0</ele><time>2026-04-19T08:49:56.633Z</time></trkpt><trkpt lat="41.1608183" lon="16.643185"><ele>64.0</ele><time>2026-04-19T08:49:57.633Z</time></trkpt><trkpt lat="41.1610183" lon="16.643335"><ele>64.0</ele><time>2026-04-19T08:49:58.636Z</time></trkpt><trkpt lat="41.1612117" lon="16.64348"><ele>64.0</ele><time>2026-04-19T08:49:59.634Z</time></trkpt><trkpt lat="41.1613983" lon="16.6436217"><ele>64.0</ele><time>2026-04-19T08:50:00.633Z</time></trkpt><trkpt lat="41.1615817" lon="16.643765"><ele>63.33333333333333</ele><time>2026-04-19T08:50:01.634Z</time></trkpt><trkpt lat="41.1617617" lon="16.6439267"><ele>62.66666666666667</ele><time>2026-04-19T08:50:02.636Z</time></trkpt><trkpt lat="41.16193" lon="16.6441183"><ele>62.0</ele><time>2026-04-19T08:50:03.633Z</time></trkpt><trkpt lat="41.1620883" lon="16.644335"><ele>62.0</ele><time>2026-04-19T08:50:04.634Z</time></trkpt><trkpt lat="41.1622383" lon="16.6445717"><ele>62.0</ele><time>2026-04-19T08:50:05.634Z</time></trkpt><trkpt lat="41.162385" lon="16.6448217"><ele>61.5</ele><time>2026-04-19T08:50:06.633Z</time></trkpt><trkpt lat="41.162525" lon="16.645075"><ele>61.0</ele><time>2026-04-19T08:50:07.633Z</time></trkpt><trkpt lat="41.16266" lon="16.64531"><ele>61.666666666666664</ele><time>2026-04-19T08:50:08.634Z</time></trkpt><trkpt lat="41.1627933" lon="16.6455233"><ele>62.33333333333333</ele><time>2026-04-19T08:50:09.633Z</time></trkpt><trkpt lat="41.1629267" lon="16.6457217"><ele>63.0</ele><time>2026-04-19T08:50:10.634Z</time></trkpt><trkpt lat="41.1630733" lon="16.645905"><ele>62.0</ele><time>2026-04-19T08:50:11.634Z</time></trkpt><trkpt lat="41.16324" lon="16.6460767"><ele>61.0</ele><time>2026-04-19T08:50:12.633Z</time></trkpt><trkpt lat="41.1634217" lon="16.6462383"><ele>60.0</ele><time>2026-04-19T08:50:13.634Z</time></trkpt><trkpt lat="41.163615" lon="16.6463917"><ele>60.0</ele><time>2026-04-19T08:50:14.634Z</time></trkpt><trkpt lat="41.1638083" lon="16.646545"><ele>60.0</ele><time>2026-04-19T08:50:15.633Z</time></trkpt><trkpt lat="41.163995" lon="16.646695"><ele>60.0</ele><time>2026-04-19T08:50:16.633Z</time></trkpt><trkpt lat="41.16418" lon="16.6468467"><ele>58.66666666666667</ele><time>2026-04-19T08:50:17.633Z</time></trkpt><trkpt lat="41.16436" lon="16.6470183"><ele>57.333333333333336</ele><time>2026-04-19T08:50:18.633Z</time></trkpt><trkpt lat="41.1645333" lon="16.647215"><ele>56.0</ele><time>2026-04-19T08:50:19.633Z</time></trkpt><trkpt lat="41.1647017" lon="16.6474333"><ele>55.0</ele><time>2026-04-19T08:50:20.633Z</time></trkpt><trkpt lat="41.164875" lon="16.6476583"><ele>54.0</ele><time>2026-04-19T08:50:21.634Z</time></trkpt><trkpt lat="41.16505" lon="16.6478867"><ele>54.0</ele><time>2026-04-19T08:50:22.633Z</time></trkpt><trkpt lat="41.165225" lon="16.6481117"><ele>54.0</ele><time>2026-04-19T08:50:23.633Z</time></trkpt><trkpt lat="41.165395" lon="16.6483233"><ele>54.0</ele><time>2026-04-19T08:50:24.633Z</time></trkpt><trkpt lat="41.1655583" lon="16.6485283"><ele>54.0</ele><time>2026-04-19T08:50:25.635Z</time></trkpt><trkpt lat="41.1657083" lon="16.6487267"><ele>54.0</ele><time>2026-04-19T08:50:26.633Z</time></trkpt><trkpt lat="41.1658467" lon="16.6489167"><ele>53.66666666666667</ele><time>2026-04-19T08:50:27.633Z</time></trkpt><trkpt lat="41.1659733" lon="16.64911"><ele>53.333333333333336</ele><time>2026-04-19T08:50:28.633Z</time></trkpt><trkpt lat="41.166095" lon="16.6493167"><ele>53.0</ele><time>2026-04-19T08:50:29.633Z</time></trkpt><trkpt lat="41.1662133" lon="16.64954"><ele>52.66666666666667</ele><time>2026-04-19T08:50:30.633Z</time></trkpt><trkpt lat="41.1663267" lon="16.6497833"><ele>52.33333333333333</ele><time>2026-04-19T08:50:31.633Z</time></trkpt><trkpt lat="41.16644" lon="16.6500383"><ele>52.0</ele><time>2026-04-19T08:50:32.635Z</time></trkpt><trkpt lat="41.1665567" lon="16.6503017"><ele>51.0</ele><time>2026-04-19T08:50:33.633Z</time></trkpt><trkpt lat="41.1666733" lon="16.650565"><ele>50.0</ele><time>2026-04-19T08:50:34.633Z</time></trkpt><trkpt lat="41.1667883" lon="16.6508167"><ele>50.0</ele><time>2026-04-19T08:50:35.633Z</time></trkpt><trkpt lat="41.1669083" lon="16.6510567"><ele>50.0</ele><time>2026-04-19T08:50:36.632Z</time></trkpt><trkpt lat="41.167045" lon="16.65129"><ele>50.0</ele><time>2026-04-19T08:50:37.634Z</time></trkpt><trkpt lat="41.1671967" lon="16.65152"><ele>49.0</ele><time>2026-04-19T08:50:38.635Z</time></trkpt><trkpt lat="41.167365" lon="16.6517467"><ele>48.0</ele><time>2026-04-19T08:50:39.634Z</time></trkpt><trkpt lat="41.1675367" lon="16.6519783"><ele>48.0</ele><time>2026-04-19T08:50:40.634Z</time></trkpt><trkpt lat="41.16771" lon="16.6522067"><ele>48.0</ele><time>2026-04-19T08:50:41.635Z</time></trkpt><trkpt lat="41.1678717" lon="16.65243"><ele>48.0</ele><time>2026-04-19T08:50:42.633Z</time></trkpt><trkpt lat="41.1680217" lon="16.6526417"><ele>48.0</ele><time>2026-04-19T08:50:43.634Z</time></trkpt><trkpt lat="41.168165" lon="16.65284"><ele>48.0</ele><time>2026-04-19T08:50:44.634Z</time></trkpt><trkpt lat="41.168305" lon="16.6530283"><ele>47.666666666666664</ele><time>2026-04-19T08:50:45.633Z</time></trkpt><trkpt lat="41.16846" lon="16.653205"><ele>47.33333333333333</ele><time>2026-04-19T08:50:46.633Z</time></trkpt><trkpt lat="41.16863" lon="16.65337"><ele>47.0</ele><time>2026-04-19T08:50:47.633Z</time></trkpt><trkpt lat="41.168815" lon="16.6535233"><ele>47.0</ele><time>2026-04-19T08:50:48.633Z</time></trkpt><trkpt lat="41.1690133" lon="16.653665"><ele>47.0</ele><time>2026-04-19T08:50:49.634Z</time></trkpt><trkpt lat="41.1692183" lon="16.6538133"><ele>46.5</ele><time>2026-04-19T08:50:50.633Z</time></trkpt><trkpt lat="41.169425" lon="16.6539683"><ele>46.0</ele><time>2026-04-19T08:50:51.634Z</time></trkpt><trkpt lat="41.1696283" lon="16.6541167"><ele>46.0</ele><time>2026-04-19T08:50:52.634Z</time></trkpt><trkpt lat="41.1698233" lon="16.6542517"><ele>46.0</ele><time>2026-04-19T08:50:53.634Z</time></trkpt><trkpt lat="41.1700117" lon="16.6543783"><ele>46.0</ele><time>2026-04-19T08:50:54.633Z</time></trkpt><trkpt lat="41.1702033" lon="16.65449"><ele>45.333333333333336</ele><time>2026-04-19T08:50:55.633Z</time></trkpt><trkpt lat="41.1704067" lon="16.6545883"><ele>44.666666666666664</ele><time>2026-04-19T08:50:56.634Z</time></trkpt><trkpt lat="41.1706267" lon="16.65467"><ele>44.0</ele><time>2026-04-19T08:50:57.633Z</time></trkpt><trkpt lat="41.170855" lon="16.6547433"><ele>44.0</ele><time>2026-04-19T08:50:58.633Z</time></trkpt><trkpt lat="41.1710883" lon="16.65482"><ele>44.0</ele><time>2026-04-19T08:50:59.633Z</time></trkpt><trkpt lat="41.171325" lon="16.654905"><ele>42.5</ele><time>2026-04-19T08:51:00.633Z</time></trkpt><trkpt lat="41.1715617" lon="16.6549917"><ele>41.0</ele><time>2026-04-19T08:51:01.633Z</time></trkpt><trkpt lat="41.171795" lon="16.6550733"><ele>41.0</ele><time>2026-04-19T08:51:02.633Z</time></trkpt><trkpt lat="41.1720083" lon="16.65515"><ele>41.0</ele><time>2026-04-19T08:51:03.634Z</time></trkpt><trkpt lat="41.1722167" lon="16.6552267"><ele>41.0</ele><time>2026-04-19T08:51:04.633Z</time></trkpt><trkpt lat="41.17242" lon="16.6553033"><ele>40.33333333333333</ele><time>2026-04-19T08:51:05.633Z</time></trkpt><trkpt lat="41.1726183" lon="16.65538"><ele>39.666666666666664</ele><time>2026-04-19T08:51:06.633Z</time></trkpt><trkpt lat="41.1728067" lon="16.6554667"><ele>39.0</ele><time>2026-04-19T08:51:07.633Z</time></trkpt><trkpt lat="41.1729883" lon="16.6555733"><ele>39.0</ele><time>2026-04-19T08:51:08.634Z</time></trkpt><trkpt lat="41.173165" lon="16.6557033"><ele>39.0</ele><time>2026-04-19T08:51:09.633Z</time></trkpt><trkpt lat="41.1733467" lon="16.65586"><ele>39.0</ele><time>2026-04-19T08:51:10.635Z</time></trkpt><trkpt lat="41.1735283" lon="16.6560417"><ele>38.0</ele><time>2026-04-19T08:51:11.634Z</time></trkpt><trkpt lat="41.1737117" lon="16.6562417"><ele>37.0</ele><time>2026-04-19T08:51:12.633Z</time></trkpt><trkpt lat="41.1738933" lon="16.6564567"><ele>37.0</ele><time>2026-04-19T08:51:13.633Z</time></trkpt><trkpt lat="41.1740783" lon="16.6566833"><ele>37.0</ele><time>2026-04-19T08:51:14.633Z</time></trkpt><trkpt lat="41.1742633" lon="16.6569133"><ele>37.0</ele><time>2026-04-19T08:51:15.633Z</time></trkpt><trkpt lat="41.174455" lon="16.6571467"><ele>37.0</ele><time>2026-04-19T08:51:16.635Z</time></trkpt><trkpt lat="41.17465" lon="16.657385"><ele>37.0</ele><time>2026-04-19T08:51:17.634Z</time></trkpt><trkpt lat="41.1748367" lon="16.6576133"><ele>37.0</ele><time>2026-04-19T08:51:18.633Z</time></trkpt><trkpt lat="41.175015" lon="16.6578283"><ele>37.0</ele><time>2026-04-19T08:51:19.637Z</time></trkpt><trkpt lat="41.17519" lon="16.6580383"><ele>37.0</ele><time>2026-04-19T08:51:20.636Z</time></trkpt><trkpt lat="41.1753617" lon="16.6582467"><ele>37.0</ele><time>2026-04-19T08:51:21.634Z</time></trkpt><trkpt lat="41.17553" lon="16.6584567"><ele>37.0</ele><time>2026-04-19T08:51:22.635Z</time></trkpt><trkpt lat="41.1757033" lon="16.6586717"><ele>35.0</ele><time>2026-04-19T08:51:23.635Z</time></trkpt><trkpt lat="41.1758767" lon="16.6588917"><ele>33.0</ele><time>2026-04-19T08:51:24.634Z</time></trkpt><trkpt lat="41.1760583" lon="16.6591133"><ele>33.0</ele><time>2026-04-19T08:51:25.634Z</time></trkpt><trkpt lat="41.1762483" lon="16.6593367"><ele>33.0</ele><time>2026-04-19T08:51:26.634Z</time></trkpt><trkpt lat="41.17644" lon="16.659565"><ele>33.0</ele><time>2026-04-19T08:51:27.634Z</time></trkpt><trkpt lat="41.17663" lon="16.6597983"><ele>33.0</ele><time>2026-04-19T08:51:28.634Z</time></trkpt><trkpt lat="41.1768167" lon="16.6600333"><ele>33.0</ele><time>2026-04-19T08:51:29.635Z</time></trkpt><trkpt lat="41.17699" lon="16.6602683"><ele>33.0</ele><time>2026-04-19T08:51:30.633Z</time></trkpt><trkpt lat="41.1771483" lon="16.660495"><ele>32.333333333333336</ele><time>2026-04-19T08:51:31.633Z</time></trkpt><trkpt lat="41.1772933" lon="16.66072"><ele>31.666666666666668</ele><time>2026-04-19T08:51:32.634Z</time></trkpt><trkpt lat="41.1774317" lon="16.6609433"><ele>31.0</ele><time>2026-04-19T08:51:33.633Z</time></trkpt><trkpt lat="41.1775717" lon="16.66116"><ele>30.333333333333336</ele><time>2026-04-19T08:51:34.633Z</time></trkpt><trkpt lat="41.17771" lon="16.66137"><ele>29.666666666666664</ele><time>2026-04-19T08:51:35.633Z</time></trkpt><trkpt lat="41.1778517" lon="16.6615767"><ele>29.0</ele><time>2026-04-19T08:51:36.633Z</time></trkpt><trkpt lat="41.1779967" lon="16.661775"><ele>28.666666666666664</ele><time>2026-04-19T08:51:37.633Z</time></trkpt><trkpt lat="41.1781467" lon="16.6619683"><ele>28.333333333333336</ele><time>2026-04-19T08:51:38.634Z</time></trkpt><trkpt lat="41.1783" lon="16.662155"><ele>28.0</ele><time>2026-04-19T08:51:39.633Z</time></trkpt><trkpt lat="41.1784533" lon="16.6623333"><ele>27.0</ele><time>2026-04-19T08:51:40.633Z</time></trkpt><trkpt lat="41.1785983" lon="16.6625033"><ele>26.0</ele><time>2026-04-19T08:51:41.634Z</time></trkpt><trkpt lat="41.1787383" lon="16.6626617"><ele>25.0</ele><time>2026-04-19T08:51:42.635Z</time></trkpt><trkpt lat="41.1788767" lon="16.6627933"><ele>24.75</ele><time>2026-04-19T08:51:43.634Z</time></trkpt><trkpt lat="41.1790083" lon="16.6629017"><ele>24.5</ele><time>2026-04-19T08:51:44.634Z</time></trkpt><trkpt lat="41.1791183" lon="16.662985"><ele>24.25</ele><time>2026-04-19T08:51:45.633Z</time></trkpt><trkpt lat="41.1792133" lon="16.6630483"><ele>24.0</ele><time>2026-04-19T08:51:46.635Z</time></trkpt><trkpt lat="41.17929" lon="16.6631167"><ele>24.0</ele><time>2026-04-19T08:51:47.633Z</time></trkpt><trkpt lat="41.1793583" lon="16.6631983"><ele>24.0</ele><time>2026-04-19T08:51:48.633Z</time></trkpt><trkpt lat="41.179405" lon="16.663295"><ele>24.0</ele><time>2026-04-19T08:51:49.634Z</time></trkpt><trkpt lat="41.1794283" lon="16.6633967"><ele>24.0</ele><time>2026-04-19T08:51:50.635Z</time></trkpt><trkpt lat="41.1794267" lon="16.6635017"><ele>24.0</ele><time>2026-04-19T08:51:51.633Z</time></trkpt><trkpt lat="41.179405" lon="16.6636167"><ele>24.0</ele><time>2026-04-19T08:51:52.634Z</time></trkpt><trkpt lat="41.179365" lon="16.6637517"><ele>24.0</ele><time>2026-04-19T08:51:53.634Z</time></trkpt><trkpt lat="41.179325" lon="16.6639067"><ele>24.0</ele><time>2026-04-19T08:51:54.634Z</time></trkpt><trkpt lat="41.1792833" lon="16.6640817"><ele>24.0</ele><time>2026-04-19T08:51:55.633Z</time></trkpt><trkpt lat="41.1792383" lon="16.66427"><ele>24.0</ele><time>2026-04-19T08:51:56.636Z</time></trkpt><trkpt lat="41.1791933" lon="16.6644633"><ele>23.25</ele><time>2026-04-19T08:51:57.634Z</time></trkpt><trkpt lat="41.1791617" lon="16.6646467"><ele>22.5</ele><time>2026-04-19T08:51:58.635Z</time></trkpt><trkpt lat="41.179145" lon="16.6648167"><ele>21.75</ele><time>2026-04-19T08:51:59.635Z</time></trkpt><trkpt lat="41.1791267" lon="16.66497"><ele>21.0</ele><time>2026-04-19T08:52:00.636Z</time></trkpt><trkpt lat="41.1790983" lon="16.6650967"><ele>21.0</ele><time>2026-04-19T08:52:01.634Z</time></trkpt><trkpt lat="41.1790717" lon="16.6652033"><ele>21.0</ele><time>2026-04-19T08:52:02.636Z</time></trkpt><trkpt lat="41.1790633" lon="16.6652933"><ele>21.0</ele><time>2026-04-19T08:52:03.634Z</time></trkpt><trkpt lat="41.1790917" lon="16.6654383"><ele>21.0</ele><time>2026-04-19T08:52:05.634Z</time></trkpt><trkpt lat="41.1792083" lon="16.6654667"><ele>21.0</ele><time>2026-04-19T08:52:07.634Z</time></trkpt><trkpt lat="41.179295" lon="16.6654433"><ele>21.0</ele><time>2026-04-19T08:52:08.634Z</time></trkpt><trkpt lat="41.1793967" lon="16.6654267"><ele>21.0</ele><time>2026-04-19T08:52:09.635Z</time></trkpt><trkpt lat="41.1795167" lon="16.6654367"><ele>21.0</ele><time>2026-04-19T08:52:10.634Z</time></trkpt><trkpt lat="41.1796533" lon="16.6654633"><ele>21.0</ele><time>2026-04-19T08:52:11.634Z</time></trkpt><trkpt lat="41.1797983" lon="16.665505"><ele>21.0</ele><time>2026-04-19T08:52:12.633Z</time></trkpt><trkpt lat="41.1799583" lon="16.6655567"><ele>21.0</ele><time>2026-04-19T08:52:13.633Z</time></trkpt><trkpt lat="41.1801333" lon="16.6656133"><ele>21.0</ele><time>2026-04-19T08:52:14.634Z</time></trkpt><trkpt lat="41.18031" lon="16.66567"><ele>21.0</ele><time>2026-04-19T08:52:15.633Z</time></trkpt><trkpt lat="41.18049" lon="16.66573"><ele>21.0</ele><time>2026-04-19T08:52:16.634Z</time></trkpt><trkpt lat="41.180675" lon="16.66579"><ele>21.0</ele><time>2026-04-19T08:52:17.634Z</time></trkpt><trkpt lat="41.1808617" lon="16.6658483"><ele>20.333333333333332</ele><time>2026-04-19T08:52:18.633Z</time></trkpt><trkpt lat="41.1810483" lon="16.665905"><ele>19.666666666666664</ele><time>2026-04-19T08:52:19.634Z</time></trkpt><trkpt lat="41.1812317" lon="16.6659617"><ele>19.0</ele><time>2026-04-19T08:52:20.634Z</time></trkpt><trkpt lat="41.1814033" lon="16.6660167"><ele>19.0</ele><time>2026-04-19T08:52:21.635Z</time></trkpt><trkpt lat="41.18156" lon="16.6660717"><ele>19.0</ele><time>2026-04-19T08:52:22.634Z</time></trkpt><trkpt lat="41.1817083" lon="16.6661267"><ele>19.0</ele><time>2026-04-19T08:52:23.634Z</time></trkpt><trkpt lat="41.1818467" lon="16.6661817"><ele>19.0</ele><time>2026-04-19T08:52:24.634Z</time></trkpt><trkpt lat="41.1819833" lon="16.666235"><ele>19.0</ele><time>2026-04-19T08:52:25.634Z</time></trkpt><trkpt lat="41.1821217" lon="16.6663"><ele>19.0</ele><time>2026-04-19T08:52:26.634Z</time></trkpt><trkpt lat="41.1822567" lon="16.6663817"><ele>19.0</ele><time>2026-04-19T08:52:27.633Z</time></trkpt><trkpt lat="41.1823783" lon="16.6664783"><ele>19.0</ele><time>2026-04-19T08:52:28.634Z</time></trkpt><trkpt lat="41.1824917" lon="16.66658"><ele>19.0</ele><time>2026-04-19T08:52:29.634Z</time></trkpt><trkpt lat="41.182595" lon="16.6666817"><ele>19.0</ele><time>2026-04-19T08:52:30.633Z</time></trkpt><trkpt lat="41.1826983" lon="16.6667767"><ele>19.0</ele><time>2026-04-19T08:52:31.633Z</time></trkpt><trkpt lat="41.1828083" lon="16.6668683"><ele>19.25</ele><time>2026-04-19T08:52:32.634Z</time></trkpt><trkpt lat="41.182915" lon="16.66696"><ele>19.5</ele><time>2026-04-19T08:52:33.633Z</time></trkpt><trkpt lat="41.1830117" lon="16.66705"><ele>19.75</ele><time>2026-04-19T08:52:34.633Z</time></trkpt><trkpt lat="41.1830967" lon="16.6671333"><ele>20.0</ele><time>2026-04-19T08:52:35.633Z</time></trkpt><trkpt lat="41.1831817" lon="16.6672083"><ele>20.0</ele><time>2026-04-19T08:52:36.634Z</time></trkpt><trkpt lat="41.1832667" lon="16.66728"><ele>20.0</ele><time>2026-04-19T08:52:37.632Z</time></trkpt><trkpt lat="41.18336" lon="16.6673467"><ele>20.0</ele><time>2026-04-19T08:52:38.633Z</time></trkpt><trkpt lat="41.1834483" lon="16.6674183"><ele>20.0</ele><time>2026-04-19T08:52:39.633Z</time></trkpt><trkpt lat="41.1835317" lon="16.6674917"><ele>20.0</ele><time>2026-04-19T08:52:40.634Z</time></trkpt><trkpt lat="41.1836117" lon="16.6675483"><ele>20.0</ele><time>2026-04-19T08:52:41.634Z</time></trkpt><trkpt lat="41.183685" lon="16.6676017"><ele>20.0</ele><time>2026-04-19T08:52:42.633Z</time></trkpt><trkpt lat="41.183755" lon="16.6676583"><ele>20.0</ele><time>2026-04-19T08:52:43.634Z</time></trkpt><trkpt lat="41.18383" lon="16.6677167"><ele>20.0</ele><time>2026-04-19T08:52:44.635Z</time></trkpt><trkpt lat="41.18391" lon="16.6677867"><ele>20.0</ele><time>2026-04-19T08:52:45.633Z</time></trkpt><trkpt lat="41.1839883" lon="16.6678583"><ele>20.0</ele><time>2026-04-19T08:52:46.634Z</time></trkpt><trkpt lat="41.1840517" lon="16.6679267"><ele>20.166666666666668</ele><time>2026-04-19T08:52:47.633Z</time></trkpt><trkpt lat="41.1841033" lon="16.6679967"><ele>20.333333333333336</ele><time>2026-04-19T08:52:48.633Z</time></trkpt><trkpt lat="41.184155" lon="16.6680667"><ele>20.5</ele><time>2026-04-19T08:52:49.633Z</time></trkpt><trkpt lat="41.1842167" lon="16.6681433"><ele>20.666666666666668</ele><time>2026-04-19T08:52:50.633Z</time></trkpt><trkpt lat="41.1842833" lon="16.6682267"><ele>20.833333333333332</ele><time>2026-04-19T08:52:51.632Z</time></trkpt><trkpt lat="41.1843483" lon="16.6683083"><ele>21.0</ele><time>2026-04-19T08:52:52.633Z</time></trkpt><trkpt lat="41.1844083" lon="16.66839"><ele>21.0</ele><time>2026-04-19T08:52:53.633Z</time></trkpt><trkpt lat="41.1844633" lon="16.668465"><ele>21.0</ele><time>2026-04-19T08:52:54.633Z</time></trkpt><trkpt lat="41.1845133" lon="16.668535"><ele>21.0</ele><time>2026-04-19T08:52:55.633Z</time></trkpt><trkpt lat="41.1845633" lon="16.6686033"><ele>21.0</ele><time>2026-04-19T08:52:56.633Z</time></trkpt><trkpt lat="41.1846217" lon="16.6686817"><ele>21.0</ele><time>2026-04-19T08:52:57.632Z</time></trkpt><trkpt lat="41.1846917" lon="16.668775"><ele>21.0</ele><time>2026-04-19T08:52:58.633Z</time></trkpt><trkpt lat="41.1847783" lon="16.668885"><ele>20.0</ele><time>2026-04-19T08:52:59.634Z</time></trkpt><trkpt lat="41.1848667" lon="16.6689967"><ele>19.0</ele><time>2026-04-19T08:53:00.633Z</time></trkpt><trkpt lat="41.1849483" lon="16.6691033"><ele>18.0</ele><time>2026-04-19T08:53:01.634Z</time></trkpt><trkpt lat="41.1850183" lon="16.6691933"><ele>17.0</ele><time>2026-04-19T08:53:02.634Z</time></trkpt><trkpt lat="41.1850817" lon="16.6692633"><ele>16.0</ele><time>2026-04-19T08:53:03.632Z</time></trkpt><trkpt lat="41.1851333" lon="16.6693233"><ele>15.999999999999998</ele><time>2026-04-19T08:53:04.633Z</time></trkpt><trkpt lat="41.1852033" lon="16.6694217"><ele>16.0</ele><time>2026-04-19T08:53:06.633Z</time></trkpt><trkpt lat="41.18528" lon="16.6694633"><ele>16.0</ele><time>2026-04-19T08:53:08.633Z</time></trkpt><trkpt lat="41.185345" lon="16.669505"><ele>16.0</ele><time>2026-04-19T08:53:10.633Z</time></trkpt><trkpt lat="41.18541" lon="16.6695367"><ele>15.999999999999998</ele><time>2026-04-19T08:53:12.634Z</time></trkpt><trkpt lat="41.1855" lon="16.6695783"><ele>16.0</ele><time>2026-04-19T08:53:15.632Z</time></trkpt><trkpt lat="41.1855667" lon="16.6696067"><ele>15.833333333333332</ele><time>2026-04-19T08:53:17.635Z</time></trkpt><trkpt lat="41.1856333" lon="16.6696383"><ele>15.666666666666666</ele><time>2026-04-19T08:53:19.634Z</time></trkpt><trkpt lat="41.1857083" lon="16.6696717"><ele>15.5</ele><time>2026-04-19T08:53:21.632Z</time></trkpt><trkpt lat="41.1857867" lon="16.6697033"><ele>15.333333333333332</ele><time>2026-04-19T08:53:23.633Z</time></trkpt><trkpt lat="41.1858617" lon="16.6697417"><ele>15.166666666666666</ele><time>2026-04-19T08:53:25.633Z</time></trkpt><trkpt lat="41.1859267" lon="16.669775"><ele>15.0</ele><time>2026-04-19T08:53:27.633Z</time></trkpt><trkpt lat="41.1860033" lon="16.6698183"><ele>14.833333333333334</ele><time>2026-04-19T08:53:29.634Z</time></trkpt><trkpt lat="41.186095" lon="16.669875"><ele>14.666666666666668</ele><time>2026-04-19T08:53:31.632Z</time></trkpt><trkpt lat="41.1861667" lon="16.669915"><ele>14.5</ele><time>2026-04-19T08:53:33.632Z</time></trkpt><trkpt lat="41.1862467" lon="16.6699517"><ele>14.333333333333334</ele><time>2026-04-19T08:53:36.633Z</time></trkpt><trkpt lat="41.18631" lon="16.6699783"><ele>14.166666666666668</ele><time>2026-04-19T08:53:39.633Z</time></trkpt><trkpt lat="41.1863617" lon="16.6700333"><ele>14.0</ele><time>2026-04-19T08:53:45.633Z</time></trkpt><trkpt lat="41.186375" lon="16.67012"><ele>14.000000000000002</ele><time>2026-04-19T08:53:47.633Z</time></trkpt><trkpt lat="41.1863483" lon="16.6702117"><ele>14.0</ele><time>2026-04-19T08:53:49.633Z</time></trkpt><trkpt lat="41.186325" lon="16.6702967"><ele>14.0</ele><time>2026-04-19T08:53:51.632Z</time></trkpt><trkpt lat="41.18629" lon="16.6704067"><ele>14.0</ele><time>2026-04-19T08:53:53.633Z</time></trkpt><trkpt lat="41.1862533" lon="16.6705367"><ele>14.000000000000002</ele><time>2026-04-19T08:53:55.633Z</time></trkpt><trkpt lat="41.18622" lon="16.6706367"><ele>14.0</ele><time>2026-04-19T08:53:57.632Z</time></trkpt><trkpt lat="41.18619" lon="16.670725"><ele>13.6</ele><time>2026-04-19T08:53:59.634Z</time></trkpt><trkpt lat="41.18616" lon="16.6708383"><ele>13.2</ele><time>2026-04-19T08:54:01.634Z</time></trkpt><trkpt lat="41.18613" lon="16.6709467"><ele>12.799999999999999</ele><time>2026-04-19T08:54:03.632Z</time></trkpt><trkpt lat="41.1860883" lon="16.6710783"><ele>12.399999999999999</ele><time>2026-04-19T08:54:05.633Z</time></trkpt><trkpt lat="41.18604" lon="16.6712217"><ele>12.0</ele><time>2026-04-19T08:54:07.634Z</time></trkpt><trkpt lat="41.186" lon="16.671335"><ele>11.999999999999998</ele><time>2026-04-19T08:54:09.633Z</time></trkpt><trkpt lat="41.1859733" lon="16.6714317"><ele>12.0</ele><time>2026-04-19T08:54:11.633Z</time></trkpt><trkpt lat="41.1859417" lon="16.6715283"><ele>12.0</ele><time>2026-04-19T08:54:13.634Z</time></trkpt><trkpt lat="41.185905" lon="16.6716333"><ele>12.0</ele><time>2026-04-19T08:54:15.633Z</time></trkpt><trkpt lat="41.1858733" lon="16.6717183"><ele>12.0</ele><time>2026-04-19T08:54:17.633Z</time></trkpt><trkpt lat="41.1858433" lon="16.6717933"><ele>11.999999999999998</ele><time>2026-04-19T08:54:19.632Z</time></trkpt><trkpt lat="41.1858183" lon="16.6718767"><ele>12.0</ele><time>2026-04-19T08:54:21.634Z</time></trkpt><trkpt lat="41.1857833" lon="16.6720167"><ele>11.8</ele><time>2026-04-19T08:54:23.633Z</time></trkpt><trkpt lat="41.1857433" lon="16.6721483"><ele>11.6</ele><time>2026-04-19T08:54:25.633Z</time></trkpt><trkpt lat="41.1857" lon="16.6722467"><ele>11.4</ele><time>2026-04-19T08:54:27.632Z</time></trkpt><trkpt lat="41.1856483" lon="16.6723733"><ele>11.200000000000001</ele><time>2026-04-19T08:54:29.633Z</time></trkpt><trkpt lat="41.1855917" lon="16.672485"><ele>11.0</ele><time>2026-04-19T08:54:31.634Z</time></trkpt><trkpt lat="41.1855483" lon="16.6725717"><ele>11.166666666666666</ele><time>2026-04-19T08:54:33.632Z</time></trkpt><trkpt lat="41.1854967" lon="16.6726533"><ele>11.333333333333332</ele><time>2026-04-19T08:54:35.634Z</time></trkpt><trkpt lat="41.1854617" lon="16.672735"><ele>11.5</ele><time>2026-04-19T08:54:37.633Z</time></trkpt><trkpt lat="41.1855333" lon="16.6727967"><ele>11.666666666666666</ele><time>2026-04-19T08:54:41.633Z</time></trkpt><trkpt lat="41.1856133" lon="16.672805"><ele>11.833333333333334</ele><time>2026-04-19T08:54:42.633Z</time></trkpt><trkpt lat="41.185685" lon="16.6728167"><ele>12.0</ele><time>2026-04-19T08:54:43.633Z</time></trkpt><trkpt lat="41.1857517" lon="16.6728267"><ele>12.0</ele><time>2026-04-19T08:54:44.634Z</time></trkpt><trkpt lat="41.1858533" lon="16.6728433"><ele>12.0</ele><time>2026-04-19T08:54:46.633Z</time></trkpt><trkpt lat="41.185985" lon="16.6728567"><ele>12.0</ele><time>2026-04-19T08:54:48.633Z</time></trkpt><trkpt lat="41.1860733" lon="16.6728683"><ele>12.0</ele><time>2026-04-19T08:54:49.634Z</time></trkpt><trkpt lat="41.1861833" lon="16.672885"><ele>12.0</ele><time>2026-04-19T08:54:50.633Z</time></trkpt><trkpt lat="41.1862983" lon="16.6728983"><ele>12.0</ele><time>2026-04-19T08:54:51.634Z</time></trkpt><trkpt lat="41.1864033" lon="16.6729117"><ele>12.0</ele><time>2026-04-19T08:54:52.633Z</time></trkpt><trkpt lat="41.1865" lon="16.6729183"><ele>12.0</ele><time>2026-04-19T08:54:53.633Z</time></trkpt><trkpt lat="41.1865883" lon="16.6729317"><ele>12.0</ele><time>2026-04-19T08:54:54.632Z</time></trkpt><trkpt lat="41.1866733" lon="16.6729433"><ele>12.0</ele><time>2026-04-19T08:54:55.633Z</time></trkpt><trkpt lat="41.1867533" lon="16.6729567"><ele>12.0</ele><time>2026-04-19T08:54:56.632Z</time></trkpt><trkpt lat="41.1868367" lon="16.6729683"><ele>12.0</ele><time>2026-04-19T08:54:57.632Z</time></trkpt><trkpt lat="41.1869183" lon="16.6729783"><ele>12.0</ele><time>2026-04-19T08:54:58.633Z</time></trkpt><trkpt lat="41.186985" lon="16.6729917"><ele>12.0</ele><time>2026-04-19T08:54:59.634Z</time></trkpt><trkpt lat="41.1870633" lon="16.6729967"><ele>12.0</ele><time>2026-04-19T08:55:01.633Z</time></trkpt><trkpt lat="41.1871383" lon="16.6730083"><ele>12.0</ele><time>2026-04-19T08:55:05.633Z</time></trkpt><trkpt lat="41.18721" lon="16.6730317"><ele>12.0</ele><time>2026-04-19T08:55:07.633Z</time></trkpt><trkpt lat="41.1872733" lon="16.6730317"><ele>12.0</ele><time>2026-04-19T08:55:09.633Z</time></trkpt><trkpt lat="41.1873617" lon="16.672975"><ele>12.0</ele><time>2026-04-19T08:55:12.632Z</time></trkpt><trkpt lat="41.1874283" lon="16.6729083"><ele>12.0</ele><time>2026-04-19T08:55:14.633Z</time></trkpt><trkpt lat="41.18751" lon="16.67286"><ele>12.0</ele><time>2026-04-19T08:55:17.634Z</time></trkpt><trkpt lat="41.187595" lon="16.672845"><ele>12.0</ele><time>2026-04-19T08:55:20.633Z</time></trkpt><trkpt lat="41.18767" lon="16.6728367"><ele>11.833333333333334</ele><time>2026-04-19T08:55:23.633Z</time></trkpt><trkpt lat="41.1877483" lon="16.67284"><ele>11.666666666666666</ele><time>2026-04-19T08:55:26.634Z</time></trkpt><trkpt lat="41.1878117" lon="16.6728267"><ele>11.5</ele><time>2026-04-19T08:55:29.632Z</time></trkpt><trkpt lat="41.1878883" lon="16.6727917"><ele>11.333333333333332</ele><time>2026-04-19T08:55:32.633Z</time></trkpt><trkpt lat="41.1879917" lon="16.672755"><ele>11.166666666666666</ele><time>2026-04-19T08:55:35.633Z</time></trkpt><trkpt lat="41.1881033" lon="16.6727167"><ele>11.0</ele><time>2026-04-19T08:55:37.633Z</time></trkpt><trkpt lat="41.1882067" lon="16.6726933"><ele>10.5</ele><time>2026-04-19T08:55:39.632Z</time></trkpt><trkpt lat="41.1883" lon="16.672645"><ele>10.0</ele><time>2026-04-19T08:55:41.632Z</time></trkpt><trkpt lat="41.18837" lon="16.6725917"><ele>9.5</ele><time>2026-04-19T08:55:43.633Z</time></trkpt><trkpt lat="41.1883967" lon="16.6724733"><ele>9.0</ele><time>2026-04-19T08:55:46.636Z</time></trkpt><trkpt lat="41.1883783" lon="16.672365"><ele>8.5</ele><time>2026-04-19T08:55:48.632Z</time></trkpt><trkpt lat="41.188345" lon="16.6722533"><ele>8.0</ele><time>2026-04-19T08:55:50.633Z</time></trkpt><trkpt lat="41.1883283" lon="16.67213"><ele>8.0</ele><time>2026-04-19T08:55:52.633Z</time></trkpt><trkpt lat="41.18839" lon="16.6720433"><ele>8.0</ele><time>2026-04-19T08:55:54.633Z</time></trkpt><trkpt lat="41.1885083" lon="16.6720033"><ele>8.0</ele><time>2026-04-19T08:55:56.633Z</time></trkpt><trkpt lat="41.1885717" lon="16.67199"><ele>8.0</ele><time>2026-04-19T08:55:57.633Z</time></trkpt><trkpt lat="41.1886883" lon="16.6719617"><ele>8.0</ele><time>2026-04-19T08:55:59.632Z</time></trkpt><trkpt lat="41.188795" lon="16.6719267"><ele>8.200000000000001</ele><time>2026-04-19T08:56:01.633Z</time></trkpt><trkpt lat="41.1889067" lon="16.671895"><ele>8.4</ele><time>2026-04-19T08:56:03.632Z</time></trkpt><trkpt lat="41.1890067" lon="16.67185"><ele>8.600000000000001</ele><time>2026-04-19T08:56:05.634Z</time></trkpt><trkpt lat="41.189105" lon="16.6718083"><ele>8.8</ele><time>2026-04-19T08:56:07.634Z</time></trkpt><trkpt lat="41.1891967" lon="16.6717517"><ele>9.0</ele><time>2026-04-19T08:56:09.633Z</time></trkpt><trkpt lat="41.1892783" lon="16.6716867"><ele>7.4</ele><time>2026-04-19T08:56:11.633Z</time></trkpt><trkpt lat="41.1894" lon="16.67162"><ele>5.800000000000001</ele><time>2026-04-19T08:56:13.633Z</time></trkpt><trkpt lat="41.1894617" lon="16.67159"><ele>4.2</ele><time>2026-04-19T08:56:14.634Z</time></trkpt><trkpt lat="41.189575" lon="16.671525"><ele>2.6</ele><time>2026-04-19T08:56:16.633Z</time></trkpt><trkpt lat="41.1896617" lon="16.6714017"><ele>1.0</ele><time>2026-04-19T08:56:18.633Z</time></trkpt><trkpt lat="41.1896833" lon="16.671295"><ele>0.9999999999999999</ele><time>2026-04-19T08:56:19.633Z</time></trkpt><trkpt lat="41.1896917" lon="16.6711783"><ele>1.0</ele><time>2026-04-19T08:56:20.634Z</time></trkpt><trkpt lat="41.1897017" lon="16.6710683"><ele>1.0</ele><time>2026-04-19T08:56:21.636Z</time></trkpt><trkpt lat="41.18971" lon="16.6709683"><ele>1.0</ele><time>2026-04-19T08:56:22.635Z</time></trkpt><trkpt lat="41.1897167" lon="16.6708683"><ele>0.9999999999999999</ele><time>2026-04-19T08:56:23.633Z</time></trkpt><trkpt lat="41.189725" lon="16.6707767"><ele>1.0</ele><time>2026-04-19T08:56:24.632Z</time></trkpt><trkpt lat="41.18973" lon="16.6706917"><ele>1.8333333333333333</ele><time>2026-04-19T08:56:25.634Z</time></trkpt><trkpt lat="41.1897383" lon="16.670605"><ele>2.6666666666666665</ele><time>2026-04-19T08:56:26.634Z</time></trkpt><trkpt lat="41.189745" lon="16.6705083"><ele>3.5</ele><time>2026-04-19T08:56:27.633Z</time></trkpt><trkpt lat="41.1897517" lon="16.6704167"><ele>4.333333333333333</ele><time>2026-04-19T08:56:28.633Z</time></trkpt><trkpt lat="41.1897633" lon="16.6702583"><ele>5.166666666666667</ele><time>2026-04-19T08:56:30.637Z</time></trkpt><trkpt lat="41.189775" lon="16.6701167"><ele>6.0</ele><time>2026-04-19T08:56:32.633Z</time></trkpt><trkpt lat="41.1897833" lon="16.66998"><ele>6.0</ele><time>2026-04-19T08:56:34.634Z</time></trkpt><trkpt lat="41.18979" lon="16.66986"><ele>6.0</ele><time>2026-04-19T08:56:36.634Z</time></trkpt><trkpt lat="41.1897933" lon="16.66974"><ele>6.0</ele><time>2026-04-19T08:56:38.636Z</time></trkpt><trkpt lat="41.1897867" lon="16.6696183"><ele>6.0</ele><time>2026-04-19T08:56:40.634Z</time></trkpt><trkpt lat="41.1897817" lon="16.669515"><ele>6.0</ele><time>2026-04-19T08:56:42.633Z</time></trkpt><trkpt lat="41.1897767" lon="16.6694283"><ele>6.0</ele><time>2026-04-19T08:56:44.636Z</time></trkpt><trkpt lat="41.1897683" lon="16.66932"><ele>6.0</ele><time>2026-04-19T08:56:46.633Z</time></trkpt><trkpt lat="41.1897717" lon="16.6692267"><ele>6.0</ele><time>2026-04-19T08:56:53.633Z</time></trkpt><trkpt lat="41.1897633" lon="16.6691233"><ele>6.0</ele><time>2026-04-19T08:56:55.633Z</time></trkpt><trkpt lat="41.18976" lon="16.6690217"><ele>6.0</ele><time>2026-04-19T08:56:57.633Z</time></trkpt><trkpt lat="41.1897517" lon="16.6689283"><ele>6.0</ele><time>2026-04-19T08:56:59.633Z</time></trkpt><trkpt lat="41.1897383" lon="16.6687917"><ele>6.0</ele><time>2026-04-19T08:57:01.634Z</time></trkpt><trkpt lat="41.1897267" lon="16.6686383"><ele>6.5</ele><time>2026-04-19T08:57:03.635Z</time></trkpt><trkpt lat="41.18972" lon="16.668525"><ele>7.0</ele><time>2026-04-19T08:57:05.633Z</time></trkpt><trkpt lat="41.1897183" lon="16.6684067"><ele>7.5</ele><time>2026-04-19T08:57:08.635Z</time></trkpt><trkpt lat="41.1897167" lon="16.668295"><ele>8.0</ele><time>2026-04-19T08:57:10.636Z</time></trkpt><trkpt lat="41.189715" lon="16.6681983"><ele>8.5</ele><time>2026-04-19T08:57:12.633Z</time></trkpt><trkpt lat="41.1897117" lon="16.6680967"><ele>9.0</ele><time>2026-04-19T08:57:14.638Z</time></trkpt><trkpt lat="41.1897" lon="16.6679917"><ele>9.0</ele><time>2026-04-19T08:57:16.633Z</time></trkpt><trkpt lat="41.18969" lon="16.66789"><ele>9.0</ele><time>2026-04-19T08:57:18.633Z</time></trkpt><trkpt lat="41.1896817" lon="16.6677883"><ele>9.0</ele><time>2026-04-19T08:57:20.633Z</time></trkpt><trkpt lat="41.189685" lon="16.66768"><ele>9.0</ele><time>2026-04-19T08:57:22.633Z</time></trkpt><trkpt lat="41.1897217" lon="16.6675717"><ele>9.0</ele><time>2026-04-19T08:57:24.633Z</time></trkpt><trkpt lat="41.1897583" lon="16.667475"><ele>9.0</ele><time>2026-04-19T08:57:26.634Z</time></trkpt><trkpt lat="41.1897967" lon="16.6673717"><ele>9.666666666666666</ele><time>2026-04-19T08:57:28.635Z</time></trkpt><trkpt lat="41.1898317" lon="16.667255"><ele>10.333333333333332</ele><time>2026-04-19T08:57:31.634Z</time></trkpt><trkpt lat="41.1898633" lon="16.66717"><ele>11.0</ele><time>2026-04-19T08:57:33.633Z</time></trkpt><trkpt lat="41.1899083" lon="16.6670517"><ele>11.666666666666666</ele><time>2026-04-19T08:57:35.635Z</time></trkpt><trkpt lat="41.1899417" lon="16.6669717"><ele>12.333333333333332</ele><time>2026-04-19T08:57:36.634Z</time></trkpt><trkpt lat="41.189985" lon="16.666885"><ele>13.0</ele><time>2026-04-19T08:57:37.634Z</time></trkpt><trkpt lat="41.1900383" lon="16.6668067"><ele>11.666666666666666</ele><time>2026-04-19T08:57:38.635Z</time></trkpt><trkpt lat="41.1900983" lon="16.666745"><ele>10.333333333333332</ele><time>2026-04-19T08:57:39.633Z</time></trkpt><trkpt lat="41.190165" lon="16.666695"><ele>9.0</ele><time>2026-04-19T08:57:40.633Z</time></trkpt><trkpt lat="41.1902367" lon="16.66665"><ele>7.666666666666666</ele><time>2026-04-19T08:57:41.635Z</time></trkpt><trkpt lat="41.1903133" lon="16.6666033"><ele>6.333333333333334</ele><time>2026-04-19T08:57:42.635Z</time></trkpt><trkpt lat="41.1903883" lon="16.6665383"><ele>5.0</ele><time>2026-04-19T08:57:43.634Z</time></trkpt><trkpt lat="41.1904567" lon="16.6664633"><ele>5.0</ele><time>2026-04-19T08:57:44.636Z</time></trkpt><trkpt lat="41.1905217" lon="16.6663867"><ele>5.0</ele><time>2026-04-19T08:57:45.634Z</time></trkpt><trkpt lat="41.190575" lon="16.6662967"><ele>5.0</ele><time>2026-04-19T08:57:46.633Z</time></trkpt><trkpt lat="41.1906217" lon="16.6661983"><ele>5.0</ele><time>2026-04-19T08:57:47.633Z</time></trkpt><trkpt lat="41.1906617" lon="16.6660917"><ele>5.0</ele><time>2026-04-19T08:57:48.635Z</time></trkpt><trkpt lat="41.190685" lon="16.6659733"><ele>5.0</ele><time>2026-04-19T08:57:49.634Z</time></trkpt><trkpt lat="41.190705" lon="16.665865"><ele>5.2</ele><time>2026-04-19T08:57:50.635Z</time></trkpt><trkpt lat="41.19072" lon="16.6657567"><ele>5.4</ele><time>2026-04-19T08:57:51.633Z</time></trkpt><trkpt lat="41.1907283" lon="16.6656417"><ele>5.6</ele><time>2026-04-19T08:57:52.633Z</time></trkpt><trkpt lat="41.1907267" lon="16.6655233"><ele>5.8</ele><time>2026-04-19T08:57:53.634Z</time></trkpt><trkpt lat="41.1907067" lon="16.6654083"><ele>6.0</ele><time>2026-04-19T08:57:54.633Z</time></trkpt><trkpt lat="41.190665" lon="16.6652833"><ele>6.0</ele><time>2026-04-19T08:57:55.634Z</time></trkpt><trkpt lat="41.1906017" lon="16.6651367"><ele>6.0</ele><time>2026-04-19T08:57:56.635Z</time></trkpt><trkpt lat="41.1905417" lon="16.6649817"><ele>6.0</ele><time>2026-04-19T08:57:57.633Z</time></trkpt><trkpt lat="41.1904933" lon="16.66484"><ele>6.0</ele><time>2026-04-19T08:57:58.634Z</time></trkpt><trkpt lat="41.1904533" lon="16.664705"><ele>6.0</ele><time>2026-04-19T08:57:59.634Z</time></trkpt><trkpt lat="41.190405" lon="16.6645733"><ele>6.0</ele><time>2026-04-19T08:58:00.634Z</time></trkpt><trkpt lat="41.1903667" lon="16.6644417"><ele>6.0</ele><time>2026-04-19T08:58:01.635Z</time></trkpt><trkpt lat="41.1903417" lon="16.66431"><ele>6.0</ele><time>2026-04-19T08:58:02.634Z</time></trkpt><trkpt lat="41.1903317" lon="16.6641833"><ele>6.0</ele><time>2026-04-19T08:58:03.634Z</time></trkpt><trkpt lat="41.1903383" lon="16.6640533"><ele>5.8</ele><time>2026-04-19T08:58:04.634Z</time></trkpt><trkpt lat="41.19035" lon="16.6639267"><ele>5.6</ele><time>2026-04-19T08:58:05.634Z</time></trkpt><trkpt lat="41.190365" lon="16.6638117"><ele>5.4</ele><time>2026-04-19T08:58:06.634Z</time></trkpt><trkpt lat="41.190385" lon="16.6637133"><ele>5.2</ele><time>2026-04-19T08:58:07.634Z</time></trkpt><trkpt lat="41.1904167" lon="16.6636317"><ele>5.0</ele><time>2026-04-19T08:58:08.634Z</time></trkpt><trkpt lat="41.1904917" lon="16.6634983"><ele>5.5</ele><time>2026-04-19T08:58:10.633Z</time></trkpt><trkpt lat="41.1905483" lon="16.6634267"><ele>6.0</ele><time>2026-04-19T08:58:11.634Z</time></trkpt><trkpt lat="41.1906167" lon="16.6633517"><ele>6.5</ele><time>2026-04-19T08:58:12.634Z</time></trkpt><trkpt lat="41.1906917" lon="16.6632833"><ele>7.0</ele><time>2026-04-19T08:58:13.634Z</time></trkpt><trkpt lat="41.1907667" lon="16.663225"><ele>7.499999999999999</ele><time>2026-04-19T08:58:14.634Z</time></trkpt><trkpt lat="41.19084" lon="16.6631683"><ele>8.0</ele><time>2026-04-19T08:58:15.633Z</time></trkpt><trkpt lat="41.1909117" lon="16.6631133"><ele>6.800000000000001</ele><time>2026-04-19T08:58:16.633Z</time></trkpt><trkpt lat="41.1909717" lon="16.663065"><ele>5.6000000000000005</ele><time>2026-04-19T08:58:17.635Z</time></trkpt><trkpt lat="41.1910783" lon="16.6629767"><ele>4.4</ele><time>2026-04-19T08:58:19.633Z</time></trkpt><trkpt lat="41.1911383" lon="16.662925"><ele>3.2</ele><time>2026-04-19T08:58:20.634Z</time></trkpt><trkpt lat="41.19121" lon="16.6628667"><ele>2.0</ele><time>2026-04-19T08:58:21.633Z</time></trkpt><trkpt lat="41.1912967" lon="16.6627983"><ele>1.8</ele><time>2026-04-19T08:58:22.633Z</time></trkpt><trkpt lat="41.1913917" lon="16.662725"><ele>1.6</ele><time>2026-04-19T08:58:23.633Z</time></trkpt><trkpt lat="41.1914867" lon="16.6626533"><ele>1.4000000000000001</ele><time>2026-04-19T08:58:24.633Z</time></trkpt><trkpt lat="41.19158" lon="16.6625783"><ele>1.2000000000000002</ele><time>2026-04-19T08:58:25.635Z</time></trkpt><trkpt lat="41.19168" lon="16.6625"><ele>1.0</ele><time>2026-04-19T08:58:26.635Z</time></trkpt><trkpt lat="41.19177" lon="16.6624217"><ele>1.0</ele><time>2026-04-19T08:58:27.633Z</time></trkpt><trkpt lat="41.1918417" lon="16.6623233"><ele>1.0</ele><time>2026-04-19T08:58:28.634Z</time></trkpt><trkpt lat="41.1919017" lon="16.6622033"><ele>1.0</ele><time>2026-04-19T08:58:29.635Z</time></trkpt><trkpt lat="41.1919467" lon="16.6620683"><ele>1.0</ele><time>2026-04-19T08:58:30.633Z</time></trkpt><trkpt lat="41.1919783" lon="16.6619233"><ele>1.0</ele><time>2026-04-19T08:58:31.633Z</time></trkpt><trkpt lat="41.1919933" lon="16.6617683"><ele>1.5</ele><time>2026-04-19T08:58:32.634Z</time></trkpt><trkpt lat="41.191985" lon="16.661615"><ele>2.0</ele><time>2026-04-19T08:58:33.637Z</time></trkpt><trkpt lat="41.1919633" lon="16.6614617"><ele>2.5</ele><time>2026-04-19T08:58:34.633Z</time></trkpt><trkpt lat="41.1919367" lon="16.6613117"><ele>3.0</ele><time>2026-04-19T08:58:35.633Z</time></trkpt><trkpt lat="41.1918917" lon="16.6611617"><ele>2.75</ele><time>2026-04-19T08:58:36.633Z</time></trkpt><trkpt lat="41.1918433" lon="16.661015"><ele>2.5</ele><time>2026-04-19T08:58:37.633Z</time></trkpt><trkpt lat="41.1917983" lon="16.6608667"><ele>2.25</ele><time>2026-04-19T08:58:38.634Z</time></trkpt><trkpt lat="41.1917533" lon="16.6607167"><ele>2.0</ele><time>2026-04-19T08:58:39.634Z</time></trkpt><trkpt lat="41.1917083" lon="16.660565"><ele>2.0</ele><time>2026-04-19T08:58:40.636Z</time></trkpt><trkpt lat="41.1916617" lon="16.660405"><ele>2.0</ele><time>2026-04-19T08:58:41.637Z</time></trkpt><trkpt lat="41.1916133" lon="16.6602433"><ele>2.0</ele><time>2026-04-19T08:58:42.634Z</time></trkpt><trkpt lat="41.1915667" lon="16.6601033"><ele>2.0</ele><time>2026-04-19T08:58:43.634Z</time></trkpt><trkpt lat="41.191525" lon="16.6599783"><ele>2.333333333333333</ele><time>2026-04-19T08:58:44.635Z</time></trkpt><trkpt lat="41.1914933" lon="16.659865"><ele>2.6666666666666665</ele><time>2026-04-19T08:58:45.634Z</time></trkpt><trkpt lat="41.19147" lon="16.6597517"><ele>3.0</ele><time>2026-04-19T08:58:46.635Z</time></trkpt><trkpt lat="41.1914467" lon="16.659645"><ele>3.333333333333333</ele><time>2026-04-19T08:58:47.635Z</time></trkpt><trkpt lat="41.1914367" lon="16.6595417"><ele>3.6666666666666665</ele><time>2026-04-19T08:58:48.633Z</time></trkpt><trkpt lat="41.1914333" lon="16.65945"><ele>4.0</ele><time>2026-04-19T08:58:49.635Z</time></trkpt><trkpt lat="41.19145" lon="16.6593033"><ele>3.9999999999999996</ele><time>2026-04-19T08:58:51.633Z</time></trkpt><trkpt lat="41.1914683" lon="16.659185"><ele>4.0</ele><time>2026-04-19T08:58:53.634Z</time></trkpt><trkpt lat="41.1914817" lon="16.659065"><ele>4.0</ele><time>2026-04-19T08:58:55.633Z</time></trkpt><trkpt lat="41.1914967" lon="16.6589783"><ele>4.0</ele><time>2026-04-19T08:58:56.634Z</time></trkpt><trkpt lat="41.191515" lon="16.65888"><ele>3.9999999999999996</ele><time>2026-04-19T08:58:57.633Z</time></trkpt><trkpt lat="41.1915417" lon="16.65876"><ele>4.0</ele><time>2026-04-19T08:58:58.634Z</time></trkpt><trkpt lat="41.191565" lon="16.6586233"><ele>3.6666666666666665</ele><time>2026-04-19T08:58:59.634Z</time></trkpt><trkpt lat="41.1915867" lon="16.65849"><ele>3.333333333333333</ele><time>2026-04-19T08:59:00.634Z</time></trkpt><trkpt lat="41.1916033" lon="16.6583733"><ele>3.0</ele><time>2026-04-19T08:59:01.634Z</time></trkpt><trkpt lat="41.1916183" lon="16.658275"><ele>2.6666666666666665</ele><time>2026-04-19T08:59:02.634Z</time></trkpt><trkpt lat="41.191635" lon="16.6581783"><ele>2.333333333333333</ele><time>2026-04-19T08:59:03.633Z</time></trkpt><trkpt lat="41.19165" lon="16.65807"><ele>2.0</ele><time>2026-04-19T08:59:04.634Z</time></trkpt><trkpt lat="41.1916683" lon="16.6579483"><ele>1.9999999999999998</ele><time>2026-04-19T08:59:05.634Z</time></trkpt><trkpt lat="41.1916883" lon="16.657825"><ele>2.0</ele><time>2026-04-19T08:59:06.634Z</time></trkpt><trkpt lat="41.1917067" lon="16.6577117"><ele>2.0</ele><time>2026-04-19T08:59:07.635Z</time></trkpt><trkpt lat="41.19173" lon="16.657615"><ele>2.0</ele><time>2026-04-19T08:59:08.634Z</time></trkpt><trkpt lat="41.1917633" lon="16.657535"><ele>1.9999999999999998</ele><time>2026-04-19T08:59:09.633Z</time></trkpt><trkpt lat="41.1918517" lon="16.6574283"><ele>2.0</ele><time>2026-04-19T08:59:11.635Z</time></trkpt><trkpt lat="41.1919767" lon="16.65741"><ele>1.9999999999999998</ele><time>2026-04-19T08:59:13.634Z</time></trkpt><trkpt lat="41.19204" lon="16.6574167"><ele>2.0</ele><time>2026-04-19T08:59:14.634Z</time></trkpt><trkpt lat="41.19217" lon="16.6574467"><ele>2.0</ele><time>2026-04-19T08:59:16.633Z</time></trkpt><trkpt lat="41.1922417" lon="16.6574733"><ele>2.0</ele><time>2026-04-19T08:59:17.638Z</time></trkpt><trkpt lat="41.1923117" lon="16.657495"><ele>1.9999999999999998</ele><time>2026-04-19T08:59:18.635Z</time></trkpt><trkpt lat="41.19241" lon="16.6574983"><ele>2.0</ele><time>2026-04-19T08:59:20.636Z</time></trkpt><trkpt lat="41.1924567" lon="16.657375"><ele>2.0</ele><time>2026-04-19T08:59:23.634Z</time></trkpt><trkpt lat="41.1924467" lon="16.6572767"><ele>2.0</ele><time>2026-04-19T08:59:24.633Z</time></trkpt><trkpt lat="41.1924267" lon="16.6571883"><ele>2.0</ele><time>2026-04-19T08:59:25.635Z</time></trkpt><trkpt lat="41.192355" lon="16.6570683"><ele>2.0</ele><time>2026-04-19T08:59:27.633Z</time></trkpt><trkpt lat="41.192225" lon="16.6570333"><ele>2.0</ele><time>2026-04-19T08:59:29.633Z</time></trkpt><trkpt lat="41.1921417" lon="16.65702"><ele>1.9999999999999998</ele><time>2026-04-19T08:59:30.633Z</time></trkpt><trkpt lat="41.19205" lon="16.657015"><ele>2.0</ele><time>2026-04-19T08:59:31.633Z</time></trkpt><trkpt lat="41.1919567" lon="16.6570333"><ele>2.0</ele><time>2026-04-19T08:59:32.634Z</time></trkpt><trkpt lat="41.191875" lon="16.6570783"><ele>2.0</ele><time>2026-04-19T08:59:33.633Z</time></trkpt><trkpt lat="41.1918133" lon="16.6571483"><ele>1.9999999999999998</ele><time>2026-04-19T08:59:34.634Z</time></trkpt><trkpt lat="41.1917667" lon="16.6572483"><ele>2.0</ele><time>2026-04-19T08:59:35.636Z</time></trkpt><trkpt lat="41.1917367" lon="16.65738"><ele>2.0</ele><time>2026-04-19T08:59:36.633Z</time></trkpt><trkpt lat="41.19171" lon="16.6575267"><ele>2.0</ele><time>2026-04-19T08:59:37.634Z</time></trkpt><trkpt lat="41.191685" lon="16.657665"><ele>2.0</ele><time>2026-04-19T08:59:38.635Z</time></trkpt><trkpt lat="41.1916633" lon="16.6578133"><ele>2.0</ele><time>2026-04-19T08:59:39.634Z</time></trkpt><trkpt lat="41.1916433" lon="16.657965"><ele>1.9999999999999998</ele><time>2026-04-19T08:59:40.633Z</time></trkpt><trkpt lat="41.1916217" lon="16.6581133"><ele>2.0</ele><time>2026-04-19T08:59:41.635Z</time></trkpt><trkpt lat="41.1916" lon="16.6582383"><ele>2.0</ele><time>2026-04-19T08:59:42.634Z</time></trkpt><trkpt lat="41.1915783" lon="16.65835"><ele>2.0</ele><time>2026-04-19T08:59:43.634Z</time></trkpt><trkpt lat="41.19156" lon="16.65845"><ele>1.9999999999999998</ele><time>2026-04-19T08:59:44.634Z</time></trkpt><trkpt lat="41.1915467" lon="16.65854"><ele>2.0</ele><time>2026-04-19T08:59:45.633Z</time></trkpt><trkpt lat="41.191535" lon="16.6586233"><ele>1.8333333333333333</ele><time>2026-04-19T08:59:46.633Z</time></trkpt><trkpt lat="41.1915217" lon="16.6587167"><ele>1.6666666666666665</ele><time>2026-04-19T08:59:47.634Z</time></trkpt><trkpt lat="41.191505" lon="16.6588217"><ele>1.5</ele><time>2026-04-19T08:59:48.633Z</time></trkpt><trkpt lat="41.19149" lon="16.6589233"><ele>1.3333333333333333</ele><time>2026-04-19T08:59:49.635Z</time></trkpt><trkpt lat="41.1914733" lon="16.6590617"><ele>1.1666666666666665</ele><time>2026-04-19T08:59:51.633Z</time></trkpt><trkpt lat="41.1913783" lon="16.6591317"><ele>1.0</ele><time>2026-04-19T08:59:54.633Z</time></trkpt><trkpt lat="41.191315" lon="16.6591367"><ele>1.75</ele><time>2026-04-19T08:59:55.634Z</time></trkpt><trkpt lat="41.1912367" lon="16.6591417"><ele>2.5</ele><time>2026-04-19T08:59:56.635Z</time></trkpt><trkpt lat="41.1911217" lon="16.65914"><ele>3.25</ele><time>2026-04-19T08:59:57.633Z</time></trkpt><trkpt lat="41.1909983" lon="16.659135"><ele>4.0</ele><time>2026-04-19T08:59:58.633Z</time></trkpt><trkpt lat="41.1908483" lon="16.6591367"><ele>4.0</ele><time>2026-04-19T08:59:59.634Z</time></trkpt><trkpt lat="41.190685" lon="16.6591383"><ele>4.0</ele><time>2026-04-19T09:00:00.633Z</time></trkpt><trkpt lat="41.1905283" lon="16.6591333"><ele>4.0</ele><time>2026-04-19T09:00:01.634Z</time></trkpt><trkpt lat="41.1903883" lon="16.6591433"><ele>4.75</ele><time>2026-04-19T09:00:02.634Z</time></trkpt><trkpt lat="41.190255" lon="16.6591483"><ele>5.5</ele><time>2026-04-19T09:00:03.634Z</time></trkpt><trkpt lat="41.1901267" lon="16.6591467"><ele>6.25</ele><time>2026-04-19T09:00:04.635Z</time></trkpt><trkpt lat="41.19" lon="16.6591467"><ele>7.0</ele><time>2026-04-19T09:00:05.634Z</time></trkpt><trkpt lat="41.18987" lon="16.6591483"><ele>7.3999999999999995</ele><time>2026-04-19T09:00:06.634Z</time></trkpt><trkpt lat="41.1897417" lon="16.6591433"><ele>7.799999999999999</ele><time>2026-04-19T09:00:07.634Z</time></trkpt><trkpt lat="41.1896267" lon="16.6591417"><ele>8.2</ele><time>2026-04-19T09:00:08.638Z</time></trkpt><trkpt lat="41.1895217" lon="16.6591283"><ele>8.6</ele><time>2026-04-19T09:00:09.633Z</time></trkpt><trkpt lat="41.1894283" lon="16.65911"><ele>9.0</ele><time>2026-04-19T09:00:10.634Z</time></trkpt><trkpt lat="41.189355" lon="16.6590817"><ele>9.0</ele><time>2026-04-19T09:00:11.634Z</time></trkpt><trkpt lat="41.18927" lon="16.658995"><ele>9.0</ele><time>2026-04-19T09:00:13.633Z</time></trkpt><trkpt lat="41.1892717" lon="16.6588867"><ele>9.0</ele><time>2026-04-19T09:00:19.634Z</time></trkpt><trkpt lat="41.1892767" lon="16.6587383"><ele>9.0</ele><time>2026-04-19T09:00:21.633Z</time></trkpt><trkpt lat="41.1892817" lon="16.6586433"><ele>9.0</ele><time>2026-04-19T09:00:22.633Z</time></trkpt><trkpt lat="41.1892867" lon="16.658545"><ele>9.0</ele><time>2026-04-19T09:00:23.635Z</time></trkpt><trkpt lat="41.1892933" lon="16.6584583"><ele>9.0</ele><time>2026-04-19T09:00:24.633Z</time></trkpt><trkpt lat="41.1893" lon="16.65833"><ele>9.0</ele><time>2026-04-19T09:00:26.634Z</time></trkpt><trkpt lat="41.1892317" lon="16.6582833"><ele>9.0</ele><time>2026-04-19T09:00:29.635Z</time></trkpt><trkpt lat="41.189225" lon="16.65843"><ele>9.0</ele><time>2026-04-19T09:00:32.634Z</time></trkpt><trkpt lat="41.1892483" lon="16.6585267"><ele>9.0</ele><time>2026-04-19T09:00:33.633Z</time></trkpt><trkpt lat="41.18926" lon="16.6586417"><ele>9.0</ele><time>2026-04-19T09:00:34.633Z</time></trkpt><trkpt lat="41.189255" lon="16.65877"><ele>9.0</ele><time>2026-04-19T09:00:35.634Z</time></trkpt><trkpt lat="41.1892383" lon="16.65891"><ele>9.0</ele><time>2026-04-19T09:00:36.633Z</time></trkpt><trkpt lat="41.1892167" lon="16.6590633"><ele>9.0</ele><time>2026-04-19T09:00:37.636Z</time></trkpt><trkpt lat="41.189195" lon="16.6592417"><ele>9.0</ele><time>2026-04-19T09:00:38.634Z</time></trkpt><trkpt lat="41.1891767" lon="16.6594517"><ele>9.333333333333334</ele><time>2026-04-19T09:00:39.633Z</time></trkpt><trkpt lat="41.18915" lon="16.65968"><ele>9.666666666666668</ele><time>2026-04-19T09:00:40.633Z</time></trkpt><trkpt lat="41.1891233" lon="16.6599117"><ele>10.0</ele><time>2026-04-19T09:00:41.634Z</time></trkpt><trkpt lat="41.189095" lon="16.6601333"><ele>10.5</ele><time>2026-04-19T09:00:42.633Z</time></trkpt><trkpt lat="41.18907" lon="16.6603383"><ele>11.0</ele><time>2026-04-19T09:00:43.633Z</time></trkpt><trkpt lat="41.189045" lon="16.6605267"><ele>11.5</ele><time>2026-04-19T09:00:44.634Z</time></trkpt><trkpt lat="41.1890183" lon="16.660705"><ele>12.0</ele><time>2026-04-19T09:00:45.633Z</time></trkpt><trkpt lat="41.1889933" lon="16.6608717"><ele>12.0</ele><time>2026-04-19T09:00:46.634Z</time></trkpt><trkpt lat="41.188975" lon="16.6610267"><ele>12.0</ele><time>2026-04-19T09:00:47.634Z</time></trkpt><trkpt lat="41.1889483" lon="16.66117"><ele>12.0</ele><time>2026-04-19T09:00:48.633Z</time></trkpt><trkpt lat="41.188915" lon="16.6612933"><ele>12.0</ele><time>2026-04-19T09:00:49.636Z</time></trkpt><trkpt lat="41.1888767" lon="16.6613833"><ele>12.0</ele><time>2026-04-19T09:00:50.634Z</time></trkpt><trkpt lat="41.1888417" lon="16.661465"><ele>12.0</ele><time>2026-04-19T09:00:51.633Z</time></trkpt><trkpt lat="41.1887967" lon="16.661615"><ele>12.0</ele><time>2026-04-19T09:00:53.633Z</time></trkpt><trkpt lat="41.1888083" lon="16.6617067"><ele>12.0</ele><time>2026-04-19T09:00:54.633Z</time></trkpt><trkpt lat="41.18883" lon="16.6618117"><ele>12.0</ele><time>2026-04-19T09:00:55.634Z</time></trkpt><trkpt lat="41.1888333" lon="16.6619367"><ele>12.0</ele><time>2026-04-19T09:00:56.634Z</time></trkpt><trkpt lat="41.188825" lon="16.6620883"><ele>11.75</ele><time>2026-04-19T09:00:57.633Z</time></trkpt><trkpt lat="41.1888083" lon="16.662255"><ele>11.5</ele><time>2026-04-19T09:00:58.634Z</time></trkpt><trkpt lat="41.1887933" lon="16.6624267"><ele>11.25</ele><time>2026-04-19T09:00:59.634Z</time></trkpt><trkpt lat="41.1887783" lon="16.66259"><ele>11.0</ele><time>2026-04-19T09:01:00.633Z</time></trkpt><trkpt lat="41.18876" lon="16.6627417"><ele>10.8</ele><time>2026-04-19T09:01:01.633Z</time></trkpt><trkpt lat="41.1887333" lon="16.6628783"><ele>10.600000000000001</ele><time>2026-04-19T09:01:02.634Z</time></trkpt><trkpt lat="41.188715" lon="16.6630083"><ele>10.4</ele><time>2026-04-19T09:01:03.633Z</time></trkpt><trkpt lat="41.1887" lon="16.6631383"><ele>10.2</ele><time>2026-04-19T09:01:04.633Z</time></trkpt><trkpt lat="41.1886817" lon="16.6632767"><ele>10.0</ele><time>2026-04-19T09:01:05.634Z</time></trkpt><trkpt lat="41.1886667" lon="16.663415"><ele>10.0</ele><time>2026-04-19T09:01:06.635Z</time></trkpt><trkpt lat="41.1886517" lon="16.663555"><ele>10.0</ele><time>2026-04-19T09:01:07.634Z</time></trkpt><trkpt lat="41.1886367" lon="16.6636983"><ele>10.0</ele><time>2026-04-19T09:01:08.634Z</time></trkpt><trkpt lat="41.1886183" lon="16.6638417"><ele>10.0</ele><time>2026-04-19T09:01:09.634Z</time></trkpt><trkpt lat="41.1886017" lon="16.6639817"><ele>10.0</ele><time>2026-04-19T09:01:10.633Z</time></trkpt><trkpt lat="41.188585" lon="16.6641133"><ele>10.166666666666668</ele><time>2026-04-19T09:01:11.634Z</time></trkpt><trkpt lat="41.1885667" lon="16.6642367"><ele>10.333333333333334</ele><time>2026-04-19T09:01:12.634Z</time></trkpt><trkpt lat="41.1885517" lon="16.6643533"><ele>10.5</ele><time>2026-04-19T09:01:13.634Z</time></trkpt><trkpt lat="41.1885367" lon="16.664465"><ele>10.666666666666666</ele><time>2026-04-19T09:01:14.635Z</time></trkpt><trkpt lat="41.1885217" lon="16.6645667"><ele>10.833333333333332</ele><time>2026-04-19T09:01:15.633Z</time></trkpt><trkpt lat="41.18851" lon="16.6646617"><ele>11.0</ele><time>2026-04-19T09:01:16.633Z</time></trkpt><trkpt lat="41.1885" lon="16.6647533"><ele>11.333333333333332</ele><time>2026-04-19T09:01:17.635Z</time></trkpt><trkpt lat="41.1884917" lon="16.66484"><ele>11.666666666666666</ele><time>2026-04-19T09:01:18.634Z</time></trkpt><trkpt lat="41.1884817" lon="16.66493"><ele>12.0</ele><time>2026-04-19T09:01:19.634Z</time></trkpt><trkpt lat="41.1884733" lon="16.6650317"><ele>12.333333333333332</ele><time>2026-04-19T09:01:20.635Z</time></trkpt><trkpt lat="41.1884617" lon="16.6651417"><ele>12.666666666666666</ele><time>2026-04-19T09:01:21.634Z</time></trkpt><trkpt lat="41.188445" lon="16.6652567"><ele>13.0</ele><time>2026-04-19T09:01:22.635Z</time></trkpt><trkpt lat="41.188425" lon="16.6653683"><ele>13.666666666666666</ele><time>2026-04-19T09:01:23.634Z</time></trkpt><trkpt lat="41.18841" lon="16.665465"><ele>14.333333333333332</ele><time>2026-04-19T09:01:24.634Z</time></trkpt><trkpt lat="41.1883967" lon="16.6655917"><ele>15.0</ele><time>2026-04-19T09:01:26.635Z</time></trkpt><trkpt lat="41.1883467" lon="16.6657183"><ele>15.666666666666668</ele><time>2026-04-19T09:01:35.634Z</time></trkpt><trkpt lat="41.1883267" lon="16.6658"><ele>16.333333333333336</ele><time>2026-04-19T09:01:36.634Z</time></trkpt><trkpt lat="41.1883067" lon="16.6659183"><ele>17.0</ele><time>2026-04-19T09:01:37.635Z</time></trkpt><trkpt lat="41.1883033" lon="16.6660817"><ele>16.75</ele><time>2026-04-19T09:01:38.634Z</time></trkpt><trkpt lat="41.18829" lon="16.6662583"><ele>16.5</ele><time>2026-04-19T09:01:39.634Z</time></trkpt><trkpt lat="41.188275" lon="16.66643"><ele>16.25</ele><time>2026-04-19T09:01:40.633Z</time></trkpt><trkpt lat="41.1882583" lon="16.6665967"><ele>16.0</ele><time>2026-04-19T09:01:41.633Z</time></trkpt><trkpt lat="41.1882433" lon="16.6667533"><ele>16.0</ele><time>2026-04-19T09:01:42.633Z</time></trkpt><trkpt lat="41.1882233" lon="16.6668917"><ele>16.0</ele><time>2026-04-19T09:01:43.633Z</time></trkpt><trkpt lat="41.1882067" lon="16.6670283"><ele>16.0</ele><time>2026-04-19T09:01:44.633Z</time></trkpt><trkpt lat="41.1881867" lon="16.667165"><ele>16.0</ele><time>2026-04-19T09:01:45.633Z</time></trkpt><trkpt lat="41.1881617" lon="16.667305"><ele>16.0</ele><time>2026-04-19T09:01:46.633Z</time></trkpt><trkpt lat="41.18814" lon="16.6674467"><ele>16.2</ele><time>2026-04-19T09:01:47.633Z</time></trkpt><trkpt lat="41.18812" lon="16.6675967"><ele>16.400000000000002</ele><time>2026-04-19T09:01:48.633Z</time></trkpt><trkpt lat="41.1881033" lon="16.6677467"><ele>16.6</ele><time>2026-04-19T09:01:49.633Z</time></trkpt><trkpt lat="41.18809" lon="16.667885"><ele>16.8</ele><time>2026-04-19T09:01:50.633Z</time></trkpt><trkpt lat="41.188075" lon="16.66801"><ele>17.0</ele><time>2026-04-19T09:01:51.633Z</time></trkpt><trkpt lat="41.1880617" lon="16.6681333"><ele>16.666666666666668</ele><time>2026-04-19T09:01:52.634Z</time></trkpt><trkpt lat="41.1880433" lon="16.66825"><ele>16.333333333333336</ele><time>2026-04-19T09:01:53.633Z</time></trkpt><trkpt lat="41.1880267" lon="16.6683567"><ele>16.0</ele><time>2026-04-19T09:01:54.633Z</time></trkpt><trkpt lat="41.1880083" lon="16.6684633"><ele>15.666666666666668</ele><time>2026-04-19T09:01:55.635Z</time></trkpt><trkpt lat="41.18799" lon="16.6685817"><ele>15.333333333333334</ele><time>2026-04-19T09:01:56.634Z</time></trkpt><trkpt lat="41.1879717" lon="16.668715"><ele>15.0</ele><time>2026-04-19T09:01:57.633Z</time></trkpt><trkpt lat="41.1879567" lon="16.66885"><ele>14.833333333333334</ele><time>2026-04-19T09:01:58.634Z</time></trkpt><trkpt lat="41.1879467" lon="16.66898"><ele>14.666666666666668</ele><time>2026-04-19T09:01:59.633Z</time></trkpt><trkpt lat="41.1879267" lon="16.6691017"><ele>14.5</ele><time>2026-04-19T09:02:00.633Z</time></trkpt><trkpt lat="41.18791" lon="16.6692133"><ele>14.333333333333334</ele><time>2026-04-19T09:02:01.634Z</time></trkpt><trkpt lat="41.1879" lon="16.669315"><ele>14.166666666666668</ele><time>2026-04-19T09:02:02.634Z</time></trkpt><trkpt lat="41.18789" lon="16.6694167"><ele>14.0</ele><time>2026-04-19T09:02:03.633Z</time></trkpt><trkpt lat="41.18788" lon="16.66952"><ele>13.500000000000002</ele><time>2026-04-19T09:02:04.633Z</time></trkpt><trkpt lat="41.1878683" lon="16.669625"><ele>13.0</ele><time>2026-04-19T09:02:05.633Z</time></trkpt><trkpt lat="41.1878533" lon="16.6697217"><ele>12.5</ele><time>2026-04-19T09:02:06.633Z</time></trkpt><trkpt lat="41.18784" lon="16.669815"><ele>12.0</ele><time>2026-04-19T09:02:07.633Z</time></trkpt><trkpt lat="41.1878233" lon="16.6698983"><ele>11.5</ele><time>2026-04-19T09:02:08.634Z</time></trkpt><trkpt lat="41.18779" lon="16.67005"><ele>11.0</ele><time>2026-04-19T09:02:10.633Z</time></trkpt><trkpt lat="41.1877417" lon="16.6701983"><ele>10.600000000000001</ele><time>2026-04-19T09:02:12.633Z</time></trkpt><trkpt lat="41.18768" lon="16.6703267"><ele>10.200000000000001</ele><time>2026-04-19T09:02:14.634Z</time></trkpt><trkpt lat="41.1876367" lon="16.6703933"><ele>9.8</ele><time>2026-04-19T09:02:15.633Z</time></trkpt><trkpt lat="41.1875983" lon="16.6704617"><ele>9.4</ele><time>2026-04-19T09:02:16.636Z</time></trkpt><trkpt lat="41.1875333" lon="16.6705733"><ele>9.0</ele><time>2026-04-19T09:02:18.633Z</time></trkpt><trkpt lat="41.1874833" lon="16.6707"><ele>9.0</ele><time>2026-04-19T09:02:20.634Z</time></trkpt><trkpt lat="41.1874467" lon="16.6708233"><ele>9.0</ele><time>2026-04-19T09:02:22.633Z</time></trkpt><trkpt lat="41.18743" lon="16.670915"><ele>9.0</ele><time>2026-04-19T09:02:24.633Z</time></trkpt><trkpt lat="41.1874067" lon="16.671055"><ele>9.0</ele><time>2026-04-19T09:02:34.634Z</time></trkpt><trkpt lat="41.1873867" lon="16.67117"><ele>9.0</ele><time>2026-04-19T09:02:36.633Z</time></trkpt><trkpt lat="41.1873667" lon="16.6713183"><ele>9.0</ele><time>2026-04-19T09:02:38.634Z</time></trkpt><trkpt lat="41.1873517" lon="16.671465"><ele>9.0</ele><time>2026-04-19T09:02:40.635Z</time></trkpt><trkpt lat="41.187335" lon="16.671605"><ele>9.0</ele><time>2026-04-19T09:02:42.633Z</time></trkpt><trkpt lat="41.1873333" lon="16.6717517"><ele>9.0</ele><time>2026-04-19T09:02:44.635Z</time></trkpt><trkpt lat="41.18732" lon="16.671875"><ele>9.0</ele><time>2026-04-19T09:02:46.634Z</time></trkpt><trkpt lat="41.1873033" lon="16.6720317"><ele>9.2</ele><time>2026-04-19T09:02:48.634Z</time></trkpt><trkpt lat="41.1872933" lon="16.6721183"><ele>9.4</ele><time>2026-04-19T09:02:49.633Z</time></trkpt><trkpt lat="41.1872783" lon="16.6722583"><ele>9.6</ele><time>2026-04-19T09:02:51.633Z</time></trkpt><trkpt lat="41.1872567" lon="16.6723867"><ele>9.8</ele><time>2026-04-19T09:02:53.633Z</time></trkpt><trkpt lat="41.18724" lon="16.6725333"><ele>10.0</ele><time>2026-04-19T09:02:55.635Z</time></trkpt><trkpt lat="41.18723" lon="16.6726717"><ele>10.4</ele><time>2026-04-19T09:02:57.633Z</time></trkpt><trkpt lat="41.1872167" lon="16.6728"><ele>10.8</ele><time>2026-04-19T09:02:59.634Z</time></trkpt><trkpt lat="41.187195" lon="16.6728817"><ele>11.2</ele><time>2026-04-19T09:03:02.634Z</time></trkpt><trkpt lat="41.1871817" lon="16.6730267"><ele>11.6</ele><time>2026-04-19T09:03:05.634Z</time></trkpt><trkpt lat="41.18715" lon="16.673175"><ele>12.0</ele><time>2026-04-19T09:03:07.635Z</time></trkpt><trkpt lat="41.187085" lon="16.6732983"><ele>12.0</ele><time>2026-04-19T09:03:09.633Z</time></trkpt><trkpt lat="41.1870033" lon="16.67341"><ele>12.0</ele><time>2026-04-19T09:03:11.633Z</time></trkpt><trkpt lat="41.18693" lon="16.6734883"><ele>12.0</ele><time>2026-04-19T09:03:13.636Z</time></trkpt><trkpt lat="41.1868317" lon="16.6735133"><ele>12.0</ele><time>2026-04-19T09:03:15.633Z</time></trkpt><trkpt lat="41.186765" lon="16.67351"><ele>12.0</ele><time>2026-04-19T09:03:16.634Z</time></trkpt><trkpt lat="41.1866833" lon="16.6735017"><ele>12.0</ele><time>2026-04-19T09:03:17.635Z</time></trkpt><trkpt lat="41.1865983" lon="16.6734883"><ele>12.0</ele><time>2026-04-19T09:03:18.634Z</time></trkpt><trkpt lat="41.18651" lon="16.6734717"><ele>12.0</ele><time>2026-04-19T09:03:19.634Z</time></trkpt><trkpt lat="41.18642" lon="16.6734567"><ele>12.0</ele><time>2026-04-19T09:03:20.634Z</time></trkpt><trkpt lat="41.1863283" lon="16.67345"><ele>12.0</ele><time>2026-04-19T09:03:21.633Z</time></trkpt><trkpt lat="41.1862283" lon="16.6734433"><ele>12.0</ele><time>2026-04-19T09:03:22.634Z</time></trkpt><trkpt lat="41.1861267" lon="16.67344"><ele>12.0</ele><time>2026-04-19T09:03:23.634Z</time></trkpt><trkpt lat="41.1860317" lon="16.6734367"><ele>12.0</ele><time>2026-04-19T09:03:24.634Z</time></trkpt><trkpt lat="41.1859383" lon="16.67344"><ele>12.0</ele><time>2026-04-19T09:03:25.634Z</time></trkpt><trkpt lat="41.185835" lon="16.6734467"><ele>12.0</ele><time>2026-04-19T09:03:26.634Z</time></trkpt><trkpt lat="41.1857317" lon="16.67348"><ele>12.6</ele><time>2026-04-19T09:03:27.633Z</time></trkpt><trkpt lat="41.1856333" lon="16.6735017"><ele>13.2</ele><time>2026-04-19T09:03:28.634Z</time></trkpt><trkpt lat="41.1855417" lon="16.6735317"><ele>13.8</ele><time>2026-04-19T09:03:29.634Z</time></trkpt><trkpt lat="41.18545" lon="16.67355"><ele>14.4</ele><time>2026-04-19T09:03:30.633Z</time></trkpt><trkpt lat="41.1853417" lon="16.67356"><ele>15.0</ele><time>2026-04-19T09:03:31.634Z</time></trkpt><trkpt lat="41.1852367" lon="16.67357"><ele>15.0</ele><time>2026-04-19T09:03:32.634Z</time></trkpt><trkpt lat="41.1851283" lon="16.673585"><ele>15.0</ele><time>2026-04-19T09:03:33.633Z</time></trkpt><trkpt lat="41.1850233" lon="16.6736333"><ele>15.0</ele><time>2026-04-19T09:03:34.633Z</time></trkpt><trkpt lat="41.18492" lon="16.6736617"><ele>15.0</ele><time>2026-04-19T09:03:35.633Z</time></trkpt><trkpt lat="41.1848283" lon="16.6736833"><ele>15.0</ele><time>2026-04-19T09:03:36.633Z</time></trkpt><trkpt lat="41.1847433" lon="16.6737"><ele>15.5</ele><time>2026-04-19T09:03:37.635Z</time></trkpt><trkpt lat="41.18466" lon="16.6737233"><ele>16.0</ele><time>2026-04-19T09:03:38.634Z</time></trkpt><trkpt lat="41.18458" lon="16.67376"><ele>16.5</ele><time>2026-04-19T09:03:39.633Z</time></trkpt><trkpt lat="41.1844917" lon="16.6737933"><ele>17.0</ele><time>2026-04-19T09:03:40.634Z</time></trkpt><trkpt lat="41.1843983" lon="16.673815"><ele>17.5</ele><time>2026-04-19T09:03:41.635Z</time></trkpt><trkpt lat="41.1843083" lon="16.6738367"><ele>18.0</ele><time>2026-04-19T09:03:42.633Z</time></trkpt><trkpt lat="41.18423" lon="16.673855"><ele>18.0</ele><time>2026-04-19T09:03:43.633Z</time></trkpt><trkpt lat="41.18416" lon="16.6738767"><ele>18.0</ele><time>2026-04-19T09:03:44.635Z</time></trkpt><trkpt lat="41.1840333" lon="16.6739033"><ele>18.0</ele><time>2026-04-19T09:03:46.633Z</time></trkpt><trkpt lat="41.1839617" lon="16.6739167"><ele>18.0</ele><time>2026-04-19T09:03:47.635Z</time></trkpt><trkpt lat="41.18388" lon="16.6739333"><ele>18.0</ele><time>2026-04-19T09:03:48.633Z</time></trkpt><trkpt lat="41.1837883" lon="16.6739517"><ele>18.0</ele><time>2026-04-19T09:03:49.634Z</time></trkpt><trkpt lat="41.1836967" lon="16.6739617"><ele>18.0</ele><time>2026-04-19T09:03:50.634Z</time></trkpt><trkpt lat="41.1836117" lon="16.6739633"><ele>18.0</ele><time>2026-04-19T09:03:51.633Z</time></trkpt><trkpt lat="41.183535" lon="16.6739683"><ele>18.0</ele><time>2026-04-19T09:03:52.634Z</time></trkpt><trkpt lat="41.183465" lon="16.6739667"><ele>18.0</ele><time>2026-04-19T09:03:53.633Z</time></trkpt><trkpt lat="41.1833967" lon="16.6739567"><ele>18.0</ele><time>2026-04-19T09:03:54.634Z</time></trkpt><trkpt lat="41.1833333" lon="16.6739417"><ele>18.0</ele><time>2026-04-19T09:03:55.633Z</time></trkpt><trkpt lat="41.18322" lon="16.67389"><ele>17.8</ele><time>2026-04-19T09:03:57.633Z</time></trkpt><trkpt lat="41.18309" lon="16.6738417"><ele>17.6</ele><time>2026-04-19T09:03:59.634Z</time></trkpt><trkpt lat="41.183005" lon="16.673815"><ele>17.4</ele><time>2026-04-19T09:04:00.633Z</time></trkpt><trkpt lat="41.182915" lon="16.67378"><ele>17.2</ele><time>2026-04-19T09:04:01.634Z</time></trkpt><trkpt lat="41.1828267" lon="16.6737467"><ele>17.0</ele><time>2026-04-19T09:04:02.634Z</time></trkpt><trkpt lat="41.1827417" lon="16.6737283"><ele>17.0</ele><time>2026-04-19T09:04:03.633Z</time></trkpt><trkpt lat="41.18266" lon="16.6737167"><ele>17.0</ele><time>2026-04-19T09:04:04.634Z</time></trkpt><trkpt lat="41.1825733" lon="16.6737133"><ele>17.0</ele><time>2026-04-19T09:04:05.633Z</time></trkpt><trkpt lat="41.1824817" lon="16.67371"><ele>17.0</ele><time>2026-04-19T09:04:06.634Z</time></trkpt><trkpt lat="41.1823867" lon="16.6737083"><ele>17.0</ele><time>2026-04-19T09:04:07.634Z</time></trkpt><trkpt lat="41.1823" lon="16.673705"><ele>17.0</ele><time>2026-04-19T09:04:08.634Z</time></trkpt><trkpt lat="41.1822167" lon="16.6737"><ele>17.0</ele><time>2026-04-19T09:04:09.633Z</time></trkpt><trkpt lat="41.1821417" lon="16.6736783"><ele>17.0</ele><time>2026-04-19T09:04:10.633Z</time></trkpt><trkpt lat="41.1820783" lon="16.6736383"><ele>17.0</ele><time>2026-04-19T09:04:11.633Z</time></trkpt><trkpt lat="41.1820233" lon="16.67357"><ele>17.0</ele><time>2026-04-19T09:04:12.634Z</time></trkpt><trkpt lat="41.18199" lon="16.673475"><ele>17.0</ele><time>2026-04-19T09:04:13.633Z</time></trkpt><trkpt lat="41.181975" lon="16.6733683"><ele>17.0</ele><time>2026-04-19T09:04:14.633Z</time></trkpt><trkpt lat="41.1819767" lon="16.673245"><ele>17.6</ele><time>2026-04-19T09:04:15.633Z</time></trkpt><trkpt lat="41.18198" lon="16.6731017"><ele>18.2</ele><time>2026-04-19T09:04:16.633Z</time></trkpt><trkpt lat="41.1819817" lon="16.67296"><ele>18.8</ele><time>2026-04-19T09:04:17.636Z</time></trkpt><trkpt lat="41.18199" lon="16.672835"><ele>19.4</ele><time>2026-04-19T09:04:18.633Z</time></trkpt><trkpt lat="41.1819967" lon="16.67274"><ele>20.0</ele><time>2026-04-19T09:04:19.634Z</time></trkpt><trkpt lat="41.1820117" lon="16.6725583"><ele>20.0</ele><time>2026-04-19T09:04:21.633Z</time></trkpt><trkpt lat="41.182025" lon="16.672435"><ele>20.0</ele><time>2026-04-19T09:04:22.634Z</time></trkpt><trkpt lat="41.1820317" lon="16.6722917"><ele>20.0</ele><time>2026-04-19T09:04:23.633Z</time></trkpt><trkpt lat="41.1820583" lon="16.67216"><ele>20.0</ele><time>2026-04-19T09:04:24.633Z</time></trkpt><trkpt lat="41.18208" lon="16.672045"><ele>20.0</ele><time>2026-04-19T09:04:25.633Z</time></trkpt><trkpt lat="41.18209" lon="16.6719467"><ele>19.6</ele><time>2026-04-19T09:04:26.635Z</time></trkpt><trkpt lat="41.182095" lon="16.6718133"><ele>19.2</ele><time>2026-04-19T09:04:28.633Z</time></trkpt><trkpt lat="41.18214" lon="16.6717267"><ele>18.8</ele><time>2026-04-19T09:04:31.634Z</time></trkpt><trkpt lat="41.18223" lon="16.6717717"><ele>18.4</ele><time>2026-04-19T09:04:33.633Z</time></trkpt><trkpt lat="41.1823217" lon="16.6718367"><ele>18.0</ele><time>2026-04-19T09:04:35.634Z</time></trkpt><trkpt lat="41.1823817" lon="16.67192"><ele>18.0</ele><time>2026-04-19T09:04:37.634Z</time></trkpt><trkpt lat="41.1824433" lon="16.6719783"><ele>22.0</ele><time>2026-04-19T09:04:39.633Z</time></trkpt><trkpt lat="41.1825017" lon="16.6720333"><ele>22.0</ele><time>2026-04-19T09:04:42.633Z</time></trkpt></trkseg></trk></gpx>